<?xml version="1.0" encoding="UTF-8" standalone="no" ?>
<gpx xmlns="http://www.topografix.com/GPX/1/1" xmlns:xsi="http://www.w3.org/2001/XMLSchema-instance" xsi:schemaLocation="http://www.topografix.com/GPX/1/1 http://www.topografix.com/GPX/1/1/gpx.xsd" version="1.1" creator="VisuGPX - https://www.visugpx.com">
  <metadata>
    <name>La mon | E-Bike Ride | Strava</name>
  </metadata>
  <trk>
    <name><![CDATA[La mon | E-Bike Ride | Strava]]></name>
    <trkseg>
      <trkpt lat="44.85595" lon="0.59453">
        <ele>43</ele>
        <time>2021-05-17T11:59:00.000Z</time>
      </trkpt>
      <trkpt lat="44.85595" lon="0.59454">
        <ele>43.3</ele>
        <time>2021-05-17T11:59:01.000Z</time>
      </trkpt>
      <trkpt lat="44.85595" lon="0.59453">
        <ele>43.3</ele>
        <time>2021-05-17T11:59:02.000Z</time>
      </trkpt>
      <trkpt lat="44.85595" lon="0.59453">
        <ele>43.3</ele>
        <time>2021-05-17T11:59:03.000Z</time>
      </trkpt>
      <trkpt lat="44.85595" lon="0.59453">
        <ele>43.3</ele>
        <time>2021-05-17T11:59:04.000Z</time>
      </trkpt>
      <trkpt lat="44.85595" lon="0.59453">
        <ele>43.3</ele>
        <time>2021-05-17T11:59:05.000Z</time>
      </trkpt>
      <trkpt lat="44.85595" lon="0.59452">
        <ele>43.3</ele>
        <time>2021-05-17T11:59:06.000Z</time>
      </trkpt>
      <trkpt lat="44.85595" lon="0.59452">
        <ele>43.3</ele>
        <time>2021-05-17T11:59:07.000Z</time>
      </trkpt>
      <trkpt lat="44.85595" lon="0.59452">
        <ele>43.3</ele>
        <time>2021-05-17T11:59:08.000Z</time>
      </trkpt>
      <trkpt lat="44.85595" lon="0.59452">
        <ele>43.3</ele>
        <time>2021-05-17T11:59:09.000Z</time>
      </trkpt>
      <trkpt lat="44.85595" lon="0.59451">
        <ele>43.3</ele>
        <time>2021-05-17T11:59:10.000Z</time>
      </trkpt>
      <trkpt lat="44.85595" lon="0.59451">
        <ele>43.3</ele>
        <time>2021-05-17T11:59:11.000Z</time>
      </trkpt>
      <trkpt lat="44.85595" lon="0.59451">
        <ele>43.3</ele>
        <time>2021-05-17T11:59:12.000Z</time>
      </trkpt>
      <trkpt lat="44.85595" lon="0.59451">
        <ele>43.3</ele>
        <time>2021-05-17T11:59:13.000Z</time>
      </trkpt>
      <trkpt lat="44.85595" lon="0.5945">
        <ele>43.3</ele>
        <time>2021-05-17T11:59:14.000Z</time>
      </trkpt>
      <trkpt lat="44.85595" lon="0.5945">
        <ele>43.3</ele>
        <time>2021-05-17T11:59:15.000Z</time>
      </trkpt>
      <trkpt lat="44.85595" lon="0.5945">
        <ele>43.3</ele>
        <time>2021-05-17T11:59:16.000Z</time>
      </trkpt>
      <trkpt lat="44.85595" lon="0.5945">
        <ele>43.3</ele>
        <time>2021-05-17T11:59:17.000Z</time>
      </trkpt>
      <trkpt lat="44.85595" lon="0.59449">
        <ele>43.3</ele>
        <time>2021-05-17T11:59:18.000Z</time>
      </trkpt>
      <trkpt lat="44.85595" lon="0.59449">
        <ele>43.3</ele>
        <time>2021-05-17T11:59:19.000Z</time>
      </trkpt>
      <trkpt lat="44.85595" lon="0.59449">
        <ele>43.3</ele>
        <time>2021-05-17T11:59:20.000Z</time>
      </trkpt>
      <trkpt lat="44.85595" lon="0.59449">
        <ele>43.4</ele>
        <time>2021-05-17T11:59:21.000Z</time>
      </trkpt>
      <trkpt lat="44.85595" lon="0.59449">
        <ele>43.4</ele>
        <time>2021-05-17T11:59:22.000Z</time>
      </trkpt>
      <trkpt lat="44.85595" lon="0.59448">
        <ele>43.4</ele>
        <time>2021-05-17T11:59:23.000Z</time>
      </trkpt>
      <trkpt lat="44.85595" lon="0.59448">
        <ele>43.4</ele>
        <time>2021-05-17T11:59:24.000Z</time>
      </trkpt>
      <trkpt lat="44.85595" lon="0.59448">
        <ele>43.4</ele>
        <time>2021-05-17T11:59:25.000Z</time>
      </trkpt>
      <trkpt lat="44.85595" lon="0.59448">
        <ele>43.4</ele>
        <time>2021-05-17T11:59:26.000Z</time>
      </trkpt>
      <trkpt lat="44.85595" lon="0.59447">
        <ele>43.4</ele>
        <time>2021-05-17T11:59:27.000Z</time>
      </trkpt>
      <trkpt lat="44.85595" lon="0.59447">
        <ele>43.4</ele>
        <time>2021-05-17T11:59:28.000Z</time>
      </trkpt>
      <trkpt lat="44.85596" lon="0.59446">
        <ele>43.4</ele>
        <time>2021-05-17T11:59:29.000Z</time>
      </trkpt>
      <trkpt lat="44.85595" lon="0.59447">
        <ele>43.4</ele>
        <time>2021-05-17T11:59:30.000Z</time>
      </trkpt>
      <trkpt lat="44.85594" lon="0.59447">
        <ele>43.4</ele>
        <time>2021-05-17T11:59:31.000Z</time>
      </trkpt>
      <trkpt lat="44.85595" lon="0.59447">
        <ele>43.4</ele>
        <time>2021-05-17T11:59:32.000Z</time>
      </trkpt>
      <trkpt lat="44.85595" lon="0.59447">
        <ele>43.4</ele>
        <time>2021-05-17T11:59:33.000Z</time>
      </trkpt>
      <trkpt lat="44.85596" lon="0.59448">
        <ele>43.5</ele>
        <time>2021-05-17T11:59:34.000Z</time>
      </trkpt>
      <trkpt lat="44.85598" lon="0.59447">
        <ele>43.5</ele>
        <time>2021-05-17T11:59:35.000Z</time>
      </trkpt>
      <trkpt lat="44.85597" lon="0.59448">
        <ele>43.5</ele>
        <time>2021-05-17T11:59:36.000Z</time>
      </trkpt>
      <trkpt lat="44.85597" lon="0.59448">
        <ele>43.5</ele>
        <time>2021-05-17T11:59:37.000Z</time>
      </trkpt>
      <trkpt lat="44.85598" lon="0.59448">
        <ele>43.6</ele>
        <time>2021-05-17T11:59:38.000Z</time>
      </trkpt>
      <trkpt lat="44.85599" lon="0.59449">
        <ele>43.6</ele>
        <time>2021-05-17T11:59:39.000Z</time>
      </trkpt>
      <trkpt lat="44.85599" lon="0.59449">
        <ele>43.6</ele>
        <time>2021-05-17T11:59:40.000Z</time>
      </trkpt>
      <trkpt lat="44.85599" lon="0.59449">
        <ele>43.6</ele>
        <time>2021-05-17T11:59:41.000Z</time>
      </trkpt>
      <trkpt lat="44.85599" lon="0.59449">
        <ele>43.6</ele>
        <time>2021-05-17T11:59:42.000Z</time>
      </trkpt>
      <trkpt lat="44.85599" lon="0.5945">
        <ele>43.6</ele>
        <time>2021-05-17T11:59:43.000Z</time>
      </trkpt>
      <trkpt lat="44.85598" lon="0.5945">
        <ele>43.6</ele>
        <time>2021-05-17T11:59:44.000Z</time>
      </trkpt>
      <trkpt lat="44.85598" lon="0.5945">
        <ele>43.6</ele>
        <time>2021-05-17T11:59:45.000Z</time>
      </trkpt>
      <trkpt lat="44.85598" lon="0.5945">
        <ele>43.7</ele>
        <time>2021-05-17T11:59:46.000Z</time>
      </trkpt>
      <trkpt lat="44.85598" lon="0.59449">
        <ele>43.7</ele>
        <time>2021-05-17T11:59:47.000Z</time>
      </trkpt>
      <trkpt lat="44.85598" lon="0.59448">
        <ele>43.7</ele>
        <time>2021-05-17T11:59:48.000Z</time>
      </trkpt>
      <trkpt lat="44.85598" lon="0.59447">
        <ele>43.7</ele>
        <time>2021-05-17T11:59:49.000Z</time>
      </trkpt>
      <trkpt lat="44.85598" lon="0.59445">
        <ele>43.7</ele>
        <time>2021-05-17T11:59:50.000Z</time>
      </trkpt>
      <trkpt lat="44.85598" lon="0.59444">
        <ele>43.8</ele>
        <time>2021-05-17T11:59:51.000Z</time>
      </trkpt>
      <trkpt lat="44.85598" lon="0.59443">
        <ele>43.8</ele>
        <time>2021-05-17T11:59:52.000Z</time>
      </trkpt>
      <trkpt lat="44.85598" lon="0.59443">
        <ele>43.8</ele>
        <time>2021-05-17T11:59:53.000Z</time>
      </trkpt>
      <trkpt lat="44.85598" lon="0.59442">
        <ele>43.8</ele>
        <time>2021-05-17T11:59:54.000Z</time>
      </trkpt>
      <trkpt lat="44.85598" lon="0.59441">
        <ele>43.8</ele>
        <time>2021-05-17T11:59:55.000Z</time>
      </trkpt>
      <trkpt lat="44.856" lon="0.59439">
        <ele>43.9</ele>
        <time>2021-05-17T11:59:56.000Z</time>
      </trkpt>
      <trkpt lat="44.856" lon="0.59438">
        <ele>43.9</ele>
        <time>2021-05-17T11:59:57.000Z</time>
      </trkpt>
      <trkpt lat="44.856" lon="0.59437">
        <ele>43.9</ele>
        <time>2021-05-17T11:59:58.000Z</time>
      </trkpt>
      <trkpt lat="44.856" lon="0.59436">
        <ele>43.9</ele>
        <time>2021-05-17T11:59:59.000Z</time>
      </trkpt>
      <trkpt lat="44.856" lon="0.59436">
        <ele>43.9</ele>
        <time>2021-05-17T12:00:00.000Z</time>
      </trkpt>
      <trkpt lat="44.856" lon="0.59437">
        <ele>43.9</ele>
        <time>2021-05-17T12:00:01.000Z</time>
      </trkpt>
      <trkpt lat="44.856" lon="0.59438">
        <ele>44</ele>
        <time>2021-05-17T12:00:02.000Z</time>
      </trkpt>
      <trkpt lat="44.85599" lon="0.59438">
        <ele>44</ele>
        <time>2021-05-17T12:00:03.000Z</time>
      </trkpt>
      <trkpt lat="44.85599" lon="0.59439">
        <ele>44</ele>
        <time>2021-05-17T12:00:04.000Z</time>
      </trkpt>
      <trkpt lat="44.85599" lon="0.59438">
        <ele>44</ele>
        <time>2021-05-17T12:00:05.000Z</time>
      </trkpt>
      <trkpt lat="44.856" lon="0.59439">
        <ele>44</ele>
        <time>2021-05-17T12:00:06.000Z</time>
      </trkpt>
      <trkpt lat="44.856" lon="0.59438">
        <ele>44</ele>
        <time>2021-05-17T12:00:07.000Z</time>
      </trkpt>
      <trkpt lat="44.856" lon="0.59437">
        <ele>44</ele>
        <time>2021-05-17T12:00:08.000Z</time>
      </trkpt>
      <trkpt lat="44.85601" lon="0.59437">
        <ele>44.1</ele>
        <time>2021-05-17T12:00:09.000Z</time>
      </trkpt>
      <trkpt lat="44.85601" lon="0.59437">
        <ele>44.1</ele>
        <time>2021-05-17T12:00:10.000Z</time>
      </trkpt>
      <trkpt lat="44.85602" lon="0.59438">
        <ele>44.1</ele>
        <time>2021-05-17T12:00:11.000Z</time>
      </trkpt>
      <trkpt lat="44.85601" lon="0.59441">
        <ele>44.1</ele>
        <time>2021-05-17T12:00:12.000Z</time>
      </trkpt>
      <trkpt lat="44.856" lon="0.59439">
        <ele>44.2</ele>
        <time>2021-05-17T12:00:13.000Z</time>
      </trkpt>
      <trkpt lat="44.85599" lon="0.59439">
        <ele>44.2</ele>
        <time>2021-05-17T12:00:14.000Z</time>
      </trkpt>
      <trkpt lat="44.856" lon="0.59439">
        <ele>44.2</ele>
        <time>2021-05-17T12:00:15.000Z</time>
      </trkpt>
      <trkpt lat="44.85601" lon="0.59439">
        <ele>44.2</ele>
        <time>2021-05-17T12:00:16.000Z</time>
      </trkpt>
      <trkpt lat="44.85601" lon="0.59438">
        <ele>44.2</ele>
        <time>2021-05-17T12:00:17.000Z</time>
      </trkpt>
      <trkpt lat="44.85601" lon="0.59438">
        <ele>44.3</ele>
        <time>2021-05-17T12:00:18.000Z</time>
      </trkpt>
      <trkpt lat="44.85601" lon="0.59438">
        <ele>44.3</ele>
        <time>2021-05-17T12:00:19.000Z</time>
      </trkpt>
      <trkpt lat="44.85602" lon="0.59438">
        <ele>44.3</ele>
        <time>2021-05-17T12:00:20.000Z</time>
      </trkpt>
      <trkpt lat="44.85602" lon="0.59438">
        <ele>44.3</ele>
        <time>2021-05-17T12:00:21.000Z</time>
      </trkpt>
      <trkpt lat="44.85603" lon="0.59439">
        <ele>44.3</ele>
        <time>2021-05-17T12:00:22.000Z</time>
      </trkpt>
      <trkpt lat="44.85603" lon="0.5944">
        <ele>44.3</ele>
        <time>2021-05-17T12:00:23.000Z</time>
      </trkpt>
      <trkpt lat="44.85603" lon="0.59442">
        <ele>44.4</ele>
        <time>2021-05-17T12:00:24.000Z</time>
      </trkpt>
      <trkpt lat="44.85604" lon="0.59444">
        <ele>44.4</ele>
        <time>2021-05-17T12:00:25.000Z</time>
      </trkpt>
      <trkpt lat="44.85603" lon="0.5945">
        <ele>44.5</ele>
        <time>2021-05-17T12:00:26.000Z</time>
      </trkpt>
      <trkpt lat="44.85603" lon="0.59455">
        <ele>44.6</ele>
        <time>2021-05-17T12:00:27.000Z</time>
      </trkpt>
      <trkpt lat="44.85604" lon="0.59457">
        <ele>44.6</ele>
        <time>2021-05-17T12:00:28.000Z</time>
      </trkpt>
      <trkpt lat="44.85602" lon="0.59463">
        <ele>44.7</ele>
        <time>2021-05-17T12:00:29.000Z</time>
      </trkpt>
      <trkpt lat="44.85602" lon="0.59469">
        <ele>44.9</ele>
        <time>2021-05-17T12:00:30.000Z</time>
      </trkpt>
      <trkpt lat="44.85603" lon="0.59475">
        <ele>45</ele>
        <time>2021-05-17T12:00:31.000Z</time>
      </trkpt>
      <trkpt lat="44.85605" lon="0.59479">
        <ele>45.1</ele>
        <time>2021-05-17T12:00:32.000Z</time>
      </trkpt>
      <trkpt lat="44.85606" lon="0.59484">
        <ele>45.2</ele>
        <time>2021-05-17T12:00:33.000Z</time>
      </trkpt>
      <trkpt lat="44.85605" lon="0.59491">
        <ele>45.3</ele>
        <time>2021-05-17T12:00:34.000Z</time>
      </trkpt>
      <trkpt lat="44.85604" lon="0.59497">
        <ele>45.4</ele>
        <time>2021-05-17T12:00:35.000Z</time>
      </trkpt>
      <trkpt lat="44.85603" lon="0.59504">
        <ele>45.6</ele>
        <time>2021-05-17T12:00:36.000Z</time>
      </trkpt>
      <trkpt lat="44.85601" lon="0.59512">
        <ele>45.7</ele>
        <time>2021-05-17T12:00:37.000Z</time>
      </trkpt>
      <trkpt lat="44.85599" lon="0.59518">
        <ele>45.9</ele>
        <time>2021-05-17T12:00:38.000Z</time>
      </trkpt>
      <trkpt lat="44.85597" lon="0.59524">
        <ele>46</ele>
        <time>2021-05-17T12:00:39.000Z</time>
      </trkpt>
      <trkpt lat="44.85595" lon="0.5953">
        <ele>46.2</ele>
        <time>2021-05-17T12:00:40.000Z</time>
      </trkpt>
      <trkpt lat="44.85593" lon="0.59535">
        <ele>46.3</ele>
        <time>2021-05-17T12:00:41.000Z</time>
      </trkpt>
      <trkpt lat="44.85591" lon="0.59541">
        <ele>46.5</ele>
        <time>2021-05-17T12:00:42.000Z</time>
      </trkpt>
      <trkpt lat="44.8559" lon="0.59547">
        <ele>46.6</ele>
        <time>2021-05-17T12:00:43.000Z</time>
      </trkpt>
      <trkpt lat="44.85589" lon="0.59553">
        <ele>46.8</ele>
        <time>2021-05-17T12:00:44.000Z</time>
      </trkpt>
      <trkpt lat="44.85587" lon="0.59559">
        <ele>46.9</ele>
        <time>2021-05-17T12:00:45.000Z</time>
      </trkpt>
      <trkpt lat="44.85585" lon="0.59564">
        <ele>47.1</ele>
        <time>2021-05-17T12:00:46.000Z</time>
      </trkpt>
      <trkpt lat="44.85584" lon="0.5957">
        <ele>47.3</ele>
        <time>2021-05-17T12:00:47.000Z</time>
      </trkpt>
      <trkpt lat="44.85584" lon="0.59575">
        <ele>47.4</ele>
        <time>2021-05-17T12:00:48.000Z</time>
      </trkpt>
      <trkpt lat="44.85584" lon="0.59581">
        <ele>47.6</ele>
        <time>2021-05-17T12:00:49.000Z</time>
      </trkpt>
      <trkpt lat="44.85585" lon="0.59585">
        <ele>48.2</ele>
        <time>2021-05-17T12:00:50.000Z</time>
      </trkpt>
      <trkpt lat="44.85587" lon="0.5959">
        <ele>48.4</ele>
        <time>2021-05-17T12:00:51.000Z</time>
      </trkpt>
      <trkpt lat="44.8559" lon="0.59592">
        <ele>48.5</ele>
        <time>2021-05-17T12:00:52.000Z</time>
      </trkpt>
      <trkpt lat="44.85592" lon="0.59595">
        <ele>48.6</ele>
        <time>2021-05-17T12:00:53.000Z</time>
      </trkpt>
      <trkpt lat="44.85596" lon="0.59597">
        <ele>48.7</ele>
        <time>2021-05-17T12:00:54.000Z</time>
      </trkpt>
      <trkpt lat="44.85601" lon="0.59601">
        <ele>48.9</ele>
        <time>2021-05-17T12:00:55.000Z</time>
      </trkpt>
      <trkpt lat="44.85605" lon="0.59604">
        <ele>49.1</ele>
        <time>2021-05-17T12:00:56.000Z</time>
      </trkpt>
      <trkpt lat="44.85611" lon="0.59607">
        <ele>49.3</ele>
        <time>2021-05-17T12:00:57.000Z</time>
      </trkpt>
      <trkpt lat="44.85617" lon="0.59609">
        <ele>49.5</ele>
        <time>2021-05-17T12:00:58.000Z</time>
      </trkpt>
      <trkpt lat="44.85621" lon="0.59611">
        <ele>49.7</ele>
        <time>2021-05-17T12:00:59.000Z</time>
      </trkpt>
      <trkpt lat="44.85626" lon="0.59614">
        <ele>49.9</ele>
        <time>2021-05-17T12:01:00.000Z</time>
      </trkpt>
      <trkpt lat="44.8563" lon="0.59615">
        <ele>50.1</ele>
        <time>2021-05-17T12:01:01.000Z</time>
      </trkpt>
      <trkpt lat="44.85635" lon="0.59618">
        <ele>50.3</ele>
        <time>2021-05-17T12:01:02.000Z</time>
      </trkpt>
      <trkpt lat="44.85639" lon="0.59621">
        <ele>50.6</ele>
        <time>2021-05-17T12:01:03.000Z</time>
      </trkpt>
      <trkpt lat="44.85644" lon="0.59624">
        <ele>50.8</ele>
        <time>2021-05-17T12:01:04.000Z</time>
      </trkpt>
      <trkpt lat="44.85648" lon="0.59627">
        <ele>51.1</ele>
        <time>2021-05-17T12:01:05.000Z</time>
      </trkpt>
      <trkpt lat="44.85653" lon="0.5963">
        <ele>51.4</ele>
        <time>2021-05-17T12:01:06.000Z</time>
      </trkpt>
      <trkpt lat="44.85657" lon="0.59632">
        <ele>51.7</ele>
        <time>2021-05-17T12:01:07.000Z</time>
      </trkpt>
      <trkpt lat="44.85661" lon="0.59635">
        <ele>52</ele>
        <time>2021-05-17T12:01:09.000Z</time>
      </trkpt>
      <trkpt lat="44.85666" lon="0.59637">
        <ele>52.3</ele>
        <time>2021-05-17T12:01:10.000Z</time>
      </trkpt>
      <trkpt lat="44.8567" lon="0.59639">
        <ele>52.6</ele>
        <time>2021-05-17T12:01:11.000Z</time>
      </trkpt>
      <trkpt lat="44.85674" lon="0.59642">
        <ele>52.9</ele>
        <time>2021-05-17T12:01:12.000Z</time>
      </trkpt>
      <trkpt lat="44.85679" lon="0.59644">
        <ele>53.3</ele>
        <time>2021-05-17T12:01:13.000Z</time>
      </trkpt>
      <trkpt lat="44.85684" lon="0.59647">
        <ele>53.6</ele>
        <time>2021-05-17T12:01:14.000Z</time>
      </trkpt>
      <trkpt lat="44.85688" lon="0.5965">
        <ele>54</ele>
        <time>2021-05-17T12:01:15.000Z</time>
      </trkpt>
      <trkpt lat="44.85692" lon="0.59653">
        <ele>54.3</ele>
        <time>2021-05-17T12:01:16.000Z</time>
      </trkpt>
      <trkpt lat="44.85696" lon="0.59655">
        <ele>54.6</ele>
        <time>2021-05-17T12:01:17.000Z</time>
      </trkpt>
      <trkpt lat="44.85701" lon="0.59658">
        <ele>55</ele>
        <time>2021-05-17T12:01:18.000Z</time>
      </trkpt>
      <trkpt lat="44.85706" lon="0.59661">
        <ele>55.4</ele>
        <time>2021-05-17T12:01:19.000Z</time>
      </trkpt>
      <trkpt lat="44.8571" lon="0.59663">
        <ele>55.8</ele>
        <time>2021-05-17T12:01:20.000Z</time>
      </trkpt>
      <trkpt lat="44.85714" lon="0.59665">
        <ele>56.2</ele>
        <time>2021-05-17T12:01:21.000Z</time>
      </trkpt>
      <trkpt lat="44.8572" lon="0.59666">
        <ele>56.8</ele>
        <time>2021-05-17T12:01:22.000Z</time>
      </trkpt>
      <trkpt lat="44.85725" lon="0.59667">
        <ele>57</ele>
        <time>2021-05-17T12:01:23.000Z</time>
      </trkpt>
      <trkpt lat="44.85729" lon="0.59666">
        <ele>57</ele>
        <time>2021-05-17T12:01:24.000Z</time>
      </trkpt>
      <trkpt lat="44.85733" lon="0.59665">
        <ele>57</ele>
        <time>2021-05-17T12:01:25.000Z</time>
      </trkpt>
      <trkpt lat="44.85738" lon="0.59665">
        <ele>57</ele>
        <time>2021-05-17T12:01:26.000Z</time>
      </trkpt>
      <trkpt lat="44.85742" lon="0.59664">
        <ele>57</ele>
        <time>2021-05-17T12:01:27.000Z</time>
      </trkpt>
      <trkpt lat="44.85747" lon="0.59662">
        <ele>57.1</ele>
        <time>2021-05-17T12:01:28.000Z</time>
      </trkpt>
      <trkpt lat="44.85751" lon="0.59659">
        <ele>57.1</ele>
        <time>2021-05-17T12:01:29.000Z</time>
      </trkpt>
      <trkpt lat="44.85754" lon="0.59655">
        <ele>57.3</ele>
        <time>2021-05-17T12:01:30.000Z</time>
      </trkpt>
      <trkpt lat="44.85757" lon="0.59651">
        <ele>57.5</ele>
        <time>2021-05-17T12:01:31.000Z</time>
      </trkpt>
      <trkpt lat="44.85759" lon="0.59647">
        <ele>57.6</ele>
        <time>2021-05-17T12:01:32.000Z</time>
      </trkpt>
      <trkpt lat="44.85761" lon="0.59643">
        <ele>57.8</ele>
        <time>2021-05-17T12:01:33.000Z</time>
      </trkpt>
      <trkpt lat="44.85764" lon="0.59638">
        <ele>57.9</ele>
        <time>2021-05-17T12:01:34.000Z</time>
      </trkpt>
      <trkpt lat="44.85766" lon="0.59633">
        <ele>58.1</ele>
        <time>2021-05-17T12:01:35.000Z</time>
      </trkpt>
      <trkpt lat="44.85768" lon="0.59629">
        <ele>58.3</ele>
        <time>2021-05-17T12:01:36.000Z</time>
      </trkpt>
      <trkpt lat="44.85771" lon="0.59625">
        <ele>58.5</ele>
        <time>2021-05-17T12:01:37.000Z</time>
      </trkpt>
      <trkpt lat="44.85774" lon="0.59621">
        <ele>58.6</ele>
        <time>2021-05-17T12:01:38.000Z</time>
      </trkpt>
      <trkpt lat="44.85777" lon="0.59619">
        <ele>58.8</ele>
        <time>2021-05-17T12:01:39.000Z</time>
      </trkpt>
      <trkpt lat="44.8578" lon="0.59617">
        <ele>58.9</ele>
        <time>2021-05-17T12:01:40.000Z</time>
      </trkpt>
      <trkpt lat="44.85784" lon="0.59613">
        <ele>59.1</ele>
        <time>2021-05-17T12:01:41.000Z</time>
      </trkpt>
      <trkpt lat="44.85787" lon="0.59609">
        <ele>59.3</ele>
        <time>2021-05-17T12:01:42.000Z</time>
      </trkpt>
      <trkpt lat="44.8579" lon="0.59606">
        <ele>59.5</ele>
        <time>2021-05-17T12:01:43.000Z</time>
      </trkpt>
      <trkpt lat="44.85795" lon="0.596">
        <ele>59.8</ele>
        <time>2021-05-17T12:01:44.000Z</time>
      </trkpt>
      <trkpt lat="44.85799" lon="0.59597">
        <ele>60</ele>
        <time>2021-05-17T12:01:45.000Z</time>
      </trkpt>
      <trkpt lat="44.85802" lon="0.59593">
        <ele>60.3</ele>
        <time>2021-05-17T12:01:46.000Z</time>
      </trkpt>
      <trkpt lat="44.85804" lon="0.59593">
        <ele>60.4</ele>
        <time>2021-05-17T12:01:47.000Z</time>
      </trkpt>
      <trkpt lat="44.85807" lon="0.59591">
        <ele>60.6</ele>
        <time>2021-05-17T12:01:48.000Z</time>
      </trkpt>
      <trkpt lat="44.85811" lon="0.59587">
        <ele>60.8</ele>
        <time>2021-05-17T12:01:49.000Z</time>
      </trkpt>
      <trkpt lat="44.85813" lon="0.59586">
        <ele>60.9</ele>
        <time>2021-05-17T12:01:50.000Z</time>
      </trkpt>
      <trkpt lat="44.85816" lon="0.59584">
        <ele>61.2</ele>
        <time>2021-05-17T12:01:51.000Z</time>
      </trkpt>
      <trkpt lat="44.8582" lon="0.59582">
        <ele>61.4</ele>
        <time>2021-05-17T12:01:52.000Z</time>
      </trkpt>
      <trkpt lat="44.85823" lon="0.59581">
        <ele>61.6</ele>
        <time>2021-05-17T12:01:53.000Z</time>
      </trkpt>
      <trkpt lat="44.85825" lon="0.59578">
        <ele>61.8</ele>
        <time>2021-05-17T12:01:54.000Z</time>
      </trkpt>
      <trkpt lat="44.85828" lon="0.59576">
        <ele>62</ele>
        <time>2021-05-17T12:01:55.000Z</time>
      </trkpt>
      <trkpt lat="44.85829" lon="0.59575">
        <ele>62.1</ele>
        <time>2021-05-17T12:01:56.000Z</time>
      </trkpt>
      <trkpt lat="44.85833" lon="0.59573">
        <ele>62.3</ele>
        <time>2021-05-17T12:01:57.000Z</time>
      </trkpt>
      <trkpt lat="44.85836" lon="0.59572">
        <ele>62.6</ele>
        <time>2021-05-17T12:01:58.000Z</time>
      </trkpt>
      <trkpt lat="44.85839" lon="0.59568">
        <ele>62.8</ele>
        <time>2021-05-17T12:01:59.000Z</time>
      </trkpt>
      <trkpt lat="44.85841" lon="0.59567">
        <ele>62.9</ele>
        <time>2021-05-17T12:02:00.000Z</time>
      </trkpt>
      <trkpt lat="44.85844" lon="0.59566">
        <ele>63.1</ele>
        <time>2021-05-17T12:02:01.000Z</time>
      </trkpt>
      <trkpt lat="44.85846" lon="0.59565">
        <ele>63.1</ele>
        <time>2021-05-17T12:02:02.000Z</time>
      </trkpt>
      <trkpt lat="44.85849" lon="0.59563">
        <ele>63.3</ele>
        <time>2021-05-17T12:02:03.000Z</time>
      </trkpt>
      <trkpt lat="44.8585" lon="0.59562">
        <ele>63.4</ele>
        <time>2021-05-17T12:02:04.000Z</time>
      </trkpt>
      <trkpt lat="44.85853" lon="0.5956">
        <ele>63.5</ele>
        <time>2021-05-17T12:02:05.000Z</time>
      </trkpt>
      <trkpt lat="44.85856" lon="0.59557">
        <ele>63.7</ele>
        <time>2021-05-17T12:02:06.000Z</time>
      </trkpt>
      <trkpt lat="44.85859" lon="0.59554">
        <ele>63.9</ele>
        <time>2021-05-17T12:02:07.000Z</time>
      </trkpt>
      <trkpt lat="44.85863" lon="0.59551">
        <ele>64</ele>
        <time>2021-05-17T12:02:08.000Z</time>
      </trkpt>
      <trkpt lat="44.85864" lon="0.5955">
        <ele>64.1</ele>
        <time>2021-05-17T12:02:09.000Z</time>
      </trkpt>
      <trkpt lat="44.85866" lon="0.59547">
        <ele>64.2</ele>
        <time>2021-05-17T12:02:10.000Z</time>
      </trkpt>
      <trkpt lat="44.85867" lon="0.59546">
        <ele>64.2</ele>
        <time>2021-05-17T12:02:11.000Z</time>
      </trkpt>
      <trkpt lat="44.8587" lon="0.59543">
        <ele>64.3</ele>
        <time>2021-05-17T12:02:12.000Z</time>
      </trkpt>
      <trkpt lat="44.85871" lon="0.59542">
        <ele>64.4</ele>
        <time>2021-05-17T12:02:13.000Z</time>
      </trkpt>
      <trkpt lat="44.85872" lon="0.59541">
        <ele>64.4</ele>
        <time>2021-05-17T12:02:14.000Z</time>
      </trkpt>
      <trkpt lat="44.85874" lon="0.5954">
        <ele>64.5</ele>
        <time>2021-05-17T12:02:15.000Z</time>
      </trkpt>
      <trkpt lat="44.85876" lon="0.59536">
        <ele>64.6</ele>
        <time>2021-05-17T12:02:16.000Z</time>
      </trkpt>
      <trkpt lat="44.85877" lon="0.59534">
        <ele>64.6</ele>
        <time>2021-05-17T12:02:17.000Z</time>
      </trkpt>
      <trkpt lat="44.85879" lon="0.59532">
        <ele>64.7</ele>
        <time>2021-05-17T12:02:18.000Z</time>
      </trkpt>
      <trkpt lat="44.85882" lon="0.5953">
        <ele>64.7</ele>
        <time>2021-05-17T12:02:19.000Z</time>
      </trkpt>
      <trkpt lat="44.85885" lon="0.59529">
        <ele>64.8</ele>
        <time>2021-05-17T12:02:20.000Z</time>
      </trkpt>
      <trkpt lat="44.85887" lon="0.59525">
        <ele>64.9</ele>
        <time>2021-05-17T12:02:21.000Z</time>
      </trkpt>
      <trkpt lat="44.85888" lon="0.59523">
        <ele>64.9</ele>
        <time>2021-05-17T12:02:22.000Z</time>
      </trkpt>
      <trkpt lat="44.85891" lon="0.5952">
        <ele>65</ele>
        <time>2021-05-17T12:02:23.000Z</time>
      </trkpt>
      <trkpt lat="44.85892" lon="0.59519">
        <ele>65</ele>
        <time>2021-05-17T12:02:24.000Z</time>
      </trkpt>
      <trkpt lat="44.85895" lon="0.59515">
        <ele>65</ele>
        <time>2021-05-17T12:02:25.000Z</time>
      </trkpt>
      <trkpt lat="44.85895" lon="0.59514">
        <ele>65</ele>
        <time>2021-05-17T12:02:26.000Z</time>
      </trkpt>
      <trkpt lat="44.85897" lon="0.59509">
        <ele>65</ele>
        <time>2021-05-17T12:02:27.000Z</time>
      </trkpt>
      <trkpt lat="44.85898" lon="0.59507">
        <ele>65</ele>
        <time>2021-05-17T12:02:28.000Z</time>
      </trkpt>
      <trkpt lat="44.859" lon="0.59504">
        <ele>65</ele>
        <time>2021-05-17T12:02:29.000Z</time>
      </trkpt>
      <trkpt lat="44.859" lon="0.59503">
        <ele>65</ele>
        <time>2021-05-17T12:02:30.000Z</time>
      </trkpt>
      <trkpt lat="44.85901" lon="0.59502">
        <ele>65</ele>
        <time>2021-05-17T12:02:31.000Z</time>
      </trkpt>
      <trkpt lat="44.85902" lon="0.595">
        <ele>65</ele>
        <time>2021-05-17T12:02:32.000Z</time>
      </trkpt>
      <trkpt lat="44.85903" lon="0.59496">
        <ele>64.9</ele>
        <time>2021-05-17T12:02:33.000Z</time>
      </trkpt>
      <trkpt lat="44.85905" lon="0.59494">
        <ele>64.9</ele>
        <time>2021-05-17T12:02:34.000Z</time>
      </trkpt>
      <trkpt lat="44.85906" lon="0.59492">
        <ele>64.9</ele>
        <time>2021-05-17T12:02:35.000Z</time>
      </trkpt>
      <trkpt lat="44.85909" lon="0.5949">
        <ele>64.9</ele>
        <time>2021-05-17T12:02:36.000Z</time>
      </trkpt>
      <trkpt lat="44.85911" lon="0.59487">
        <ele>64.9</ele>
        <time>2021-05-17T12:02:37.000Z</time>
      </trkpt>
      <trkpt lat="44.85912" lon="0.59486">
        <ele>64.8</ele>
        <time>2021-05-17T12:02:38.000Z</time>
      </trkpt>
      <trkpt lat="44.85914" lon="0.59482">
        <ele>64.8</ele>
        <time>2021-05-17T12:02:39.000Z</time>
      </trkpt>
      <trkpt lat="44.85915" lon="0.5948">
        <ele>64.8</ele>
        <time>2021-05-17T12:02:40.000Z</time>
      </trkpt>
      <trkpt lat="44.85918" lon="0.59476">
        <ele>64.8</ele>
        <time>2021-05-17T12:02:41.000Z</time>
      </trkpt>
      <trkpt lat="44.85921" lon="0.59472">
        <ele>64.8</ele>
        <time>2021-05-17T12:02:42.000Z</time>
      </trkpt>
      <trkpt lat="44.85924" lon="0.59468">
        <ele>64.8</ele>
        <time>2021-05-17T12:02:43.000Z</time>
      </trkpt>
      <trkpt lat="44.85926" lon="0.59465">
        <ele>64.8</ele>
        <time>2021-05-17T12:02:44.000Z</time>
      </trkpt>
      <trkpt lat="44.85928" lon="0.59462">
        <ele>64.8</ele>
        <time>2021-05-17T12:02:45.000Z</time>
      </trkpt>
      <trkpt lat="44.85931" lon="0.59458">
        <ele>64.8</ele>
        <time>2021-05-17T12:02:46.000Z</time>
      </trkpt>
      <trkpt lat="44.85934" lon="0.59455">
        <ele>64.7</ele>
        <time>2021-05-17T12:02:47.000Z</time>
      </trkpt>
      <trkpt lat="44.85937" lon="0.59451">
        <ele>64.7</ele>
        <time>2021-05-17T12:02:48.000Z</time>
      </trkpt>
      <trkpt lat="44.8594" lon="0.59448">
        <ele>64.7</ele>
        <time>2021-05-17T12:02:49.000Z</time>
      </trkpt>
      <trkpt lat="44.85943" lon="0.59446">
        <ele>64.6</ele>
        <time>2021-05-17T12:02:50.000Z</time>
      </trkpt>
      <trkpt lat="44.85946" lon="0.59444">
        <ele>64.6</ele>
        <time>2021-05-17T12:02:51.000Z</time>
      </trkpt>
      <trkpt lat="44.85949" lon="0.59442">
        <ele>64.5</ele>
        <time>2021-05-17T12:02:52.000Z</time>
      </trkpt>
      <trkpt lat="44.85951" lon="0.59439">
        <ele>64.5</ele>
        <time>2021-05-17T12:02:53.000Z</time>
      </trkpt>
      <trkpt lat="44.85954" lon="0.59437">
        <ele>64.4</ele>
        <time>2021-05-17T12:02:54.000Z</time>
      </trkpt>
      <trkpt lat="44.85957" lon="0.59436">
        <ele>64.3</ele>
        <time>2021-05-17T12:02:55.000Z</time>
      </trkpt>
      <trkpt lat="44.8596" lon="0.59436">
        <ele>64.3</ele>
        <time>2021-05-17T12:02:56.000Z</time>
      </trkpt>
      <trkpt lat="44.85964" lon="0.59435">
        <ele>64.2</ele>
        <time>2021-05-17T12:02:57.000Z</time>
      </trkpt>
      <trkpt lat="44.85965" lon="0.59436">
        <ele>64.2</ele>
        <time>2021-05-17T12:02:58.000Z</time>
      </trkpt>
      <trkpt lat="44.85969" lon="0.59436">
        <ele>64.1</ele>
        <time>2021-05-17T12:02:59.000Z</time>
      </trkpt>
      <trkpt lat="44.85972" lon="0.59436">
        <ele>64</ele>
        <time>2021-05-17T12:03:00.000Z</time>
      </trkpt>
      <trkpt lat="44.85975" lon="0.59436">
        <ele>64</ele>
        <time>2021-05-17T12:03:01.000Z</time>
      </trkpt>
      <trkpt lat="44.85978" lon="0.59438">
        <ele>63.9</ele>
        <time>2021-05-17T12:03:02.000Z</time>
      </trkpt>
      <trkpt lat="44.85982" lon="0.59438">
        <ele>63.8</ele>
        <time>2021-05-17T12:03:03.000Z</time>
      </trkpt>
      <trkpt lat="44.85984" lon="0.5944">
        <ele>63.8</ele>
        <time>2021-05-17T12:03:04.000Z</time>
      </trkpt>
      <trkpt lat="44.85988" lon="0.5944">
        <ele>63.7</ele>
        <time>2021-05-17T12:03:05.000Z</time>
      </trkpt>
      <trkpt lat="44.85991" lon="0.59441">
        <ele>63.6</ele>
        <time>2021-05-17T12:03:06.000Z</time>
      </trkpt>
      <trkpt lat="44.85996" lon="0.59444">
        <ele>63.6</ele>
        <time>2021-05-17T12:03:07.000Z</time>
      </trkpt>
      <trkpt lat="44.85998" lon="0.59445">
        <ele>63.5</ele>
        <time>2021-05-17T12:03:08.000Z</time>
      </trkpt>
      <trkpt lat="44.86002" lon="0.59448">
        <ele>63.5</ele>
        <time>2021-05-17T12:03:09.000Z</time>
      </trkpt>
      <trkpt lat="44.86004" lon="0.5945">
        <ele>63.4</ele>
        <time>2021-05-17T12:03:10.000Z</time>
      </trkpt>
      <trkpt lat="44.86008" lon="0.59453">
        <ele>63.4</ele>
        <time>2021-05-17T12:03:11.000Z</time>
      </trkpt>
      <trkpt lat="44.86011" lon="0.59454">
        <ele>63.3</ele>
        <time>2021-05-17T12:03:12.000Z</time>
      </trkpt>
      <trkpt lat="44.86014" lon="0.59456">
        <ele>63.3</ele>
        <time>2021-05-17T12:03:13.000Z</time>
      </trkpt>
      <trkpt lat="44.86017" lon="0.59459">
        <ele>63.2</ele>
        <time>2021-05-17T12:03:15.000Z</time>
      </trkpt>
      <trkpt lat="44.8602" lon="0.5946">
        <ele>63.2</ele>
        <time>2021-05-17T12:03:16.000Z</time>
      </trkpt>
      <trkpt lat="44.86023" lon="0.59461">
        <ele>63.2</ele>
        <time>2021-05-17T12:03:17.000Z</time>
      </trkpt>
      <trkpt lat="44.86028" lon="0.59464">
        <ele>63.2</ele>
        <time>2021-05-17T12:03:18.000Z</time>
      </trkpt>
      <trkpt lat="44.8603" lon="0.59466">
        <ele>63.2</ele>
        <time>2021-05-17T12:03:19.000Z</time>
      </trkpt>
      <trkpt lat="44.86033" lon="0.59469">
        <ele>63.1</ele>
        <time>2021-05-17T12:03:20.000Z</time>
      </trkpt>
      <trkpt lat="44.86037" lon="0.59474">
        <ele>63.1</ele>
        <time>2021-05-17T12:03:21.000Z</time>
      </trkpt>
      <trkpt lat="44.86039" lon="0.59478">
        <ele>63.1</ele>
        <time>2021-05-17T12:03:22.000Z</time>
      </trkpt>
      <trkpt lat="44.86042" lon="0.59482">
        <ele>63.1</ele>
        <time>2021-05-17T12:03:23.000Z</time>
      </trkpt>
      <trkpt lat="44.86044" lon="0.59488">
        <ele>63.1</ele>
        <time>2021-05-17T12:03:24.000Z</time>
      </trkpt>
      <trkpt lat="44.86046" lon="0.59492">
        <ele>63.1</ele>
        <time>2021-05-17T12:03:25.000Z</time>
      </trkpt>
      <trkpt lat="44.86048" lon="0.59494">
        <ele>63.1</ele>
        <time>2021-05-17T12:03:26.000Z</time>
      </trkpt>
      <trkpt lat="44.86051" lon="0.59498">
        <ele>63.1</ele>
        <time>2021-05-17T12:03:27.000Z</time>
      </trkpt>
      <trkpt lat="44.86053" lon="0.595">
        <ele>63.2</ele>
        <time>2021-05-17T12:03:28.000Z</time>
      </trkpt>
      <trkpt lat="44.86056" lon="0.59501">
        <ele>63.2</ele>
        <time>2021-05-17T12:03:29.000Z</time>
      </trkpt>
      <trkpt lat="44.8606" lon="0.59501">
        <ele>63.3</ele>
        <time>2021-05-17T12:03:30.000Z</time>
      </trkpt>
      <trkpt lat="44.86064" lon="0.59501">
        <ele>63.4</ele>
        <time>2021-05-17T12:03:31.000Z</time>
      </trkpt>
      <trkpt lat="44.86068" lon="0.59502">
        <ele>63.5</ele>
        <time>2021-05-17T12:03:32.000Z</time>
      </trkpt>
      <trkpt lat="44.86072" lon="0.59502">
        <ele>63.5</ele>
        <time>2021-05-17T12:03:33.000Z</time>
      </trkpt>
      <trkpt lat="44.86075" lon="0.59503">
        <ele>63.6</ele>
        <time>2021-05-17T12:03:34.000Z</time>
      </trkpt>
      <trkpt lat="44.86079" lon="0.59503">
        <ele>63.7</ele>
        <time>2021-05-17T12:03:35.000Z</time>
      </trkpt>
      <trkpt lat="44.86084" lon="0.59504">
        <ele>63.7</ele>
        <time>2021-05-17T12:03:36.000Z</time>
      </trkpt>
      <trkpt lat="44.86088" lon="0.59504">
        <ele>63.8</ele>
        <time>2021-05-17T12:03:37.000Z</time>
      </trkpt>
      <trkpt lat="44.86091" lon="0.59504">
        <ele>63.9</ele>
        <time>2021-05-17T12:03:38.000Z</time>
      </trkpt>
      <trkpt lat="44.86095" lon="0.59504">
        <ele>64</ele>
        <time>2021-05-17T12:03:39.000Z</time>
      </trkpt>
      <trkpt lat="44.86099" lon="0.59505">
        <ele>64</ele>
        <time>2021-05-17T12:03:40.000Z</time>
      </trkpt>
      <trkpt lat="44.86104" lon="0.59506">
        <ele>64.1</ele>
        <time>2021-05-17T12:03:41.000Z</time>
      </trkpt>
      <trkpt lat="44.86108" lon="0.59507">
        <ele>64.2</ele>
        <time>2021-05-17T12:03:42.000Z</time>
      </trkpt>
      <trkpt lat="44.86113" lon="0.59508">
        <ele>64.3</ele>
        <time>2021-05-17T12:03:43.000Z</time>
      </trkpt>
      <trkpt lat="44.86118" lon="0.59509">
        <ele>64.4</ele>
        <time>2021-05-17T12:03:44.000Z</time>
      </trkpt>
      <trkpt lat="44.86123" lon="0.5951">
        <ele>64.6</ele>
        <time>2021-05-17T12:03:45.000Z</time>
      </trkpt>
      <trkpt lat="44.86132" lon="0.59512">
        <ele>64.8</ele>
        <time>2021-05-17T12:03:46.000Z</time>
      </trkpt>
      <trkpt lat="44.86137" lon="0.59513">
        <ele>64.9</ele>
        <time>2021-05-17T12:03:47.000Z</time>
      </trkpt>
      <trkpt lat="44.86141" lon="0.59515">
        <ele>65</ele>
        <time>2021-05-17T12:03:48.000Z</time>
      </trkpt>
      <trkpt lat="44.86145" lon="0.59516">
        <ele>65.2</ele>
        <time>2021-05-17T12:03:49.000Z</time>
      </trkpt>
      <trkpt lat="44.8615" lon="0.59518">
        <ele>65.3</ele>
        <time>2021-05-17T12:03:50.000Z</time>
      </trkpt>
      <trkpt lat="44.86154" lon="0.5952">
        <ele>65.5</ele>
        <time>2021-05-17T12:03:51.000Z</time>
      </trkpt>
      <trkpt lat="44.86158" lon="0.59521">
        <ele>65.6</ele>
        <time>2021-05-17T12:03:52.000Z</time>
      </trkpt>
      <trkpt lat="44.86163" lon="0.59523">
        <ele>65.8</ele>
        <time>2021-05-17T12:03:53.000Z</time>
      </trkpt>
      <trkpt lat="44.86166" lon="0.59524">
        <ele>65.9</ele>
        <time>2021-05-17T12:03:54.000Z</time>
      </trkpt>
      <trkpt lat="44.8617" lon="0.59526">
        <ele>66.1</ele>
        <time>2021-05-17T12:03:55.000Z</time>
      </trkpt>
      <trkpt lat="44.86175" lon="0.59529">
        <ele>66.3</ele>
        <time>2021-05-17T12:03:56.000Z</time>
      </trkpt>
      <trkpt lat="44.86178" lon="0.5953">
        <ele>66.4</ele>
        <time>2021-05-17T12:03:57.000Z</time>
      </trkpt>
      <trkpt lat="44.86182" lon="0.59531">
        <ele>66.6</ele>
        <time>2021-05-17T12:03:58.000Z</time>
      </trkpt>
      <trkpt lat="44.86186" lon="0.59533">
        <ele>66.8</ele>
        <time>2021-05-17T12:03:59.000Z</time>
      </trkpt>
      <trkpt lat="44.86191" lon="0.59535">
        <ele>67</ele>
        <time>2021-05-17T12:04:00.000Z</time>
      </trkpt>
      <trkpt lat="44.86195" lon="0.59537">
        <ele>67.2</ele>
        <time>2021-05-17T12:04:01.000Z</time>
      </trkpt>
      <trkpt lat="44.86199" lon="0.59539">
        <ele>67.4</ele>
        <time>2021-05-17T12:04:02.000Z</time>
      </trkpt>
      <trkpt lat="44.86204" lon="0.5954">
        <ele>67.7</ele>
        <time>2021-05-17T12:04:03.000Z</time>
      </trkpt>
      <trkpt lat="44.86208" lon="0.59542">
        <ele>67.9</ele>
        <time>2021-05-17T12:04:04.000Z</time>
      </trkpt>
      <trkpt lat="44.86212" lon="0.59543">
        <ele>68</ele>
        <time>2021-05-17T12:04:05.000Z</time>
      </trkpt>
      <trkpt lat="44.86216" lon="0.59545">
        <ele>68.2</ele>
        <time>2021-05-17T12:04:06.000Z</time>
      </trkpt>
      <trkpt lat="44.86219" lon="0.59546">
        <ele>68.3</ele>
        <time>2021-05-17T12:04:07.000Z</time>
      </trkpt>
      <trkpt lat="44.86223" lon="0.59547">
        <ele>68.5</ele>
        <time>2021-05-17T12:04:08.000Z</time>
      </trkpt>
      <trkpt lat="44.86227" lon="0.59548">
        <ele>68.7</ele>
        <time>2021-05-17T12:04:09.000Z</time>
      </trkpt>
      <trkpt lat="44.86232" lon="0.59549">
        <ele>68.9</ele>
        <time>2021-05-17T12:04:10.000Z</time>
      </trkpt>
      <trkpt lat="44.86237" lon="0.59551">
        <ele>69.1</ele>
        <time>2021-05-17T12:04:11.000Z</time>
      </trkpt>
      <trkpt lat="44.86242" lon="0.59553">
        <ele>69.3</ele>
        <time>2021-05-17T12:04:12.000Z</time>
      </trkpt>
      <trkpt lat="44.86247" lon="0.59554">
        <ele>69.6</ele>
        <time>2021-05-17T12:04:13.000Z</time>
      </trkpt>
      <trkpt lat="44.86251" lon="0.59556">
        <ele>69.8</ele>
        <time>2021-05-17T12:04:14.000Z</time>
      </trkpt>
      <trkpt lat="44.86256" lon="0.59558">
        <ele>70</ele>
        <time>2021-05-17T12:04:15.000Z</time>
      </trkpt>
      <trkpt lat="44.8626" lon="0.59559">
        <ele>70.2</ele>
        <time>2021-05-17T12:04:16.000Z</time>
      </trkpt>
      <trkpt lat="44.86265" lon="0.5956">
        <ele>70.4</ele>
        <time>2021-05-17T12:04:17.000Z</time>
      </trkpt>
      <trkpt lat="44.8627" lon="0.59562">
        <ele>70.6</ele>
        <time>2021-05-17T12:04:18.000Z</time>
      </trkpt>
      <trkpt lat="44.86274" lon="0.59563">
        <ele>70.8</ele>
        <time>2021-05-17T12:04:19.000Z</time>
      </trkpt>
      <trkpt lat="44.86278" lon="0.59563">
        <ele>70.9</ele>
        <time>2021-05-17T12:04:20.000Z</time>
      </trkpt>
      <trkpt lat="44.86282" lon="0.59563">
        <ele>71.1</ele>
        <time>2021-05-17T12:04:21.000Z</time>
      </trkpt>
      <trkpt lat="44.86286" lon="0.59564">
        <ele>71.3</ele>
        <time>2021-05-17T12:04:22.000Z</time>
      </trkpt>
      <trkpt lat="44.86291" lon="0.59566">
        <ele>71.5</ele>
        <time>2021-05-17T12:04:23.000Z</time>
      </trkpt>
      <trkpt lat="44.86296" lon="0.59568">
        <ele>71.7</ele>
        <time>2021-05-17T12:04:24.000Z</time>
      </trkpt>
      <trkpt lat="44.86301" lon="0.59569">
        <ele>71.9</ele>
        <time>2021-05-17T12:04:25.000Z</time>
      </trkpt>
      <trkpt lat="44.86306" lon="0.59571">
        <ele>72.1</ele>
        <time>2021-05-17T12:04:26.000Z</time>
      </trkpt>
      <trkpt lat="44.8631" lon="0.59572">
        <ele>72.2</ele>
        <time>2021-05-17T12:04:27.000Z</time>
      </trkpt>
      <trkpt lat="44.86315" lon="0.59572">
        <ele>72.4</ele>
        <time>2021-05-17T12:04:28.000Z</time>
      </trkpt>
      <trkpt lat="44.86319" lon="0.59575">
        <ele>72.6</ele>
        <time>2021-05-17T12:04:29.000Z</time>
      </trkpt>
      <trkpt lat="44.86324" lon="0.59578">
        <ele>72.8</ele>
        <time>2021-05-17T12:04:30.000Z</time>
      </trkpt>
      <trkpt lat="44.86329" lon="0.59581">
        <ele>73</ele>
        <time>2021-05-17T12:04:31.000Z</time>
      </trkpt>
      <trkpt lat="44.86334" lon="0.59584">
        <ele>73.2</ele>
        <time>2021-05-17T12:04:32.000Z</time>
      </trkpt>
      <trkpt lat="44.86338" lon="0.59586">
        <ele>73.4</ele>
        <time>2021-05-17T12:04:33.000Z</time>
      </trkpt>
      <trkpt lat="44.86343" lon="0.59588">
        <ele>73.5</ele>
        <time>2021-05-17T12:04:34.000Z</time>
      </trkpt>
      <trkpt lat="44.86347" lon="0.59591">
        <ele>73.7</ele>
        <time>2021-05-17T12:04:35.000Z</time>
      </trkpt>
      <trkpt lat="44.86352" lon="0.59594">
        <ele>73.8</ele>
        <time>2021-05-17T12:04:36.000Z</time>
      </trkpt>
      <trkpt lat="44.86357" lon="0.59596">
        <ele>74</ele>
        <time>2021-05-17T12:04:37.000Z</time>
      </trkpt>
      <trkpt lat="44.86361" lon="0.59597">
        <ele>74.1</ele>
        <time>2021-05-17T12:04:38.000Z</time>
      </trkpt>
      <trkpt lat="44.86366" lon="0.59599">
        <ele>74.2</ele>
        <time>2021-05-17T12:04:39.000Z</time>
      </trkpt>
      <trkpt lat="44.86371" lon="0.59601">
        <ele>74.4</ele>
        <time>2021-05-17T12:04:40.000Z</time>
      </trkpt>
      <trkpt lat="44.86376" lon="0.59602">
        <ele>74.5</ele>
        <time>2021-05-17T12:04:41.000Z</time>
      </trkpt>
      <trkpt lat="44.86381" lon="0.59603">
        <ele>74.6</ele>
        <time>2021-05-17T12:04:42.000Z</time>
      </trkpt>
      <trkpt lat="44.86386" lon="0.59604">
        <ele>74.7</ele>
        <time>2021-05-17T12:04:43.000Z</time>
      </trkpt>
      <trkpt lat="44.86391" lon="0.59604">
        <ele>74.9</ele>
        <time>2021-05-17T12:04:44.000Z</time>
      </trkpt>
      <trkpt lat="44.86395" lon="0.59604">
        <ele>75</ele>
        <time>2021-05-17T12:04:45.000Z</time>
      </trkpt>
      <trkpt lat="44.864" lon="0.59604">
        <ele>75.1</ele>
        <time>2021-05-17T12:04:46.000Z</time>
      </trkpt>
      <trkpt lat="44.86405" lon="0.59604">
        <ele>75.3</ele>
        <time>2021-05-17T12:04:47.000Z</time>
      </trkpt>
      <trkpt lat="44.8641" lon="0.59605">
        <ele>75.4</ele>
        <time>2021-05-17T12:04:48.000Z</time>
      </trkpt>
      <trkpt lat="44.86415" lon="0.59605">
        <ele>75.5</ele>
        <time>2021-05-17T12:04:49.000Z</time>
      </trkpt>
      <trkpt lat="44.8642" lon="0.59605">
        <ele>75.6</ele>
        <time>2021-05-17T12:04:50.000Z</time>
      </trkpt>
      <trkpt lat="44.86425" lon="0.59606">
        <ele>75.7</ele>
        <time>2021-05-17T12:04:51.000Z</time>
      </trkpt>
      <trkpt lat="44.8643" lon="0.59607">
        <ele>75.9</ele>
        <time>2021-05-17T12:04:52.000Z</time>
      </trkpt>
      <trkpt lat="44.86435" lon="0.59608">
        <ele>76</ele>
        <time>2021-05-17T12:04:53.000Z</time>
      </trkpt>
      <trkpt lat="44.8644" lon="0.59609">
        <ele>76</ele>
        <time>2021-05-17T12:04:54.000Z</time>
      </trkpt>
      <trkpt lat="44.86445" lon="0.5961">
        <ele>76.1</ele>
        <time>2021-05-17T12:04:55.000Z</time>
      </trkpt>
      <trkpt lat="44.8645" lon="0.59612">
        <ele>76.2</ele>
        <time>2021-05-17T12:04:56.000Z</time>
      </trkpt>
      <trkpt lat="44.86454" lon="0.59613">
        <ele>76.3</ele>
        <time>2021-05-17T12:04:57.000Z</time>
      </trkpt>
      <trkpt lat="44.86459" lon="0.59614">
        <ele>76.3</ele>
        <time>2021-05-17T12:04:58.000Z</time>
      </trkpt>
      <trkpt lat="44.86464" lon="0.59617">
        <ele>76.3</ele>
        <time>2021-05-17T12:04:59.000Z</time>
      </trkpt>
      <trkpt lat="44.86469" lon="0.59619">
        <ele>76.4</ele>
        <time>2021-05-17T12:05:00.000Z</time>
      </trkpt>
      <trkpt lat="44.86473" lon="0.5962">
        <ele>76.4</ele>
        <time>2021-05-17T12:05:01.000Z</time>
      </trkpt>
      <trkpt lat="44.86478" lon="0.59622">
        <ele>76.4</ele>
        <time>2021-05-17T12:05:02.000Z</time>
      </trkpt>
      <trkpt lat="44.86483" lon="0.59623">
        <ele>76.5</ele>
        <time>2021-05-17T12:05:03.000Z</time>
      </trkpt>
      <trkpt lat="44.86488" lon="0.59626">
        <ele>76.5</ele>
        <time>2021-05-17T12:05:04.000Z</time>
      </trkpt>
      <trkpt lat="44.86493" lon="0.59627">
        <ele>76.5</ele>
        <time>2021-05-17T12:05:05.000Z</time>
      </trkpt>
      <trkpt lat="44.86498" lon="0.59629">
        <ele>76.6</ele>
        <time>2021-05-17T12:05:06.000Z</time>
      </trkpt>
      <trkpt lat="44.86503" lon="0.59629">
        <ele>76.6</ele>
        <time>2021-05-17T12:05:07.000Z</time>
      </trkpt>
      <trkpt lat="44.86508" lon="0.5963">
        <ele>76.6</ele>
        <time>2021-05-17T12:05:08.000Z</time>
      </trkpt>
      <trkpt lat="44.86513" lon="0.59631">
        <ele>76.6</ele>
        <time>2021-05-17T12:05:09.000Z</time>
      </trkpt>
      <trkpt lat="44.86518" lon="0.59633">
        <ele>76.7</ele>
        <time>2021-05-17T12:05:10.000Z</time>
      </trkpt>
      <trkpt lat="44.86522" lon="0.59634">
        <ele>76.7</ele>
        <time>2021-05-17T12:05:11.000Z</time>
      </trkpt>
      <trkpt lat="44.86527" lon="0.59637">
        <ele>76.7</ele>
        <time>2021-05-17T12:05:12.000Z</time>
      </trkpt>
      <trkpt lat="44.86531" lon="0.59639">
        <ele>76.8</ele>
        <time>2021-05-17T12:05:13.000Z</time>
      </trkpt>
      <trkpt lat="44.86536" lon="0.59643">
        <ele>76.8</ele>
        <time>2021-05-17T12:05:14.000Z</time>
      </trkpt>
      <trkpt lat="44.8654" lon="0.59646">
        <ele>76.9</ele>
        <time>2021-05-17T12:05:15.000Z</time>
      </trkpt>
      <trkpt lat="44.86544" lon="0.59649">
        <ele>76.9</ele>
        <time>2021-05-17T12:05:16.000Z</time>
      </trkpt>
      <trkpt lat="44.86549" lon="0.59653">
        <ele>77</ele>
        <time>2021-05-17T12:05:17.000Z</time>
      </trkpt>
      <trkpt lat="44.86554" lon="0.59656">
        <ele>77.1</ele>
        <time>2021-05-17T12:05:18.000Z</time>
      </trkpt>
      <trkpt lat="44.86558" lon="0.5966">
        <ele>77.1</ele>
        <time>2021-05-17T12:05:19.000Z</time>
      </trkpt>
      <trkpt lat="44.86563" lon="0.59663">
        <ele>77.2</ele>
        <time>2021-05-17T12:05:21.000Z</time>
      </trkpt>
      <trkpt lat="44.86568" lon="0.59667">
        <ele>77.3</ele>
        <time>2021-05-17T12:05:22.000Z</time>
      </trkpt>
      <trkpt lat="44.86572" lon="0.5967">
        <ele>77.4</ele>
        <time>2021-05-17T12:05:23.000Z</time>
      </trkpt>
      <trkpt lat="44.86576" lon="0.59673">
        <ele>77.5</ele>
        <time>2021-05-17T12:05:24.000Z</time>
      </trkpt>
      <trkpt lat="44.8658" lon="0.59677">
        <ele>77.6</ele>
        <time>2021-05-17T12:05:25.000Z</time>
      </trkpt>
      <trkpt lat="44.86585" lon="0.5968">
        <ele>77.7</ele>
        <time>2021-05-17T12:05:26.000Z</time>
      </trkpt>
      <trkpt lat="44.8659" lon="0.59684">
        <ele>77.8</ele>
        <time>2021-05-17T12:05:27.000Z</time>
      </trkpt>
      <trkpt lat="44.86594" lon="0.59687">
        <ele>77.9</ele>
        <time>2021-05-17T12:05:28.000Z</time>
      </trkpt>
      <trkpt lat="44.86598" lon="0.59691">
        <ele>78.1</ele>
        <time>2021-05-17T12:05:29.000Z</time>
      </trkpt>
      <trkpt lat="44.86603" lon="0.59694">
        <ele>78.2</ele>
        <time>2021-05-17T12:05:30.000Z</time>
      </trkpt>
      <trkpt lat="44.86607" lon="0.59697">
        <ele>78.3</ele>
        <time>2021-05-17T12:05:31.000Z</time>
      </trkpt>
      <trkpt lat="44.86611" lon="0.59701">
        <ele>78.5</ele>
        <time>2021-05-17T12:05:32.000Z</time>
      </trkpt>
      <trkpt lat="44.86616" lon="0.59704">
        <ele>78.6</ele>
        <time>2021-05-17T12:05:33.000Z</time>
      </trkpt>
      <trkpt lat="44.86621" lon="0.59708">
        <ele>78.8</ele>
        <time>2021-05-17T12:05:34.000Z</time>
      </trkpt>
      <trkpt lat="44.86625" lon="0.59711">
        <ele>79</ele>
        <time>2021-05-17T12:05:35.000Z</time>
      </trkpt>
      <trkpt lat="44.86629" lon="0.59713">
        <ele>79.1</ele>
        <time>2021-05-17T12:05:36.000Z</time>
      </trkpt>
      <trkpt lat="44.86633" lon="0.59716">
        <ele>79.3</ele>
        <time>2021-05-17T12:05:37.000Z</time>
      </trkpt>
      <trkpt lat="44.86637" lon="0.59719">
        <ele>79.5</ele>
        <time>2021-05-17T12:05:38.000Z</time>
      </trkpt>
      <trkpt lat="44.86641" lon="0.59722">
        <ele>79.6</ele>
        <time>2021-05-17T12:05:39.000Z</time>
      </trkpt>
      <trkpt lat="44.86645" lon="0.59725">
        <ele>79.8</ele>
        <time>2021-05-17T12:05:40.000Z</time>
      </trkpt>
      <trkpt lat="44.86649" lon="0.59728">
        <ele>79.9</ele>
        <time>2021-05-17T12:05:41.000Z</time>
      </trkpt>
      <trkpt lat="44.86653" lon="0.59731">
        <ele>80</ele>
        <time>2021-05-17T12:05:42.000Z</time>
      </trkpt>
      <trkpt lat="44.86657" lon="0.59734">
        <ele>80.1</ele>
        <time>2021-05-17T12:05:43.000Z</time>
      </trkpt>
      <trkpt lat="44.8666" lon="0.59736">
        <ele>80.3</ele>
        <time>2021-05-17T12:05:44.000Z</time>
      </trkpt>
      <trkpt lat="44.86664" lon="0.59739">
        <ele>80.3</ele>
        <time>2021-05-17T12:05:45.000Z</time>
      </trkpt>
      <trkpt lat="44.86668" lon="0.59744">
        <ele>80.5</ele>
        <time>2021-05-17T12:05:46.000Z</time>
      </trkpt>
      <trkpt lat="44.86675" lon="0.59754">
        <ele>80.6</ele>
        <time>2021-05-17T12:05:47.000Z</time>
      </trkpt>
      <trkpt lat="44.86678" lon="0.59759">
        <ele>80.7</ele>
        <time>2021-05-17T12:05:48.000Z</time>
      </trkpt>
      <trkpt lat="44.86681" lon="0.59765">
        <ele>80.8</ele>
        <time>2021-05-17T12:05:49.000Z</time>
      </trkpt>
      <trkpt lat="44.86684" lon="0.59771">
        <ele>80.8</ele>
        <time>2021-05-17T12:05:50.000Z</time>
      </trkpt>
      <trkpt lat="44.86688" lon="0.59776">
        <ele>80.9</ele>
        <time>2021-05-17T12:05:51.000Z</time>
      </trkpt>
      <trkpt lat="44.86692" lon="0.59781">
        <ele>81</ele>
        <time>2021-05-17T12:05:52.000Z</time>
      </trkpt>
      <trkpt lat="44.86696" lon="0.59786">
        <ele>81.1</ele>
        <time>2021-05-17T12:05:53.000Z</time>
      </trkpt>
      <trkpt lat="44.867" lon="0.59791">
        <ele>81.2</ele>
        <time>2021-05-17T12:05:54.000Z</time>
      </trkpt>
      <trkpt lat="44.86704" lon="0.59794">
        <ele>81.3</ele>
        <time>2021-05-17T12:05:55.000Z</time>
      </trkpt>
      <trkpt lat="44.86709" lon="0.59798">
        <ele>81.4</ele>
        <time>2021-05-17T12:05:56.000Z</time>
      </trkpt>
      <trkpt lat="44.86714" lon="0.59802">
        <ele>81.5</ele>
        <time>2021-05-17T12:05:57.000Z</time>
      </trkpt>
      <trkpt lat="44.86718" lon="0.59805">
        <ele>81.6</ele>
        <time>2021-05-17T12:05:58.000Z</time>
      </trkpt>
      <trkpt lat="44.86722" lon="0.59808">
        <ele>81.7</ele>
        <time>2021-05-17T12:05:59.000Z</time>
      </trkpt>
      <trkpt lat="44.86727" lon="0.59812">
        <ele>81.8</ele>
        <time>2021-05-17T12:06:00.000Z</time>
      </trkpt>
      <trkpt lat="44.86731" lon="0.59814">
        <ele>81.9</ele>
        <time>2021-05-17T12:06:01.000Z</time>
      </trkpt>
      <trkpt lat="44.86736" lon="0.59817">
        <ele>82</ele>
        <time>2021-05-17T12:06:02.000Z</time>
      </trkpt>
      <trkpt lat="44.86741" lon="0.5982">
        <ele>82.2</ele>
        <time>2021-05-17T12:06:03.000Z</time>
      </trkpt>
      <trkpt lat="44.86744" lon="0.59823">
        <ele>82.3</ele>
        <time>2021-05-17T12:06:04.000Z</time>
      </trkpt>
      <trkpt lat="44.86749" lon="0.59826">
        <ele>82.4</ele>
        <time>2021-05-17T12:06:05.000Z</time>
      </trkpt>
      <trkpt lat="44.86753" lon="0.59829">
        <ele>82.5</ele>
        <time>2021-05-17T12:06:06.000Z</time>
      </trkpt>
      <trkpt lat="44.86758" lon="0.59833">
        <ele>82.7</ele>
        <time>2021-05-17T12:06:07.000Z</time>
      </trkpt>
      <trkpt lat="44.86762" lon="0.59835">
        <ele>82.8</ele>
        <time>2021-05-17T12:06:08.000Z</time>
      </trkpt>
      <trkpt lat="44.86766" lon="0.59838">
        <ele>82.9</ele>
        <time>2021-05-17T12:06:09.000Z</time>
      </trkpt>
      <trkpt lat="44.8677" lon="0.59839">
        <ele>83</ele>
        <time>2021-05-17T12:06:10.000Z</time>
      </trkpt>
      <trkpt lat="44.86774" lon="0.59841">
        <ele>83.1</ele>
        <time>2021-05-17T12:06:11.000Z</time>
      </trkpt>
      <trkpt lat="44.86777" lon="0.59843">
        <ele>83.1</ele>
        <time>2021-05-17T12:06:12.000Z</time>
      </trkpt>
      <trkpt lat="44.86781" lon="0.59846">
        <ele>83.2</ele>
        <time>2021-05-17T12:06:13.000Z</time>
      </trkpt>
      <trkpt lat="44.86785" lon="0.59849">
        <ele>83.3</ele>
        <time>2021-05-17T12:06:14.000Z</time>
      </trkpt>
      <trkpt lat="44.86789" lon="0.59852">
        <ele>83.4</ele>
        <time>2021-05-17T12:06:15.000Z</time>
      </trkpt>
      <trkpt lat="44.86794" lon="0.59855">
        <ele>83.5</ele>
        <time>2021-05-17T12:06:16.000Z</time>
      </trkpt>
      <trkpt lat="44.86798" lon="0.59859">
        <ele>83.6</ele>
        <time>2021-05-17T12:06:17.000Z</time>
      </trkpt>
      <trkpt lat="44.86802" lon="0.59862">
        <ele>83.8</ele>
        <time>2021-05-17T12:06:18.000Z</time>
      </trkpt>
      <trkpt lat="44.86805" lon="0.59864">
        <ele>83.8</ele>
        <time>2021-05-17T12:06:19.000Z</time>
      </trkpt>
      <trkpt lat="44.86809" lon="0.59868">
        <ele>83.9</ele>
        <time>2021-05-17T12:06:20.000Z</time>
      </trkpt>
      <trkpt lat="44.86812" lon="0.59871">
        <ele>84</ele>
        <time>2021-05-17T12:06:21.000Z</time>
      </trkpt>
      <trkpt lat="44.86815" lon="0.59873">
        <ele>84.1</ele>
        <time>2021-05-17T12:06:22.000Z</time>
      </trkpt>
      <trkpt lat="44.86819" lon="0.59877">
        <ele>84.2</ele>
        <time>2021-05-17T12:06:23.000Z</time>
      </trkpt>
      <trkpt lat="44.86823" lon="0.5988">
        <ele>84.2</ele>
        <time>2021-05-17T12:06:24.000Z</time>
      </trkpt>
      <trkpt lat="44.86824" lon="0.59881">
        <ele>84.2</ele>
        <time>2021-05-17T12:06:25.000Z</time>
      </trkpt>
      <trkpt lat="44.86827" lon="0.59882">
        <ele>84.2</ele>
        <time>2021-05-17T12:06:26.000Z</time>
      </trkpt>
      <trkpt lat="44.86828" lon="0.59882">
        <ele>84.2</ele>
        <time>2021-05-17T12:06:27.000Z</time>
      </trkpt>
      <trkpt lat="44.8683" lon="0.59882">
        <ele>84.2</ele>
        <time>2021-05-17T12:06:28.000Z</time>
      </trkpt>
      <trkpt lat="44.86831" lon="0.59882">
        <ele>84.2</ele>
        <time>2021-05-17T12:06:29.000Z</time>
      </trkpt>
      <trkpt lat="44.86833" lon="0.59882">
        <ele>84.2</ele>
        <time>2021-05-17T12:06:30.000Z</time>
      </trkpt>
      <trkpt lat="44.86832" lon="0.59882">
        <ele>84.2</ele>
        <time>2021-05-17T12:06:31.000Z</time>
      </trkpt>
      <trkpt lat="44.86832" lon="0.59883">
        <ele>84.2</ele>
        <time>2021-05-17T12:06:32.000Z</time>
      </trkpt>
      <trkpt lat="44.86833" lon="0.59886">
        <ele>84.3</ele>
        <time>2021-05-17T12:06:33.000Z</time>
      </trkpt>
      <trkpt lat="44.86833" lon="0.59887">
        <ele>84.3</ele>
        <time>2021-05-17T12:06:34.000Z</time>
      </trkpt>
      <trkpt lat="44.86834" lon="0.59887">
        <ele>84.3</ele>
        <time>2021-05-17T12:06:35.000Z</time>
      </trkpt>
      <trkpt lat="44.86834" lon="0.59887">
        <ele>84.3</ele>
        <time>2021-05-17T12:06:36.000Z</time>
      </trkpt>
      <trkpt lat="44.86834" lon="0.59888">
        <ele>84.3</ele>
        <time>2021-05-17T12:06:37.000Z</time>
      </trkpt>
      <trkpt lat="44.86835" lon="0.59888">
        <ele>84.3</ele>
        <time>2021-05-17T12:06:38.000Z</time>
      </trkpt>
      <trkpt lat="44.86835" lon="0.59888">
        <ele>84.3</ele>
        <time>2021-05-17T12:06:39.000Z</time>
      </trkpt>
      <trkpt lat="44.86836" lon="0.59888">
        <ele>84.3</ele>
        <time>2021-05-17T12:06:40.000Z</time>
      </trkpt>
      <trkpt lat="44.86836" lon="0.59889">
        <ele>84.3</ele>
        <time>2021-05-17T12:06:41.000Z</time>
      </trkpt>
      <trkpt lat="44.86837" lon="0.59889">
        <ele>84.3</ele>
        <time>2021-05-17T12:06:42.000Z</time>
      </trkpt>
      <trkpt lat="44.86835" lon="0.5989">
        <ele>84.4</ele>
        <time>2021-05-17T12:06:43.000Z</time>
      </trkpt>
      <trkpt lat="44.86834" lon="0.59891">
        <ele>84.4</ele>
        <time>2021-05-17T12:06:44.000Z</time>
      </trkpt>
      <trkpt lat="44.86833" lon="0.59892">
        <ele>84.4</ele>
        <time>2021-05-17T12:06:45.000Z</time>
      </trkpt>
      <trkpt lat="44.86834" lon="0.5989">
        <ele>84.4</ele>
        <time>2021-05-17T12:06:46.000Z</time>
      </trkpt>
      <trkpt lat="44.86834" lon="0.59891">
        <ele>84.4</ele>
        <time>2021-05-17T12:06:47.000Z</time>
      </trkpt>
      <trkpt lat="44.86834" lon="0.59892">
        <ele>84.4</ele>
        <time>2021-05-17T12:06:48.000Z</time>
      </trkpt>
      <trkpt lat="44.86834" lon="0.59893">
        <ele>84.4</ele>
        <time>2021-05-17T12:06:49.000Z</time>
      </trkpt>
      <trkpt lat="44.86833" lon="0.59892">
        <ele>84.5</ele>
        <time>2021-05-17T12:06:50.000Z</time>
      </trkpt>
      <trkpt lat="44.86832" lon="0.59891">
        <ele>84.5</ele>
        <time>2021-05-17T12:06:51.000Z</time>
      </trkpt>
      <trkpt lat="44.86833" lon="0.59889">
        <ele>84.5</ele>
        <time>2021-05-17T12:06:52.000Z</time>
      </trkpt>
      <trkpt lat="44.86833" lon="0.59889">
        <ele>84.5</ele>
        <time>2021-05-17T12:06:53.000Z</time>
      </trkpt>
      <trkpt lat="44.86833" lon="0.59888">
        <ele>84.5</ele>
        <time>2021-05-17T12:06:54.000Z</time>
      </trkpt>
      <trkpt lat="44.86834" lon="0.59887">
        <ele>84.5</ele>
        <time>2021-05-17T12:06:55.000Z</time>
      </trkpt>
      <trkpt lat="44.86833" lon="0.59887">
        <ele>84.6</ele>
        <time>2021-05-17T12:06:56.000Z</time>
      </trkpt>
      <trkpt lat="44.86833" lon="0.59888">
        <ele>84.6</ele>
        <time>2021-05-17T12:06:57.000Z</time>
      </trkpt>
      <trkpt lat="44.86833" lon="0.59888">
        <ele>84.6</ele>
        <time>2021-05-17T12:06:58.000Z</time>
      </trkpt>
      <trkpt lat="44.86833" lon="0.59889">
        <ele>84.6</ele>
        <time>2021-05-17T12:06:59.000Z</time>
      </trkpt>
      <trkpt lat="44.86833" lon="0.59889">
        <ele>84.6</ele>
        <time>2021-05-17T12:07:00.000Z</time>
      </trkpt>
      <trkpt lat="44.86832" lon="0.59889">
        <ele>84.6</ele>
        <time>2021-05-17T12:07:01.000Z</time>
      </trkpt>
      <trkpt lat="44.86832" lon="0.5989">
        <ele>84.6</ele>
        <time>2021-05-17T12:07:02.000Z</time>
      </trkpt>
      <trkpt lat="44.86832" lon="0.5989">
        <ele>84.6</ele>
        <time>2021-05-17T12:07:03.000Z</time>
      </trkpt>
      <trkpt lat="44.86832" lon="0.59891">
        <ele>84.6</ele>
        <time>2021-05-17T12:07:04.000Z</time>
      </trkpt>
      <trkpt lat="44.86832" lon="0.59891">
        <ele>84.6</ele>
        <time>2021-05-17T12:07:05.000Z</time>
      </trkpt>
      <trkpt lat="44.86832" lon="0.59892">
        <ele>84.7</ele>
        <time>2021-05-17T12:07:06.000Z</time>
      </trkpt>
      <trkpt lat="44.86832" lon="0.59892">
        <ele>84.7</ele>
        <time>2021-05-17T12:07:07.000Z</time>
      </trkpt>
      <trkpt lat="44.86832" lon="0.59892">
        <ele>84.7</ele>
        <time>2021-05-17T12:07:08.000Z</time>
      </trkpt>
      <trkpt lat="44.86831" lon="0.59896">
        <ele>84.8</ele>
        <time>2021-05-17T12:07:09.000Z</time>
      </trkpt>
      <trkpt lat="44.8683" lon="0.59898">
        <ele>84.8</ele>
        <time>2021-05-17T12:07:10.000Z</time>
      </trkpt>
      <trkpt lat="44.8683" lon="0.599">
        <ele>84.8</ele>
        <time>2021-05-17T12:07:11.000Z</time>
      </trkpt>
      <trkpt lat="44.86829" lon="0.59903">
        <ele>84.9</ele>
        <time>2021-05-17T12:07:12.000Z</time>
      </trkpt>
      <trkpt lat="44.86828" lon="0.59907">
        <ele>85.1</ele>
        <time>2021-05-17T12:07:13.000Z</time>
      </trkpt>
      <trkpt lat="44.86827" lon="0.59909">
        <ele>85.1</ele>
        <time>2021-05-17T12:07:14.000Z</time>
      </trkpt>
      <trkpt lat="44.86828" lon="0.59913">
        <ele>85.2</ele>
        <time>2021-05-17T12:07:15.000Z</time>
      </trkpt>
      <trkpt lat="44.86827" lon="0.59917">
        <ele>85.4</ele>
        <time>2021-05-17T12:07:16.000Z</time>
      </trkpt>
      <trkpt lat="44.86827" lon="0.59919">
        <ele>85.4</ele>
        <time>2021-05-17T12:07:17.000Z</time>
      </trkpt>
      <trkpt lat="44.86826" lon="0.59922">
        <ele>85.6</ele>
        <time>2021-05-17T12:07:18.000Z</time>
      </trkpt>
      <trkpt lat="44.86826" lon="0.59927">
        <ele>85.8</ele>
        <time>2021-05-17T12:07:19.000Z</time>
      </trkpt>
      <trkpt lat="44.86825" lon="0.59928">
        <ele>85.8</ele>
        <time>2021-05-17T12:07:20.000Z</time>
      </trkpt>
      <trkpt lat="44.86825" lon="0.59932">
        <ele>86</ele>
        <time>2021-05-17T12:07:21.000Z</time>
      </trkpt>
      <trkpt lat="44.86825" lon="0.59936">
        <ele>86.1</ele>
        <time>2021-05-17T12:07:22.000Z</time>
      </trkpt>
      <trkpt lat="44.86824" lon="0.5994">
        <ele>86.3</ele>
        <time>2021-05-17T12:07:23.000Z</time>
      </trkpt>
      <trkpt lat="44.86824" lon="0.59946">
        <ele>86.5</ele>
        <time>2021-05-17T12:07:24.000Z</time>
      </trkpt>
      <trkpt lat="44.86823" lon="0.5995">
        <ele>86.7</ele>
        <time>2021-05-17T12:07:25.000Z</time>
      </trkpt>
      <trkpt lat="44.86822" lon="0.59954">
        <ele>86.9</ele>
        <time>2021-05-17T12:07:27.000Z</time>
      </trkpt>
      <trkpt lat="44.86821" lon="0.59958">
        <ele>87</ele>
        <time>2021-05-17T12:07:28.000Z</time>
      </trkpt>
      <trkpt lat="44.86821" lon="0.5996">
        <ele>87.2</ele>
        <time>2021-05-17T12:07:29.000Z</time>
      </trkpt>
      <trkpt lat="44.8682" lon="0.59963">
        <ele>87.3</ele>
        <time>2021-05-17T12:07:30.000Z</time>
      </trkpt>
      <trkpt lat="44.8682" lon="0.59969">
        <ele>87.5</ele>
        <time>2021-05-17T12:07:31.000Z</time>
      </trkpt>
      <trkpt lat="44.8682" lon="0.59971">
        <ele>87.6</ele>
        <time>2021-05-17T12:07:32.000Z</time>
      </trkpt>
      <trkpt lat="44.8682" lon="0.59975">
        <ele>87.8</ele>
        <time>2021-05-17T12:07:33.000Z</time>
      </trkpt>
      <trkpt lat="44.86821" lon="0.59976">
        <ele>87.9</ele>
        <time>2021-05-17T12:07:34.000Z</time>
      </trkpt>
      <trkpt lat="44.86822" lon="0.59978">
        <ele>87.7</ele>
        <time>2021-05-17T12:07:35.000Z</time>
      </trkpt>
      <trkpt lat="44.86823" lon="0.5998">
        <ele>88.3</ele>
        <time>2021-05-17T12:07:36.000Z</time>
      </trkpt>
      <trkpt lat="44.86826" lon="0.59983">
        <ele>88.6</ele>
        <time>2021-05-17T12:07:37.000Z</time>
      </trkpt>
      <trkpt lat="44.86828" lon="0.59985">
        <ele>88.3</ele>
        <time>2021-05-17T12:07:38.000Z</time>
      </trkpt>
      <trkpt lat="44.86829" lon="0.59987">
        <ele>88.5</ele>
        <time>2021-05-17T12:07:39.000Z</time>
      </trkpt>
      <trkpt lat="44.86831" lon="0.5999">
        <ele>88.6</ele>
        <time>2021-05-17T12:07:40.000Z</time>
      </trkpt>
      <trkpt lat="44.86832" lon="0.59991">
        <ele>88.8</ele>
        <time>2021-05-17T12:07:41.000Z</time>
      </trkpt>
      <trkpt lat="44.86835" lon="0.59994">
        <ele>89</ele>
        <time>2021-05-17T12:07:42.000Z</time>
      </trkpt>
      <trkpt lat="44.86836" lon="0.59995">
        <ele>89.1</ele>
        <time>2021-05-17T12:07:43.000Z</time>
      </trkpt>
      <trkpt lat="44.86839" lon="0.59996">
        <ele>89.3</ele>
        <time>2021-05-17T12:07:44.000Z</time>
      </trkpt>
      <trkpt lat="44.86841" lon="0.6">
        <ele>89</ele>
        <time>2021-05-17T12:07:45.000Z</time>
      </trkpt>
      <trkpt lat="44.86843" lon="0.60003">
        <ele>89.6</ele>
        <time>2021-05-17T12:07:46.000Z</time>
      </trkpt>
      <trkpt lat="44.86843" lon="0.60005">
        <ele>89.8</ele>
        <time>2021-05-17T12:07:47.000Z</time>
      </trkpt>
      <trkpt lat="44.86845" lon="0.6001">
        <ele>90.4</ele>
        <time>2021-05-17T12:07:48.000Z</time>
      </trkpt>
      <trkpt lat="44.8685" lon="0.60018">
        <ele>90.6</ele>
        <time>2021-05-17T12:07:49.000Z</time>
      </trkpt>
      <trkpt lat="44.86851" lon="0.60022">
        <ele>91.2</ele>
        <time>2021-05-17T12:07:50.000Z</time>
      </trkpt>
      <trkpt lat="44.86853" lon="0.60026">
        <ele>91.4</ele>
        <time>2021-05-17T12:07:51.000Z</time>
      </trkpt>
      <trkpt lat="44.86854" lon="0.60031">
        <ele>92.1</ele>
        <time>2021-05-17T12:07:52.000Z</time>
      </trkpt>
      <trkpt lat="44.86856" lon="0.60035">
        <ele>92.3</ele>
        <time>2021-05-17T12:07:53.000Z</time>
      </trkpt>
      <trkpt lat="44.86857" lon="0.60039">
        <ele>92.9</ele>
        <time>2021-05-17T12:07:54.000Z</time>
      </trkpt>
      <trkpt lat="44.86857" lon="0.60044">
        <ele>93.6</ele>
        <time>2021-05-17T12:07:55.000Z</time>
      </trkpt>
      <trkpt lat="44.86856" lon="0.60047">
        <ele>94.3</ele>
        <time>2021-05-17T12:07:56.000Z</time>
      </trkpt>
      <trkpt lat="44.86854" lon="0.60051">
        <ele>94.9</ele>
        <time>2021-05-17T12:07:57.000Z</time>
      </trkpt>
      <trkpt lat="44.86853" lon="0.60055">
        <ele>95.5</ele>
        <time>2021-05-17T12:07:58.000Z</time>
      </trkpt>
      <trkpt lat="44.86853" lon="0.60057">
        <ele>96.2</ele>
        <time>2021-05-17T12:07:59.000Z</time>
      </trkpt>
      <trkpt lat="44.86852" lon="0.60064">
        <ele>97.2</ele>
        <time>2021-05-17T12:08:00.000Z</time>
      </trkpt>
      <trkpt lat="44.8685" lon="0.60069">
        <ele>98.2</ele>
        <time>2021-05-17T12:08:01.000Z</time>
      </trkpt>
      <trkpt lat="44.8685" lon="0.60074">
        <ele>98.8</ele>
        <time>2021-05-17T12:08:02.000Z</time>
      </trkpt>
      <trkpt lat="44.86849" lon="0.60078">
        <ele>99.7</ele>
        <time>2021-05-17T12:08:03.000Z</time>
      </trkpt>
      <trkpt lat="44.86848" lon="0.6008">
        <ele>99.9</ele>
        <time>2021-05-17T12:08:04.000Z</time>
      </trkpt>
      <trkpt lat="44.86847" lon="0.60085">
        <ele>100.4</ele>
        <time>2021-05-17T12:08:05.000Z</time>
      </trkpt>
      <trkpt lat="44.86845" lon="0.60089">
        <ele>101.2</ele>
        <time>2021-05-17T12:08:06.000Z</time>
      </trkpt>
      <trkpt lat="44.86844" lon="0.60094">
        <ele>101.6</ele>
        <time>2021-05-17T12:08:07.000Z</time>
      </trkpt>
      <trkpt lat="44.86844" lon="0.60096">
        <ele>102</ele>
        <time>2021-05-17T12:08:08.000Z</time>
      </trkpt>
      <trkpt lat="44.86844" lon="0.60099">
        <ele>102.3</ele>
        <time>2021-05-17T12:08:09.000Z</time>
      </trkpt>
      <trkpt lat="44.86844" lon="0.601">
        <ele>102.5</ele>
        <time>2021-05-17T12:08:10.000Z</time>
      </trkpt>
      <trkpt lat="44.86844" lon="0.60101">
        <ele>102.7</ele>
        <time>2021-05-17T12:08:11.000Z</time>
      </trkpt>
      <trkpt lat="44.86845" lon="0.60105">
        <ele>103</ele>
        <time>2021-05-17T12:08:12.000Z</time>
      </trkpt>
      <trkpt lat="44.86844" lon="0.6011">
        <ele>103.3</ele>
        <time>2021-05-17T12:08:13.000Z</time>
      </trkpt>
      <trkpt lat="44.86843" lon="0.60112">
        <ele>104.1</ele>
        <time>2021-05-17T12:08:14.000Z</time>
      </trkpt>
      <trkpt lat="44.86843" lon="0.60115">
        <ele>104.2</ele>
        <time>2021-05-17T12:08:15.000Z</time>
      </trkpt>
      <trkpt lat="44.86843" lon="0.60116">
        <ele>104.6</ele>
        <time>2021-05-17T12:08:16.000Z</time>
      </trkpt>
      <trkpt lat="44.86843" lon="0.60121">
        <ele>104.5</ele>
        <time>2021-05-17T12:08:17.000Z</time>
      </trkpt>
      <trkpt lat="44.86844" lon="0.60123">
        <ele>104.7</ele>
        <time>2021-05-17T12:08:18.000Z</time>
      </trkpt>
      <trkpt lat="44.86844" lon="0.60127">
        <ele>105</ele>
        <time>2021-05-17T12:08:19.000Z</time>
      </trkpt>
      <trkpt lat="44.86844" lon="0.60128">
        <ele>105.1</ele>
        <time>2021-05-17T12:08:20.000Z</time>
      </trkpt>
      <trkpt lat="44.86843" lon="0.60132">
        <ele>105.2</ele>
        <time>2021-05-17T12:08:21.000Z</time>
      </trkpt>
      <trkpt lat="44.86841" lon="0.60136">
        <ele>105.4</ele>
        <time>2021-05-17T12:08:22.000Z</time>
      </trkpt>
      <trkpt lat="44.86842" lon="0.60137">
        <ele>105.4</ele>
        <time>2021-05-17T12:08:23.000Z</time>
      </trkpt>
      <trkpt lat="44.86842" lon="0.60141">
        <ele>105.6</ele>
        <time>2021-05-17T12:08:24.000Z</time>
      </trkpt>
      <trkpt lat="44.86843" lon="0.60144">
        <ele>105.7</ele>
        <time>2021-05-17T12:08:25.000Z</time>
      </trkpt>
      <trkpt lat="44.86843" lon="0.6015">
        <ele>105.9</ele>
        <time>2021-05-17T12:08:26.000Z</time>
      </trkpt>
      <trkpt lat="44.86843" lon="0.60152">
        <ele>106</ele>
        <time>2021-05-17T12:08:27.000Z</time>
      </trkpt>
      <trkpt lat="44.86844" lon="0.60157">
        <ele>106.1</ele>
        <time>2021-05-17T12:08:28.000Z</time>
      </trkpt>
      <trkpt lat="44.86843" lon="0.60161">
        <ele>106.3</ele>
        <time>2021-05-17T12:08:29.000Z</time>
      </trkpt>
      <trkpt lat="44.86843" lon="0.60167">
        <ele>106.5</ele>
        <time>2021-05-17T12:08:30.000Z</time>
      </trkpt>
      <trkpt lat="44.86843" lon="0.60168">
        <ele>106.5</ele>
        <time>2021-05-17T12:08:31.000Z</time>
      </trkpt>
      <trkpt lat="44.86843" lon="0.60174">
        <ele>106.7</ele>
        <time>2021-05-17T12:08:32.000Z</time>
      </trkpt>
      <trkpt lat="44.86843" lon="0.6018">
        <ele>106.9</ele>
        <time>2021-05-17T12:08:33.000Z</time>
      </trkpt>
      <trkpt lat="44.86842" lon="0.60185">
        <ele>107.1</ele>
        <time>2021-05-17T12:08:34.000Z</time>
      </trkpt>
      <trkpt lat="44.86842" lon="0.6019">
        <ele>107.3</ele>
        <time>2021-05-17T12:08:35.000Z</time>
      </trkpt>
      <trkpt lat="44.86842" lon="0.60194">
        <ele>107.5</ele>
        <time>2021-05-17T12:08:36.000Z</time>
      </trkpt>
      <trkpt lat="44.86841" lon="0.60198">
        <ele>107.6</ele>
        <time>2021-05-17T12:08:37.000Z</time>
      </trkpt>
      <trkpt lat="44.86841" lon="0.60204">
        <ele>107.9</ele>
        <time>2021-05-17T12:08:38.000Z</time>
      </trkpt>
      <trkpt lat="44.8684" lon="0.60205">
        <ele>108</ele>
        <time>2021-05-17T12:08:39.000Z</time>
      </trkpt>
      <trkpt lat="44.8684" lon="0.6021">
        <ele>108.2</ele>
        <time>2021-05-17T12:08:40.000Z</time>
      </trkpt>
      <trkpt lat="44.8684" lon="0.60215">
        <ele>108.4</ele>
        <time>2021-05-17T12:08:41.000Z</time>
      </trkpt>
      <trkpt lat="44.86841" lon="0.6022">
        <ele>108.7</ele>
        <time>2021-05-17T12:08:42.000Z</time>
      </trkpt>
      <trkpt lat="44.86842" lon="0.60223">
        <ele>108.9</ele>
        <time>2021-05-17T12:08:43.000Z</time>
      </trkpt>
      <trkpt lat="44.86844" lon="0.60227">
        <ele>109.1</ele>
        <time>2021-05-17T12:08:44.000Z</time>
      </trkpt>
      <trkpt lat="44.86845" lon="0.60231">
        <ele>109.3</ele>
        <time>2021-05-17T12:08:45.000Z</time>
      </trkpt>
      <trkpt lat="44.86845" lon="0.60233">
        <ele>109.4</ele>
        <time>2021-05-17T12:08:46.000Z</time>
      </trkpt>
      <trkpt lat="44.86845" lon="0.60238">
        <ele>109.7</ele>
        <time>2021-05-17T12:08:47.000Z</time>
      </trkpt>
      <trkpt lat="44.86844" lon="0.60239">
        <ele>109.8</ele>
        <time>2021-05-17T12:08:48.000Z</time>
      </trkpt>
      <trkpt lat="44.86844" lon="0.60244">
        <ele>110</ele>
        <time>2021-05-17T12:08:49.000Z</time>
      </trkpt>
      <trkpt lat="44.86844" lon="0.60246">
        <ele>110.1</ele>
        <time>2021-05-17T12:08:50.000Z</time>
      </trkpt>
      <trkpt lat="44.86844" lon="0.60248">
        <ele>110.2</ele>
        <time>2021-05-17T12:08:51.000Z</time>
      </trkpt>
      <trkpt lat="44.86844" lon="0.60253">
        <ele>110.4</ele>
        <time>2021-05-17T12:08:52.000Z</time>
      </trkpt>
      <trkpt lat="44.86843" lon="0.60257">
        <ele>110.6</ele>
        <time>2021-05-17T12:08:53.000Z</time>
      </trkpt>
      <trkpt lat="44.86843" lon="0.60263">
        <ele>110.8</ele>
        <time>2021-05-17T12:08:54.000Z</time>
      </trkpt>
      <trkpt lat="44.86843" lon="0.60268">
        <ele>110.9</ele>
        <time>2021-05-17T12:08:55.000Z</time>
      </trkpt>
      <trkpt lat="44.86843" lon="0.60272">
        <ele>111</ele>
        <time>2021-05-17T12:08:56.000Z</time>
      </trkpt>
      <trkpt lat="44.86843" lon="0.60277">
        <ele>111.1</ele>
        <time>2021-05-17T12:08:57.000Z</time>
      </trkpt>
      <trkpt lat="44.86845" lon="0.60282">
        <ele>111.2</ele>
        <time>2021-05-17T12:08:58.000Z</time>
      </trkpt>
      <trkpt lat="44.86845" lon="0.60288">
        <ele>111.3</ele>
        <time>2021-05-17T12:08:59.000Z</time>
      </trkpt>
      <trkpt lat="44.86845" lon="0.60293">
        <ele>111.4</ele>
        <time>2021-05-17T12:09:00.000Z</time>
      </trkpt>
      <trkpt lat="44.86844" lon="0.60298">
        <ele>111.4</ele>
        <time>2021-05-17T12:09:01.000Z</time>
      </trkpt>
      <trkpt lat="44.86844" lon="0.60303">
        <ele>111.5</ele>
        <time>2021-05-17T12:09:02.000Z</time>
      </trkpt>
      <trkpt lat="44.86843" lon="0.60308">
        <ele>111.5</ele>
        <time>2021-05-17T12:09:03.000Z</time>
      </trkpt>
      <trkpt lat="44.86843" lon="0.60314">
        <ele>111.6</ele>
        <time>2021-05-17T12:09:04.000Z</time>
      </trkpt>
      <trkpt lat="44.86843" lon="0.60319">
        <ele>111.6</ele>
        <time>2021-05-17T12:09:05.000Z</time>
      </trkpt>
      <trkpt lat="44.86843" lon="0.60321">
        <ele>111.6</ele>
        <time>2021-05-17T12:09:06.000Z</time>
      </trkpt>
      <trkpt lat="44.86843" lon="0.60325">
        <ele>111.6</ele>
        <time>2021-05-17T12:09:07.000Z</time>
      </trkpt>
      <trkpt lat="44.86843" lon="0.60331">
        <ele>111.6</ele>
        <time>2021-05-17T12:09:08.000Z</time>
      </trkpt>
      <trkpt lat="44.86843" lon="0.60333">
        <ele>111.6</ele>
        <time>2021-05-17T12:09:09.000Z</time>
      </trkpt>
      <trkpt lat="44.86842" lon="0.60337">
        <ele>111.6</ele>
        <time>2021-05-17T12:09:10.000Z</time>
      </trkpt>
      <trkpt lat="44.86841" lon="0.60341">
        <ele>111.6</ele>
        <time>2021-05-17T12:09:11.000Z</time>
      </trkpt>
      <trkpt lat="44.8684" lon="0.60346">
        <ele>111.5</ele>
        <time>2021-05-17T12:09:12.000Z</time>
      </trkpt>
      <trkpt lat="44.86839" lon="0.6035">
        <ele>111.5</ele>
        <time>2021-05-17T12:09:13.000Z</time>
      </trkpt>
      <trkpt lat="44.86837" lon="0.60355">
        <ele>111.5</ele>
        <time>2021-05-17T12:09:14.000Z</time>
      </trkpt>
      <trkpt lat="44.86836" lon="0.60356">
        <ele>111.5</ele>
        <time>2021-05-17T12:09:15.000Z</time>
      </trkpt>
      <trkpt lat="44.86833" lon="0.6036">
        <ele>111.4</ele>
        <time>2021-05-17T12:09:16.000Z</time>
      </trkpt>
      <trkpt lat="44.86831" lon="0.60362">
        <ele>111.4</ele>
        <time>2021-05-17T12:09:17.000Z</time>
      </trkpt>
      <trkpt lat="44.86828" lon="0.60363">
        <ele>111.4</ele>
        <time>2021-05-17T12:09:18.000Z</time>
      </trkpt>
      <trkpt lat="44.86825" lon="0.60365">
        <ele>111.6</ele>
        <time>2021-05-17T12:09:19.000Z</time>
      </trkpt>
      <trkpt lat="44.86823" lon="0.60366">
        <ele>111.6</ele>
        <time>2021-05-17T12:09:20.000Z</time>
      </trkpt>
      <trkpt lat="44.86821" lon="0.60367">
        <ele>111.8</ele>
        <time>2021-05-17T12:09:21.000Z</time>
      </trkpt>
      <trkpt lat="44.86817" lon="0.60368">
        <ele>111.9</ele>
        <time>2021-05-17T12:09:22.000Z</time>
      </trkpt>
      <trkpt lat="44.86816" lon="0.60368">
        <ele>112</ele>
        <time>2021-05-17T12:09:23.000Z</time>
      </trkpt>
      <trkpt lat="44.86812" lon="0.60369">
        <ele>112.1</ele>
        <time>2021-05-17T12:09:24.000Z</time>
      </trkpt>
      <trkpt lat="44.86811" lon="0.60369">
        <ele>112.1</ele>
        <time>2021-05-17T12:09:25.000Z</time>
      </trkpt>
      <trkpt lat="44.86807" lon="0.60368">
        <ele>112.2</ele>
        <time>2021-05-17T12:09:26.000Z</time>
      </trkpt>
      <trkpt lat="44.86805" lon="0.60368">
        <ele>112.3</ele>
        <time>2021-05-17T12:09:27.000Z</time>
      </trkpt>
      <trkpt lat="44.86802" lon="0.60367">
        <ele>112.4</ele>
        <time>2021-05-17T12:09:28.000Z</time>
      </trkpt>
      <trkpt lat="44.86799" lon="0.60366">
        <ele>112.5</ele>
        <time>2021-05-17T12:09:29.000Z</time>
      </trkpt>
      <trkpt lat="44.86796" lon="0.60365">
        <ele>112.6</ele>
        <time>2021-05-17T12:09:30.000Z</time>
      </trkpt>
      <trkpt lat="44.86794" lon="0.60364">
        <ele>112.8</ele>
        <time>2021-05-17T12:09:31.000Z</time>
      </trkpt>
      <trkpt lat="44.86789" lon="0.60362">
        <ele>112.8</ele>
        <time>2021-05-17T12:09:33.000Z</time>
      </trkpt>
      <trkpt lat="44.86785" lon="0.6036">
        <ele>113.1</ele>
        <time>2021-05-17T12:09:35.000Z</time>
      </trkpt>
      <trkpt lat="44.8678" lon="0.60357">
        <ele>113.2</ele>
        <time>2021-05-17T12:09:37.000Z</time>
      </trkpt>
      <trkpt lat="44.86777" lon="0.60355">
        <ele>113.4</ele>
        <time>2021-05-17T12:09:39.000Z</time>
      </trkpt>
      <trkpt lat="44.86772" lon="0.60352">
        <ele>113.6</ele>
        <time>2021-05-17T12:09:40.000Z</time>
      </trkpt>
      <trkpt lat="44.8677" lon="0.6035">
        <ele>113.8</ele>
        <time>2021-05-17T12:09:41.000Z</time>
      </trkpt>
      <trkpt lat="44.86764" lon="0.60349">
        <ele>114</ele>
        <time>2021-05-17T12:09:43.000Z</time>
      </trkpt>
      <trkpt lat="44.86761" lon="0.60351">
        <ele>114</ele>
        <time>2021-05-17T12:09:45.000Z</time>
      </trkpt>
      <trkpt lat="44.86757" lon="0.60354">
        <ele>114</ele>
        <time>2021-05-17T12:09:47.000Z</time>
      </trkpt>
      <trkpt lat="44.86751" lon="0.60359">
        <ele>113.9</ele>
        <time>2021-05-17T12:09:49.000Z</time>
      </trkpt>
      <trkpt lat="44.86747" lon="0.60361">
        <ele>113.8</ele>
        <time>2021-05-17T12:09:51.000Z</time>
      </trkpt>
      <trkpt lat="44.86742" lon="0.60362">
        <ele>113.9</ele>
        <time>2021-05-17T12:09:52.000Z</time>
      </trkpt>
      <trkpt lat="44.8674" lon="0.60364">
        <ele>113.9</ele>
        <time>2021-05-17T12:09:53.000Z</time>
      </trkpt>
      <trkpt lat="44.86735" lon="0.60366">
        <ele>113.7</ele>
        <time>2021-05-17T12:09:54.000Z</time>
      </trkpt>
      <trkpt lat="44.86731" lon="0.60366">
        <ele>113.7</ele>
        <time>2021-05-17T12:09:55.000Z</time>
      </trkpt>
      <trkpt lat="44.86727" lon="0.60368">
        <ele>113.7</ele>
        <time>2021-05-17T12:09:56.000Z</time>
      </trkpt>
      <trkpt lat="44.86722" lon="0.6037">
        <ele>113.4</ele>
        <time>2021-05-17T12:09:57.000Z</time>
      </trkpt>
      <trkpt lat="44.86717" lon="0.60373">
        <ele>113.3</ele>
        <time>2021-05-17T12:09:58.000Z</time>
      </trkpt>
      <trkpt lat="44.86713" lon="0.60375">
        <ele>113</ele>
        <time>2021-05-17T12:09:59.000Z</time>
      </trkpt>
      <trkpt lat="44.86708" lon="0.60376">
        <ele>112.8</ele>
        <time>2021-05-17T12:10:00.000Z</time>
      </trkpt>
      <trkpt lat="44.86704" lon="0.60376">
        <ele>112.8</ele>
        <time>2021-05-17T12:10:01.000Z</time>
      </trkpt>
      <trkpt lat="44.86699" lon="0.60376">
        <ele>112.6</ele>
        <time>2021-05-17T12:10:02.000Z</time>
      </trkpt>
      <trkpt lat="44.86694" lon="0.60377">
        <ele>112.4</ele>
        <time>2021-05-17T12:10:03.000Z</time>
      </trkpt>
      <trkpt lat="44.8669" lon="0.60377">
        <ele>112.3</ele>
        <time>2021-05-17T12:10:04.000Z</time>
      </trkpt>
      <trkpt lat="44.86688" lon="0.60378">
        <ele>112</ele>
        <time>2021-05-17T12:10:05.000Z</time>
      </trkpt>
      <trkpt lat="44.86684" lon="0.6038">
        <ele>111.9</ele>
        <time>2021-05-17T12:10:06.000Z</time>
      </trkpt>
      <trkpt lat="44.86681" lon="0.60384">
        <ele>111.6</ele>
        <time>2021-05-17T12:10:07.000Z</time>
      </trkpt>
      <trkpt lat="44.86679" lon="0.60389">
        <ele>111.3</ele>
        <time>2021-05-17T12:10:08.000Z</time>
      </trkpt>
      <trkpt lat="44.86676" lon="0.60393">
        <ele>111.1</ele>
        <time>2021-05-17T12:10:09.000Z</time>
      </trkpt>
      <trkpt lat="44.86672" lon="0.60398">
        <ele>110.7</ele>
        <time>2021-05-17T12:10:10.000Z</time>
      </trkpt>
      <trkpt lat="44.86669" lon="0.60402">
        <ele>110.4</ele>
        <time>2021-05-17T12:10:11.000Z</time>
      </trkpt>
      <trkpt lat="44.86666" lon="0.60407">
        <ele>110.2</ele>
        <time>2021-05-17T12:10:12.000Z</time>
      </trkpt>
      <trkpt lat="44.86664" lon="0.60413">
        <ele>109.8</ele>
        <time>2021-05-17T12:10:13.000Z</time>
      </trkpt>
      <trkpt lat="44.86663" lon="0.60419">
        <ele>109.5</ele>
        <time>2021-05-17T12:10:14.000Z</time>
      </trkpt>
      <trkpt lat="44.86661" lon="0.60423">
        <ele>109.4</ele>
        <time>2021-05-17T12:10:15.000Z</time>
      </trkpt>
      <trkpt lat="44.8666" lon="0.60427">
        <ele>109.1</ele>
        <time>2021-05-17T12:10:16.000Z</time>
      </trkpt>
      <trkpt lat="44.8666" lon="0.60433">
        <ele>108.9</ele>
        <time>2021-05-17T12:10:17.000Z</time>
      </trkpt>
      <trkpt lat="44.8666" lon="0.60438">
        <ele>108.7</ele>
        <time>2021-05-17T12:10:18.000Z</time>
      </trkpt>
      <trkpt lat="44.8666" lon="0.60447">
        <ele>108.4</ele>
        <time>2021-05-17T12:10:19.000Z</time>
      </trkpt>
      <trkpt lat="44.86659" lon="0.60454">
        <ele>108.4</ele>
        <time>2021-05-17T12:10:20.000Z</time>
      </trkpt>
      <trkpt lat="44.86658" lon="0.60461">
        <ele>108.2</ele>
        <time>2021-05-17T12:10:21.000Z</time>
      </trkpt>
      <trkpt lat="44.86657" lon="0.60468">
        <ele>108.1</ele>
        <time>2021-05-17T12:10:22.000Z</time>
      </trkpt>
      <trkpt lat="44.86655" lon="0.60475">
        <ele>108</ele>
        <time>2021-05-17T12:10:23.000Z</time>
      </trkpt>
      <trkpt lat="44.86654" lon="0.60483">
        <ele>107.9</ele>
        <time>2021-05-17T12:10:24.000Z</time>
      </trkpt>
      <trkpt lat="44.86653" lon="0.6049">
        <ele>107.8</ele>
        <time>2021-05-17T12:10:25.000Z</time>
      </trkpt>
      <trkpt lat="44.86651" lon="0.60498">
        <ele>107.8</ele>
        <time>2021-05-17T12:10:26.000Z</time>
      </trkpt>
      <trkpt lat="44.86651" lon="0.60504">
        <ele>107.9</ele>
        <time>2021-05-17T12:10:27.000Z</time>
      </trkpt>
      <trkpt lat="44.86651" lon="0.6051">
        <ele>108</ele>
        <time>2021-05-17T12:10:28.000Z</time>
      </trkpt>
      <trkpt lat="44.8665" lon="0.60515">
        <ele>108.1</ele>
        <time>2021-05-17T12:10:29.000Z</time>
      </trkpt>
      <trkpt lat="44.86651" lon="0.6052">
        <ele>108.5</ele>
        <time>2021-05-17T12:10:30.000Z</time>
      </trkpt>
      <trkpt lat="44.8665" lon="0.60524">
        <ele>108.7</ele>
        <time>2021-05-17T12:10:31.000Z</time>
      </trkpt>
      <trkpt lat="44.8665" lon="0.6053">
        <ele>108.9</ele>
        <time>2021-05-17T12:10:32.000Z</time>
      </trkpt>
      <trkpt lat="44.8665" lon="0.60531">
        <ele>108.9</ele>
        <time>2021-05-17T12:10:33.000Z</time>
      </trkpt>
      <trkpt lat="44.8665" lon="0.60537">
        <ele>109.5</ele>
        <time>2021-05-17T12:10:34.000Z</time>
      </trkpt>
      <trkpt lat="44.86649" lon="0.60539">
        <ele>109.5</ele>
        <time>2021-05-17T12:10:35.000Z</time>
      </trkpt>
      <trkpt lat="44.8665" lon="0.60544">
        <ele>109.7</ele>
        <time>2021-05-17T12:10:36.000Z</time>
      </trkpt>
      <trkpt lat="44.86648" lon="0.60548">
        <ele>110.2</ele>
        <time>2021-05-17T12:10:37.000Z</time>
      </trkpt>
      <trkpt lat="44.86647" lon="0.60551">
        <ele>110.5</ele>
        <time>2021-05-17T12:10:38.000Z</time>
      </trkpt>
      <trkpt lat="44.86646" lon="0.60557">
        <ele>110.7</ele>
        <time>2021-05-17T12:10:39.000Z</time>
      </trkpt>
      <trkpt lat="44.86645" lon="0.60558">
        <ele>111.2</ele>
        <time>2021-05-17T12:10:40.000Z</time>
      </trkpt>
      <trkpt lat="44.86644" lon="0.60564">
        <ele>111.5</ele>
        <time>2021-05-17T12:10:41.000Z</time>
      </trkpt>
      <trkpt lat="44.86644" lon="0.60566">
        <ele>111.5</ele>
        <time>2021-05-17T12:10:42.000Z</time>
      </trkpt>
      <trkpt lat="44.86642" lon="0.60571">
        <ele>112.2</ele>
        <time>2021-05-17T12:10:43.000Z</time>
      </trkpt>
      <trkpt lat="44.86642" lon="0.60573">
        <ele>112.2</ele>
        <time>2021-05-17T12:10:44.000Z</time>
      </trkpt>
      <trkpt lat="44.86641" lon="0.60577">
        <ele>112.4</ele>
        <time>2021-05-17T12:10:45.000Z</time>
      </trkpt>
      <trkpt lat="44.8664" lon="0.60578">
        <ele>112.4</ele>
        <time>2021-05-17T12:10:46.000Z</time>
      </trkpt>
      <trkpt lat="44.86638" lon="0.60583">
        <ele>112.9</ele>
        <time>2021-05-17T12:10:47.000Z</time>
      </trkpt>
      <trkpt lat="44.86636" lon="0.60587">
        <ele>113.4</ele>
        <time>2021-05-17T12:10:48.000Z</time>
      </trkpt>
      <trkpt lat="44.86635" lon="0.60591">
        <ele>113.6</ele>
        <time>2021-05-17T12:10:49.000Z</time>
      </trkpt>
      <trkpt lat="44.86634" lon="0.60594">
        <ele>113.7</ele>
        <time>2021-05-17T12:10:50.000Z</time>
      </trkpt>
      <trkpt lat="44.86633" lon="0.60598">
        <ele>114.2</ele>
        <time>2021-05-17T12:10:51.000Z</time>
      </trkpt>
      <trkpt lat="44.86633" lon="0.60602">
        <ele>114.3</ele>
        <time>2021-05-17T12:10:52.000Z</time>
      </trkpt>
      <trkpt lat="44.86633" lon="0.60607">
        <ele>114.4</ele>
        <time>2021-05-17T12:10:53.000Z</time>
      </trkpt>
      <trkpt lat="44.86633" lon="0.60613">
        <ele>114.5</ele>
        <time>2021-05-17T12:10:54.000Z</time>
      </trkpt>
      <trkpt lat="44.86632" lon="0.60617">
        <ele>114.6</ele>
        <time>2021-05-17T12:10:55.000Z</time>
      </trkpt>
      <trkpt lat="44.86631" lon="0.60621">
        <ele>114.7</ele>
        <time>2021-05-17T12:10:56.000Z</time>
      </trkpt>
      <trkpt lat="44.86633" lon="0.60624">
        <ele>114.7</ele>
        <time>2021-05-17T12:10:57.000Z</time>
      </trkpt>
      <trkpt lat="44.86636" lon="0.60629">
        <ele>114.4</ele>
        <time>2021-05-17T12:10:58.000Z</time>
      </trkpt>
      <trkpt lat="44.86638" lon="0.60631">
        <ele>114</ele>
        <time>2021-05-17T12:10:59.000Z</time>
      </trkpt>
      <trkpt lat="44.8664" lon="0.60634">
        <ele>113.7</ele>
        <time>2021-05-17T12:11:00.000Z</time>
      </trkpt>
      <trkpt lat="44.8664" lon="0.60638">
        <ele>113.7</ele>
        <time>2021-05-17T12:11:01.000Z</time>
      </trkpt>
      <trkpt lat="44.86639" lon="0.60644">
        <ele>114.1</ele>
        <time>2021-05-17T12:11:02.000Z</time>
      </trkpt>
      <trkpt lat="44.86638" lon="0.6065">
        <ele>114.1</ele>
        <time>2021-05-17T12:11:03.000Z</time>
      </trkpt>
      <trkpt lat="44.86637" lon="0.60655">
        <ele>114.1</ele>
        <time>2021-05-17T12:11:04.000Z</time>
      </trkpt>
      <trkpt lat="44.86636" lon="0.60658">
        <ele>114.2</ele>
        <time>2021-05-17T12:11:05.000Z</time>
      </trkpt>
      <trkpt lat="44.86637" lon="0.60663">
        <ele>114.2</ele>
        <time>2021-05-17T12:11:06.000Z</time>
      </trkpt>
      <trkpt lat="44.86637" lon="0.60665">
        <ele>114.2</ele>
        <time>2021-05-17T12:11:07.000Z</time>
      </trkpt>
      <trkpt lat="44.86638" lon="0.60667">
        <ele>114.3</ele>
        <time>2021-05-17T12:11:08.000Z</time>
      </trkpt>
      <trkpt lat="44.86638" lon="0.60668">
        <ele>114.3</ele>
        <time>2021-05-17T12:11:09.000Z</time>
      </trkpt>
      <trkpt lat="44.86639" lon="0.6067">
        <ele>114.3</ele>
        <time>2021-05-17T12:11:10.000Z</time>
      </trkpt>
      <trkpt lat="44.86639" lon="0.60671">
        <ele>114.3</ele>
        <time>2021-05-17T12:11:11.000Z</time>
      </trkpt>
      <trkpt lat="44.86638" lon="0.60672">
        <ele>114.3</ele>
        <time>2021-05-17T12:11:12.000Z</time>
      </trkpt>
      <trkpt lat="44.86638" lon="0.60673">
        <ele>114.3</ele>
        <time>2021-05-17T12:11:13.000Z</time>
      </trkpt>
      <trkpt lat="44.86638" lon="0.60677">
        <ele>114.4</ele>
        <time>2021-05-17T12:11:14.000Z</time>
      </trkpt>
      <trkpt lat="44.86638" lon="0.60677">
        <ele>114.4</ele>
        <time>2021-05-17T12:11:15.000Z</time>
      </trkpt>
      <trkpt lat="44.86638" lon="0.60678">
        <ele>114.5</ele>
        <time>2021-05-17T12:11:16.000Z</time>
      </trkpt>
      <trkpt lat="44.86637" lon="0.6068">
        <ele>114.5</ele>
        <time>2021-05-17T12:11:17.000Z</time>
      </trkpt>
      <trkpt lat="44.86639" lon="0.60681">
        <ele>114.5</ele>
        <time>2021-05-17T12:11:18.000Z</time>
      </trkpt>
      <trkpt lat="44.86638" lon="0.60681">
        <ele>114.5</ele>
        <time>2021-05-17T12:11:19.000Z</time>
      </trkpt>
      <trkpt lat="44.86638" lon="0.60682">
        <ele>114.5</ele>
        <time>2021-05-17T12:11:20.000Z</time>
      </trkpt>
      <trkpt lat="44.86638" lon="0.60682">
        <ele>114.5</ele>
        <time>2021-05-17T12:11:21.000Z</time>
      </trkpt>
      <trkpt lat="44.86639" lon="0.60682">
        <ele>114.6</ele>
        <time>2021-05-17T12:11:22.000Z</time>
      </trkpt>
      <trkpt lat="44.8664" lon="0.60682">
        <ele>114.1</ele>
        <time>2021-05-17T12:11:23.000Z</time>
      </trkpt>
      <trkpt lat="44.86639" lon="0.60683">
        <ele>114.2</ele>
        <time>2021-05-17T12:11:24.000Z</time>
      </trkpt>
      <trkpt lat="44.86639" lon="0.60684">
        <ele>114.2</ele>
        <time>2021-05-17T12:11:25.000Z</time>
      </trkpt>
      <trkpt lat="44.86639" lon="0.60686">
        <ele>114.6</ele>
        <time>2021-05-17T12:11:26.000Z</time>
      </trkpt>
      <trkpt lat="44.86638" lon="0.60686">
        <ele>114.6</ele>
        <time>2021-05-17T12:11:27.000Z</time>
      </trkpt>
      <trkpt lat="44.86638" lon="0.60688">
        <ele>114.6</ele>
        <time>2021-05-17T12:11:28.000Z</time>
      </trkpt>
      <trkpt lat="44.86638" lon="0.60689">
        <ele>114.6</ele>
        <time>2021-05-17T12:11:29.000Z</time>
      </trkpt>
      <trkpt lat="44.86639" lon="0.6069">
        <ele>114.6</ele>
        <time>2021-05-17T12:11:30.000Z</time>
      </trkpt>
      <trkpt lat="44.86639" lon="0.60691">
        <ele>114.7</ele>
        <time>2021-05-17T12:11:31.000Z</time>
      </trkpt>
      <trkpt lat="44.86639" lon="0.60691">
        <ele>114.7</ele>
        <time>2021-05-17T12:11:32.000Z</time>
      </trkpt>
      <trkpt lat="44.8664" lon="0.60692">
        <ele>114.3</ele>
        <time>2021-05-17T12:11:33.000Z</time>
      </trkpt>
      <trkpt lat="44.8664" lon="0.60693">
        <ele>114.3</ele>
        <time>2021-05-17T12:11:34.000Z</time>
      </trkpt>
      <trkpt lat="44.8664" lon="0.60693">
        <ele>114.3</ele>
        <time>2021-05-17T12:11:35.000Z</time>
      </trkpt>
      <trkpt lat="44.86641" lon="0.60695">
        <ele>114.4</ele>
        <time>2021-05-17T12:11:36.000Z</time>
      </trkpt>
      <trkpt lat="44.86641" lon="0.60697">
        <ele>114.4</ele>
        <time>2021-05-17T12:11:37.000Z</time>
      </trkpt>
      <trkpt lat="44.86641" lon="0.60697">
        <ele>114.4</ele>
        <time>2021-05-17T12:11:38.000Z</time>
      </trkpt>
      <trkpt lat="44.8664" lon="0.60698">
        <ele>114.4</ele>
        <time>2021-05-17T12:11:39.000Z</time>
      </trkpt>
      <trkpt lat="44.86641" lon="0.60697">
        <ele>114.4</ele>
        <time>2021-05-17T12:11:40.000Z</time>
      </trkpt>
      <trkpt lat="44.86641" lon="0.60698">
        <ele>114.4</ele>
        <time>2021-05-17T12:11:41.000Z</time>
      </trkpt>
      <trkpt lat="44.86642" lon="0.60698">
        <ele>114.5</ele>
        <time>2021-05-17T12:11:42.000Z</time>
      </trkpt>
      <trkpt lat="44.86641" lon="0.60699">
        <ele>114.5</ele>
        <time>2021-05-17T12:11:43.000Z</time>
      </trkpt>
      <trkpt lat="44.8664" lon="0.60701">
        <ele>114.5</ele>
        <time>2021-05-17T12:11:44.000Z</time>
      </trkpt>
      <trkpt lat="44.8664" lon="0.60703">
        <ele>114.5</ele>
        <time>2021-05-17T12:11:45.000Z</time>
      </trkpt>
      <trkpt lat="44.8664" lon="0.60704">
        <ele>114.6</ele>
        <time>2021-05-17T12:11:46.000Z</time>
      </trkpt>
      <trkpt lat="44.8664" lon="0.60706">
        <ele>114.6</ele>
        <time>2021-05-17T12:11:47.000Z</time>
      </trkpt>
      <trkpt lat="44.8664" lon="0.60709">
        <ele>114.7</ele>
        <time>2021-05-17T12:11:48.000Z</time>
      </trkpt>
      <trkpt lat="44.86639" lon="0.6071">
        <ele>115.1</ele>
        <time>2021-05-17T12:11:49.000Z</time>
      </trkpt>
      <trkpt lat="44.86637" lon="0.60712">
        <ele>115.1</ele>
        <time>2021-05-17T12:11:50.000Z</time>
      </trkpt>
      <trkpt lat="44.86636" lon="0.60713">
        <ele>115.6</ele>
        <time>2021-05-17T12:11:51.000Z</time>
      </trkpt>
      <trkpt lat="44.86634" lon="0.60715">
        <ele>115.6</ele>
        <time>2021-05-17T12:11:52.000Z</time>
      </trkpt>
      <trkpt lat="44.86634" lon="0.60717">
        <ele>115.6</ele>
        <time>2021-05-17T12:11:53.000Z</time>
      </trkpt>
      <trkpt lat="44.86633" lon="0.60716">
        <ele>115.9</ele>
        <time>2021-05-17T12:11:54.000Z</time>
      </trkpt>
      <trkpt lat="44.86632" lon="0.60716">
        <ele>115.9</ele>
        <time>2021-05-17T12:11:55.000Z</time>
      </trkpt>
      <trkpt lat="44.8663" lon="0.60715">
        <ele>116.3</ele>
        <time>2021-05-17T12:11:56.000Z</time>
      </trkpt>
      <trkpt lat="44.86629" lon="0.60715">
        <ele>116.3</ele>
        <time>2021-05-17T12:11:57.000Z</time>
      </trkpt>
      <trkpt lat="44.86627" lon="0.60716">
        <ele>116.7</ele>
        <time>2021-05-17T12:11:58.000Z</time>
      </trkpt>
      <trkpt lat="44.86623" lon="0.60717">
        <ele>117.1</ele>
        <time>2021-05-17T12:11:59.000Z</time>
      </trkpt>
      <trkpt lat="44.8662" lon="0.60719">
        <ele>117.4</ele>
        <time>2021-05-17T12:12:00.000Z</time>
      </trkpt>
      <trkpt lat="44.86616" lon="0.6072">
        <ele>117.7</ele>
        <time>2021-05-17T12:12:01.000Z</time>
      </trkpt>
      <trkpt lat="44.86613" lon="0.6072">
        <ele>118</ele>
        <time>2021-05-17T12:12:02.000Z</time>
      </trkpt>
      <trkpt lat="44.86609" lon="0.60724">
        <ele>118.3</ele>
        <time>2021-05-17T12:12:03.000Z</time>
      </trkpt>
      <trkpt lat="44.86608" lon="0.60725">
        <ele>118.6</ele>
        <time>2021-05-17T12:12:04.000Z</time>
      </trkpt>
      <trkpt lat="44.86604" lon="0.60727">
        <ele>118.9</ele>
        <time>2021-05-17T12:12:05.000Z</time>
      </trkpt>
      <trkpt lat="44.86599" lon="0.60726">
        <ele>119.3</ele>
        <time>2021-05-17T12:12:06.000Z</time>
      </trkpt>
      <trkpt lat="44.86596" lon="0.60727">
        <ele>119.5</ele>
        <time>2021-05-17T12:12:07.000Z</time>
      </trkpt>
      <trkpt lat="44.86592" lon="0.60729">
        <ele>119.7</ele>
        <time>2021-05-17T12:12:08.000Z</time>
      </trkpt>
      <trkpt lat="44.86589" lon="0.60728">
        <ele>120</ele>
        <time>2021-05-17T12:12:09.000Z</time>
      </trkpt>
      <trkpt lat="44.86588" lon="0.60728">
        <ele>120</ele>
        <time>2021-05-17T12:12:10.000Z</time>
      </trkpt>
      <trkpt lat="44.86585" lon="0.60728">
        <ele>120.5</ele>
        <time>2021-05-17T12:12:11.000Z</time>
      </trkpt>
      <trkpt lat="44.86583" lon="0.60727">
        <ele>120.5</ele>
        <time>2021-05-17T12:12:12.000Z</time>
      </trkpt>
      <trkpt lat="44.8658" lon="0.60729">
        <ele>120.8</ele>
        <time>2021-05-17T12:12:13.000Z</time>
      </trkpt>
      <trkpt lat="44.86577" lon="0.60731">
        <ele>121.1</ele>
        <time>2021-05-17T12:12:14.000Z</time>
      </trkpt>
      <trkpt lat="44.86573" lon="0.60732">
        <ele>121.4</ele>
        <time>2021-05-17T12:12:15.000Z</time>
      </trkpt>
      <trkpt lat="44.86571" lon="0.60734">
        <ele>121.7</ele>
        <time>2021-05-17T12:12:16.000Z</time>
      </trkpt>
      <trkpt lat="44.8657" lon="0.60734">
        <ele>121.7</ele>
        <time>2021-05-17T12:12:17.000Z</time>
      </trkpt>
      <trkpt lat="44.86566" lon="0.60732">
        <ele>121.8</ele>
        <time>2021-05-17T12:12:18.000Z</time>
      </trkpt>
      <trkpt lat="44.86565" lon="0.60732">
        <ele>122</ele>
        <time>2021-05-17T12:12:19.000Z</time>
      </trkpt>
      <trkpt lat="44.86562" lon="0.60732">
        <ele>122.1</ele>
        <time>2021-05-17T12:12:20.000Z</time>
      </trkpt>
      <trkpt lat="44.8656" lon="0.60732">
        <ele>122.3</ele>
        <time>2021-05-17T12:12:21.000Z</time>
      </trkpt>
      <trkpt lat="44.86556" lon="0.6073">
        <ele>122.5</ele>
        <time>2021-05-17T12:12:22.000Z</time>
      </trkpt>
      <trkpt lat="44.86555" lon="0.6073">
        <ele>122.5</ele>
        <time>2021-05-17T12:12:23.000Z</time>
      </trkpt>
      <trkpt lat="44.86552" lon="0.6073">
        <ele>122.6</ele>
        <time>2021-05-17T12:12:24.000Z</time>
      </trkpt>
      <trkpt lat="44.86551" lon="0.6073">
        <ele>122.8</ele>
        <time>2021-05-17T12:12:25.000Z</time>
      </trkpt>
      <trkpt lat="44.86548" lon="0.60734">
        <ele>122.8</ele>
        <time>2021-05-17T12:12:26.000Z</time>
      </trkpt>
      <trkpt lat="44.86547" lon="0.60736">
        <ele>123</ele>
        <time>2021-05-17T12:12:27.000Z</time>
      </trkpt>
      <trkpt lat="44.86545" lon="0.60739">
        <ele>123.2</ele>
        <time>2021-05-17T12:12:28.000Z</time>
      </trkpt>
      <trkpt lat="44.86543" lon="0.60741">
        <ele>123.2</ele>
        <time>2021-05-17T12:12:29.000Z</time>
      </trkpt>
      <trkpt lat="44.86543" lon="0.60743">
        <ele>123.3</ele>
        <time>2021-05-17T12:12:30.000Z</time>
      </trkpt>
      <trkpt lat="44.86543" lon="0.60745">
        <ele>123.3</ele>
        <time>2021-05-17T12:12:31.000Z</time>
      </trkpt>
      <trkpt lat="44.86543" lon="0.60747">
        <ele>123.4</ele>
        <time>2021-05-17T12:12:32.000Z</time>
      </trkpt>
      <trkpt lat="44.86543" lon="0.60749">
        <ele>123.4</ele>
        <time>2021-05-17T12:12:33.000Z</time>
      </trkpt>
      <trkpt lat="44.86543" lon="0.60756">
        <ele>123.6</ele>
        <time>2021-05-17T12:12:34.000Z</time>
      </trkpt>
      <trkpt lat="44.86542" lon="0.60762">
        <ele>123.9</ele>
        <time>2021-05-17T12:12:35.000Z</time>
      </trkpt>
      <trkpt lat="44.86542" lon="0.60763">
        <ele>123.9</ele>
        <time>2021-05-17T12:12:36.000Z</time>
      </trkpt>
      <trkpt lat="44.86541" lon="0.60768">
        <ele>124</ele>
        <time>2021-05-17T12:12:37.000Z</time>
      </trkpt>
      <trkpt lat="44.86541" lon="0.6077">
        <ele>124</ele>
        <time>2021-05-17T12:12:38.000Z</time>
      </trkpt>
      <trkpt lat="44.8654" lon="0.60775">
        <ele>124.1</ele>
        <time>2021-05-17T12:12:39.000Z</time>
      </trkpt>
      <trkpt lat="44.8654" lon="0.60777">
        <ele>124.2</ele>
        <time>2021-05-17T12:12:40.000Z</time>
      </trkpt>
      <trkpt lat="44.86539" lon="0.60783">
        <ele>124.5</ele>
        <time>2021-05-17T12:12:41.000Z</time>
      </trkpt>
      <trkpt lat="44.86539" lon="0.60785">
        <ele>124.5</ele>
        <time>2021-05-17T12:12:42.000Z</time>
      </trkpt>
      <trkpt lat="44.86537" lon="0.60789">
        <ele>124.6</ele>
        <time>2021-05-17T12:12:43.000Z</time>
      </trkpt>
      <trkpt lat="44.86536" lon="0.60796">
        <ele>125</ele>
        <time>2021-05-17T12:12:44.000Z</time>
      </trkpt>
      <trkpt lat="44.86534" lon="0.608">
        <ele>125.1</ele>
        <time>2021-05-17T12:12:45.000Z</time>
      </trkpt>
      <trkpt lat="44.86535" lon="0.60804">
        <ele>125.2</ele>
        <time>2021-05-17T12:12:46.000Z</time>
      </trkpt>
      <trkpt lat="44.86534" lon="0.60809">
        <ele>125.3</ele>
        <time>2021-05-17T12:12:47.000Z</time>
      </trkpt>
      <trkpt lat="44.86534" lon="0.60813">
        <ele>125.4</ele>
        <time>2021-05-17T12:12:48.000Z</time>
      </trkpt>
      <trkpt lat="44.86534" lon="0.60815">
        <ele>125.4</ele>
        <time>2021-05-17T12:12:49.000Z</time>
      </trkpt>
      <trkpt lat="44.86533" lon="0.6082">
        <ele>125.7</ele>
        <time>2021-05-17T12:12:50.000Z</time>
      </trkpt>
      <trkpt lat="44.86532" lon="0.60824">
        <ele>125.7</ele>
        <time>2021-05-17T12:12:51.000Z</time>
      </trkpt>
      <trkpt lat="44.86533" lon="0.6083">
        <ele>125.9</ele>
        <time>2021-05-17T12:12:52.000Z</time>
      </trkpt>
      <trkpt lat="44.8653" lon="0.60835">
        <ele>126</ele>
        <time>2021-05-17T12:12:53.000Z</time>
      </trkpt>
      <trkpt lat="44.8653" lon="0.60838">
        <ele>126.2</ele>
        <time>2021-05-17T12:12:54.000Z</time>
      </trkpt>
      <trkpt lat="44.86529" lon="0.60843">
        <ele>126.2</ele>
        <time>2021-05-17T12:12:55.000Z</time>
      </trkpt>
      <trkpt lat="44.86529" lon="0.60844">
        <ele>126.2</ele>
        <time>2021-05-17T12:12:56.000Z</time>
      </trkpt>
      <trkpt lat="44.86531" lon="0.60848">
        <ele>126.2</ele>
        <time>2021-05-17T12:12:57.000Z</time>
      </trkpt>
      <trkpt lat="44.86532" lon="0.60853">
        <ele>126.3</ele>
        <time>2021-05-17T12:12:58.000Z</time>
      </trkpt>
      <trkpt lat="44.86532" lon="0.60854">
        <ele>126.4</ele>
        <time>2021-05-17T12:12:59.000Z</time>
      </trkpt>
      <trkpt lat="44.86532" lon="0.60859">
        <ele>126.5</ele>
        <time>2021-05-17T12:13:00.000Z</time>
      </trkpt>
      <trkpt lat="44.86531" lon="0.60865">
        <ele>126.7</ele>
        <time>2021-05-17T12:13:01.000Z</time>
      </trkpt>
      <trkpt lat="44.86531" lon="0.60867">
        <ele>126.8</ele>
        <time>2021-05-17T12:13:02.000Z</time>
      </trkpt>
      <trkpt lat="44.86531" lon="0.60871">
        <ele>126.8</ele>
        <time>2021-05-17T12:13:03.000Z</time>
      </trkpt>
      <trkpt lat="44.86531" lon="0.60879">
        <ele>127</ele>
        <time>2021-05-17T12:13:04.000Z</time>
      </trkpt>
      <trkpt lat="44.8653" lon="0.60885">
        <ele>127.2</ele>
        <time>2021-05-17T12:13:05.000Z</time>
      </trkpt>
      <trkpt lat="44.8653" lon="0.60891">
        <ele>127.3</ele>
        <time>2021-05-17T12:13:06.000Z</time>
      </trkpt>
      <trkpt lat="44.86531" lon="0.60895">
        <ele>127.4</ele>
        <time>2021-05-17T12:13:07.000Z</time>
      </trkpt>
      <trkpt lat="44.86532" lon="0.609">
        <ele>127.5</ele>
        <time>2021-05-17T12:13:08.000Z</time>
      </trkpt>
      <trkpt lat="44.86532" lon="0.60905">
        <ele>127.6</ele>
        <time>2021-05-17T12:13:09.000Z</time>
      </trkpt>
      <trkpt lat="44.86533" lon="0.6091">
        <ele>127.8</ele>
        <time>2021-05-17T12:13:10.000Z</time>
      </trkpt>
      <trkpt lat="44.86532" lon="0.60916">
        <ele>127.9</ele>
        <time>2021-05-17T12:13:11.000Z</time>
      </trkpt>
      <trkpt lat="44.86532" lon="0.60922">
        <ele>128</ele>
        <time>2021-05-17T12:13:12.000Z</time>
      </trkpt>
      <trkpt lat="44.86532" lon="0.60928">
        <ele>128.2</ele>
        <time>2021-05-17T12:13:13.000Z</time>
      </trkpt>
      <trkpt lat="44.86533" lon="0.60933">
        <ele>128.2</ele>
        <time>2021-05-17T12:13:14.000Z</time>
      </trkpt>
      <trkpt lat="44.86535" lon="0.60937">
        <ele>128.3</ele>
        <time>2021-05-17T12:13:15.000Z</time>
      </trkpt>
      <trkpt lat="44.86536" lon="0.60938">
        <ele>128.2</ele>
        <time>2021-05-17T12:13:16.000Z</time>
      </trkpt>
      <trkpt lat="44.86537" lon="0.6094">
        <ele>128.2</ele>
        <time>2021-05-17T12:13:17.000Z</time>
      </trkpt>
      <trkpt lat="44.86536" lon="0.60945">
        <ele>128.4</ele>
        <time>2021-05-17T12:13:18.000Z</time>
      </trkpt>
      <trkpt lat="44.86536" lon="0.6095">
        <ele>128.4</ele>
        <time>2021-05-17T12:13:19.000Z</time>
      </trkpt>
      <trkpt lat="44.86536" lon="0.60954">
        <ele>128.4</ele>
        <time>2021-05-17T12:13:20.000Z</time>
      </trkpt>
      <trkpt lat="44.86536" lon="0.60958">
        <ele>128.4</ele>
        <time>2021-05-17T12:13:21.000Z</time>
      </trkpt>
      <trkpt lat="44.86535" lon="0.60964">
        <ele>128.5</ele>
        <time>2021-05-17T12:13:22.000Z</time>
      </trkpt>
      <trkpt lat="44.86534" lon="0.60966">
        <ele>128.5</ele>
        <time>2021-05-17T12:13:23.000Z</time>
      </trkpt>
      <trkpt lat="44.86533" lon="0.6097">
        <ele>128.5</ele>
        <time>2021-05-17T12:13:24.000Z</time>
      </trkpt>
      <trkpt lat="44.86532" lon="0.60974">
        <ele>128.5</ele>
        <time>2021-05-17T12:13:25.000Z</time>
      </trkpt>
      <trkpt lat="44.86531" lon="0.60978">
        <ele>128.6</ele>
        <time>2021-05-17T12:13:26.000Z</time>
      </trkpt>
      <trkpt lat="44.86529" lon="0.60983">
        <ele>128.6</ele>
        <time>2021-05-17T12:13:27.000Z</time>
      </trkpt>
      <trkpt lat="44.86526" lon="0.6099">
        <ele>128.6</ele>
        <time>2021-05-17T12:13:28.000Z</time>
      </trkpt>
      <trkpt lat="44.86522" lon="0.60997">
        <ele>128.5</ele>
        <time>2021-05-17T12:13:29.000Z</time>
      </trkpt>
      <trkpt lat="44.8652" lon="0.61003">
        <ele>128.5</ele>
        <time>2021-05-17T12:13:30.000Z</time>
      </trkpt>
      <trkpt lat="44.8652" lon="0.6101">
        <ele>128.5</ele>
        <time>2021-05-17T12:13:31.000Z</time>
      </trkpt>
      <trkpt lat="44.86519" lon="0.61012">
        <ele>128.5</ele>
        <time>2021-05-17T12:13:32.000Z</time>
      </trkpt>
      <trkpt lat="44.8652" lon="0.61016">
        <ele>128.5</ele>
        <time>2021-05-17T12:13:33.000Z</time>
      </trkpt>
      <trkpt lat="44.8652" lon="0.61022">
        <ele>128.6</ele>
        <time>2021-05-17T12:13:34.000Z</time>
      </trkpt>
      <trkpt lat="44.8652" lon="0.61028">
        <ele>128.6</ele>
        <time>2021-05-17T12:13:35.000Z</time>
      </trkpt>
      <trkpt lat="44.86521" lon="0.6103">
        <ele>128.6</ele>
        <time>2021-05-17T12:13:36.000Z</time>
      </trkpt>
      <trkpt lat="44.86521" lon="0.61034">
        <ele>128.7</ele>
        <time>2021-05-17T12:13:37.000Z</time>
      </trkpt>
      <trkpt lat="44.86522" lon="0.61036">
        <ele>128.7</ele>
        <time>2021-05-17T12:13:38.000Z</time>
      </trkpt>
      <trkpt lat="44.86521" lon="0.61043">
        <ele>128.7</ele>
        <time>2021-05-17T12:13:39.000Z</time>
      </trkpt>
      <trkpt lat="44.8652" lon="0.61054">
        <ele>128.8</ele>
        <time>2021-05-17T12:13:40.000Z</time>
      </trkpt>
      <trkpt lat="44.86516" lon="0.61059">
        <ele>128.8</ele>
        <time>2021-05-17T12:13:41.000Z</time>
      </trkpt>
      <trkpt lat="44.86513" lon="0.61061">
        <ele>128.8</ele>
        <time>2021-05-17T12:13:42.000Z</time>
      </trkpt>
      <trkpt lat="44.86512" lon="0.61062">
        <ele>128.9</ele>
        <time>2021-05-17T12:13:43.000Z</time>
      </trkpt>
      <trkpt lat="44.86511" lon="0.61065">
        <ele>128.9</ele>
        <time>2021-05-17T12:13:44.000Z</time>
      </trkpt>
      <trkpt lat="44.86512" lon="0.61067">
        <ele>128.9</ele>
        <time>2021-05-17T12:13:45.000Z</time>
      </trkpt>
      <trkpt lat="44.86512" lon="0.61075">
        <ele>129</ele>
        <time>2021-05-17T12:13:46.000Z</time>
      </trkpt>
      <trkpt lat="44.86512" lon="0.61079">
        <ele>129.1</ele>
        <time>2021-05-17T12:13:47.000Z</time>
      </trkpt>
      <trkpt lat="44.86513" lon="0.61085">
        <ele>129.1</ele>
        <time>2021-05-17T12:13:48.000Z</time>
      </trkpt>
      <trkpt lat="44.86514" lon="0.61088">
        <ele>129.2</ele>
        <time>2021-05-17T12:13:49.000Z</time>
      </trkpt>
      <trkpt lat="44.86514" lon="0.61092">
        <ele>129.2</ele>
        <time>2021-05-17T12:13:50.000Z</time>
      </trkpt>
      <trkpt lat="44.86513" lon="0.61095">
        <ele>129.2</ele>
        <time>2021-05-17T12:13:51.000Z</time>
      </trkpt>
      <trkpt lat="44.86512" lon="0.61101">
        <ele>129.3</ele>
        <time>2021-05-17T12:13:52.000Z</time>
      </trkpt>
      <trkpt lat="44.86513" lon="0.61103">
        <ele>129.3</ele>
        <time>2021-05-17T12:13:53.000Z</time>
      </trkpt>
      <trkpt lat="44.86513" lon="0.61108">
        <ele>129.3</ele>
        <time>2021-05-17T12:13:54.000Z</time>
      </trkpt>
      <trkpt lat="44.86515" lon="0.61112">
        <ele>129.3</ele>
        <time>2021-05-17T12:13:55.000Z</time>
      </trkpt>
      <trkpt lat="44.86517" lon="0.61116">
        <ele>129.4</ele>
        <time>2021-05-17T12:13:56.000Z</time>
      </trkpt>
      <trkpt lat="44.86516" lon="0.6112">
        <ele>129.5</ele>
        <time>2021-05-17T12:13:57.000Z</time>
      </trkpt>
      <trkpt lat="44.86516" lon="0.61127">
        <ele>129.7</ele>
        <time>2021-05-17T12:13:58.000Z</time>
      </trkpt>
      <trkpt lat="44.86515" lon="0.61136">
        <ele>130</ele>
        <time>2021-05-17T12:13:59.000Z</time>
      </trkpt>
      <trkpt lat="44.86517" lon="0.61142">
        <ele>130.2</ele>
        <time>2021-05-17T12:14:00.000Z</time>
      </trkpt>
      <trkpt lat="44.8652" lon="0.61148">
        <ele>130.6</ele>
        <time>2021-05-17T12:14:01.000Z</time>
      </trkpt>
      <trkpt lat="44.86521" lon="0.61152">
        <ele>130.6</ele>
        <time>2021-05-17T12:14:02.000Z</time>
      </trkpt>
      <trkpt lat="44.86522" lon="0.61154">
        <ele>130.5</ele>
        <time>2021-05-17T12:14:03.000Z</time>
      </trkpt>
      <trkpt lat="44.86525" lon="0.61158">
        <ele>130.5</ele>
        <time>2021-05-17T12:14:04.000Z</time>
      </trkpt>
      <trkpt lat="44.86526" lon="0.6116">
        <ele>130.5</ele>
        <time>2021-05-17T12:14:05.000Z</time>
      </trkpt>
      <trkpt lat="44.86528" lon="0.61164">
        <ele>130.5</ele>
        <time>2021-05-17T12:14:06.000Z</time>
      </trkpt>
      <trkpt lat="44.8653" lon="0.61167">
        <ele>130.4</ele>
        <time>2021-05-17T12:14:07.000Z</time>
      </trkpt>
      <trkpt lat="44.86532" lon="0.61171">
        <ele>130.4</ele>
        <time>2021-05-17T12:14:08.000Z</time>
      </trkpt>
      <trkpt lat="44.86533" lon="0.61173">
        <ele>130.3</ele>
        <time>2021-05-17T12:14:09.000Z</time>
      </trkpt>
      <trkpt lat="44.86536" lon="0.61176">
        <ele>130.3</ele>
        <time>2021-05-17T12:14:10.000Z</time>
      </trkpt>
      <trkpt lat="44.86537" lon="0.61177">
        <ele>130.2</ele>
        <time>2021-05-17T12:14:11.000Z</time>
      </trkpt>
      <trkpt lat="44.86538" lon="0.6118">
        <ele>130.2</ele>
        <time>2021-05-17T12:14:12.000Z</time>
      </trkpt>
      <trkpt lat="44.86541" lon="0.61183">
        <ele>130.1</ele>
        <time>2021-05-17T12:14:13.000Z</time>
      </trkpt>
      <trkpt lat="44.86542" lon="0.61185">
        <ele>130</ele>
        <time>2021-05-17T12:14:14.000Z</time>
      </trkpt>
      <trkpt lat="44.86544" lon="0.61187">
        <ele>130</ele>
        <time>2021-05-17T12:14:15.000Z</time>
      </trkpt>
      <trkpt lat="44.86545" lon="0.61187">
        <ele>130</ele>
        <time>2021-05-17T12:14:16.000Z</time>
      </trkpt>
      <trkpt lat="44.86547" lon="0.6119">
        <ele>129.9</ele>
        <time>2021-05-17T12:14:17.000Z</time>
      </trkpt>
      <trkpt lat="44.86548" lon="0.61191">
        <ele>129.9</ele>
        <time>2021-05-17T12:14:18.000Z</time>
      </trkpt>
      <trkpt lat="44.8655" lon="0.61194">
        <ele>129.8</ele>
        <time>2021-05-17T12:14:19.000Z</time>
      </trkpt>
      <trkpt lat="44.86551" lon="0.61196">
        <ele>129.8</ele>
        <time>2021-05-17T12:14:20.000Z</time>
      </trkpt>
      <trkpt lat="44.86553" lon="0.61198">
        <ele>129.7</ele>
        <time>2021-05-17T12:14:21.000Z</time>
      </trkpt>
      <trkpt lat="44.86554" lon="0.61199">
        <ele>129.7</ele>
        <time>2021-05-17T12:14:22.000Z</time>
      </trkpt>
      <trkpt lat="44.86556" lon="0.61201">
        <ele>129.6</ele>
        <time>2021-05-17T12:14:23.000Z</time>
      </trkpt>
      <trkpt lat="44.86558" lon="0.61202">
        <ele>129.6</ele>
        <time>2021-05-17T12:14:24.000Z</time>
      </trkpt>
      <trkpt lat="44.86559" lon="0.61202">
        <ele>129.6</ele>
        <time>2021-05-17T12:14:25.000Z</time>
      </trkpt>
      <trkpt lat="44.86561" lon="0.61203">
        <ele>129.5</ele>
        <time>2021-05-17T12:14:26.000Z</time>
      </trkpt>
      <trkpt lat="44.86566" lon="0.61206">
        <ele>129.4</ele>
        <time>2021-05-17T12:14:27.000Z</time>
      </trkpt>
      <trkpt lat="44.86576" lon="0.6122">
        <ele>129.2</ele>
        <time>2021-05-17T12:14:28.000Z</time>
      </trkpt>
      <trkpt lat="44.86581" lon="0.61228">
        <ele>129.1</ele>
        <time>2021-05-17T12:14:29.000Z</time>
      </trkpt>
      <trkpt lat="44.86586" lon="0.61234">
        <ele>129</ele>
        <time>2021-05-17T12:14:30.000Z</time>
      </trkpt>
      <trkpt lat="44.86591" lon="0.61241">
        <ele>128.8</ele>
        <time>2021-05-17T12:14:31.000Z</time>
      </trkpt>
      <trkpt lat="44.86597" lon="0.61246">
        <ele>128.6</ele>
        <time>2021-05-17T12:14:32.000Z</time>
      </trkpt>
      <trkpt lat="44.866" lon="0.6125">
        <ele>128.4</ele>
        <time>2021-05-17T12:14:33.000Z</time>
      </trkpt>
      <trkpt lat="44.86603" lon="0.61254">
        <ele>128.2</ele>
        <time>2021-05-17T12:14:34.000Z</time>
      </trkpt>
      <trkpt lat="44.86606" lon="0.61257">
        <ele>128</ele>
        <time>2021-05-17T12:14:35.000Z</time>
      </trkpt>
      <trkpt lat="44.86609" lon="0.61262">
        <ele>127.8</ele>
        <time>2021-05-17T12:14:36.000Z</time>
      </trkpt>
      <trkpt lat="44.86611" lon="0.61265">
        <ele>127.7</ele>
        <time>2021-05-17T12:14:37.000Z</time>
      </trkpt>
      <trkpt lat="44.86612" lon="0.61267">
        <ele>127.6</ele>
        <time>2021-05-17T12:14:38.000Z</time>
      </trkpt>
      <trkpt lat="44.86613" lon="0.61268">
        <ele>127.5</ele>
        <time>2021-05-17T12:14:39.000Z</time>
      </trkpt>
      <trkpt lat="44.86615" lon="0.6127">
        <ele>127.4</ele>
        <time>2021-05-17T12:14:40.000Z</time>
      </trkpt>
      <trkpt lat="44.86618" lon="0.61273">
        <ele>127.2</ele>
        <time>2021-05-17T12:14:41.000Z</time>
      </trkpt>
      <trkpt lat="44.86619" lon="0.61275">
        <ele>127.1</ele>
        <time>2021-05-17T12:14:42.000Z</time>
      </trkpt>
      <trkpt lat="44.86626" lon="0.61283">
        <ele>126.8</ele>
        <time>2021-05-17T12:14:43.000Z</time>
      </trkpt>
      <trkpt lat="44.86629" lon="0.61287">
        <ele>126.6</ele>
        <time>2021-05-17T12:14:44.000Z</time>
      </trkpt>
      <trkpt lat="44.86633" lon="0.61291">
        <ele>126.5</ele>
        <time>2021-05-17T12:14:45.000Z</time>
      </trkpt>
      <trkpt lat="44.86635" lon="0.61293">
        <ele>126.4</ele>
        <time>2021-05-17T12:14:46.000Z</time>
      </trkpt>
      <trkpt lat="44.86638" lon="0.61298">
        <ele>126.3</ele>
        <time>2021-05-17T12:14:47.000Z</time>
      </trkpt>
      <trkpt lat="44.86641" lon="0.61302">
        <ele>126.1</ele>
        <time>2021-05-17T12:14:48.000Z</time>
      </trkpt>
      <trkpt lat="44.86645" lon="0.61306">
        <ele>126</ele>
        <time>2021-05-17T12:14:49.000Z</time>
      </trkpt>
      <trkpt lat="44.86647" lon="0.61311">
        <ele>125.9</ele>
        <time>2021-05-17T12:14:50.000Z</time>
      </trkpt>
      <trkpt lat="44.86651" lon="0.61316">
        <ele>125.8</ele>
        <time>2021-05-17T12:14:51.000Z</time>
      </trkpt>
      <trkpt lat="44.86656" lon="0.61323">
        <ele>125.6</ele>
        <time>2021-05-17T12:14:52.000Z</time>
      </trkpt>
      <trkpt lat="44.8666" lon="0.61328">
        <ele>125.5</ele>
        <time>2021-05-17T12:14:53.000Z</time>
      </trkpt>
      <trkpt lat="44.86666" lon="0.61334">
        <ele>125.4</ele>
        <time>2021-05-17T12:14:54.000Z</time>
      </trkpt>
      <trkpt lat="44.86672" lon="0.61342">
        <ele>125.4</ele>
        <time>2021-05-17T12:14:55.000Z</time>
      </trkpt>
      <trkpt lat="44.86678" lon="0.6135">
        <ele>125.5</ele>
        <time>2021-05-17T12:14:56.000Z</time>
      </trkpt>
      <trkpt lat="44.86684" lon="0.61358">
        <ele>125.6</ele>
        <time>2021-05-17T12:14:57.000Z</time>
      </trkpt>
      <trkpt lat="44.8669" lon="0.61367">
        <ele>125.7</ele>
        <time>2021-05-17T12:14:58.000Z</time>
      </trkpt>
      <trkpt lat="44.86696" lon="0.61374">
        <ele>125.7</ele>
        <time>2021-05-17T12:14:59.000Z</time>
      </trkpt>
      <trkpt lat="44.86701" lon="0.61381">
        <ele>125.8</ele>
        <time>2021-05-17T12:15:00.000Z</time>
      </trkpt>
      <trkpt lat="44.86708" lon="0.6139">
        <ele>125.9</ele>
        <time>2021-05-17T12:15:01.000Z</time>
      </trkpt>
      <trkpt lat="44.86713" lon="0.614">
        <ele>126</ele>
        <time>2021-05-17T12:15:02.000Z</time>
      </trkpt>
      <trkpt lat="44.86718" lon="0.61407">
        <ele>126</ele>
        <time>2021-05-17T12:15:03.000Z</time>
      </trkpt>
      <trkpt lat="44.86725" lon="0.61417">
        <ele>126</ele>
        <time>2021-05-17T12:15:04.000Z</time>
      </trkpt>
      <trkpt lat="44.86733" lon="0.61426">
        <ele>125.9</ele>
        <time>2021-05-17T12:15:05.000Z</time>
      </trkpt>
      <trkpt lat="44.86739" lon="0.61435">
        <ele>125.8</ele>
        <time>2021-05-17T12:15:06.000Z</time>
      </trkpt>
      <trkpt lat="44.86745" lon="0.61443">
        <ele>125.6</ele>
        <time>2021-05-17T12:15:07.000Z</time>
      </trkpt>
      <trkpt lat="44.86751" lon="0.61451">
        <ele>125.4</ele>
        <time>2021-05-17T12:15:08.000Z</time>
      </trkpt>
      <trkpt lat="44.86758" lon="0.61459">
        <ele>125.2</ele>
        <time>2021-05-17T12:15:09.000Z</time>
      </trkpt>
      <trkpt lat="44.86763" lon="0.61466">
        <ele>125.1</ele>
        <time>2021-05-17T12:15:10.000Z</time>
      </trkpt>
      <trkpt lat="44.86768" lon="0.61473">
        <ele>124.9</ele>
        <time>2021-05-17T12:15:11.000Z</time>
      </trkpt>
      <trkpt lat="44.86774" lon="0.61481">
        <ele>124.7</ele>
        <time>2021-05-17T12:15:12.000Z</time>
      </trkpt>
      <trkpt lat="44.8678" lon="0.61489">
        <ele>124.5</ele>
        <time>2021-05-17T12:15:13.000Z</time>
      </trkpt>
      <trkpt lat="44.86785" lon="0.61495">
        <ele>124.3</ele>
        <time>2021-05-17T12:15:14.000Z</time>
      </trkpt>
      <trkpt lat="44.86793" lon="0.61502">
        <ele>124.2</ele>
        <time>2021-05-17T12:15:15.000Z</time>
      </trkpt>
      <trkpt lat="44.86799" lon="0.6151">
        <ele>124.1</ele>
        <time>2021-05-17T12:15:16.000Z</time>
      </trkpt>
      <trkpt lat="44.86804" lon="0.61516">
        <ele>124</ele>
        <time>2021-05-17T12:15:17.000Z</time>
      </trkpt>
      <trkpt lat="44.86809" lon="0.61523">
        <ele>124</ele>
        <time>2021-05-17T12:15:18.000Z</time>
      </trkpt>
      <trkpt lat="44.86815" lon="0.61529">
        <ele>123.9</ele>
        <time>2021-05-17T12:15:19.000Z</time>
      </trkpt>
      <trkpt lat="44.86819" lon="0.61534">
        <ele>123.8</ele>
        <time>2021-05-17T12:15:20.000Z</time>
      </trkpt>
      <trkpt lat="44.86824" lon="0.61539">
        <ele>123.8</ele>
        <time>2021-05-17T12:15:21.000Z</time>
      </trkpt>
      <trkpt lat="44.86829" lon="0.61546">
        <ele>123.8</ele>
        <time>2021-05-17T12:15:22.000Z</time>
      </trkpt>
      <trkpt lat="44.86833" lon="0.61551">
        <ele>123.8</ele>
        <time>2021-05-17T12:15:23.000Z</time>
      </trkpt>
      <trkpt lat="44.86838" lon="0.61557">
        <ele>123.8</ele>
        <time>2021-05-17T12:15:24.000Z</time>
      </trkpt>
      <trkpt lat="44.86842" lon="0.61561">
        <ele>123.8</ele>
        <time>2021-05-17T12:15:25.000Z</time>
      </trkpt>
      <trkpt lat="44.86845" lon="0.61566">
        <ele>123.9</ele>
        <time>2021-05-17T12:15:26.000Z</time>
      </trkpt>
      <trkpt lat="44.86849" lon="0.6157">
        <ele>124</ele>
        <time>2021-05-17T12:15:27.000Z</time>
      </trkpt>
      <trkpt lat="44.86851" lon="0.61574">
        <ele>124.1</ele>
        <time>2021-05-17T12:15:28.000Z</time>
      </trkpt>
      <trkpt lat="44.86852" lon="0.61575">
        <ele>124.1</ele>
        <time>2021-05-17T12:15:29.000Z</time>
      </trkpt>
      <trkpt lat="44.86853" lon="0.61578">
        <ele>124.2</ele>
        <time>2021-05-17T12:15:30.000Z</time>
      </trkpt>
      <trkpt lat="44.86854" lon="0.6158">
        <ele>124.2</ele>
        <time>2021-05-17T12:15:31.000Z</time>
      </trkpt>
      <trkpt lat="44.86857" lon="0.61584">
        <ele>124.3</ele>
        <time>2021-05-17T12:15:32.000Z</time>
      </trkpt>
      <trkpt lat="44.86859" lon="0.61588">
        <ele>124.4</ele>
        <time>2021-05-17T12:15:33.000Z</time>
      </trkpt>
      <trkpt lat="44.86861" lon="0.61594">
        <ele>124.5</ele>
        <time>2021-05-17T12:15:34.000Z</time>
      </trkpt>
      <trkpt lat="44.86864" lon="0.616">
        <ele>124.6</ele>
        <time>2021-05-17T12:15:35.000Z</time>
      </trkpt>
      <trkpt lat="44.86866" lon="0.61606">
        <ele>124.7</ele>
        <time>2021-05-17T12:15:36.000Z</time>
      </trkpt>
      <trkpt lat="44.86868" lon="0.61611">
        <ele>124.8</ele>
        <time>2021-05-17T12:15:37.000Z</time>
      </trkpt>
      <trkpt lat="44.8687" lon="0.61615">
        <ele>124.9</ele>
        <time>2021-05-17T12:15:38.000Z</time>
      </trkpt>
      <trkpt lat="44.86872" lon="0.6162">
        <ele>125</ele>
        <time>2021-05-17T12:15:39.000Z</time>
      </trkpt>
      <trkpt lat="44.86874" lon="0.61625">
        <ele>125.1</ele>
        <time>2021-05-17T12:15:40.000Z</time>
      </trkpt>
      <trkpt lat="44.86875" lon="0.6163">
        <ele>125.1</ele>
        <time>2021-05-17T12:15:41.000Z</time>
      </trkpt>
      <trkpt lat="44.86877" lon="0.61635">
        <ele>125.2</ele>
        <time>2021-05-17T12:15:42.000Z</time>
      </trkpt>
      <trkpt lat="44.86878" lon="0.6164">
        <ele>125.3</ele>
        <time>2021-05-17T12:15:43.000Z</time>
      </trkpt>
      <trkpt lat="44.8688" lon="0.61645">
        <ele>125.3</ele>
        <time>2021-05-17T12:15:44.000Z</time>
      </trkpt>
      <trkpt lat="44.86882" lon="0.6165">
        <ele>125.4</ele>
        <time>2021-05-17T12:15:45.000Z</time>
      </trkpt>
      <trkpt lat="44.86883" lon="0.61656">
        <ele>125.4</ele>
        <time>2021-05-17T12:15:46.000Z</time>
      </trkpt>
      <trkpt lat="44.86885" lon="0.61662">
        <ele>125.5</ele>
        <time>2021-05-17T12:15:47.000Z</time>
      </trkpt>
      <trkpt lat="44.86887" lon="0.61668">
        <ele>125.5</ele>
        <time>2021-05-17T12:15:48.000Z</time>
      </trkpt>
      <trkpt lat="44.86889" lon="0.61675">
        <ele>125.6</ele>
        <time>2021-05-17T12:15:49.000Z</time>
      </trkpt>
      <trkpt lat="44.8689" lon="0.61681">
        <ele>125.6</ele>
        <time>2021-05-17T12:15:50.000Z</time>
      </trkpt>
      <trkpt lat="44.86893" lon="0.61687">
        <ele>125.6</ele>
        <time>2021-05-17T12:15:51.000Z</time>
      </trkpt>
      <trkpt lat="44.86894" lon="0.61694">
        <ele>125.6</ele>
        <time>2021-05-17T12:15:52.000Z</time>
      </trkpt>
      <trkpt lat="44.86896" lon="0.61701">
        <ele>125.6</ele>
        <time>2021-05-17T12:15:53.000Z</time>
      </trkpt>
      <trkpt lat="44.86898" lon="0.61708">
        <ele>125.6</ele>
        <time>2021-05-17T12:15:54.000Z</time>
      </trkpt>
      <trkpt lat="44.86901" lon="0.61715">
        <ele>125.5</ele>
        <time>2021-05-17T12:15:55.000Z</time>
      </trkpt>
      <trkpt lat="44.86903" lon="0.61722">
        <ele>125.4</ele>
        <time>2021-05-17T12:15:56.000Z</time>
      </trkpt>
      <trkpt lat="44.86905" lon="0.6173">
        <ele>125.3</ele>
        <time>2021-05-17T12:15:57.000Z</time>
      </trkpt>
      <trkpt lat="44.86908" lon="0.61737">
        <ele>125.2</ele>
        <time>2021-05-17T12:15:58.000Z</time>
      </trkpt>
      <trkpt lat="44.8691" lon="0.61745">
        <ele>125.1</ele>
        <time>2021-05-17T12:15:59.000Z</time>
      </trkpt>
      <trkpt lat="44.86912" lon="0.61752">
        <ele>125</ele>
        <time>2021-05-17T12:16:00.000Z</time>
      </trkpt>
      <trkpt lat="44.86915" lon="0.61759">
        <ele>124.8</ele>
        <time>2021-05-17T12:16:01.000Z</time>
      </trkpt>
      <trkpt lat="44.86917" lon="0.61766">
        <ele>124.7</ele>
        <time>2021-05-17T12:16:02.000Z</time>
      </trkpt>
      <trkpt lat="44.86919" lon="0.61772">
        <ele>124.6</ele>
        <time>2021-05-17T12:16:03.000Z</time>
      </trkpt>
      <trkpt lat="44.8692" lon="0.61779">
        <ele>124.4</ele>
        <time>2021-05-17T12:16:04.000Z</time>
      </trkpt>
      <trkpt lat="44.86922" lon="0.61786">
        <ele>124.3</ele>
        <time>2021-05-17T12:16:05.000Z</time>
      </trkpt>
      <trkpt lat="44.86924" lon="0.61792">
        <ele>124.1</ele>
        <time>2021-05-17T12:16:06.000Z</time>
      </trkpt>
      <trkpt lat="44.86926" lon="0.61798">
        <ele>123.9</ele>
        <time>2021-05-17T12:16:07.000Z</time>
      </trkpt>
      <trkpt lat="44.86929" lon="0.61804">
        <ele>123.7</ele>
        <time>2021-05-17T12:16:08.000Z</time>
      </trkpt>
      <trkpt lat="44.86931" lon="0.6181">
        <ele>123.5</ele>
        <time>2021-05-17T12:16:09.000Z</time>
      </trkpt>
      <trkpt lat="44.86934" lon="0.61814">
        <ele>123.3</ele>
        <time>2021-05-17T12:16:10.000Z</time>
      </trkpt>
      <trkpt lat="44.86938" lon="0.61821">
        <ele>122.9</ele>
        <time>2021-05-17T12:16:11.000Z</time>
      </trkpt>
      <trkpt lat="44.86943" lon="0.6183">
        <ele>122.4</ele>
        <time>2021-05-17T12:16:12.000Z</time>
      </trkpt>
      <trkpt lat="44.86947" lon="0.61838">
        <ele>121.9</ele>
        <time>2021-05-17T12:16:13.000Z</time>
      </trkpt>
      <trkpt lat="44.86953" lon="0.61848">
        <ele>121.3</ele>
        <time>2021-05-17T12:16:14.000Z</time>
      </trkpt>
      <trkpt lat="44.86958" lon="0.61857">
        <ele>120.7</ele>
        <time>2021-05-17T12:16:15.000Z</time>
      </trkpt>
      <trkpt lat="44.86964" lon="0.61866">
        <ele>120</ele>
        <time>2021-05-17T12:16:16.000Z</time>
      </trkpt>
      <trkpt lat="44.8697" lon="0.61875">
        <ele>119.3</ele>
        <time>2021-05-17T12:16:17.000Z</time>
      </trkpt>
      <trkpt lat="44.86977" lon="0.61885">
        <ele>118.7</ele>
        <time>2021-05-17T12:16:18.000Z</time>
      </trkpt>
      <trkpt lat="44.86983" lon="0.61894">
        <ele>118.1</ele>
        <time>2021-05-17T12:16:19.000Z</time>
      </trkpt>
      <trkpt lat="44.86991" lon="0.61904">
        <ele>117.8</ele>
        <time>2021-05-17T12:16:20.000Z</time>
      </trkpt>
      <trkpt lat="44.86998" lon="0.61913">
        <ele>117.8</ele>
        <time>2021-05-17T12:16:21.000Z</time>
      </trkpt>
      <trkpt lat="44.87002" lon="0.6192">
        <ele>118</ele>
        <time>2021-05-17T12:16:22.000Z</time>
      </trkpt>
      <trkpt lat="44.87007" lon="0.61928">
        <ele>118.3</ele>
        <time>2021-05-17T12:16:23.000Z</time>
      </trkpt>
      <trkpt lat="44.87012" lon="0.61934">
        <ele>118.5</ele>
        <time>2021-05-17T12:16:24.000Z</time>
      </trkpt>
      <trkpt lat="44.87015" lon="0.61937">
        <ele>118.7</ele>
        <time>2021-05-17T12:16:25.000Z</time>
      </trkpt>
      <trkpt lat="44.87018" lon="0.6194">
        <ele>118.8</ele>
        <time>2021-05-17T12:16:26.000Z</time>
      </trkpt>
      <trkpt lat="44.87021" lon="0.61944">
        <ele>118.9</ele>
        <time>2021-05-17T12:16:27.000Z</time>
      </trkpt>
      <trkpt lat="44.87024" lon="0.61948">
        <ele>119</ele>
        <time>2021-05-17T12:16:28.000Z</time>
      </trkpt>
      <trkpt lat="44.87026" lon="0.61951">
        <ele>119</ele>
        <time>2021-05-17T12:16:29.000Z</time>
      </trkpt>
      <trkpt lat="44.8703" lon="0.61954">
        <ele>119.1</ele>
        <time>2021-05-17T12:16:30.000Z</time>
      </trkpt>
      <trkpt lat="44.87033" lon="0.61958">
        <ele>119.1</ele>
        <time>2021-05-17T12:16:31.000Z</time>
      </trkpt>
      <trkpt lat="44.87035" lon="0.61962">
        <ele>119</ele>
        <time>2021-05-17T12:16:32.000Z</time>
      </trkpt>
      <trkpt lat="44.87039" lon="0.61966">
        <ele>119</ele>
        <time>2021-05-17T12:16:33.000Z</time>
      </trkpt>
      <trkpt lat="44.87042" lon="0.61971">
        <ele>118.8</ele>
        <time>2021-05-17T12:16:34.000Z</time>
      </trkpt>
      <trkpt lat="44.87045" lon="0.61977">
        <ele>118.6</ele>
        <time>2021-05-17T12:16:35.000Z</time>
      </trkpt>
      <trkpt lat="44.87049" lon="0.61983">
        <ele>118.3</ele>
        <time>2021-05-17T12:16:36.000Z</time>
      </trkpt>
      <trkpt lat="44.87054" lon="0.6199">
        <ele>118</ele>
        <time>2021-05-17T12:16:37.000Z</time>
      </trkpt>
      <trkpt lat="44.87059" lon="0.61996">
        <ele>117.6</ele>
        <time>2021-05-17T12:16:38.000Z</time>
      </trkpt>
      <trkpt lat="44.87064" lon="0.62002">
        <ele>117.2</ele>
        <time>2021-05-17T12:16:39.000Z</time>
      </trkpt>
      <trkpt lat="44.8707" lon="0.62009">
        <ele>116.8</ele>
        <time>2021-05-17T12:16:40.000Z</time>
      </trkpt>
      <trkpt lat="44.87076" lon="0.62016">
        <ele>116.5</ele>
        <time>2021-05-17T12:16:41.000Z</time>
      </trkpt>
      <trkpt lat="44.87081" lon="0.62023">
        <ele>116.2</ele>
        <time>2021-05-17T12:16:42.000Z</time>
      </trkpt>
      <trkpt lat="44.87086" lon="0.6203">
        <ele>115.8</ele>
        <time>2021-05-17T12:16:43.000Z</time>
      </trkpt>
      <trkpt lat="44.87091" lon="0.62036">
        <ele>115.4</ele>
        <time>2021-05-17T12:16:44.000Z</time>
      </trkpt>
      <trkpt lat="44.87095" lon="0.62043">
        <ele>114.9</ele>
        <time>2021-05-17T12:16:45.000Z</time>
      </trkpt>
      <trkpt lat="44.87101" lon="0.62048">
        <ele>114.4</ele>
        <time>2021-05-17T12:16:46.000Z</time>
      </trkpt>
      <trkpt lat="44.87106" lon="0.62054">
        <ele>113.8</ele>
        <time>2021-05-17T12:16:47.000Z</time>
      </trkpt>
      <trkpt lat="44.87111" lon="0.62062">
        <ele>113.2</ele>
        <time>2021-05-17T12:16:48.000Z</time>
      </trkpt>
      <trkpt lat="44.87115" lon="0.62068">
        <ele>112.7</ele>
        <time>2021-05-17T12:16:49.000Z</time>
      </trkpt>
      <trkpt lat="44.8712" lon="0.62073">
        <ele>112.4</ele>
        <time>2021-05-17T12:16:50.000Z</time>
      </trkpt>
      <trkpt lat="44.87123" lon="0.62074">
        <ele>112.2</ele>
        <time>2021-05-17T12:16:51.000Z</time>
      </trkpt>
      <trkpt lat="44.87127" lon="0.6207">
        <ele>111.8</ele>
        <time>2021-05-17T12:16:52.000Z</time>
      </trkpt>
      <trkpt lat="44.87129" lon="0.62068">
        <ele>111.7</ele>
        <time>2021-05-17T12:16:53.000Z</time>
      </trkpt>
      <trkpt lat="44.87134" lon="0.62066">
        <ele>111.6</ele>
        <time>2021-05-17T12:16:54.000Z</time>
      </trkpt>
      <trkpt lat="44.87138" lon="0.62063">
        <ele>111.6</ele>
        <time>2021-05-17T12:16:55.000Z</time>
      </trkpt>
      <trkpt lat="44.87143" lon="0.62061">
        <ele>111.6</ele>
        <time>2021-05-17T12:16:56.000Z</time>
      </trkpt>
      <trkpt lat="44.87148" lon="0.62059">
        <ele>111.7</ele>
        <time>2021-05-17T12:16:57.000Z</time>
      </trkpt>
      <trkpt lat="44.87153" lon="0.62056">
        <ele>111.7</ele>
        <time>2021-05-17T12:16:58.000Z</time>
      </trkpt>
      <trkpt lat="44.87157" lon="0.62054">
        <ele>111.8</ele>
        <time>2021-05-17T12:16:59.000Z</time>
      </trkpt>
      <trkpt lat="44.87162" lon="0.62051">
        <ele>111.9</ele>
        <time>2021-05-17T12:17:00.000Z</time>
      </trkpt>
      <trkpt lat="44.87166" lon="0.62048">
        <ele>112</ele>
        <time>2021-05-17T12:17:01.000Z</time>
      </trkpt>
      <trkpt lat="44.87169" lon="0.62045">
        <ele>112.1</ele>
        <time>2021-05-17T12:17:02.000Z</time>
      </trkpt>
      <trkpt lat="44.87173" lon="0.62044">
        <ele>112.2</ele>
        <time>2021-05-17T12:17:03.000Z</time>
      </trkpt>
      <trkpt lat="44.87178" lon="0.62042">
        <ele>112.2</ele>
        <time>2021-05-17T12:17:04.000Z</time>
      </trkpt>
      <trkpt lat="44.87181" lon="0.62041">
        <ele>112.3</ele>
        <time>2021-05-17T12:17:05.000Z</time>
      </trkpt>
      <trkpt lat="44.87184" lon="0.62039">
        <ele>112.4</ele>
        <time>2021-05-17T12:17:06.000Z</time>
      </trkpt>
      <trkpt lat="44.87189" lon="0.62036">
        <ele>112.5</ele>
        <time>2021-05-17T12:17:07.000Z</time>
      </trkpt>
      <trkpt lat="44.87194" lon="0.62036">
        <ele>112.6</ele>
        <time>2021-05-17T12:17:08.000Z</time>
      </trkpt>
      <trkpt lat="44.87199" lon="0.62037">
        <ele>112.7</ele>
        <time>2021-05-17T12:17:09.000Z</time>
      </trkpt>
      <trkpt lat="44.87203" lon="0.62035">
        <ele>112.9</ele>
        <time>2021-05-17T12:17:10.000Z</time>
      </trkpt>
      <trkpt lat="44.87207" lon="0.62035">
        <ele>113</ele>
        <time>2021-05-17T12:17:11.000Z</time>
      </trkpt>
      <trkpt lat="44.8721" lon="0.62036">
        <ele>113.1</ele>
        <time>2021-05-17T12:17:12.000Z</time>
      </trkpt>
      <trkpt lat="44.87215" lon="0.62036">
        <ele>113.3</ele>
        <time>2021-05-17T12:17:13.000Z</time>
      </trkpt>
      <trkpt lat="44.87219" lon="0.62035">
        <ele>113.4</ele>
        <time>2021-05-17T12:17:14.000Z</time>
      </trkpt>
      <trkpt lat="44.87223" lon="0.62035">
        <ele>113.6</ele>
        <time>2021-05-17T12:17:15.000Z</time>
      </trkpt>
      <trkpt lat="44.87227" lon="0.62036">
        <ele>113.8</ele>
        <time>2021-05-17T12:17:16.000Z</time>
      </trkpt>
      <trkpt lat="44.87231" lon="0.62035">
        <ele>113.9</ele>
        <time>2021-05-17T12:17:17.000Z</time>
      </trkpt>
      <trkpt lat="44.87236" lon="0.62036">
        <ele>114.1</ele>
        <time>2021-05-17T12:17:18.000Z</time>
      </trkpt>
      <trkpt lat="44.87242" lon="0.62036">
        <ele>114.3</ele>
        <time>2021-05-17T12:17:19.000Z</time>
      </trkpt>
      <trkpt lat="44.87245" lon="0.62035">
        <ele>114.4</ele>
        <time>2021-05-17T12:17:20.000Z</time>
      </trkpt>
      <trkpt lat="44.8725" lon="0.62034">
        <ele>114.5</ele>
        <time>2021-05-17T12:17:21.000Z</time>
      </trkpt>
      <trkpt lat="44.87254" lon="0.62034">
        <ele>114.7</ele>
        <time>2021-05-17T12:17:22.000Z</time>
      </trkpt>
      <trkpt lat="44.8726" lon="0.62033">
        <ele>114.9</ele>
        <time>2021-05-17T12:17:23.000Z</time>
      </trkpt>
      <trkpt lat="44.87265" lon="0.62033">
        <ele>115</ele>
        <time>2021-05-17T12:17:24.000Z</time>
      </trkpt>
      <trkpt lat="44.8727" lon="0.62033">
        <ele>115.2</ele>
        <time>2021-05-17T12:17:25.000Z</time>
      </trkpt>
      <trkpt lat="44.87276" lon="0.62033">
        <ele>115.5</ele>
        <time>2021-05-17T12:17:26.000Z</time>
      </trkpt>
      <trkpt lat="44.87281" lon="0.62034">
        <ele>115.9</ele>
        <time>2021-05-17T12:17:27.000Z</time>
      </trkpt>
      <trkpt lat="44.87286" lon="0.62036">
        <ele>116.2</ele>
        <time>2021-05-17T12:17:28.000Z</time>
      </trkpt>
      <trkpt lat="44.87289" lon="0.62037">
        <ele>116.4</ele>
        <time>2021-05-17T12:17:29.000Z</time>
      </trkpt>
      <trkpt lat="44.87294" lon="0.62037">
        <ele>116.7</ele>
        <time>2021-05-17T12:17:30.000Z</time>
      </trkpt>
      <trkpt lat="44.87298" lon="0.62037">
        <ele>116.9</ele>
        <time>2021-05-17T12:17:31.000Z</time>
      </trkpt>
      <trkpt lat="44.87301" lon="0.62037">
        <ele>117.1</ele>
        <time>2021-05-17T12:17:32.000Z</time>
      </trkpt>
      <trkpt lat="44.87306" lon="0.62037">
        <ele>117.4</ele>
        <time>2021-05-17T12:17:33.000Z</time>
      </trkpt>
      <trkpt lat="44.87311" lon="0.62036">
        <ele>117.8</ele>
        <time>2021-05-17T12:17:34.000Z</time>
      </trkpt>
      <trkpt lat="44.87316" lon="0.62037">
        <ele>118.1</ele>
        <time>2021-05-17T12:17:35.000Z</time>
      </trkpt>
      <trkpt lat="44.8732" lon="0.62037">
        <ele>118.4</ele>
        <time>2021-05-17T12:17:36.000Z</time>
      </trkpt>
      <trkpt lat="44.87325" lon="0.62038">
        <ele>118.8</ele>
        <time>2021-05-17T12:17:37.000Z</time>
      </trkpt>
      <trkpt lat="44.8733" lon="0.62038">
        <ele>119.1</ele>
        <time>2021-05-17T12:17:38.000Z</time>
      </trkpt>
      <trkpt lat="44.87333" lon="0.62037">
        <ele>119.5</ele>
        <time>2021-05-17T12:17:39.000Z</time>
      </trkpt>
      <trkpt lat="44.87338" lon="0.62037">
        <ele>119.8</ele>
        <time>2021-05-17T12:17:40.000Z</time>
      </trkpt>
      <trkpt lat="44.87342" lon="0.62035">
        <ele>120.2</ele>
        <time>2021-05-17T12:17:41.000Z</time>
      </trkpt>
      <trkpt lat="44.87346" lon="0.62034">
        <ele>120.5</ele>
        <time>2021-05-17T12:17:42.000Z</time>
      </trkpt>
      <trkpt lat="44.87349" lon="0.62034">
        <ele>120.8</ele>
        <time>2021-05-17T12:17:43.000Z</time>
      </trkpt>
      <trkpt lat="44.87354" lon="0.62032">
        <ele>121.1</ele>
        <time>2021-05-17T12:17:44.000Z</time>
      </trkpt>
      <trkpt lat="44.87358" lon="0.62031">
        <ele>121.4</ele>
        <time>2021-05-17T12:17:45.000Z</time>
      </trkpt>
      <trkpt lat="44.87362" lon="0.6203">
        <ele>121.7</ele>
        <time>2021-05-17T12:17:46.000Z</time>
      </trkpt>
      <trkpt lat="44.87366" lon="0.62028">
        <ele>121.9</ele>
        <time>2021-05-17T12:17:47.000Z</time>
      </trkpt>
      <trkpt lat="44.8737" lon="0.62026">
        <ele>122.2</ele>
        <time>2021-05-17T12:17:48.000Z</time>
      </trkpt>
      <trkpt lat="44.87375" lon="0.62024">
        <ele>122.4</ele>
        <time>2021-05-17T12:17:49.000Z</time>
      </trkpt>
      <trkpt lat="44.87379" lon="0.62023">
        <ele>122.6</ele>
        <time>2021-05-17T12:17:50.000Z</time>
      </trkpt>
      <trkpt lat="44.87383" lon="0.62021">
        <ele>122.8</ele>
        <time>2021-05-17T12:17:51.000Z</time>
      </trkpt>
      <trkpt lat="44.87388" lon="0.6202">
        <ele>123</ele>
        <time>2021-05-17T12:17:52.000Z</time>
      </trkpt>
      <trkpt lat="44.87392" lon="0.62019">
        <ele>123.2</ele>
        <time>2021-05-17T12:17:53.000Z</time>
      </trkpt>
      <trkpt lat="44.87397" lon="0.62017">
        <ele>123.4</ele>
        <time>2021-05-17T12:17:54.000Z</time>
      </trkpt>
      <trkpt lat="44.87401" lon="0.62016">
        <ele>123.6</ele>
        <time>2021-05-17T12:17:55.000Z</time>
      </trkpt>
      <trkpt lat="44.87405" lon="0.62015">
        <ele>123.8</ele>
        <time>2021-05-17T12:17:56.000Z</time>
      </trkpt>
      <trkpt lat="44.87409" lon="0.62015">
        <ele>123.9</ele>
        <time>2021-05-17T12:17:57.000Z</time>
      </trkpt>
      <trkpt lat="44.87414" lon="0.62013">
        <ele>124.1</ele>
        <time>2021-05-17T12:17:58.000Z</time>
      </trkpt>
      <trkpt lat="44.87419" lon="0.62012">
        <ele>124.3</ele>
        <time>2021-05-17T12:17:59.000Z</time>
      </trkpt>
      <trkpt lat="44.87423" lon="0.62012">
        <ele>124.5</ele>
        <time>2021-05-17T12:18:00.000Z</time>
      </trkpt>
      <trkpt lat="44.87428" lon="0.62012">
        <ele>124.7</ele>
        <time>2021-05-17T12:18:01.000Z</time>
      </trkpt>
      <trkpt lat="44.87432" lon="0.62011">
        <ele>124.8</ele>
        <time>2021-05-17T12:18:02.000Z</time>
      </trkpt>
      <trkpt lat="44.87437" lon="0.62012">
        <ele>125</ele>
        <time>2021-05-17T12:18:03.000Z</time>
      </trkpt>
      <trkpt lat="44.87442" lon="0.62012">
        <ele>125.2</ele>
        <time>2021-05-17T12:18:04.000Z</time>
      </trkpt>
      <trkpt lat="44.87447" lon="0.62011">
        <ele>125.3</ele>
        <time>2021-05-17T12:18:05.000Z</time>
      </trkpt>
      <trkpt lat="44.87451" lon="0.62011">
        <ele>125.5</ele>
        <time>2021-05-17T12:18:06.000Z</time>
      </trkpt>
      <trkpt lat="44.87456" lon="0.62011">
        <ele>125.6</ele>
        <time>2021-05-17T12:18:07.000Z</time>
      </trkpt>
      <trkpt lat="44.87461" lon="0.6201">
        <ele>125.7</ele>
        <time>2021-05-17T12:18:08.000Z</time>
      </trkpt>
      <trkpt lat="44.87466" lon="0.6201">
        <ele>125.9</ele>
        <time>2021-05-17T12:18:09.000Z</time>
      </trkpt>
      <trkpt lat="44.8747" lon="0.6201">
        <ele>126</ele>
        <time>2021-05-17T12:18:10.000Z</time>
      </trkpt>
      <trkpt lat="44.87475" lon="0.62009">
        <ele>126.1</ele>
        <time>2021-05-17T12:18:11.000Z</time>
      </trkpt>
      <trkpt lat="44.8748" lon="0.62008">
        <ele>126.3</ele>
        <time>2021-05-17T12:18:12.000Z</time>
      </trkpt>
      <trkpt lat="44.87486" lon="0.62008">
        <ele>126.4</ele>
        <time>2021-05-17T12:18:13.000Z</time>
      </trkpt>
      <trkpt lat="44.8749" lon="0.62007">
        <ele>126.6</ele>
        <time>2021-05-17T12:18:14.000Z</time>
      </trkpt>
      <trkpt lat="44.87495" lon="0.62007">
        <ele>126.7</ele>
        <time>2021-05-17T12:18:15.000Z</time>
      </trkpt>
      <trkpt lat="44.875" lon="0.62007">
        <ele>126.9</ele>
        <time>2021-05-17T12:18:16.000Z</time>
      </trkpt>
      <trkpt lat="44.87505" lon="0.62007">
        <ele>127</ele>
        <time>2021-05-17T12:18:17.000Z</time>
      </trkpt>
      <trkpt lat="44.87509" lon="0.62005">
        <ele>127.2</ele>
        <time>2021-05-17T12:18:18.000Z</time>
      </trkpt>
      <trkpt lat="44.87514" lon="0.62004">
        <ele>127.3</ele>
        <time>2021-05-17T12:18:19.000Z</time>
      </trkpt>
      <trkpt lat="44.87518" lon="0.62004">
        <ele>127.5</ele>
        <time>2021-05-17T12:18:20.000Z</time>
      </trkpt>
      <trkpt lat="44.87523" lon="0.62004">
        <ele>127.7</ele>
        <time>2021-05-17T12:18:21.000Z</time>
      </trkpt>
      <trkpt lat="44.87528" lon="0.62004">
        <ele>127.9</ele>
        <time>2021-05-17T12:18:22.000Z</time>
      </trkpt>
      <trkpt lat="44.87532" lon="0.62002">
        <ele>128</ele>
        <time>2021-05-17T12:18:23.000Z</time>
      </trkpt>
      <trkpt lat="44.87536" lon="0.62001">
        <ele>128.2</ele>
        <time>2021-05-17T12:18:24.000Z</time>
      </trkpt>
      <trkpt lat="44.87541" lon="0.61999">
        <ele>128.4</ele>
        <time>2021-05-17T12:18:25.000Z</time>
      </trkpt>
      <trkpt lat="44.87545" lon="0.62">
        <ele>128.5</ele>
        <time>2021-05-17T12:18:26.000Z</time>
      </trkpt>
      <trkpt lat="44.87551" lon="0.61999">
        <ele>128.7</ele>
        <time>2021-05-17T12:18:27.000Z</time>
      </trkpt>
      <trkpt lat="44.87555" lon="0.61997">
        <ele>128.9</ele>
        <time>2021-05-17T12:18:28.000Z</time>
      </trkpt>
      <trkpt lat="44.87559" lon="0.61997">
        <ele>129</ele>
        <time>2021-05-17T12:18:29.000Z</time>
      </trkpt>
      <trkpt lat="44.87564" lon="0.61996">
        <ele>129.2</ele>
        <time>2021-05-17T12:18:30.000Z</time>
      </trkpt>
      <trkpt lat="44.87566" lon="0.61995">
        <ele>129.3</ele>
        <time>2021-05-17T12:18:31.000Z</time>
      </trkpt>
      <trkpt lat="44.87571" lon="0.61995">
        <ele>129.4</ele>
        <time>2021-05-17T12:18:32.000Z</time>
      </trkpt>
      <trkpt lat="44.87575" lon="0.61995">
        <ele>129.6</ele>
        <time>2021-05-17T12:18:33.000Z</time>
      </trkpt>
      <trkpt lat="44.87579" lon="0.61995">
        <ele>129.7</ele>
        <time>2021-05-17T12:18:34.000Z</time>
      </trkpt>
      <trkpt lat="44.87584" lon="0.61994">
        <ele>129.9</ele>
        <time>2021-05-17T12:18:35.000Z</time>
      </trkpt>
      <trkpt lat="44.87587" lon="0.61995">
        <ele>130</ele>
        <time>2021-05-17T12:18:36.000Z</time>
      </trkpt>
      <trkpt lat="44.87591" lon="0.61994">
        <ele>130.1</ele>
        <time>2021-05-17T12:18:37.000Z</time>
      </trkpt>
      <trkpt lat="44.87595" lon="0.61993">
        <ele>130.3</ele>
        <time>2021-05-17T12:18:38.000Z</time>
      </trkpt>
      <trkpt lat="44.876" lon="0.61992">
        <ele>130.5</ele>
        <time>2021-05-17T12:18:39.000Z</time>
      </trkpt>
      <trkpt lat="44.87603" lon="0.61992">
        <ele>130.6</ele>
        <time>2021-05-17T12:18:40.000Z</time>
      </trkpt>
      <trkpt lat="44.87607" lon="0.61993">
        <ele>130.8</ele>
        <time>2021-05-17T12:18:41.000Z</time>
      </trkpt>
      <trkpt lat="44.8761" lon="0.61992">
        <ele>130.9</ele>
        <time>2021-05-17T12:18:42.000Z</time>
      </trkpt>
      <trkpt lat="44.87613" lon="0.61994">
        <ele>131</ele>
        <time>2021-05-17T12:18:43.000Z</time>
      </trkpt>
      <trkpt lat="44.87616" lon="0.61994">
        <ele>131.1</ele>
        <time>2021-05-17T12:18:44.000Z</time>
      </trkpt>
      <trkpt lat="44.87617" lon="0.61993">
        <ele>131.1</ele>
        <time>2021-05-17T12:18:45.000Z</time>
      </trkpt>
      <trkpt lat="44.8762" lon="0.61995">
        <ele>131.2</ele>
        <time>2021-05-17T12:18:46.000Z</time>
      </trkpt>
      <trkpt lat="44.87623" lon="0.61996">
        <ele>131.3</ele>
        <time>2021-05-17T12:18:47.000Z</time>
      </trkpt>
      <trkpt lat="44.87626" lon="0.61999">
        <ele>131.5</ele>
        <time>2021-05-17T12:18:48.000Z</time>
      </trkpt>
      <trkpt lat="44.8763" lon="0.62001">
        <ele>131.5</ele>
        <time>2021-05-17T12:18:49.000Z</time>
      </trkpt>
      <trkpt lat="44.87633" lon="0.62001">
        <ele>131.5</ele>
        <time>2021-05-17T12:18:50.000Z</time>
      </trkpt>
      <trkpt lat="44.87634" lon="0.62002">
        <ele>131.5</ele>
        <time>2021-05-17T12:18:51.000Z</time>
      </trkpt>
      <trkpt lat="44.87638" lon="0.62002">
        <ele>131.6</ele>
        <time>2021-05-17T12:18:52.000Z</time>
      </trkpt>
      <trkpt lat="44.87641" lon="0.62001">
        <ele>131.6</ele>
        <time>2021-05-17T12:18:53.000Z</time>
      </trkpt>
      <trkpt lat="44.87645" lon="0.61999">
        <ele>131.6</ele>
        <time>2021-05-17T12:18:54.000Z</time>
      </trkpt>
      <trkpt lat="44.87648" lon="0.61999">
        <ele>131.6</ele>
        <time>2021-05-17T12:18:55.000Z</time>
      </trkpt>
      <trkpt lat="44.8765" lon="0.61997">
        <ele>131.6</ele>
        <time>2021-05-17T12:18:56.000Z</time>
      </trkpt>
      <trkpt lat="44.87654" lon="0.61996">
        <ele>131.6</ele>
        <time>2021-05-17T12:18:57.000Z</time>
      </trkpt>
      <trkpt lat="44.87657" lon="0.61994">
        <ele>131.7</ele>
        <time>2021-05-17T12:18:58.000Z</time>
      </trkpt>
      <trkpt lat="44.8766" lon="0.61994">
        <ele>131.6</ele>
        <time>2021-05-17T12:18:59.000Z</time>
      </trkpt>
      <trkpt lat="44.87661" lon="0.61993">
        <ele>131.6</ele>
        <time>2021-05-17T12:19:00.000Z</time>
      </trkpt>
      <trkpt lat="44.87663" lon="0.61991">
        <ele>131.6</ele>
        <time>2021-05-17T12:19:01.000Z</time>
      </trkpt>
      <trkpt lat="44.87663" lon="0.61989">
        <ele>131.6</ele>
        <time>2021-05-17T12:19:02.000Z</time>
      </trkpt>
      <trkpt lat="44.87665" lon="0.61986">
        <ele>131.6</ele>
        <time>2021-05-17T12:19:03.000Z</time>
      </trkpt>
      <trkpt lat="44.87666" lon="0.61986">
        <ele>131.5</ele>
        <time>2021-05-17T12:19:04.000Z</time>
      </trkpt>
      <trkpt lat="44.87669" lon="0.61986">
        <ele>131.5</ele>
        <time>2021-05-17T12:19:05.000Z</time>
      </trkpt>
      <trkpt lat="44.87671" lon="0.61989">
        <ele>131.4</ele>
        <time>2021-05-17T12:19:06.000Z</time>
      </trkpt>
      <trkpt lat="44.87674" lon="0.61992">
        <ele>131.3</ele>
        <time>2021-05-17T12:19:07.000Z</time>
      </trkpt>
      <trkpt lat="44.87676" lon="0.61993">
        <ele>131.3</ele>
        <time>2021-05-17T12:19:08.000Z</time>
      </trkpt>
      <trkpt lat="44.87678" lon="0.61993">
        <ele>131.2</ele>
        <time>2021-05-17T12:19:09.000Z</time>
      </trkpt>
      <trkpt lat="44.87681" lon="0.61992">
        <ele>131.2</ele>
        <time>2021-05-17T12:19:10.000Z</time>
      </trkpt>
      <trkpt lat="44.87685" lon="0.61994">
        <ele>131.1</ele>
        <time>2021-05-17T12:19:11.000Z</time>
      </trkpt>
      <trkpt lat="44.87687" lon="0.61995">
        <ele>131.1</ele>
        <time>2021-05-17T12:19:12.000Z</time>
      </trkpt>
      <trkpt lat="44.87689" lon="0.61998">
        <ele>131</ele>
        <time>2021-05-17T12:19:13.000Z</time>
      </trkpt>
      <trkpt lat="44.87692" lon="0.61997">
        <ele>130.9</ele>
        <time>2021-05-17T12:19:14.000Z</time>
      </trkpt>
      <trkpt lat="44.87695" lon="0.61995">
        <ele>130.9</ele>
        <time>2021-05-17T12:19:15.000Z</time>
      </trkpt>
      <trkpt lat="44.87697" lon="0.61993">
        <ele>130.9</ele>
        <time>2021-05-17T12:19:16.000Z</time>
      </trkpt>
      <trkpt lat="44.87698" lon="0.61992">
        <ele>130.8</ele>
        <time>2021-05-17T12:19:17.000Z</time>
      </trkpt>
      <trkpt lat="44.877" lon="0.61987">
        <ele>130.9</ele>
        <time>2021-05-17T12:19:18.000Z</time>
      </trkpt>
      <trkpt lat="44.87702" lon="0.61985">
        <ele>130.9</ele>
        <time>2021-05-17T12:19:19.000Z</time>
      </trkpt>
      <trkpt lat="44.87704" lon="0.61982">
        <ele>130.9</ele>
        <time>2021-05-17T12:19:20.000Z</time>
      </trkpt>
      <trkpt lat="44.87705" lon="0.61977">
        <ele>131</ele>
        <time>2021-05-17T12:19:21.000Z</time>
      </trkpt>
      <trkpt lat="44.87705" lon="0.61976">
        <ele>130.9</ele>
        <time>2021-05-17T12:19:22.000Z</time>
      </trkpt>
      <trkpt lat="44.87706" lon="0.61971">
        <ele>131</ele>
        <time>2021-05-17T12:19:23.000Z</time>
      </trkpt>
      <trkpt lat="44.87707" lon="0.61967">
        <ele>131.1</ele>
        <time>2021-05-17T12:19:24.000Z</time>
      </trkpt>
      <trkpt lat="44.87707" lon="0.61964">
        <ele>131.2</ele>
        <time>2021-05-17T12:19:25.000Z</time>
      </trkpt>
      <trkpt lat="44.87707" lon="0.6196">
        <ele>131.2</ele>
        <time>2021-05-17T12:19:26.000Z</time>
      </trkpt>
      <trkpt lat="44.87708" lon="0.61955">
        <ele>131.3</ele>
        <time>2021-05-17T12:19:27.000Z</time>
      </trkpt>
      <trkpt lat="44.87709" lon="0.61953">
        <ele>131.3</ele>
        <time>2021-05-17T12:19:28.000Z</time>
      </trkpt>
      <trkpt lat="44.87712" lon="0.6195">
        <ele>131.3</ele>
        <time>2021-05-17T12:19:29.000Z</time>
      </trkpt>
      <trkpt lat="44.87713" lon="0.61948">
        <ele>131.4</ele>
        <time>2021-05-17T12:19:30.000Z</time>
      </trkpt>
      <trkpt lat="44.87717" lon="0.61946">
        <ele>131.3</ele>
        <time>2021-05-17T12:19:31.000Z</time>
      </trkpt>
      <trkpt lat="44.87721" lon="0.61944">
        <ele>131.2</ele>
        <time>2021-05-17T12:19:32.000Z</time>
      </trkpt>
      <trkpt lat="44.87723" lon="0.61943">
        <ele>131.1</ele>
        <time>2021-05-17T12:19:33.000Z</time>
      </trkpt>
      <trkpt lat="44.87726" lon="0.61941">
        <ele>131</ele>
        <time>2021-05-17T12:19:34.000Z</time>
      </trkpt>
      <trkpt lat="44.87727" lon="0.6194">
        <ele>131</ele>
        <time>2021-05-17T12:19:35.000Z</time>
      </trkpt>
      <trkpt lat="44.8773" lon="0.61941">
        <ele>130.8</ele>
        <time>2021-05-17T12:19:36.000Z</time>
      </trkpt>
      <trkpt lat="44.87733" lon="0.61941">
        <ele>130.7</ele>
        <time>2021-05-17T12:19:37.000Z</time>
      </trkpt>
      <trkpt lat="44.87736" lon="0.61941">
        <ele>130.6</ele>
        <time>2021-05-17T12:19:38.000Z</time>
      </trkpt>
      <trkpt lat="44.87738" lon="0.6194">
        <ele>130.6</ele>
        <time>2021-05-17T12:19:39.000Z</time>
      </trkpt>
      <trkpt lat="44.87739" lon="0.61941">
        <ele>130.5</ele>
        <time>2021-05-17T12:19:40.000Z</time>
      </trkpt>
      <trkpt lat="44.87741" lon="0.61933">
        <ele>130.3</ele>
        <time>2021-05-17T12:19:41.000Z</time>
      </trkpt>
      <trkpt lat="44.87744" lon="0.61931">
        <ele>130.2</ele>
        <time>2021-05-17T12:19:42.000Z</time>
      </trkpt>
      <trkpt lat="44.87747" lon="0.61931">
        <ele>130.1</ele>
        <time>2021-05-17T12:19:43.000Z</time>
      </trkpt>
      <trkpt lat="44.87752" lon="0.61932">
        <ele>130</ele>
        <time>2021-05-17T12:19:44.000Z</time>
      </trkpt>
      <trkpt lat="44.87752" lon="0.61933">
        <ele>129.9</ele>
        <time>2021-05-17T12:19:45.000Z</time>
      </trkpt>
      <trkpt lat="44.87755" lon="0.61932">
        <ele>129.8</ele>
        <time>2021-05-17T12:19:46.000Z</time>
      </trkpt>
      <trkpt lat="44.87759" lon="0.61931">
        <ele>129.7</ele>
        <time>2021-05-17T12:19:47.000Z</time>
      </trkpt>
      <trkpt lat="44.8776" lon="0.61931">
        <ele>129.6</ele>
        <time>2021-05-17T12:19:48.000Z</time>
      </trkpt>
      <trkpt lat="44.87764" lon="0.61933">
        <ele>129.5</ele>
        <time>2021-05-17T12:19:49.000Z</time>
      </trkpt>
      <trkpt lat="44.87766" lon="0.61935">
        <ele>129.4</ele>
        <time>2021-05-17T12:19:50.000Z</time>
      </trkpt>
      <trkpt lat="44.87771" lon="0.61938">
        <ele>129.2</ele>
        <time>2021-05-17T12:19:51.000Z</time>
      </trkpt>
      <trkpt lat="44.87778" lon="0.61941">
        <ele>129</ele>
        <time>2021-05-17T12:19:52.000Z</time>
      </trkpt>
      <trkpt lat="44.87783" lon="0.61944">
        <ele>128.8</ele>
        <time>2021-05-17T12:19:53.000Z</time>
      </trkpt>
      <trkpt lat="44.87787" lon="0.61946">
        <ele>128.7</ele>
        <time>2021-05-17T12:19:54.000Z</time>
      </trkpt>
      <trkpt lat="44.87792" lon="0.61949">
        <ele>128.6</ele>
        <time>2021-05-17T12:19:55.000Z</time>
      </trkpt>
      <trkpt lat="44.87797" lon="0.61952">
        <ele>128.4</ele>
        <time>2021-05-17T12:19:56.000Z</time>
      </trkpt>
      <trkpt lat="44.87802" lon="0.61956">
        <ele>128.3</ele>
        <time>2021-05-17T12:19:57.000Z</time>
      </trkpt>
      <trkpt lat="44.87807" lon="0.61957">
        <ele>128.1</ele>
        <time>2021-05-17T12:19:58.000Z</time>
      </trkpt>
      <trkpt lat="44.87812" lon="0.61958">
        <ele>128</ele>
        <time>2021-05-17T12:19:59.000Z</time>
      </trkpt>
      <trkpt lat="44.87817" lon="0.61961">
        <ele>127.9</ele>
        <time>2021-05-17T12:20:00.000Z</time>
      </trkpt>
      <trkpt lat="44.87822" lon="0.61963">
        <ele>127.8</ele>
        <time>2021-05-17T12:20:01.000Z</time>
      </trkpt>
      <trkpt lat="44.87829" lon="0.61964">
        <ele>127.7</ele>
        <time>2021-05-17T12:20:02.000Z</time>
      </trkpt>
      <trkpt lat="44.87836" lon="0.61961">
        <ele>127.5</ele>
        <time>2021-05-17T12:20:03.000Z</time>
      </trkpt>
      <trkpt lat="44.87841" lon="0.6196">
        <ele>127.4</ele>
        <time>2021-05-17T12:20:04.000Z</time>
      </trkpt>
      <trkpt lat="44.87849" lon="0.61962">
        <ele>127.3</ele>
        <time>2021-05-17T12:20:05.000Z</time>
      </trkpt>
      <trkpt lat="44.87853" lon="0.61962">
        <ele>127.2</ele>
        <time>2021-05-17T12:20:06.000Z</time>
      </trkpt>
      <trkpt lat="44.87858" lon="0.61963">
        <ele>127.1</ele>
        <time>2021-05-17T12:20:07.000Z</time>
      </trkpt>
      <trkpt lat="44.87864" lon="0.61962">
        <ele>127</ele>
        <time>2021-05-17T12:20:08.000Z</time>
      </trkpt>
      <trkpt lat="44.87869" lon="0.61962">
        <ele>127</ele>
        <time>2021-05-17T12:20:09.000Z</time>
      </trkpt>
      <trkpt lat="44.87873" lon="0.61963">
        <ele>126.9</ele>
        <time>2021-05-17T12:20:10.000Z</time>
      </trkpt>
      <trkpt lat="44.87878" lon="0.61963">
        <ele>126.9</ele>
        <time>2021-05-17T12:20:11.000Z</time>
      </trkpt>
      <trkpt lat="44.87884" lon="0.61963">
        <ele>126.8</ele>
        <time>2021-05-17T12:20:12.000Z</time>
      </trkpt>
      <trkpt lat="44.87892" lon="0.61962">
        <ele>126.7</ele>
        <time>2021-05-17T12:20:13.000Z</time>
      </trkpt>
      <trkpt lat="44.87901" lon="0.61962">
        <ele>126.6</ele>
        <time>2021-05-17T12:20:14.000Z</time>
      </trkpt>
      <trkpt lat="44.87908" lon="0.6196">
        <ele>126.5</ele>
        <time>2021-05-17T12:20:15.000Z</time>
      </trkpt>
      <trkpt lat="44.87916" lon="0.61958">
        <ele>126.5</ele>
        <time>2021-05-17T12:20:16.000Z</time>
      </trkpt>
      <trkpt lat="44.87922" lon="0.61956">
        <ele>126.4</ele>
        <time>2021-05-17T12:20:17.000Z</time>
      </trkpt>
      <trkpt lat="44.8793" lon="0.61956">
        <ele>126.4</ele>
        <time>2021-05-17T12:20:18.000Z</time>
      </trkpt>
      <trkpt lat="44.87937" lon="0.61955">
        <ele>126.3</ele>
        <time>2021-05-17T12:20:19.000Z</time>
      </trkpt>
      <trkpt lat="44.87943" lon="0.61957">
        <ele>126.3</ele>
        <time>2021-05-17T12:20:20.000Z</time>
      </trkpt>
      <trkpt lat="44.87948" lon="0.61957">
        <ele>126.3</ele>
        <time>2021-05-17T12:20:21.000Z</time>
      </trkpt>
      <trkpt lat="44.87956" lon="0.61957">
        <ele>126.4</ele>
        <time>2021-05-17T12:20:22.000Z</time>
      </trkpt>
      <trkpt lat="44.87962" lon="0.61957">
        <ele>126.5</ele>
        <time>2021-05-17T12:20:23.000Z</time>
      </trkpt>
      <trkpt lat="44.87967" lon="0.61958">
        <ele>126.5</ele>
        <time>2021-05-17T12:20:24.000Z</time>
      </trkpt>
      <trkpt lat="44.87974" lon="0.61956">
        <ele>126.5</ele>
        <time>2021-05-17T12:20:25.000Z</time>
      </trkpt>
      <trkpt lat="44.87977" lon="0.61955">
        <ele>126.5</ele>
        <time>2021-05-17T12:20:26.000Z</time>
      </trkpt>
      <trkpt lat="44.87978" lon="0.61953">
        <ele>126.6</ele>
        <time>2021-05-17T12:20:27.000Z</time>
      </trkpt>
      <trkpt lat="44.87978" lon="0.61952">
        <ele>126.7</ele>
        <time>2021-05-17T12:20:28.000Z</time>
      </trkpt>
      <trkpt lat="44.87978" lon="0.61951">
        <ele>126.7</ele>
        <time>2021-05-17T12:20:29.000Z</time>
      </trkpt>
      <trkpt lat="44.87978" lon="0.61949">
        <ele>126.7</ele>
        <time>2021-05-17T12:20:30.000Z</time>
      </trkpt>
      <trkpt lat="44.87976" lon="0.61947">
        <ele>126.7</ele>
        <time>2021-05-17T12:20:31.000Z</time>
      </trkpt>
      <trkpt lat="44.87974" lon="0.61944">
        <ele>126.7</ele>
        <time>2021-05-17T12:20:32.000Z</time>
      </trkpt>
      <trkpt lat="44.87972" lon="0.61941">
        <ele>126.7</ele>
        <time>2021-05-17T12:20:33.000Z</time>
      </trkpt>
      <trkpt lat="44.87971" lon="0.61936">
        <ele>126.7</ele>
        <time>2021-05-17T12:20:34.000Z</time>
      </trkpt>
      <trkpt lat="44.87971" lon="0.61934">
        <ele>126.8</ele>
        <time>2021-05-17T12:20:35.000Z</time>
      </trkpt>
      <trkpt lat="44.87968" lon="0.6193">
        <ele>126.8</ele>
        <time>2021-05-17T12:20:36.000Z</time>
      </trkpt>
      <trkpt lat="44.87964" lon="0.61925">
        <ele>126.8</ele>
        <time>2021-05-17T12:20:37.000Z</time>
      </trkpt>
      <trkpt lat="44.8796" lon="0.61921">
        <ele>126.8</ele>
        <time>2021-05-17T12:20:38.000Z</time>
      </trkpt>
      <trkpt lat="44.87959" lon="0.61917">
        <ele>126.8</ele>
        <time>2021-05-17T12:20:39.000Z</time>
      </trkpt>
      <trkpt lat="44.87956" lon="0.61914">
        <ele>126.8</ele>
        <time>2021-05-17T12:20:40.000Z</time>
      </trkpt>
      <trkpt lat="44.87953" lon="0.6191">
        <ele>126.8</ele>
        <time>2021-05-17T12:20:41.000Z</time>
      </trkpt>
      <trkpt lat="44.87951" lon="0.61906">
        <ele>126.8</ele>
        <time>2021-05-17T12:20:42.000Z</time>
      </trkpt>
      <trkpt lat="44.87948" lon="0.61901">
        <ele>126.9</ele>
        <time>2021-05-17T12:20:43.000Z</time>
      </trkpt>
      <trkpt lat="44.87946" lon="0.61896">
        <ele>126.9</ele>
        <time>2021-05-17T12:20:44.000Z</time>
      </trkpt>
      <trkpt lat="44.87942" lon="0.61891">
        <ele>126.9</ele>
        <time>2021-05-17T12:20:45.000Z</time>
      </trkpt>
      <trkpt lat="44.87939" lon="0.61886">
        <ele>126.9</ele>
        <time>2021-05-17T12:20:46.000Z</time>
      </trkpt>
      <trkpt lat="44.87936" lon="0.61881">
        <ele>126.8</ele>
        <time>2021-05-17T12:20:47.000Z</time>
      </trkpt>
      <trkpt lat="44.87934" lon="0.61875">
        <ele>126.9</ele>
        <time>2021-05-17T12:20:48.000Z</time>
      </trkpt>
      <trkpt lat="44.87931" lon="0.61871">
        <ele>126.9</ele>
        <time>2021-05-17T12:20:49.000Z</time>
      </trkpt>
      <trkpt lat="44.87929" lon="0.61866">
        <ele>126.9</ele>
        <time>2021-05-17T12:20:50.000Z</time>
      </trkpt>
      <trkpt lat="44.87925" lon="0.6186">
        <ele>126.9</ele>
        <time>2021-05-17T12:20:51.000Z</time>
      </trkpt>
      <trkpt lat="44.87921" lon="0.61855">
        <ele>126.8</ele>
        <time>2021-05-17T12:20:52.000Z</time>
      </trkpt>
      <trkpt lat="44.87918" lon="0.6185">
        <ele>126.8</ele>
        <time>2021-05-17T12:20:53.000Z</time>
      </trkpt>
      <trkpt lat="44.87915" lon="0.61845">
        <ele>126.9</ele>
        <time>2021-05-17T12:20:54.000Z</time>
      </trkpt>
      <trkpt lat="44.87913" lon="0.61844">
        <ele>126.9</ele>
        <time>2021-05-17T12:20:55.000Z</time>
      </trkpt>
      <trkpt lat="44.87911" lon="0.61839">
        <ele>126.9</ele>
        <time>2021-05-17T12:20:56.000Z</time>
      </trkpt>
      <trkpt lat="44.87909" lon="0.61834">
        <ele>127</ele>
        <time>2021-05-17T12:20:57.000Z</time>
      </trkpt>
      <trkpt lat="44.87909" lon="0.6183">
        <ele>127.1</ele>
        <time>2021-05-17T12:20:58.000Z</time>
      </trkpt>
      <trkpt lat="44.8791" lon="0.61828">
        <ele>127.2</ele>
        <time>2021-05-17T12:20:59.000Z</time>
      </trkpt>
      <trkpt lat="44.87911" lon="0.6182">
        <ele>127.3</ele>
        <time>2021-05-17T12:21:00.000Z</time>
      </trkpt>
      <trkpt lat="44.87912" lon="0.61816">
        <ele>127.3</ele>
        <time>2021-05-17T12:21:01.000Z</time>
      </trkpt>
      <trkpt lat="44.87912" lon="0.61811">
        <ele>127.4</ele>
        <time>2021-05-17T12:21:02.000Z</time>
      </trkpt>
      <trkpt lat="44.87914" lon="0.61806">
        <ele>127.6</ele>
        <time>2021-05-17T12:21:03.000Z</time>
      </trkpt>
      <trkpt lat="44.87916" lon="0.618">
        <ele>127.6</ele>
        <time>2021-05-17T12:21:04.000Z</time>
      </trkpt>
      <trkpt lat="44.87917" lon="0.61796">
        <ele>127.7</ele>
        <time>2021-05-17T12:21:05.000Z</time>
      </trkpt>
      <trkpt lat="44.87918" lon="0.6179">
        <ele>127.8</ele>
        <time>2021-05-17T12:21:06.000Z</time>
      </trkpt>
      <trkpt lat="44.87919" lon="0.61784">
        <ele>127.9</ele>
        <time>2021-05-17T12:21:07.000Z</time>
      </trkpt>
      <trkpt lat="44.87921" lon="0.6178">
        <ele>127.9</ele>
        <time>2021-05-17T12:21:08.000Z</time>
      </trkpt>
      <trkpt lat="44.87922" lon="0.61776">
        <ele>127.9</ele>
        <time>2021-05-17T12:21:09.000Z</time>
      </trkpt>
      <trkpt lat="44.87922" lon="0.61772">
        <ele>127.9</ele>
        <time>2021-05-17T12:21:10.000Z</time>
      </trkpt>
      <trkpt lat="44.87922" lon="0.61768">
        <ele>128</ele>
        <time>2021-05-17T12:21:11.000Z</time>
      </trkpt>
      <trkpt lat="44.87922" lon="0.61766">
        <ele>128</ele>
        <time>2021-05-17T12:21:12.000Z</time>
      </trkpt>
      <trkpt lat="44.87921" lon="0.61762">
        <ele>128</ele>
        <time>2021-05-17T12:21:13.000Z</time>
      </trkpt>
      <trkpt lat="44.87921" lon="0.61761">
        <ele>128</ele>
        <time>2021-05-17T12:21:14.000Z</time>
      </trkpt>
      <trkpt lat="44.87921" lon="0.61755">
        <ele>128</ele>
        <time>2021-05-17T12:21:15.000Z</time>
      </trkpt>
      <trkpt lat="44.87921" lon="0.61753">
        <ele>128</ele>
        <time>2021-05-17T12:21:16.000Z</time>
      </trkpt>
      <trkpt lat="44.87921" lon="0.61748">
        <ele>128</ele>
        <time>2021-05-17T12:21:17.000Z</time>
      </trkpt>
      <trkpt lat="44.87923" lon="0.61742">
        <ele>127.9</ele>
        <time>2021-05-17T12:21:18.000Z</time>
      </trkpt>
      <trkpt lat="44.87923" lon="0.61738">
        <ele>127.7</ele>
        <time>2021-05-17T12:21:19.000Z</time>
      </trkpt>
      <trkpt lat="44.87922" lon="0.61733">
        <ele>127.9</ele>
        <time>2021-05-17T12:21:20.000Z</time>
      </trkpt>
      <trkpt lat="44.87921" lon="0.61732">
        <ele>127.9</ele>
        <time>2021-05-17T12:21:21.000Z</time>
      </trkpt>
      <trkpt lat="44.87918" lon="0.61729">
        <ele>128.1</ele>
        <time>2021-05-17T12:21:22.000Z</time>
      </trkpt>
      <trkpt lat="44.87915" lon="0.61727">
        <ele>128.2</ele>
        <time>2021-05-17T12:21:23.000Z</time>
      </trkpt>
      <trkpt lat="44.87912" lon="0.61725">
        <ele>128.4</ele>
        <time>2021-05-17T12:21:24.000Z</time>
      </trkpt>
      <trkpt lat="44.87912" lon="0.61724">
        <ele>128.4</ele>
        <time>2021-05-17T12:21:25.000Z</time>
      </trkpt>
      <trkpt lat="44.87912" lon="0.6172">
        <ele>128.4</ele>
        <time>2021-05-17T12:21:26.000Z</time>
      </trkpt>
      <trkpt lat="44.87913" lon="0.61718">
        <ele>128.4</ele>
        <time>2021-05-17T12:21:27.000Z</time>
      </trkpt>
      <trkpt lat="44.87914" lon="0.61716">
        <ele>128.4</ele>
        <time>2021-05-17T12:21:28.000Z</time>
      </trkpt>
      <trkpt lat="44.87914" lon="0.61715">
        <ele>128.3</ele>
        <time>2021-05-17T12:21:29.000Z</time>
      </trkpt>
      <trkpt lat="44.87918" lon="0.61711">
        <ele>128.1</ele>
        <time>2021-05-17T12:21:30.000Z</time>
      </trkpt>
      <trkpt lat="44.87919" lon="0.61709">
        <ele>128.1</ele>
        <time>2021-05-17T12:21:31.000Z</time>
      </trkpt>
      <trkpt lat="44.87922" lon="0.61707">
        <ele>128</ele>
        <time>2021-05-17T12:21:32.000Z</time>
      </trkpt>
      <trkpt lat="44.87926" lon="0.61705">
        <ele>127.7</ele>
        <time>2021-05-17T12:21:33.000Z</time>
      </trkpt>
      <trkpt lat="44.87929" lon="0.61702">
        <ele>127.5</ele>
        <time>2021-05-17T12:21:34.000Z</time>
      </trkpt>
      <trkpt lat="44.87931" lon="0.61697">
        <ele>127.3</ele>
        <time>2021-05-17T12:21:35.000Z</time>
      </trkpt>
      <trkpt lat="44.87933" lon="0.61693">
        <ele>127.1</ele>
        <time>2021-05-17T12:21:36.000Z</time>
      </trkpt>
      <trkpt lat="44.87933" lon="0.61687">
        <ele>127.1</ele>
        <time>2021-05-17T12:21:37.000Z</time>
      </trkpt>
      <trkpt lat="44.87934" lon="0.6168">
        <ele>127</ele>
        <time>2021-05-17T12:21:38.000Z</time>
      </trkpt>
      <trkpt lat="44.87934" lon="0.61675">
        <ele>127</ele>
        <time>2021-05-17T12:21:39.000Z</time>
      </trkpt>
      <trkpt lat="44.87934" lon="0.61671">
        <ele>126.9</ele>
        <time>2021-05-17T12:21:40.000Z</time>
      </trkpt>
      <trkpt lat="44.87935" lon="0.61667">
        <ele>126.9</ele>
        <time>2021-05-17T12:21:41.000Z</time>
      </trkpt>
      <trkpt lat="44.87936" lon="0.61662">
        <ele>126.7</ele>
        <time>2021-05-17T12:21:42.000Z</time>
      </trkpt>
      <trkpt lat="44.87936" lon="0.61661">
        <ele>126.7</ele>
        <time>2021-05-17T12:21:43.000Z</time>
      </trkpt>
      <trkpt lat="44.87938" lon="0.61656">
        <ele>126.5</ele>
        <time>2021-05-17T12:21:44.000Z</time>
      </trkpt>
      <trkpt lat="44.87939" lon="0.61655">
        <ele>126.5</ele>
        <time>2021-05-17T12:21:45.000Z</time>
      </trkpt>
      <trkpt lat="44.8794" lon="0.6165">
        <ele>126.5</ele>
        <time>2021-05-17T12:21:46.000Z</time>
      </trkpt>
      <trkpt lat="44.87939" lon="0.61647">
        <ele>126.5</ele>
        <time>2021-05-17T12:21:47.000Z</time>
      </trkpt>
      <trkpt lat="44.8794" lon="0.61641">
        <ele>126.5</ele>
        <time>2021-05-17T12:21:48.000Z</time>
      </trkpt>
      <trkpt lat="44.8794" lon="0.61636">
        <ele>126.5</ele>
        <time>2021-05-17T12:21:49.000Z</time>
      </trkpt>
      <trkpt lat="44.8794" lon="0.61631">
        <ele>126.4</ele>
        <time>2021-05-17T12:21:50.000Z</time>
      </trkpt>
      <trkpt lat="44.87941" lon="0.61626">
        <ele>126.3</ele>
        <time>2021-05-17T12:21:51.000Z</time>
      </trkpt>
      <trkpt lat="44.87943" lon="0.61622">
        <ele>126.3</ele>
        <time>2021-05-17T12:21:52.000Z</time>
      </trkpt>
      <trkpt lat="44.87946" lon="0.61617">
        <ele>126.2</ele>
        <time>2021-05-17T12:21:53.000Z</time>
      </trkpt>
      <trkpt lat="44.87949" lon="0.61612">
        <ele>126.1</ele>
        <time>2021-05-17T12:21:54.000Z</time>
      </trkpt>
      <trkpt lat="44.87953" lon="0.61609">
        <ele>126</ele>
        <time>2021-05-17T12:21:55.000Z</time>
      </trkpt>
      <trkpt lat="44.87955" lon="0.61605">
        <ele>125.9</ele>
        <time>2021-05-17T12:21:56.000Z</time>
      </trkpt>
      <trkpt lat="44.87955" lon="0.61603">
        <ele>125.9</ele>
        <time>2021-05-17T12:21:57.000Z</time>
      </trkpt>
      <trkpt lat="44.87955" lon="0.61601">
        <ele>126</ele>
        <time>2021-05-17T12:21:58.000Z</time>
      </trkpt>
      <trkpt lat="44.87955" lon="0.61598">
        <ele>125.9</ele>
        <time>2021-05-17T12:21:59.000Z</time>
      </trkpt>
      <trkpt lat="44.87953" lon="0.61592">
        <ele>125.9</ele>
        <time>2021-05-17T12:22:00.000Z</time>
      </trkpt>
      <trkpt lat="44.87953" lon="0.6159">
        <ele>126</ele>
        <time>2021-05-17T12:22:01.000Z</time>
      </trkpt>
      <trkpt lat="44.87951" lon="0.61585">
        <ele>126</ele>
        <time>2021-05-17T12:22:02.000Z</time>
      </trkpt>
      <trkpt lat="44.87948" lon="0.61581">
        <ele>126.1</ele>
        <time>2021-05-17T12:22:03.000Z</time>
      </trkpt>
      <trkpt lat="44.87945" lon="0.61577">
        <ele>126.2</ele>
        <time>2021-05-17T12:22:04.000Z</time>
      </trkpt>
      <trkpt lat="44.87941" lon="0.61574">
        <ele>126.4</ele>
        <time>2021-05-17T12:22:05.000Z</time>
      </trkpt>
      <trkpt lat="44.87938" lon="0.61571">
        <ele>126.6</ele>
        <time>2021-05-17T12:22:06.000Z</time>
      </trkpt>
      <trkpt lat="44.87935" lon="0.61567">
        <ele>126.8</ele>
        <time>2021-05-17T12:22:07.000Z</time>
      </trkpt>
      <trkpt lat="44.87931" lon="0.61564">
        <ele>126.9</ele>
        <time>2021-05-17T12:22:08.000Z</time>
      </trkpt>
      <trkpt lat="44.87927" lon="0.61562">
        <ele>127</ele>
        <time>2021-05-17T12:22:09.000Z</time>
      </trkpt>
      <trkpt lat="44.87923" lon="0.6156">
        <ele>127.2</ele>
        <time>2021-05-17T12:22:10.000Z</time>
      </trkpt>
      <trkpt lat="44.87918" lon="0.61558">
        <ele>127.5</ele>
        <time>2021-05-17T12:22:11.000Z</time>
      </trkpt>
      <trkpt lat="44.87915" lon="0.61558">
        <ele>127.6</ele>
        <time>2021-05-17T12:22:12.000Z</time>
      </trkpt>
      <trkpt lat="44.87912" lon="0.61558">
        <ele>127.7</ele>
        <time>2021-05-17T12:22:13.000Z</time>
      </trkpt>
      <trkpt lat="44.87908" lon="0.61558">
        <ele>127.8</ele>
        <time>2021-05-17T12:22:14.000Z</time>
      </trkpt>
      <trkpt lat="44.87906" lon="0.61559">
        <ele>127.9</ele>
        <time>2021-05-17T12:22:15.000Z</time>
      </trkpt>
      <trkpt lat="44.87905" lon="0.6156">
        <ele>128</ele>
        <time>2021-05-17T12:22:16.000Z</time>
      </trkpt>
      <trkpt lat="44.879" lon="0.61561">
        <ele>128.1</ele>
        <time>2021-05-17T12:22:17.000Z</time>
      </trkpt>
      <trkpt lat="44.87896" lon="0.6156">
        <ele>128.2</ele>
        <time>2021-05-17T12:22:18.000Z</time>
      </trkpt>
      <trkpt lat="44.87892" lon="0.61562">
        <ele>128.3</ele>
        <time>2021-05-17T12:22:19.000Z</time>
      </trkpt>
      <trkpt lat="44.87887" lon="0.61564">
        <ele>128.3</ele>
        <time>2021-05-17T12:22:20.000Z</time>
      </trkpt>
      <trkpt lat="44.87883" lon="0.61567">
        <ele>128.4</ele>
        <time>2021-05-17T12:22:21.000Z</time>
      </trkpt>
      <trkpt lat="44.87878" lon="0.61567">
        <ele>128.5</ele>
        <time>2021-05-17T12:22:22.000Z</time>
      </trkpt>
      <trkpt lat="44.87875" lon="0.61568">
        <ele>128.6</ele>
        <time>2021-05-17T12:22:23.000Z</time>
      </trkpt>
      <trkpt lat="44.87872" lon="0.6157">
        <ele>128.6</ele>
        <time>2021-05-17T12:22:24.000Z</time>
      </trkpt>
      <trkpt lat="44.8787" lon="0.61571">
        <ele>128.6</ele>
        <time>2021-05-17T12:22:25.000Z</time>
      </trkpt>
      <trkpt lat="44.87866" lon="0.61573">
        <ele>128.7</ele>
        <time>2021-05-17T12:22:26.000Z</time>
      </trkpt>
      <trkpt lat="44.87863" lon="0.61577">
        <ele>128.7</ele>
        <time>2021-05-17T12:22:27.000Z</time>
      </trkpt>
      <trkpt lat="44.8786" lon="0.6158">
        <ele>128.7</ele>
        <time>2021-05-17T12:22:28.000Z</time>
      </trkpt>
      <trkpt lat="44.87857" lon="0.61582">
        <ele>128.7</ele>
        <time>2021-05-17T12:22:29.000Z</time>
      </trkpt>
      <trkpt lat="44.87852" lon="0.61584">
        <ele>128.8</ele>
        <time>2021-05-17T12:22:30.000Z</time>
      </trkpt>
      <trkpt lat="44.87849" lon="0.61585">
        <ele>128.8</ele>
        <time>2021-05-17T12:22:31.000Z</time>
      </trkpt>
      <trkpt lat="44.87848" lon="0.61585">
        <ele>128.8</ele>
        <time>2021-05-17T12:22:32.000Z</time>
      </trkpt>
      <trkpt lat="44.87845" lon="0.61586">
        <ele>128.9</ele>
        <time>2021-05-17T12:22:33.000Z</time>
      </trkpt>
      <trkpt lat="44.87842" lon="0.61587">
        <ele>128.9</ele>
        <time>2021-05-17T12:22:34.000Z</time>
      </trkpt>
      <trkpt lat="44.87837" lon="0.61587">
        <ele>129</ele>
        <time>2021-05-17T12:22:35.000Z</time>
      </trkpt>
      <trkpt lat="44.87832" lon="0.61585">
        <ele>129</ele>
        <time>2021-05-17T12:22:36.000Z</time>
      </trkpt>
      <trkpt lat="44.87828" lon="0.61582">
        <ele>129.1</ele>
        <time>2021-05-17T12:22:37.000Z</time>
      </trkpt>
      <trkpt lat="44.87824" lon="0.61577">
        <ele>129.1</ele>
        <time>2021-05-17T12:22:38.000Z</time>
      </trkpt>
      <trkpt lat="44.8782" lon="0.61572">
        <ele>129.2</ele>
        <time>2021-05-17T12:22:39.000Z</time>
      </trkpt>
      <trkpt lat="44.87817" lon="0.61567">
        <ele>129</ele>
        <time>2021-05-17T12:22:40.000Z</time>
      </trkpt>
      <trkpt lat="44.87813" lon="0.61561">
        <ele>128.8</ele>
        <time>2021-05-17T12:22:41.000Z</time>
      </trkpt>
      <trkpt lat="44.8781" lon="0.61554">
        <ele>128.6</ele>
        <time>2021-05-17T12:22:42.000Z</time>
      </trkpt>
      <trkpt lat="44.87808" lon="0.61548">
        <ele>128.4</ele>
        <time>2021-05-17T12:22:43.000Z</time>
      </trkpt>
      <trkpt lat="44.87805" lon="0.61541">
        <ele>128.2</ele>
        <time>2021-05-17T12:22:44.000Z</time>
      </trkpt>
      <trkpt lat="44.87803" lon="0.61534">
        <ele>128.1</ele>
        <time>2021-05-17T12:22:45.000Z</time>
      </trkpt>
      <trkpt lat="44.87801" lon="0.61527">
        <ele>127.9</ele>
        <time>2021-05-17T12:22:46.000Z</time>
      </trkpt>
      <trkpt lat="44.87799" lon="0.6152">
        <ele>127.7</ele>
        <time>2021-05-17T12:22:47.000Z</time>
      </trkpt>
      <trkpt lat="44.87796" lon="0.61512">
        <ele>127.5</ele>
        <time>2021-05-17T12:22:48.000Z</time>
      </trkpt>
      <trkpt lat="44.87794" lon="0.61505">
        <ele>127.3</ele>
        <time>2021-05-17T12:22:49.000Z</time>
      </trkpt>
      <trkpt lat="44.87792" lon="0.61498">
        <ele>127.2</ele>
        <time>2021-05-17T12:22:50.000Z</time>
      </trkpt>
      <trkpt lat="44.8779" lon="0.61491">
        <ele>127</ele>
        <time>2021-05-17T12:22:51.000Z</time>
      </trkpt>
      <trkpt lat="44.87788" lon="0.61484">
        <ele>126.9</ele>
        <time>2021-05-17T12:22:52.000Z</time>
      </trkpt>
      <trkpt lat="44.87785" lon="0.61477">
        <ele>126.7</ele>
        <time>2021-05-17T12:22:53.000Z</time>
      </trkpt>
      <trkpt lat="44.87784" lon="0.6147">
        <ele>126.5</ele>
        <time>2021-05-17T12:22:54.000Z</time>
      </trkpt>
      <trkpt lat="44.87783" lon="0.61464">
        <ele>126.4</ele>
        <time>2021-05-17T12:22:55.000Z</time>
      </trkpt>
      <trkpt lat="44.87781" lon="0.61456">
        <ele>126.3</ele>
        <time>2021-05-17T12:22:56.000Z</time>
      </trkpt>
      <trkpt lat="44.87778" lon="0.6145">
        <ele>126.1</ele>
        <time>2021-05-17T12:22:57.000Z</time>
      </trkpt>
      <trkpt lat="44.87776" lon="0.61443">
        <ele>126</ele>
        <time>2021-05-17T12:22:58.000Z</time>
      </trkpt>
      <trkpt lat="44.87773" lon="0.61435">
        <ele>125.8</ele>
        <time>2021-05-17T12:22:59.000Z</time>
      </trkpt>
      <trkpt lat="44.8777" lon="0.61427">
        <ele>125.6</ele>
        <time>2021-05-17T12:23:00.000Z</time>
      </trkpt>
      <trkpt lat="44.87768" lon="0.6142">
        <ele>125.5</ele>
        <time>2021-05-17T12:23:01.000Z</time>
      </trkpt>
      <trkpt lat="44.87766" lon="0.61413">
        <ele>125.4</ele>
        <time>2021-05-17T12:23:02.000Z</time>
      </trkpt>
      <trkpt lat="44.87763" lon="0.61406">
        <ele>125.2</ele>
        <time>2021-05-17T12:23:03.000Z</time>
      </trkpt>
      <trkpt lat="44.87761" lon="0.61398">
        <ele>125.1</ele>
        <time>2021-05-17T12:23:04.000Z</time>
      </trkpt>
      <trkpt lat="44.87758" lon="0.6139">
        <ele>125</ele>
        <time>2021-05-17T12:23:05.000Z</time>
      </trkpt>
      <trkpt lat="44.87755" lon="0.61383">
        <ele>124.8</ele>
        <time>2021-05-17T12:23:06.000Z</time>
      </trkpt>
      <trkpt lat="44.87752" lon="0.61376">
        <ele>124.7</ele>
        <time>2021-05-17T12:23:07.000Z</time>
      </trkpt>
      <trkpt lat="44.8775" lon="0.61369">
        <ele>124.6</ele>
        <time>2021-05-17T12:23:08.000Z</time>
      </trkpt>
      <trkpt lat="44.87749" lon="0.61362">
        <ele>124.5</ele>
        <time>2021-05-17T12:23:09.000Z</time>
      </trkpt>
      <trkpt lat="44.87747" lon="0.61356">
        <ele>124.4</ele>
        <time>2021-05-17T12:23:10.000Z</time>
      </trkpt>
      <trkpt lat="44.87744" lon="0.6135">
        <ele>124.4</ele>
        <time>2021-05-17T12:23:11.000Z</time>
      </trkpt>
      <trkpt lat="44.87742" lon="0.61343">
        <ele>124.3</ele>
        <time>2021-05-17T12:23:12.000Z</time>
      </trkpt>
      <trkpt lat="44.8774" lon="0.61337">
        <ele>124.2</ele>
        <time>2021-05-17T12:23:13.000Z</time>
      </trkpt>
      <trkpt lat="44.87738" lon="0.61329">
        <ele>124.2</ele>
        <time>2021-05-17T12:23:14.000Z</time>
      </trkpt>
      <trkpt lat="44.87738" lon="0.6132">
        <ele>124.2</ele>
        <time>2021-05-17T12:23:15.000Z</time>
      </trkpt>
      <trkpt lat="44.87737" lon="0.61314">
        <ele>124.1</ele>
        <time>2021-05-17T12:23:16.000Z</time>
      </trkpt>
      <trkpt lat="44.87736" lon="0.61306">
        <ele>124.1</ele>
        <time>2021-05-17T12:23:17.000Z</time>
      </trkpt>
      <trkpt lat="44.87734" lon="0.61299">
        <ele>124</ele>
        <time>2021-05-17T12:23:18.000Z</time>
      </trkpt>
      <trkpt lat="44.87733" lon="0.61292">
        <ele>124</ele>
        <time>2021-05-17T12:23:19.000Z</time>
      </trkpt>
      <trkpt lat="44.87732" lon="0.61286">
        <ele>123.9</ele>
        <time>2021-05-17T12:23:20.000Z</time>
      </trkpt>
      <trkpt lat="44.87731" lon="0.6128">
        <ele>123.9</ele>
        <time>2021-05-17T12:23:21.000Z</time>
      </trkpt>
      <trkpt lat="44.87729" lon="0.61275">
        <ele>123.9</ele>
        <time>2021-05-17T12:23:22.000Z</time>
      </trkpt>
      <trkpt lat="44.87728" lon="0.61269">
        <ele>123.8</ele>
        <time>2021-05-17T12:23:23.000Z</time>
      </trkpt>
      <trkpt lat="44.87727" lon="0.61264">
        <ele>123.8</ele>
        <time>2021-05-17T12:23:24.000Z</time>
      </trkpt>
      <trkpt lat="44.87727" lon="0.61259">
        <ele>123.7</ele>
        <time>2021-05-17T12:23:25.000Z</time>
      </trkpt>
      <trkpt lat="44.87729" lon="0.61255">
        <ele>123.5</ele>
        <time>2021-05-17T12:23:26.000Z</time>
      </trkpt>
      <trkpt lat="44.87732" lon="0.61253">
        <ele>123.2</ele>
        <time>2021-05-17T12:23:27.000Z</time>
      </trkpt>
      <trkpt lat="44.87735" lon="0.6125">
        <ele>123.1</ele>
        <time>2021-05-17T12:23:28.000Z</time>
      </trkpt>
      <trkpt lat="44.87738" lon="0.61248">
        <ele>122.8</ele>
        <time>2021-05-17T12:23:29.000Z</time>
      </trkpt>
      <trkpt lat="44.87738" lon="0.61243">
        <ele>122.6</ele>
        <time>2021-05-17T12:23:30.000Z</time>
      </trkpt>
      <trkpt lat="44.87739" lon="0.61237">
        <ele>122.4</ele>
        <time>2021-05-17T12:23:31.000Z</time>
      </trkpt>
      <trkpt lat="44.87739" lon="0.61234">
        <ele>122.2</ele>
        <time>2021-05-17T12:23:32.000Z</time>
      </trkpt>
      <trkpt lat="44.87739" lon="0.6123">
        <ele>122</ele>
        <time>2021-05-17T12:23:33.000Z</time>
      </trkpt>
      <trkpt lat="44.8774" lon="0.61224">
        <ele>121.8</ele>
        <time>2021-05-17T12:23:34.000Z</time>
      </trkpt>
      <trkpt lat="44.8774" lon="0.61222">
        <ele>121.6</ele>
        <time>2021-05-17T12:23:35.000Z</time>
      </trkpt>
      <trkpt lat="44.87742" lon="0.61217">
        <ele>121.4</ele>
        <time>2021-05-17T12:23:36.000Z</time>
      </trkpt>
      <trkpt lat="44.87743" lon="0.61214">
        <ele>121.2</ele>
        <time>2021-05-17T12:23:37.000Z</time>
      </trkpt>
      <trkpt lat="44.87745" lon="0.61211">
        <ele>121.1</ele>
        <time>2021-05-17T12:23:38.000Z</time>
      </trkpt>
      <trkpt lat="44.87747" lon="0.61208">
        <ele>120.9</ele>
        <time>2021-05-17T12:23:39.000Z</time>
      </trkpt>
      <trkpt lat="44.87746" lon="0.61204">
        <ele>120.7</ele>
        <time>2021-05-17T12:23:40.000Z</time>
      </trkpt>
      <trkpt lat="44.87746" lon="0.61203">
        <ele>120.7</ele>
        <time>2021-05-17T12:23:41.000Z</time>
      </trkpt>
      <trkpt lat="44.87745" lon="0.61202">
        <ele>120.7</ele>
        <time>2021-05-17T12:23:42.000Z</time>
      </trkpt>
      <trkpt lat="44.87743" lon="0.612">
        <ele>120.5</ele>
        <time>2021-05-17T12:23:43.000Z</time>
      </trkpt>
      <trkpt lat="44.87741" lon="0.61199">
        <ele>120.5</ele>
        <time>2021-05-17T12:23:44.000Z</time>
      </trkpt>
      <trkpt lat="44.8774" lon="0.61198">
        <ele>120.6</ele>
        <time>2021-05-17T12:23:45.000Z</time>
      </trkpt>
      <trkpt lat="44.87737" lon="0.61195">
        <ele>120.4</ele>
        <time>2021-05-17T12:23:46.000Z</time>
      </trkpt>
      <trkpt lat="44.87736" lon="0.61193">
        <ele>120.4</ele>
        <time>2021-05-17T12:23:47.000Z</time>
      </trkpt>
      <trkpt lat="44.87735" lon="0.61189">
        <ele>119.9</ele>
        <time>2021-05-17T12:23:48.000Z</time>
      </trkpt>
      <trkpt lat="44.87735" lon="0.61187">
        <ele>119.9</ele>
        <time>2021-05-17T12:23:49.000Z</time>
      </trkpt>
      <trkpt lat="44.87734" lon="0.61183">
        <ele>119.7</ele>
        <time>2021-05-17T12:23:50.000Z</time>
      </trkpt>
      <trkpt lat="44.87734" lon="0.61178">
        <ele>119.6</ele>
        <time>2021-05-17T12:23:51.000Z</time>
      </trkpt>
      <trkpt lat="44.87733" lon="0.61176">
        <ele>119.4</ele>
        <time>2021-05-17T12:23:52.000Z</time>
      </trkpt>
      <trkpt lat="44.87735" lon="0.6117">
        <ele>119.2</ele>
        <time>2021-05-17T12:23:53.000Z</time>
      </trkpt>
      <trkpt lat="44.87735" lon="0.61167">
        <ele>119.1</ele>
        <time>2021-05-17T12:23:54.000Z</time>
      </trkpt>
      <trkpt lat="44.87736" lon="0.61163">
        <ele>118.9</ele>
        <time>2021-05-17T12:23:55.000Z</time>
      </trkpt>
      <trkpt lat="44.87737" lon="0.61158">
        <ele>118.8</ele>
        <time>2021-05-17T12:23:56.000Z</time>
      </trkpt>
      <trkpt lat="44.87739" lon="0.61153">
        <ele>118.7</ele>
        <time>2021-05-17T12:23:57.000Z</time>
      </trkpt>
      <trkpt lat="44.87742" lon="0.61149">
        <ele>118.6</ele>
        <time>2021-05-17T12:23:58.000Z</time>
      </trkpt>
      <trkpt lat="44.87743" lon="0.61144">
        <ele>118.6</ele>
        <time>2021-05-17T12:23:59.000Z</time>
      </trkpt>
      <trkpt lat="44.87744" lon="0.61142">
        <ele>118.6</ele>
        <time>2021-05-17T12:24:00.000Z</time>
      </trkpt>
      <trkpt lat="44.87744" lon="0.61139">
        <ele>118.5</ele>
        <time>2021-05-17T12:24:01.000Z</time>
      </trkpt>
      <trkpt lat="44.87744" lon="0.61137">
        <ele>118.4</ele>
        <time>2021-05-17T12:24:02.000Z</time>
      </trkpt>
      <trkpt lat="44.87743" lon="0.61135">
        <ele>118.4</ele>
        <time>2021-05-17T12:24:03.000Z</time>
      </trkpt>
      <trkpt lat="44.87743" lon="0.61132">
        <ele>118.4</ele>
        <time>2021-05-17T12:24:04.000Z</time>
      </trkpt>
      <trkpt lat="44.87742" lon="0.6113">
        <ele>118.4</ele>
        <time>2021-05-17T12:24:05.000Z</time>
      </trkpt>
      <trkpt lat="44.87742" lon="0.61126">
        <ele>118.3</ele>
        <time>2021-05-17T12:24:06.000Z</time>
      </trkpt>
      <trkpt lat="44.87742" lon="0.61121">
        <ele>118.2</ele>
        <time>2021-05-17T12:24:07.000Z</time>
      </trkpt>
      <trkpt lat="44.87742" lon="0.61117">
        <ele>118.1</ele>
        <time>2021-05-17T12:24:08.000Z</time>
      </trkpt>
      <trkpt lat="44.87745" lon="0.61115">
        <ele>118.1</ele>
        <time>2021-05-17T12:24:09.000Z</time>
      </trkpt>
      <trkpt lat="44.8775" lon="0.61111">
        <ele>118</ele>
        <time>2021-05-17T12:24:10.000Z</time>
      </trkpt>
      <trkpt lat="44.87754" lon="0.61108">
        <ele>118</ele>
        <time>2021-05-17T12:24:11.000Z</time>
      </trkpt>
      <trkpt lat="44.87758" lon="0.61106">
        <ele>118</ele>
        <time>2021-05-17T12:24:12.000Z</time>
      </trkpt>
      <trkpt lat="44.87762" lon="0.61105">
        <ele>118</ele>
        <time>2021-05-17T12:24:13.000Z</time>
      </trkpt>
      <trkpt lat="44.87765" lon="0.61103">
        <ele>118</ele>
        <time>2021-05-17T12:24:14.000Z</time>
      </trkpt>
      <trkpt lat="44.87768" lon="0.61101">
        <ele>118</ele>
        <time>2021-05-17T12:24:15.000Z</time>
      </trkpt>
      <trkpt lat="44.8777" lon="0.61101">
        <ele>118</ele>
        <time>2021-05-17T12:24:16.000Z</time>
      </trkpt>
      <trkpt lat="44.87773" lon="0.61101">
        <ele>118</ele>
        <time>2021-05-17T12:24:17.000Z</time>
      </trkpt>
      <trkpt lat="44.87774" lon="0.61102">
        <ele>118</ele>
        <time>2021-05-17T12:24:18.000Z</time>
      </trkpt>
      <trkpt lat="44.87775" lon="0.61102">
        <ele>118.1</ele>
        <time>2021-05-17T12:24:19.000Z</time>
      </trkpt>
      <trkpt lat="44.87776" lon="0.61104">
        <ele>118.2</ele>
        <time>2021-05-17T12:24:20.000Z</time>
      </trkpt>
      <trkpt lat="44.87778" lon="0.61108">
        <ele>118.3</ele>
        <time>2021-05-17T12:24:21.000Z</time>
      </trkpt>
      <trkpt lat="44.87778" lon="0.61109">
        <ele>118.3</ele>
        <time>2021-05-17T12:24:22.000Z</time>
      </trkpt>
      <trkpt lat="44.87778" lon="0.61114">
        <ele>118.5</ele>
        <time>2021-05-17T12:24:23.000Z</time>
      </trkpt>
      <trkpt lat="44.87777" lon="0.61116">
        <ele>118.5</ele>
        <time>2021-05-17T12:24:24.000Z</time>
      </trkpt>
      <trkpt lat="44.87778" lon="0.6112">
        <ele>118.6</ele>
        <time>2021-05-17T12:24:25.000Z</time>
      </trkpt>
      <trkpt lat="44.87778" lon="0.61121">
        <ele>118.7</ele>
        <time>2021-05-17T12:24:26.000Z</time>
      </trkpt>
      <trkpt lat="44.87777" lon="0.61125">
        <ele>118.8</ele>
        <time>2021-05-17T12:24:27.000Z</time>
      </trkpt>
      <trkpt lat="44.87778" lon="0.61126">
        <ele>118.8</ele>
        <time>2021-05-17T12:24:28.000Z</time>
      </trkpt>
      <trkpt lat="44.87778" lon="0.61129">
        <ele>118.8</ele>
        <time>2021-05-17T12:24:29.000Z</time>
      </trkpt>
      <trkpt lat="44.87779" lon="0.6113">
        <ele>118.8</ele>
        <time>2021-05-17T12:24:30.000Z</time>
      </trkpt>
      <trkpt lat="44.87779" lon="0.61132">
        <ele>118.8</ele>
        <time>2021-05-17T12:24:31.000Z</time>
      </trkpt>
      <trkpt lat="44.87778" lon="0.61135">
        <ele>118.9</ele>
        <time>2021-05-17T12:24:32.000Z</time>
      </trkpt>
      <trkpt lat="44.87777" lon="0.61137">
        <ele>118.9</ele>
        <time>2021-05-17T12:24:33.000Z</time>
      </trkpt>
      <trkpt lat="44.87777" lon="0.61142">
        <ele>119.1</ele>
        <time>2021-05-17T12:24:34.000Z</time>
      </trkpt>
      <trkpt lat="44.87777" lon="0.61144">
        <ele>119.1</ele>
        <time>2021-05-17T12:24:35.000Z</time>
      </trkpt>
      <trkpt lat="44.87777" lon="0.61148">
        <ele>119.2</ele>
        <time>2021-05-17T12:24:36.000Z</time>
      </trkpt>
      <trkpt lat="44.87775" lon="0.61152">
        <ele>119.2</ele>
        <time>2021-05-17T12:24:37.000Z</time>
      </trkpt>
      <trkpt lat="44.87775" lon="0.61156">
        <ele>119.3</ele>
        <time>2021-05-17T12:24:38.000Z</time>
      </trkpt>
      <trkpt lat="44.87776" lon="0.61157">
        <ele>119.3</ele>
        <time>2021-05-17T12:24:39.000Z</time>
      </trkpt>
      <trkpt lat="44.87777" lon="0.61158">
        <ele>119.4</ele>
        <time>2021-05-17T12:24:40.000Z</time>
      </trkpt>
      <trkpt lat="44.87779" lon="0.61162">
        <ele>119.5</ele>
        <time>2021-05-17T12:24:41.000Z</time>
      </trkpt>
      <trkpt lat="44.87781" lon="0.61167">
        <ele>119.7</ele>
        <time>2021-05-17T12:24:42.000Z</time>
      </trkpt>
      <trkpt lat="44.87781" lon="0.61168">
        <ele>119.8</ele>
        <time>2021-05-17T12:24:43.000Z</time>
      </trkpt>
      <trkpt lat="44.87783" lon="0.61168">
        <ele>119.8</ele>
        <time>2021-05-17T12:24:44.000Z</time>
      </trkpt>
      <trkpt lat="44.87785" lon="0.61167">
        <ele>119.8</ele>
        <time>2021-05-17T12:24:45.000Z</time>
      </trkpt>
      <trkpt lat="44.87786" lon="0.61167">
        <ele>119.7</ele>
        <time>2021-05-17T12:24:46.000Z</time>
      </trkpt>
      <trkpt lat="44.87789" lon="0.61167">
        <ele>119.8</ele>
        <time>2021-05-17T12:24:47.000Z</time>
      </trkpt>
      <trkpt lat="44.8779" lon="0.61168">
        <ele>119.9</ele>
        <time>2021-05-17T12:24:48.000Z</time>
      </trkpt>
      <trkpt lat="44.87793" lon="0.61167">
        <ele>119.8</ele>
        <time>2021-05-17T12:24:49.000Z</time>
      </trkpt>
      <trkpt lat="44.87794" lon="0.61166">
        <ele>119.8</ele>
        <time>2021-05-17T12:24:50.000Z</time>
      </trkpt>
      <trkpt lat="44.87797" lon="0.61166">
        <ele>119.9</ele>
        <time>2021-05-17T12:24:51.000Z</time>
      </trkpt>
      <trkpt lat="44.878" lon="0.61163">
        <ele>119.9</ele>
        <time>2021-05-17T12:24:52.000Z</time>
      </trkpt>
      <trkpt lat="44.87803" lon="0.61163">
        <ele>119.9</ele>
        <time>2021-05-17T12:24:53.000Z</time>
      </trkpt>
      <trkpt lat="44.87805" lon="0.61163">
        <ele>120</ele>
        <time>2021-05-17T12:24:54.000Z</time>
      </trkpt>
      <trkpt lat="44.87806" lon="0.61165">
        <ele>120.1</ele>
        <time>2021-05-17T12:24:55.000Z</time>
      </trkpt>
      <trkpt lat="44.87808" lon="0.61167">
        <ele>120.3</ele>
        <time>2021-05-17T12:24:56.000Z</time>
      </trkpt>
      <trkpt lat="44.87809" lon="0.61168">
        <ele>120.3</ele>
        <time>2021-05-17T12:24:57.000Z</time>
      </trkpt>
      <trkpt lat="44.87812" lon="0.61171">
        <ele>120.4</ele>
        <time>2021-05-17T12:24:58.000Z</time>
      </trkpt>
      <trkpt lat="44.87813" lon="0.61171">
        <ele>120.5</ele>
        <time>2021-05-17T12:24:59.000Z</time>
      </trkpt>
      <trkpt lat="44.87816" lon="0.61173">
        <ele>120.6</ele>
        <time>2021-05-17T12:25:00.000Z</time>
      </trkpt>
      <trkpt lat="44.87819" lon="0.61174">
        <ele>120.7</ele>
        <time>2021-05-17T12:25:01.000Z</time>
      </trkpt>
      <trkpt lat="44.8782" lon="0.61173">
        <ele>120.8</ele>
        <time>2021-05-17T12:25:02.000Z</time>
      </trkpt>
      <trkpt lat="44.87823" lon="0.61173">
        <ele>120.8</ele>
        <time>2021-05-17T12:25:03.000Z</time>
      </trkpt>
      <trkpt lat="44.87825" lon="0.61173">
        <ele>120.8</ele>
        <time>2021-05-17T12:25:04.000Z</time>
      </trkpt>
      <trkpt lat="44.87829" lon="0.61173">
        <ele>121</ele>
        <time>2021-05-17T12:25:05.000Z</time>
      </trkpt>
      <trkpt lat="44.8783" lon="0.61172">
        <ele>121</ele>
        <time>2021-05-17T12:25:06.000Z</time>
      </trkpt>
      <trkpt lat="44.87833" lon="0.61172">
        <ele>121.1</ele>
        <time>2021-05-17T12:25:07.000Z</time>
      </trkpt>
      <trkpt lat="44.87835" lon="0.61173">
        <ele>121.1</ele>
        <time>2021-05-17T12:25:08.000Z</time>
      </trkpt>
      <trkpt lat="44.87836" lon="0.61174">
        <ele>121.2</ele>
        <time>2021-05-17T12:25:09.000Z</time>
      </trkpt>
      <trkpt lat="44.87836" lon="0.61175">
        <ele>121.2</ele>
        <time>2021-05-17T12:25:10.000Z</time>
      </trkpt>
      <trkpt lat="44.87837" lon="0.61175">
        <ele>121.2</ele>
        <time>2021-05-17T12:25:11.000Z</time>
      </trkpt>
      <trkpt lat="44.87839" lon="0.61175">
        <ele>121.4</ele>
        <time>2021-05-17T12:25:12.000Z</time>
      </trkpt>
      <trkpt lat="44.87841" lon="0.61174">
        <ele>121.4</ele>
        <time>2021-05-17T12:25:13.000Z</time>
      </trkpt>
      <trkpt lat="44.87841" lon="0.61173">
        <ele>121.5</ele>
        <time>2021-05-17T12:25:14.000Z</time>
      </trkpt>
      <trkpt lat="44.8784" lon="0.61168">
        <ele>121.3</ele>
        <time>2021-05-17T12:25:15.000Z</time>
      </trkpt>
      <trkpt lat="44.8784" lon="0.61166">
        <ele>121.2</ele>
        <time>2021-05-17T12:25:16.000Z</time>
      </trkpt>
      <trkpt lat="44.87841" lon="0.6116">
        <ele>121.1</ele>
        <time>2021-05-17T12:25:17.000Z</time>
      </trkpt>
      <trkpt lat="44.87841" lon="0.61155">
        <ele>121</ele>
        <time>2021-05-17T12:25:18.000Z</time>
      </trkpt>
      <trkpt lat="44.87841" lon="0.61153">
        <ele>120.9</ele>
        <time>2021-05-17T12:25:19.000Z</time>
      </trkpt>
      <trkpt lat="44.87842" lon="0.61152">
        <ele>121</ele>
        <time>2021-05-17T12:25:20.000Z</time>
      </trkpt>
      <trkpt lat="44.87843" lon="0.6115">
        <ele>120.9</ele>
        <time>2021-05-17T12:25:21.000Z</time>
      </trkpt>
      <trkpt lat="44.87844" lon="0.61148">
        <ele>120.9</ele>
        <time>2021-05-17T12:25:22.000Z</time>
      </trkpt>
      <trkpt lat="44.87846" lon="0.61146">
        <ele>121.1</ele>
        <time>2021-05-17T12:25:23.000Z</time>
      </trkpt>
      <trkpt lat="44.87849" lon="0.61144">
        <ele>121.2</ele>
        <time>2021-05-17T12:25:24.000Z</time>
      </trkpt>
      <trkpt lat="44.8785" lon="0.61144">
        <ele>121.3</ele>
        <time>2021-05-17T12:25:25.000Z</time>
      </trkpt>
      <trkpt lat="44.87852" lon="0.61141">
        <ele>121.2</ele>
        <time>2021-05-17T12:25:26.000Z</time>
      </trkpt>
      <trkpt lat="44.87853" lon="0.6114">
        <ele>121.2</ele>
        <time>2021-05-17T12:25:27.000Z</time>
      </trkpt>
      <trkpt lat="44.87853" lon="0.61139">
        <ele>121.4</ele>
        <time>2021-05-17T12:25:28.000Z</time>
      </trkpt>
      <trkpt lat="44.87854" lon="0.61138">
        <ele>121.4</ele>
        <time>2021-05-17T12:25:29.000Z</time>
      </trkpt>
      <trkpt lat="44.87854" lon="0.61138">
        <ele>121.4</ele>
        <time>2021-05-17T12:25:30.000Z</time>
      </trkpt>
      <trkpt lat="44.87855" lon="0.61138">
        <ele>121.4</ele>
        <time>2021-05-17T12:25:31.000Z</time>
      </trkpt>
      <trkpt lat="44.87855" lon="0.61137">
        <ele>121.3</ele>
        <time>2021-05-17T12:25:32.000Z</time>
      </trkpt>
      <trkpt lat="44.87855" lon="0.61136">
        <ele>121.3</ele>
        <time>2021-05-17T12:25:33.000Z</time>
      </trkpt>
      <trkpt lat="44.87856" lon="0.61136">
        <ele>121.3</ele>
        <time>2021-05-17T12:25:34.000Z</time>
      </trkpt>
      <trkpt lat="44.87856" lon="0.61137">
        <ele>121.5</ele>
        <time>2021-05-17T12:25:35.000Z</time>
      </trkpt>
      <trkpt lat="44.87856" lon="0.61138">
        <ele>121.6</ele>
        <time>2021-05-17T12:25:36.000Z</time>
      </trkpt>
      <trkpt lat="44.87856" lon="0.6114">
        <ele>121.4</ele>
        <time>2021-05-17T12:25:37.000Z</time>
      </trkpt>
      <trkpt lat="44.87856" lon="0.61143">
        <ele>121.7</ele>
        <time>2021-05-17T12:25:38.000Z</time>
      </trkpt>
      <trkpt lat="44.87856" lon="0.61149">
        <ele>121.8</ele>
        <time>2021-05-17T12:25:39.000Z</time>
      </trkpt>
      <trkpt lat="44.87857" lon="0.61154">
        <ele>121.9</ele>
        <time>2021-05-17T12:25:40.000Z</time>
      </trkpt>
      <trkpt lat="44.87857" lon="0.61154">
        <ele>122</ele>
        <time>2021-05-17T12:25:41.000Z</time>
      </trkpt>
      <trkpt lat="44.87858" lon="0.61155">
        <ele>122</ele>
        <time>2021-05-17T12:25:42.000Z</time>
      </trkpt>
      <trkpt lat="44.87859" lon="0.61158">
        <ele>122.2</ele>
        <time>2021-05-17T12:25:43.000Z</time>
      </trkpt>
      <trkpt lat="44.87863" lon="0.61159">
        <ele>122.4</ele>
        <time>2021-05-17T12:25:44.000Z</time>
      </trkpt>
      <trkpt lat="44.87864" lon="0.61159">
        <ele>122.4</ele>
        <time>2021-05-17T12:25:45.000Z</time>
      </trkpt>
      <trkpt lat="44.87865" lon="0.61158">
        <ele>122.6</ele>
        <time>2021-05-17T12:25:46.000Z</time>
      </trkpt>
      <trkpt lat="44.87866" lon="0.61157">
        <ele>122.6</ele>
        <time>2021-05-17T12:25:47.000Z</time>
      </trkpt>
      <trkpt lat="44.87869" lon="0.61154">
        <ele>122.6</ele>
        <time>2021-05-17T12:25:48.000Z</time>
      </trkpt>
      <trkpt lat="44.8787" lon="0.61153">
        <ele>122.6</ele>
        <time>2021-05-17T12:25:49.000Z</time>
      </trkpt>
      <trkpt lat="44.87873" lon="0.61152">
        <ele>122.8</ele>
        <time>2021-05-17T12:25:50.000Z</time>
      </trkpt>
      <trkpt lat="44.87875" lon="0.61152">
        <ele>122.9</ele>
        <time>2021-05-17T12:25:51.000Z</time>
      </trkpt>
      <trkpt lat="44.87875" lon="0.61152">
        <ele>122.9</ele>
        <time>2021-05-17T12:25:52.000Z</time>
      </trkpt>
      <trkpt lat="44.87877" lon="0.61152">
        <ele>122.9</ele>
        <time>2021-05-17T12:25:53.000Z</time>
      </trkpt>
      <trkpt lat="44.87878" lon="0.61152">
        <ele>123.1</ele>
        <time>2021-05-17T12:25:54.000Z</time>
      </trkpt>
      <trkpt lat="44.8788" lon="0.61152">
        <ele>123.1</ele>
        <time>2021-05-17T12:25:55.000Z</time>
      </trkpt>
      <trkpt lat="44.87881" lon="0.61153">
        <ele>123.2</ele>
        <time>2021-05-17T12:25:56.000Z</time>
      </trkpt>
      <trkpt lat="44.87882" lon="0.61154">
        <ele>123.2</ele>
        <time>2021-05-17T12:25:57.000Z</time>
      </trkpt>
      <trkpt lat="44.87883" lon="0.61154">
        <ele>123.2</ele>
        <time>2021-05-17T12:25:58.000Z</time>
      </trkpt>
      <trkpt lat="44.87882" lon="0.61156">
        <ele>123.3</ele>
        <time>2021-05-17T12:25:59.000Z</time>
      </trkpt>
      <trkpt lat="44.87883" lon="0.61161">
        <ele>123.4</ele>
        <time>2021-05-17T12:26:00.000Z</time>
      </trkpt>
      <trkpt lat="44.87884" lon="0.61163">
        <ele>123.5</ele>
        <time>2021-05-17T12:26:01.000Z</time>
      </trkpt>
      <trkpt lat="44.87886" lon="0.61166">
        <ele>123.5</ele>
        <time>2021-05-17T12:26:02.000Z</time>
      </trkpt>
      <trkpt lat="44.87887" lon="0.61167">
        <ele>123.6</ele>
        <time>2021-05-17T12:26:03.000Z</time>
      </trkpt>
      <trkpt lat="44.87891" lon="0.61166">
        <ele>123.7</ele>
        <time>2021-05-17T12:26:04.000Z</time>
      </trkpt>
      <trkpt lat="44.87893" lon="0.61166">
        <ele>123.7</ele>
        <time>2021-05-17T12:26:05.000Z</time>
      </trkpt>
      <trkpt lat="44.87895" lon="0.61164">
        <ele>123.7</ele>
        <time>2021-05-17T12:26:06.000Z</time>
      </trkpt>
      <trkpt lat="44.87896" lon="0.61163">
        <ele>123.6</ele>
        <time>2021-05-17T12:26:07.000Z</time>
      </trkpt>
      <trkpt lat="44.87899" lon="0.61162">
        <ele>123.6</ele>
        <time>2021-05-17T12:26:08.000Z</time>
      </trkpt>
      <trkpt lat="44.879" lon="0.61162">
        <ele>123.6</ele>
        <time>2021-05-17T12:26:09.000Z</time>
      </trkpt>
      <trkpt lat="44.87903" lon="0.61163">
        <ele>123.7</ele>
        <time>2021-05-17T12:26:10.000Z</time>
      </trkpt>
      <trkpt lat="44.87906" lon="0.61165">
        <ele>123.7</ele>
        <time>2021-05-17T12:26:11.000Z</time>
      </trkpt>
      <trkpt lat="44.8791" lon="0.61164">
        <ele>123.7</ele>
        <time>2021-05-17T12:26:12.000Z</time>
      </trkpt>
      <trkpt lat="44.87911" lon="0.61165">
        <ele>123.7</ele>
        <time>2021-05-17T12:26:13.000Z</time>
      </trkpt>
      <trkpt lat="44.87914" lon="0.61164">
        <ele>123.7</ele>
        <time>2021-05-17T12:26:14.000Z</time>
      </trkpt>
      <trkpt lat="44.87915" lon="0.61164">
        <ele>123.7</ele>
        <time>2021-05-17T12:26:15.000Z</time>
      </trkpt>
      <trkpt lat="44.87919" lon="0.61162">
        <ele>123.5</ele>
        <time>2021-05-17T12:26:16.000Z</time>
      </trkpt>
      <trkpt lat="44.87921" lon="0.61162">
        <ele>123.5</ele>
        <time>2021-05-17T12:26:17.000Z</time>
      </trkpt>
      <trkpt lat="44.87922" lon="0.61161">
        <ele>123.5</ele>
        <time>2021-05-17T12:26:18.000Z</time>
      </trkpt>
      <trkpt lat="44.87923" lon="0.61159">
        <ele>123.4</ele>
        <time>2021-05-17T12:26:19.000Z</time>
      </trkpt>
      <trkpt lat="44.87925" lon="0.61158">
        <ele>123.3</ele>
        <time>2021-05-17T12:26:20.000Z</time>
      </trkpt>
      <trkpt lat="44.87926" lon="0.61157">
        <ele>123.2</ele>
        <time>2021-05-17T12:26:21.000Z</time>
      </trkpt>
      <trkpt lat="44.87927" lon="0.61156">
        <ele>123.2</ele>
        <time>2021-05-17T12:26:22.000Z</time>
      </trkpt>
      <trkpt lat="44.87927" lon="0.61154">
        <ele>123.1</ele>
        <time>2021-05-17T12:26:23.000Z</time>
      </trkpt>
      <trkpt lat="44.87926" lon="0.61152">
        <ele>123.1</ele>
        <time>2021-05-17T12:26:24.000Z</time>
      </trkpt>
      <trkpt lat="44.87926" lon="0.61151">
        <ele>123.1</ele>
        <time>2021-05-17T12:26:25.000Z</time>
      </trkpt>
      <trkpt lat="44.87923" lon="0.61148">
        <ele>123</ele>
        <time>2021-05-17T12:26:26.000Z</time>
      </trkpt>
      <trkpt lat="44.87922" lon="0.61148">
        <ele>123.1</ele>
        <time>2021-05-17T12:26:27.000Z</time>
      </trkpt>
      <trkpt lat="44.8792" lon="0.61145">
        <ele>123</ele>
        <time>2021-05-17T12:26:28.000Z</time>
      </trkpt>
      <trkpt lat="44.87918" lon="0.61141">
        <ele>122.9</ele>
        <time>2021-05-17T12:26:29.000Z</time>
      </trkpt>
      <trkpt lat="44.87918" lon="0.6114">
        <ele>122.9</ele>
        <time>2021-05-17T12:26:30.000Z</time>
      </trkpt>
      <trkpt lat="44.87916" lon="0.61139">
        <ele>123</ele>
        <time>2021-05-17T12:26:31.000Z</time>
      </trkpt>
      <trkpt lat="44.87915" lon="0.61137">
        <ele>122.8</ele>
        <time>2021-05-17T12:26:32.000Z</time>
      </trkpt>
      <trkpt lat="44.87913" lon="0.61134">
        <ele>122.9</ele>
        <time>2021-05-17T12:26:33.000Z</time>
      </trkpt>
      <trkpt lat="44.87912" lon="0.61133">
        <ele>122.9</ele>
        <time>2021-05-17T12:26:34.000Z</time>
      </trkpt>
      <trkpt lat="44.87911" lon="0.61132">
        <ele>122.7</ele>
        <time>2021-05-17T12:26:35.000Z</time>
      </trkpt>
      <trkpt lat="44.8791" lon="0.61131">
        <ele>122.8</ele>
        <time>2021-05-17T12:26:36.000Z</time>
      </trkpt>
      <trkpt lat="44.87909" lon="0.61129">
        <ele>122.8</ele>
        <time>2021-05-17T12:26:37.000Z</time>
      </trkpt>
      <trkpt lat="44.87908" lon="0.61127">
        <ele>122.6</ele>
        <time>2021-05-17T12:26:38.000Z</time>
      </trkpt>
      <trkpt lat="44.87907" lon="0.61126">
        <ele>122.6</ele>
        <time>2021-05-17T12:26:39.000Z</time>
      </trkpt>
      <trkpt lat="44.87906" lon="0.61126">
        <ele>122.6</ele>
        <time>2021-05-17T12:26:40.000Z</time>
      </trkpt>
      <trkpt lat="44.87906" lon="0.61126">
        <ele>122.6</ele>
        <time>2021-05-17T12:26:41.000Z</time>
      </trkpt>
      <trkpt lat="44.87905" lon="0.61126">
        <ele>122.6</ele>
        <time>2021-05-17T12:26:42.000Z</time>
      </trkpt>
      <trkpt lat="44.87904" lon="0.61125">
        <ele>122.7</ele>
        <time>2021-05-17T12:26:43.000Z</time>
      </trkpt>
      <trkpt lat="44.87903" lon="0.61124">
        <ele>122.5</ele>
        <time>2021-05-17T12:26:44.000Z</time>
      </trkpt>
      <trkpt lat="44.87902" lon="0.61124">
        <ele>122.5</ele>
        <time>2021-05-17T12:26:45.000Z</time>
      </trkpt>
      <trkpt lat="44.87902" lon="0.61123">
        <ele>122.5</ele>
        <time>2021-05-17T12:26:46.000Z</time>
      </trkpt>
      <trkpt lat="44.87901" lon="0.61121">
        <ele>122.5</ele>
        <time>2021-05-17T12:26:47.000Z</time>
      </trkpt>
      <trkpt lat="44.87901" lon="0.6112">
        <ele>122.4</ele>
        <time>2021-05-17T12:26:48.000Z</time>
      </trkpt>
      <trkpt lat="44.879" lon="0.61118">
        <ele>122.4</ele>
        <time>2021-05-17T12:26:49.000Z</time>
      </trkpt>
      <trkpt lat="44.87898" lon="0.61116">
        <ele>122.4</ele>
        <time>2021-05-17T12:26:50.000Z</time>
      </trkpt>
      <trkpt lat="44.87897" lon="0.61114">
        <ele>122.2</ele>
        <time>2021-05-17T12:26:51.000Z</time>
      </trkpt>
      <trkpt lat="44.87897" lon="0.61113">
        <ele>122.2</ele>
        <time>2021-05-17T12:26:52.000Z</time>
      </trkpt>
      <trkpt lat="44.87896" lon="0.61111">
        <ele>122.1</ele>
        <time>2021-05-17T12:26:53.000Z</time>
      </trkpt>
      <trkpt lat="44.87896" lon="0.61109">
        <ele>122.1</ele>
        <time>2021-05-17T12:26:54.000Z</time>
      </trkpt>
      <trkpt lat="44.87896" lon="0.61108">
        <ele>122.1</ele>
        <time>2021-05-17T12:26:55.000Z</time>
      </trkpt>
      <trkpt lat="44.87895" lon="0.61108">
        <ele>122</ele>
        <time>2021-05-17T12:26:56.000Z</time>
      </trkpt>
      <trkpt lat="44.87893" lon="0.61106">
        <ele>121.9</ele>
        <time>2021-05-17T12:26:57.000Z</time>
      </trkpt>
      <trkpt lat="44.8789" lon="0.61107">
        <ele>121.9</ele>
        <time>2021-05-17T12:26:58.000Z</time>
      </trkpt>
      <trkpt lat="44.87889" lon="0.61108">
        <ele>122</ele>
        <time>2021-05-17T12:26:59.000Z</time>
      </trkpt>
      <trkpt lat="44.87886" lon="0.61111">
        <ele>122</ele>
        <time>2021-05-17T12:27:00.000Z</time>
      </trkpt>
      <trkpt lat="44.87886" lon="0.61112">
        <ele>122.1</ele>
        <time>2021-05-17T12:27:01.000Z</time>
      </trkpt>
      <trkpt lat="44.87884" lon="0.61115">
        <ele>122.1</ele>
        <time>2021-05-17T12:27:02.000Z</time>
      </trkpt>
      <trkpt lat="44.87883" lon="0.61115">
        <ele>122</ele>
        <time>2021-05-17T12:27:03.000Z</time>
      </trkpt>
      <trkpt lat="44.87881" lon="0.61113">
        <ele>122</ele>
        <time>2021-05-17T12:27:04.000Z</time>
      </trkpt>
      <trkpt lat="44.8788" lon="0.61113">
        <ele>121.9</ele>
        <time>2021-05-17T12:27:05.000Z</time>
      </trkpt>
      <trkpt lat="44.87878" lon="0.6111">
        <ele>121.8</ele>
        <time>2021-05-17T12:27:06.000Z</time>
      </trkpt>
      <trkpt lat="44.87878" lon="0.61109">
        <ele>121.8</ele>
        <time>2021-05-17T12:27:07.000Z</time>
      </trkpt>
      <trkpt lat="44.87878" lon="0.61108">
        <ele>121.8</ele>
        <time>2021-05-17T12:27:08.000Z</time>
      </trkpt>
      <trkpt lat="44.87877" lon="0.61103">
        <ele>121.7</ele>
        <time>2021-05-17T12:27:09.000Z</time>
      </trkpt>
      <trkpt lat="44.87877" lon="0.61102">
        <ele>121.5</ele>
        <time>2021-05-17T12:27:10.000Z</time>
      </trkpt>
      <trkpt lat="44.87876" lon="0.61101">
        <ele>121.5</ele>
        <time>2021-05-17T12:27:11.000Z</time>
      </trkpt>
      <trkpt lat="44.87874" lon="0.611">
        <ele>121.5</ele>
        <time>2021-05-17T12:27:12.000Z</time>
      </trkpt>
      <trkpt lat="44.87873" lon="0.611">
        <ele>121.4</ele>
        <time>2021-05-17T12:27:13.000Z</time>
      </trkpt>
      <trkpt lat="44.87872" lon="0.611">
        <ele>121.4</ele>
        <time>2021-05-17T12:27:14.000Z</time>
      </trkpt>
      <trkpt lat="44.8787" lon="0.611">
        <ele>121.2</ele>
        <time>2021-05-17T12:27:15.000Z</time>
      </trkpt>
      <trkpt lat="44.87869" lon="0.61101">
        <ele>121.2</ele>
        <time>2021-05-17T12:27:16.000Z</time>
      </trkpt>
      <trkpt lat="44.87868" lon="0.61101">
        <ele>121.1</ele>
        <time>2021-05-17T12:27:17.000Z</time>
      </trkpt>
      <trkpt lat="44.87866" lon="0.61101">
        <ele>121.1</ele>
        <time>2021-05-17T12:27:18.000Z</time>
      </trkpt>
      <trkpt lat="44.87865" lon="0.611">
        <ele>121.1</ele>
        <time>2021-05-17T12:27:19.000Z</time>
      </trkpt>
      <trkpt lat="44.87865" lon="0.61099">
        <ele>121</ele>
        <time>2021-05-17T12:27:20.000Z</time>
      </trkpt>
      <trkpt lat="44.87864" lon="0.61099">
        <ele>121</ele>
        <time>2021-05-17T12:27:21.000Z</time>
      </trkpt>
      <trkpt lat="44.87863" lon="0.61095">
        <ele>120.9</ele>
        <time>2021-05-17T12:27:22.000Z</time>
      </trkpt>
      <trkpt lat="44.87863" lon="0.6109">
        <ele>120.8</ele>
        <time>2021-05-17T12:27:23.000Z</time>
      </trkpt>
      <trkpt lat="44.87862" lon="0.6109">
        <ele>120.6</ele>
        <time>2021-05-17T12:27:24.000Z</time>
      </trkpt>
      <trkpt lat="44.87861" lon="0.61088">
        <ele>120.6</ele>
        <time>2021-05-17T12:27:25.000Z</time>
      </trkpt>
      <trkpt lat="44.8786" lon="0.61087">
        <ele>120.6</ele>
        <time>2021-05-17T12:27:26.000Z</time>
      </trkpt>
      <trkpt lat="44.87859" lon="0.61086">
        <ele>120.5</ele>
        <time>2021-05-17T12:27:27.000Z</time>
      </trkpt>
      <trkpt lat="44.87857" lon="0.61084">
        <ele>120.3</ele>
        <time>2021-05-17T12:27:28.000Z</time>
      </trkpt>
      <trkpt lat="44.87855" lon="0.61081">
        <ele>120.1</ele>
        <time>2021-05-17T12:27:29.000Z</time>
      </trkpt>
      <trkpt lat="44.87854" lon="0.6108">
        <ele>120.1</ele>
        <time>2021-05-17T12:27:30.000Z</time>
      </trkpt>
      <trkpt lat="44.87852" lon="0.61077">
        <ele>119.9</ele>
        <time>2021-05-17T12:27:31.000Z</time>
      </trkpt>
      <trkpt lat="44.87851" lon="0.61076">
        <ele>119.9</ele>
        <time>2021-05-17T12:27:32.000Z</time>
      </trkpt>
      <trkpt lat="44.87852" lon="0.61071">
        <ele>119.8</ele>
        <time>2021-05-17T12:27:33.000Z</time>
      </trkpt>
      <trkpt lat="44.87856" lon="0.61066">
        <ele>119.9</ele>
        <time>2021-05-17T12:27:34.000Z</time>
      </trkpt>
      <trkpt lat="44.87859" lon="0.61064">
        <ele>120</ele>
        <time>2021-05-17T12:27:35.000Z</time>
      </trkpt>
      <trkpt lat="44.8786" lon="0.61063">
        <ele>120</ele>
        <time>2021-05-17T12:27:36.000Z</time>
      </trkpt>
      <trkpt lat="44.87862" lon="0.61061">
        <ele>120.1</ele>
        <time>2021-05-17T12:27:37.000Z</time>
      </trkpt>
      <trkpt lat="44.87866" lon="0.61058">
        <ele>120.3</ele>
        <time>2021-05-17T12:27:38.000Z</time>
      </trkpt>
      <trkpt lat="44.87867" lon="0.61058">
        <ele>120.3</ele>
        <time>2021-05-17T12:27:39.000Z</time>
      </trkpt>
      <trkpt lat="44.87871" lon="0.61056">
        <ele>120.5</ele>
        <time>2021-05-17T12:27:40.000Z</time>
      </trkpt>
      <trkpt lat="44.87872" lon="0.61055">
        <ele>120.5</ele>
        <time>2021-05-17T12:27:41.000Z</time>
      </trkpt>
      <trkpt lat="44.87876" lon="0.61053">
        <ele>120.7</ele>
        <time>2021-05-17T12:27:42.000Z</time>
      </trkpt>
      <trkpt lat="44.87879" lon="0.61051">
        <ele>120.8</ele>
        <time>2021-05-17T12:27:43.000Z</time>
      </trkpt>
      <trkpt lat="44.87882" lon="0.6105">
        <ele>121</ele>
        <time>2021-05-17T12:27:44.000Z</time>
      </trkpt>
      <trkpt lat="44.87886" lon="0.61049">
        <ele>121.1</ele>
        <time>2021-05-17T12:27:45.000Z</time>
      </trkpt>
      <trkpt lat="44.87889" lon="0.61047">
        <ele>121.3</ele>
        <time>2021-05-17T12:27:46.000Z</time>
      </trkpt>
      <trkpt lat="44.87892" lon="0.61047">
        <ele>121.4</ele>
        <time>2021-05-17T12:27:47.000Z</time>
      </trkpt>
      <trkpt lat="44.87895" lon="0.61046">
        <ele>121.5</ele>
        <time>2021-05-17T12:27:48.000Z</time>
      </trkpt>
      <trkpt lat="44.87899" lon="0.61045">
        <ele>121.7</ele>
        <time>2021-05-17T12:27:49.000Z</time>
      </trkpt>
      <trkpt lat="44.87903" lon="0.61043">
        <ele>121.8</ele>
        <time>2021-05-17T12:27:50.000Z</time>
      </trkpt>
      <trkpt lat="44.87906" lon="0.61041">
        <ele>122</ele>
        <time>2021-05-17T12:27:51.000Z</time>
      </trkpt>
      <trkpt lat="44.8791" lon="0.61039">
        <ele>122.1</ele>
        <time>2021-05-17T12:27:52.000Z</time>
      </trkpt>
      <trkpt lat="44.87914" lon="0.61037">
        <ele>122.1</ele>
        <time>2021-05-17T12:27:53.000Z</time>
      </trkpt>
      <trkpt lat="44.87917" lon="0.61036">
        <ele>122.2</ele>
        <time>2021-05-17T12:27:54.000Z</time>
      </trkpt>
      <trkpt lat="44.87919" lon="0.61035">
        <ele>122.2</ele>
        <time>2021-05-17T12:27:55.000Z</time>
      </trkpt>
      <trkpt lat="44.8792" lon="0.61035">
        <ele>122.2</ele>
        <time>2021-05-17T12:27:56.000Z</time>
      </trkpt>
      <trkpt lat="44.87922" lon="0.61034">
        <ele>122.2</ele>
        <time>2021-05-17T12:27:57.000Z</time>
      </trkpt>
      <trkpt lat="44.87925" lon="0.61033">
        <ele>122.1</ele>
        <time>2021-05-17T12:27:58.000Z</time>
      </trkpt>
      <trkpt lat="44.87931" lon="0.6103">
        <ele>122</ele>
        <time>2021-05-17T12:27:59.000Z</time>
      </trkpt>
      <trkpt lat="44.87934" lon="0.61029">
        <ele>121.9</ele>
        <time>2021-05-17T12:28:00.000Z</time>
      </trkpt>
      <trkpt lat="44.87935" lon="0.61028">
        <ele>121.9</ele>
        <time>2021-05-17T12:28:01.000Z</time>
      </trkpt>
      <trkpt lat="44.87938" lon="0.61027">
        <ele>121.7</ele>
        <time>2021-05-17T12:28:02.000Z</time>
      </trkpt>
      <trkpt lat="44.87945" lon="0.61025">
        <ele>121.5</ele>
        <time>2021-05-17T12:28:03.000Z</time>
      </trkpt>
      <trkpt lat="44.87951" lon="0.61023">
        <ele>121.2</ele>
        <time>2021-05-17T12:28:04.000Z</time>
      </trkpt>
      <trkpt lat="44.87958" lon="0.6102">
        <ele>121</ele>
        <time>2021-05-17T12:28:05.000Z</time>
      </trkpt>
      <trkpt lat="44.87965" lon="0.61017">
        <ele>120.8</ele>
        <time>2021-05-17T12:28:06.000Z</time>
      </trkpt>
      <trkpt lat="44.87972" lon="0.61014">
        <ele>120.6</ele>
        <time>2021-05-17T12:28:07.000Z</time>
      </trkpt>
      <trkpt lat="44.87979" lon="0.61011">
        <ele>120.4</ele>
        <time>2021-05-17T12:28:08.000Z</time>
      </trkpt>
      <trkpt lat="44.87987" lon="0.61008">
        <ele>120.2</ele>
        <time>2021-05-17T12:28:09.000Z</time>
      </trkpt>
      <trkpt lat="44.87993" lon="0.61005">
        <ele>120.1</ele>
        <time>2021-05-17T12:28:10.000Z</time>
      </trkpt>
      <trkpt lat="44.88" lon="0.61002">
        <ele>119.9</ele>
        <time>2021-05-17T12:28:11.000Z</time>
      </trkpt>
      <trkpt lat="44.88007" lon="0.60999">
        <ele>119.8</ele>
        <time>2021-05-17T12:28:12.000Z</time>
      </trkpt>
      <trkpt lat="44.88014" lon="0.60997">
        <ele>119.7</ele>
        <time>2021-05-17T12:28:13.000Z</time>
      </trkpt>
      <trkpt lat="44.8802" lon="0.60994">
        <ele>119.6</ele>
        <time>2021-05-17T12:28:14.000Z</time>
      </trkpt>
      <trkpt lat="44.88025" lon="0.60991">
        <ele>119.5</ele>
        <time>2021-05-17T12:28:15.000Z</time>
      </trkpt>
      <trkpt lat="44.8803" lon="0.60989">
        <ele>119.4</ele>
        <time>2021-05-17T12:28:16.000Z</time>
      </trkpt>
      <trkpt lat="44.88035" lon="0.60988">
        <ele>119.3</ele>
        <time>2021-05-17T12:28:17.000Z</time>
      </trkpt>
      <trkpt lat="44.88039" lon="0.60986">
        <ele>119.2</ele>
        <time>2021-05-17T12:28:18.000Z</time>
      </trkpt>
      <trkpt lat="44.88043" lon="0.60984">
        <ele>119.1</ele>
        <time>2021-05-17T12:28:19.000Z</time>
      </trkpt>
      <trkpt lat="44.88047" lon="0.60982">
        <ele>119</ele>
        <time>2021-05-17T12:28:20.000Z</time>
      </trkpt>
      <trkpt lat="44.88052" lon="0.6098">
        <ele>118.8</ele>
        <time>2021-05-17T12:28:21.000Z</time>
      </trkpt>
      <trkpt lat="44.88056" lon="0.60978">
        <ele>118.7</ele>
        <time>2021-05-17T12:28:22.000Z</time>
      </trkpt>
      <trkpt lat="44.8806" lon="0.60976">
        <ele>118.5</ele>
        <time>2021-05-17T12:28:23.000Z</time>
      </trkpt>
      <trkpt lat="44.88062" lon="0.60973">
        <ele>118.3</ele>
        <time>2021-05-17T12:28:24.000Z</time>
      </trkpt>
      <trkpt lat="44.88068" lon="0.6097">
        <ele>118.1</ele>
        <time>2021-05-17T12:28:25.000Z</time>
      </trkpt>
      <trkpt lat="44.88073" lon="0.60967">
        <ele>117.9</ele>
        <time>2021-05-17T12:28:26.000Z</time>
      </trkpt>
      <trkpt lat="44.88079" lon="0.60964">
        <ele>117.6</ele>
        <time>2021-05-17T12:28:27.000Z</time>
      </trkpt>
      <trkpt lat="44.88085" lon="0.60962">
        <ele>117.3</ele>
        <time>2021-05-17T12:28:28.000Z</time>
      </trkpt>
      <trkpt lat="44.88093" lon="0.6096">
        <ele>117</ele>
        <time>2021-05-17T12:28:29.000Z</time>
      </trkpt>
      <trkpt lat="44.88099" lon="0.60956">
        <ele>116.7</ele>
        <time>2021-05-17T12:28:30.000Z</time>
      </trkpt>
      <trkpt lat="44.88106" lon="0.60953">
        <ele>116.4</ele>
        <time>2021-05-17T12:28:31.000Z</time>
      </trkpt>
      <trkpt lat="44.88113" lon="0.60951">
        <ele>116.2</ele>
        <time>2021-05-17T12:28:32.000Z</time>
      </trkpt>
      <trkpt lat="44.88119" lon="0.60948">
        <ele>116</ele>
        <time>2021-05-17T12:28:33.000Z</time>
      </trkpt>
      <trkpt lat="44.88126" lon="0.60946">
        <ele>115.8</ele>
        <time>2021-05-17T12:28:34.000Z</time>
      </trkpt>
      <trkpt lat="44.88132" lon="0.60943">
        <ele>115.6</ele>
        <time>2021-05-17T12:28:35.000Z</time>
      </trkpt>
      <trkpt lat="44.88138" lon="0.60941">
        <ele>115.5</ele>
        <time>2021-05-17T12:28:36.000Z</time>
      </trkpt>
      <trkpt lat="44.88146" lon="0.60939">
        <ele>115.2</ele>
        <time>2021-05-17T12:28:37.000Z</time>
      </trkpt>
      <trkpt lat="44.88153" lon="0.60936">
        <ele>114.9</ele>
        <time>2021-05-17T12:28:38.000Z</time>
      </trkpt>
      <trkpt lat="44.88159" lon="0.60931">
        <ele>114.7</ele>
        <time>2021-05-17T12:28:39.000Z</time>
      </trkpt>
      <trkpt lat="44.88164" lon="0.60928">
        <ele>114.6</ele>
        <time>2021-05-17T12:28:40.000Z</time>
      </trkpt>
      <trkpt lat="44.8817" lon="0.60926">
        <ele>114.4</ele>
        <time>2021-05-17T12:28:41.000Z</time>
      </trkpt>
      <trkpt lat="44.88176" lon="0.60924">
        <ele>114.3</ele>
        <time>2021-05-17T12:28:42.000Z</time>
      </trkpt>
      <trkpt lat="44.88182" lon="0.60922">
        <ele>114.1</ele>
        <time>2021-05-17T12:28:43.000Z</time>
      </trkpt>
      <trkpt lat="44.88188" lon="0.60918">
        <ele>114</ele>
        <time>2021-05-17T12:28:44.000Z</time>
      </trkpt>
      <trkpt lat="44.88194" lon="0.60916">
        <ele>113.9</ele>
        <time>2021-05-17T12:28:45.000Z</time>
      </trkpt>
      <trkpt lat="44.882" lon="0.60913">
        <ele>113.7</ele>
        <time>2021-05-17T12:28:46.000Z</time>
      </trkpt>
      <trkpt lat="44.88205" lon="0.60911">
        <ele>113.6</ele>
        <time>2021-05-17T12:28:47.000Z</time>
      </trkpt>
      <trkpt lat="44.8821" lon="0.60909">
        <ele>113.5</ele>
        <time>2021-05-17T12:28:48.000Z</time>
      </trkpt>
      <trkpt lat="44.88216" lon="0.60907">
        <ele>113.4</ele>
        <time>2021-05-17T12:28:49.000Z</time>
      </trkpt>
      <trkpt lat="44.88222" lon="0.60905">
        <ele>113.3</ele>
        <time>2021-05-17T12:28:50.000Z</time>
      </trkpt>
      <trkpt lat="44.88227" lon="0.60903">
        <ele>113.3</ele>
        <time>2021-05-17T12:28:51.000Z</time>
      </trkpt>
      <trkpt lat="44.88233" lon="0.60902">
        <ele>113.2</ele>
        <time>2021-05-17T12:28:52.000Z</time>
      </trkpt>
      <trkpt lat="44.88239" lon="0.60899">
        <ele>113.2</ele>
        <time>2021-05-17T12:28:53.000Z</time>
      </trkpt>
      <trkpt lat="44.88244" lon="0.60898">
        <ele>113.2</ele>
        <time>2021-05-17T12:28:54.000Z</time>
      </trkpt>
      <trkpt lat="44.88249" lon="0.60893">
        <ele>113.3</ele>
        <time>2021-05-17T12:28:55.000Z</time>
      </trkpt>
      <trkpt lat="44.88255" lon="0.60891">
        <ele>113.4</ele>
        <time>2021-05-17T12:28:56.000Z</time>
      </trkpt>
      <trkpt lat="44.88259" lon="0.60889">
        <ele>113.5</ele>
        <time>2021-05-17T12:28:57.000Z</time>
      </trkpt>
      <trkpt lat="44.88263" lon="0.60888">
        <ele>113.5</ele>
        <time>2021-05-17T12:28:58.000Z</time>
      </trkpt>
      <trkpt lat="44.88268" lon="0.60887">
        <ele>113.6</ele>
        <time>2021-05-17T12:28:59.000Z</time>
      </trkpt>
      <trkpt lat="44.88273" lon="0.60885">
        <ele>113.6</ele>
        <time>2021-05-17T12:29:00.000Z</time>
      </trkpt>
      <trkpt lat="44.88279" lon="0.60883">
        <ele>113.5</ele>
        <time>2021-05-17T12:29:01.000Z</time>
      </trkpt>
      <trkpt lat="44.88283" lon="0.60879">
        <ele>113.5</ele>
        <time>2021-05-17T12:29:02.000Z</time>
      </trkpt>
      <trkpt lat="44.88288" lon="0.60877">
        <ele>113.4</ele>
        <time>2021-05-17T12:29:03.000Z</time>
      </trkpt>
      <trkpt lat="44.88292" lon="0.60875">
        <ele>113.4</ele>
        <time>2021-05-17T12:29:04.000Z</time>
      </trkpt>
      <trkpt lat="44.88298" lon="0.60874">
        <ele>113.2</ele>
        <time>2021-05-17T12:29:05.000Z</time>
      </trkpt>
      <trkpt lat="44.88303" lon="0.60873">
        <ele>113.1</ele>
        <time>2021-05-17T12:29:06.000Z</time>
      </trkpt>
      <trkpt lat="44.88307" lon="0.60871">
        <ele>112.9</ele>
        <time>2021-05-17T12:29:07.000Z</time>
      </trkpt>
      <trkpt lat="44.88311" lon="0.60869">
        <ele>112.7</ele>
        <time>2021-05-17T12:29:08.000Z</time>
      </trkpt>
      <trkpt lat="44.88315" lon="0.60866">
        <ele>112.5</ele>
        <time>2021-05-17T12:29:09.000Z</time>
      </trkpt>
      <trkpt lat="44.88321" lon="0.60865">
        <ele>112.1</ele>
        <time>2021-05-17T12:29:10.000Z</time>
      </trkpt>
      <trkpt lat="44.88327" lon="0.60863">
        <ele>111.7</ele>
        <time>2021-05-17T12:29:11.000Z</time>
      </trkpt>
      <trkpt lat="44.88334" lon="0.60861">
        <ele>111.1</ele>
        <time>2021-05-17T12:29:12.000Z</time>
      </trkpt>
      <trkpt lat="44.8834" lon="0.60858">
        <ele>110.6</ele>
        <time>2021-05-17T12:29:13.000Z</time>
      </trkpt>
      <trkpt lat="44.88346" lon="0.60854">
        <ele>110</ele>
        <time>2021-05-17T12:29:14.000Z</time>
      </trkpt>
      <trkpt lat="44.88353" lon="0.60852">
        <ele>109.4</ele>
        <time>2021-05-17T12:29:15.000Z</time>
      </trkpt>
      <trkpt lat="44.8836" lon="0.6085">
        <ele>108.7</ele>
        <time>2021-05-17T12:29:16.000Z</time>
      </trkpt>
      <trkpt lat="44.88367" lon="0.60848">
        <ele>108</ele>
        <time>2021-05-17T12:29:17.000Z</time>
      </trkpt>
      <trkpt lat="44.88374" lon="0.60845">
        <ele>107.3</ele>
        <time>2021-05-17T12:29:18.000Z</time>
      </trkpt>
      <trkpt lat="44.88384" lon="0.60841">
        <ele>106.3</ele>
        <time>2021-05-17T12:29:19.000Z</time>
      </trkpt>
      <trkpt lat="44.88393" lon="0.60835">
        <ele>105.5</ele>
        <time>2021-05-17T12:29:20.000Z</time>
      </trkpt>
      <trkpt lat="44.88402" lon="0.60829">
        <ele>104.8</ele>
        <time>2021-05-17T12:29:21.000Z</time>
      </trkpt>
      <trkpt lat="44.8841" lon="0.60828">
        <ele>104.4</ele>
        <time>2021-05-17T12:29:22.000Z</time>
      </trkpt>
      <trkpt lat="44.88418" lon="0.60827">
        <ele>104.3</ele>
        <time>2021-05-17T12:29:23.000Z</time>
      </trkpt>
      <trkpt lat="44.88425" lon="0.60822">
        <ele>104.3</ele>
        <time>2021-05-17T12:29:24.000Z</time>
      </trkpt>
      <trkpt lat="44.88432" lon="0.60818">
        <ele>104.3</ele>
        <time>2021-05-17T12:29:25.000Z</time>
      </trkpt>
      <trkpt lat="44.88437" lon="0.60814">
        <ele>104.4</ele>
        <time>2021-05-17T12:29:26.000Z</time>
      </trkpt>
      <trkpt lat="44.88441" lon="0.60811">
        <ele>104.4</ele>
        <time>2021-05-17T12:29:27.000Z</time>
      </trkpt>
      <trkpt lat="44.88446" lon="0.60809">
        <ele>104.4</ele>
        <time>2021-05-17T12:29:28.000Z</time>
      </trkpt>
      <trkpt lat="44.88453" lon="0.60805">
        <ele>104.4</ele>
        <time>2021-05-17T12:29:29.000Z</time>
      </trkpt>
      <trkpt lat="44.8846" lon="0.60803">
        <ele>104.4</ele>
        <time>2021-05-17T12:29:30.000Z</time>
      </trkpt>
      <trkpt lat="44.88467" lon="0.60801">
        <ele>104.5</ele>
        <time>2021-05-17T12:29:31.000Z</time>
      </trkpt>
      <trkpt lat="44.88473" lon="0.608">
        <ele>104.7</ele>
        <time>2021-05-17T12:29:32.000Z</time>
      </trkpt>
      <trkpt lat="44.88478" lon="0.60798">
        <ele>104.9</ele>
        <time>2021-05-17T12:29:33.000Z</time>
      </trkpt>
      <trkpt lat="44.88484" lon="0.60797">
        <ele>105.3</ele>
        <time>2021-05-17T12:29:34.000Z</time>
      </trkpt>
      <trkpt lat="44.88488" lon="0.60795">
        <ele>105.6</ele>
        <time>2021-05-17T12:29:35.000Z</time>
      </trkpt>
      <trkpt lat="44.88493" lon="0.60793">
        <ele>106</ele>
        <time>2021-05-17T12:29:36.000Z</time>
      </trkpt>
      <trkpt lat="44.88497" lon="0.60793">
        <ele>106.3</ele>
        <time>2021-05-17T12:29:37.000Z</time>
      </trkpt>
      <trkpt lat="44.885" lon="0.60791">
        <ele>106.6</ele>
        <time>2021-05-17T12:29:38.000Z</time>
      </trkpt>
      <trkpt lat="44.885" lon="0.6079">
        <ele>106.7</ele>
        <time>2021-05-17T12:29:39.000Z</time>
      </trkpt>
      <trkpt lat="44.88503" lon="0.60787">
        <ele>107</ele>
        <time>2021-05-17T12:29:40.000Z</time>
      </trkpt>
      <trkpt lat="44.88506" lon="0.60785">
        <ele>107.3</ele>
        <time>2021-05-17T12:29:41.000Z</time>
      </trkpt>
      <trkpt lat="44.88509" lon="0.60784">
        <ele>107.5</ele>
        <time>2021-05-17T12:29:42.000Z</time>
      </trkpt>
      <trkpt lat="44.88513" lon="0.60782">
        <ele>107.8</ele>
        <time>2021-05-17T12:29:43.000Z</time>
      </trkpt>
      <trkpt lat="44.88515" lon="0.60781">
        <ele>107.9</ele>
        <time>2021-05-17T12:29:44.000Z</time>
      </trkpt>
      <trkpt lat="44.88518" lon="0.60779">
        <ele>108</ele>
        <time>2021-05-17T12:29:45.000Z</time>
      </trkpt>
      <trkpt lat="44.88521" lon="0.60778">
        <ele>108.2</ele>
        <time>2021-05-17T12:29:46.000Z</time>
      </trkpt>
      <trkpt lat="44.88523" lon="0.60776">
        <ele>108.3</ele>
        <time>2021-05-17T12:29:47.000Z</time>
      </trkpt>
      <trkpt lat="44.88526" lon="0.60774">
        <ele>108.3</ele>
        <time>2021-05-17T12:29:48.000Z</time>
      </trkpt>
      <trkpt lat="44.88529" lon="0.60771">
        <ele>108.3</ele>
        <time>2021-05-17T12:29:49.000Z</time>
      </trkpt>
      <trkpt lat="44.88532" lon="0.60768">
        <ele>108.2</ele>
        <time>2021-05-17T12:29:50.000Z</time>
      </trkpt>
      <trkpt lat="44.88535" lon="0.60766">
        <ele>108.1</ele>
        <time>2021-05-17T12:29:51.000Z</time>
      </trkpt>
      <trkpt lat="44.88538" lon="0.60763">
        <ele>107.9</ele>
        <time>2021-05-17T12:29:52.000Z</time>
      </trkpt>
      <trkpt lat="44.88541" lon="0.60759">
        <ele>107.7</ele>
        <time>2021-05-17T12:29:53.000Z</time>
      </trkpt>
      <trkpt lat="44.88545" lon="0.60755">
        <ele>107.3</ele>
        <time>2021-05-17T12:29:54.000Z</time>
      </trkpt>
      <trkpt lat="44.88548" lon="0.60752">
        <ele>106.9</ele>
        <time>2021-05-17T12:29:55.000Z</time>
      </trkpt>
      <trkpt lat="44.88551" lon="0.60748">
        <ele>106.6</ele>
        <time>2021-05-17T12:29:56.000Z</time>
      </trkpt>
      <trkpt lat="44.88553" lon="0.60746">
        <ele>106.4</ele>
        <time>2021-05-17T12:29:57.000Z</time>
      </trkpt>
      <trkpt lat="44.88556" lon="0.60743">
        <ele>106.1</ele>
        <time>2021-05-17T12:29:58.000Z</time>
      </trkpt>
      <trkpt lat="44.88558" lon="0.60743">
        <ele>106</ele>
        <time>2021-05-17T12:29:59.000Z</time>
      </trkpt>
      <trkpt lat="44.88561" lon="0.6074">
        <ele>105.6</ele>
        <time>2021-05-17T12:30:00.000Z</time>
      </trkpt>
      <trkpt lat="44.88565" lon="0.60738">
        <ele>105.2</ele>
        <time>2021-05-17T12:30:01.000Z</time>
      </trkpt>
      <trkpt lat="44.8857" lon="0.60735">
        <ele>104.7</ele>
        <time>2021-05-17T12:30:02.000Z</time>
      </trkpt>
      <trkpt lat="44.88573" lon="0.60732">
        <ele>104.4</ele>
        <time>2021-05-17T12:30:03.000Z</time>
      </trkpt>
      <trkpt lat="44.88577" lon="0.60729">
        <ele>104.3</ele>
        <time>2021-05-17T12:30:04.000Z</time>
      </trkpt>
      <trkpt lat="44.88581" lon="0.60725">
        <ele>104.3</ele>
        <time>2021-05-17T12:30:05.000Z</time>
      </trkpt>
      <trkpt lat="44.88584" lon="0.60722">
        <ele>104.2</ele>
        <time>2021-05-17T12:30:06.000Z</time>
      </trkpt>
      <trkpt lat="44.88588" lon="0.60717">
        <ele>104.3</ele>
        <time>2021-05-17T12:30:07.000Z</time>
      </trkpt>
      <trkpt lat="44.88591" lon="0.60715">
        <ele>104.3</ele>
        <time>2021-05-17T12:30:08.000Z</time>
      </trkpt>
      <trkpt lat="44.88594" lon="0.60712">
        <ele>104.3</ele>
        <time>2021-05-17T12:30:09.000Z</time>
      </trkpt>
      <trkpt lat="44.88597" lon="0.60709">
        <ele>104.3</ele>
        <time>2021-05-17T12:30:10.000Z</time>
      </trkpt>
      <trkpt lat="44.88599" lon="0.60707">
        <ele>104.3</ele>
        <time>2021-05-17T12:30:11.000Z</time>
      </trkpt>
      <trkpt lat="44.88602" lon="0.60703">
        <ele>104.4</ele>
        <time>2021-05-17T12:30:12.000Z</time>
      </trkpt>
      <trkpt lat="44.88603" lon="0.60701">
        <ele>104.4</ele>
        <time>2021-05-17T12:30:13.000Z</time>
      </trkpt>
      <trkpt lat="44.88606" lon="0.60699">
        <ele>104.5</ele>
        <time>2021-05-17T12:30:14.000Z</time>
      </trkpt>
      <trkpt lat="44.88608" lon="0.60696">
        <ele>104.4</ele>
        <time>2021-05-17T12:30:15.000Z</time>
      </trkpt>
      <trkpt lat="44.88612" lon="0.60694">
        <ele>104.5</ele>
        <time>2021-05-17T12:30:16.000Z</time>
      </trkpt>
      <trkpt lat="44.88615" lon="0.60691">
        <ele>104.5</ele>
        <time>2021-05-17T12:30:17.000Z</time>
      </trkpt>
      <trkpt lat="44.88618" lon="0.60688">
        <ele>104.7</ele>
        <time>2021-05-17T12:30:18.000Z</time>
      </trkpt>
      <trkpt lat="44.88621" lon="0.60685">
        <ele>104.8</ele>
        <time>2021-05-17T12:30:19.000Z</time>
      </trkpt>
      <trkpt lat="44.88625" lon="0.60681">
        <ele>105</ele>
        <time>2021-05-17T12:30:20.000Z</time>
      </trkpt>
      <trkpt lat="44.88628" lon="0.60678">
        <ele>105.2</ele>
        <time>2021-05-17T12:30:21.000Z</time>
      </trkpt>
      <trkpt lat="44.88631" lon="0.60676">
        <ele>105.2</ele>
        <time>2021-05-17T12:30:22.000Z</time>
      </trkpt>
      <trkpt lat="44.88635" lon="0.60673">
        <ele>105.4</ele>
        <time>2021-05-17T12:30:23.000Z</time>
      </trkpt>
      <trkpt lat="44.88638" lon="0.60669">
        <ele>105.6</ele>
        <time>2021-05-17T12:30:24.000Z</time>
      </trkpt>
      <trkpt lat="44.88641" lon="0.60665">
        <ele>105.6</ele>
        <time>2021-05-17T12:30:25.000Z</time>
      </trkpt>
      <trkpt lat="44.88645" lon="0.60661">
        <ele>105.8</ele>
        <time>2021-05-17T12:30:26.000Z</time>
      </trkpt>
      <trkpt lat="44.88648" lon="0.60657">
        <ele>106</ele>
        <time>2021-05-17T12:30:27.000Z</time>
      </trkpt>
      <trkpt lat="44.88651" lon="0.60654">
        <ele>106.2</ele>
        <time>2021-05-17T12:30:28.000Z</time>
      </trkpt>
      <trkpt lat="44.88655" lon="0.60651">
        <ele>106.4</ele>
        <time>2021-05-17T12:30:29.000Z</time>
      </trkpt>
      <trkpt lat="44.88658" lon="0.60647">
        <ele>106.5</ele>
        <time>2021-05-17T12:30:30.000Z</time>
      </trkpt>
      <trkpt lat="44.88661" lon="0.60644">
        <ele>106.6</ele>
        <time>2021-05-17T12:30:31.000Z</time>
      </trkpt>
      <trkpt lat="44.88664" lon="0.6064">
        <ele>106.8</ele>
        <time>2021-05-17T12:30:32.000Z</time>
      </trkpt>
      <trkpt lat="44.88667" lon="0.60637">
        <ele>106.9</ele>
        <time>2021-05-17T12:30:33.000Z</time>
      </trkpt>
      <trkpt lat="44.8867" lon="0.60634">
        <ele>107</ele>
        <time>2021-05-17T12:30:34.000Z</time>
      </trkpt>
      <trkpt lat="44.88672" lon="0.6063">
        <ele>107.2</ele>
        <time>2021-05-17T12:30:35.000Z</time>
      </trkpt>
      <trkpt lat="44.88676" lon="0.60627">
        <ele>107.3</ele>
        <time>2021-05-17T12:30:36.000Z</time>
      </trkpt>
      <trkpt lat="44.88677" lon="0.60626">
        <ele>107.4</ele>
        <time>2021-05-17T12:30:37.000Z</time>
      </trkpt>
      <trkpt lat="44.88681" lon="0.60622">
        <ele>107.5</ele>
        <time>2021-05-17T12:30:38.000Z</time>
      </trkpt>
      <trkpt lat="44.88683" lon="0.60619">
        <ele>107.6</ele>
        <time>2021-05-17T12:30:39.000Z</time>
      </trkpt>
      <trkpt lat="44.88686" lon="0.60615">
        <ele>107.7</ele>
        <time>2021-05-17T12:30:40.000Z</time>
      </trkpt>
      <trkpt lat="44.88689" lon="0.6061">
        <ele>107.7</ele>
        <time>2021-05-17T12:30:41.000Z</time>
      </trkpt>
      <trkpt lat="44.88692" lon="0.60607">
        <ele>107.8</ele>
        <time>2021-05-17T12:30:42.000Z</time>
      </trkpt>
      <trkpt lat="44.88696" lon="0.60602">
        <ele>107.8</ele>
        <time>2021-05-17T12:30:43.000Z</time>
      </trkpt>
      <trkpt lat="44.88699" lon="0.60598">
        <ele>107.8</ele>
        <time>2021-05-17T12:30:44.000Z</time>
      </trkpt>
      <trkpt lat="44.88702" lon="0.60594">
        <ele>107.7</ele>
        <time>2021-05-17T12:30:45.000Z</time>
      </trkpt>
      <trkpt lat="44.88705" lon="0.60587">
        <ele>107.5</ele>
        <time>2021-05-17T12:30:46.000Z</time>
      </trkpt>
      <trkpt lat="44.88708" lon="0.60584">
        <ele>107.5</ele>
        <time>2021-05-17T12:30:47.000Z</time>
      </trkpt>
      <trkpt lat="44.88712" lon="0.6058">
        <ele>107.4</ele>
        <time>2021-05-17T12:30:48.000Z</time>
      </trkpt>
      <trkpt lat="44.88716" lon="0.60575">
        <ele>107.1</ele>
        <time>2021-05-17T12:30:49.000Z</time>
      </trkpt>
      <trkpt lat="44.88721" lon="0.6057">
        <ele>106.9</ele>
        <time>2021-05-17T12:30:50.000Z</time>
      </trkpt>
      <trkpt lat="44.88724" lon="0.60566">
        <ele>106.7</ele>
        <time>2021-05-17T12:30:51.000Z</time>
      </trkpt>
      <trkpt lat="44.88729" lon="0.60561">
        <ele>106.4</ele>
        <time>2021-05-17T12:30:52.000Z</time>
      </trkpt>
      <trkpt lat="44.88734" lon="0.60553">
        <ele>106.1</ele>
        <time>2021-05-17T12:30:53.000Z</time>
      </trkpt>
      <trkpt lat="44.88742" lon="0.60543">
        <ele>105.6</ele>
        <time>2021-05-17T12:30:54.000Z</time>
      </trkpt>
      <trkpt lat="44.88749" lon="0.60534">
        <ele>105.2</ele>
        <time>2021-05-17T12:30:55.000Z</time>
      </trkpt>
      <trkpt lat="44.88756" lon="0.60527">
        <ele>104.6</ele>
        <time>2021-05-17T12:30:56.000Z</time>
      </trkpt>
      <trkpt lat="44.8876" lon="0.60519">
        <ele>104.4</ele>
        <time>2021-05-17T12:30:57.000Z</time>
      </trkpt>
      <trkpt lat="44.88763" lon="0.60515">
        <ele>104.2</ele>
        <time>2021-05-17T12:30:58.000Z</time>
      </trkpt>
      <trkpt lat="44.88764" lon="0.6051">
        <ele>104.1</ele>
        <time>2021-05-17T12:30:59.000Z</time>
      </trkpt>
      <trkpt lat="44.88763" lon="0.60509">
        <ele>104.1</ele>
        <time>2021-05-17T12:31:00.000Z</time>
      </trkpt>
      <trkpt lat="44.88765" lon="0.60508">
        <ele>104.1</ele>
        <time>2021-05-17T12:31:01.000Z</time>
      </trkpt>
      <trkpt lat="44.88766" lon="0.60508">
        <ele>104.2</ele>
        <time>2021-05-17T12:31:02.000Z</time>
      </trkpt>
      <trkpt lat="44.88767" lon="0.60508">
        <ele>104.2</ele>
        <time>2021-05-17T12:31:03.000Z</time>
      </trkpt>
      <trkpt lat="44.88768" lon="0.60507">
        <ele>104.2</ele>
        <time>2021-05-17T12:31:04.000Z</time>
      </trkpt>
      <trkpt lat="44.88773" lon="0.60506">
        <ele>104.2</ele>
        <time>2021-05-17T12:31:05.000Z</time>
      </trkpt>
      <trkpt lat="44.88775" lon="0.60505">
        <ele>104.2</ele>
        <time>2021-05-17T12:31:06.000Z</time>
      </trkpt>
      <trkpt lat="44.88778" lon="0.60503">
        <ele>104.3</ele>
        <time>2021-05-17T12:31:07.000Z</time>
      </trkpt>
      <trkpt lat="44.88779" lon="0.60502">
        <ele>104.3</ele>
        <time>2021-05-17T12:31:08.000Z</time>
      </trkpt>
      <trkpt lat="44.88781" lon="0.60498">
        <ele>104.3</ele>
        <time>2021-05-17T12:31:09.000Z</time>
      </trkpt>
      <trkpt lat="44.88782" lon="0.60498">
        <ele>104.4</ele>
        <time>2021-05-17T12:31:10.000Z</time>
      </trkpt>
      <trkpt lat="44.88782" lon="0.60492">
        <ele>104.5</ele>
        <time>2021-05-17T12:31:11.000Z</time>
      </trkpt>
      <trkpt lat="44.88783" lon="0.60491">
        <ele>104.5</ele>
        <time>2021-05-17T12:31:12.000Z</time>
      </trkpt>
      <trkpt lat="44.88784" lon="0.60487">
        <ele>104.7</ele>
        <time>2021-05-17T12:31:13.000Z</time>
      </trkpt>
      <trkpt lat="44.88785" lon="0.60483">
        <ele>104.8</ele>
        <time>2021-05-17T12:31:14.000Z</time>
      </trkpt>
      <trkpt lat="44.88786" lon="0.60478">
        <ele>104.9</ele>
        <time>2021-05-17T12:31:15.000Z</time>
      </trkpt>
      <trkpt lat="44.88786" lon="0.60477">
        <ele>104.9</ele>
        <time>2021-05-17T12:31:16.000Z</time>
      </trkpt>
      <trkpt lat="44.88787" lon="0.60473">
        <ele>105.1</ele>
        <time>2021-05-17T12:31:17.000Z</time>
      </trkpt>
      <trkpt lat="44.88788" lon="0.60469">
        <ele>105.2</ele>
        <time>2021-05-17T12:31:18.000Z</time>
      </trkpt>
      <trkpt lat="44.88789" lon="0.60467">
        <ele>105.3</ele>
        <time>2021-05-17T12:31:19.000Z</time>
      </trkpt>
      <trkpt lat="44.88792" lon="0.60462">
        <ele>105.5</ele>
        <time>2021-05-17T12:31:20.000Z</time>
      </trkpt>
      <trkpt lat="44.88792" lon="0.60459">
        <ele>105.6</ele>
        <time>2021-05-17T12:31:21.000Z</time>
      </trkpt>
      <trkpt lat="44.88794" lon="0.60456">
        <ele>105.7</ele>
        <time>2021-05-17T12:31:22.000Z</time>
      </trkpt>
      <trkpt lat="44.88796" lon="0.6045">
        <ele>105.9</ele>
        <time>2021-05-17T12:31:23.000Z</time>
      </trkpt>
      <trkpt lat="44.88798" lon="0.60448">
        <ele>105.9</ele>
        <time>2021-05-17T12:31:24.000Z</time>
      </trkpt>
      <trkpt lat="44.888" lon="0.60445">
        <ele>106.1</ele>
        <time>2021-05-17T12:31:25.000Z</time>
      </trkpt>
      <trkpt lat="44.88804" lon="0.60442">
        <ele>106.2</ele>
        <time>2021-05-17T12:31:26.000Z</time>
      </trkpt>
      <trkpt lat="44.88807" lon="0.6044">
        <ele>106.3</ele>
        <time>2021-05-17T12:31:27.000Z</time>
      </trkpt>
      <trkpt lat="44.88811" lon="0.60439">
        <ele>106.4</ele>
        <time>2021-05-17T12:31:28.000Z</time>
      </trkpt>
      <trkpt lat="44.88812" lon="0.60439">
        <ele>106.5</ele>
        <time>2021-05-17T12:31:29.000Z</time>
      </trkpt>
      <trkpt lat="44.88816" lon="0.60437">
        <ele>106.6</ele>
        <time>2021-05-17T12:31:30.000Z</time>
      </trkpt>
      <trkpt lat="44.88819" lon="0.60436">
        <ele>106.7</ele>
        <time>2021-05-17T12:31:31.000Z</time>
      </trkpt>
      <trkpt lat="44.88823" lon="0.60434">
        <ele>106.8</ele>
        <time>2021-05-17T12:31:32.000Z</time>
      </trkpt>
      <trkpt lat="44.88826" lon="0.60433">
        <ele>107</ele>
        <time>2021-05-17T12:31:33.000Z</time>
      </trkpt>
      <trkpt lat="44.88828" lon="0.60433">
        <ele>107</ele>
        <time>2021-05-17T12:31:34.000Z</time>
      </trkpt>
      <trkpt lat="44.8883" lon="0.60431">
        <ele>107.1</ele>
        <time>2021-05-17T12:31:35.000Z</time>
      </trkpt>
      <trkpt lat="44.88834" lon="0.6043">
        <ele>107.2</ele>
        <time>2021-05-17T12:31:36.000Z</time>
      </trkpt>
      <trkpt lat="44.88837" lon="0.60429">
        <ele>107.4</ele>
        <time>2021-05-17T12:31:37.000Z</time>
      </trkpt>
      <trkpt lat="44.88839" lon="0.60428">
        <ele>107.5</ele>
        <time>2021-05-17T12:31:38.000Z</time>
      </trkpt>
      <trkpt lat="44.88842" lon="0.60427">
        <ele>107.6</ele>
        <time>2021-05-17T12:31:39.000Z</time>
      </trkpt>
      <trkpt lat="44.88845" lon="0.60426">
        <ele>107.7</ele>
        <time>2021-05-17T12:31:40.000Z</time>
      </trkpt>
      <trkpt lat="44.88847" lon="0.60425">
        <ele>107.7</ele>
        <time>2021-05-17T12:31:41.000Z</time>
      </trkpt>
      <trkpt lat="44.8885" lon="0.60423">
        <ele>108</ele>
        <time>2021-05-17T12:31:42.000Z</time>
      </trkpt>
      <trkpt lat="44.88852" lon="0.60422">
        <ele>108.1</ele>
        <time>2021-05-17T12:31:43.000Z</time>
      </trkpt>
      <trkpt lat="44.88853" lon="0.60423">
        <ele>108.1</ele>
        <time>2021-05-17T12:31:44.000Z</time>
      </trkpt>
      <trkpt lat="44.88856" lon="0.60423">
        <ele>108.2</ele>
        <time>2021-05-17T12:31:45.000Z</time>
      </trkpt>
      <trkpt lat="44.88857" lon="0.60423">
        <ele>108.3</ele>
        <time>2021-05-17T12:31:46.000Z</time>
      </trkpt>
      <trkpt lat="44.88859" lon="0.60427">
        <ele>108.3</ele>
        <time>2021-05-17T12:31:47.000Z</time>
      </trkpt>
      <trkpt lat="44.88862" lon="0.60429">
        <ele>108.2</ele>
        <time>2021-05-17T12:31:48.000Z</time>
      </trkpt>
      <trkpt lat="44.88863" lon="0.6043">
        <ele>108.3</ele>
        <time>2021-05-17T12:31:49.000Z</time>
      </trkpt>
      <trkpt lat="44.88865" lon="0.60433">
        <ele>108.3</ele>
        <time>2021-05-17T12:31:50.000Z</time>
      </trkpt>
      <trkpt lat="44.88866" lon="0.60434">
        <ele>108.2</ele>
        <time>2021-05-17T12:31:51.000Z</time>
      </trkpt>
      <trkpt lat="44.88869" lon="0.60437">
        <ele>108.3</ele>
        <time>2021-05-17T12:31:52.000Z</time>
      </trkpt>
      <trkpt lat="44.8887" lon="0.60439">
        <ele>108.2</ele>
        <time>2021-05-17T12:31:53.000Z</time>
      </trkpt>
      <trkpt lat="44.88873" lon="0.60442">
        <ele>108</ele>
        <time>2021-05-17T12:31:54.000Z</time>
      </trkpt>
      <trkpt lat="44.88874" lon="0.60443">
        <ele>108.1</ele>
        <time>2021-05-17T12:31:55.000Z</time>
      </trkpt>
      <trkpt lat="44.88877" lon="0.60445">
        <ele>108.2</ele>
        <time>2021-05-17T12:31:56.000Z</time>
      </trkpt>
      <trkpt lat="44.88881" lon="0.60446">
        <ele>108.2</ele>
        <time>2021-05-17T12:31:57.000Z</time>
      </trkpt>
      <trkpt lat="44.88882" lon="0.60447">
        <ele>108.1</ele>
        <time>2021-05-17T12:31:58.000Z</time>
      </trkpt>
      <trkpt lat="44.88885" lon="0.60447">
        <ele>108.2</ele>
        <time>2021-05-17T12:31:59.000Z</time>
      </trkpt>
      <trkpt lat="44.88887" lon="0.60448">
        <ele>108.4</ele>
        <time>2021-05-17T12:32:00.000Z</time>
      </trkpt>
      <trkpt lat="44.88892" lon="0.60449">
        <ele>108.5</ele>
        <time>2021-05-17T12:32:01.000Z</time>
      </trkpt>
      <trkpt lat="44.88896" lon="0.60449">
        <ele>108.7</ele>
        <time>2021-05-17T12:32:02.000Z</time>
      </trkpt>
      <trkpt lat="44.88899" lon="0.6045">
        <ele>108.8</ele>
        <time>2021-05-17T12:32:03.000Z</time>
      </trkpt>
      <trkpt lat="44.88904" lon="0.60449">
        <ele>108.9</ele>
        <time>2021-05-17T12:32:04.000Z</time>
      </trkpt>
      <trkpt lat="44.88908" lon="0.60448">
        <ele>109.2</ele>
        <time>2021-05-17T12:32:05.000Z</time>
      </trkpt>
      <trkpt lat="44.88913" lon="0.60446">
        <ele>109.5</ele>
        <time>2021-05-17T12:32:06.000Z</time>
      </trkpt>
      <trkpt lat="44.88917" lon="0.60445">
        <ele>109.7</ele>
        <time>2021-05-17T12:32:07.000Z</time>
      </trkpt>
      <trkpt lat="44.8892" lon="0.60444">
        <ele>109.8</ele>
        <time>2021-05-17T12:32:08.000Z</time>
      </trkpt>
      <trkpt lat="44.88923" lon="0.60443">
        <ele>110</ele>
        <time>2021-05-17T12:32:09.000Z</time>
      </trkpt>
      <trkpt lat="44.88927" lon="0.60442">
        <ele>110.4</ele>
        <time>2021-05-17T12:32:10.000Z</time>
      </trkpt>
      <trkpt lat="44.8893" lon="0.6044">
        <ele>110.5</ele>
        <time>2021-05-17T12:32:11.000Z</time>
      </trkpt>
      <trkpt lat="44.88933" lon="0.6044">
        <ele>110.7</ele>
        <time>2021-05-17T12:32:12.000Z</time>
      </trkpt>
      <trkpt lat="44.88934" lon="0.60439">
        <ele>110.7</ele>
        <time>2021-05-17T12:32:13.000Z</time>
      </trkpt>
      <trkpt lat="44.88937" lon="0.60438">
        <ele>110.8</ele>
        <time>2021-05-17T12:32:14.000Z</time>
      </trkpt>
      <trkpt lat="44.88939" lon="0.60436">
        <ele>111.1</ele>
        <time>2021-05-17T12:32:15.000Z</time>
      </trkpt>
      <trkpt lat="44.88943" lon="0.60434">
        <ele>111.2</ele>
        <time>2021-05-17T12:32:16.000Z</time>
      </trkpt>
      <trkpt lat="44.88946" lon="0.60433">
        <ele>111.4</ele>
        <time>2021-05-17T12:32:17.000Z</time>
      </trkpt>
      <trkpt lat="44.88949" lon="0.60432">
        <ele>111.5</ele>
        <time>2021-05-17T12:32:18.000Z</time>
      </trkpt>
      <trkpt lat="44.88952" lon="0.60431">
        <ele>111.6</ele>
        <time>2021-05-17T12:32:19.000Z</time>
      </trkpt>
      <trkpt lat="44.88955" lon="0.6043">
        <ele>111.7</ele>
        <time>2021-05-17T12:32:20.000Z</time>
      </trkpt>
      <trkpt lat="44.88957" lon="0.60428">
        <ele>111.8</ele>
        <time>2021-05-17T12:32:21.000Z</time>
      </trkpt>
      <trkpt lat="44.88961" lon="0.60427">
        <ele>111.9</ele>
        <time>2021-05-17T12:32:22.000Z</time>
      </trkpt>
      <trkpt lat="44.88962" lon="0.60427">
        <ele>111.9</ele>
        <time>2021-05-17T12:32:23.000Z</time>
      </trkpt>
      <trkpt lat="44.88965" lon="0.60425">
        <ele>111.9</ele>
        <time>2021-05-17T12:32:24.000Z</time>
      </trkpt>
      <trkpt lat="44.88966" lon="0.60424">
        <ele>112.1</ele>
        <time>2021-05-17T12:32:25.000Z</time>
      </trkpt>
      <trkpt lat="44.8897" lon="0.60423">
        <ele>112.1</ele>
        <time>2021-05-17T12:32:26.000Z</time>
      </trkpt>
      <trkpt lat="44.88971" lon="0.60423">
        <ele>112.1</ele>
        <time>2021-05-17T12:32:27.000Z</time>
      </trkpt>
      <trkpt lat="44.88973" lon="0.60421">
        <ele>112.2</ele>
        <time>2021-05-17T12:32:28.000Z</time>
      </trkpt>
      <trkpt lat="44.88975" lon="0.6042">
        <ele>112.2</ele>
        <time>2021-05-17T12:32:29.000Z</time>
      </trkpt>
      <trkpt lat="44.88978" lon="0.60419">
        <ele>112.3</ele>
        <time>2021-05-17T12:32:30.000Z</time>
      </trkpt>
      <trkpt lat="44.8898" lon="0.60419">
        <ele>112.3</ele>
        <time>2021-05-17T12:32:31.000Z</time>
      </trkpt>
      <trkpt lat="44.88982" lon="0.60418">
        <ele>112.3</ele>
        <time>2021-05-17T12:32:32.000Z</time>
      </trkpt>
      <trkpt lat="44.88986" lon="0.60417">
        <ele>112.3</ele>
        <time>2021-05-17T12:32:33.000Z</time>
      </trkpt>
      <trkpt lat="44.88987" lon="0.60416">
        <ele>112.3</ele>
        <time>2021-05-17T12:32:34.000Z</time>
      </trkpt>
      <trkpt lat="44.8899" lon="0.60416">
        <ele>112.3</ele>
        <time>2021-05-17T12:32:35.000Z</time>
      </trkpt>
      <trkpt lat="44.8899" lon="0.60415">
        <ele>112.3</ele>
        <time>2021-05-17T12:32:36.000Z</time>
      </trkpt>
      <trkpt lat="44.88994" lon="0.60414">
        <ele>112.3</ele>
        <time>2021-05-17T12:32:37.000Z</time>
      </trkpt>
      <trkpt lat="44.88996" lon="0.60413">
        <ele>112.3</ele>
        <time>2021-05-17T12:32:39.000Z</time>
      </trkpt>
      <trkpt lat="44.88998" lon="0.60412">
        <ele>112.3</ele>
        <time>2021-05-17T12:32:40.000Z</time>
      </trkpt>
      <trkpt lat="44.89" lon="0.60412">
        <ele>112.3</ele>
        <time>2021-05-17T12:32:41.000Z</time>
      </trkpt>
      <trkpt lat="44.89002" lon="0.6041">
        <ele>112.3</ele>
        <time>2021-05-17T12:32:43.000Z</time>
      </trkpt>
      <trkpt lat="44.89004" lon="0.60409">
        <ele>112.2</ele>
        <time>2021-05-17T12:32:45.000Z</time>
      </trkpt>
      <trkpt lat="44.89006" lon="0.60408">
        <ele>112.2</ele>
        <time>2021-05-17T12:32:47.000Z</time>
      </trkpt>
      <trkpt lat="44.89006" lon="0.60408">
        <ele>112.2</ele>
        <time>2021-05-17T12:32:49.000Z</time>
      </trkpt>
      <trkpt lat="44.89005" lon="0.60409">
        <ele>112.2</ele>
        <time>2021-05-17T12:32:51.000Z</time>
      </trkpt>
      <trkpt lat="44.89005" lon="0.60409">
        <ele>112.3</ele>
        <time>2021-05-17T12:32:53.000Z</time>
      </trkpt>
      <trkpt lat="44.89005" lon="0.6041">
        <ele>112.3</ele>
        <time>2021-05-17T12:32:55.000Z</time>
      </trkpt>
      <trkpt lat="44.89006" lon="0.60409">
        <ele>112.3</ele>
        <time>2021-05-17T12:32:57.000Z</time>
      </trkpt>
      <trkpt lat="44.89006" lon="0.60409">
        <ele>112.3</ele>
        <time>2021-05-17T12:32:58.000Z</time>
      </trkpt>
      <trkpt lat="44.89006" lon="0.60409">
        <ele>112.3</ele>
        <time>2021-05-17T12:32:59.000Z</time>
      </trkpt>
      <trkpt lat="44.89006" lon="0.60409">
        <ele>112.4</ele>
        <time>2021-05-17T12:33:00.000Z</time>
      </trkpt>
      <trkpt lat="44.89005" lon="0.6041">
        <ele>112.4</ele>
        <time>2021-05-17T12:33:01.000Z</time>
      </trkpt>
      <trkpt lat="44.89005" lon="0.6041">
        <ele>112.4</ele>
        <time>2021-05-17T12:33:02.000Z</time>
      </trkpt>
      <trkpt lat="44.89005" lon="0.6041">
        <ele>112.5</ele>
        <time>2021-05-17T12:33:03.000Z</time>
      </trkpt>
      <trkpt lat="44.89005" lon="0.6041">
        <ele>112.5</ele>
        <time>2021-05-17T12:33:04.000Z</time>
      </trkpt>
      <trkpt lat="44.89005" lon="0.6041">
        <ele>112.5</ele>
        <time>2021-05-17T12:33:05.000Z</time>
      </trkpt>
      <trkpt lat="44.89005" lon="0.6041">
        <ele>112.5</ele>
        <time>2021-05-17T12:33:06.000Z</time>
      </trkpt>
      <trkpt lat="44.89005" lon="0.6041">
        <ele>112.6</ele>
        <time>2021-05-17T12:33:07.000Z</time>
      </trkpt>
      <trkpt lat="44.89005" lon="0.6041">
        <ele>112.6</ele>
        <time>2021-05-17T12:33:08.000Z</time>
      </trkpt>
      <trkpt lat="44.89005" lon="0.6041">
        <ele>112.6</ele>
        <time>2021-05-17T12:33:09.000Z</time>
      </trkpt>
      <trkpt lat="44.89005" lon="0.6041">
        <ele>112.6</ele>
        <time>2021-05-17T12:33:10.000Z</time>
      </trkpt>
      <trkpt lat="44.89005" lon="0.6041">
        <ele>112.6</ele>
        <time>2021-05-17T12:33:11.000Z</time>
      </trkpt>
      <trkpt lat="44.89005" lon="0.6041">
        <ele>112.7</ele>
        <time>2021-05-17T12:33:12.000Z</time>
      </trkpt>
      <trkpt lat="44.89005" lon="0.6041">
        <ele>112.7</ele>
        <time>2021-05-17T12:33:13.000Z</time>
      </trkpt>
      <trkpt lat="44.89005" lon="0.6041">
        <ele>112.7</ele>
        <time>2021-05-17T12:33:14.000Z</time>
      </trkpt>
      <trkpt lat="44.89005" lon="0.6041">
        <ele>112.7</ele>
        <time>2021-05-17T12:33:15.000Z</time>
      </trkpt>
      <trkpt lat="44.89005" lon="0.6041">
        <ele>112.7</ele>
        <time>2021-05-17T12:33:16.000Z</time>
      </trkpt>
      <trkpt lat="44.89005" lon="0.6041">
        <ele>112.7</ele>
        <time>2021-05-17T12:33:17.000Z</time>
      </trkpt>
      <trkpt lat="44.89005" lon="0.6041">
        <ele>112.8</ele>
        <time>2021-05-17T12:33:18.000Z</time>
      </trkpt>
      <trkpt lat="44.89005" lon="0.6041">
        <ele>112.8</ele>
        <time>2021-05-17T12:33:19.000Z</time>
      </trkpt>
      <trkpt lat="44.89005" lon="0.6041">
        <ele>112.8</ele>
        <time>2021-05-17T12:33:20.000Z</time>
      </trkpt>
      <trkpt lat="44.89005" lon="0.6041">
        <ele>112.8</ele>
        <time>2021-05-17T12:33:21.000Z</time>
      </trkpt>
      <trkpt lat="44.89004" lon="0.6041">
        <ele>112.8</ele>
        <time>2021-05-17T12:33:22.000Z</time>
      </trkpt>
      <trkpt lat="44.89005" lon="0.6041">
        <ele>112.9</ele>
        <time>2021-05-17T12:33:23.000Z</time>
      </trkpt>
      <trkpt lat="44.89005" lon="0.6041">
        <ele>112.9</ele>
        <time>2021-05-17T12:33:24.000Z</time>
      </trkpt>
      <trkpt lat="44.89005" lon="0.6041">
        <ele>112.9</ele>
        <time>2021-05-17T12:33:25.000Z</time>
      </trkpt>
      <trkpt lat="44.89005" lon="0.6041">
        <ele>112.9</ele>
        <time>2021-05-17T12:33:26.000Z</time>
      </trkpt>
      <trkpt lat="44.89005" lon="0.6041">
        <ele>112.9</ele>
        <time>2021-05-17T12:33:27.000Z</time>
      </trkpt>
      <trkpt lat="44.89006" lon="0.6041">
        <ele>112.9</ele>
        <time>2021-05-17T12:33:28.000Z</time>
      </trkpt>
      <trkpt lat="44.89006" lon="0.6041">
        <ele>112.9</ele>
        <time>2021-05-17T12:33:29.000Z</time>
      </trkpt>
      <trkpt lat="44.89006" lon="0.60409">
        <ele>113</ele>
        <time>2021-05-17T12:33:30.000Z</time>
      </trkpt>
      <trkpt lat="44.89006" lon="0.60409">
        <ele>113</ele>
        <time>2021-05-17T12:33:31.000Z</time>
      </trkpt>
      <trkpt lat="44.89006" lon="0.60409">
        <ele>113</ele>
        <time>2021-05-17T12:33:32.000Z</time>
      </trkpt>
      <trkpt lat="44.89006" lon="0.60409">
        <ele>113</ele>
        <time>2021-05-17T12:33:33.000Z</time>
      </trkpt>
      <trkpt lat="44.89006" lon="0.60409">
        <ele>113</ele>
        <time>2021-05-17T12:33:34.000Z</time>
      </trkpt>
      <trkpt lat="44.89006" lon="0.60409">
        <ele>113</ele>
        <time>2021-05-17T12:33:35.000Z</time>
      </trkpt>
      <trkpt lat="44.89006" lon="0.60409">
        <ele>113.1</ele>
        <time>2021-05-17T12:33:36.000Z</time>
      </trkpt>
      <trkpt lat="44.89007" lon="0.60409">
        <ele>113.1</ele>
        <time>2021-05-17T12:33:37.000Z</time>
      </trkpt>
      <trkpt lat="44.89006" lon="0.60409">
        <ele>113.1</ele>
        <time>2021-05-17T12:33:38.000Z</time>
      </trkpt>
      <trkpt lat="44.89006" lon="0.60408">
        <ele>113.1</ele>
        <time>2021-05-17T12:33:39.000Z</time>
      </trkpt>
      <trkpt lat="44.89006" lon="0.60408">
        <ele>113.1</ele>
        <time>2021-05-17T12:33:40.000Z</time>
      </trkpt>
      <trkpt lat="44.89006" lon="0.60408">
        <ele>113.2</ele>
        <time>2021-05-17T12:33:41.000Z</time>
      </trkpt>
      <trkpt lat="44.89006" lon="0.60408">
        <ele>113.2</ele>
        <time>2021-05-17T12:33:42.000Z</time>
      </trkpt>
      <trkpt lat="44.89006" lon="0.60408">
        <ele>113.2</ele>
        <time>2021-05-17T12:33:43.000Z</time>
      </trkpt>
      <trkpt lat="44.89006" lon="0.60408">
        <ele>113.2</ele>
        <time>2021-05-17T12:33:44.000Z</time>
      </trkpt>
      <trkpt lat="44.89006" lon="0.60408">
        <ele>113.2</ele>
        <time>2021-05-17T12:33:45.000Z</time>
      </trkpt>
      <trkpt lat="44.89006" lon="0.60409">
        <ele>113.3</ele>
        <time>2021-05-17T12:33:46.000Z</time>
      </trkpt>
      <trkpt lat="44.89006" lon="0.60409">
        <ele>113.3</ele>
        <time>2021-05-17T12:33:47.000Z</time>
      </trkpt>
      <trkpt lat="44.89006" lon="0.60409">
        <ele>113.3</ele>
        <time>2021-05-17T12:33:48.000Z</time>
      </trkpt>
      <trkpt lat="44.89006" lon="0.60409">
        <ele>113.3</ele>
        <time>2021-05-17T12:33:49.000Z</time>
      </trkpt>
      <trkpt lat="44.89006" lon="0.60409">
        <ele>113.3</ele>
        <time>2021-05-17T12:33:50.000Z</time>
      </trkpt>
      <trkpt lat="44.89006" lon="0.6041">
        <ele>113.4</ele>
        <time>2021-05-17T12:33:51.000Z</time>
      </trkpt>
      <trkpt lat="44.89006" lon="0.60409">
        <ele>113.4</ele>
        <time>2021-05-17T12:33:52.000Z</time>
      </trkpt>
      <trkpt lat="44.89006" lon="0.6041">
        <ele>113.4</ele>
        <time>2021-05-17T12:33:53.000Z</time>
      </trkpt>
      <trkpt lat="44.89006" lon="0.6041">
        <ele>113.4</ele>
        <time>2021-05-17T12:33:54.000Z</time>
      </trkpt>
      <trkpt lat="44.89006" lon="0.6041">
        <ele>113.4</ele>
        <time>2021-05-17T12:33:55.000Z</time>
      </trkpt>
      <trkpt lat="44.89007" lon="0.6041">
        <ele>113.5</ele>
        <time>2021-05-17T12:33:56.000Z</time>
      </trkpt>
      <trkpt lat="44.89006" lon="0.6041">
        <ele>113.5</ele>
        <time>2021-05-17T12:33:57.000Z</time>
      </trkpt>
      <trkpt lat="44.89006" lon="0.6041">
        <ele>113.5</ele>
        <time>2021-05-17T12:33:58.000Z</time>
      </trkpt>
      <trkpt lat="44.89006" lon="0.6041">
        <ele>113.5</ele>
        <time>2021-05-17T12:33:59.000Z</time>
      </trkpt>
      <trkpt lat="44.89006" lon="0.6041">
        <ele>113.5</ele>
        <time>2021-05-17T12:34:00.000Z</time>
      </trkpt>
      <trkpt lat="44.89006" lon="0.6041">
        <ele>113.6</ele>
        <time>2021-05-17T12:34:01.000Z</time>
      </trkpt>
      <trkpt lat="44.89006" lon="0.6041">
        <ele>113.6</ele>
        <time>2021-05-17T12:34:02.000Z</time>
      </trkpt>
      <trkpt lat="44.89006" lon="0.60409">
        <ele>113.6</ele>
        <time>2021-05-17T12:34:03.000Z</time>
      </trkpt>
      <trkpt lat="44.89007" lon="0.60409">
        <ele>113.6</ele>
        <time>2021-05-17T12:34:04.000Z</time>
      </trkpt>
      <trkpt lat="44.89006" lon="0.6041">
        <ele>113.6</ele>
        <time>2021-05-17T12:34:05.000Z</time>
      </trkpt>
      <trkpt lat="44.89006" lon="0.6041">
        <ele>113.7</ele>
        <time>2021-05-17T12:34:06.000Z</time>
      </trkpt>
      <trkpt lat="44.89006" lon="0.60409">
        <ele>113.7</ele>
        <time>2021-05-17T12:34:07.000Z</time>
      </trkpt>
      <trkpt lat="44.89005" lon="0.60409">
        <ele>113.7</ele>
        <time>2021-05-17T12:34:08.000Z</time>
      </trkpt>
      <trkpt lat="44.89005" lon="0.60409">
        <ele>113.7</ele>
        <time>2021-05-17T12:34:09.000Z</time>
      </trkpt>
      <trkpt lat="44.89006" lon="0.60408">
        <ele>113.7</ele>
        <time>2021-05-17T12:34:10.000Z</time>
      </trkpt>
      <trkpt lat="44.89006" lon="0.60408">
        <ele>113.7</ele>
        <time>2021-05-17T12:34:11.000Z</time>
      </trkpt>
      <trkpt lat="44.89006" lon="0.60408">
        <ele>113.8</ele>
        <time>2021-05-17T12:34:12.000Z</time>
      </trkpt>
      <trkpt lat="44.89006" lon="0.60409">
        <ele>113.8</ele>
        <time>2021-05-17T12:34:13.000Z</time>
      </trkpt>
      <trkpt lat="44.89006" lon="0.60409">
        <ele>113.8</ele>
        <time>2021-05-17T12:34:14.000Z</time>
      </trkpt>
      <trkpt lat="44.89006" lon="0.60409">
        <ele>113.8</ele>
        <time>2021-05-17T12:34:15.000Z</time>
      </trkpt>
      <trkpt lat="44.89006" lon="0.60409">
        <ele>113.8</ele>
        <time>2021-05-17T12:34:16.000Z</time>
      </trkpt>
      <trkpt lat="44.89006" lon="0.60409">
        <ele>113.9</ele>
        <time>2021-05-17T12:34:17.000Z</time>
      </trkpt>
      <trkpt lat="44.89007" lon="0.60409">
        <ele>113.9</ele>
        <time>2021-05-17T12:34:18.000Z</time>
      </trkpt>
      <trkpt lat="44.89007" lon="0.60409">
        <ele>113.9</ele>
        <time>2021-05-17T12:34:19.000Z</time>
      </trkpt>
      <trkpt lat="44.89007" lon="0.60408">
        <ele>113.9</ele>
        <time>2021-05-17T12:34:20.000Z</time>
      </trkpt>
      <trkpt lat="44.89007" lon="0.60408">
        <ele>113.9</ele>
        <time>2021-05-17T12:34:21.000Z</time>
      </trkpt>
      <trkpt lat="44.89006" lon="0.60409">
        <ele>114</ele>
        <time>2021-05-17T12:34:22.000Z</time>
      </trkpt>
      <trkpt lat="44.89007" lon="0.60409">
        <ele>114</ele>
        <time>2021-05-17T12:34:23.000Z</time>
      </trkpt>
      <trkpt lat="44.89007" lon="0.60408">
        <ele>114</ele>
        <time>2021-05-17T12:34:24.000Z</time>
      </trkpt>
      <trkpt lat="44.89007" lon="0.60408">
        <ele>114</ele>
        <time>2021-05-17T12:34:25.000Z</time>
      </trkpt>
      <trkpt lat="44.89007" lon="0.60408">
        <ele>114</ele>
        <time>2021-05-17T12:34:26.000Z</time>
      </trkpt>
      <trkpt lat="44.89007" lon="0.60408">
        <ele>114.1</ele>
        <time>2021-05-17T12:34:27.000Z</time>
      </trkpt>
      <trkpt lat="44.89007" lon="0.60407">
        <ele>114.1</ele>
        <time>2021-05-17T12:34:28.000Z</time>
      </trkpt>
      <trkpt lat="44.89007" lon="0.60407">
        <ele>114.1</ele>
        <time>2021-05-17T12:34:29.000Z</time>
      </trkpt>
      <trkpt lat="44.89007" lon="0.60405">
        <ele>114.1</ele>
        <time>2021-05-17T12:34:30.000Z</time>
      </trkpt>
      <trkpt lat="44.89007" lon="0.60405">
        <ele>114.1</ele>
        <time>2021-05-17T12:34:31.000Z</time>
      </trkpt>
      <trkpt lat="44.89007" lon="0.60406">
        <ele>114.2</ele>
        <time>2021-05-17T12:34:32.000Z</time>
      </trkpt>
      <trkpt lat="44.89007" lon="0.60406">
        <ele>114.2</ele>
        <time>2021-05-17T12:34:33.000Z</time>
      </trkpt>
      <trkpt lat="44.89006" lon="0.60407">
        <ele>114.2</ele>
        <time>2021-05-17T12:34:34.000Z</time>
      </trkpt>
      <trkpt lat="44.89006" lon="0.60407">
        <ele>114.2</ele>
        <time>2021-05-17T12:34:35.000Z</time>
      </trkpt>
      <trkpt lat="44.89006" lon="0.60407">
        <ele>114.2</ele>
        <time>2021-05-17T12:34:36.000Z</time>
      </trkpt>
      <trkpt lat="44.89006" lon="0.60407">
        <ele>114.3</ele>
        <time>2021-05-17T12:34:37.000Z</time>
      </trkpt>
      <trkpt lat="44.89006" lon="0.60407">
        <ele>114.3</ele>
        <time>2021-05-17T12:34:38.000Z</time>
      </trkpt>
      <trkpt lat="44.89006" lon="0.60407">
        <ele>114.3</ele>
        <time>2021-05-17T12:34:39.000Z</time>
      </trkpt>
      <trkpt lat="44.89006" lon="0.60407">
        <ele>114.3</ele>
        <time>2021-05-17T12:34:40.000Z</time>
      </trkpt>
      <trkpt lat="44.89007" lon="0.60408">
        <ele>114.3</ele>
        <time>2021-05-17T12:34:41.000Z</time>
      </trkpt>
      <trkpt lat="44.89007" lon="0.60408">
        <ele>114.4</ele>
        <time>2021-05-17T12:34:42.000Z</time>
      </trkpt>
      <trkpt lat="44.89007" lon="0.60408">
        <ele>114.4</ele>
        <time>2021-05-17T12:34:43.000Z</time>
      </trkpt>
      <trkpt lat="44.89007" lon="0.60408">
        <ele>114.4</ele>
        <time>2021-05-17T12:34:44.000Z</time>
      </trkpt>
      <trkpt lat="44.89006" lon="0.60408">
        <ele>114.4</ele>
        <time>2021-05-17T12:34:45.000Z</time>
      </trkpt>
      <trkpt lat="44.89007" lon="0.60409">
        <ele>114.4</ele>
        <time>2021-05-17T12:34:46.000Z</time>
      </trkpt>
      <trkpt lat="44.89006" lon="0.60409">
        <ele>114.5</ele>
        <time>2021-05-17T12:34:47.000Z</time>
      </trkpt>
      <trkpt lat="44.89007" lon="0.60408">
        <ele>114.5</ele>
        <time>2021-05-17T12:34:48.000Z</time>
      </trkpt>
      <trkpt lat="44.89007" lon="0.60409">
        <ele>114.5</ele>
        <time>2021-05-17T12:34:49.000Z</time>
      </trkpt>
      <trkpt lat="44.89007" lon="0.60409">
        <ele>114.5</ele>
        <time>2021-05-17T12:34:50.000Z</time>
      </trkpt>
      <trkpt lat="44.89007" lon="0.60408">
        <ele>114.5</ele>
        <time>2021-05-17T12:34:51.000Z</time>
      </trkpt>
      <trkpt lat="44.89007" lon="0.60408">
        <ele>114.5</ele>
        <time>2021-05-17T12:34:53.000Z</time>
      </trkpt>
      <trkpt lat="44.89007" lon="0.60409">
        <ele>114.6</ele>
        <time>2021-05-17T12:34:55.000Z</time>
      </trkpt>
      <trkpt lat="44.89007" lon="0.60409">
        <ele>114.6</ele>
        <time>2021-05-17T12:34:57.000Z</time>
      </trkpt>
      <trkpt lat="44.89007" lon="0.6041">
        <ele>114.6</ele>
        <time>2021-05-17T12:34:58.000Z</time>
      </trkpt>
      <trkpt lat="44.89007" lon="0.6041">
        <ele>114.6</ele>
        <time>2021-05-17T12:34:59.000Z</time>
      </trkpt>
      <trkpt lat="44.89007" lon="0.6041">
        <ele>114.6</ele>
        <time>2021-05-17T12:35:01.000Z</time>
      </trkpt>
      <trkpt lat="44.89007" lon="0.6041">
        <ele>114.7</ele>
        <time>2021-05-17T12:35:03.000Z</time>
      </trkpt>
      <trkpt lat="44.89007" lon="0.6041">
        <ele>114.7</ele>
        <time>2021-05-17T12:35:04.000Z</time>
      </trkpt>
      <trkpt lat="44.89007" lon="0.60409">
        <ele>114.7</ele>
        <time>2021-05-17T12:35:05.000Z</time>
      </trkpt>
      <trkpt lat="44.89007" lon="0.60409">
        <ele>114.7</ele>
        <time>2021-05-17T12:35:06.000Z</time>
      </trkpt>
      <trkpt lat="44.89007" lon="0.60409">
        <ele>114.7</ele>
        <time>2021-05-17T12:35:07.000Z</time>
      </trkpt>
      <trkpt lat="44.89007" lon="0.60409">
        <ele>114.8</ele>
        <time>2021-05-17T12:35:08.000Z</time>
      </trkpt>
      <trkpt lat="44.89007" lon="0.60408">
        <ele>114.8</ele>
        <time>2021-05-17T12:35:09.000Z</time>
      </trkpt>
      <trkpt lat="44.89007" lon="0.60408">
        <ele>114.8</ele>
        <time>2021-05-17T12:35:10.000Z</time>
      </trkpt>
      <trkpt lat="44.89007" lon="0.60408">
        <ele>114.8</ele>
        <time>2021-05-17T12:35:11.000Z</time>
      </trkpt>
      <trkpt lat="44.89006" lon="0.60409">
        <ele>114.8</ele>
        <time>2021-05-17T12:35:12.000Z</time>
      </trkpt>
      <trkpt lat="44.89006" lon="0.60409">
        <ele>114.9</ele>
        <time>2021-05-17T12:35:13.000Z</time>
      </trkpt>
      <trkpt lat="44.89006" lon="0.60409">
        <ele>114.9</ele>
        <time>2021-05-17T12:35:14.000Z</time>
      </trkpt>
      <trkpt lat="44.89006" lon="0.60409">
        <ele>114.9</ele>
        <time>2021-05-17T12:35:15.000Z</time>
      </trkpt>
      <trkpt lat="44.89006" lon="0.60409">
        <ele>114.9</ele>
        <time>2021-05-17T12:35:16.000Z</time>
      </trkpt>
      <trkpt lat="44.89006" lon="0.60409">
        <ele>114.9</ele>
        <time>2021-05-17T12:35:17.000Z</time>
      </trkpt>
      <trkpt lat="44.89006" lon="0.60409">
        <ele>115</ele>
        <time>2021-05-17T12:35:18.000Z</time>
      </trkpt>
      <trkpt lat="44.89006" lon="0.6041">
        <ele>115</ele>
        <time>2021-05-17T12:35:19.000Z</time>
      </trkpt>
      <trkpt lat="44.89006" lon="0.6041">
        <ele>115</ele>
        <time>2021-05-17T12:35:20.000Z</time>
      </trkpt>
      <trkpt lat="44.89006" lon="0.6041">
        <ele>115</ele>
        <time>2021-05-17T12:35:21.000Z</time>
      </trkpt>
      <trkpt lat="44.89006" lon="0.60409">
        <ele>115</ele>
        <time>2021-05-17T12:35:22.000Z</time>
      </trkpt>
      <trkpt lat="44.89006" lon="0.60409">
        <ele>115.1</ele>
        <time>2021-05-17T12:35:23.000Z</time>
      </trkpt>
      <trkpt lat="44.89006" lon="0.60408">
        <ele>115.1</ele>
        <time>2021-05-17T12:35:24.000Z</time>
      </trkpt>
      <trkpt lat="44.89006" lon="0.60408">
        <ele>115.1</ele>
        <time>2021-05-17T12:35:25.000Z</time>
      </trkpt>
      <trkpt lat="44.89006" lon="0.60408">
        <ele>115.1</ele>
        <time>2021-05-17T12:35:26.000Z</time>
      </trkpt>
      <trkpt lat="44.89006" lon="0.60408">
        <ele>115.1</ele>
        <time>2021-05-17T12:35:27.000Z</time>
      </trkpt>
      <trkpt lat="44.89007" lon="0.60408">
        <ele>115.2</ele>
        <time>2021-05-17T12:35:28.000Z</time>
      </trkpt>
      <trkpt lat="44.89006" lon="0.60408">
        <ele>115.2</ele>
        <time>2021-05-17T12:35:29.000Z</time>
      </trkpt>
      <trkpt lat="44.89007" lon="0.60407">
        <ele>115.2</ele>
        <time>2021-05-17T12:35:30.000Z</time>
      </trkpt>
      <trkpt lat="44.89007" lon="0.60407">
        <ele>115.2</ele>
        <time>2021-05-17T12:35:31.000Z</time>
      </trkpt>
      <trkpt lat="44.89007" lon="0.60407">
        <ele>115.2</ele>
        <time>2021-05-17T12:35:32.000Z</time>
      </trkpt>
      <trkpt lat="44.89007" lon="0.60408">
        <ele>115.2</ele>
        <time>2021-05-17T12:35:33.000Z</time>
      </trkpt>
      <trkpt lat="44.89007" lon="0.60408">
        <ele>115.3</ele>
        <time>2021-05-17T12:35:34.000Z</time>
      </trkpt>
      <trkpt lat="44.89007" lon="0.60408">
        <ele>115.3</ele>
        <time>2021-05-17T12:35:35.000Z</time>
      </trkpt>
      <trkpt lat="44.89007" lon="0.60408">
        <ele>115.3</ele>
        <time>2021-05-17T12:35:36.000Z</time>
      </trkpt>
      <trkpt lat="44.89007" lon="0.60408">
        <ele>115.3</ele>
        <time>2021-05-17T12:35:37.000Z</time>
      </trkpt>
      <trkpt lat="44.89007" lon="0.60407">
        <ele>115.3</ele>
        <time>2021-05-17T12:35:38.000Z</time>
      </trkpt>
      <trkpt lat="44.89007" lon="0.60408">
        <ele>115.4</ele>
        <time>2021-05-17T12:35:39.000Z</time>
      </trkpt>
      <trkpt lat="44.89007" lon="0.60408">
        <ele>115.4</ele>
        <time>2021-05-17T12:35:40.000Z</time>
      </trkpt>
      <trkpt lat="44.89007" lon="0.60408">
        <ele>115.4</ele>
        <time>2021-05-17T12:35:41.000Z</time>
      </trkpt>
      <trkpt lat="44.89007" lon="0.60409">
        <ele>115.4</ele>
        <time>2021-05-17T12:35:42.000Z</time>
      </trkpt>
      <trkpt lat="44.89007" lon="0.60409">
        <ele>115.4</ele>
        <time>2021-05-17T12:35:43.000Z</time>
      </trkpt>
      <trkpt lat="44.89007" lon="0.60409">
        <ele>115.5</ele>
        <time>2021-05-17T12:35:44.000Z</time>
      </trkpt>
      <trkpt lat="44.89007" lon="0.60409">
        <ele>115.5</ele>
        <time>2021-05-17T12:35:45.000Z</time>
      </trkpt>
      <trkpt lat="44.89008" lon="0.60408">
        <ele>115.5</ele>
        <time>2021-05-17T12:35:46.000Z</time>
      </trkpt>
      <trkpt lat="44.89008" lon="0.60408">
        <ele>115.5</ele>
        <time>2021-05-17T12:35:47.000Z</time>
      </trkpt>
      <trkpt lat="44.89008" lon="0.60408">
        <ele>115.5</ele>
        <time>2021-05-17T12:35:48.000Z</time>
      </trkpt>
      <trkpt lat="44.89008" lon="0.60408">
        <ele>115.6</ele>
        <time>2021-05-17T12:35:49.000Z</time>
      </trkpt>
      <trkpt lat="44.89007" lon="0.60408">
        <ele>115.6</ele>
        <time>2021-05-17T12:35:50.000Z</time>
      </trkpt>
      <trkpt lat="44.89007" lon="0.60409">
        <ele>115.6</ele>
        <time>2021-05-17T12:35:51.000Z</time>
      </trkpt>
      <trkpt lat="44.89007" lon="0.60409">
        <ele>115.6</ele>
        <time>2021-05-17T12:35:52.000Z</time>
      </trkpt>
      <trkpt lat="44.89007" lon="0.60409">
        <ele>115.6</ele>
        <time>2021-05-17T12:35:53.000Z</time>
      </trkpt>
      <trkpt lat="44.89007" lon="0.60409">
        <ele>115.7</ele>
        <time>2021-05-17T12:35:54.000Z</time>
      </trkpt>
      <trkpt lat="44.89007" lon="0.6041">
        <ele>115.7</ele>
        <time>2021-05-17T12:35:55.000Z</time>
      </trkpt>
      <trkpt lat="44.89007" lon="0.6041">
        <ele>115.7</ele>
        <time>2021-05-17T12:35:56.000Z</time>
      </trkpt>
      <trkpt lat="44.89007" lon="0.6041">
        <ele>115.7</ele>
        <time>2021-05-17T12:35:57.000Z</time>
      </trkpt>
      <trkpt lat="44.89007" lon="0.6041">
        <ele>115.7</ele>
        <time>2021-05-17T12:35:58.000Z</time>
      </trkpt>
      <trkpt lat="44.89007" lon="0.6041">
        <ele>115.8</ele>
        <time>2021-05-17T12:35:59.000Z</time>
      </trkpt>
      <trkpt lat="44.89007" lon="0.6041">
        <ele>115.8</ele>
        <time>2021-05-17T12:36:00.000Z</time>
      </trkpt>
      <trkpt lat="44.89007" lon="0.6041">
        <ele>115.8</ele>
        <time>2021-05-17T12:36:01.000Z</time>
      </trkpt>
      <trkpt lat="44.89007" lon="0.6041">
        <ele>115.8</ele>
        <time>2021-05-17T12:36:02.000Z</time>
      </trkpt>
      <trkpt lat="44.89007" lon="0.6041">
        <ele>115.8</ele>
        <time>2021-05-17T12:36:03.000Z</time>
      </trkpt>
      <trkpt lat="44.89007" lon="0.6041">
        <ele>115.9</ele>
        <time>2021-05-17T12:36:04.000Z</time>
      </trkpt>
      <trkpt lat="44.89007" lon="0.6041">
        <ele>115.9</ele>
        <time>2021-05-17T12:36:05.000Z</time>
      </trkpt>
      <trkpt lat="44.89007" lon="0.6041">
        <ele>115.9</ele>
        <time>2021-05-17T12:36:06.000Z</time>
      </trkpt>
      <trkpt lat="44.89007" lon="0.60409">
        <ele>115.9</ele>
        <time>2021-05-17T12:36:07.000Z</time>
      </trkpt>
      <trkpt lat="44.89006" lon="0.6041">
        <ele>115.9</ele>
        <time>2021-05-17T12:36:08.000Z</time>
      </trkpt>
      <trkpt lat="44.89007" lon="0.6041">
        <ele>116</ele>
        <time>2021-05-17T12:36:09.000Z</time>
      </trkpt>
      <trkpt lat="44.89007" lon="0.60409">
        <ele>116</ele>
        <time>2021-05-17T12:36:10.000Z</time>
      </trkpt>
      <trkpt lat="44.89007" lon="0.60409">
        <ele>116</ele>
        <time>2021-05-17T12:36:11.000Z</time>
      </trkpt>
      <trkpt lat="44.89007" lon="0.60409">
        <ele>116</ele>
        <time>2021-05-17T12:36:12.000Z</time>
      </trkpt>
      <trkpt lat="44.89007" lon="0.60409">
        <ele>116</ele>
        <time>2021-05-17T12:36:13.000Z</time>
      </trkpt>
      <trkpt lat="44.89007" lon="0.60409">
        <ele>116</ele>
        <time>2021-05-17T12:36:14.000Z</time>
      </trkpt>
      <trkpt lat="44.89007" lon="0.60409">
        <ele>116.1</ele>
        <time>2021-05-17T12:36:15.000Z</time>
      </trkpt>
      <trkpt lat="44.89007" lon="0.60409">
        <ele>116.1</ele>
        <time>2021-05-17T12:36:16.000Z</time>
      </trkpt>
      <trkpt lat="44.89007" lon="0.60409">
        <ele>116.1</ele>
        <time>2021-05-17T12:36:17.000Z</time>
      </trkpt>
      <trkpt lat="44.89007" lon="0.60409">
        <ele>116.1</ele>
        <time>2021-05-17T12:36:18.000Z</time>
      </trkpt>
      <trkpt lat="44.89007" lon="0.60409">
        <ele>116.1</ele>
        <time>2021-05-17T12:36:19.000Z</time>
      </trkpt>
      <trkpt lat="44.89007" lon="0.60409">
        <ele>116.2</ele>
        <time>2021-05-17T12:36:20.000Z</time>
      </trkpt>
      <trkpt lat="44.89007" lon="0.6041">
        <ele>116.2</ele>
        <time>2021-05-17T12:36:21.000Z</time>
      </trkpt>
      <trkpt lat="44.89007" lon="0.6041">
        <ele>116.2</ele>
        <time>2021-05-17T12:36:22.000Z</time>
      </trkpt>
      <trkpt lat="44.89006" lon="0.6041">
        <ele>116.2</ele>
        <time>2021-05-17T12:36:23.000Z</time>
      </trkpt>
      <trkpt lat="44.89007" lon="0.6041">
        <ele>116.2</ele>
        <time>2021-05-17T12:36:24.000Z</time>
      </trkpt>
      <trkpt lat="44.89007" lon="0.6041">
        <ele>116.3</ele>
        <time>2021-05-17T12:36:25.000Z</time>
      </trkpt>
      <trkpt lat="44.89006" lon="0.6041">
        <ele>116.3</ele>
        <time>2021-05-17T12:36:26.000Z</time>
      </trkpt>
      <trkpt lat="44.89007" lon="0.6041">
        <ele>116.3</ele>
        <time>2021-05-17T12:36:27.000Z</time>
      </trkpt>
      <trkpt lat="44.89007" lon="0.6041">
        <ele>116.3</ele>
        <time>2021-05-17T12:36:28.000Z</time>
      </trkpt>
      <trkpt lat="44.89006" lon="0.6041">
        <ele>116.3</ele>
        <time>2021-05-17T12:36:29.000Z</time>
      </trkpt>
      <trkpt lat="44.89006" lon="0.6041">
        <ele>116.4</ele>
        <time>2021-05-17T12:36:30.000Z</time>
      </trkpt>
      <trkpt lat="44.89006" lon="0.6041">
        <ele>116.4</ele>
        <time>2021-05-17T12:36:31.000Z</time>
      </trkpt>
      <trkpt lat="44.89006" lon="0.6041">
        <ele>116.4</ele>
        <time>2021-05-17T12:36:32.000Z</time>
      </trkpt>
      <trkpt lat="44.89006" lon="0.6041">
        <ele>116.4</ele>
        <time>2021-05-17T12:36:33.000Z</time>
      </trkpt>
      <trkpt lat="44.89006" lon="0.6041">
        <ele>116.4</ele>
        <time>2021-05-17T12:36:34.000Z</time>
      </trkpt>
      <trkpt lat="44.89006" lon="0.60409">
        <ele>116.5</ele>
        <time>2021-05-17T12:36:35.000Z</time>
      </trkpt>
      <trkpt lat="44.89006" lon="0.60409">
        <ele>116.5</ele>
        <time>2021-05-17T12:36:36.000Z</time>
      </trkpt>
      <trkpt lat="44.89006" lon="0.60409">
        <ele>116.5</ele>
        <time>2021-05-17T12:36:37.000Z</time>
      </trkpt>
      <trkpt lat="44.89006" lon="0.60409">
        <ele>116.5</ele>
        <time>2021-05-17T12:36:38.000Z</time>
      </trkpt>
      <trkpt lat="44.89006" lon="0.60408">
        <ele>116.5</ele>
        <time>2021-05-17T12:36:39.000Z</time>
      </trkpt>
      <trkpt lat="44.89006" lon="0.60408">
        <ele>116.6</ele>
        <time>2021-05-17T12:36:40.000Z</time>
      </trkpt>
      <trkpt lat="44.89006" lon="0.60408">
        <ele>116.6</ele>
        <time>2021-05-17T12:36:41.000Z</time>
      </trkpt>
      <trkpt lat="44.89006" lon="0.60408">
        <ele>116.6</ele>
        <time>2021-05-17T12:36:42.000Z</time>
      </trkpt>
      <trkpt lat="44.89006" lon="0.60409">
        <ele>116.6</ele>
        <time>2021-05-17T12:36:43.000Z</time>
      </trkpt>
      <trkpt lat="44.89006" lon="0.60409">
        <ele>116.6</ele>
        <time>2021-05-17T12:36:44.000Z</time>
      </trkpt>
      <trkpt lat="44.89006" lon="0.6041">
        <ele>116.7</ele>
        <time>2021-05-17T12:36:45.000Z</time>
      </trkpt>
      <trkpt lat="44.89006" lon="0.60409">
        <ele>116.7</ele>
        <time>2021-05-17T12:36:46.000Z</time>
      </trkpt>
      <trkpt lat="44.89006" lon="0.6041">
        <ele>116.7</ele>
        <time>2021-05-17T12:36:47.000Z</time>
      </trkpt>
      <trkpt lat="44.89006" lon="0.6041">
        <ele>116.7</ele>
        <time>2021-05-17T12:36:48.000Z</time>
      </trkpt>
      <trkpt lat="44.89006" lon="0.60409">
        <ele>116.7</ele>
        <time>2021-05-17T12:36:49.000Z</time>
      </trkpt>
      <trkpt lat="44.89006" lon="0.60409">
        <ele>116.7</ele>
        <time>2021-05-17T12:36:51.000Z</time>
      </trkpt>
      <trkpt lat="44.89006" lon="0.60409">
        <ele>116.8</ele>
        <time>2021-05-17T12:36:52.000Z</time>
      </trkpt>
      <trkpt lat="44.89006" lon="0.60409">
        <ele>116.8</ele>
        <time>2021-05-17T12:36:53.000Z</time>
      </trkpt>
      <trkpt lat="44.89006" lon="0.60409">
        <ele>116.8</ele>
        <time>2021-05-17T12:36:54.000Z</time>
      </trkpt>
      <trkpt lat="44.89006" lon="0.60409">
        <ele>116.8</ele>
        <time>2021-05-17T12:36:55.000Z</time>
      </trkpt>
      <trkpt lat="44.89006" lon="0.6041">
        <ele>116.8</ele>
        <time>2021-05-17T12:36:56.000Z</time>
      </trkpt>
      <trkpt lat="44.89006" lon="0.6041">
        <ele>116.9</ele>
        <time>2021-05-17T12:36:57.000Z</time>
      </trkpt>
      <trkpt lat="44.89006" lon="0.6041">
        <ele>116.9</ele>
        <time>2021-05-17T12:36:58.000Z</time>
      </trkpt>
      <trkpt lat="44.89006" lon="0.6041">
        <ele>116.9</ele>
        <time>2021-05-17T12:36:59.000Z</time>
      </trkpt>
      <trkpt lat="44.89006" lon="0.60411">
        <ele>116.9</ele>
        <time>2021-05-17T12:37:00.000Z</time>
      </trkpt>
      <trkpt lat="44.89006" lon="0.60411">
        <ele>116.9</ele>
        <time>2021-05-17T12:37:01.000Z</time>
      </trkpt>
      <trkpt lat="44.89006" lon="0.60411">
        <ele>117</ele>
        <time>2021-05-17T12:37:02.000Z</time>
      </trkpt>
      <trkpt lat="44.89006" lon="0.60411">
        <ele>117</ele>
        <time>2021-05-17T12:37:03.000Z</time>
      </trkpt>
      <trkpt lat="44.89006" lon="0.60411">
        <ele>117</ele>
        <time>2021-05-17T12:37:04.000Z</time>
      </trkpt>
      <trkpt lat="44.89006" lon="0.6041">
        <ele>117</ele>
        <time>2021-05-17T12:37:05.000Z</time>
      </trkpt>
      <trkpt lat="44.89006" lon="0.6041">
        <ele>117</ele>
        <time>2021-05-17T12:37:06.000Z</time>
      </trkpt>
      <trkpt lat="44.89006" lon="0.6041">
        <ele>117.1</ele>
        <time>2021-05-17T12:37:07.000Z</time>
      </trkpt>
      <trkpt lat="44.89006" lon="0.60411">
        <ele>117.1</ele>
        <time>2021-05-17T12:37:08.000Z</time>
      </trkpt>
      <trkpt lat="44.89006" lon="0.60411">
        <ele>117.1</ele>
        <time>2021-05-17T12:37:09.000Z</time>
      </trkpt>
      <trkpt lat="44.89006" lon="0.60411">
        <ele>117.1</ele>
        <time>2021-05-17T12:37:10.000Z</time>
      </trkpt>
      <trkpt lat="44.89006" lon="0.6041">
        <ele>117.1</ele>
        <time>2021-05-17T12:37:11.000Z</time>
      </trkpt>
      <trkpt lat="44.89007" lon="0.6041">
        <ele>117.2</ele>
        <time>2021-05-17T12:37:12.000Z</time>
      </trkpt>
      <trkpt lat="44.89007" lon="0.60409">
        <ele>117.2</ele>
        <time>2021-05-17T12:37:13.000Z</time>
      </trkpt>
      <trkpt lat="44.89007" lon="0.60408">
        <ele>117.2</ele>
        <time>2021-05-17T12:37:14.000Z</time>
      </trkpt>
      <trkpt lat="44.89007" lon="0.60408">
        <ele>117.2</ele>
        <time>2021-05-17T12:37:15.000Z</time>
      </trkpt>
      <trkpt lat="44.89007" lon="0.60408">
        <ele>117.2</ele>
        <time>2021-05-17T12:37:16.000Z</time>
      </trkpt>
      <trkpt lat="44.89007" lon="0.60408">
        <ele>117.3</ele>
        <time>2021-05-17T12:37:17.000Z</time>
      </trkpt>
      <trkpt lat="44.89007" lon="0.60408">
        <ele>117.3</ele>
        <time>2021-05-17T12:37:18.000Z</time>
      </trkpt>
      <trkpt lat="44.89007" lon="0.60408">
        <ele>117.3</ele>
        <time>2021-05-17T12:37:19.000Z</time>
      </trkpt>
      <trkpt lat="44.89007" lon="0.60408">
        <ele>117.3</ele>
        <time>2021-05-17T12:37:20.000Z</time>
      </trkpt>
      <trkpt lat="44.89007" lon="0.60408">
        <ele>117.3</ele>
        <time>2021-05-17T12:37:21.000Z</time>
      </trkpt>
      <trkpt lat="44.89007" lon="0.60407">
        <ele>117.3</ele>
        <time>2021-05-17T12:37:22.000Z</time>
      </trkpt>
      <trkpt lat="44.89007" lon="0.60407">
        <ele>117.4</ele>
        <time>2021-05-17T12:37:23.000Z</time>
      </trkpt>
      <trkpt lat="44.89007" lon="0.60407">
        <ele>117.4</ele>
        <time>2021-05-17T12:37:24.000Z</time>
      </trkpt>
      <trkpt lat="44.89007" lon="0.60407">
        <ele>117.4</ele>
        <time>2021-05-17T12:37:25.000Z</time>
      </trkpt>
      <trkpt lat="44.89008" lon="0.60407">
        <ele>117.4</ele>
        <time>2021-05-17T12:37:26.000Z</time>
      </trkpt>
      <trkpt lat="44.89008" lon="0.60407">
        <ele>117.4</ele>
        <time>2021-05-17T12:37:27.000Z</time>
      </trkpt>
      <trkpt lat="44.89008" lon="0.60407">
        <ele>117.5</ele>
        <time>2021-05-17T12:37:28.000Z</time>
      </trkpt>
      <trkpt lat="44.89008" lon="0.60407">
        <ele>117.5</ele>
        <time>2021-05-17T12:37:29.000Z</time>
      </trkpt>
      <trkpt lat="44.89008" lon="0.60406">
        <ele>117.5</ele>
        <time>2021-05-17T12:37:30.000Z</time>
      </trkpt>
      <trkpt lat="44.89008" lon="0.60406">
        <ele>117.5</ele>
        <time>2021-05-17T12:37:31.000Z</time>
      </trkpt>
      <trkpt lat="44.89008" lon="0.60406">
        <ele>117.5</ele>
        <time>2021-05-17T12:37:32.000Z</time>
      </trkpt>
      <trkpt lat="44.89008" lon="0.60405">
        <ele>117.6</ele>
        <time>2021-05-17T12:37:33.000Z</time>
      </trkpt>
      <trkpt lat="44.89009" lon="0.60405">
        <ele>117.5</ele>
        <time>2021-05-17T12:37:34.000Z</time>
      </trkpt>
      <trkpt lat="44.89009" lon="0.60406">
        <ele>117.6</ele>
        <time>2021-05-17T12:37:35.000Z</time>
      </trkpt>
      <trkpt lat="44.89009" lon="0.60406">
        <ele>117.6</ele>
        <time>2021-05-17T12:37:36.000Z</time>
      </trkpt>
      <trkpt lat="44.89009" lon="0.60407">
        <ele>117.6</ele>
        <time>2021-05-17T12:37:37.000Z</time>
      </trkpt>
      <trkpt lat="44.8901" lon="0.60409">
        <ele>117.6</ele>
        <time>2021-05-17T12:37:38.000Z</time>
      </trkpt>
      <trkpt lat="44.89011" lon="0.60414">
        <ele>117.6</ele>
        <time>2021-05-17T12:37:39.000Z</time>
      </trkpt>
      <trkpt lat="44.89012" lon="0.60417">
        <ele>117.6</ele>
        <time>2021-05-17T12:37:40.000Z</time>
      </trkpt>
      <trkpt lat="44.89013" lon="0.60424">
        <ele>117.6</ele>
        <time>2021-05-17T12:37:41.000Z</time>
      </trkpt>
      <trkpt lat="44.89015" lon="0.60429">
        <ele>117.6</ele>
        <time>2021-05-17T12:37:42.000Z</time>
      </trkpt>
      <trkpt lat="44.89016" lon="0.60433">
        <ele>117.6</ele>
        <time>2021-05-17T12:37:43.000Z</time>
      </trkpt>
      <trkpt lat="44.89017" lon="0.60438">
        <ele>117.6</ele>
        <time>2021-05-17T12:37:44.000Z</time>
      </trkpt>
      <trkpt lat="44.89018" lon="0.60444">
        <ele>117.6</ele>
        <time>2021-05-17T12:37:45.000Z</time>
      </trkpt>
      <trkpt lat="44.89018" lon="0.60445">
        <ele>117.6</ele>
        <time>2021-05-17T12:37:46.000Z</time>
      </trkpt>
      <trkpt lat="44.89019" lon="0.60448">
        <ele>117.6</ele>
        <time>2021-05-17T12:37:47.000Z</time>
      </trkpt>
      <trkpt lat="44.8902" lon="0.60453">
        <ele>117.6</ele>
        <time>2021-05-17T12:37:48.000Z</time>
      </trkpt>
      <trkpt lat="44.89021" lon="0.60456">
        <ele>117.6</ele>
        <time>2021-05-17T12:37:49.000Z</time>
      </trkpt>
      <trkpt lat="44.89022" lon="0.60461">
        <ele>117.6</ele>
        <time>2021-05-17T12:37:50.000Z</time>
      </trkpt>
      <trkpt lat="44.89023" lon="0.60464">
        <ele>117.6</ele>
        <time>2021-05-17T12:37:51.000Z</time>
      </trkpt>
      <trkpt lat="44.89022" lon="0.60465">
        <ele>117.6</ele>
        <time>2021-05-17T12:37:52.000Z</time>
      </trkpt>
      <trkpt lat="44.89023" lon="0.60468">
        <ele>117.6</ele>
        <time>2021-05-17T12:37:53.000Z</time>
      </trkpt>
      <trkpt lat="44.89025" lon="0.60473">
        <ele>117.6</ele>
        <time>2021-05-17T12:37:54.000Z</time>
      </trkpt>
      <trkpt lat="44.89025" lon="0.60475">
        <ele>117.6</ele>
        <time>2021-05-17T12:37:55.000Z</time>
      </trkpt>
      <trkpt lat="44.8903" lon="0.60475">
        <ele>117.7</ele>
        <time>2021-05-17T12:37:56.000Z</time>
      </trkpt>
      <trkpt lat="44.89031" lon="0.60474">
        <ele>117.7</ele>
        <time>2021-05-17T12:37:57.000Z</time>
      </trkpt>
      <trkpt lat="44.89035" lon="0.60473">
        <ele>117.7</ele>
        <time>2021-05-17T12:37:58.000Z</time>
      </trkpt>
      <trkpt lat="44.89038" lon="0.60475">
        <ele>117.8</ele>
        <time>2021-05-17T12:37:59.000Z</time>
      </trkpt>
      <trkpt lat="44.89039" lon="0.60475">
        <ele>117.8</ele>
        <time>2021-05-17T12:38:00.000Z</time>
      </trkpt>
      <trkpt lat="44.89043" lon="0.60474">
        <ele>117.8</ele>
        <time>2021-05-17T12:38:01.000Z</time>
      </trkpt>
      <trkpt lat="44.89045" lon="0.60473">
        <ele>117.8</ele>
        <time>2021-05-17T12:38:02.000Z</time>
      </trkpt>
      <trkpt lat="44.89049" lon="0.60471">
        <ele>117.8</ele>
        <time>2021-05-17T12:38:03.000Z</time>
      </trkpt>
      <trkpt lat="44.89052" lon="0.60469">
        <ele>117.8</ele>
        <time>2021-05-17T12:38:04.000Z</time>
      </trkpt>
      <trkpt lat="44.89056" lon="0.60468">
        <ele>117.8</ele>
        <time>2021-05-17T12:38:05.000Z</time>
      </trkpt>
      <trkpt lat="44.89059" lon="0.60467">
        <ele>117.8</ele>
        <time>2021-05-17T12:38:06.000Z</time>
      </trkpt>
      <trkpt lat="44.89061" lon="0.60466">
        <ele>117.8</ele>
        <time>2021-05-17T12:38:07.000Z</time>
      </trkpt>
      <trkpt lat="44.89064" lon="0.60464">
        <ele>117.8</ele>
        <time>2021-05-17T12:38:08.000Z</time>
      </trkpt>
      <trkpt lat="44.89065" lon="0.60463">
        <ele>117.7</ele>
        <time>2021-05-17T12:38:09.000Z</time>
      </trkpt>
      <trkpt lat="44.89067" lon="0.60461">
        <ele>117.7</ele>
        <time>2021-05-17T12:38:10.000Z</time>
      </trkpt>
      <trkpt lat="44.89068" lon="0.6046">
        <ele>117.8</ele>
        <time>2021-05-17T12:38:11.000Z</time>
      </trkpt>
      <trkpt lat="44.89071" lon="0.60462">
        <ele>117.7</ele>
        <time>2021-05-17T12:38:12.000Z</time>
      </trkpt>
      <trkpt lat="44.89074" lon="0.60467">
        <ele>117.8</ele>
        <time>2021-05-17T12:38:13.000Z</time>
      </trkpt>
      <trkpt lat="44.89075" lon="0.60471">
        <ele>117.6</ele>
        <time>2021-05-17T12:38:14.000Z</time>
      </trkpt>
      <trkpt lat="44.89075" lon="0.60473">
        <ele>117.5</ele>
        <time>2021-05-17T12:38:15.000Z</time>
      </trkpt>
      <trkpt lat="44.89078" lon="0.60476">
        <ele>117.3</ele>
        <time>2021-05-17T12:38:16.000Z</time>
      </trkpt>
      <trkpt lat="44.8908" lon="0.60477">
        <ele>117.2</ele>
        <time>2021-05-17T12:38:17.000Z</time>
      </trkpt>
      <trkpt lat="44.89083" lon="0.60481">
        <ele>117</ele>
        <time>2021-05-17T12:38:18.000Z</time>
      </trkpt>
      <trkpt lat="44.89084" lon="0.60482">
        <ele>116.9</ele>
        <time>2021-05-17T12:38:19.000Z</time>
      </trkpt>
      <trkpt lat="44.89097" lon="0.60501">
        <ele>115.7</ele>
        <time>2021-05-17T12:38:20.000Z</time>
      </trkpt>
      <trkpt lat="44.89098" lon="0.60504">
        <ele>115.6</ele>
        <time>2021-05-17T12:38:21.000Z</time>
      </trkpt>
      <trkpt lat="44.89102" lon="0.60509">
        <ele>115.3</ele>
        <time>2021-05-17T12:38:22.000Z</time>
      </trkpt>
      <trkpt lat="44.89105" lon="0.60515">
        <ele>115.1</ele>
        <time>2021-05-17T12:38:23.000Z</time>
      </trkpt>
      <trkpt lat="44.89108" lon="0.60522">
        <ele>114.8</ele>
        <time>2021-05-17T12:38:24.000Z</time>
      </trkpt>
      <trkpt lat="44.89112" lon="0.60527">
        <ele>114.6</ele>
        <time>2021-05-17T12:38:25.000Z</time>
      </trkpt>
      <trkpt lat="44.89115" lon="0.60533">
        <ele>114.4</ele>
        <time>2021-05-17T12:38:26.000Z</time>
      </trkpt>
      <trkpt lat="44.89119" lon="0.60539">
        <ele>114.2</ele>
        <time>2021-05-17T12:38:27.000Z</time>
      </trkpt>
      <trkpt lat="44.89122" lon="0.60545">
        <ele>114</ele>
        <time>2021-05-17T12:38:28.000Z</time>
      </trkpt>
      <trkpt lat="44.89125" lon="0.60552">
        <ele>113.9</ele>
        <time>2021-05-17T12:38:29.000Z</time>
      </trkpt>
      <trkpt lat="44.89127" lon="0.60559">
        <ele>113.7</ele>
        <time>2021-05-17T12:38:30.000Z</time>
      </trkpt>
      <trkpt lat="44.8913" lon="0.60566">
        <ele>113.6</ele>
        <time>2021-05-17T12:38:31.000Z</time>
      </trkpt>
      <trkpt lat="44.89132" lon="0.60573">
        <ele>113.4</ele>
        <time>2021-05-17T12:38:32.000Z</time>
      </trkpt>
      <trkpt lat="44.89135" lon="0.60578">
        <ele>113.2</ele>
        <time>2021-05-17T12:38:33.000Z</time>
      </trkpt>
      <trkpt lat="44.89136" lon="0.60582">
        <ele>113.1</ele>
        <time>2021-05-17T12:38:34.000Z</time>
      </trkpt>
      <trkpt lat="44.89139" lon="0.60587">
        <ele>112.9</ele>
        <time>2021-05-17T12:38:35.000Z</time>
      </trkpt>
      <trkpt lat="44.8914" lon="0.60592">
        <ele>112.7</ele>
        <time>2021-05-17T12:38:36.000Z</time>
      </trkpt>
      <trkpt lat="44.89142" lon="0.60598">
        <ele>112.5</ele>
        <time>2021-05-17T12:38:37.000Z</time>
      </trkpt>
      <trkpt lat="44.89143" lon="0.60605">
        <ele>112.2</ele>
        <time>2021-05-17T12:38:38.000Z</time>
      </trkpt>
      <trkpt lat="44.89144" lon="0.6061">
        <ele>111.9</ele>
        <time>2021-05-17T12:38:39.000Z</time>
      </trkpt>
      <trkpt lat="44.89145" lon="0.60614">
        <ele>111.6</ele>
        <time>2021-05-17T12:38:40.000Z</time>
      </trkpt>
      <trkpt lat="44.89149" lon="0.60618">
        <ele>111</ele>
        <time>2021-05-17T12:38:41.000Z</time>
      </trkpt>
      <trkpt lat="44.89155" lon="0.60621">
        <ele>110.3</ele>
        <time>2021-05-17T12:38:42.000Z</time>
      </trkpt>
      <trkpt lat="44.89158" lon="0.60621">
        <ele>109.7</ele>
        <time>2021-05-17T12:38:43.000Z</time>
      </trkpt>
      <trkpt lat="44.89162" lon="0.60624">
        <ele>109</ele>
        <time>2021-05-17T12:38:44.000Z</time>
      </trkpt>
      <trkpt lat="44.89168" lon="0.60628">
        <ele>107.9</ele>
        <time>2021-05-17T12:38:45.000Z</time>
      </trkpt>
      <trkpt lat="44.89174" lon="0.60633">
        <ele>106.6</ele>
        <time>2021-05-17T12:38:46.000Z</time>
      </trkpt>
      <trkpt lat="44.8918" lon="0.60639">
        <ele>105.2</ele>
        <time>2021-05-17T12:38:47.000Z</time>
      </trkpt>
      <trkpt lat="44.89185" lon="0.60643">
        <ele>104.1</ele>
        <time>2021-05-17T12:38:48.000Z</time>
      </trkpt>
      <trkpt lat="44.89189" lon="0.60646">
        <ele>103.4</ele>
        <time>2021-05-17T12:38:49.000Z</time>
      </trkpt>
      <trkpt lat="44.8919" lon="0.60652">
        <ele>102.8</ele>
        <time>2021-05-17T12:38:50.000Z</time>
      </trkpt>
      <trkpt lat="44.89192" lon="0.6066">
        <ele>101.9</ele>
        <time>2021-05-17T12:38:51.000Z</time>
      </trkpt>
      <trkpt lat="44.89193" lon="0.60667">
        <ele>101.1</ele>
        <time>2021-05-17T12:38:52.000Z</time>
      </trkpt>
      <trkpt lat="44.89196" lon="0.60676">
        <ele>100</ele>
        <time>2021-05-17T12:38:53.000Z</time>
      </trkpt>
      <trkpt lat="44.89201" lon="0.60685">
        <ele>98.8</ele>
        <time>2021-05-17T12:38:54.000Z</time>
      </trkpt>
      <trkpt lat="44.89204" lon="0.60692">
        <ele>97.9</ele>
        <time>2021-05-17T12:38:55.000Z</time>
      </trkpt>
      <trkpt lat="44.89208" lon="0.60698">
        <ele>96.9</ele>
        <time>2021-05-17T12:38:56.000Z</time>
      </trkpt>
      <trkpt lat="44.89211" lon="0.60706">
        <ele>95.8</ele>
        <time>2021-05-17T12:38:57.000Z</time>
      </trkpt>
      <trkpt lat="44.89215" lon="0.60711">
        <ele>94.9</ele>
        <time>2021-05-17T12:38:59.000Z</time>
      </trkpt>
      <trkpt lat="44.89219" lon="0.60718">
        <ele>93.8</ele>
        <time>2021-05-17T12:39:00.000Z</time>
      </trkpt>
      <trkpt lat="44.89221" lon="0.60725">
        <ele>92.9</ele>
        <time>2021-05-17T12:39:01.000Z</time>
      </trkpt>
      <trkpt lat="44.89221" lon="0.60729">
        <ele>92.5</ele>
        <time>2021-05-17T12:39:02.000Z</time>
      </trkpt>
      <trkpt lat="44.89224" lon="0.60733">
        <ele>91.9</ele>
        <time>2021-05-17T12:39:03.000Z</time>
      </trkpt>
      <trkpt lat="44.89225" lon="0.60734">
        <ele>90.9</ele>
        <time>2021-05-17T12:39:04.000Z</time>
      </trkpt>
      <trkpt lat="44.89227" lon="0.60736">
        <ele>90.9</ele>
        <time>2021-05-17T12:39:05.000Z</time>
      </trkpt>
      <trkpt lat="44.89228" lon="0.60736">
        <ele>90.2</ele>
        <time>2021-05-17T12:39:06.000Z</time>
      </trkpt>
      <trkpt lat="44.89229" lon="0.60736">
        <ele>90.1</ele>
        <time>2021-05-17T12:39:07.000Z</time>
      </trkpt>
      <trkpt lat="44.89231" lon="0.60734">
        <ele>89.5</ele>
        <time>2021-05-17T12:39:08.000Z</time>
      </trkpt>
      <trkpt lat="44.89231" lon="0.60733">
        <ele>89.6</ele>
        <time>2021-05-17T12:39:09.000Z</time>
      </trkpt>
      <trkpt lat="44.89231" lon="0.60734">
        <ele>89.6</ele>
        <time>2021-05-17T12:39:10.000Z</time>
      </trkpt>
      <trkpt lat="44.89232" lon="0.60733">
        <ele>89.5</ele>
        <time>2021-05-17T12:39:11.000Z</time>
      </trkpt>
      <trkpt lat="44.89232" lon="0.60732">
        <ele>89.5</ele>
        <time>2021-05-17T12:39:12.000Z</time>
      </trkpt>
      <trkpt lat="44.89232" lon="0.6073">
        <ele>89.4</ele>
        <time>2021-05-17T12:39:13.000Z</time>
      </trkpt>
      <trkpt lat="44.89233" lon="0.60726">
        <ele>89.6</ele>
        <time>2021-05-17T12:39:14.000Z</time>
      </trkpt>
      <trkpt lat="44.89234" lon="0.60723">
        <ele>89</ele>
        <time>2021-05-17T12:39:15.000Z</time>
      </trkpt>
      <trkpt lat="44.89236" lon="0.60719">
        <ele>89.1</ele>
        <time>2021-05-17T12:39:16.000Z</time>
      </trkpt>
      <trkpt lat="44.89238" lon="0.6071">
        <ele>88.5</ele>
        <time>2021-05-17T12:39:17.000Z</time>
      </trkpt>
      <trkpt lat="44.89239" lon="0.60706">
        <ele>88.5</ele>
        <time>2021-05-17T12:39:18.000Z</time>
      </trkpt>
      <trkpt lat="44.8924" lon="0.60702">
        <ele>87.9</ele>
        <time>2021-05-17T12:39:19.000Z</time>
      </trkpt>
      <trkpt lat="44.8924" lon="0.607">
        <ele>87.8</ele>
        <time>2021-05-17T12:39:20.000Z</time>
      </trkpt>
      <trkpt lat="44.89241" lon="0.60697">
        <ele>87.8</ele>
        <time>2021-05-17T12:39:21.000Z</time>
      </trkpt>
      <trkpt lat="44.89242" lon="0.60693">
        <ele>87.8</ele>
        <time>2021-05-17T12:39:22.000Z</time>
      </trkpt>
      <trkpt lat="44.89242" lon="0.60691">
        <ele>87.8</ele>
        <time>2021-05-17T12:39:23.000Z</time>
      </trkpt>
      <trkpt lat="44.89243" lon="0.60686">
        <ele>87</ele>
        <time>2021-05-17T12:39:24.000Z</time>
      </trkpt>
      <trkpt lat="44.89244" lon="0.60682">
        <ele>87</ele>
        <time>2021-05-17T12:39:25.000Z</time>
      </trkpt>
      <trkpt lat="44.89245" lon="0.60676">
        <ele>86.9</ele>
        <time>2021-05-17T12:39:26.000Z</time>
      </trkpt>
      <trkpt lat="44.89244" lon="0.6067">
        <ele>86.9</ele>
        <time>2021-05-17T12:39:27.000Z</time>
      </trkpt>
      <trkpt lat="44.89244" lon="0.60666">
        <ele>86.8</ele>
        <time>2021-05-17T12:39:28.000Z</time>
      </trkpt>
      <trkpt lat="44.89244" lon="0.6066">
        <ele>86.8</ele>
        <time>2021-05-17T12:39:29.000Z</time>
      </trkpt>
      <trkpt lat="44.89245" lon="0.60656">
        <ele>86.7</ele>
        <time>2021-05-17T12:39:30.000Z</time>
      </trkpt>
      <trkpt lat="44.89245" lon="0.60653">
        <ele>86.7</ele>
        <time>2021-05-17T12:39:31.000Z</time>
      </trkpt>
      <trkpt lat="44.89246" lon="0.60652">
        <ele>85.7</ele>
        <time>2021-05-17T12:39:32.000Z</time>
      </trkpt>
      <trkpt lat="44.89247" lon="0.60649">
        <ele>85.7</ele>
        <time>2021-05-17T12:39:33.000Z</time>
      </trkpt>
      <trkpt lat="44.89248" lon="0.60648">
        <ele>85.7</ele>
        <time>2021-05-17T12:39:34.000Z</time>
      </trkpt>
      <trkpt lat="44.89249" lon="0.60647">
        <ele>84.7</ele>
        <time>2021-05-17T12:39:35.000Z</time>
      </trkpt>
      <trkpt lat="44.89251" lon="0.60645">
        <ele>84.7</ele>
        <time>2021-05-17T12:39:36.000Z</time>
      </trkpt>
      <trkpt lat="44.89251" lon="0.60645">
        <ele>84.6</ele>
        <time>2021-05-17T12:39:37.000Z</time>
      </trkpt>
      <trkpt lat="44.89252" lon="0.60644">
        <ele>83.7</ele>
        <time>2021-05-17T12:39:38.000Z</time>
      </trkpt>
      <trkpt lat="44.89253" lon="0.60643">
        <ele>83.6</ele>
        <time>2021-05-17T12:39:39.000Z</time>
      </trkpt>
      <trkpt lat="44.89255" lon="0.60642">
        <ele>82.8</ele>
        <time>2021-05-17T12:39:40.000Z</time>
      </trkpt>
      <trkpt lat="44.89255" lon="0.60641">
        <ele>82.8</ele>
        <time>2021-05-17T12:39:41.000Z</time>
      </trkpt>
      <trkpt lat="44.89255" lon="0.60643">
        <ele>82.7</ele>
        <time>2021-05-17T12:39:42.000Z</time>
      </trkpt>
      <trkpt lat="44.89255" lon="0.60644">
        <ele>82.8</ele>
        <time>2021-05-17T12:39:43.000Z</time>
      </trkpt>
      <trkpt lat="44.89255" lon="0.60646">
        <ele>82.8</ele>
        <time>2021-05-17T12:39:44.000Z</time>
      </trkpt>
      <trkpt lat="44.89255" lon="0.60647">
        <ele>83.5</ele>
        <time>2021-05-17T12:39:45.000Z</time>
      </trkpt>
      <trkpt lat="44.89256" lon="0.60649">
        <ele>82.8</ele>
        <time>2021-05-17T12:39:46.000Z</time>
      </trkpt>
      <trkpt lat="44.89256" lon="0.6065">
        <ele>82.8</ele>
        <time>2021-05-17T12:39:47.000Z</time>
      </trkpt>
      <trkpt lat="44.89256" lon="0.6065">
        <ele>82.7</ele>
        <time>2021-05-17T12:39:48.000Z</time>
      </trkpt>
      <trkpt lat="44.89256" lon="0.60651">
        <ele>82.7</ele>
        <time>2021-05-17T12:39:49.000Z</time>
      </trkpt>
      <trkpt lat="44.89256" lon="0.60653">
        <ele>82.7</ele>
        <time>2021-05-17T12:39:50.000Z</time>
      </trkpt>
      <trkpt lat="44.89256" lon="0.60654">
        <ele>82.7</ele>
        <time>2021-05-17T12:39:51.000Z</time>
      </trkpt>
      <trkpt lat="44.89256" lon="0.60655">
        <ele>82.7</ele>
        <time>2021-05-17T12:39:52.000Z</time>
      </trkpt>
      <trkpt lat="44.89256" lon="0.60656">
        <ele>82.6</ele>
        <time>2021-05-17T12:39:53.000Z</time>
      </trkpt>
      <trkpt lat="44.89256" lon="0.60657">
        <ele>82.7</ele>
        <time>2021-05-17T12:39:54.000Z</time>
      </trkpt>
      <trkpt lat="44.89255" lon="0.60659">
        <ele>82.7</ele>
        <time>2021-05-17T12:39:55.000Z</time>
      </trkpt>
      <trkpt lat="44.89255" lon="0.6066">
        <ele>83.3</ele>
        <time>2021-05-17T12:39:56.000Z</time>
      </trkpt>
      <trkpt lat="44.89254" lon="0.60661">
        <ele>83.3</ele>
        <time>2021-05-17T12:39:57.000Z</time>
      </trkpt>
      <trkpt lat="44.89254" lon="0.60661">
        <ele>83.3</ele>
        <time>2021-05-17T12:39:58.000Z</time>
      </trkpt>
      <trkpt lat="44.89255" lon="0.60666">
        <ele>82.7</ele>
        <time>2021-05-17T12:39:59.000Z</time>
      </trkpt>
      <trkpt lat="44.89256" lon="0.60668">
        <ele>82.7</ele>
        <time>2021-05-17T12:40:00.000Z</time>
      </trkpt>
      <trkpt lat="44.89258" lon="0.6067">
        <ele>82.7</ele>
        <time>2021-05-17T12:40:01.000Z</time>
      </trkpt>
      <trkpt lat="44.89259" lon="0.60673">
        <ele>82.1</ele>
        <time>2021-05-17T12:40:02.000Z</time>
      </trkpt>
      <trkpt lat="44.89259" lon="0.60674">
        <ele>82</ele>
        <time>2021-05-17T12:40:03.000Z</time>
      </trkpt>
      <trkpt lat="44.8926" lon="0.60675">
        <ele>82.1</ele>
        <time>2021-05-17T12:40:04.000Z</time>
      </trkpt>
      <trkpt lat="44.89261" lon="0.60678">
        <ele>81.5</ele>
        <time>2021-05-17T12:40:05.000Z</time>
      </trkpt>
      <trkpt lat="44.89264" lon="0.60679">
        <ele>81.6</ele>
        <time>2021-05-17T12:40:06.000Z</time>
      </trkpt>
      <trkpt lat="44.89265" lon="0.60679">
        <ele>81</ele>
        <time>2021-05-17T12:40:07.000Z</time>
      </trkpt>
      <trkpt lat="44.89266" lon="0.60679">
        <ele>81</ele>
        <time>2021-05-17T12:40:08.000Z</time>
      </trkpt>
      <trkpt lat="44.89267" lon="0.60679">
        <ele>80.9</ele>
        <time>2021-05-17T12:40:09.000Z</time>
      </trkpt>
      <trkpt lat="44.89267" lon="0.60679">
        <ele>80.4</ele>
        <time>2021-05-17T12:40:10.000Z</time>
      </trkpt>
      <trkpt lat="44.89269" lon="0.60679">
        <ele>80.3</ele>
        <time>2021-05-17T12:40:11.000Z</time>
      </trkpt>
      <trkpt lat="44.89271" lon="0.6068">
        <ele>79.7</ele>
        <time>2021-05-17T12:40:12.000Z</time>
      </trkpt>
      <trkpt lat="44.89272" lon="0.60679">
        <ele>79.7</ele>
        <time>2021-05-17T12:40:13.000Z</time>
      </trkpt>
      <trkpt lat="44.89274" lon="0.6068">
        <ele>79.1</ele>
        <time>2021-05-17T12:40:14.000Z</time>
      </trkpt>
      <trkpt lat="44.89276" lon="0.60679">
        <ele>78.5</ele>
        <time>2021-05-17T12:40:15.000Z</time>
      </trkpt>
      <trkpt lat="44.89278" lon="0.60678">
        <ele>78.4</ele>
        <time>2021-05-17T12:40:16.000Z</time>
      </trkpt>
      <trkpt lat="44.89281" lon="0.60679">
        <ele>77.9</ele>
        <time>2021-05-17T12:40:17.000Z</time>
      </trkpt>
      <trkpt lat="44.89284" lon="0.6068">
        <ele>77.4</ele>
        <time>2021-05-17T12:40:18.000Z</time>
      </trkpt>
      <trkpt lat="44.89287" lon="0.60682">
        <ele>77</ele>
        <time>2021-05-17T12:40:19.000Z</time>
      </trkpt>
      <trkpt lat="44.89291" lon="0.60685">
        <ele>76.7</ele>
        <time>2021-05-17T12:40:20.000Z</time>
      </trkpt>
      <trkpt lat="44.89292" lon="0.60687">
        <ele>76.5</ele>
        <time>2021-05-17T12:40:21.000Z</time>
      </trkpt>
      <trkpt lat="44.89295" lon="0.60689">
        <ele>76.3</ele>
        <time>2021-05-17T12:40:22.000Z</time>
      </trkpt>
      <trkpt lat="44.89298" lon="0.6069">
        <ele>76.2</ele>
        <time>2021-05-17T12:40:23.000Z</time>
      </trkpt>
      <trkpt lat="44.89299" lon="0.6069">
        <ele>76.2</ele>
        <time>2021-05-17T12:40:24.000Z</time>
      </trkpt>
      <trkpt lat="44.89302" lon="0.60692">
        <ele>76.1</ele>
        <time>2021-05-17T12:40:25.000Z</time>
      </trkpt>
      <trkpt lat="44.89305" lon="0.60693">
        <ele>75.9</ele>
        <time>2021-05-17T12:40:26.000Z</time>
      </trkpt>
      <trkpt lat="44.89307" lon="0.60694">
        <ele>75.8</ele>
        <time>2021-05-17T12:40:27.000Z</time>
      </trkpt>
      <trkpt lat="44.8931" lon="0.60696">
        <ele>75.6</ele>
        <time>2021-05-17T12:40:28.000Z</time>
      </trkpt>
      <trkpt lat="44.89312" lon="0.60696">
        <ele>75.6</ele>
        <time>2021-05-17T12:40:29.000Z</time>
      </trkpt>
      <trkpt lat="44.89314" lon="0.607">
        <ele>75.3</ele>
        <time>2021-05-17T12:40:30.000Z</time>
      </trkpt>
      <trkpt lat="44.89315" lon="0.60701">
        <ele>75.2</ele>
        <time>2021-05-17T12:40:31.000Z</time>
      </trkpt>
      <trkpt lat="44.89318" lon="0.60704">
        <ele>74.9</ele>
        <time>2021-05-17T12:40:32.000Z</time>
      </trkpt>
      <trkpt lat="44.89321" lon="0.60707">
        <ele>74.6</ele>
        <time>2021-05-17T12:40:33.000Z</time>
      </trkpt>
      <trkpt lat="44.89323" lon="0.60707">
        <ele>74.2</ele>
        <time>2021-05-17T12:40:34.000Z</time>
      </trkpt>
      <trkpt lat="44.89327" lon="0.60709">
        <ele>73.6</ele>
        <time>2021-05-17T12:40:35.000Z</time>
      </trkpt>
      <trkpt lat="44.89331" lon="0.6071">
        <ele>72.5</ele>
        <time>2021-05-17T12:40:36.000Z</time>
      </trkpt>
      <trkpt lat="44.89335" lon="0.60712">
        <ele>71.9</ele>
        <time>2021-05-17T12:40:37.000Z</time>
      </trkpt>
      <trkpt lat="44.89339" lon="0.60714">
        <ele>71.2</ele>
        <time>2021-05-17T12:40:38.000Z</time>
      </trkpt>
      <trkpt lat="44.89343" lon="0.60716">
        <ele>70.2</ele>
        <time>2021-05-17T12:40:39.000Z</time>
      </trkpt>
      <trkpt lat="44.89346" lon="0.60718">
        <ele>69.8</ele>
        <time>2021-05-17T12:40:40.000Z</time>
      </trkpt>
      <trkpt lat="44.8935" lon="0.6072">
        <ele>69.4</ele>
        <time>2021-05-17T12:40:41.000Z</time>
      </trkpt>
      <trkpt lat="44.89354" lon="0.60722">
        <ele>69.1</ele>
        <time>2021-05-17T12:40:42.000Z</time>
      </trkpt>
      <trkpt lat="44.89357" lon="0.60724">
        <ele>68.9</ele>
        <time>2021-05-17T12:40:43.000Z</time>
      </trkpt>
      <trkpt lat="44.89361" lon="0.60726">
        <ele>68.7</ele>
        <time>2021-05-17T12:40:44.000Z</time>
      </trkpt>
      <trkpt lat="44.89365" lon="0.60727">
        <ele>68.6</ele>
        <time>2021-05-17T12:40:45.000Z</time>
      </trkpt>
      <trkpt lat="44.89369" lon="0.60729">
        <ele>68.6</ele>
        <time>2021-05-17T12:40:46.000Z</time>
      </trkpt>
      <trkpt lat="44.89372" lon="0.60731">
        <ele>68.7</ele>
        <time>2021-05-17T12:40:47.000Z</time>
      </trkpt>
      <trkpt lat="44.89376" lon="0.60733">
        <ele>68.7</ele>
        <time>2021-05-17T12:40:48.000Z</time>
      </trkpt>
      <trkpt lat="44.89379" lon="0.60733">
        <ele>68.7</ele>
        <time>2021-05-17T12:40:49.000Z</time>
      </trkpt>
      <trkpt lat="44.89381" lon="0.60735">
        <ele>68.8</ele>
        <time>2021-05-17T12:40:50.000Z</time>
      </trkpt>
      <trkpt lat="44.89385" lon="0.60738">
        <ele>68.9</ele>
        <time>2021-05-17T12:40:51.000Z</time>
      </trkpt>
      <trkpt lat="44.89388" lon="0.6074">
        <ele>68.9</ele>
        <time>2021-05-17T12:40:52.000Z</time>
      </trkpt>
      <trkpt lat="44.89389" lon="0.60741">
        <ele>68.9</ele>
        <time>2021-05-17T12:40:53.000Z</time>
      </trkpt>
      <trkpt lat="44.89393" lon="0.60743">
        <ele>68.9</ele>
        <time>2021-05-17T12:40:54.000Z</time>
      </trkpt>
      <trkpt lat="44.89394" lon="0.60744">
        <ele>68.9</ele>
        <time>2021-05-17T12:40:55.000Z</time>
      </trkpt>
      <trkpt lat="44.89397" lon="0.60744">
        <ele>68.8</ele>
        <time>2021-05-17T12:40:56.000Z</time>
      </trkpt>
      <trkpt lat="44.89401" lon="0.60744">
        <ele>68.8</ele>
        <time>2021-05-17T12:40:57.000Z</time>
      </trkpt>
      <trkpt lat="44.89404" lon="0.60744">
        <ele>68.8</ele>
        <time>2021-05-17T12:40:58.000Z</time>
      </trkpt>
      <trkpt lat="44.89408" lon="0.60742">
        <ele>68.7</ele>
        <time>2021-05-17T12:40:59.000Z</time>
      </trkpt>
      <trkpt lat="44.89409" lon="0.60741">
        <ele>68.7</ele>
        <time>2021-05-17T12:41:00.000Z</time>
      </trkpt>
      <trkpt lat="44.89411" lon="0.60741">
        <ele>68.7</ele>
        <time>2021-05-17T12:41:01.000Z</time>
      </trkpt>
      <trkpt lat="44.89412" lon="0.6074">
        <ele>68.7</ele>
        <time>2021-05-17T12:41:03.000Z</time>
      </trkpt>
      <trkpt lat="44.89414" lon="0.60737">
        <ele>68.7</ele>
        <time>2021-05-17T12:41:04.000Z</time>
      </trkpt>
      <trkpt lat="44.89415" lon="0.60733">
        <ele>68.7</ele>
        <time>2021-05-17T12:41:05.000Z</time>
      </trkpt>
      <trkpt lat="44.89416" lon="0.60729">
        <ele>68.7</ele>
        <time>2021-05-17T12:41:06.000Z</time>
      </trkpt>
      <trkpt lat="44.89418" lon="0.60724">
        <ele>68.7</ele>
        <time>2021-05-17T12:41:07.000Z</time>
      </trkpt>
      <trkpt lat="44.89419" lon="0.60719">
        <ele>68.7</ele>
        <time>2021-05-17T12:41:08.000Z</time>
      </trkpt>
      <trkpt lat="44.89421" lon="0.60714">
        <ele>68.7</ele>
        <time>2021-05-17T12:41:09.000Z</time>
      </trkpt>
      <trkpt lat="44.89422" lon="0.6071">
        <ele>68.7</ele>
        <time>2021-05-17T12:41:10.000Z</time>
      </trkpt>
      <trkpt lat="44.89424" lon="0.60706">
        <ele>68.7</ele>
        <time>2021-05-17T12:41:11.000Z</time>
      </trkpt>
      <trkpt lat="44.89426" lon="0.60701">
        <ele>68.7</ele>
        <time>2021-05-17T12:41:12.000Z</time>
      </trkpt>
      <trkpt lat="44.89428" lon="0.60698">
        <ele>68.7</ele>
        <time>2021-05-17T12:41:13.000Z</time>
      </trkpt>
      <trkpt lat="44.8943" lon="0.60692">
        <ele>68.8</ele>
        <time>2021-05-17T12:41:14.000Z</time>
      </trkpt>
      <trkpt lat="44.89433" lon="0.60687">
        <ele>68.8</ele>
        <time>2021-05-17T12:41:15.000Z</time>
      </trkpt>
      <trkpt lat="44.89435" lon="0.60681">
        <ele>68.9</ele>
        <time>2021-05-17T12:41:16.000Z</time>
      </trkpt>
      <trkpt lat="44.89438" lon="0.60675">
        <ele>69</ele>
        <time>2021-05-17T12:41:17.000Z</time>
      </trkpt>
      <trkpt lat="44.8944" lon="0.60669">
        <ele>69</ele>
        <time>2021-05-17T12:41:18.000Z</time>
      </trkpt>
      <trkpt lat="44.89442" lon="0.60664">
        <ele>69.1</ele>
        <time>2021-05-17T12:41:19.000Z</time>
      </trkpt>
      <trkpt lat="44.89444" lon="0.60658">
        <ele>69.2</ele>
        <time>2021-05-17T12:41:20.000Z</time>
      </trkpt>
      <trkpt lat="44.89446" lon="0.60653">
        <ele>69.3</ele>
        <time>2021-05-17T12:41:21.000Z</time>
      </trkpt>
      <trkpt lat="44.89449" lon="0.60649">
        <ele>69.4</ele>
        <time>2021-05-17T12:41:22.000Z</time>
      </trkpt>
      <trkpt lat="44.89451" lon="0.60644">
        <ele>69.6</ele>
        <time>2021-05-17T12:41:23.000Z</time>
      </trkpt>
      <trkpt lat="44.89453" lon="0.60639">
        <ele>69.7</ele>
        <time>2021-05-17T12:41:24.000Z</time>
      </trkpt>
      <trkpt lat="44.89455" lon="0.60634">
        <ele>69.8</ele>
        <time>2021-05-17T12:41:25.000Z</time>
      </trkpt>
      <trkpt lat="44.89459" lon="0.60623">
        <ele>70.1</ele>
        <time>2021-05-17T12:41:26.000Z</time>
      </trkpt>
      <trkpt lat="44.8946" lon="0.60617">
        <ele>70.2</ele>
        <time>2021-05-17T12:41:27.000Z</time>
      </trkpt>
      <trkpt lat="44.8946" lon="0.60612">
        <ele>70.3</ele>
        <time>2021-05-17T12:41:28.000Z</time>
      </trkpt>
      <trkpt lat="44.89462" lon="0.60607">
        <ele>70.5</ele>
        <time>2021-05-17T12:41:29.000Z</time>
      </trkpt>
      <trkpt lat="44.89462" lon="0.60601">
        <ele>70.6</ele>
        <time>2021-05-17T12:41:30.000Z</time>
      </trkpt>
      <trkpt lat="44.89462" lon="0.60596">
        <ele>70.7</ele>
        <time>2021-05-17T12:41:31.000Z</time>
      </trkpt>
      <trkpt lat="44.89462" lon="0.6059">
        <ele>70.9</ele>
        <time>2021-05-17T12:41:32.000Z</time>
      </trkpt>
      <trkpt lat="44.89461" lon="0.60586">
        <ele>71</ele>
        <time>2021-05-17T12:41:33.000Z</time>
      </trkpt>
      <trkpt lat="44.8946" lon="0.60581">
        <ele>71.1</ele>
        <time>2021-05-17T12:41:34.000Z</time>
      </trkpt>
      <trkpt lat="44.89459" lon="0.60576">
        <ele>71.3</ele>
        <time>2021-05-17T12:41:35.000Z</time>
      </trkpt>
      <trkpt lat="44.89458" lon="0.60571">
        <ele>71.4</ele>
        <time>2021-05-17T12:41:36.000Z</time>
      </trkpt>
      <trkpt lat="44.89457" lon="0.60566">
        <ele>71.5</ele>
        <time>2021-05-17T12:41:37.000Z</time>
      </trkpt>
      <trkpt lat="44.89456" lon="0.60561">
        <ele>71.7</ele>
        <time>2021-05-17T12:41:38.000Z</time>
      </trkpt>
      <trkpt lat="44.89455" lon="0.60557">
        <ele>71.8</ele>
        <time>2021-05-17T12:41:39.000Z</time>
      </trkpt>
      <trkpt lat="44.89455" lon="0.60551">
        <ele>72</ele>
        <time>2021-05-17T12:41:40.000Z</time>
      </trkpt>
      <trkpt lat="44.89454" lon="0.60547">
        <ele>72.1</ele>
        <time>2021-05-17T12:41:41.000Z</time>
      </trkpt>
      <trkpt lat="44.89454" lon="0.60545">
        <ele>72.2</ele>
        <time>2021-05-17T12:41:42.000Z</time>
      </trkpt>
      <trkpt lat="44.89453" lon="0.60541">
        <ele>72.3</ele>
        <time>2021-05-17T12:41:43.000Z</time>
      </trkpt>
      <trkpt lat="44.89452" lon="0.60539">
        <ele>72.3</ele>
        <time>2021-05-17T12:41:44.000Z</time>
      </trkpt>
      <trkpt lat="44.89451" lon="0.60534">
        <ele>72.5</ele>
        <time>2021-05-17T12:41:45.000Z</time>
      </trkpt>
      <trkpt lat="44.89451" lon="0.60529">
        <ele>72.6</ele>
        <time>2021-05-17T12:41:46.000Z</time>
      </trkpt>
      <trkpt lat="44.89449" lon="0.60523">
        <ele>72.7</ele>
        <time>2021-05-17T12:41:47.000Z</time>
      </trkpt>
      <trkpt lat="44.89448" lon="0.60518">
        <ele>72.8</ele>
        <time>2021-05-17T12:41:48.000Z</time>
      </trkpt>
      <trkpt lat="44.89448" lon="0.60511">
        <ele>72.9</ele>
        <time>2021-05-17T12:41:49.000Z</time>
      </trkpt>
      <trkpt lat="44.89447" lon="0.60506">
        <ele>72.9</ele>
        <time>2021-05-17T12:41:50.000Z</time>
      </trkpt>
      <trkpt lat="44.89448" lon="0.605">
        <ele>72.9</ele>
        <time>2021-05-17T12:41:51.000Z</time>
      </trkpt>
      <trkpt lat="44.8945" lon="0.60495">
        <ele>72.9</ele>
        <time>2021-05-17T12:41:52.000Z</time>
      </trkpt>
      <trkpt lat="44.89452" lon="0.6049">
        <ele>72.9</ele>
        <time>2021-05-17T12:41:53.000Z</time>
      </trkpt>
      <trkpt lat="44.89454" lon="0.60486">
        <ele>72.9</ele>
        <time>2021-05-17T12:41:54.000Z</time>
      </trkpt>
      <trkpt lat="44.89456" lon="0.60482">
        <ele>72.9</ele>
        <time>2021-05-17T12:41:55.000Z</time>
      </trkpt>
      <trkpt lat="44.89459" lon="0.60477">
        <ele>72.9</ele>
        <time>2021-05-17T12:41:56.000Z</time>
      </trkpt>
      <trkpt lat="44.8946" lon="0.60472">
        <ele>72.9</ele>
        <time>2021-05-17T12:41:57.000Z</time>
      </trkpt>
      <trkpt lat="44.89462" lon="0.60468">
        <ele>72.9</ele>
        <time>2021-05-17T12:41:58.000Z</time>
      </trkpt>
      <trkpt lat="44.89464" lon="0.60464">
        <ele>72.9</ele>
        <time>2021-05-17T12:41:59.000Z</time>
      </trkpt>
      <trkpt lat="44.89467" lon="0.6046">
        <ele>72.8</ele>
        <time>2021-05-17T12:42:00.000Z</time>
      </trkpt>
      <trkpt lat="44.89468" lon="0.60457">
        <ele>72.8</ele>
        <time>2021-05-17T12:42:01.000Z</time>
      </trkpt>
      <trkpt lat="44.8947" lon="0.60455">
        <ele>72.8</ele>
        <time>2021-05-17T12:42:02.000Z</time>
      </trkpt>
      <trkpt lat="44.89472" lon="0.60451">
        <ele>72.8</ele>
        <time>2021-05-17T12:42:03.000Z</time>
      </trkpt>
      <trkpt lat="44.89475" lon="0.60446">
        <ele>72.8</ele>
        <time>2021-05-17T12:42:04.000Z</time>
      </trkpt>
      <trkpt lat="44.89476" lon="0.60444">
        <ele>72.7</ele>
        <time>2021-05-17T12:42:05.000Z</time>
      </trkpt>
      <trkpt lat="44.89478" lon="0.60441">
        <ele>72.7</ele>
        <time>2021-05-17T12:42:06.000Z</time>
      </trkpt>
      <trkpt lat="44.89481" lon="0.60436">
        <ele>72.7</ele>
        <time>2021-05-17T12:42:07.000Z</time>
      </trkpt>
      <trkpt lat="44.89482" lon="0.60433">
        <ele>72.7</ele>
        <time>2021-05-17T12:42:08.000Z</time>
      </trkpt>
      <trkpt lat="44.89484" lon="0.60428">
        <ele>72.7</ele>
        <time>2021-05-17T12:42:09.000Z</time>
      </trkpt>
      <trkpt lat="44.89485" lon="0.60426">
        <ele>72.7</ele>
        <time>2021-05-17T12:42:10.000Z</time>
      </trkpt>
      <trkpt lat="44.89487" lon="0.60422">
        <ele>72.6</ele>
        <time>2021-05-17T12:42:11.000Z</time>
      </trkpt>
      <trkpt lat="44.89489" lon="0.60417">
        <ele>72.6</ele>
        <time>2021-05-17T12:42:12.000Z</time>
      </trkpt>
      <trkpt lat="44.89491" lon="0.60412">
        <ele>72.6</ele>
        <time>2021-05-17T12:42:13.000Z</time>
      </trkpt>
      <trkpt lat="44.89492" lon="0.60411">
        <ele>72.6</ele>
        <time>2021-05-17T12:42:14.000Z</time>
      </trkpt>
      <trkpt lat="44.89493" lon="0.60406">
        <ele>72.6</ele>
        <time>2021-05-17T12:42:15.000Z</time>
      </trkpt>
      <trkpt lat="44.89496" lon="0.60402">
        <ele>72.6</ele>
        <time>2021-05-17T12:42:16.000Z</time>
      </trkpt>
      <trkpt lat="44.89497" lon="0.60402">
        <ele>72.6</ele>
        <time>2021-05-17T12:42:17.000Z</time>
      </trkpt>
      <trkpt lat="44.89499" lon="0.60399">
        <ele>72.6</ele>
        <time>2021-05-17T12:42:18.000Z</time>
      </trkpt>
      <trkpt lat="44.89501" lon="0.60398">
        <ele>73.1</ele>
        <time>2021-05-17T12:42:19.000Z</time>
      </trkpt>
      <trkpt lat="44.89503" lon="0.60397">
        <ele>73.1</ele>
        <time>2021-05-17T12:42:20.000Z</time>
      </trkpt>
      <trkpt lat="44.89506" lon="0.60396">
        <ele>73.9</ele>
        <time>2021-05-17T12:42:21.000Z</time>
      </trkpt>
      <trkpt lat="44.89507" lon="0.60395">
        <ele>74.7</ele>
        <time>2021-05-17T12:42:22.000Z</time>
      </trkpt>
      <trkpt lat="44.8951" lon="0.60393">
        <ele>74.4</ele>
        <time>2021-05-17T12:42:23.000Z</time>
      </trkpt>
      <trkpt lat="44.89513" lon="0.60392">
        <ele>75.1</ele>
        <time>2021-05-17T12:42:24.000Z</time>
      </trkpt>
      <trkpt lat="44.89513" lon="0.60391">
        <ele>75.8</ele>
        <time>2021-05-17T12:42:25.000Z</time>
      </trkpt>
      <trkpt lat="44.89516" lon="0.60392">
        <ele>76.4</ele>
        <time>2021-05-17T12:42:26.000Z</time>
      </trkpt>
      <trkpt lat="44.89517" lon="0.60392">
        <ele>76.5</ele>
        <time>2021-05-17T12:42:27.000Z</time>
      </trkpt>
      <trkpt lat="44.89519" lon="0.60393">
        <ele>77.1</ele>
        <time>2021-05-17T12:42:28.000Z</time>
      </trkpt>
      <trkpt lat="44.89522" lon="0.60391">
        <ele>77.1</ele>
        <time>2021-05-17T12:42:29.000Z</time>
      </trkpt>
      <trkpt lat="44.89523" lon="0.6039">
        <ele>77.6</ele>
        <time>2021-05-17T12:42:30.000Z</time>
      </trkpt>
      <trkpt lat="44.89526" lon="0.60387">
        <ele>78.3</ele>
        <time>2021-05-17T12:42:31.000Z</time>
      </trkpt>
      <trkpt lat="44.89527" lon="0.60386">
        <ele>78.3</ele>
        <time>2021-05-17T12:42:32.000Z</time>
      </trkpt>
      <trkpt lat="44.8953" lon="0.60384">
        <ele>78.7</ele>
        <time>2021-05-17T12:42:33.000Z</time>
      </trkpt>
      <trkpt lat="44.89532" lon="0.60382">
        <ele>79.4</ele>
        <time>2021-05-17T12:42:34.000Z</time>
      </trkpt>
      <trkpt lat="44.89534" lon="0.60379">
        <ele>79.8</ele>
        <time>2021-05-17T12:42:35.000Z</time>
      </trkpt>
      <trkpt lat="44.89536" lon="0.60376">
        <ele>79.5</ele>
        <time>2021-05-17T12:42:36.000Z</time>
      </trkpt>
      <trkpt lat="44.8954" lon="0.60376">
        <ele>80.1</ele>
        <time>2021-05-17T12:42:37.000Z</time>
      </trkpt>
      <trkpt lat="44.89542" lon="0.60376">
        <ele>80.7</ele>
        <time>2021-05-17T12:42:38.000Z</time>
      </trkpt>
      <trkpt lat="44.89545" lon="0.60375">
        <ele>81.3</ele>
        <time>2021-05-17T12:42:39.000Z</time>
      </trkpt>
      <trkpt lat="44.89547" lon="0.60377">
        <ele>82</ele>
        <time>2021-05-17T12:42:40.000Z</time>
      </trkpt>
      <trkpt lat="44.8955" lon="0.60379">
        <ele>83</ele>
        <time>2021-05-17T12:42:41.000Z</time>
      </trkpt>
      <trkpt lat="44.89551" lon="0.6038">
        <ele>83</ele>
        <time>2021-05-17T12:42:42.000Z</time>
      </trkpt>
      <trkpt lat="44.89553" lon="0.60381">
        <ele>83.8</ele>
        <time>2021-05-17T12:42:43.000Z</time>
      </trkpt>
      <trkpt lat="44.89555" lon="0.60381">
        <ele>83.8</ele>
        <time>2021-05-17T12:42:44.000Z</time>
      </trkpt>
      <trkpt lat="44.89558" lon="0.60382">
        <ele>84.8</ele>
        <time>2021-05-17T12:42:45.000Z</time>
      </trkpt>
      <trkpt lat="44.8956" lon="0.60383">
        <ele>85.4</ele>
        <time>2021-05-17T12:42:46.000Z</time>
      </trkpt>
      <trkpt lat="44.89563" lon="0.60381">
        <ele>85.8</ele>
        <time>2021-05-17T12:42:47.000Z</time>
      </trkpt>
      <trkpt lat="44.89564" lon="0.60381">
        <ele>85.8</ele>
        <time>2021-05-17T12:42:48.000Z</time>
      </trkpt>
      <trkpt lat="44.89568" lon="0.6038">
        <ele>86.9</ele>
        <time>2021-05-17T12:42:49.000Z</time>
      </trkpt>
      <trkpt lat="44.8957" lon="0.6038">
        <ele>86.9</ele>
        <time>2021-05-17T12:42:50.000Z</time>
      </trkpt>
      <trkpt lat="44.89572" lon="0.60379">
        <ele>87.4</ele>
        <time>2021-05-17T12:42:51.000Z</time>
      </trkpt>
      <trkpt lat="44.89574" lon="0.60379">
        <ele>87.5</ele>
        <time>2021-05-17T12:42:52.000Z</time>
      </trkpt>
      <trkpt lat="44.89576" lon="0.60377">
        <ele>87.8</ele>
        <time>2021-05-17T12:42:53.000Z</time>
      </trkpt>
      <trkpt lat="44.89577" lon="0.60376">
        <ele>88.3</ele>
        <time>2021-05-17T12:42:54.000Z</time>
      </trkpt>
      <trkpt lat="44.8958" lon="0.60375">
        <ele>88.3</ele>
        <time>2021-05-17T12:42:55.000Z</time>
      </trkpt>
      <trkpt lat="44.89581" lon="0.60374">
        <ele>88.8</ele>
        <time>2021-05-17T12:42:56.000Z</time>
      </trkpt>
      <trkpt lat="44.89584" lon="0.60373">
        <ele>89.1</ele>
        <time>2021-05-17T12:42:57.000Z</time>
      </trkpt>
      <trkpt lat="44.89586" lon="0.60372">
        <ele>89.1</ele>
        <time>2021-05-17T12:42:58.000Z</time>
      </trkpt>
      <trkpt lat="44.8959" lon="0.60371">
        <ele>90</ele>
        <time>2021-05-17T12:42:59.000Z</time>
      </trkpt>
      <trkpt lat="44.89591" lon="0.6037">
        <ele>90</ele>
        <time>2021-05-17T12:43:00.000Z</time>
      </trkpt>
      <trkpt lat="44.89594" lon="0.60369">
        <ele>90.3</ele>
        <time>2021-05-17T12:43:01.000Z</time>
      </trkpt>
      <trkpt lat="44.89598" lon="0.6037">
        <ele>90.9</ele>
        <time>2021-05-17T12:43:02.000Z</time>
      </trkpt>
      <trkpt lat="44.896" lon="0.60373">
        <ele>91.3</ele>
        <time>2021-05-17T12:43:03.000Z</time>
      </trkpt>
      <trkpt lat="44.89603" lon="0.60376">
        <ele>91.8</ele>
        <time>2021-05-17T12:43:04.000Z</time>
      </trkpt>
      <trkpt lat="44.89604" lon="0.60377">
        <ele>91.9</ele>
        <time>2021-05-17T12:43:05.000Z</time>
      </trkpt>
      <trkpt lat="44.89606" lon="0.60381">
        <ele>92.5</ele>
        <time>2021-05-17T12:43:06.000Z</time>
      </trkpt>
      <trkpt lat="44.89607" lon="0.60382">
        <ele>92.7</ele>
        <time>2021-05-17T12:43:07.000Z</time>
      </trkpt>
      <trkpt lat="44.8961" lon="0.60386">
        <ele>93.6</ele>
        <time>2021-05-17T12:43:09.000Z</time>
      </trkpt>
      <trkpt lat="44.89612" lon="0.60386">
        <ele>93.6</ele>
        <time>2021-05-17T12:43:10.000Z</time>
      </trkpt>
      <trkpt lat="44.89614" lon="0.60386">
        <ele>94.3</ele>
        <time>2021-05-17T12:43:11.000Z</time>
      </trkpt>
      <trkpt lat="44.89618" lon="0.60387">
        <ele>94.8</ele>
        <time>2021-05-17T12:43:12.000Z</time>
      </trkpt>
      <trkpt lat="44.89621" lon="0.60387">
        <ele>95.2</ele>
        <time>2021-05-17T12:43:13.000Z</time>
      </trkpt>
      <trkpt lat="44.89625" lon="0.60389">
        <ele>95.6</ele>
        <time>2021-05-17T12:43:14.000Z</time>
      </trkpt>
      <trkpt lat="44.89629" lon="0.60391">
        <ele>96.6</ele>
        <time>2021-05-17T12:43:15.000Z</time>
      </trkpt>
      <trkpt lat="44.89632" lon="0.60392">
        <ele>97</ele>
        <time>2021-05-17T12:43:16.000Z</time>
      </trkpt>
      <trkpt lat="44.89636" lon="0.60393">
        <ele>97.5</ele>
        <time>2021-05-17T12:43:17.000Z</time>
      </trkpt>
      <trkpt lat="44.89637" lon="0.60393">
        <ele>97.5</ele>
        <time>2021-05-17T12:43:18.000Z</time>
      </trkpt>
      <trkpt lat="44.89641" lon="0.60395">
        <ele>97.9</ele>
        <time>2021-05-17T12:43:19.000Z</time>
      </trkpt>
      <trkpt lat="44.89642" lon="0.60395">
        <ele>98.3</ele>
        <time>2021-05-17T12:43:20.000Z</time>
      </trkpt>
      <trkpt lat="44.89645" lon="0.60395">
        <ele>98.7</ele>
        <time>2021-05-17T12:43:21.000Z</time>
      </trkpt>
      <trkpt lat="44.89647" lon="0.60394">
        <ele>99</ele>
        <time>2021-05-17T12:43:22.000Z</time>
      </trkpt>
      <trkpt lat="44.89651" lon="0.60395">
        <ele>99.3</ele>
        <time>2021-05-17T12:43:23.000Z</time>
      </trkpt>
      <trkpt lat="44.89653" lon="0.60397">
        <ele>99.7</ele>
        <time>2021-05-17T12:43:24.000Z</time>
      </trkpt>
      <trkpt lat="44.89656" lon="0.604">
        <ele>100.1</ele>
        <time>2021-05-17T12:43:25.000Z</time>
      </trkpt>
      <trkpt lat="44.89657" lon="0.60401">
        <ele>100.2</ele>
        <time>2021-05-17T12:43:26.000Z</time>
      </trkpt>
      <trkpt lat="44.89657" lon="0.60406">
        <ele>100.4</ele>
        <time>2021-05-17T12:43:27.000Z</time>
      </trkpt>
      <trkpt lat="44.89657" lon="0.60408">
        <ele>100.7</ele>
        <time>2021-05-17T12:43:28.000Z</time>
      </trkpt>
      <trkpt lat="44.89658" lon="0.60412">
        <ele>100.9</ele>
        <time>2021-05-17T12:43:29.000Z</time>
      </trkpt>
      <trkpt lat="44.8966" lon="0.6042">
        <ele>101.4</ele>
        <time>2021-05-17T12:43:30.000Z</time>
      </trkpt>
      <trkpt lat="44.89662" lon="0.60425">
        <ele>102.1</ele>
        <time>2021-05-17T12:43:31.000Z</time>
      </trkpt>
      <trkpt lat="44.89665" lon="0.60428">
        <ele>102.1</ele>
        <time>2021-05-17T12:43:32.000Z</time>
      </trkpt>
      <trkpt lat="44.89668" lon="0.6043">
        <ele>102.4</ele>
        <time>2021-05-17T12:43:33.000Z</time>
      </trkpt>
      <trkpt lat="44.89671" lon="0.60433">
        <ele>102.5</ele>
        <time>2021-05-17T12:43:34.000Z</time>
      </trkpt>
      <trkpt lat="44.89673" lon="0.60436">
        <ele>102.8</ele>
        <time>2021-05-17T12:43:35.000Z</time>
      </trkpt>
      <trkpt lat="44.89675" lon="0.6044">
        <ele>103</ele>
        <time>2021-05-17T12:43:36.000Z</time>
      </trkpt>
      <trkpt lat="44.89679" lon="0.60442">
        <ele>103.2</ele>
        <time>2021-05-17T12:43:37.000Z</time>
      </trkpt>
      <trkpt lat="44.89681" lon="0.60445">
        <ele>103.3</ele>
        <time>2021-05-17T12:43:38.000Z</time>
      </trkpt>
      <trkpt lat="44.89682" lon="0.60446">
        <ele>103.3</ele>
        <time>2021-05-17T12:43:39.000Z</time>
      </trkpt>
      <trkpt lat="44.89685" lon="0.60448">
        <ele>103.5</ele>
        <time>2021-05-17T12:43:40.000Z</time>
      </trkpt>
      <trkpt lat="44.89688" lon="0.60451">
        <ele>103.7</ele>
        <time>2021-05-17T12:43:41.000Z</time>
      </trkpt>
      <trkpt lat="44.89689" lon="0.60452">
        <ele>103.7</ele>
        <time>2021-05-17T12:43:42.000Z</time>
      </trkpt>
      <trkpt lat="44.89692" lon="0.60455">
        <ele>103.9</ele>
        <time>2021-05-17T12:43:43.000Z</time>
      </trkpt>
      <trkpt lat="44.89695" lon="0.60457">
        <ele>104</ele>
        <time>2021-05-17T12:43:44.000Z</time>
      </trkpt>
      <trkpt lat="44.89699" lon="0.60458">
        <ele>104</ele>
        <time>2021-05-17T12:43:45.000Z</time>
      </trkpt>
      <trkpt lat="44.89701" lon="0.60459">
        <ele>104.1</ele>
        <time>2021-05-17T12:43:46.000Z</time>
      </trkpt>
      <trkpt lat="44.89702" lon="0.6046">
        <ele>104.2</ele>
        <time>2021-05-17T12:43:47.000Z</time>
      </trkpt>
      <trkpt lat="44.89706" lon="0.60462">
        <ele>104.3</ele>
        <time>2021-05-17T12:43:48.000Z</time>
      </trkpt>
      <trkpt lat="44.89708" lon="0.60464">
        <ele>104.4</ele>
        <time>2021-05-17T12:43:49.000Z</time>
      </trkpt>
      <trkpt lat="44.8971" lon="0.60465">
        <ele>104.5</ele>
        <time>2021-05-17T12:43:50.000Z</time>
      </trkpt>
      <trkpt lat="44.89713" lon="0.60467">
        <ele>104.5</ele>
        <time>2021-05-17T12:43:51.000Z</time>
      </trkpt>
      <trkpt lat="44.89714" lon="0.60469">
        <ele>104.6</ele>
        <time>2021-05-17T12:43:52.000Z</time>
      </trkpt>
      <trkpt lat="44.89717" lon="0.60471">
        <ele>104.6</ele>
        <time>2021-05-17T12:43:53.000Z</time>
      </trkpt>
      <trkpt lat="44.89719" lon="0.60472">
        <ele>104.6</ele>
        <time>2021-05-17T12:43:54.000Z</time>
      </trkpt>
      <trkpt lat="44.89723" lon="0.60473">
        <ele>104.7</ele>
        <time>2021-05-17T12:43:55.000Z</time>
      </trkpt>
      <trkpt lat="44.89726" lon="0.60474">
        <ele>104.6</ele>
        <time>2021-05-17T12:43:56.000Z</time>
      </trkpt>
      <trkpt lat="44.8973" lon="0.60475">
        <ele>104.5</ele>
        <time>2021-05-17T12:43:57.000Z</time>
      </trkpt>
      <trkpt lat="44.89731" lon="0.60475">
        <ele>104.5</ele>
        <time>2021-05-17T12:43:58.000Z</time>
      </trkpt>
      <trkpt lat="44.89734" lon="0.60479">
        <ele>104.5</ele>
        <time>2021-05-17T12:43:59.000Z</time>
      </trkpt>
      <trkpt lat="44.89735" lon="0.60481">
        <ele>104.5</ele>
        <time>2021-05-17T12:44:00.000Z</time>
      </trkpt>
      <trkpt lat="44.89735" lon="0.60486">
        <ele>104.6</ele>
        <time>2021-05-17T12:44:01.000Z</time>
      </trkpt>
      <trkpt lat="44.89736" lon="0.60488">
        <ele>104.6</ele>
        <time>2021-05-17T12:44:02.000Z</time>
      </trkpt>
      <trkpt lat="44.89736" lon="0.60494">
        <ele>104.7</ele>
        <time>2021-05-17T12:44:03.000Z</time>
      </trkpt>
      <trkpt lat="44.89735" lon="0.60498">
        <ele>104.8</ele>
        <time>2021-05-17T12:44:04.000Z</time>
      </trkpt>
      <trkpt lat="44.89735" lon="0.60502">
        <ele>104.8</ele>
        <time>2021-05-17T12:44:05.000Z</time>
      </trkpt>
      <trkpt lat="44.89736" lon="0.60504">
        <ele>104.8</ele>
        <time>2021-05-17T12:44:06.000Z</time>
      </trkpt>
      <trkpt lat="44.89736" lon="0.60508">
        <ele>104.8</ele>
        <time>2021-05-17T12:44:07.000Z</time>
      </trkpt>
      <trkpt lat="44.89735" lon="0.60512">
        <ele>104.7</ele>
        <time>2021-05-17T12:44:08.000Z</time>
      </trkpt>
      <trkpt lat="44.89735" lon="0.6052">
        <ele>104.4</ele>
        <time>2021-05-17T12:44:09.000Z</time>
      </trkpt>
      <trkpt lat="44.89736" lon="0.60524">
        <ele>104.1</ele>
        <time>2021-05-17T12:44:10.000Z</time>
      </trkpt>
      <trkpt lat="44.89736" lon="0.60526">
        <ele>104.1</ele>
        <time>2021-05-17T12:44:11.000Z</time>
      </trkpt>
      <trkpt lat="44.89736" lon="0.60531">
        <ele>103.8</ele>
        <time>2021-05-17T12:44:12.000Z</time>
      </trkpt>
      <trkpt lat="44.89735" lon="0.60536">
        <ele>103.2</ele>
        <time>2021-05-17T12:44:13.000Z</time>
      </trkpt>
      <trkpt lat="44.89734" lon="0.60539">
        <ele>103.2</ele>
        <time>2021-05-17T12:44:14.000Z</time>
      </trkpt>
      <trkpt lat="44.89734" lon="0.60544">
        <ele>102.8</ele>
        <time>2021-05-17T12:44:15.000Z</time>
      </trkpt>
      <trkpt lat="44.89734" lon="0.60547">
        <ele>102.4</ele>
        <time>2021-05-17T12:44:16.000Z</time>
      </trkpt>
      <trkpt lat="44.89734" lon="0.60554">
        <ele>101.4</ele>
        <time>2021-05-17T12:44:17.000Z</time>
      </trkpt>
      <trkpt lat="44.89733" lon="0.60561">
        <ele>100.9</ele>
        <time>2021-05-17T12:44:18.000Z</time>
      </trkpt>
      <trkpt lat="44.89733" lon="0.60565">
        <ele>100.3</ele>
        <time>2021-05-17T12:44:19.000Z</time>
      </trkpt>
      <trkpt lat="44.89733" lon="0.60566">
        <ele>100.4</ele>
        <time>2021-05-17T12:44:20.000Z</time>
      </trkpt>
      <trkpt lat="44.89734" lon="0.60571">
        <ele>99.1</ele>
        <time>2021-05-17T12:44:21.000Z</time>
      </trkpt>
      <trkpt lat="44.89733" lon="0.60575">
        <ele>98.5</ele>
        <time>2021-05-17T12:44:22.000Z</time>
      </trkpt>
      <trkpt lat="44.89733" lon="0.60577">
        <ele>98.5</ele>
        <time>2021-05-17T12:44:23.000Z</time>
      </trkpt>
      <trkpt lat="44.89731" lon="0.60578">
        <ele>98.5</ele>
        <time>2021-05-17T12:44:24.000Z</time>
      </trkpt>
      <trkpt lat="44.8973" lon="0.60579">
        <ele>98.6</ele>
        <time>2021-05-17T12:44:25.000Z</time>
      </trkpt>
      <trkpt lat="44.89729" lon="0.6058">
        <ele>97.9</ele>
        <time>2021-05-17T12:44:26.000Z</time>
      </trkpt>
      <trkpt lat="44.89726" lon="0.60585">
        <ele>97.4</ele>
        <time>2021-05-17T12:44:27.000Z</time>
      </trkpt>
      <trkpt lat="44.89724" lon="0.60591">
        <ele>96.9</ele>
        <time>2021-05-17T12:44:28.000Z</time>
      </trkpt>
      <trkpt lat="44.89723" lon="0.60594">
        <ele>96.4</ele>
        <time>2021-05-17T12:44:29.000Z</time>
      </trkpt>
      <trkpt lat="44.89721" lon="0.606">
        <ele>96.1</ele>
        <time>2021-05-17T12:44:30.000Z</time>
      </trkpt>
      <trkpt lat="44.89719" lon="0.60605">
        <ele>95.8</ele>
        <time>2021-05-17T12:44:31.000Z</time>
      </trkpt>
      <trkpt lat="44.89716" lon="0.60608">
        <ele>95.5</ele>
        <time>2021-05-17T12:44:32.000Z</time>
      </trkpt>
      <trkpt lat="44.89712" lon="0.60613">
        <ele>95.1</ele>
        <time>2021-05-17T12:44:33.000Z</time>
      </trkpt>
      <trkpt lat="44.89708" lon="0.60617">
        <ele>94.8</ele>
        <time>2021-05-17T12:44:34.000Z</time>
      </trkpt>
      <trkpt lat="44.89709" lon="0.6062">
        <ele>94.3</ele>
        <time>2021-05-17T12:44:35.000Z</time>
      </trkpt>
      <trkpt lat="44.89709" lon="0.60622">
        <ele>93.8</ele>
        <time>2021-05-17T12:44:36.000Z</time>
      </trkpt>
      <trkpt lat="44.89708" lon="0.60627">
        <ele>93.9</ele>
        <time>2021-05-17T12:44:37.000Z</time>
      </trkpt>
      <trkpt lat="44.89707" lon="0.60631">
        <ele>93</ele>
        <time>2021-05-17T12:44:38.000Z</time>
      </trkpt>
      <trkpt lat="44.89707" lon="0.60632">
        <ele>93</ele>
        <time>2021-05-17T12:44:39.000Z</time>
      </trkpt>
      <trkpt lat="44.89705" lon="0.60636">
        <ele>92.6</ele>
        <time>2021-05-17T12:44:40.000Z</time>
      </trkpt>
      <trkpt lat="44.89703" lon="0.60639">
        <ele>92.6</ele>
        <time>2021-05-17T12:44:41.000Z</time>
      </trkpt>
      <trkpt lat="44.89702" lon="0.6064">
        <ele>92.2</ele>
        <time>2021-05-17T12:44:42.000Z</time>
      </trkpt>
      <trkpt lat="44.89698" lon="0.60642">
        <ele>92.1</ele>
        <time>2021-05-17T12:44:43.000Z</time>
      </trkpt>
      <trkpt lat="44.89696" lon="0.60643">
        <ele>92.2</ele>
        <time>2021-05-17T12:44:44.000Z</time>
      </trkpt>
      <trkpt lat="44.89694" lon="0.60641">
        <ele>92.2</ele>
        <time>2021-05-17T12:44:45.000Z</time>
      </trkpt>
      <trkpt lat="44.89693" lon="0.60639">
        <ele>92.2</ele>
        <time>2021-05-17T12:44:46.000Z</time>
      </trkpt>
      <trkpt lat="44.89689" lon="0.60638">
        <ele>92.7</ele>
        <time>2021-05-17T12:44:47.000Z</time>
      </trkpt>
      <trkpt lat="44.89686" lon="0.60638">
        <ele>92.7</ele>
        <time>2021-05-17T12:44:48.000Z</time>
      </trkpt>
      <trkpt lat="44.89683" lon="0.6064">
        <ele>92.2</ele>
        <time>2021-05-17T12:44:49.000Z</time>
      </trkpt>
      <trkpt lat="44.8968" lon="0.6064">
        <ele>92.2</ele>
        <time>2021-05-17T12:44:50.000Z</time>
      </trkpt>
      <trkpt lat="44.89677" lon="0.60642">
        <ele>92.2</ele>
        <time>2021-05-17T12:44:51.000Z</time>
      </trkpt>
      <trkpt lat="44.89675" lon="0.60645">
        <ele>91.7</ele>
        <time>2021-05-17T12:44:52.000Z</time>
      </trkpt>
      <trkpt lat="44.89674" lon="0.60648">
        <ele>91.7</ele>
        <time>2021-05-17T12:44:53.000Z</time>
      </trkpt>
      <trkpt lat="44.89675" lon="0.60653">
        <ele>90.7</ele>
        <time>2021-05-17T12:44:54.000Z</time>
      </trkpt>
      <trkpt lat="44.89677" lon="0.60658">
        <ele>90.1</ele>
        <time>2021-05-17T12:44:55.000Z</time>
      </trkpt>
      <trkpt lat="44.8968" lon="0.60661">
        <ele>89.7</ele>
        <time>2021-05-17T12:44:56.000Z</time>
      </trkpt>
      <trkpt lat="44.89682" lon="0.60664">
        <ele>89.8</ele>
        <time>2021-05-17T12:44:57.000Z</time>
      </trkpt>
      <trkpt lat="44.89683" lon="0.60667">
        <ele>89.3</ele>
        <time>2021-05-17T12:44:58.000Z</time>
      </trkpt>
      <trkpt lat="44.89684" lon="0.60668">
        <ele>89.4</ele>
        <time>2021-05-17T12:44:59.000Z</time>
      </trkpt>
      <trkpt lat="44.89684" lon="0.60668">
        <ele>89.4</ele>
        <time>2021-05-17T12:45:00.000Z</time>
      </trkpt>
      <trkpt lat="44.89685" lon="0.6067">
        <ele>88.9</ele>
        <time>2021-05-17T12:45:01.000Z</time>
      </trkpt>
      <trkpt lat="44.89687" lon="0.60672">
        <ele>89</ele>
        <time>2021-05-17T12:45:02.000Z</time>
      </trkpt>
      <trkpt lat="44.89688" lon="0.60673">
        <ele>89.1</ele>
        <time>2021-05-17T12:45:03.000Z</time>
      </trkpt>
      <trkpt lat="44.89689" lon="0.60674">
        <ele>88.6</ele>
        <time>2021-05-17T12:45:04.000Z</time>
      </trkpt>
      <trkpt lat="44.89689" lon="0.60675">
        <ele>88.6</ele>
        <time>2021-05-17T12:45:05.000Z</time>
      </trkpt>
      <trkpt lat="44.89691" lon="0.60678">
        <ele>88.8</ele>
        <time>2021-05-17T12:45:06.000Z</time>
      </trkpt>
      <trkpt lat="44.89691" lon="0.60679">
        <ele>88.3</ele>
        <time>2021-05-17T12:45:07.000Z</time>
      </trkpt>
      <trkpt lat="44.89691" lon="0.6068">
        <ele>88.4</ele>
        <time>2021-05-17T12:45:08.000Z</time>
      </trkpt>
      <trkpt lat="44.89692" lon="0.60685">
        <ele>87.9</ele>
        <time>2021-05-17T12:45:09.000Z</time>
      </trkpt>
      <trkpt lat="44.89692" lon="0.60686">
        <ele>88</ele>
        <time>2021-05-17T12:45:10.000Z</time>
      </trkpt>
      <trkpt lat="44.89691" lon="0.6069">
        <ele>87.5</ele>
        <time>2021-05-17T12:45:11.000Z</time>
      </trkpt>
      <trkpt lat="44.89691" lon="0.60694">
        <ele>87</ele>
        <time>2021-05-17T12:45:12.000Z</time>
      </trkpt>
      <trkpt lat="44.89691" lon="0.60696">
        <ele>86.5</ele>
        <time>2021-05-17T12:45:13.000Z</time>
      </trkpt>
      <trkpt lat="44.8969" lon="0.60698">
        <ele>86.6</ele>
        <time>2021-05-17T12:45:15.000Z</time>
      </trkpt>
      <trkpt lat="44.89691" lon="0.60701">
        <ele>86.1</ele>
        <time>2021-05-17T12:45:16.000Z</time>
      </trkpt>
      <trkpt lat="44.89693" lon="0.60705">
        <ele>85.7</ele>
        <time>2021-05-17T12:45:17.000Z</time>
      </trkpt>
      <trkpt lat="44.89693" lon="0.60706">
        <ele>85.7</ele>
        <time>2021-05-17T12:45:18.000Z</time>
      </trkpt>
      <trkpt lat="44.89695" lon="0.6071">
        <ele>85.2</ele>
        <time>2021-05-17T12:45:19.000Z</time>
      </trkpt>
      <trkpt lat="44.89696" lon="0.60711">
        <ele>85.5</ele>
        <time>2021-05-17T12:45:20.000Z</time>
      </trkpt>
      <trkpt lat="44.89698" lon="0.60717">
        <ele>85</ele>
        <time>2021-05-17T12:45:21.000Z</time>
      </trkpt>
      <trkpt lat="44.897" lon="0.6072">
        <ele>85</ele>
        <time>2021-05-17T12:45:22.000Z</time>
      </trkpt>
      <trkpt lat="44.89703" lon="0.60723">
        <ele>84.9</ele>
        <time>2021-05-17T12:45:23.000Z</time>
      </trkpt>
      <trkpt lat="44.89702" lon="0.60728">
        <ele>84.8</ele>
        <time>2021-05-17T12:45:24.000Z</time>
      </trkpt>
      <trkpt lat="44.89704" lon="0.60734">
        <ele>84.7</ele>
        <time>2021-05-17T12:45:25.000Z</time>
      </trkpt>
      <trkpt lat="44.89704" lon="0.60736">
        <ele>84.7</ele>
        <time>2021-05-17T12:45:26.000Z</time>
      </trkpt>
      <trkpt lat="44.89705" lon="0.6074">
        <ele>84.6</ele>
        <time>2021-05-17T12:45:27.000Z</time>
      </trkpt>
      <trkpt lat="44.89707" lon="0.60744">
        <ele>84.5</ele>
        <time>2021-05-17T12:45:28.000Z</time>
      </trkpt>
      <trkpt lat="44.8971" lon="0.60745">
        <ele>84.5</ele>
        <time>2021-05-17T12:45:29.000Z</time>
      </trkpt>
      <trkpt lat="44.89711" lon="0.60746">
        <ele>84.5</ele>
        <time>2021-05-17T12:45:30.000Z</time>
      </trkpt>
      <trkpt lat="44.89714" lon="0.60747">
        <ele>84.4</ele>
        <time>2021-05-17T12:45:31.000Z</time>
      </trkpt>
      <trkpt lat="44.89717" lon="0.6075">
        <ele>84.3</ele>
        <time>2021-05-17T12:45:32.000Z</time>
      </trkpt>
      <trkpt lat="44.89718" lon="0.60751">
        <ele>84.3</ele>
        <time>2021-05-17T12:45:33.000Z</time>
      </trkpt>
      <trkpt lat="44.89722" lon="0.60757">
        <ele>84.2</ele>
        <time>2021-05-17T12:45:34.000Z</time>
      </trkpt>
      <trkpt lat="44.89724" lon="0.60762">
        <ele>84.1</ele>
        <time>2021-05-17T12:45:35.000Z</time>
      </trkpt>
      <trkpt lat="44.89727" lon="0.60768">
        <ele>84.1</ele>
        <time>2021-05-17T12:45:36.000Z</time>
      </trkpt>
      <trkpt lat="44.89728" lon="0.60772">
        <ele>84.1</ele>
        <time>2021-05-17T12:45:37.000Z</time>
      </trkpt>
      <trkpt lat="44.8973" lon="0.60774">
        <ele>84.1</ele>
        <time>2021-05-17T12:45:38.000Z</time>
      </trkpt>
      <trkpt lat="44.89731" lon="0.60775">
        <ele>84.2</ele>
        <time>2021-05-17T12:45:39.000Z</time>
      </trkpt>
      <trkpt lat="44.89734" lon="0.6078">
        <ele>84.3</ele>
        <time>2021-05-17T12:45:40.000Z</time>
      </trkpt>
      <trkpt lat="44.89735" lon="0.60781">
        <ele>84.3</ele>
        <time>2021-05-17T12:45:41.000Z</time>
      </trkpt>
      <trkpt lat="44.89737" lon="0.60783">
        <ele>84.3</ele>
        <time>2021-05-17T12:45:42.000Z</time>
      </trkpt>
      <trkpt lat="44.8974" lon="0.60786">
        <ele>84.3</ele>
        <time>2021-05-17T12:45:43.000Z</time>
      </trkpt>
      <trkpt lat="44.89743" lon="0.60791">
        <ele>84.3</ele>
        <time>2021-05-17T12:45:44.000Z</time>
      </trkpt>
      <trkpt lat="44.89745" lon="0.60793">
        <ele>84.2</ele>
        <time>2021-05-17T12:45:45.000Z</time>
      </trkpt>
      <trkpt lat="44.89746" lon="0.60797">
        <ele>84.2</ele>
        <time>2021-05-17T12:45:46.000Z</time>
      </trkpt>
      <trkpt lat="44.89746" lon="0.60799">
        <ele>84.2</ele>
        <time>2021-05-17T12:45:47.000Z</time>
      </trkpt>
      <trkpt lat="44.89748" lon="0.60804">
        <ele>84.2</ele>
        <time>2021-05-17T12:45:48.000Z</time>
      </trkpt>
      <trkpt lat="44.89749" lon="0.60806">
        <ele>84.1</ele>
        <time>2021-05-17T12:45:49.000Z</time>
      </trkpt>
      <trkpt lat="44.89754" lon="0.60817">
        <ele>84.1</ele>
        <time>2021-05-17T12:45:50.000Z</time>
      </trkpt>
      <trkpt lat="44.89757" lon="0.60826">
        <ele>84.1</ele>
        <time>2021-05-17T12:45:51.000Z</time>
      </trkpt>
      <trkpt lat="44.8976" lon="0.60833">
        <ele>84.2</ele>
        <time>2021-05-17T12:45:52.000Z</time>
      </trkpt>
      <trkpt lat="44.89764" lon="0.60841">
        <ele>84.3</ele>
        <time>2021-05-17T12:45:53.000Z</time>
      </trkpt>
      <trkpt lat="44.89765" lon="0.60845">
        <ele>84.3</ele>
        <time>2021-05-17T12:45:54.000Z</time>
      </trkpt>
      <trkpt lat="44.89766" lon="0.60848">
        <ele>84.3</ele>
        <time>2021-05-17T12:45:55.000Z</time>
      </trkpt>
      <trkpt lat="44.89768" lon="0.60852">
        <ele>84.3</ele>
        <time>2021-05-17T12:45:56.000Z</time>
      </trkpt>
      <trkpt lat="44.89769" lon="0.60854">
        <ele>84.3</ele>
        <time>2021-05-17T12:45:57.000Z</time>
      </trkpt>
      <trkpt lat="44.89772" lon="0.60863">
        <ele>84.4</ele>
        <time>2021-05-17T12:45:58.000Z</time>
      </trkpt>
      <trkpt lat="44.8977" lon="0.60868">
        <ele>84.5</ele>
        <time>2021-05-17T12:45:59.000Z</time>
      </trkpt>
      <trkpt lat="44.8977" lon="0.6087">
        <ele>84.5</ele>
        <time>2021-05-17T12:46:00.000Z</time>
      </trkpt>
      <trkpt lat="44.89773" lon="0.60874">
        <ele>84.6</ele>
        <time>2021-05-17T12:46:01.000Z</time>
      </trkpt>
      <trkpt lat="44.89775" lon="0.60877">
        <ele>84.7</ele>
        <time>2021-05-17T12:46:02.000Z</time>
      </trkpt>
      <trkpt lat="44.89778" lon="0.6088">
        <ele>84.8</ele>
        <time>2021-05-17T12:46:03.000Z</time>
      </trkpt>
      <trkpt lat="44.89779" lon="0.60882">
        <ele>84.9</ele>
        <time>2021-05-17T12:46:04.000Z</time>
      </trkpt>
      <trkpt lat="44.8978" lon="0.60881">
        <ele>84.9</ele>
        <time>2021-05-17T12:46:05.000Z</time>
      </trkpt>
      <trkpt lat="44.8978" lon="0.60883">
        <ele>84.9</ele>
        <time>2021-05-17T12:46:06.000Z</time>
      </trkpt>
      <trkpt lat="44.89781" lon="0.60887">
        <ele>85</ele>
        <time>2021-05-17T12:46:07.000Z</time>
      </trkpt>
      <trkpt lat="44.89782" lon="0.60888">
        <ele>85</ele>
        <time>2021-05-17T12:46:08.000Z</time>
      </trkpt>
      <trkpt lat="44.89784" lon="0.60892">
        <ele>85.1</ele>
        <time>2021-05-17T12:46:09.000Z</time>
      </trkpt>
      <trkpt lat="44.89785" lon="0.60896">
        <ele>85.2</ele>
        <time>2021-05-17T12:46:10.000Z</time>
      </trkpt>
      <trkpt lat="44.89787" lon="0.60899">
        <ele>85.2</ele>
        <time>2021-05-17T12:46:11.000Z</time>
      </trkpt>
      <trkpt lat="44.89789" lon="0.60904">
        <ele>85.2</ele>
        <time>2021-05-17T12:46:12.000Z</time>
      </trkpt>
      <trkpt lat="44.89791" lon="0.60908">
        <ele>85.2</ele>
        <time>2021-05-17T12:46:13.000Z</time>
      </trkpt>
      <trkpt lat="44.89793" lon="0.60911">
        <ele>85.1</ele>
        <time>2021-05-17T12:46:14.000Z</time>
      </trkpt>
      <trkpt lat="44.89795" lon="0.60915">
        <ele>85.1</ele>
        <time>2021-05-17T12:46:15.000Z</time>
      </trkpt>
      <trkpt lat="44.89795" lon="0.60916">
        <ele>85</ele>
        <time>2021-05-17T12:46:16.000Z</time>
      </trkpt>
      <trkpt lat="44.89797" lon="0.6092">
        <ele>85</ele>
        <time>2021-05-17T12:46:17.000Z</time>
      </trkpt>
      <trkpt lat="44.89798" lon="0.60924">
        <ele>84.9</ele>
        <time>2021-05-17T12:46:18.000Z</time>
      </trkpt>
      <trkpt lat="44.89799" lon="0.60925">
        <ele>84.8</ele>
        <time>2021-05-17T12:46:19.000Z</time>
      </trkpt>
      <trkpt lat="44.898" lon="0.60928">
        <ele>84.7</ele>
        <time>2021-05-17T12:46:20.000Z</time>
      </trkpt>
      <trkpt lat="44.898" lon="0.6093">
        <ele>84.7</ele>
        <time>2021-05-17T12:46:21.000Z</time>
      </trkpt>
      <trkpt lat="44.89801" lon="0.60933">
        <ele>84.5</ele>
        <time>2021-05-17T12:46:22.000Z</time>
      </trkpt>
      <trkpt lat="44.89802" lon="0.60935">
        <ele>84.4</ele>
        <time>2021-05-17T12:46:23.000Z</time>
      </trkpt>
      <trkpt lat="44.89803" lon="0.6094">
        <ele>84.2</ele>
        <time>2021-05-17T12:46:24.000Z</time>
      </trkpt>
      <trkpt lat="44.89804" lon="0.60944">
        <ele>83.9</ele>
        <time>2021-05-17T12:46:25.000Z</time>
      </trkpt>
      <trkpt lat="44.89804" lon="0.60947">
        <ele>83.7</ele>
        <time>2021-05-17T12:46:26.000Z</time>
      </trkpt>
      <trkpt lat="44.89804" lon="0.60948">
        <ele>83.7</ele>
        <time>2021-05-17T12:46:27.000Z</time>
      </trkpt>
      <trkpt lat="44.89804" lon="0.6095">
        <ele>83.6</ele>
        <time>2021-05-17T12:46:28.000Z</time>
      </trkpt>
      <trkpt lat="44.89804" lon="0.60953">
        <ele>83.4</ele>
        <time>2021-05-17T12:46:29.000Z</time>
      </trkpt>
      <trkpt lat="44.89805" lon="0.60955">
        <ele>83.3</ele>
        <time>2021-05-17T12:46:30.000Z</time>
      </trkpt>
      <trkpt lat="44.89805" lon="0.60956">
        <ele>83.2</ele>
        <time>2021-05-17T12:46:31.000Z</time>
      </trkpt>
      <trkpt lat="44.89804" lon="0.6096">
        <ele>83</ele>
        <time>2021-05-17T12:46:32.000Z</time>
      </trkpt>
      <trkpt lat="44.89804" lon="0.60962">
        <ele>82.9</ele>
        <time>2021-05-17T12:46:33.000Z</time>
      </trkpt>
      <trkpt lat="44.89802" lon="0.60967">
        <ele>82.6</ele>
        <time>2021-05-17T12:46:34.000Z</time>
      </trkpt>
      <trkpt lat="44.89802" lon="0.60968">
        <ele>82.5</ele>
        <time>2021-05-17T12:46:35.000Z</time>
      </trkpt>
      <trkpt lat="44.898" lon="0.60973">
        <ele>82.2</ele>
        <time>2021-05-17T12:46:36.000Z</time>
      </trkpt>
      <trkpt lat="44.898" lon="0.60975">
        <ele>82.2</ele>
        <time>2021-05-17T12:46:37.000Z</time>
      </trkpt>
      <trkpt lat="44.89799" lon="0.60977">
        <ele>82.1</ele>
        <time>2021-05-17T12:46:38.000Z</time>
      </trkpt>
      <trkpt lat="44.89798" lon="0.60979">
        <ele>82</ele>
        <time>2021-05-17T12:46:39.000Z</time>
      </trkpt>
      <trkpt lat="44.89797" lon="0.60985">
        <ele>81.7</ele>
        <time>2021-05-17T12:46:40.000Z</time>
      </trkpt>
      <trkpt lat="44.89796" lon="0.60988">
        <ele>81.6</ele>
        <time>2021-05-17T12:46:41.000Z</time>
      </trkpt>
      <trkpt lat="44.89796" lon="0.60991">
        <ele>81.5</ele>
        <time>2021-05-17T12:46:42.000Z</time>
      </trkpt>
      <trkpt lat="44.89797" lon="0.60996">
        <ele>81.4</ele>
        <time>2021-05-17T12:46:43.000Z</time>
      </trkpt>
      <trkpt lat="44.89797" lon="0.61">
        <ele>81.3</ele>
        <time>2021-05-17T12:46:44.000Z</time>
      </trkpt>
      <trkpt lat="44.89796" lon="0.61005">
        <ele>81.2</ele>
        <time>2021-05-17T12:46:45.000Z</time>
      </trkpt>
      <trkpt lat="44.89796" lon="0.61007">
        <ele>81.2</ele>
        <time>2021-05-17T12:46:46.000Z</time>
      </trkpt>
      <trkpt lat="44.89796" lon="0.61012">
        <ele>81.2</ele>
        <time>2021-05-17T12:46:47.000Z</time>
      </trkpt>
      <trkpt lat="44.89796" lon="0.61014">
        <ele>81.1</ele>
        <time>2021-05-17T12:46:48.000Z</time>
      </trkpt>
      <trkpt lat="44.89794" lon="0.61019">
        <ele>81.1</ele>
        <time>2021-05-17T12:46:49.000Z</time>
      </trkpt>
      <trkpt lat="44.89793" lon="0.61022">
        <ele>81.1</ele>
        <time>2021-05-17T12:46:50.000Z</time>
      </trkpt>
      <trkpt lat="44.89793" lon="0.61025">
        <ele>81.1</ele>
        <time>2021-05-17T12:46:51.000Z</time>
      </trkpt>
      <trkpt lat="44.89792" lon="0.61027">
        <ele>81.1</ele>
        <time>2021-05-17T12:46:52.000Z</time>
      </trkpt>
      <trkpt lat="44.89791" lon="0.61033">
        <ele>81.1</ele>
        <time>2021-05-17T12:46:53.000Z</time>
      </trkpt>
      <trkpt lat="44.8979" lon="0.61037">
        <ele>81.1</ele>
        <time>2021-05-17T12:46:54.000Z</time>
      </trkpt>
      <trkpt lat="44.8979" lon="0.6104">
        <ele>81.1</ele>
        <time>2021-05-17T12:46:55.000Z</time>
      </trkpt>
      <trkpt lat="44.89789" lon="0.61042">
        <ele>81.1</ele>
        <time>2021-05-17T12:46:56.000Z</time>
      </trkpt>
      <trkpt lat="44.89789" lon="0.61046">
        <ele>81.1</ele>
        <time>2021-05-17T12:46:57.000Z</time>
      </trkpt>
      <trkpt lat="44.89788" lon="0.61047">
        <ele>81.1</ele>
        <time>2021-05-17T12:46:58.000Z</time>
      </trkpt>
      <trkpt lat="44.89788" lon="0.61052">
        <ele>81.1</ele>
        <time>2021-05-17T12:46:59.000Z</time>
      </trkpt>
      <trkpt lat="44.89788" lon="0.61053">
        <ele>81.1</ele>
        <time>2021-05-17T12:47:00.000Z</time>
      </trkpt>
      <trkpt lat="44.89789" lon="0.61058">
        <ele>81.1</ele>
        <time>2021-05-17T12:47:01.000Z</time>
      </trkpt>
      <trkpt lat="44.8979" lon="0.61062">
        <ele>81.1</ele>
        <time>2021-05-17T12:47:02.000Z</time>
      </trkpt>
      <trkpt lat="44.8979" lon="0.61064">
        <ele>81.1</ele>
        <time>2021-05-17T12:47:03.000Z</time>
      </trkpt>
      <trkpt lat="44.89791" lon="0.61067">
        <ele>81.2</ele>
        <time>2021-05-17T12:47:04.000Z</time>
      </trkpt>
      <trkpt lat="44.89791" lon="0.6107">
        <ele>81.2</ele>
        <time>2021-05-17T12:47:05.000Z</time>
      </trkpt>
      <trkpt lat="44.89792" lon="0.61072">
        <ele>81.2</ele>
        <time>2021-05-17T12:47:06.000Z</time>
      </trkpt>
      <trkpt lat="44.89792" lon="0.61075">
        <ele>81.2</ele>
        <time>2021-05-17T12:47:07.000Z</time>
      </trkpt>
      <trkpt lat="44.89793" lon="0.61079">
        <ele>81.2</ele>
        <time>2021-05-17T12:47:08.000Z</time>
      </trkpt>
      <trkpt lat="44.89793" lon="0.61085">
        <ele>81.3</ele>
        <time>2021-05-17T12:47:09.000Z</time>
      </trkpt>
      <trkpt lat="44.89794" lon="0.61091">
        <ele>81.3</ele>
        <time>2021-05-17T12:47:10.000Z</time>
      </trkpt>
      <trkpt lat="44.89794" lon="0.61094">
        <ele>81.3</ele>
        <time>2021-05-17T12:47:11.000Z</time>
      </trkpt>
      <trkpt lat="44.89794" lon="0.61099">
        <ele>81.3</ele>
        <time>2021-05-17T12:47:12.000Z</time>
      </trkpt>
      <trkpt lat="44.89794" lon="0.61101">
        <ele>81.3</ele>
        <time>2021-05-17T12:47:13.000Z</time>
      </trkpt>
      <trkpt lat="44.89794" lon="0.61103">
        <ele>81.3</ele>
        <time>2021-05-17T12:47:14.000Z</time>
      </trkpt>
      <trkpt lat="44.89793" lon="0.6111">
        <ele>81.3</ele>
        <time>2021-05-17T12:47:15.000Z</time>
      </trkpt>
      <trkpt lat="44.89793" lon="0.61113">
        <ele>81.3</ele>
        <time>2021-05-17T12:47:16.000Z</time>
      </trkpt>
      <trkpt lat="44.89793" lon="0.61118">
        <ele>81.3</ele>
        <time>2021-05-17T12:47:17.000Z</time>
      </trkpt>
      <trkpt lat="44.89793" lon="0.61124">
        <ele>81.3</ele>
        <time>2021-05-17T12:47:18.000Z</time>
      </trkpt>
      <trkpt lat="44.89794" lon="0.61132">
        <ele>81.3</ele>
        <time>2021-05-17T12:47:19.000Z</time>
      </trkpt>
      <trkpt lat="44.89796" lon="0.61139">
        <ele>81.3</ele>
        <time>2021-05-17T12:47:21.000Z</time>
      </trkpt>
      <trkpt lat="44.89796" lon="0.61145">
        <ele>81.2</ele>
        <time>2021-05-17T12:47:22.000Z</time>
      </trkpt>
      <trkpt lat="44.89796" lon="0.61151">
        <ele>81.2</ele>
        <time>2021-05-17T12:47:23.000Z</time>
      </trkpt>
      <trkpt lat="44.89797" lon="0.61157">
        <ele>81.2</ele>
        <time>2021-05-17T12:47:24.000Z</time>
      </trkpt>
      <trkpt lat="44.89798" lon="0.61163">
        <ele>81.2</ele>
        <time>2021-05-17T12:47:25.000Z</time>
      </trkpt>
      <trkpt lat="44.89799" lon="0.6117">
        <ele>81.2</ele>
        <time>2021-05-17T12:47:26.000Z</time>
      </trkpt>
      <trkpt lat="44.89802" lon="0.6118">
        <ele>81.2</ele>
        <time>2021-05-17T12:47:27.000Z</time>
      </trkpt>
      <trkpt lat="44.89802" lon="0.61186">
        <ele>81.2</ele>
        <time>2021-05-17T12:47:28.000Z</time>
      </trkpt>
      <trkpt lat="44.89803" lon="0.61192">
        <ele>81.2</ele>
        <time>2021-05-17T12:47:29.000Z</time>
      </trkpt>
      <trkpt lat="44.89803" lon="0.61198">
        <ele>81.2</ele>
        <time>2021-05-17T12:47:30.000Z</time>
      </trkpt>
      <trkpt lat="44.89804" lon="0.61205">
        <ele>81.3</ele>
        <time>2021-05-17T12:47:31.000Z</time>
      </trkpt>
      <trkpt lat="44.89805" lon="0.61211">
        <ele>81.3</ele>
        <time>2021-05-17T12:47:32.000Z</time>
      </trkpt>
      <trkpt lat="44.89806" lon="0.61218">
        <ele>81.3</ele>
        <time>2021-05-17T12:47:33.000Z</time>
      </trkpt>
      <trkpt lat="44.89806" lon="0.61224">
        <ele>81.3</ele>
        <time>2021-05-17T12:47:34.000Z</time>
      </trkpt>
      <trkpt lat="44.89807" lon="0.6123">
        <ele>81.4</ele>
        <time>2021-05-17T12:47:35.000Z</time>
      </trkpt>
      <trkpt lat="44.89809" lon="0.61235">
        <ele>81.3</ele>
        <time>2021-05-17T12:47:36.000Z</time>
      </trkpt>
      <trkpt lat="44.89809" lon="0.61242">
        <ele>81.3</ele>
        <time>2021-05-17T12:47:37.000Z</time>
      </trkpt>
      <trkpt lat="44.8981" lon="0.61249">
        <ele>81.3</ele>
        <time>2021-05-17T12:47:38.000Z</time>
      </trkpt>
      <trkpt lat="44.89811" lon="0.61255">
        <ele>81.3</ele>
        <time>2021-05-17T12:47:39.000Z</time>
      </trkpt>
      <trkpt lat="44.89811" lon="0.6126">
        <ele>81.2</ele>
        <time>2021-05-17T12:47:40.000Z</time>
      </trkpt>
      <trkpt lat="44.89812" lon="0.61272">
        <ele>81.1</ele>
        <time>2021-05-17T12:47:41.000Z</time>
      </trkpt>
      <trkpt lat="44.89812" lon="0.61279">
        <ele>81</ele>
        <time>2021-05-17T12:47:42.000Z</time>
      </trkpt>
      <trkpt lat="44.89813" lon="0.61285">
        <ele>80.9</ele>
        <time>2021-05-17T12:47:43.000Z</time>
      </trkpt>
      <trkpt lat="44.89813" lon="0.61291">
        <ele>80.9</ele>
        <time>2021-05-17T12:47:44.000Z</time>
      </trkpt>
      <trkpt lat="44.89814" lon="0.61298">
        <ele>80.9</ele>
        <time>2021-05-17T12:47:45.000Z</time>
      </trkpt>
      <trkpt lat="44.89815" lon="0.61306">
        <ele>80.9</ele>
        <time>2021-05-17T12:47:46.000Z</time>
      </trkpt>
      <trkpt lat="44.89813" lon="0.61311">
        <ele>80.9</ele>
        <time>2021-05-17T12:47:47.000Z</time>
      </trkpt>
      <trkpt lat="44.89813" lon="0.61318">
        <ele>81</ele>
        <time>2021-05-17T12:47:48.000Z</time>
      </trkpt>
      <trkpt lat="44.89813" lon="0.61319">
        <ele>81</ele>
        <time>2021-05-17T12:47:49.000Z</time>
      </trkpt>
      <trkpt lat="44.89813" lon="0.61323">
        <ele>81</ele>
        <time>2021-05-17T12:47:50.000Z</time>
      </trkpt>
      <trkpt lat="44.89812" lon="0.61327">
        <ele>81</ele>
        <time>2021-05-17T12:47:51.000Z</time>
      </trkpt>
      <trkpt lat="44.89812" lon="0.61328">
        <ele>81</ele>
        <time>2021-05-17T12:47:52.000Z</time>
      </trkpt>
      <trkpt lat="44.89812" lon="0.61333">
        <ele>81</ele>
        <time>2021-05-17T12:47:53.000Z</time>
      </trkpt>
      <trkpt lat="44.89812" lon="0.61337">
        <ele>81</ele>
        <time>2021-05-17T12:47:54.000Z</time>
      </trkpt>
      <trkpt lat="44.89811" lon="0.61345">
        <ele>81</ele>
        <time>2021-05-17T12:47:55.000Z</time>
      </trkpt>
      <trkpt lat="44.89812" lon="0.61354">
        <ele>81.1</ele>
        <time>2021-05-17T12:47:56.000Z</time>
      </trkpt>
      <trkpt lat="44.89813" lon="0.6136">
        <ele>81.1</ele>
        <time>2021-05-17T12:47:57.000Z</time>
      </trkpt>
      <trkpt lat="44.89816" lon="0.61368">
        <ele>81.1</ele>
        <time>2021-05-17T12:47:58.000Z</time>
      </trkpt>
      <trkpt lat="44.89815" lon="0.61373">
        <ele>81.2</ele>
        <time>2021-05-17T12:47:59.000Z</time>
      </trkpt>
      <trkpt lat="44.89816" lon="0.61379">
        <ele>81.2</ele>
        <time>2021-05-17T12:48:00.000Z</time>
      </trkpt>
      <trkpt lat="44.89817" lon="0.61386">
        <ele>81.3</ele>
        <time>2021-05-17T12:48:01.000Z</time>
      </trkpt>
      <trkpt lat="44.89818" lon="0.61392">
        <ele>81.4</ele>
        <time>2021-05-17T12:48:02.000Z</time>
      </trkpt>
      <trkpt lat="44.8982" lon="0.61399">
        <ele>81.5</ele>
        <time>2021-05-17T12:48:03.000Z</time>
      </trkpt>
      <trkpt lat="44.89824" lon="0.61406">
        <ele>81.6</ele>
        <time>2021-05-17T12:48:04.000Z</time>
      </trkpt>
      <trkpt lat="44.89826" lon="0.61413">
        <ele>81.7</ele>
        <time>2021-05-17T12:48:05.000Z</time>
      </trkpt>
      <trkpt lat="44.89828" lon="0.61418">
        <ele>81.8</ele>
        <time>2021-05-17T12:48:06.000Z</time>
      </trkpt>
      <trkpt lat="44.89831" lon="0.61424">
        <ele>82</ele>
        <time>2021-05-17T12:48:07.000Z</time>
      </trkpt>
      <trkpt lat="44.89834" lon="0.61431">
        <ele>82.3</ele>
        <time>2021-05-17T12:48:08.000Z</time>
      </trkpt>
      <trkpt lat="44.89837" lon="0.61438">
        <ele>82.5</ele>
        <time>2021-05-17T12:48:09.000Z</time>
      </trkpt>
      <trkpt lat="44.8984" lon="0.61444">
        <ele>82.7</ele>
        <time>2021-05-17T12:48:10.000Z</time>
      </trkpt>
      <trkpt lat="44.89842" lon="0.61448">
        <ele>82.8</ele>
        <time>2021-05-17T12:48:11.000Z</time>
      </trkpt>
      <trkpt lat="44.89845" lon="0.61453">
        <ele>83</ele>
        <time>2021-05-17T12:48:12.000Z</time>
      </trkpt>
      <trkpt lat="44.89848" lon="0.61458">
        <ele>83.3</ele>
        <time>2021-05-17T12:48:13.000Z</time>
      </trkpt>
      <trkpt lat="44.89852" lon="0.61465">
        <ele>83.7</ele>
        <time>2021-05-17T12:48:14.000Z</time>
      </trkpt>
      <trkpt lat="44.89856" lon="0.61474">
        <ele>84.3</ele>
        <time>2021-05-17T12:48:15.000Z</time>
      </trkpt>
      <trkpt lat="44.89861" lon="0.61485">
        <ele>85.5</ele>
        <time>2021-05-17T12:48:16.000Z</time>
      </trkpt>
      <trkpt lat="44.89865" lon="0.61492">
        <ele>86.3</ele>
        <time>2021-05-17T12:48:17.000Z</time>
      </trkpt>
      <trkpt lat="44.89869" lon="0.61497">
        <ele>86.7</ele>
        <time>2021-05-17T12:48:18.000Z</time>
      </trkpt>
      <trkpt lat="44.89873" lon="0.61501">
        <ele>87.5</ele>
        <time>2021-05-17T12:48:19.000Z</time>
      </trkpt>
      <trkpt lat="44.89877" lon="0.61505">
        <ele>87.9</ele>
        <time>2021-05-17T12:48:20.000Z</time>
      </trkpt>
      <trkpt lat="44.89883" lon="0.61514">
        <ele>88.8</ele>
        <time>2021-05-17T12:48:21.000Z</time>
      </trkpt>
      <trkpt lat="44.89888" lon="0.61521">
        <ele>89.7</ele>
        <time>2021-05-17T12:48:22.000Z</time>
      </trkpt>
      <trkpt lat="44.89894" lon="0.61527">
        <ele>90.4</ele>
        <time>2021-05-17T12:48:23.000Z</time>
      </trkpt>
      <trkpt lat="44.89897" lon="0.61531">
        <ele>90.7</ele>
        <time>2021-05-17T12:48:24.000Z</time>
      </trkpt>
      <trkpt lat="44.89901" lon="0.61533">
        <ele>90.8</ele>
        <time>2021-05-17T12:48:25.000Z</time>
      </trkpt>
      <trkpt lat="44.89906" lon="0.61538">
        <ele>91.1</ele>
        <time>2021-05-17T12:48:26.000Z</time>
      </trkpt>
      <trkpt lat="44.8991" lon="0.61542">
        <ele>91.1</ele>
        <time>2021-05-17T12:48:27.000Z</time>
      </trkpt>
      <trkpt lat="44.89913" lon="0.61543">
        <ele>91.3</ele>
        <time>2021-05-17T12:48:28.000Z</time>
      </trkpt>
      <trkpt lat="44.89916" lon="0.61546">
        <ele>91.3</ele>
        <time>2021-05-17T12:48:29.000Z</time>
      </trkpt>
      <trkpt lat="44.8992" lon="0.61548">
        <ele>91.5</ele>
        <time>2021-05-17T12:48:30.000Z</time>
      </trkpt>
      <trkpt lat="44.89924" lon="0.6155">
        <ele>91.8</ele>
        <time>2021-05-17T12:48:31.000Z</time>
      </trkpt>
      <trkpt lat="44.89927" lon="0.61553">
        <ele>91.9</ele>
        <time>2021-05-17T12:48:32.000Z</time>
      </trkpt>
      <trkpt lat="44.8993" lon="0.61554">
        <ele>91.8</ele>
        <time>2021-05-17T12:48:33.000Z</time>
      </trkpt>
      <trkpt lat="44.89933" lon="0.61556">
        <ele>91.9</ele>
        <time>2021-05-17T12:48:34.000Z</time>
      </trkpt>
      <trkpt lat="44.89936" lon="0.61558">
        <ele>92</ele>
        <time>2021-05-17T12:48:35.000Z</time>
      </trkpt>
      <trkpt lat="44.89939" lon="0.61557">
        <ele>92.1</ele>
        <time>2021-05-17T12:48:36.000Z</time>
      </trkpt>
      <trkpt lat="44.89943" lon="0.61556">
        <ele>92.2</ele>
        <time>2021-05-17T12:48:37.000Z</time>
      </trkpt>
      <trkpt lat="44.89945" lon="0.61556">
        <ele>92.2</ele>
        <time>2021-05-17T12:48:38.000Z</time>
      </trkpt>
      <trkpt lat="44.89948" lon="0.61557">
        <ele>92.3</ele>
        <time>2021-05-17T12:48:39.000Z</time>
      </trkpt>
      <trkpt lat="44.89951" lon="0.61556">
        <ele>92.5</ele>
        <time>2021-05-17T12:48:40.000Z</time>
      </trkpt>
      <trkpt lat="44.89952" lon="0.61555">
        <ele>92.4</ele>
        <time>2021-05-17T12:48:41.000Z</time>
      </trkpt>
      <trkpt lat="44.89954" lon="0.61555">
        <ele>92.5</ele>
        <time>2021-05-17T12:48:42.000Z</time>
      </trkpt>
      <trkpt lat="44.89956" lon="0.61556">
        <ele>92.4</ele>
        <time>2021-05-17T12:48:43.000Z</time>
      </trkpt>
      <trkpt lat="44.89958" lon="0.61554">
        <ele>92.5</ele>
        <time>2021-05-17T12:48:44.000Z</time>
      </trkpt>
      <trkpt lat="44.89961" lon="0.61553">
        <ele>92.8</ele>
        <time>2021-05-17T12:48:45.000Z</time>
      </trkpt>
      <trkpt lat="44.89964" lon="0.6155">
        <ele>92.9</ele>
        <time>2021-05-17T12:48:46.000Z</time>
      </trkpt>
      <trkpt lat="44.89965" lon="0.6155">
        <ele>92.8</ele>
        <time>2021-05-17T12:48:47.000Z</time>
      </trkpt>
      <trkpt lat="44.89968" lon="0.61548">
        <ele>93.2</ele>
        <time>2021-05-17T12:48:48.000Z</time>
      </trkpt>
      <trkpt lat="44.89969" lon="0.61547">
        <ele>93.2</ele>
        <time>2021-05-17T12:48:49.000Z</time>
      </trkpt>
      <trkpt lat="44.89972" lon="0.61546">
        <ele>93.4</ele>
        <time>2021-05-17T12:48:50.000Z</time>
      </trkpt>
      <trkpt lat="44.89974" lon="0.61545">
        <ele>93.3</ele>
        <time>2021-05-17T12:48:51.000Z</time>
      </trkpt>
      <trkpt lat="44.89976" lon="0.61544">
        <ele>93.7</ele>
        <time>2021-05-17T12:48:52.000Z</time>
      </trkpt>
      <trkpt lat="44.89977" lon="0.61544">
        <ele>93.7</ele>
        <time>2021-05-17T12:48:53.000Z</time>
      </trkpt>
      <trkpt lat="44.8998" lon="0.61543">
        <ele>93.7</ele>
        <time>2021-05-17T12:48:54.000Z</time>
      </trkpt>
      <trkpt lat="44.89981" lon="0.61542">
        <ele>93.8</ele>
        <time>2021-05-17T12:48:55.000Z</time>
      </trkpt>
      <trkpt lat="44.89984" lon="0.61539">
        <ele>94</ele>
        <time>2021-05-17T12:48:56.000Z</time>
      </trkpt>
      <trkpt lat="44.89985" lon="0.61538">
        <ele>94.1</ele>
        <time>2021-05-17T12:48:57.000Z</time>
      </trkpt>
      <trkpt lat="44.89988" lon="0.61536">
        <ele>94.4</ele>
        <time>2021-05-17T12:48:58.000Z</time>
      </trkpt>
      <trkpt lat="44.89989" lon="0.61535">
        <ele>94.3</ele>
        <time>2021-05-17T12:48:59.000Z</time>
      </trkpt>
      <trkpt lat="44.89992" lon="0.61533">
        <ele>94.4</ele>
        <time>2021-05-17T12:49:00.000Z</time>
      </trkpt>
      <trkpt lat="44.89993" lon="0.61531">
        <ele>94.6</ele>
        <time>2021-05-17T12:49:01.000Z</time>
      </trkpt>
      <trkpt lat="44.89996" lon="0.61528">
        <ele>94.7</ele>
        <time>2021-05-17T12:49:02.000Z</time>
      </trkpt>
      <trkpt lat="44.89997" lon="0.61528">
        <ele>95.1</ele>
        <time>2021-05-17T12:49:03.000Z</time>
      </trkpt>
      <trkpt lat="44.9" lon="0.61526">
        <ele>95.2</ele>
        <time>2021-05-17T12:49:04.000Z</time>
      </trkpt>
      <trkpt lat="44.90003" lon="0.61524">
        <ele>95.3</ele>
        <time>2021-05-17T12:49:05.000Z</time>
      </trkpt>
      <trkpt lat="44.90004" lon="0.61523">
        <ele>95.8</ele>
        <time>2021-05-17T12:49:06.000Z</time>
      </trkpt>
      <trkpt lat="44.90006" lon="0.61519">
        <ele>96</ele>
        <time>2021-05-17T12:49:07.000Z</time>
      </trkpt>
      <trkpt lat="44.90009" lon="0.61518">
        <ele>96.5</ele>
        <time>2021-05-17T12:49:08.000Z</time>
      </trkpt>
      <trkpt lat="44.90011" lon="0.61517">
        <ele>96.4</ele>
        <time>2021-05-17T12:49:09.000Z</time>
      </trkpt>
      <trkpt lat="44.90014" lon="0.61515">
        <ele>96.6</ele>
        <time>2021-05-17T12:49:10.000Z</time>
      </trkpt>
      <trkpt lat="44.90015" lon="0.61514">
        <ele>97.2</ele>
        <time>2021-05-17T12:49:11.000Z</time>
      </trkpt>
      <trkpt lat="44.90017" lon="0.61512">
        <ele>97.1</ele>
        <time>2021-05-17T12:49:12.000Z</time>
      </trkpt>
      <trkpt lat="44.90018" lon="0.61511">
        <ele>97.2</ele>
        <time>2021-05-17T12:49:13.000Z</time>
      </trkpt>
      <trkpt lat="44.9002" lon="0.61509">
        <ele>97.7</ele>
        <time>2021-05-17T12:49:14.000Z</time>
      </trkpt>
      <trkpt lat="44.90021" lon="0.61508">
        <ele>97.9</ele>
        <time>2021-05-17T12:49:15.000Z</time>
      </trkpt>
      <trkpt lat="44.90025" lon="0.61506">
        <ele>98.1</ele>
        <time>2021-05-17T12:49:16.000Z</time>
      </trkpt>
      <trkpt lat="44.90026" lon="0.61506">
        <ele>98.6</ele>
        <time>2021-05-17T12:49:17.000Z</time>
      </trkpt>
      <trkpt lat="44.90029" lon="0.61505">
        <ele>98.9</ele>
        <time>2021-05-17T12:49:18.000Z</time>
      </trkpt>
      <trkpt lat="44.9003" lon="0.61505">
        <ele>98.8</ele>
        <time>2021-05-17T12:49:19.000Z</time>
      </trkpt>
      <trkpt lat="44.90032" lon="0.61503">
        <ele>99.1</ele>
        <time>2021-05-17T12:49:20.000Z</time>
      </trkpt>
      <trkpt lat="44.90033" lon="0.61502">
        <ele>100</ele>
        <time>2021-05-17T12:49:21.000Z</time>
      </trkpt>
      <trkpt lat="44.90036" lon="0.615">
        <ele>100.3</ele>
        <time>2021-05-17T12:49:22.000Z</time>
      </trkpt>
      <trkpt lat="44.90037" lon="0.615">
        <ele>100.2</ele>
        <time>2021-05-17T12:49:23.000Z</time>
      </trkpt>
      <trkpt lat="44.90038" lon="0.61499">
        <ele>100.1</ele>
        <time>2021-05-17T12:49:24.000Z</time>
      </trkpt>
      <trkpt lat="44.90039" lon="0.61498">
        <ele>100.4</ele>
        <time>2021-05-17T12:49:25.000Z</time>
      </trkpt>
      <trkpt lat="44.90041" lon="0.61496">
        <ele>100.9</ele>
        <time>2021-05-17T12:49:27.000Z</time>
      </trkpt>
      <trkpt lat="44.90044" lon="0.61494">
        <ele>101.1</ele>
        <time>2021-05-17T12:49:28.000Z</time>
      </trkpt>
      <trkpt lat="44.90044" lon="0.61493">
        <ele>101.6</ele>
        <time>2021-05-17T12:49:29.000Z</time>
      </trkpt>
      <trkpt lat="44.90047" lon="0.6149">
        <ele>101.9</ele>
        <time>2021-05-17T12:49:30.000Z</time>
      </trkpt>
      <trkpt lat="44.90049" lon="0.61489">
        <ele>102.2</ele>
        <time>2021-05-17T12:49:31.000Z</time>
      </trkpt>
      <trkpt lat="44.9005" lon="0.61489">
        <ele>102.7</ele>
        <time>2021-05-17T12:49:32.000Z</time>
      </trkpt>
      <trkpt lat="44.90052" lon="0.61487">
        <ele>102.9</ele>
        <time>2021-05-17T12:49:33.000Z</time>
      </trkpt>
      <trkpt lat="44.90054" lon="0.61485">
        <ele>103.2</ele>
        <time>2021-05-17T12:49:34.000Z</time>
      </trkpt>
      <trkpt lat="44.90055" lon="0.61485">
        <ele>103.7</ele>
        <time>2021-05-17T12:49:35.000Z</time>
      </trkpt>
      <trkpt lat="44.90058" lon="0.61482">
        <ele>103.9</ele>
        <time>2021-05-17T12:49:36.000Z</time>
      </trkpt>
      <trkpt lat="44.90059" lon="0.61481">
        <ele>103.8</ele>
        <time>2021-05-17T12:49:37.000Z</time>
      </trkpt>
      <trkpt lat="44.90062" lon="0.61479">
        <ele>104.6</ele>
        <time>2021-05-17T12:49:38.000Z</time>
      </trkpt>
      <trkpt lat="44.90066" lon="0.61476">
        <ele>105.5</ele>
        <time>2021-05-17T12:49:39.000Z</time>
      </trkpt>
      <trkpt lat="44.90067" lon="0.61475">
        <ele>105.7</ele>
        <time>2021-05-17T12:49:40.000Z</time>
      </trkpt>
      <trkpt lat="44.90071" lon="0.61473">
        <ele>105.9</ele>
        <time>2021-05-17T12:49:41.000Z</time>
      </trkpt>
      <trkpt lat="44.90074" lon="0.61471">
        <ele>106.8</ele>
        <time>2021-05-17T12:49:42.000Z</time>
      </trkpt>
      <trkpt lat="44.90077" lon="0.61469">
        <ele>107.1</ele>
        <time>2021-05-17T12:49:43.000Z</time>
      </trkpt>
      <trkpt lat="44.9008" lon="0.61466">
        <ele>108</ele>
        <time>2021-05-17T12:49:44.000Z</time>
      </trkpt>
      <trkpt lat="44.90083" lon="0.61465">
        <ele>108.3</ele>
        <time>2021-05-17T12:49:45.000Z</time>
      </trkpt>
      <trkpt lat="44.90086" lon="0.61464">
        <ele>108.6</ele>
        <time>2021-05-17T12:49:46.000Z</time>
      </trkpt>
      <trkpt lat="44.9009" lon="0.61463">
        <ele>109.5</ele>
        <time>2021-05-17T12:49:47.000Z</time>
      </trkpt>
      <trkpt lat="44.90092" lon="0.61462">
        <ele>109.8</ele>
        <time>2021-05-17T12:49:48.000Z</time>
      </trkpt>
      <trkpt lat="44.90093" lon="0.61462">
        <ele>109.7</ele>
        <time>2021-05-17T12:49:49.000Z</time>
      </trkpt>
      <trkpt lat="44.90093" lon="0.6146">
        <ele>109.6</ele>
        <time>2021-05-17T12:49:50.000Z</time>
      </trkpt>
      <trkpt lat="44.90094" lon="0.61458">
        <ele>110.4</ele>
        <time>2021-05-17T12:49:51.000Z</time>
      </trkpt>
      <trkpt lat="44.90097" lon="0.61457">
        <ele>110.7</ele>
        <time>2021-05-17T12:49:52.000Z</time>
      </trkpt>
      <trkpt lat="44.90098" lon="0.61456">
        <ele>110.6</ele>
        <time>2021-05-17T12:49:53.000Z</time>
      </trkpt>
      <trkpt lat="44.90101" lon="0.61456">
        <ele>110.8</ele>
        <time>2021-05-17T12:49:54.000Z</time>
      </trkpt>
      <trkpt lat="44.90105" lon="0.61456">
        <ele>111</ele>
        <time>2021-05-17T12:49:55.000Z</time>
      </trkpt>
      <trkpt lat="44.90106" lon="0.61455">
        <ele>111</ele>
        <time>2021-05-17T12:49:56.000Z</time>
      </trkpt>
      <trkpt lat="44.90108" lon="0.61455">
        <ele>111.7</ele>
        <time>2021-05-17T12:49:57.000Z</time>
      </trkpt>
      <trkpt lat="44.90109" lon="0.61454">
        <ele>111.6</ele>
        <time>2021-05-17T12:49:58.000Z</time>
      </trkpt>
      <trkpt lat="44.9011" lon="0.61454">
        <ele>111.9</ele>
        <time>2021-05-17T12:49:59.000Z</time>
      </trkpt>
      <trkpt lat="44.90112" lon="0.61453">
        <ele>112.2</ele>
        <time>2021-05-17T12:50:00.000Z</time>
      </trkpt>
      <trkpt lat="44.90113" lon="0.61452">
        <ele>112.2</ele>
        <time>2021-05-17T12:50:01.000Z</time>
      </trkpt>
      <trkpt lat="44.90115" lon="0.61452">
        <ele>112.5</ele>
        <time>2021-05-17T12:50:02.000Z</time>
      </trkpt>
      <trkpt lat="44.90116" lon="0.61452">
        <ele>112.4</ele>
        <time>2021-05-17T12:50:03.000Z</time>
      </trkpt>
      <trkpt lat="44.90118" lon="0.61453">
        <ele>112.3</ele>
        <time>2021-05-17T12:50:04.000Z</time>
      </trkpt>
      <trkpt lat="44.9012" lon="0.61452">
        <ele>112.6</ele>
        <time>2021-05-17T12:50:05.000Z</time>
      </trkpt>
      <trkpt lat="44.90121" lon="0.61451">
        <ele>112.8</ele>
        <time>2021-05-17T12:50:06.000Z</time>
      </trkpt>
      <trkpt lat="44.90124" lon="0.61449">
        <ele>113.5</ele>
        <time>2021-05-17T12:50:07.000Z</time>
      </trkpt>
      <trkpt lat="44.90126" lon="0.61448">
        <ele>113.4</ele>
        <time>2021-05-17T12:50:08.000Z</time>
      </trkpt>
      <trkpt lat="44.9013" lon="0.61447">
        <ele>113.6</ele>
        <time>2021-05-17T12:50:09.000Z</time>
      </trkpt>
      <trkpt lat="44.90133" lon="0.61446">
        <ele>113.8</ele>
        <time>2021-05-17T12:50:10.000Z</time>
      </trkpt>
      <trkpt lat="44.90136" lon="0.61445">
        <ele>114.6</ele>
        <time>2021-05-17T12:50:11.000Z</time>
      </trkpt>
      <trkpt lat="44.90139" lon="0.61445">
        <ele>114.8</ele>
        <time>2021-05-17T12:50:12.000Z</time>
      </trkpt>
      <trkpt lat="44.90142" lon="0.61445">
        <ele>115.3</ele>
        <time>2021-05-17T12:50:13.000Z</time>
      </trkpt>
      <trkpt lat="44.90145" lon="0.61445">
        <ele>115.2</ele>
        <time>2021-05-17T12:50:14.000Z</time>
      </trkpt>
      <trkpt lat="44.90148" lon="0.61444">
        <ele>115.3</ele>
        <time>2021-05-17T12:50:15.000Z</time>
      </trkpt>
      <trkpt lat="44.90149" lon="0.61443">
        <ele>115.5</ele>
        <time>2021-05-17T12:50:16.000Z</time>
      </trkpt>
      <trkpt lat="44.90152" lon="0.61443">
        <ele>115.6</ele>
        <time>2021-05-17T12:50:17.000Z</time>
      </trkpt>
      <trkpt lat="44.90155" lon="0.61442">
        <ele>115.8</ele>
        <time>2021-05-17T12:50:18.000Z</time>
      </trkpt>
      <trkpt lat="44.90156" lon="0.61442">
        <ele>116.2</ele>
        <time>2021-05-17T12:50:19.000Z</time>
      </trkpt>
      <trkpt lat="44.90159" lon="0.6144">
        <ele>116.4</ele>
        <time>2021-05-17T12:50:20.000Z</time>
      </trkpt>
      <trkpt lat="44.90161" lon="0.61439">
        <ele>116.6</ele>
        <time>2021-05-17T12:50:21.000Z</time>
      </trkpt>
      <trkpt lat="44.90164" lon="0.61439">
        <ele>116.8</ele>
        <time>2021-05-17T12:50:22.000Z</time>
      </trkpt>
      <trkpt lat="44.90165" lon="0.61439">
        <ele>116.7</ele>
        <time>2021-05-17T12:50:23.000Z</time>
      </trkpt>
      <trkpt lat="44.90167" lon="0.61438">
        <ele>116.9</ele>
        <time>2021-05-17T12:50:24.000Z</time>
      </trkpt>
      <trkpt lat="44.90171" lon="0.61438">
        <ele>117.1</ele>
        <time>2021-05-17T12:50:25.000Z</time>
      </trkpt>
      <trkpt lat="44.90172" lon="0.61438">
        <ele>117.1</ele>
        <time>2021-05-17T12:50:26.000Z</time>
      </trkpt>
      <trkpt lat="44.90173" lon="0.61438">
        <ele>117.3</ele>
        <time>2021-05-17T12:50:27.000Z</time>
      </trkpt>
      <trkpt lat="44.90174" lon="0.61436">
        <ele>117.7</ele>
        <time>2021-05-17T12:50:28.000Z</time>
      </trkpt>
      <trkpt lat="44.90175" lon="0.61434">
        <ele>117.6</ele>
        <time>2021-05-17T12:50:29.000Z</time>
      </trkpt>
      <trkpt lat="44.90175" lon="0.61431">
        <ele>118</ele>
        <time>2021-05-17T12:50:30.000Z</time>
      </trkpt>
      <trkpt lat="44.90175" lon="0.61429">
        <ele>117.9</ele>
        <time>2021-05-17T12:50:31.000Z</time>
      </trkpt>
      <trkpt lat="44.90175" lon="0.61427">
        <ele>118.3</ele>
        <time>2021-05-17T12:50:32.000Z</time>
      </trkpt>
      <trkpt lat="44.90175" lon="0.61425">
        <ele>118.3</ele>
        <time>2021-05-17T12:50:33.000Z</time>
      </trkpt>
      <trkpt lat="44.90175" lon="0.61424">
        <ele>118.7</ele>
        <time>2021-05-17T12:50:34.000Z</time>
      </trkpt>
      <trkpt lat="44.90174" lon="0.61423">
        <ele>118.6</ele>
        <time>2021-05-17T12:50:35.000Z</time>
      </trkpt>
      <trkpt lat="44.90174" lon="0.61421">
        <ele>118.5</ele>
        <time>2021-05-17T12:50:36.000Z</time>
      </trkpt>
      <trkpt lat="44.90174" lon="0.61419">
        <ele>118.9</ele>
        <time>2021-05-17T12:50:37.000Z</time>
      </trkpt>
      <trkpt lat="44.90174" lon="0.61417">
        <ele>118.8</ele>
        <time>2021-05-17T12:50:38.000Z</time>
      </trkpt>
      <trkpt lat="44.90175" lon="0.61414">
        <ele>119.2</ele>
        <time>2021-05-17T12:50:39.000Z</time>
      </trkpt>
      <trkpt lat="44.90176" lon="0.61411">
        <ele>119.8</ele>
        <time>2021-05-17T12:50:40.000Z</time>
      </trkpt>
      <trkpt lat="44.90177" lon="0.6141">
        <ele>119.8</ele>
        <time>2021-05-17T12:50:41.000Z</time>
      </trkpt>
      <trkpt lat="44.90179" lon="0.61409">
        <ele>120</ele>
        <time>2021-05-17T12:50:42.000Z</time>
      </trkpt>
      <trkpt lat="44.90181" lon="0.61407">
        <ele>120.3</ele>
        <time>2021-05-17T12:50:43.000Z</time>
      </trkpt>
      <trkpt lat="44.90181" lon="0.61406">
        <ele>120.3</ele>
        <time>2021-05-17T12:50:44.000Z</time>
      </trkpt>
      <trkpt lat="44.90183" lon="0.61405">
        <ele>120.5</ele>
        <time>2021-05-17T12:50:45.000Z</time>
      </trkpt>
      <trkpt lat="44.90184" lon="0.61403">
        <ele>120.9</ele>
        <time>2021-05-17T12:50:46.000Z</time>
      </trkpt>
      <trkpt lat="44.90186" lon="0.614">
        <ele>121.1</ele>
        <time>2021-05-17T12:50:47.000Z</time>
      </trkpt>
      <trkpt lat="44.90187" lon="0.61399">
        <ele>121</ele>
        <time>2021-05-17T12:50:48.000Z</time>
      </trkpt>
      <trkpt lat="44.90189" lon="0.61396">
        <ele>121.7</ele>
        <time>2021-05-17T12:50:49.000Z</time>
      </trkpt>
      <trkpt lat="44.90189" lon="0.61396">
        <ele>121.7</ele>
        <time>2021-05-17T12:50:50.000Z</time>
      </trkpt>
      <trkpt lat="44.90192" lon="0.61393">
        <ele>122.4</ele>
        <time>2021-05-17T12:50:51.000Z</time>
      </trkpt>
      <trkpt lat="44.90193" lon="0.61392">
        <ele>122.3</ele>
        <time>2021-05-17T12:50:52.000Z</time>
      </trkpt>
      <trkpt lat="44.90195" lon="0.6139">
        <ele>123.1</ele>
        <time>2021-05-17T12:50:53.000Z</time>
      </trkpt>
      <trkpt lat="44.90195" lon="0.61389">
        <ele>123</ele>
        <time>2021-05-17T12:50:54.000Z</time>
      </trkpt>
      <trkpt lat="44.90198" lon="0.61387">
        <ele>123.3</ele>
        <time>2021-05-17T12:50:55.000Z</time>
      </trkpt>
      <trkpt lat="44.90199" lon="0.61386">
        <ele>123.2</ele>
        <time>2021-05-17T12:50:56.000Z</time>
      </trkpt>
      <trkpt lat="44.90201" lon="0.61384">
        <ele>124</ele>
        <time>2021-05-17T12:50:57.000Z</time>
      </trkpt>
      <trkpt lat="44.90203" lon="0.61382">
        <ele>124.2</ele>
        <time>2021-05-17T12:50:58.000Z</time>
      </trkpt>
      <trkpt lat="44.90204" lon="0.61381">
        <ele>124.6</ele>
        <time>2021-05-17T12:50:59.000Z</time>
      </trkpt>
      <trkpt lat="44.90207" lon="0.61379">
        <ele>124.8</ele>
        <time>2021-05-17T12:51:00.000Z</time>
      </trkpt>
      <trkpt lat="44.9021" lon="0.61376">
        <ele>125.4</ele>
        <time>2021-05-17T12:51:01.000Z</time>
      </trkpt>
      <trkpt lat="44.90211" lon="0.61376">
        <ele>125.4</ele>
        <time>2021-05-17T12:51:02.000Z</time>
      </trkpt>
      <trkpt lat="44.90213" lon="0.61373">
        <ele>125.7</ele>
        <time>2021-05-17T12:51:03.000Z</time>
      </trkpt>
      <trkpt lat="44.90217" lon="0.6137">
        <ele>126.3</ele>
        <time>2021-05-17T12:51:04.000Z</time>
      </trkpt>
      <trkpt lat="44.90217" lon="0.61369">
        <ele>126.2</ele>
        <time>2021-05-17T12:51:05.000Z</time>
      </trkpt>
      <trkpt lat="44.9022" lon="0.61366">
        <ele>126.8</ele>
        <time>2021-05-17T12:51:06.000Z</time>
      </trkpt>
      <trkpt lat="44.90221" lon="0.61365">
        <ele>126.7</ele>
        <time>2021-05-17T12:51:07.000Z</time>
      </trkpt>
      <trkpt lat="44.90224" lon="0.61362">
        <ele>127.2</ele>
        <time>2021-05-17T12:51:08.000Z</time>
      </trkpt>
      <trkpt lat="44.90225" lon="0.61361">
        <ele>127.5</ele>
        <time>2021-05-17T12:51:09.000Z</time>
      </trkpt>
      <trkpt lat="44.90226" lon="0.6136">
        <ele>127.6</ele>
        <time>2021-05-17T12:51:10.000Z</time>
      </trkpt>
      <trkpt lat="44.90228" lon="0.61358">
        <ele>127.9</ele>
        <time>2021-05-17T12:51:11.000Z</time>
      </trkpt>
      <trkpt lat="44.9023" lon="0.61357">
        <ele>127.8</ele>
        <time>2021-05-17T12:51:12.000Z</time>
      </trkpt>
      <trkpt lat="44.90233" lon="0.61355">
        <ele>128.1</ele>
        <time>2021-05-17T12:51:13.000Z</time>
      </trkpt>
      <trkpt lat="44.90234" lon="0.61354">
        <ele>128.2</ele>
        <time>2021-05-17T12:51:14.000Z</time>
      </trkpt>
      <trkpt lat="44.90236" lon="0.61352">
        <ele>128.2</ele>
        <time>2021-05-17T12:51:15.000Z</time>
      </trkpt>
      <trkpt lat="44.90237" lon="0.6135">
        <ele>128.3</ele>
        <time>2021-05-17T12:51:16.000Z</time>
      </trkpt>
      <trkpt lat="44.90238" lon="0.6135">
        <ele>128.2</ele>
        <time>2021-05-17T12:51:17.000Z</time>
      </trkpt>
      <trkpt lat="44.9024" lon="0.61348">
        <ele>128.2</ele>
        <time>2021-05-17T12:51:18.000Z</time>
      </trkpt>
      <trkpt lat="44.90242" lon="0.61346">
        <ele>128.2</ele>
        <time>2021-05-17T12:51:19.000Z</time>
      </trkpt>
      <trkpt lat="44.90244" lon="0.61344">
        <ele>128.2</ele>
        <time>2021-05-17T12:51:20.000Z</time>
      </trkpt>
      <trkpt lat="44.90245" lon="0.61344">
        <ele>128.1</ele>
        <time>2021-05-17T12:51:21.000Z</time>
      </trkpt>
      <trkpt lat="44.90247" lon="0.61342">
        <ele>128.1</ele>
        <time>2021-05-17T12:51:22.000Z</time>
      </trkpt>
      <trkpt lat="44.90248" lon="0.61342">
        <ele>128</ele>
        <time>2021-05-17T12:51:23.000Z</time>
      </trkpt>
      <trkpt lat="44.9025" lon="0.6134">
        <ele>128</ele>
        <time>2021-05-17T12:51:24.000Z</time>
      </trkpt>
      <trkpt lat="44.90252" lon="0.61338">
        <ele>127.9</ele>
        <time>2021-05-17T12:51:25.000Z</time>
      </trkpt>
      <trkpt lat="44.90253" lon="0.61337">
        <ele>127.9</ele>
        <time>2021-05-17T12:51:26.000Z</time>
      </trkpt>
      <trkpt lat="44.90254" lon="0.61337">
        <ele>127.8</ele>
        <time>2021-05-17T12:51:27.000Z</time>
      </trkpt>
      <trkpt lat="44.90255" lon="0.61337">
        <ele>127.8</ele>
        <time>2021-05-17T12:51:28.000Z</time>
      </trkpt>
      <trkpt lat="44.90257" lon="0.61337">
        <ele>127.7</ele>
        <time>2021-05-17T12:51:29.000Z</time>
      </trkpt>
      <trkpt lat="44.90258" lon="0.61337">
        <ele>127.7</ele>
        <time>2021-05-17T12:51:30.000Z</time>
      </trkpt>
      <trkpt lat="44.9026" lon="0.61338">
        <ele>127.6</ele>
        <time>2021-05-17T12:51:31.000Z</time>
      </trkpt>
      <trkpt lat="44.90262" lon="0.61339">
        <ele>127.5</ele>
        <time>2021-05-17T12:51:33.000Z</time>
      </trkpt>
      <trkpt lat="44.90263" lon="0.61339">
        <ele>127.5</ele>
        <time>2021-05-17T12:51:34.000Z</time>
      </trkpt>
      <trkpt lat="44.90264" lon="0.61339">
        <ele>127.5</ele>
        <time>2021-05-17T12:51:35.000Z</time>
      </trkpt>
      <trkpt lat="44.90266" lon="0.61341">
        <ele>127.5</ele>
        <time>2021-05-17T12:51:36.000Z</time>
      </trkpt>
      <trkpt lat="44.90266" lon="0.61342">
        <ele>127.5</ele>
        <time>2021-05-17T12:51:37.000Z</time>
      </trkpt>
      <trkpt lat="44.90266" lon="0.61343">
        <ele>127.5</ele>
        <time>2021-05-17T12:51:38.000Z</time>
      </trkpt>
      <trkpt lat="44.90267" lon="0.61344">
        <ele>127.5</ele>
        <time>2021-05-17T12:51:39.000Z</time>
      </trkpt>
      <trkpt lat="44.90268" lon="0.61346">
        <ele>127.5</ele>
        <time>2021-05-17T12:51:40.000Z</time>
      </trkpt>
      <trkpt lat="44.90269" lon="0.61348">
        <ele>127.5</ele>
        <time>2021-05-17T12:51:41.000Z</time>
      </trkpt>
      <trkpt lat="44.90269" lon="0.61349">
        <ele>127.5</ele>
        <time>2021-05-17T12:51:42.000Z</time>
      </trkpt>
      <trkpt lat="44.9027" lon="0.6135">
        <ele>127.4</ele>
        <time>2021-05-17T12:51:43.000Z</time>
      </trkpt>
      <trkpt lat="44.90271" lon="0.61352">
        <ele>127.4</ele>
        <time>2021-05-17T12:51:44.000Z</time>
      </trkpt>
      <trkpt lat="44.90273" lon="0.61356">
        <ele>127.4</ele>
        <time>2021-05-17T12:51:45.000Z</time>
      </trkpt>
      <trkpt lat="44.90274" lon="0.61358">
        <ele>127.4</ele>
        <time>2021-05-17T12:51:46.000Z</time>
      </trkpt>
      <trkpt lat="44.90276" lon="0.61362">
        <ele>127.4</ele>
        <time>2021-05-17T12:51:47.000Z</time>
      </trkpt>
      <trkpt lat="44.90279" lon="0.61365">
        <ele>127.3</ele>
        <time>2021-05-17T12:51:48.000Z</time>
      </trkpt>
      <trkpt lat="44.9028" lon="0.61366">
        <ele>127.3</ele>
        <time>2021-05-17T12:51:49.000Z</time>
      </trkpt>
      <trkpt lat="44.90282" lon="0.61369">
        <ele>127.3</ele>
        <time>2021-05-17T12:51:50.000Z</time>
      </trkpt>
      <trkpt lat="44.90284" lon="0.61373">
        <ele>127.3</ele>
        <time>2021-05-17T12:51:51.000Z</time>
      </trkpt>
      <trkpt lat="44.90285" lon="0.61374">
        <ele>127.2</ele>
        <time>2021-05-17T12:51:52.000Z</time>
      </trkpt>
      <trkpt lat="44.90287" lon="0.61378">
        <ele>127.2</ele>
        <time>2021-05-17T12:51:53.000Z</time>
      </trkpt>
      <trkpt lat="44.9029" lon="0.61384">
        <ele>127.2</ele>
        <time>2021-05-17T12:51:54.000Z</time>
      </trkpt>
      <trkpt lat="44.90293" lon="0.61389">
        <ele>127.2</ele>
        <time>2021-05-17T12:51:55.000Z</time>
      </trkpt>
      <trkpt lat="44.90295" lon="0.61393">
        <ele>127.2</ele>
        <time>2021-05-17T12:51:56.000Z</time>
      </trkpt>
      <trkpt lat="44.90298" lon="0.61398">
        <ele>127.2</ele>
        <time>2021-05-17T12:51:57.000Z</time>
      </trkpt>
      <trkpt lat="44.903" lon="0.61402">
        <ele>127.2</ele>
        <time>2021-05-17T12:51:58.000Z</time>
      </trkpt>
      <trkpt lat="44.90302" lon="0.61406">
        <ele>127.2</ele>
        <time>2021-05-17T12:51:59.000Z</time>
      </trkpt>
      <trkpt lat="44.90304" lon="0.61407">
        <ele>127.2</ele>
        <time>2021-05-17T12:52:00.000Z</time>
      </trkpt>
      <trkpt lat="44.90306" lon="0.61412">
        <ele>127.3</ele>
        <time>2021-05-17T12:52:01.000Z</time>
      </trkpt>
      <trkpt lat="44.90307" lon="0.61416">
        <ele>127.3</ele>
        <time>2021-05-17T12:52:02.000Z</time>
      </trkpt>
      <trkpt lat="44.90309" lon="0.6142">
        <ele>127.3</ele>
        <time>2021-05-17T12:52:03.000Z</time>
      </trkpt>
      <trkpt lat="44.90312" lon="0.61425">
        <ele>127.3</ele>
        <time>2021-05-17T12:52:04.000Z</time>
      </trkpt>
      <trkpt lat="44.90314" lon="0.61429">
        <ele>127.4</ele>
        <time>2021-05-17T12:52:05.000Z</time>
      </trkpt>
      <trkpt lat="44.90316" lon="0.61433">
        <ele>127.4</ele>
        <time>2021-05-17T12:52:06.000Z</time>
      </trkpt>
      <trkpt lat="44.90317" lon="0.61435">
        <ele>127.4</ele>
        <time>2021-05-17T12:52:07.000Z</time>
      </trkpt>
      <trkpt lat="44.9032" lon="0.6144">
        <ele>127.4</ele>
        <time>2021-05-17T12:52:08.000Z</time>
      </trkpt>
      <trkpt lat="44.90322" lon="0.61444">
        <ele>127.4</ele>
        <time>2021-05-17T12:52:09.000Z</time>
      </trkpt>
      <trkpt lat="44.90324" lon="0.61449">
        <ele>127.5</ele>
        <time>2021-05-17T12:52:10.000Z</time>
      </trkpt>
      <trkpt lat="44.90327" lon="0.61455">
        <ele>127.5</ele>
        <time>2021-05-17T12:52:11.000Z</time>
      </trkpt>
      <trkpt lat="44.90329" lon="0.6146">
        <ele>127.5</ele>
        <time>2021-05-17T12:52:12.000Z</time>
      </trkpt>
      <trkpt lat="44.90332" lon="0.61462">
        <ele>127.5</ele>
        <time>2021-05-17T12:52:13.000Z</time>
      </trkpt>
      <trkpt lat="44.90334" lon="0.61468">
        <ele>127.5</ele>
        <time>2021-05-17T12:52:14.000Z</time>
      </trkpt>
      <trkpt lat="44.90337" lon="0.61474">
        <ele>127.5</ele>
        <time>2021-05-17T12:52:15.000Z</time>
      </trkpt>
      <trkpt lat="44.90342" lon="0.61482">
        <ele>127.5</ele>
        <time>2021-05-17T12:52:16.000Z</time>
      </trkpt>
      <trkpt lat="44.90345" lon="0.61489">
        <ele>127.6</ele>
        <time>2021-05-17T12:52:17.000Z</time>
      </trkpt>
      <trkpt lat="44.90349" lon="0.61497">
        <ele>127.6</ele>
        <time>2021-05-17T12:52:18.000Z</time>
      </trkpt>
      <trkpt lat="44.90352" lon="0.61505">
        <ele>127.6</ele>
        <time>2021-05-17T12:52:19.000Z</time>
      </trkpt>
      <trkpt lat="44.90356" lon="0.61513">
        <ele>127.7</ele>
        <time>2021-05-17T12:52:20.000Z</time>
      </trkpt>
      <trkpt lat="44.9036" lon="0.6152">
        <ele>127.9</ele>
        <time>2021-05-17T12:52:21.000Z</time>
      </trkpt>
      <trkpt lat="44.90363" lon="0.61527">
        <ele>128</ele>
        <time>2021-05-17T12:52:22.000Z</time>
      </trkpt>
      <trkpt lat="44.90366" lon="0.61532">
        <ele>128.1</ele>
        <time>2021-05-17T12:52:23.000Z</time>
      </trkpt>
      <trkpt lat="44.90369" lon="0.61538">
        <ele>128.2</ele>
        <time>2021-05-17T12:52:24.000Z</time>
      </trkpt>
      <trkpt lat="44.90373" lon="0.61546">
        <ele>128.3</ele>
        <time>2021-05-17T12:52:25.000Z</time>
      </trkpt>
      <trkpt lat="44.90376" lon="0.61554">
        <ele>128.4</ele>
        <time>2021-05-17T12:52:26.000Z</time>
      </trkpt>
      <trkpt lat="44.9038" lon="0.61561">
        <ele>128.6</ele>
        <time>2021-05-17T12:52:27.000Z</time>
      </trkpt>
      <trkpt lat="44.90383" lon="0.61567">
        <ele>128.7</ele>
        <time>2021-05-17T12:52:28.000Z</time>
      </trkpt>
      <trkpt lat="44.90386" lon="0.61572">
        <ele>128.8</ele>
        <time>2021-05-17T12:52:29.000Z</time>
      </trkpt>
      <trkpt lat="44.90388" lon="0.61577">
        <ele>129</ele>
        <time>2021-05-17T12:52:30.000Z</time>
      </trkpt>
      <trkpt lat="44.90392" lon="0.61584">
        <ele>129.1</ele>
        <time>2021-05-17T12:52:31.000Z</time>
      </trkpt>
      <trkpt lat="44.90395" lon="0.6159">
        <ele>129.2</ele>
        <time>2021-05-17T12:52:32.000Z</time>
      </trkpt>
      <trkpt lat="44.90397" lon="0.61594">
        <ele>129.3</ele>
        <time>2021-05-17T12:52:33.000Z</time>
      </trkpt>
      <trkpt lat="44.904" lon="0.616">
        <ele>129.4</ele>
        <time>2021-05-17T12:52:34.000Z</time>
      </trkpt>
      <trkpt lat="44.90403" lon="0.61605">
        <ele>129.4</ele>
        <time>2021-05-17T12:52:35.000Z</time>
      </trkpt>
      <trkpt lat="44.90405" lon="0.6161">
        <ele>129.5</ele>
        <time>2021-05-17T12:52:36.000Z</time>
      </trkpt>
      <trkpt lat="44.90408" lon="0.61615">
        <ele>129.5</ele>
        <time>2021-05-17T12:52:37.000Z</time>
      </trkpt>
      <trkpt lat="44.9041" lon="0.6162">
        <ele>129.6</ele>
        <time>2021-05-17T12:52:38.000Z</time>
      </trkpt>
      <trkpt lat="44.90413" lon="0.61625">
        <ele>129.6</ele>
        <time>2021-05-17T12:52:39.000Z</time>
      </trkpt>
      <trkpt lat="44.90416" lon="0.61631">
        <ele>129.6</ele>
        <time>2021-05-17T12:52:40.000Z</time>
      </trkpt>
      <trkpt lat="44.90418" lon="0.61636">
        <ele>129.6</ele>
        <time>2021-05-17T12:52:41.000Z</time>
      </trkpt>
      <trkpt lat="44.90422" lon="0.61642">
        <ele>129.6</ele>
        <time>2021-05-17T12:52:42.000Z</time>
      </trkpt>
      <trkpt lat="44.90425" lon="0.61647">
        <ele>129.6</ele>
        <time>2021-05-17T12:52:43.000Z</time>
      </trkpt>
      <trkpt lat="44.90428" lon="0.61652">
        <ele>129.6</ele>
        <time>2021-05-17T12:52:44.000Z</time>
      </trkpt>
      <trkpt lat="44.90431" lon="0.61658">
        <ele>129.5</ele>
        <time>2021-05-17T12:52:45.000Z</time>
      </trkpt>
      <trkpt lat="44.90434" lon="0.61665">
        <ele>129.5</ele>
        <time>2021-05-17T12:52:46.000Z</time>
      </trkpt>
      <trkpt lat="44.90437" lon="0.61671">
        <ele>129.5</ele>
        <time>2021-05-17T12:52:47.000Z</time>
      </trkpt>
      <trkpt lat="44.90439" lon="0.61677">
        <ele>129.5</ele>
        <time>2021-05-17T12:52:48.000Z</time>
      </trkpt>
      <trkpt lat="44.90442" lon="0.61683">
        <ele>129.4</ele>
        <time>2021-05-17T12:52:49.000Z</time>
      </trkpt>
      <trkpt lat="44.90444" lon="0.61688">
        <ele>129.4</ele>
        <time>2021-05-17T12:52:50.000Z</time>
      </trkpt>
      <trkpt lat="44.90446" lon="0.61694">
        <ele>129.4</ele>
        <time>2021-05-17T12:52:51.000Z</time>
      </trkpt>
      <trkpt lat="44.9045" lon="0.61701">
        <ele>129.3</ele>
        <time>2021-05-17T12:52:52.000Z</time>
      </trkpt>
      <trkpt lat="44.90453" lon="0.61706">
        <ele>129.3</ele>
        <time>2021-05-17T12:52:53.000Z</time>
      </trkpt>
      <trkpt lat="44.90455" lon="0.61713">
        <ele>129.3</ele>
        <time>2021-05-17T12:52:54.000Z</time>
      </trkpt>
      <trkpt lat="44.90458" lon="0.61719">
        <ele>129.3</ele>
        <time>2021-05-17T12:52:55.000Z</time>
      </trkpt>
      <trkpt lat="44.9046" lon="0.61725">
        <ele>129.2</ele>
        <time>2021-05-17T12:52:56.000Z</time>
      </trkpt>
      <trkpt lat="44.90464" lon="0.61731">
        <ele>129.2</ele>
        <time>2021-05-17T12:52:57.000Z</time>
      </trkpt>
      <trkpt lat="44.90466" lon="0.61736">
        <ele>129.1</ele>
        <time>2021-05-17T12:52:58.000Z</time>
      </trkpt>
      <trkpt lat="44.90469" lon="0.61742">
        <ele>129</ele>
        <time>2021-05-17T12:52:59.000Z</time>
      </trkpt>
      <trkpt lat="44.90472" lon="0.61748">
        <ele>129</ele>
        <time>2021-05-17T12:53:00.000Z</time>
      </trkpt>
      <trkpt lat="44.90474" lon="0.61754">
        <ele>128.9</ele>
        <time>2021-05-17T12:53:01.000Z</time>
      </trkpt>
      <trkpt lat="44.90477" lon="0.6176">
        <ele>128.8</ele>
        <time>2021-05-17T12:53:02.000Z</time>
      </trkpt>
      <trkpt lat="44.90479" lon="0.61766">
        <ele>128.7</ele>
        <time>2021-05-17T12:53:03.000Z</time>
      </trkpt>
      <trkpt lat="44.90482" lon="0.61772">
        <ele>128.6</ele>
        <time>2021-05-17T12:53:04.000Z</time>
      </trkpt>
      <trkpt lat="44.90484" lon="0.61778">
        <ele>128.5</ele>
        <time>2021-05-17T12:53:05.000Z</time>
      </trkpt>
      <trkpt lat="44.90487" lon="0.61783">
        <ele>128.4</ele>
        <time>2021-05-17T12:53:06.000Z</time>
      </trkpt>
      <trkpt lat="44.90489" lon="0.61788">
        <ele>128.3</ele>
        <time>2021-05-17T12:53:07.000Z</time>
      </trkpt>
      <trkpt lat="44.90491" lon="0.61793">
        <ele>128.3</ele>
        <time>2021-05-17T12:53:08.000Z</time>
      </trkpt>
      <trkpt lat="44.90493" lon="0.61801">
        <ele>128.1</ele>
        <time>2021-05-17T12:53:09.000Z</time>
      </trkpt>
      <trkpt lat="44.90495" lon="0.61806">
        <ele>128.1</ele>
        <time>2021-05-17T12:53:10.000Z</time>
      </trkpt>
      <trkpt lat="44.90497" lon="0.61812">
        <ele>128</ele>
        <time>2021-05-17T12:53:11.000Z</time>
      </trkpt>
      <trkpt lat="44.905" lon="0.61815">
        <ele>127.9</ele>
        <time>2021-05-17T12:53:12.000Z</time>
      </trkpt>
      <trkpt lat="44.90503" lon="0.61822">
        <ele>127.8</ele>
        <time>2021-05-17T12:53:13.000Z</time>
      </trkpt>
      <trkpt lat="44.90505" lon="0.61829">
        <ele>127.7</ele>
        <time>2021-05-17T12:53:14.000Z</time>
      </trkpt>
      <trkpt lat="44.90507" lon="0.61836">
        <ele>127.6</ele>
        <time>2021-05-17T12:53:15.000Z</time>
      </trkpt>
      <trkpt lat="44.9051" lon="0.61842">
        <ele>127.5</ele>
        <time>2021-05-17T12:53:16.000Z</time>
      </trkpt>
      <trkpt lat="44.90513" lon="0.61848">
        <ele>127.4</ele>
        <time>2021-05-17T12:53:17.000Z</time>
      </trkpt>
      <trkpt lat="44.90515" lon="0.61851">
        <ele>127.4</ele>
        <time>2021-05-17T12:53:18.000Z</time>
      </trkpt>
      <trkpt lat="44.90518" lon="0.61855">
        <ele>127.3</ele>
        <time>2021-05-17T12:53:19.000Z</time>
      </trkpt>
      <trkpt lat="44.90521" lon="0.6186">
        <ele>127.3</ele>
        <time>2021-05-17T12:53:20.000Z</time>
      </trkpt>
      <trkpt lat="44.90526" lon="0.61866">
        <ele>127.2</ele>
        <time>2021-05-17T12:53:21.000Z</time>
      </trkpt>
      <trkpt lat="44.90529" lon="0.61872">
        <ele>127.2</ele>
        <time>2021-05-17T12:53:22.000Z</time>
      </trkpt>
      <trkpt lat="44.90531" lon="0.61878">
        <ele>127.1</ele>
        <time>2021-05-17T12:53:23.000Z</time>
      </trkpt>
      <trkpt lat="44.90533" lon="0.61882">
        <ele>127.1</ele>
        <time>2021-05-17T12:53:24.000Z</time>
      </trkpt>
      <trkpt lat="44.90535" lon="0.61887">
        <ele>127.1</ele>
        <time>2021-05-17T12:53:25.000Z</time>
      </trkpt>
      <trkpt lat="44.90536" lon="0.61889">
        <ele>127.1</ele>
        <time>2021-05-17T12:53:26.000Z</time>
      </trkpt>
      <trkpt lat="44.90538" lon="0.61895">
        <ele>127.2</ele>
        <time>2021-05-17T12:53:27.000Z</time>
      </trkpt>
      <trkpt lat="44.90541" lon="0.619">
        <ele>127.2</ele>
        <time>2021-05-17T12:53:28.000Z</time>
      </trkpt>
      <trkpt lat="44.90543" lon="0.61904">
        <ele>127.2</ele>
        <time>2021-05-17T12:53:29.000Z</time>
      </trkpt>
      <trkpt lat="44.90545" lon="0.61911">
        <ele>127.3</ele>
        <time>2021-05-17T12:53:30.000Z</time>
      </trkpt>
      <trkpt lat="44.90549" lon="0.6192">
        <ele>127.4</ele>
        <time>2021-05-17T12:53:31.000Z</time>
      </trkpt>
      <trkpt lat="44.90552" lon="0.61928">
        <ele>127.4</ele>
        <time>2021-05-17T12:53:32.000Z</time>
      </trkpt>
      <trkpt lat="44.90556" lon="0.61935">
        <ele>127.5</ele>
        <time>2021-05-17T12:53:33.000Z</time>
      </trkpt>
      <trkpt lat="44.90561" lon="0.6194">
        <ele>127.6</ele>
        <time>2021-05-17T12:53:34.000Z</time>
      </trkpt>
      <trkpt lat="44.90565" lon="0.61944">
        <ele>127.7</ele>
        <time>2021-05-17T12:53:35.000Z</time>
      </trkpt>
      <trkpt lat="44.90569" lon="0.6195">
        <ele>127.8</ele>
        <time>2021-05-17T12:53:36.000Z</time>
      </trkpt>
      <trkpt lat="44.90572" lon="0.61957">
        <ele>127.9</ele>
        <time>2021-05-17T12:53:37.000Z</time>
      </trkpt>
      <trkpt lat="44.90575" lon="0.61962">
        <ele>128.1</ele>
        <time>2021-05-17T12:53:39.000Z</time>
      </trkpt>
      <trkpt lat="44.90577" lon="0.61967">
        <ele>128.2</ele>
        <time>2021-05-17T12:53:40.000Z</time>
      </trkpt>
      <trkpt lat="44.9058" lon="0.61972">
        <ele>128.3</ele>
        <time>2021-05-17T12:53:41.000Z</time>
      </trkpt>
      <trkpt lat="44.90583" lon="0.61979">
        <ele>128.4</ele>
        <time>2021-05-17T12:53:42.000Z</time>
      </trkpt>
      <trkpt lat="44.90586" lon="0.61985">
        <ele>128.6</ele>
        <time>2021-05-17T12:53:43.000Z</time>
      </trkpt>
      <trkpt lat="44.90589" lon="0.61989">
        <ele>128.8</ele>
        <time>2021-05-17T12:53:44.000Z</time>
      </trkpt>
      <trkpt lat="44.90592" lon="0.61994">
        <ele>129</ele>
        <time>2021-05-17T12:53:45.000Z</time>
      </trkpt>
      <trkpt lat="44.90595" lon="0.62">
        <ele>129.2</ele>
        <time>2021-05-17T12:53:46.000Z</time>
      </trkpt>
      <trkpt lat="44.90599" lon="0.62006">
        <ele>129.5</ele>
        <time>2021-05-17T12:53:47.000Z</time>
      </trkpt>
      <trkpt lat="44.90602" lon="0.62011">
        <ele>129.7</ele>
        <time>2021-05-17T12:53:48.000Z</time>
      </trkpt>
      <trkpt lat="44.90603" lon="0.62015">
        <ele>129.9</ele>
        <time>2021-05-17T12:53:49.000Z</time>
      </trkpt>
      <trkpt lat="44.90607" lon="0.62021">
        <ele>130.2</ele>
        <time>2021-05-17T12:53:50.000Z</time>
      </trkpt>
      <trkpt lat="44.9061" lon="0.62027">
        <ele>130.5</ele>
        <time>2021-05-17T12:53:51.000Z</time>
      </trkpt>
      <trkpt lat="44.90612" lon="0.62031">
        <ele>130.8</ele>
        <time>2021-05-17T12:53:52.000Z</time>
      </trkpt>
      <trkpt lat="44.90615" lon="0.62036">
        <ele>131</ele>
        <time>2021-05-17T12:53:53.000Z</time>
      </trkpt>
      <trkpt lat="44.90619" lon="0.62041">
        <ele>131.3</ele>
        <time>2021-05-17T12:53:54.000Z</time>
      </trkpt>
      <trkpt lat="44.90622" lon="0.62048">
        <ele>131.6</ele>
        <time>2021-05-17T12:53:55.000Z</time>
      </trkpt>
      <trkpt lat="44.90625" lon="0.62053">
        <ele>131.8</ele>
        <time>2021-05-17T12:53:56.000Z</time>
      </trkpt>
      <trkpt lat="44.90629" lon="0.6206">
        <ele>132</ele>
        <time>2021-05-17T12:53:57.000Z</time>
      </trkpt>
      <trkpt lat="44.90633" lon="0.62068">
        <ele>132.1</ele>
        <time>2021-05-17T12:53:58.000Z</time>
      </trkpt>
      <trkpt lat="44.90637" lon="0.62075">
        <ele>132.2</ele>
        <time>2021-05-17T12:53:59.000Z</time>
      </trkpt>
      <trkpt lat="44.9064" lon="0.6208">
        <ele>132.3</ele>
        <time>2021-05-17T12:54:00.000Z</time>
      </trkpt>
      <trkpt lat="44.90645" lon="0.6209">
        <ele>132.2</ele>
        <time>2021-05-17T12:54:01.000Z</time>
      </trkpt>
      <trkpt lat="44.90648" lon="0.62097">
        <ele>132.2</ele>
        <time>2021-05-17T12:54:02.000Z</time>
      </trkpt>
      <trkpt lat="44.9065" lon="0.62102">
        <ele>132.1</ele>
        <time>2021-05-17T12:54:03.000Z</time>
      </trkpt>
      <trkpt lat="44.90654" lon="0.62111">
        <ele>132</ele>
        <time>2021-05-17T12:54:04.000Z</time>
      </trkpt>
      <trkpt lat="44.90659" lon="0.62118">
        <ele>131.8</ele>
        <time>2021-05-17T12:54:05.000Z</time>
      </trkpt>
      <trkpt lat="44.90662" lon="0.62125">
        <ele>131.6</ele>
        <time>2021-05-17T12:54:06.000Z</time>
      </trkpt>
      <trkpt lat="44.90667" lon="0.62133">
        <ele>131.3</ele>
        <time>2021-05-17T12:54:07.000Z</time>
      </trkpt>
      <trkpt lat="44.9067" lon="0.62139">
        <ele>131.1</ele>
        <time>2021-05-17T12:54:08.000Z</time>
      </trkpt>
      <trkpt lat="44.90674" lon="0.62147">
        <ele>130.9</ele>
        <time>2021-05-17T12:54:09.000Z</time>
      </trkpt>
      <trkpt lat="44.90677" lon="0.62156">
        <ele>130.7</ele>
        <time>2021-05-17T12:54:10.000Z</time>
      </trkpt>
      <trkpt lat="44.90681" lon="0.62164">
        <ele>130.4</ele>
        <time>2021-05-17T12:54:11.000Z</time>
      </trkpt>
      <trkpt lat="44.90684" lon="0.62172">
        <ele>130.2</ele>
        <time>2021-05-17T12:54:12.000Z</time>
      </trkpt>
      <trkpt lat="44.90688" lon="0.6218">
        <ele>130</ele>
        <time>2021-05-17T12:54:13.000Z</time>
      </trkpt>
      <trkpt lat="44.90692" lon="0.62186">
        <ele>129.8</ele>
        <time>2021-05-17T12:54:14.000Z</time>
      </trkpt>
      <trkpt lat="44.90695" lon="0.62194">
        <ele>129.6</ele>
        <time>2021-05-17T12:54:15.000Z</time>
      </trkpt>
      <trkpt lat="44.90699" lon="0.62203">
        <ele>129.3</ele>
        <time>2021-05-17T12:54:16.000Z</time>
      </trkpt>
      <trkpt lat="44.90703" lon="0.62212">
        <ele>129.1</ele>
        <time>2021-05-17T12:54:17.000Z</time>
      </trkpt>
      <trkpt lat="44.90706" lon="0.62221">
        <ele>128.8</ele>
        <time>2021-05-17T12:54:18.000Z</time>
      </trkpt>
      <trkpt lat="44.90708" lon="0.62227">
        <ele>128.7</ele>
        <time>2021-05-17T12:54:19.000Z</time>
      </trkpt>
      <trkpt lat="44.90711" lon="0.62235">
        <ele>128.4</ele>
        <time>2021-05-17T12:54:20.000Z</time>
      </trkpt>
      <trkpt lat="44.90715" lon="0.62242">
        <ele>128.2</ele>
        <time>2021-05-17T12:54:21.000Z</time>
      </trkpt>
      <trkpt lat="44.90717" lon="0.62248">
        <ele>128</ele>
        <time>2021-05-17T12:54:22.000Z</time>
      </trkpt>
      <trkpt lat="44.90722" lon="0.62255">
        <ele>127.7</ele>
        <time>2021-05-17T12:54:23.000Z</time>
      </trkpt>
      <trkpt lat="44.90726" lon="0.62262">
        <ele>127.5</ele>
        <time>2021-05-17T12:54:24.000Z</time>
      </trkpt>
      <trkpt lat="44.9073" lon="0.6227">
        <ele>127.4</ele>
        <time>2021-05-17T12:54:25.000Z</time>
      </trkpt>
      <trkpt lat="44.90733" lon="0.62277">
        <ele>127.2</ele>
        <time>2021-05-17T12:54:26.000Z</time>
      </trkpt>
      <trkpt lat="44.90735" lon="0.62284">
        <ele>127</ele>
        <time>2021-05-17T12:54:27.000Z</time>
      </trkpt>
      <trkpt lat="44.90738" lon="0.62291">
        <ele>126.8</ele>
        <time>2021-05-17T12:54:28.000Z</time>
      </trkpt>
      <trkpt lat="44.9074" lon="0.62297">
        <ele>126.7</ele>
        <time>2021-05-17T12:54:29.000Z</time>
      </trkpt>
      <trkpt lat="44.90741" lon="0.62302">
        <ele>126.6</ele>
        <time>2021-05-17T12:54:30.000Z</time>
      </trkpt>
      <trkpt lat="44.90743" lon="0.62306">
        <ele>126.4</ele>
        <time>2021-05-17T12:54:31.000Z</time>
      </trkpt>
      <trkpt lat="44.90744" lon="0.62312">
        <ele>126.3</ele>
        <time>2021-05-17T12:54:32.000Z</time>
      </trkpt>
      <trkpt lat="44.90747" lon="0.62319">
        <ele>126.2</ele>
        <time>2021-05-17T12:54:33.000Z</time>
      </trkpt>
      <trkpt lat="44.9075" lon="0.62323">
        <ele>126.1</ele>
        <time>2021-05-17T12:54:34.000Z</time>
      </trkpt>
      <trkpt lat="44.90753" lon="0.6233">
        <ele>126</ele>
        <time>2021-05-17T12:54:35.000Z</time>
      </trkpt>
      <trkpt lat="44.90758" lon="0.62336">
        <ele>126</ele>
        <time>2021-05-17T12:54:36.000Z</time>
      </trkpt>
      <trkpt lat="44.9076" lon="0.62341">
        <ele>125.9</ele>
        <time>2021-05-17T12:54:37.000Z</time>
      </trkpt>
      <trkpt lat="44.90762" lon="0.62345">
        <ele>125.9</ele>
        <time>2021-05-17T12:54:38.000Z</time>
      </trkpt>
      <trkpt lat="44.90765" lon="0.62351">
        <ele>125.9</ele>
        <time>2021-05-17T12:54:39.000Z</time>
      </trkpt>
      <trkpt lat="44.90768" lon="0.62357">
        <ele>125.9</ele>
        <time>2021-05-17T12:54:40.000Z</time>
      </trkpt>
      <trkpt lat="44.9077" lon="0.62361">
        <ele>125.9</ele>
        <time>2021-05-17T12:54:41.000Z</time>
      </trkpt>
      <trkpt lat="44.90772" lon="0.62367">
        <ele>126</ele>
        <time>2021-05-17T12:54:42.000Z</time>
      </trkpt>
      <trkpt lat="44.90776" lon="0.62374">
        <ele>126.1</ele>
        <time>2021-05-17T12:54:43.000Z</time>
      </trkpt>
      <trkpt lat="44.9078" lon="0.6238">
        <ele>126.2</ele>
        <time>2021-05-17T12:54:44.000Z</time>
      </trkpt>
      <trkpt lat="44.90782" lon="0.62384">
        <ele>126.3</ele>
        <time>2021-05-17T12:54:45.000Z</time>
      </trkpt>
      <trkpt lat="44.90784" lon="0.6239">
        <ele>126.4</ele>
        <time>2021-05-17T12:54:46.000Z</time>
      </trkpt>
      <trkpt lat="44.90786" lon="0.62393">
        <ele>126.5</ele>
        <time>2021-05-17T12:54:47.000Z</time>
      </trkpt>
      <trkpt lat="44.90789" lon="0.62397">
        <ele>126.6</ele>
        <time>2021-05-17T12:54:48.000Z</time>
      </trkpt>
      <trkpt lat="44.90791" lon="0.62402">
        <ele>126.7</ele>
        <time>2021-05-17T12:54:49.000Z</time>
      </trkpt>
      <trkpt lat="44.90793" lon="0.62407">
        <ele>126.8</ele>
        <time>2021-05-17T12:54:50.000Z</time>
      </trkpt>
      <trkpt lat="44.90794" lon="0.62409">
        <ele>126.9</ele>
        <time>2021-05-17T12:54:51.000Z</time>
      </trkpt>
      <trkpt lat="44.90796" lon="0.62414">
        <ele>127.1</ele>
        <time>2021-05-17T12:54:52.000Z</time>
      </trkpt>
      <trkpt lat="44.90799" lon="0.62419">
        <ele>127.2</ele>
        <time>2021-05-17T12:54:53.000Z</time>
      </trkpt>
      <trkpt lat="44.908" lon="0.62425">
        <ele>127.4</ele>
        <time>2021-05-17T12:54:54.000Z</time>
      </trkpt>
      <trkpt lat="44.90802" lon="0.6243">
        <ele>127.6</ele>
        <time>2021-05-17T12:54:55.000Z</time>
      </trkpt>
      <trkpt lat="44.90803" lon="0.62435">
        <ele>127.7</ele>
        <time>2021-05-17T12:54:56.000Z</time>
      </trkpt>
      <trkpt lat="44.90805" lon="0.62438">
        <ele>127.9</ele>
        <time>2021-05-17T12:54:57.000Z</time>
      </trkpt>
      <trkpt lat="44.90806" lon="0.62442">
        <ele>128</ele>
        <time>2021-05-17T12:54:58.000Z</time>
      </trkpt>
      <trkpt lat="44.90808" lon="0.62448">
        <ele>128.2</ele>
        <time>2021-05-17T12:54:59.000Z</time>
      </trkpt>
      <trkpt lat="44.90812" lon="0.62453">
        <ele>128.5</ele>
        <time>2021-05-17T12:55:00.000Z</time>
      </trkpt>
      <trkpt lat="44.90816" lon="0.62461">
        <ele>128.8</ele>
        <time>2021-05-17T12:55:01.000Z</time>
      </trkpt>
      <trkpt lat="44.9082" lon="0.62468">
        <ele>129.1</ele>
        <time>2021-05-17T12:55:02.000Z</time>
      </trkpt>
      <trkpt lat="44.90819" lon="0.62469">
        <ele>129.1</ele>
        <time>2021-05-17T12:55:03.000Z</time>
      </trkpt>
      <trkpt lat="44.90821" lon="0.62472">
        <ele>129.2</ele>
        <time>2021-05-17T12:55:04.000Z</time>
      </trkpt>
      <trkpt lat="44.90823" lon="0.62476">
        <ele>129.3</ele>
        <time>2021-05-17T12:55:05.000Z</time>
      </trkpt>
      <trkpt lat="44.90825" lon="0.62482">
        <ele>129.5</ele>
        <time>2021-05-17T12:55:06.000Z</time>
      </trkpt>
      <trkpt lat="44.90827" lon="0.62486">
        <ele>129.5</ele>
        <time>2021-05-17T12:55:07.000Z</time>
      </trkpt>
      <trkpt lat="44.90829" lon="0.6249">
        <ele>129.6</ele>
        <time>2021-05-17T12:55:08.000Z</time>
      </trkpt>
      <trkpt lat="44.90831" lon="0.62495">
        <ele>129.7</ele>
        <time>2021-05-17T12:55:09.000Z</time>
      </trkpt>
      <trkpt lat="44.90833" lon="0.62497">
        <ele>129.8</ele>
        <time>2021-05-17T12:55:10.000Z</time>
      </trkpt>
      <trkpt lat="44.90835" lon="0.62504">
        <ele>129.8</ele>
        <time>2021-05-17T12:55:11.000Z</time>
      </trkpt>
      <trkpt lat="44.90836" lon="0.62507">
        <ele>129.9</ele>
        <time>2021-05-17T12:55:12.000Z</time>
      </trkpt>
      <trkpt lat="44.90836" lon="0.62511">
        <ele>130</ele>
        <time>2021-05-17T12:55:13.000Z</time>
      </trkpt>
      <trkpt lat="44.90838" lon="0.62516">
        <ele>130</ele>
        <time>2021-05-17T12:55:14.000Z</time>
      </trkpt>
      <trkpt lat="44.9084" lon="0.62519">
        <ele>130.1</ele>
        <time>2021-05-17T12:55:15.000Z</time>
      </trkpt>
      <trkpt lat="44.90842" lon="0.62524">
        <ele>130.2</ele>
        <time>2021-05-17T12:55:16.000Z</time>
      </trkpt>
      <trkpt lat="44.90844" lon="0.62527">
        <ele>130.2</ele>
        <time>2021-05-17T12:55:17.000Z</time>
      </trkpt>
      <trkpt lat="44.90847" lon="0.62533">
        <ele>130.4</ele>
        <time>2021-05-17T12:55:18.000Z</time>
      </trkpt>
      <trkpt lat="44.90848" lon="0.62536">
        <ele>130.5</ele>
        <time>2021-05-17T12:55:19.000Z</time>
      </trkpt>
      <trkpt lat="44.9085" lon="0.62542">
        <ele>130.6</ele>
        <time>2021-05-17T12:55:20.000Z</time>
      </trkpt>
      <trkpt lat="44.90853" lon="0.62547">
        <ele>130.8</ele>
        <time>2021-05-17T12:55:21.000Z</time>
      </trkpt>
      <trkpt lat="44.90854" lon="0.6255">
        <ele>130.8</ele>
        <time>2021-05-17T12:55:22.000Z</time>
      </trkpt>
      <trkpt lat="44.90855" lon="0.62553">
        <ele>130.9</ele>
        <time>2021-05-17T12:55:23.000Z</time>
      </trkpt>
      <trkpt lat="44.90856" lon="0.6256">
        <ele>131.1</ele>
        <time>2021-05-17T12:55:24.000Z</time>
      </trkpt>
      <trkpt lat="44.90858" lon="0.62564">
        <ele>131.2</ele>
        <time>2021-05-17T12:55:25.000Z</time>
      </trkpt>
      <trkpt lat="44.9086" lon="0.6257">
        <ele>131.3</ele>
        <time>2021-05-17T12:55:26.000Z</time>
      </trkpt>
      <trkpt lat="44.90862" lon="0.62578">
        <ele>131.4</ele>
        <time>2021-05-17T12:55:27.000Z</time>
      </trkpt>
      <trkpt lat="44.90864" lon="0.62587">
        <ele>131.5</ele>
        <time>2021-05-17T12:55:28.000Z</time>
      </trkpt>
      <trkpt lat="44.90868" lon="0.62593">
        <ele>131.7</ele>
        <time>2021-05-17T12:55:29.000Z</time>
      </trkpt>
      <trkpt lat="44.90871" lon="0.626">
        <ele>131.8</ele>
        <time>2021-05-17T12:55:30.000Z</time>
      </trkpt>
      <trkpt lat="44.90875" lon="0.62608">
        <ele>132</ele>
        <time>2021-05-17T12:55:31.000Z</time>
      </trkpt>
      <trkpt lat="44.90877" lon="0.62614">
        <ele>132.2</ele>
        <time>2021-05-17T12:55:32.000Z</time>
      </trkpt>
      <trkpt lat="44.90881" lon="0.62622">
        <ele>132.4</ele>
        <time>2021-05-17T12:55:33.000Z</time>
      </trkpt>
      <trkpt lat="44.90885" lon="0.6263">
        <ele>132.7</ele>
        <time>2021-05-17T12:55:34.000Z</time>
      </trkpt>
      <trkpt lat="44.9089" lon="0.62641">
        <ele>133</ele>
        <time>2021-05-17T12:55:35.000Z</time>
      </trkpt>
      <trkpt lat="44.90895" lon="0.62652">
        <ele>133.4</ele>
        <time>2021-05-17T12:55:36.000Z</time>
      </trkpt>
      <trkpt lat="44.90899" lon="0.62658">
        <ele>133.7</ele>
        <time>2021-05-17T12:55:37.000Z</time>
      </trkpt>
      <trkpt lat="44.90903" lon="0.62664">
        <ele>134</ele>
        <time>2021-05-17T12:55:38.000Z</time>
      </trkpt>
      <trkpt lat="44.90906" lon="0.6267">
        <ele>134.3</ele>
        <time>2021-05-17T12:55:39.000Z</time>
      </trkpt>
      <trkpt lat="44.90911" lon="0.62678">
        <ele>134.8</ele>
        <time>2021-05-17T12:55:40.000Z</time>
      </trkpt>
      <trkpt lat="44.90915" lon="0.62685">
        <ele>135.1</ele>
        <time>2021-05-17T12:55:41.000Z</time>
      </trkpt>
      <trkpt lat="44.9092" lon="0.62693">
        <ele>135.5</ele>
        <time>2021-05-17T12:55:42.000Z</time>
      </trkpt>
      <trkpt lat="44.90926" lon="0.62705">
        <ele>136.1</ele>
        <time>2021-05-17T12:55:43.000Z</time>
      </trkpt>
      <trkpt lat="44.90932" lon="0.62715">
        <ele>136.6</ele>
        <time>2021-05-17T12:55:45.000Z</time>
      </trkpt>
      <trkpt lat="44.90935" lon="0.62723">
        <ele>137</ele>
        <time>2021-05-17T12:55:46.000Z</time>
      </trkpt>
      <trkpt lat="44.9094" lon="0.6273">
        <ele>137.4</ele>
        <time>2021-05-17T12:55:47.000Z</time>
      </trkpt>
      <trkpt lat="44.90943" lon="0.62739">
        <ele>137.8</ele>
        <time>2021-05-17T12:55:48.000Z</time>
      </trkpt>
      <trkpt lat="44.90947" lon="0.62745">
        <ele>138.1</ele>
        <time>2021-05-17T12:55:49.000Z</time>
      </trkpt>
      <trkpt lat="44.90952" lon="0.62754">
        <ele>138.4</ele>
        <time>2021-05-17T12:55:50.000Z</time>
      </trkpt>
      <trkpt lat="44.90956" lon="0.62763">
        <ele>138.6</ele>
        <time>2021-05-17T12:55:51.000Z</time>
      </trkpt>
      <trkpt lat="44.90961" lon="0.62773">
        <ele>138.7</ele>
        <time>2021-05-17T12:55:52.000Z</time>
      </trkpt>
      <trkpt lat="44.90967" lon="0.62783">
        <ele>138.6</ele>
        <time>2021-05-17T12:55:53.000Z</time>
      </trkpt>
      <trkpt lat="44.90972" lon="0.62793">
        <ele>138.5</ele>
        <time>2021-05-17T12:55:54.000Z</time>
      </trkpt>
      <trkpt lat="44.90976" lon="0.62801">
        <ele>138.3</ele>
        <time>2021-05-17T12:55:55.000Z</time>
      </trkpt>
      <trkpt lat="44.9098" lon="0.62807">
        <ele>138.1</ele>
        <time>2021-05-17T12:55:56.000Z</time>
      </trkpt>
      <trkpt lat="44.90984" lon="0.62814">
        <ele>137.9</ele>
        <time>2021-05-17T12:55:57.000Z</time>
      </trkpt>
      <trkpt lat="44.90988" lon="0.62821">
        <ele>137.7</ele>
        <time>2021-05-17T12:55:58.000Z</time>
      </trkpt>
      <trkpt lat="44.90991" lon="0.62829">
        <ele>137.5</ele>
        <time>2021-05-17T12:55:59.000Z</time>
      </trkpt>
      <trkpt lat="44.90995" lon="0.62836">
        <ele>137.4</ele>
        <time>2021-05-17T12:56:00.000Z</time>
      </trkpt>
      <trkpt lat="44.90999" lon="0.62843">
        <ele>137.2</ele>
        <time>2021-05-17T12:56:01.000Z</time>
      </trkpt>
      <trkpt lat="44.91003" lon="0.62851">
        <ele>137.1</ele>
        <time>2021-05-17T12:56:02.000Z</time>
      </trkpt>
      <trkpt lat="44.91006" lon="0.62857">
        <ele>137</ele>
        <time>2021-05-17T12:56:03.000Z</time>
      </trkpt>
      <trkpt lat="44.9101" lon="0.62863">
        <ele>136.9</ele>
        <time>2021-05-17T12:56:04.000Z</time>
      </trkpt>
      <trkpt lat="44.91013" lon="0.6287">
        <ele>136.8</ele>
        <time>2021-05-17T12:56:05.000Z</time>
      </trkpt>
      <trkpt lat="44.91019" lon="0.62885">
        <ele>136.6</ele>
        <time>2021-05-17T12:56:06.000Z</time>
      </trkpt>
      <trkpt lat="44.91023" lon="0.6289">
        <ele>136.6</ele>
        <time>2021-05-17T12:56:07.000Z</time>
      </trkpt>
      <trkpt lat="44.91027" lon="0.62896">
        <ele>136.5</ele>
        <time>2021-05-17T12:56:08.000Z</time>
      </trkpt>
      <trkpt lat="44.91029" lon="0.62902">
        <ele>136.4</ele>
        <time>2021-05-17T12:56:09.000Z</time>
      </trkpt>
      <trkpt lat="44.91032" lon="0.62907">
        <ele>136.2</ele>
        <time>2021-05-17T12:56:10.000Z</time>
      </trkpt>
      <trkpt lat="44.91036" lon="0.62914">
        <ele>136</ele>
        <time>2021-05-17T12:56:11.000Z</time>
      </trkpt>
      <trkpt lat="44.91039" lon="0.62922">
        <ele>135.8</ele>
        <time>2021-05-17T12:56:12.000Z</time>
      </trkpt>
      <trkpt lat="44.91042" lon="0.6293">
        <ele>135.6</ele>
        <time>2021-05-17T12:56:13.000Z</time>
      </trkpt>
      <trkpt lat="44.91046" lon="0.62937">
        <ele>135.4</ele>
        <time>2021-05-17T12:56:14.000Z</time>
      </trkpt>
      <trkpt lat="44.9105" lon="0.62944">
        <ele>135.1</ele>
        <time>2021-05-17T12:56:15.000Z</time>
      </trkpt>
      <trkpt lat="44.91053" lon="0.62952">
        <ele>134.9</ele>
        <time>2021-05-17T12:56:16.000Z</time>
      </trkpt>
      <trkpt lat="44.91057" lon="0.62959">
        <ele>134.6</ele>
        <time>2021-05-17T12:56:17.000Z</time>
      </trkpt>
      <trkpt lat="44.9106" lon="0.62966">
        <ele>134.2</ele>
        <time>2021-05-17T12:56:18.000Z</time>
      </trkpt>
      <trkpt lat="44.91064" lon="0.62973">
        <ele>133.9</ele>
        <time>2021-05-17T12:56:19.000Z</time>
      </trkpt>
      <trkpt lat="44.91067" lon="0.62981">
        <ele>133.5</ele>
        <time>2021-05-17T12:56:20.000Z</time>
      </trkpt>
      <trkpt lat="44.91071" lon="0.6299">
        <ele>133.1</ele>
        <time>2021-05-17T12:56:21.000Z</time>
      </trkpt>
      <trkpt lat="44.91075" lon="0.62998">
        <ele>132.7</ele>
        <time>2021-05-17T12:56:22.000Z</time>
      </trkpt>
      <trkpt lat="44.91079" lon="0.63005">
        <ele>132.3</ele>
        <time>2021-05-17T12:56:23.000Z</time>
      </trkpt>
      <trkpt lat="44.91083" lon="0.63013">
        <ele>131.9</ele>
        <time>2021-05-17T12:56:24.000Z</time>
      </trkpt>
      <trkpt lat="44.91085" lon="0.6302">
        <ele>131.5</ele>
        <time>2021-05-17T12:56:25.000Z</time>
      </trkpt>
      <trkpt lat="44.91084" lon="0.63025">
        <ele>131.2</ele>
        <time>2021-05-17T12:56:26.000Z</time>
      </trkpt>
      <trkpt lat="44.91081" lon="0.63029">
        <ele>130.5</ele>
        <time>2021-05-17T12:56:27.000Z</time>
      </trkpt>
      <trkpt lat="44.91077" lon="0.63032">
        <ele>130.2</ele>
        <time>2021-05-17T12:56:28.000Z</time>
      </trkpt>
      <trkpt lat="44.91072" lon="0.63033">
        <ele>129.7</ele>
        <time>2021-05-17T12:56:29.000Z</time>
      </trkpt>
      <trkpt lat="44.91067" lon="0.63036">
        <ele>129.2</ele>
        <time>2021-05-17T12:56:30.000Z</time>
      </trkpt>
      <trkpt lat="44.91062" lon="0.63039">
        <ele>128.7</ele>
        <time>2021-05-17T12:56:31.000Z</time>
      </trkpt>
      <trkpt lat="44.91055" lon="0.63045">
        <ele>127.9</ele>
        <time>2021-05-17T12:56:32.000Z</time>
      </trkpt>
      <trkpt lat="44.9105" lon="0.63052">
        <ele>127.3</ele>
        <time>2021-05-17T12:56:33.000Z</time>
      </trkpt>
      <trkpt lat="44.91046" lon="0.63062">
        <ele>126.7</ele>
        <time>2021-05-17T12:56:34.000Z</time>
      </trkpt>
      <trkpt lat="44.91045" lon="0.63071">
        <ele>126.2</ele>
        <time>2021-05-17T12:56:35.000Z</time>
      </trkpt>
      <trkpt lat="44.91045" lon="0.63079">
        <ele>125.7</ele>
        <time>2021-05-17T12:56:36.000Z</time>
      </trkpt>
      <trkpt lat="44.91044" lon="0.63085">
        <ele>124.6</ele>
        <time>2021-05-17T12:56:37.000Z</time>
      </trkpt>
      <trkpt lat="44.91044" lon="0.6309">
        <ele>124.3</ele>
        <time>2021-05-17T12:56:38.000Z</time>
      </trkpt>
      <trkpt lat="44.91041" lon="0.63092">
        <ele>124</ele>
        <time>2021-05-17T12:56:39.000Z</time>
      </trkpt>
      <trkpt lat="44.91037" lon="0.63092">
        <ele>123.6</ele>
        <time>2021-05-17T12:56:40.000Z</time>
      </trkpt>
      <trkpt lat="44.91032" lon="0.63092">
        <ele>123.1</ele>
        <time>2021-05-17T12:56:41.000Z</time>
      </trkpt>
      <trkpt lat="44.91023" lon="0.63088">
        <ele>122.2</ele>
        <time>2021-05-17T12:56:42.000Z</time>
      </trkpt>
      <trkpt lat="44.91017" lon="0.63085">
        <ele>121.5</ele>
        <time>2021-05-17T12:56:43.000Z</time>
      </trkpt>
      <trkpt lat="44.91009" lon="0.63079">
        <ele>120.6</ele>
        <time>2021-05-17T12:56:44.000Z</time>
      </trkpt>
      <trkpt lat="44.91002" lon="0.63073">
        <ele>119.7</ele>
        <time>2021-05-17T12:56:45.000Z</time>
      </trkpt>
      <trkpt lat="44.90994" lon="0.63068">
        <ele>118.9</ele>
        <time>2021-05-17T12:56:46.000Z</time>
      </trkpt>
      <trkpt lat="44.90986" lon="0.63063">
        <ele>118.2</ele>
        <time>2021-05-17T12:56:47.000Z</time>
      </trkpt>
      <trkpt lat="44.90978" lon="0.63059">
        <ele>117.7</ele>
        <time>2021-05-17T12:56:48.000Z</time>
      </trkpt>
      <trkpt lat="44.90969" lon="0.63055">
        <ele>117.2</ele>
        <time>2021-05-17T12:56:49.000Z</time>
      </trkpt>
      <trkpt lat="44.9096" lon="0.63052">
        <ele>116.7</ele>
        <time>2021-05-17T12:56:50.000Z</time>
      </trkpt>
      <trkpt lat="44.90954" lon="0.63048">
        <ele>116.2</ele>
        <time>2021-05-17T12:56:51.000Z</time>
      </trkpt>
      <trkpt lat="44.90947" lon="0.63045">
        <ele>115.6</ele>
        <time>2021-05-17T12:56:52.000Z</time>
      </trkpt>
      <trkpt lat="44.90942" lon="0.63046">
        <ele>115.1</ele>
        <time>2021-05-17T12:56:53.000Z</time>
      </trkpt>
      <trkpt lat="44.90937" lon="0.63052">
        <ele>114.5</ele>
        <time>2021-05-17T12:56:54.000Z</time>
      </trkpt>
      <trkpt lat="44.9093" lon="0.63058">
        <ele>113.3</ele>
        <time>2021-05-17T12:56:55.000Z</time>
      </trkpt>
      <trkpt lat="44.90921" lon="0.63065">
        <ele>111.9</ele>
        <time>2021-05-17T12:56:56.000Z</time>
      </trkpt>
      <trkpt lat="44.90912" lon="0.63069">
        <ele>110.4</ele>
        <time>2021-05-17T12:56:57.000Z</time>
      </trkpt>
      <trkpt lat="44.90903" lon="0.63072">
        <ele>108.9</ele>
        <time>2021-05-17T12:56:58.000Z</time>
      </trkpt>
      <trkpt lat="44.90893" lon="0.63077">
        <ele>107.6</ele>
        <time>2021-05-17T12:56:59.000Z</time>
      </trkpt>
      <trkpt lat="44.90886" lon="0.63083">
        <ele>106.8</ele>
        <time>2021-05-17T12:57:00.000Z</time>
      </trkpt>
      <trkpt lat="44.90877" lon="0.63089">
        <ele>106.2</ele>
        <time>2021-05-17T12:57:01.000Z</time>
      </trkpt>
      <trkpt lat="44.90868" lon="0.63094">
        <ele>105.6</ele>
        <time>2021-05-17T12:57:02.000Z</time>
      </trkpt>
      <trkpt lat="44.9086" lon="0.63094">
        <ele>105.3</ele>
        <time>2021-05-17T12:57:03.000Z</time>
      </trkpt>
      <trkpt lat="44.90854" lon="0.6309">
        <ele>104.9</ele>
        <time>2021-05-17T12:57:04.000Z</time>
      </trkpt>
      <trkpt lat="44.90847" lon="0.63087">
        <ele>104.5</ele>
        <time>2021-05-17T12:57:05.000Z</time>
      </trkpt>
      <trkpt lat="44.9084" lon="0.63084">
        <ele>104</ele>
        <time>2021-05-17T12:57:06.000Z</time>
      </trkpt>
      <trkpt lat="44.90832" lon="0.63082">
        <ele>103.5</ele>
        <time>2021-05-17T12:57:07.000Z</time>
      </trkpt>
      <trkpt lat="44.90823" lon="0.63082">
        <ele>102.9</ele>
        <time>2021-05-17T12:57:08.000Z</time>
      </trkpt>
      <trkpt lat="44.90814" lon="0.63082">
        <ele>102.5</ele>
        <time>2021-05-17T12:57:09.000Z</time>
      </trkpt>
      <trkpt lat="44.90805" lon="0.63082">
        <ele>102.1</ele>
        <time>2021-05-17T12:57:10.000Z</time>
      </trkpt>
      <trkpt lat="44.90795" lon="0.63083">
        <ele>101.8</ele>
        <time>2021-05-17T12:57:11.000Z</time>
      </trkpt>
      <trkpt lat="44.90787" lon="0.63084">
        <ele>101.5</ele>
        <time>2021-05-17T12:57:12.000Z</time>
      </trkpt>
      <trkpt lat="44.90778" lon="0.63086">
        <ele>101.1</ele>
        <time>2021-05-17T12:57:13.000Z</time>
      </trkpt>
      <trkpt lat="44.90769" lon="0.63088">
        <ele>100.7</ele>
        <time>2021-05-17T12:57:14.000Z</time>
      </trkpt>
      <trkpt lat="44.90761" lon="0.63089">
        <ele>100.3</ele>
        <time>2021-05-17T12:57:15.000Z</time>
      </trkpt>
      <trkpt lat="44.90753" lon="0.63092">
        <ele>100</ele>
        <time>2021-05-17T12:57:16.000Z</time>
      </trkpt>
      <trkpt lat="44.90744" lon="0.63094">
        <ele>99.8</ele>
        <time>2021-05-17T12:57:17.000Z</time>
      </trkpt>
      <trkpt lat="44.90736" lon="0.63099">
        <ele>99.6</ele>
        <time>2021-05-17T12:57:18.000Z</time>
      </trkpt>
      <trkpt lat="44.90728" lon="0.63107">
        <ele>99.4</ele>
        <time>2021-05-17T12:57:19.000Z</time>
      </trkpt>
      <trkpt lat="44.90722" lon="0.63114">
        <ele>99.3</ele>
        <time>2021-05-17T12:57:20.000Z</time>
      </trkpt>
      <trkpt lat="44.90717" lon="0.6312">
        <ele>99.1</ele>
        <time>2021-05-17T12:57:21.000Z</time>
      </trkpt>
      <trkpt lat="44.90712" lon="0.63127">
        <ele>99</ele>
        <time>2021-05-17T12:57:22.000Z</time>
      </trkpt>
      <trkpt lat="44.90708" lon="0.63134">
        <ele>98.8</ele>
        <time>2021-05-17T12:57:23.000Z</time>
      </trkpt>
      <trkpt lat="44.90705" lon="0.63139">
        <ele>98.7</ele>
        <time>2021-05-17T12:57:24.000Z</time>
      </trkpt>
      <trkpt lat="44.90703" lon="0.63144">
        <ele>98.6</ele>
        <time>2021-05-17T12:57:25.000Z</time>
      </trkpt>
      <trkpt lat="44.90699" lon="0.6315">
        <ele>98.4</ele>
        <time>2021-05-17T12:57:26.000Z</time>
      </trkpt>
      <trkpt lat="44.90694" lon="0.63159">
        <ele>98.1</ele>
        <time>2021-05-17T12:57:27.000Z</time>
      </trkpt>
      <trkpt lat="44.90688" lon="0.63169">
        <ele>97.8</ele>
        <time>2021-05-17T12:57:28.000Z</time>
      </trkpt>
      <trkpt lat="44.90683" lon="0.63177">
        <ele>97.5</ele>
        <time>2021-05-17T12:57:29.000Z</time>
      </trkpt>
      <trkpt lat="44.90678" lon="0.63185">
        <ele>97.2</ele>
        <time>2021-05-17T12:57:30.000Z</time>
      </trkpt>
      <trkpt lat="44.90672" lon="0.63192">
        <ele>97</ele>
        <time>2021-05-17T12:57:31.000Z</time>
      </trkpt>
      <trkpt lat="44.90666" lon="0.63197">
        <ele>96.9</ele>
        <time>2021-05-17T12:57:32.000Z</time>
      </trkpt>
      <trkpt lat="44.9066" lon="0.632">
        <ele>96.8</ele>
        <time>2021-05-17T12:57:33.000Z</time>
      </trkpt>
      <trkpt lat="44.90654" lon="0.63202">
        <ele>96.8</ele>
        <time>2021-05-17T12:57:34.000Z</time>
      </trkpt>
      <trkpt lat="44.90649" lon="0.63203">
        <ele>96.8</ele>
        <time>2021-05-17T12:57:35.000Z</time>
      </trkpt>
      <trkpt lat="44.90645" lon="0.63203">
        <ele>96.8</ele>
        <time>2021-05-17T12:57:36.000Z</time>
      </trkpt>
      <trkpt lat="44.90642" lon="0.63202">
        <ele>96.8</ele>
        <time>2021-05-17T12:57:37.000Z</time>
      </trkpt>
      <trkpt lat="44.90639" lon="0.63201">
        <ele>96.8</ele>
        <time>2021-05-17T12:57:38.000Z</time>
      </trkpt>
      <trkpt lat="44.90638" lon="0.63201">
        <ele>96.8</ele>
        <time>2021-05-17T12:57:39.000Z</time>
      </trkpt>
      <trkpt lat="44.90634" lon="0.63202">
        <ele>96.8</ele>
        <time>2021-05-17T12:57:40.000Z</time>
      </trkpt>
      <trkpt lat="44.90632" lon="0.63202">
        <ele>96.8</ele>
        <time>2021-05-17T12:57:41.000Z</time>
      </trkpt>
      <trkpt lat="44.90627" lon="0.63202">
        <ele>96.9</ele>
        <time>2021-05-17T12:57:42.000Z</time>
      </trkpt>
      <trkpt lat="44.90621" lon="0.63201">
        <ele>96.9</ele>
        <time>2021-05-17T12:57:43.000Z</time>
      </trkpt>
      <trkpt lat="44.90615" lon="0.63201">
        <ele>96.9</ele>
        <time>2021-05-17T12:57:44.000Z</time>
      </trkpt>
      <trkpt lat="44.90607" lon="0.63201">
        <ele>96.7</ele>
        <time>2021-05-17T12:57:45.000Z</time>
      </trkpt>
      <trkpt lat="44.906" lon="0.63201">
        <ele>96.3</ele>
        <time>2021-05-17T12:57:46.000Z</time>
      </trkpt>
      <trkpt lat="44.90592" lon="0.63203">
        <ele>95.7</ele>
        <time>2021-05-17T12:57:47.000Z</time>
      </trkpt>
      <trkpt lat="44.90583" lon="0.63202">
        <ele>94.9</ele>
        <time>2021-05-17T12:57:48.000Z</time>
      </trkpt>
      <trkpt lat="44.90574" lon="0.63202">
        <ele>93.9</ele>
        <time>2021-05-17T12:57:49.000Z</time>
      </trkpt>
      <trkpt lat="44.90565" lon="0.63202">
        <ele>92.8</ele>
        <time>2021-05-17T12:57:51.000Z</time>
      </trkpt>
      <trkpt lat="44.90555" lon="0.63201">
        <ele>91.6</ele>
        <time>2021-05-17T12:57:52.000Z</time>
      </trkpt>
      <trkpt lat="44.90549" lon="0.632">
        <ele>90.8</ele>
        <time>2021-05-17T12:57:53.000Z</time>
      </trkpt>
      <trkpt lat="44.90541" lon="0.63202">
        <ele>89.7</ele>
        <time>2021-05-17T12:57:54.000Z</time>
      </trkpt>
      <trkpt lat="44.90529" lon="0.63208">
        <ele>87.9</ele>
        <time>2021-05-17T12:57:55.000Z</time>
      </trkpt>
      <trkpt lat="44.9052" lon="0.6321">
        <ele>86.5</ele>
        <time>2021-05-17T12:57:56.000Z</time>
      </trkpt>
      <trkpt lat="44.90513" lon="0.63213">
        <ele>85.1</ele>
        <time>2021-05-17T12:57:57.000Z</time>
      </trkpt>
      <trkpt lat="44.90505" lon="0.63217">
        <ele>83.3</ele>
        <time>2021-05-17T12:57:58.000Z</time>
      </trkpt>
      <trkpt lat="44.90499" lon="0.63222">
        <ele>81.6</ele>
        <time>2021-05-17T12:57:59.000Z</time>
      </trkpt>
      <trkpt lat="44.90491" lon="0.63229">
        <ele>79.5</ele>
        <time>2021-05-17T12:58:00.000Z</time>
      </trkpt>
      <trkpt lat="44.90482" lon="0.63235">
        <ele>77.9</ele>
        <time>2021-05-17T12:58:01.000Z</time>
      </trkpt>
      <trkpt lat="44.9047" lon="0.63241">
        <ele>76.8</ele>
        <time>2021-05-17T12:58:02.000Z</time>
      </trkpt>
      <trkpt lat="44.9046" lon="0.63246">
        <ele>76.5</ele>
        <time>2021-05-17T12:58:03.000Z</time>
      </trkpt>
      <trkpt lat="44.90452" lon="0.6325">
        <ele>76.3</ele>
        <time>2021-05-17T12:58:04.000Z</time>
      </trkpt>
      <trkpt lat="44.90443" lon="0.63252">
        <ele>76</ele>
        <time>2021-05-17T12:58:05.000Z</time>
      </trkpt>
      <trkpt lat="44.90434" lon="0.63255">
        <ele>75.8</ele>
        <time>2021-05-17T12:58:06.000Z</time>
      </trkpt>
      <trkpt lat="44.90425" lon="0.63257">
        <ele>75.6</ele>
        <time>2021-05-17T12:58:07.000Z</time>
      </trkpt>
      <trkpt lat="44.90415" lon="0.6326">
        <ele>75.4</ele>
        <time>2021-05-17T12:58:08.000Z</time>
      </trkpt>
      <trkpt lat="44.90407" lon="0.63262">
        <ele>75.1</ele>
        <time>2021-05-17T12:58:09.000Z</time>
      </trkpt>
      <trkpt lat="44.90399" lon="0.63265">
        <ele>74.9</ele>
        <time>2021-05-17T12:58:10.000Z</time>
      </trkpt>
      <trkpt lat="44.90392" lon="0.63267">
        <ele>74.8</ele>
        <time>2021-05-17T12:58:11.000Z</time>
      </trkpt>
      <trkpt lat="44.90386" lon="0.63268">
        <ele>74.8</ele>
        <time>2021-05-17T12:58:12.000Z</time>
      </trkpt>
      <trkpt lat="44.90379" lon="0.63269">
        <ele>74.8</ele>
        <time>2021-05-17T12:58:13.000Z</time>
      </trkpt>
      <trkpt lat="44.90372" lon="0.63271">
        <ele>74.8</ele>
        <time>2021-05-17T12:58:14.000Z</time>
      </trkpt>
      <trkpt lat="44.90362" lon="0.63273">
        <ele>74.9</ele>
        <time>2021-05-17T12:58:15.000Z</time>
      </trkpt>
      <trkpt lat="44.90357" lon="0.63274">
        <ele>75.8</ele>
        <time>2021-05-17T12:58:16.000Z</time>
      </trkpt>
      <trkpt lat="44.90352" lon="0.63275">
        <ele>75.9</ele>
        <time>2021-05-17T12:58:17.000Z</time>
      </trkpt>
      <trkpt lat="44.90349" lon="0.63275">
        <ele>75.8</ele>
        <time>2021-05-17T12:58:18.000Z</time>
      </trkpt>
      <trkpt lat="44.90343" lon="0.63273">
        <ele>75.7</ele>
        <time>2021-05-17T12:58:19.000Z</time>
      </trkpt>
      <trkpt lat="44.90337" lon="0.63269">
        <ele>75.6</ele>
        <time>2021-05-17T12:58:20.000Z</time>
      </trkpt>
      <trkpt lat="44.90332" lon="0.63264">
        <ele>75.5</ele>
        <time>2021-05-17T12:58:21.000Z</time>
      </trkpt>
      <trkpt lat="44.90328" lon="0.6326">
        <ele>75.5</ele>
        <time>2021-05-17T12:58:22.000Z</time>
      </trkpt>
      <trkpt lat="44.90324" lon="0.63256">
        <ele>75.4</ele>
        <time>2021-05-17T12:58:23.000Z</time>
      </trkpt>
      <trkpt lat="44.9032" lon="0.63252">
        <ele>75.4</ele>
        <time>2021-05-17T12:58:24.000Z</time>
      </trkpt>
      <trkpt lat="44.90316" lon="0.63249">
        <ele>75.4</ele>
        <time>2021-05-17T12:58:25.000Z</time>
      </trkpt>
      <trkpt lat="44.90313" lon="0.63247">
        <ele>75.4</ele>
        <time>2021-05-17T12:58:26.000Z</time>
      </trkpt>
      <trkpt lat="44.90309" lon="0.63245">
        <ele>75.3</ele>
        <time>2021-05-17T12:58:27.000Z</time>
      </trkpt>
      <trkpt lat="44.90305" lon="0.63242">
        <ele>75.3</ele>
        <time>2021-05-17T12:58:28.000Z</time>
      </trkpt>
      <trkpt lat="44.90302" lon="0.6324">
        <ele>75.3</ele>
        <time>2021-05-17T12:58:29.000Z</time>
      </trkpt>
      <trkpt lat="44.90298" lon="0.63237">
        <ele>75.3</ele>
        <time>2021-05-17T12:58:30.000Z</time>
      </trkpt>
      <trkpt lat="44.90295" lon="0.63236">
        <ele>75.3</ele>
        <time>2021-05-17T12:58:31.000Z</time>
      </trkpt>
      <trkpt lat="44.90291" lon="0.63233">
        <ele>75.3</ele>
        <time>2021-05-17T12:58:32.000Z</time>
      </trkpt>
      <trkpt lat="44.90287" lon="0.63232">
        <ele>75.3</ele>
        <time>2021-05-17T12:58:33.000Z</time>
      </trkpt>
      <trkpt lat="44.90283" lon="0.63229">
        <ele>75.3</ele>
        <time>2021-05-17T12:58:34.000Z</time>
      </trkpt>
      <trkpt lat="44.90279" lon="0.63227">
        <ele>75.3</ele>
        <time>2021-05-17T12:58:35.000Z</time>
      </trkpt>
      <trkpt lat="44.90276" lon="0.63226">
        <ele>75.3</ele>
        <time>2021-05-17T12:58:36.000Z</time>
      </trkpt>
      <trkpt lat="44.90273" lon="0.63225">
        <ele>75.4</ele>
        <time>2021-05-17T12:58:37.000Z</time>
      </trkpt>
      <trkpt lat="44.9027" lon="0.63224">
        <ele>75.4</ele>
        <time>2021-05-17T12:58:38.000Z</time>
      </trkpt>
      <trkpt lat="44.90266" lon="0.63224">
        <ele>75.4</ele>
        <time>2021-05-17T12:58:39.000Z</time>
      </trkpt>
      <trkpt lat="44.90263" lon="0.63224">
        <ele>75.5</ele>
        <time>2021-05-17T12:58:40.000Z</time>
      </trkpt>
      <trkpt lat="44.9026" lon="0.63225">
        <ele>75.5</ele>
        <time>2021-05-17T12:58:41.000Z</time>
      </trkpt>
      <trkpt lat="44.90259" lon="0.63226">
        <ele>75.5</ele>
        <time>2021-05-17T12:58:42.000Z</time>
      </trkpt>
      <trkpt lat="44.90257" lon="0.63226">
        <ele>75.5</ele>
        <time>2021-05-17T12:58:43.000Z</time>
      </trkpt>
      <trkpt lat="44.90254" lon="0.63229">
        <ele>75.5</ele>
        <time>2021-05-17T12:58:44.000Z</time>
      </trkpt>
      <trkpt lat="44.90253" lon="0.6323">
        <ele>75.6</ele>
        <time>2021-05-17T12:58:45.000Z</time>
      </trkpt>
      <trkpt lat="44.90249" lon="0.63233">
        <ele>75.6</ele>
        <time>2021-05-17T12:58:46.000Z</time>
      </trkpt>
      <trkpt lat="44.90246" lon="0.63235">
        <ele>75.7</ele>
        <time>2021-05-17T12:58:47.000Z</time>
      </trkpt>
      <trkpt lat="44.90242" lon="0.63238">
        <ele>75.7</ele>
        <time>2021-05-17T12:58:48.000Z</time>
      </trkpt>
      <trkpt lat="44.90239" lon="0.6324">
        <ele>75.8</ele>
        <time>2021-05-17T12:58:49.000Z</time>
      </trkpt>
      <trkpt lat="44.90235" lon="0.63243">
        <ele>75.9</ele>
        <time>2021-05-17T12:58:50.000Z</time>
      </trkpt>
      <trkpt lat="44.90231" lon="0.63246">
        <ele>76.1</ele>
        <time>2021-05-17T12:58:51.000Z</time>
      </trkpt>
      <trkpt lat="44.90228" lon="0.6325">
        <ele>76.2</ele>
        <time>2021-05-17T12:58:52.000Z</time>
      </trkpt>
      <trkpt lat="44.90226" lon="0.63253">
        <ele>76.3</ele>
        <time>2021-05-17T12:58:53.000Z</time>
      </trkpt>
      <trkpt lat="44.90224" lon="0.63258">
        <ele>76.4</ele>
        <time>2021-05-17T12:58:54.000Z</time>
      </trkpt>
      <trkpt lat="44.90222" lon="0.63263">
        <ele>76.6</ele>
        <time>2021-05-17T12:58:55.000Z</time>
      </trkpt>
      <trkpt lat="44.90222" lon="0.63269">
        <ele>76.8</ele>
        <time>2021-05-17T12:58:56.000Z</time>
      </trkpt>
      <trkpt lat="44.90222" lon="0.63275">
        <ele>76.9</ele>
        <time>2021-05-17T12:58:57.000Z</time>
      </trkpt>
      <trkpt lat="44.90221" lon="0.6328">
        <ele>77.1</ele>
        <time>2021-05-17T12:58:58.000Z</time>
      </trkpt>
      <trkpt lat="44.9022" lon="0.63285">
        <ele>77.2</ele>
        <time>2021-05-17T12:58:59.000Z</time>
      </trkpt>
      <trkpt lat="44.90219" lon="0.6329">
        <ele>77.3</ele>
        <time>2021-05-17T12:59:00.000Z</time>
      </trkpt>
      <trkpt lat="44.90217" lon="0.63295">
        <ele>77.5</ele>
        <time>2021-05-17T12:59:01.000Z</time>
      </trkpt>
      <trkpt lat="44.90214" lon="0.633">
        <ele>77.6</ele>
        <time>2021-05-17T12:59:02.000Z</time>
      </trkpt>
      <trkpt lat="44.90211" lon="0.63303">
        <ele>77.8</ele>
        <time>2021-05-17T12:59:03.000Z</time>
      </trkpt>
      <trkpt lat="44.90208" lon="0.63304">
        <ele>77.9</ele>
        <time>2021-05-17T12:59:04.000Z</time>
      </trkpt>
      <trkpt lat="44.90204" lon="0.63304">
        <ele>78.1</ele>
        <time>2021-05-17T12:59:05.000Z</time>
      </trkpt>
      <trkpt lat="44.902" lon="0.63302">
        <ele>78.3</ele>
        <time>2021-05-17T12:59:06.000Z</time>
      </trkpt>
      <trkpt lat="44.90197" lon="0.633">
        <ele>78.4</ele>
        <time>2021-05-17T12:59:07.000Z</time>
      </trkpt>
      <trkpt lat="44.90195" lon="0.63299">
        <ele>78.6</ele>
        <time>2021-05-17T12:59:08.000Z</time>
      </trkpt>
      <trkpt lat="44.90191" lon="0.63298">
        <ele>78.8</ele>
        <time>2021-05-17T12:59:09.000Z</time>
      </trkpt>
      <trkpt lat="44.90191" lon="0.63298">
        <ele>78.8</ele>
        <time>2021-05-17T12:59:10.000Z</time>
      </trkpt>
      <trkpt lat="44.90186" lon="0.63297">
        <ele>79.1</ele>
        <time>2021-05-17T12:59:11.000Z</time>
      </trkpt>
      <trkpt lat="44.90184" lon="0.63297">
        <ele>79.2</ele>
        <time>2021-05-17T12:59:12.000Z</time>
      </trkpt>
      <trkpt lat="44.90181" lon="0.63294">
        <ele>79.5</ele>
        <time>2021-05-17T12:59:13.000Z</time>
      </trkpt>
      <trkpt lat="44.9018" lon="0.63292">
        <ele>79.5</ele>
        <time>2021-05-17T12:59:14.000Z</time>
      </trkpt>
      <trkpt lat="44.90178" lon="0.63291">
        <ele>79.7</ele>
        <time>2021-05-17T12:59:15.000Z</time>
      </trkpt>
      <trkpt lat="44.90177" lon="0.63289">
        <ele>79.8</ele>
        <time>2021-05-17T12:59:16.000Z</time>
      </trkpt>
      <trkpt lat="44.90175" lon="0.63287">
        <ele>80</ele>
        <time>2021-05-17T12:59:17.000Z</time>
      </trkpt>
      <trkpt lat="44.90172" lon="0.63284">
        <ele>80.2</ele>
        <time>2021-05-17T12:59:18.000Z</time>
      </trkpt>
      <trkpt lat="44.90171" lon="0.63283">
        <ele>80.3</ele>
        <time>2021-05-17T12:59:19.000Z</time>
      </trkpt>
      <trkpt lat="44.90168" lon="0.63279">
        <ele>80.6</ele>
        <time>2021-05-17T12:59:20.000Z</time>
      </trkpt>
      <trkpt lat="44.90166" lon="0.63276">
        <ele>80.9</ele>
        <time>2021-05-17T12:59:21.000Z</time>
      </trkpt>
      <trkpt lat="44.90162" lon="0.63273">
        <ele>81.3</ele>
        <time>2021-05-17T12:59:22.000Z</time>
      </trkpt>
      <trkpt lat="44.90161" lon="0.63269">
        <ele>81.6</ele>
        <time>2021-05-17T12:59:23.000Z</time>
      </trkpt>
      <trkpt lat="44.9016" lon="0.63268">
        <ele>81.8</ele>
        <time>2021-05-17T12:59:24.000Z</time>
      </trkpt>
      <trkpt lat="44.90158" lon="0.63264">
        <ele>82.2</ele>
        <time>2021-05-17T12:59:25.000Z</time>
      </trkpt>
      <trkpt lat="44.90157" lon="0.63263">
        <ele>82.3</ele>
        <time>2021-05-17T12:59:26.000Z</time>
      </trkpt>
      <trkpt lat="44.90155" lon="0.6326">
        <ele>82.6</ele>
        <time>2021-05-17T12:59:27.000Z</time>
      </trkpt>
      <trkpt lat="44.90154" lon="0.63256">
        <ele>83</ele>
        <time>2021-05-17T12:59:28.000Z</time>
      </trkpt>
      <trkpt lat="44.90153" lon="0.63251">
        <ele>83.4</ele>
        <time>2021-05-17T12:59:29.000Z</time>
      </trkpt>
      <trkpt lat="44.9015" lon="0.63246">
        <ele>83.9</ele>
        <time>2021-05-17T12:59:30.000Z</time>
      </trkpt>
      <trkpt lat="44.90146" lon="0.63244">
        <ele>84.4</ele>
        <time>2021-05-17T12:59:31.000Z</time>
      </trkpt>
      <trkpt lat="44.90141" lon="0.63241">
        <ele>85</ele>
        <time>2021-05-17T12:59:32.000Z</time>
      </trkpt>
      <trkpt lat="44.90139" lon="0.6324">
        <ele>85.4</ele>
        <time>2021-05-17T12:59:33.000Z</time>
      </trkpt>
      <trkpt lat="44.90138" lon="0.6324">
        <ele>85.5</ele>
        <time>2021-05-17T12:59:34.000Z</time>
      </trkpt>
      <trkpt lat="44.90134" lon="0.63241">
        <ele>86.1</ele>
        <time>2021-05-17T12:59:35.000Z</time>
      </trkpt>
      <trkpt lat="44.90132" lon="0.63242">
        <ele>86.3</ele>
        <time>2021-05-17T12:59:36.000Z</time>
      </trkpt>
      <trkpt lat="44.9013" lon="0.63245">
        <ele>86.7</ele>
        <time>2021-05-17T12:59:37.000Z</time>
      </trkpt>
      <trkpt lat="44.90127" lon="0.63248">
        <ele>87.2</ele>
        <time>2021-05-17T12:59:38.000Z</time>
      </trkpt>
      <trkpt lat="44.90127" lon="0.63249">
        <ele>87.4</ele>
        <time>2021-05-17T12:59:39.000Z</time>
      </trkpt>
      <trkpt lat="44.90126" lon="0.63251">
        <ele>87.6</ele>
        <time>2021-05-17T12:59:40.000Z</time>
      </trkpt>
      <trkpt lat="44.90125" lon="0.63253">
        <ele>87.8</ele>
        <time>2021-05-17T12:59:41.000Z</time>
      </trkpt>
      <trkpt lat="44.90122" lon="0.63256">
        <ele>88.3</ele>
        <time>2021-05-17T12:59:42.000Z</time>
      </trkpt>
      <trkpt lat="44.90121" lon="0.63257">
        <ele>88.5</ele>
        <time>2021-05-17T12:59:43.000Z</time>
      </trkpt>
      <trkpt lat="44.90118" lon="0.63259">
        <ele>89</ele>
        <time>2021-05-17T12:59:44.000Z</time>
      </trkpt>
      <trkpt lat="44.90117" lon="0.63259">
        <ele>89.2</ele>
        <time>2021-05-17T12:59:45.000Z</time>
      </trkpt>
      <trkpt lat="44.90117" lon="0.63258">
        <ele>89.3</ele>
        <time>2021-05-17T12:59:46.000Z</time>
      </trkpt>
      <trkpt lat="44.90115" lon="0.63257">
        <ele>89.5</ele>
        <time>2021-05-17T12:59:47.000Z</time>
      </trkpt>
      <trkpt lat="44.90115" lon="0.63256">
        <ele>89.6</ele>
        <time>2021-05-17T12:59:48.000Z</time>
      </trkpt>
      <trkpt lat="44.90111" lon="0.63256">
        <ele>90.2</ele>
        <time>2021-05-17T12:59:49.000Z</time>
      </trkpt>
      <trkpt lat="44.90109" lon="0.63256">
        <ele>90.3</ele>
        <time>2021-05-17T12:59:50.000Z</time>
      </trkpt>
      <trkpt lat="44.90108" lon="0.63257">
        <ele>90.6</ele>
        <time>2021-05-17T12:59:51.000Z</time>
      </trkpt>
      <trkpt lat="44.90107" lon="0.63258">
        <ele>90.8</ele>
        <time>2021-05-17T12:59:52.000Z</time>
      </trkpt>
      <trkpt lat="44.90103" lon="0.63259">
        <ele>91.2</ele>
        <time>2021-05-17T12:59:53.000Z</time>
      </trkpt>
      <trkpt lat="44.90103" lon="0.63259">
        <ele>91.3</ele>
        <time>2021-05-17T12:59:54.000Z</time>
      </trkpt>
      <trkpt lat="44.90101" lon="0.6326">
        <ele>91.5</ele>
        <time>2021-05-17T12:59:55.000Z</time>
      </trkpt>
      <trkpt lat="44.901" lon="0.6326">
        <ele>91.7</ele>
        <time>2021-05-17T12:59:57.000Z</time>
      </trkpt>
      <trkpt lat="44.90098" lon="0.6326">
        <ele>91.9</ele>
        <time>2021-05-17T12:59:58.000Z</time>
      </trkpt>
      <trkpt lat="44.90097" lon="0.6326">
        <ele>92.2</ele>
        <time>2021-05-17T12:59:59.000Z</time>
      </trkpt>
      <trkpt lat="44.90093" lon="0.63264">
        <ele>92.8</ele>
        <time>2021-05-17T13:00:00.000Z</time>
      </trkpt>
      <trkpt lat="44.9009" lon="0.63265">
        <ele>93.2</ele>
        <time>2021-05-17T13:00:01.000Z</time>
      </trkpt>
      <trkpt lat="44.90088" lon="0.63267">
        <ele>93.5</ele>
        <time>2021-05-17T13:00:02.000Z</time>
      </trkpt>
      <trkpt lat="44.90087" lon="0.63268">
        <ele>93.7</ele>
        <time>2021-05-17T13:00:03.000Z</time>
      </trkpt>
      <trkpt lat="44.90083" lon="0.63271">
        <ele>94.2</ele>
        <time>2021-05-17T13:00:04.000Z</time>
      </trkpt>
      <trkpt lat="44.90082" lon="0.63272">
        <ele>94.4</ele>
        <time>2021-05-17T13:00:05.000Z</time>
      </trkpt>
      <trkpt lat="44.9008" lon="0.63274">
        <ele>94.8</ele>
        <time>2021-05-17T13:00:06.000Z</time>
      </trkpt>
      <trkpt lat="44.90078" lon="0.63275">
        <ele>95.1</ele>
        <time>2021-05-17T13:00:07.000Z</time>
      </trkpt>
      <trkpt lat="44.90077" lon="0.63274">
        <ele>95.3</ele>
        <time>2021-05-17T13:00:08.000Z</time>
      </trkpt>
      <trkpt lat="44.90075" lon="0.63274">
        <ele>95.5</ele>
        <time>2021-05-17T13:00:09.000Z</time>
      </trkpt>
      <trkpt lat="44.90073" lon="0.63274">
        <ele>95.9</ele>
        <time>2021-05-17T13:00:10.000Z</time>
      </trkpt>
      <trkpt lat="44.90069" lon="0.63274">
        <ele>96.4</ele>
        <time>2021-05-17T13:00:11.000Z</time>
      </trkpt>
      <trkpt lat="44.90068" lon="0.63274">
        <ele>96.6</ele>
        <time>2021-05-17T13:00:12.000Z</time>
      </trkpt>
      <trkpt lat="44.90065" lon="0.63274">
        <ele>97.1</ele>
        <time>2021-05-17T13:00:13.000Z</time>
      </trkpt>
      <trkpt lat="44.90064" lon="0.63274">
        <ele>97.3</ele>
        <time>2021-05-17T13:00:14.000Z</time>
      </trkpt>
      <trkpt lat="44.90061" lon="0.63275">
        <ele>97.7</ele>
        <time>2021-05-17T13:00:15.000Z</time>
      </trkpt>
      <trkpt lat="44.90057" lon="0.63276">
        <ele>98.3</ele>
        <time>2021-05-17T13:00:16.000Z</time>
      </trkpt>
      <trkpt lat="44.90054" lon="0.63277">
        <ele>98.8</ele>
        <time>2021-05-17T13:00:17.000Z</time>
      </trkpt>
      <trkpt lat="44.90047" lon="0.63278">
        <ele>99.7</ele>
        <time>2021-05-17T13:00:18.000Z</time>
      </trkpt>
      <trkpt lat="44.90043" lon="0.6328">
        <ele>100.2</ele>
        <time>2021-05-17T13:00:19.000Z</time>
      </trkpt>
      <trkpt lat="44.90039" lon="0.63279">
        <ele>100.6</ele>
        <time>2021-05-17T13:00:20.000Z</time>
      </trkpt>
      <trkpt lat="44.90035" lon="0.6328">
        <ele>101.1</ele>
        <time>2021-05-17T13:00:21.000Z</time>
      </trkpt>
      <trkpt lat="44.90033" lon="0.63281">
        <ele>101.4</ele>
        <time>2021-05-17T13:00:22.000Z</time>
      </trkpt>
      <trkpt lat="44.90029" lon="0.63282">
        <ele>101.8</ele>
        <time>2021-05-17T13:00:23.000Z</time>
      </trkpt>
      <trkpt lat="44.90026" lon="0.63284">
        <ele>102.2</ele>
        <time>2021-05-17T13:00:24.000Z</time>
      </trkpt>
      <trkpt lat="44.90025" lon="0.63284">
        <ele>102.4</ele>
        <time>2021-05-17T13:00:25.000Z</time>
      </trkpt>
      <trkpt lat="44.90021" lon="0.63286">
        <ele>102.9</ele>
        <time>2021-05-17T13:00:26.000Z</time>
      </trkpt>
      <trkpt lat="44.90018" lon="0.63288">
        <ele>103.3</ele>
        <time>2021-05-17T13:00:27.000Z</time>
      </trkpt>
      <trkpt lat="44.90014" lon="0.63291">
        <ele>103.8</ele>
        <time>2021-05-17T13:00:28.000Z</time>
      </trkpt>
      <trkpt lat="44.90013" lon="0.63292">
        <ele>104</ele>
        <time>2021-05-17T13:00:29.000Z</time>
      </trkpt>
      <trkpt lat="44.90009" lon="0.63294">
        <ele>104.5</ele>
        <time>2021-05-17T13:00:30.000Z</time>
      </trkpt>
      <trkpt lat="44.90007" lon="0.63295">
        <ele>104.6</ele>
        <time>2021-05-17T13:00:31.000Z</time>
      </trkpt>
      <trkpt lat="44.90005" lon="0.63296">
        <ele>104.9</ele>
        <time>2021-05-17T13:00:32.000Z</time>
      </trkpt>
      <trkpt lat="44.90001" lon="0.63298">
        <ele>105.3</ele>
        <time>2021-05-17T13:00:33.000Z</time>
      </trkpt>
      <trkpt lat="44.89998" lon="0.63301">
        <ele>105.7</ele>
        <time>2021-05-17T13:00:34.000Z</time>
      </trkpt>
      <trkpt lat="44.89996" lon="0.63302">
        <ele>105.9</ele>
        <time>2021-05-17T13:00:35.000Z</time>
      </trkpt>
      <trkpt lat="44.89992" lon="0.63304">
        <ele>106.3</ele>
        <time>2021-05-17T13:00:36.000Z</time>
      </trkpt>
      <trkpt lat="44.8999" lon="0.63305">
        <ele>106.5</ele>
        <time>2021-05-17T13:00:37.000Z</time>
      </trkpt>
      <trkpt lat="44.89986" lon="0.63307">
        <ele>106.9</ele>
        <time>2021-05-17T13:00:38.000Z</time>
      </trkpt>
      <trkpt lat="44.89984" lon="0.63308">
        <ele>107.1</ele>
        <time>2021-05-17T13:00:39.000Z</time>
      </trkpt>
      <trkpt lat="44.89981" lon="0.6331">
        <ele>107.4</ele>
        <time>2021-05-17T13:00:40.000Z</time>
      </trkpt>
      <trkpt lat="44.8998" lon="0.63311">
        <ele>107.5</ele>
        <time>2021-05-17T13:00:41.000Z</time>
      </trkpt>
      <trkpt lat="44.89977" lon="0.63312">
        <ele>107.8</ele>
        <time>2021-05-17T13:00:42.000Z</time>
      </trkpt>
      <trkpt lat="44.89976" lon="0.63313">
        <ele>107.9</ele>
        <time>2021-05-17T13:00:43.000Z</time>
      </trkpt>
      <trkpt lat="44.89973" lon="0.63315">
        <ele>108.2</ele>
        <time>2021-05-17T13:00:44.000Z</time>
      </trkpt>
      <trkpt lat="44.89971" lon="0.63316">
        <ele>108.3</ele>
        <time>2021-05-17T13:00:45.000Z</time>
      </trkpt>
      <trkpt lat="44.89968" lon="0.63317">
        <ele>108.5</ele>
        <time>2021-05-17T13:00:46.000Z</time>
      </trkpt>
      <trkpt lat="44.89967" lon="0.63318">
        <ele>108.7</ele>
        <time>2021-05-17T13:00:47.000Z</time>
      </trkpt>
      <trkpt lat="44.89962" lon="0.63319">
        <ele>109.1</ele>
        <time>2021-05-17T13:00:48.000Z</time>
      </trkpt>
      <trkpt lat="44.89959" lon="0.6332">
        <ele>109.3</ele>
        <time>2021-05-17T13:00:49.000Z</time>
      </trkpt>
      <trkpt lat="44.89955" lon="0.63321">
        <ele>109.7</ele>
        <time>2021-05-17T13:00:50.000Z</time>
      </trkpt>
      <trkpt lat="44.89951" lon="0.63321">
        <ele>110</ele>
        <time>2021-05-17T13:00:51.000Z</time>
      </trkpt>
      <trkpt lat="44.89947" lon="0.63323">
        <ele>110.3</ele>
        <time>2021-05-17T13:00:52.000Z</time>
      </trkpt>
      <trkpt lat="44.89944" lon="0.63323">
        <ele>110.5</ele>
        <time>2021-05-17T13:00:53.000Z</time>
      </trkpt>
      <trkpt lat="44.89939" lon="0.63325">
        <ele>110.9</ele>
        <time>2021-05-17T13:00:54.000Z</time>
      </trkpt>
      <trkpt lat="44.89935" lon="0.63326">
        <ele>111.2</ele>
        <time>2021-05-17T13:00:55.000Z</time>
      </trkpt>
      <trkpt lat="44.89931" lon="0.63327">
        <ele>111.5</ele>
        <time>2021-05-17T13:00:56.000Z</time>
      </trkpt>
      <trkpt lat="44.89928" lon="0.63328">
        <ele>111.8</ele>
        <time>2021-05-17T13:00:57.000Z</time>
      </trkpt>
      <trkpt lat="44.89926" lon="0.63329">
        <ele>111.9</ele>
        <time>2021-05-17T13:00:58.000Z</time>
      </trkpt>
      <trkpt lat="44.89923" lon="0.63329">
        <ele>112.1</ele>
        <time>2021-05-17T13:00:59.000Z</time>
      </trkpt>
      <trkpt lat="44.8992" lon="0.6333">
        <ele>112.4</ele>
        <time>2021-05-17T13:01:00.000Z</time>
      </trkpt>
      <trkpt lat="44.89917" lon="0.63331">
        <ele>112.7</ele>
        <time>2021-05-17T13:01:01.000Z</time>
      </trkpt>
      <trkpt lat="44.89913" lon="0.63332">
        <ele>113</ele>
        <time>2021-05-17T13:01:02.000Z</time>
      </trkpt>
      <trkpt lat="44.89908" lon="0.63333">
        <ele>113.4</ele>
        <time>2021-05-17T13:01:03.000Z</time>
      </trkpt>
      <trkpt lat="44.89907" lon="0.63334">
        <ele>113.6</ele>
        <time>2021-05-17T13:01:04.000Z</time>
      </trkpt>
      <trkpt lat="44.89903" lon="0.63335">
        <ele>113.9</ele>
        <time>2021-05-17T13:01:05.000Z</time>
      </trkpt>
      <trkpt lat="44.899" lon="0.63336">
        <ele>114.2</ele>
        <time>2021-05-17T13:01:06.000Z</time>
      </trkpt>
      <trkpt lat="44.89897" lon="0.63337">
        <ele>114.5</ele>
        <time>2021-05-17T13:01:07.000Z</time>
      </trkpt>
      <trkpt lat="44.89892" lon="0.63339">
        <ele>115</ele>
        <time>2021-05-17T13:01:08.000Z</time>
      </trkpt>
      <trkpt lat="44.89889" lon="0.63339">
        <ele>115.2</ele>
        <time>2021-05-17T13:01:09.000Z</time>
      </trkpt>
      <trkpt lat="44.89886" lon="0.6334">
        <ele>115.5</ele>
        <time>2021-05-17T13:01:10.000Z</time>
      </trkpt>
      <trkpt lat="44.89884" lon="0.63341">
        <ele>115.7</ele>
        <time>2021-05-17T13:01:11.000Z</time>
      </trkpt>
      <trkpt lat="44.8988" lon="0.63342">
        <ele>116.1</ele>
        <time>2021-05-17T13:01:12.000Z</time>
      </trkpt>
      <trkpt lat="44.89875" lon="0.63343">
        <ele>116.6</ele>
        <time>2021-05-17T13:01:13.000Z</time>
      </trkpt>
      <trkpt lat="44.89872" lon="0.63344">
        <ele>116.8</ele>
        <time>2021-05-17T13:01:14.000Z</time>
      </trkpt>
      <trkpt lat="44.89869" lon="0.63344">
        <ele>117.1</ele>
        <time>2021-05-17T13:01:15.000Z</time>
      </trkpt>
      <trkpt lat="44.89867" lon="0.63345">
        <ele>117.3</ele>
        <time>2021-05-17T13:01:16.000Z</time>
      </trkpt>
      <trkpt lat="44.89864" lon="0.63345">
        <ele>117.7</ele>
        <time>2021-05-17T13:01:17.000Z</time>
      </trkpt>
      <trkpt lat="44.89861" lon="0.63346">
        <ele>118</ele>
        <time>2021-05-17T13:01:18.000Z</time>
      </trkpt>
      <trkpt lat="44.89857" lon="0.63347">
        <ele>118.5</ele>
        <time>2021-05-17T13:01:19.000Z</time>
      </trkpt>
      <trkpt lat="44.89853" lon="0.63348">
        <ele>119</ele>
        <time>2021-05-17T13:01:20.000Z</time>
      </trkpt>
      <trkpt lat="44.8985" lon="0.63349">
        <ele>119.2</ele>
        <time>2021-05-17T13:01:21.000Z</time>
      </trkpt>
      <trkpt lat="44.89844" lon="0.6335">
        <ele>119.9</ele>
        <time>2021-05-17T13:01:22.000Z</time>
      </trkpt>
      <trkpt lat="44.8984" lon="0.63351">
        <ele>120.4</ele>
        <time>2021-05-17T13:01:23.000Z</time>
      </trkpt>
      <trkpt lat="44.89836" lon="0.63352">
        <ele>120.8</ele>
        <time>2021-05-17T13:01:24.000Z</time>
      </trkpt>
      <trkpt lat="44.89833" lon="0.63353">
        <ele>121.2</ele>
        <time>2021-05-17T13:01:25.000Z</time>
      </trkpt>
      <trkpt lat="44.89829" lon="0.63355">
        <ele>121.6</ele>
        <time>2021-05-17T13:01:26.000Z</time>
      </trkpt>
      <trkpt lat="44.89826" lon="0.63356">
        <ele>122</ele>
        <time>2021-05-17T13:01:27.000Z</time>
      </trkpt>
      <trkpt lat="44.89822" lon="0.63358">
        <ele>122.4</ele>
        <time>2021-05-17T13:01:28.000Z</time>
      </trkpt>
      <trkpt lat="44.89819" lon="0.6336">
        <ele>122.8</ele>
        <time>2021-05-17T13:01:29.000Z</time>
      </trkpt>
      <trkpt lat="44.89815" lon="0.63363">
        <ele>123.3</ele>
        <time>2021-05-17T13:01:30.000Z</time>
      </trkpt>
      <trkpt lat="44.89813" lon="0.63367">
        <ele>123.7</ele>
        <time>2021-05-17T13:01:31.000Z</time>
      </trkpt>
      <trkpt lat="44.8981" lon="0.6337">
        <ele>124.1</ele>
        <time>2021-05-17T13:01:32.000Z</time>
      </trkpt>
      <trkpt lat="44.89808" lon="0.63374">
        <ele>124.5</ele>
        <time>2021-05-17T13:01:33.000Z</time>
      </trkpt>
      <trkpt lat="44.89805" lon="0.63377">
        <ele>124.8</ele>
        <time>2021-05-17T13:01:34.000Z</time>
      </trkpt>
      <trkpt lat="44.89803" lon="0.6338">
        <ele>125.2</ele>
        <time>2021-05-17T13:01:35.000Z</time>
      </trkpt>
      <trkpt lat="44.898" lon="0.63385">
        <ele>125.6</ele>
        <time>2021-05-17T13:01:36.000Z</time>
      </trkpt>
      <trkpt lat="44.89799" lon="0.63386">
        <ele>125.8</ele>
        <time>2021-05-17T13:01:37.000Z</time>
      </trkpt>
      <trkpt lat="44.89797" lon="0.63389">
        <ele>126.1</ele>
        <time>2021-05-17T13:01:38.000Z</time>
      </trkpt>
      <trkpt lat="44.89795" lon="0.63393">
        <ele>126.4</ele>
        <time>2021-05-17T13:01:39.000Z</time>
      </trkpt>
      <trkpt lat="44.89792" lon="0.63396">
        <ele>126.7</ele>
        <time>2021-05-17T13:01:40.000Z</time>
      </trkpt>
      <trkpt lat="44.8979" lon="0.63398">
        <ele>126.9</ele>
        <time>2021-05-17T13:01:41.000Z</time>
      </trkpt>
      <trkpt lat="44.89789" lon="0.634">
        <ele>127</ele>
        <time>2021-05-17T13:01:42.000Z</time>
      </trkpt>
      <trkpt lat="44.89787" lon="0.63402">
        <ele>127.3</ele>
        <time>2021-05-17T13:01:43.000Z</time>
      </trkpt>
      <trkpt lat="44.89783" lon="0.63406">
        <ele>127.7</ele>
        <time>2021-05-17T13:01:44.000Z</time>
      </trkpt>
      <trkpt lat="44.89781" lon="0.63408">
        <ele>127.8</ele>
        <time>2021-05-17T13:01:45.000Z</time>
      </trkpt>
      <trkpt lat="44.89777" lon="0.6341">
        <ele>128.2</ele>
        <time>2021-05-17T13:01:46.000Z</time>
      </trkpt>
      <trkpt lat="44.89775" lon="0.63412">
        <ele>128.4</ele>
        <time>2021-05-17T13:01:47.000Z</time>
      </trkpt>
      <trkpt lat="44.8977" lon="0.63414">
        <ele>128.8</ele>
        <time>2021-05-17T13:01:48.000Z</time>
      </trkpt>
      <trkpt lat="44.89766" lon="0.63415">
        <ele>129.1</ele>
        <time>2021-05-17T13:01:49.000Z</time>
      </trkpt>
      <trkpt lat="44.89763" lon="0.63415">
        <ele>129.4</ele>
        <time>2021-05-17T13:01:50.000Z</time>
      </trkpt>
      <trkpt lat="44.89759" lon="0.63416">
        <ele>129.7</ele>
        <time>2021-05-17T13:01:51.000Z</time>
      </trkpt>
      <trkpt lat="44.89756" lon="0.63417">
        <ele>129.9</ele>
        <time>2021-05-17T13:01:52.000Z</time>
      </trkpt>
      <trkpt lat="44.89752" lon="0.63417">
        <ele>130.2</ele>
        <time>2021-05-17T13:01:53.000Z</time>
      </trkpt>
      <trkpt lat="44.89749" lon="0.63417">
        <ele>130.5</ele>
        <time>2021-05-17T13:01:54.000Z</time>
      </trkpt>
      <trkpt lat="44.89745" lon="0.63418">
        <ele>130.7</ele>
        <time>2021-05-17T13:01:55.000Z</time>
      </trkpt>
      <trkpt lat="44.89742" lon="0.63418">
        <ele>130.9</ele>
        <time>2021-05-17T13:01:56.000Z</time>
      </trkpt>
      <trkpt lat="44.89739" lon="0.63418">
        <ele>131</ele>
        <time>2021-05-17T13:01:57.000Z</time>
      </trkpt>
      <trkpt lat="44.89738" lon="0.63418">
        <ele>131</ele>
        <time>2021-05-17T13:01:58.000Z</time>
      </trkpt>
      <trkpt lat="44.89737" lon="0.63419">
        <ele>131.1</ele>
        <time>2021-05-17T13:01:59.000Z</time>
      </trkpt>
      <trkpt lat="44.89735" lon="0.63419">
        <ele>131.1</ele>
        <time>2021-05-17T13:02:00.000Z</time>
      </trkpt>
      <trkpt lat="44.89733" lon="0.6342">
        <ele>131.2</ele>
        <time>2021-05-17T13:02:01.000Z</time>
      </trkpt>
      <trkpt lat="44.89731" lon="0.63421">
        <ele>131.2</ele>
        <time>2021-05-17T13:02:03.000Z</time>
      </trkpt>
      <trkpt lat="44.89728" lon="0.63423">
        <ele>131.3</ele>
        <time>2021-05-17T13:02:04.000Z</time>
      </trkpt>
      <trkpt lat="44.89727" lon="0.63423">
        <ele>131.3</ele>
        <time>2021-05-17T13:02:05.000Z</time>
      </trkpt>
      <trkpt lat="44.89724" lon="0.63423">
        <ele>131.1</ele>
        <time>2021-05-17T13:02:06.000Z</time>
      </trkpt>
      <trkpt lat="44.89722" lon="0.63423">
        <ele>131.1</ele>
        <time>2021-05-17T13:02:07.000Z</time>
      </trkpt>
      <trkpt lat="44.89718" lon="0.63422">
        <ele>131</ele>
        <time>2021-05-17T13:02:08.000Z</time>
      </trkpt>
      <trkpt lat="44.89716" lon="0.63422">
        <ele>130.9</ele>
        <time>2021-05-17T13:02:09.000Z</time>
      </trkpt>
      <trkpt lat="44.89713" lon="0.63421">
        <ele>130.8</ele>
        <time>2021-05-17T13:02:10.000Z</time>
      </trkpt>
      <trkpt lat="44.8971" lon="0.6342">
        <ele>130.7</ele>
        <time>2021-05-17T13:02:11.000Z</time>
      </trkpt>
      <trkpt lat="44.89706" lon="0.63419">
        <ele>130.6</ele>
        <time>2021-05-17T13:02:12.000Z</time>
      </trkpt>
      <trkpt lat="44.89701" lon="0.63419">
        <ele>130.5</ele>
        <time>2021-05-17T13:02:13.000Z</time>
      </trkpt>
      <trkpt lat="44.89697" lon="0.6342">
        <ele>130.3</ele>
        <time>2021-05-17T13:02:14.000Z</time>
      </trkpt>
      <trkpt lat="44.89692" lon="0.63421">
        <ele>130.1</ele>
        <time>2021-05-17T13:02:15.000Z</time>
      </trkpt>
      <trkpt lat="44.89687" lon="0.63423">
        <ele>129.9</ele>
        <time>2021-05-17T13:02:16.000Z</time>
      </trkpt>
      <trkpt lat="44.89683" lon="0.63424">
        <ele>129.7</ele>
        <time>2021-05-17T13:02:17.000Z</time>
      </trkpt>
      <trkpt lat="44.89679" lon="0.63427">
        <ele>129.6</ele>
        <time>2021-05-17T13:02:18.000Z</time>
      </trkpt>
      <trkpt lat="44.89675" lon="0.63429">
        <ele>129.4</ele>
        <time>2021-05-17T13:02:19.000Z</time>
      </trkpt>
      <trkpt lat="44.8967" lon="0.63431">
        <ele>129.1</ele>
        <time>2021-05-17T13:02:20.000Z</time>
      </trkpt>
      <trkpt lat="44.89664" lon="0.63433">
        <ele>128.8</ele>
        <time>2021-05-17T13:02:21.000Z</time>
      </trkpt>
      <trkpt lat="44.89659" lon="0.63435">
        <ele>128.5</ele>
        <time>2021-05-17T13:02:22.000Z</time>
      </trkpt>
      <trkpt lat="44.89654" lon="0.63436">
        <ele>128.1</ele>
        <time>2021-05-17T13:02:23.000Z</time>
      </trkpt>
      <trkpt lat="44.8965" lon="0.63438">
        <ele>127.8</ele>
        <time>2021-05-17T13:02:24.000Z</time>
      </trkpt>
      <trkpt lat="44.89639" lon="0.63441">
        <ele>126.8</ele>
        <time>2021-05-17T13:02:25.000Z</time>
      </trkpt>
      <trkpt lat="44.89634" lon="0.63443">
        <ele>126.4</ele>
        <time>2021-05-17T13:02:26.000Z</time>
      </trkpt>
      <trkpt lat="44.89629" lon="0.63445">
        <ele>126</ele>
        <time>2021-05-17T13:02:27.000Z</time>
      </trkpt>
      <trkpt lat="44.89625" lon="0.6345">
        <ele>125.5</ele>
        <time>2021-05-17T13:02:28.000Z</time>
      </trkpt>
      <trkpt lat="44.8962" lon="0.63457">
        <ele>125</ele>
        <time>2021-05-17T13:02:29.000Z</time>
      </trkpt>
      <trkpt lat="44.89619" lon="0.63465">
        <ele>124.6</ele>
        <time>2021-05-17T13:02:30.000Z</time>
      </trkpt>
      <trkpt lat="44.89617" lon="0.63474">
        <ele>124.1</ele>
        <time>2021-05-17T13:02:31.000Z</time>
      </trkpt>
      <trkpt lat="44.89616" lon="0.63483">
        <ele>123.5</ele>
        <time>2021-05-17T13:02:32.000Z</time>
      </trkpt>
      <trkpt lat="44.89614" lon="0.63493">
        <ele>123</ele>
        <time>2021-05-17T13:02:33.000Z</time>
      </trkpt>
      <trkpt lat="44.89613" lon="0.63504">
        <ele>122.5</ele>
        <time>2021-05-17T13:02:34.000Z</time>
      </trkpt>
      <trkpt lat="44.89613" lon="0.63516">
        <ele>122.1</ele>
        <time>2021-05-17T13:02:35.000Z</time>
      </trkpt>
      <trkpt lat="44.89612" lon="0.63526">
        <ele>121.7</ele>
        <time>2021-05-17T13:02:36.000Z</time>
      </trkpt>
      <trkpt lat="44.8961" lon="0.63537">
        <ele>121.3</ele>
        <time>2021-05-17T13:02:37.000Z</time>
      </trkpt>
      <trkpt lat="44.89609" lon="0.63546">
        <ele>121.1</ele>
        <time>2021-05-17T13:02:38.000Z</time>
      </trkpt>
      <trkpt lat="44.89607" lon="0.63555">
        <ele>120.9</ele>
        <time>2021-05-17T13:02:39.000Z</time>
      </trkpt>
      <trkpt lat="44.89607" lon="0.63563">
        <ele>120.8</ele>
        <time>2021-05-17T13:02:40.000Z</time>
      </trkpt>
      <trkpt lat="44.89607" lon="0.63568">
        <ele>120.8</ele>
        <time>2021-05-17T13:02:41.000Z</time>
      </trkpt>
      <trkpt lat="44.89605" lon="0.63571">
        <ele>120.7</ele>
        <time>2021-05-17T13:02:42.000Z</time>
      </trkpt>
      <trkpt lat="44.89603" lon="0.63571">
        <ele>120.7</ele>
        <time>2021-05-17T13:02:43.000Z</time>
      </trkpt>
      <trkpt lat="44.896" lon="0.63571">
        <ele>120.7</ele>
        <time>2021-05-17T13:02:44.000Z</time>
      </trkpt>
      <trkpt lat="44.89598" lon="0.63571">
        <ele>120.2</ele>
        <time>2021-05-17T13:02:45.000Z</time>
      </trkpt>
      <trkpt lat="44.89597" lon="0.63569">
        <ele>120.1</ele>
        <time>2021-05-17T13:02:46.000Z</time>
      </trkpt>
      <trkpt lat="44.89596" lon="0.63564">
        <ele>120.1</ele>
        <time>2021-05-17T13:02:47.000Z</time>
      </trkpt>
      <trkpt lat="44.89595" lon="0.63558">
        <ele>119.9</ele>
        <time>2021-05-17T13:02:48.000Z</time>
      </trkpt>
      <trkpt lat="44.89594" lon="0.63552">
        <ele>119.8</ele>
        <time>2021-05-17T13:02:49.000Z</time>
      </trkpt>
      <trkpt lat="44.89594" lon="0.63546">
        <ele>119.7</ele>
        <time>2021-05-17T13:02:50.000Z</time>
      </trkpt>
      <trkpt lat="44.89593" lon="0.6354">
        <ele>119.5</ele>
        <time>2021-05-17T13:02:51.000Z</time>
      </trkpt>
      <trkpt lat="44.89592" lon="0.63534">
        <ele>119.4</ele>
        <time>2021-05-17T13:02:52.000Z</time>
      </trkpt>
      <trkpt lat="44.89591" lon="0.63528">
        <ele>119.3</ele>
        <time>2021-05-17T13:02:53.000Z</time>
      </trkpt>
      <trkpt lat="44.8959" lon="0.63523">
        <ele>119.1</ele>
        <time>2021-05-17T13:02:54.000Z</time>
      </trkpt>
      <trkpt lat="44.89588" lon="0.63516">
        <ele>119</ele>
        <time>2021-05-17T13:02:55.000Z</time>
      </trkpt>
      <trkpt lat="44.89588" lon="0.63509">
        <ele>118.8</ele>
        <time>2021-05-17T13:02:56.000Z</time>
      </trkpt>
      <trkpt lat="44.89587" lon="0.63503">
        <ele>118.7</ele>
        <time>2021-05-17T13:02:57.000Z</time>
      </trkpt>
      <trkpt lat="44.89586" lon="0.63497">
        <ele>118.5</ele>
        <time>2021-05-17T13:02:58.000Z</time>
      </trkpt>
      <trkpt lat="44.89584" lon="0.6349">
        <ele>118.4</ele>
        <time>2021-05-17T13:02:59.000Z</time>
      </trkpt>
      <trkpt lat="44.89584" lon="0.63484">
        <ele>118.3</ele>
        <time>2021-05-17T13:03:00.000Z</time>
      </trkpt>
      <trkpt lat="44.89582" lon="0.63478">
        <ele>118.1</ele>
        <time>2021-05-17T13:03:01.000Z</time>
      </trkpt>
      <trkpt lat="44.89579" lon="0.63473">
        <ele>117.9</ele>
        <time>2021-05-17T13:03:02.000Z</time>
      </trkpt>
      <trkpt lat="44.89574" lon="0.63472">
        <ele>117.8</ele>
        <time>2021-05-17T13:03:03.000Z</time>
      </trkpt>
      <trkpt lat="44.89569" lon="0.63473">
        <ele>117.7</ele>
        <time>2021-05-17T13:03:04.000Z</time>
      </trkpt>
      <trkpt lat="44.89565" lon="0.63474">
        <ele>117.5</ele>
        <time>2021-05-17T13:03:05.000Z</time>
      </trkpt>
      <trkpt lat="44.89559" lon="0.63475">
        <ele>117.4</ele>
        <time>2021-05-17T13:03:06.000Z</time>
      </trkpt>
      <trkpt lat="44.89555" lon="0.63479">
        <ele>117.2</ele>
        <time>2021-05-17T13:03:07.000Z</time>
      </trkpt>
      <trkpt lat="44.89549" lon="0.63481">
        <ele>117.1</ele>
        <time>2021-05-17T13:03:08.000Z</time>
      </trkpt>
      <trkpt lat="44.89542" lon="0.63481">
        <ele>117</ele>
        <time>2021-05-17T13:03:09.000Z</time>
      </trkpt>
      <trkpt lat="44.89535" lon="0.6348">
        <ele>116.9</ele>
        <time>2021-05-17T13:03:10.000Z</time>
      </trkpt>
      <trkpt lat="44.89529" lon="0.63479">
        <ele>116.9</ele>
        <time>2021-05-17T13:03:11.000Z</time>
      </trkpt>
      <trkpt lat="44.89524" lon="0.6348">
        <ele>116.8</ele>
        <time>2021-05-17T13:03:12.000Z</time>
      </trkpt>
      <trkpt lat="44.89518" lon="0.63481">
        <ele>116.8</ele>
        <time>2021-05-17T13:03:13.000Z</time>
      </trkpt>
      <trkpt lat="44.89512" lon="0.63482">
        <ele>116.8</ele>
        <time>2021-05-17T13:03:14.000Z</time>
      </trkpt>
      <trkpt lat="44.89507" lon="0.63483">
        <ele>116.9</ele>
        <time>2021-05-17T13:03:15.000Z</time>
      </trkpt>
      <trkpt lat="44.89501" lon="0.63484">
        <ele>117</ele>
        <time>2021-05-17T13:03:16.000Z</time>
      </trkpt>
      <trkpt lat="44.89495" lon="0.63484">
        <ele>117.1</ele>
        <time>2021-05-17T13:03:17.000Z</time>
      </trkpt>
      <trkpt lat="44.8949" lon="0.63485">
        <ele>117.3</ele>
        <time>2021-05-17T13:03:18.000Z</time>
      </trkpt>
      <trkpt lat="44.89484" lon="0.63486">
        <ele>117.4</ele>
        <time>2021-05-17T13:03:19.000Z</time>
      </trkpt>
      <trkpt lat="44.89479" lon="0.63487">
        <ele>117.6</ele>
        <time>2021-05-17T13:03:20.000Z</time>
      </trkpt>
      <trkpt lat="44.89474" lon="0.63488">
        <ele>117.8</ele>
        <time>2021-05-17T13:03:21.000Z</time>
      </trkpt>
      <trkpt lat="44.8947" lon="0.6349">
        <ele>117.9</ele>
        <time>2021-05-17T13:03:22.000Z</time>
      </trkpt>
      <trkpt lat="44.89465" lon="0.63491">
        <ele>118</ele>
        <time>2021-05-17T13:03:23.000Z</time>
      </trkpt>
      <trkpt lat="44.89461" lon="0.63493">
        <ele>118.2</ele>
        <time>2021-05-17T13:03:24.000Z</time>
      </trkpt>
      <trkpt lat="44.89457" lon="0.63493">
        <ele>118.3</ele>
        <time>2021-05-17T13:03:25.000Z</time>
      </trkpt>
      <trkpt lat="44.89453" lon="0.63494">
        <ele>118.5</ele>
        <time>2021-05-17T13:03:26.000Z</time>
      </trkpt>
      <trkpt lat="44.89448" lon="0.63494">
        <ele>118.6</ele>
        <time>2021-05-17T13:03:27.000Z</time>
      </trkpt>
      <trkpt lat="44.89445" lon="0.63495">
        <ele>118.8</ele>
        <time>2021-05-17T13:03:28.000Z</time>
      </trkpt>
      <trkpt lat="44.89442" lon="0.63494">
        <ele>118.9</ele>
        <time>2021-05-17T13:03:29.000Z</time>
      </trkpt>
      <trkpt lat="44.8944" lon="0.63495">
        <ele>118.9</ele>
        <time>2021-05-17T13:03:30.000Z</time>
      </trkpt>
      <trkpt lat="44.89436" lon="0.63494">
        <ele>119.1</ele>
        <time>2021-05-17T13:03:31.000Z</time>
      </trkpt>
      <trkpt lat="44.89431" lon="0.63494">
        <ele>119.3</ele>
        <time>2021-05-17T13:03:32.000Z</time>
      </trkpt>
      <trkpt lat="44.89427" lon="0.63492">
        <ele>119.5</ele>
        <time>2021-05-17T13:03:33.000Z</time>
      </trkpt>
      <trkpt lat="44.89423" lon="0.6349">
        <ele>119.7</ele>
        <time>2021-05-17T13:03:34.000Z</time>
      </trkpt>
      <trkpt lat="44.89419" lon="0.63488">
        <ele>119.9</ele>
        <time>2021-05-17T13:03:35.000Z</time>
      </trkpt>
      <trkpt lat="44.89414" lon="0.63487">
        <ele>120.2</ele>
        <time>2021-05-17T13:03:36.000Z</time>
      </trkpt>
      <trkpt lat="44.89409" lon="0.63483">
        <ele>120.5</ele>
        <time>2021-05-17T13:03:37.000Z</time>
      </trkpt>
      <trkpt lat="44.89406" lon="0.63481">
        <ele>120.6</ele>
        <time>2021-05-17T13:03:38.000Z</time>
      </trkpt>
      <trkpt lat="44.89402" lon="0.63479">
        <ele>120.8</ele>
        <time>2021-05-17T13:03:39.000Z</time>
      </trkpt>
      <trkpt lat="44.89398" lon="0.63476">
        <ele>120.9</ele>
        <time>2021-05-17T13:03:40.000Z</time>
      </trkpt>
      <trkpt lat="44.89393" lon="0.63473">
        <ele>121</ele>
        <time>2021-05-17T13:03:41.000Z</time>
      </trkpt>
      <trkpt lat="44.89389" lon="0.63469">
        <ele>121</ele>
        <time>2021-05-17T13:03:42.000Z</time>
      </trkpt>
      <trkpt lat="44.89384" lon="0.63467">
        <ele>121</ele>
        <time>2021-05-17T13:03:43.000Z</time>
      </trkpt>
      <trkpt lat="44.89379" lon="0.63463">
        <ele>120.9</ele>
        <time>2021-05-17T13:03:44.000Z</time>
      </trkpt>
      <trkpt lat="44.89377" lon="0.6346">
        <ele>120.8</ele>
        <time>2021-05-17T13:03:45.000Z</time>
      </trkpt>
      <trkpt lat="44.89373" lon="0.63455">
        <ele>120.7</ele>
        <time>2021-05-17T13:03:46.000Z</time>
      </trkpt>
      <trkpt lat="44.89369" lon="0.63449">
        <ele>120.3</ele>
        <time>2021-05-17T13:03:47.000Z</time>
      </trkpt>
      <trkpt lat="44.89365" lon="0.63444">
        <ele>120.2</ele>
        <time>2021-05-17T13:03:48.000Z</time>
      </trkpt>
      <trkpt lat="44.89362" lon="0.63439">
        <ele>119.9</ele>
        <time>2021-05-17T13:03:49.000Z</time>
      </trkpt>
      <trkpt lat="44.89357" lon="0.63432">
        <ele>119.6</ele>
        <time>2021-05-17T13:03:50.000Z</time>
      </trkpt>
      <trkpt lat="44.89352" lon="0.63426">
        <ele>119.3</ele>
        <time>2021-05-17T13:03:51.000Z</time>
      </trkpt>
      <trkpt lat="44.89347" lon="0.63419">
        <ele>118.9</ele>
        <time>2021-05-17T13:03:52.000Z</time>
      </trkpt>
      <trkpt lat="44.89342" lon="0.63411">
        <ele>118.5</ele>
        <time>2021-05-17T13:03:53.000Z</time>
      </trkpt>
      <trkpt lat="44.89337" lon="0.63403">
        <ele>117.9</ele>
        <time>2021-05-17T13:03:54.000Z</time>
      </trkpt>
      <trkpt lat="44.89332" lon="0.63395">
        <ele>117.3</ele>
        <time>2021-05-17T13:03:55.000Z</time>
      </trkpt>
      <trkpt lat="44.89326" lon="0.63387">
        <ele>116.6</ele>
        <time>2021-05-17T13:03:56.000Z</time>
      </trkpt>
      <trkpt lat="44.89319" lon="0.63379">
        <ele>115.8</ele>
        <time>2021-05-17T13:03:57.000Z</time>
      </trkpt>
      <trkpt lat="44.89313" lon="0.63371">
        <ele>115</ele>
        <time>2021-05-17T13:03:58.000Z</time>
      </trkpt>
      <trkpt lat="44.89305" lon="0.63363">
        <ele>114</ele>
        <time>2021-05-17T13:03:59.000Z</time>
      </trkpt>
      <trkpt lat="44.89298" lon="0.63355">
        <ele>113.1</ele>
        <time>2021-05-17T13:04:00.000Z</time>
      </trkpt>
      <trkpt lat="44.89291" lon="0.63347">
        <ele>112.1</ele>
        <time>2021-05-17T13:04:01.000Z</time>
      </trkpt>
      <trkpt lat="44.89281" lon="0.63339">
        <ele>111.3</ele>
        <time>2021-05-17T13:04:02.000Z</time>
      </trkpt>
      <trkpt lat="44.89273" lon="0.63331">
        <ele>110.8</ele>
        <time>2021-05-17T13:04:03.000Z</time>
      </trkpt>
      <trkpt lat="44.89263" lon="0.63323">
        <ele>110.5</ele>
        <time>2021-05-17T13:04:04.000Z</time>
      </trkpt>
      <trkpt lat="44.89254" lon="0.63316">
        <ele>110.5</ele>
        <time>2021-05-17T13:04:05.000Z</time>
      </trkpt>
      <trkpt lat="44.89248" lon="0.63304">
        <ele>110.7</ele>
        <time>2021-05-17T13:04:06.000Z</time>
      </trkpt>
      <trkpt lat="44.89242" lon="0.63294">
        <ele>110.9</ele>
        <time>2021-05-17T13:04:07.000Z</time>
      </trkpt>
      <trkpt lat="44.89236" lon="0.63284">
        <ele>111.3</ele>
        <time>2021-05-17T13:04:09.000Z</time>
      </trkpt>
      <trkpt lat="44.89231" lon="0.63276">
        <ele>111.6</ele>
        <time>2021-05-17T13:04:10.000Z</time>
      </trkpt>
      <trkpt lat="44.89225" lon="0.63269">
        <ele>111.9</ele>
        <time>2021-05-17T13:04:11.000Z</time>
      </trkpt>
      <trkpt lat="44.8922" lon="0.63262">
        <ele>112.2</ele>
        <time>2021-05-17T13:04:12.000Z</time>
      </trkpt>
      <trkpt lat="44.89215" lon="0.63255">
        <ele>112.8</ele>
        <time>2021-05-17T13:04:13.000Z</time>
      </trkpt>
      <trkpt lat="44.89212" lon="0.63249">
        <ele>113.2</ele>
        <time>2021-05-17T13:04:14.000Z</time>
      </trkpt>
      <trkpt lat="44.89209" lon="0.63244">
        <ele>113.5</ele>
        <time>2021-05-17T13:04:15.000Z</time>
      </trkpt>
      <trkpt lat="44.89207" lon="0.63239">
        <ele>113.8</ele>
        <time>2021-05-17T13:04:16.000Z</time>
      </trkpt>
      <trkpt lat="44.89205" lon="0.63234">
        <ele>114.1</ele>
        <time>2021-05-17T13:04:17.000Z</time>
      </trkpt>
      <trkpt lat="44.89201" lon="0.6323">
        <ele>114.5</ele>
        <time>2021-05-17T13:04:18.000Z</time>
      </trkpt>
      <trkpt lat="44.89198" lon="0.63228">
        <ele>114.7</ele>
        <time>2021-05-17T13:04:19.000Z</time>
      </trkpt>
      <trkpt lat="44.89195" lon="0.63226">
        <ele>115</ele>
        <time>2021-05-17T13:04:20.000Z</time>
      </trkpt>
      <trkpt lat="44.89192" lon="0.63224">
        <ele>115.2</ele>
        <time>2021-05-17T13:04:21.000Z</time>
      </trkpt>
      <trkpt lat="44.89191" lon="0.63223">
        <ele>115.3</ele>
        <time>2021-05-17T13:04:22.000Z</time>
      </trkpt>
      <trkpt lat="44.89188" lon="0.63222">
        <ele>115.5</ele>
        <time>2021-05-17T13:04:23.000Z</time>
      </trkpt>
      <trkpt lat="44.89187" lon="0.63221">
        <ele>115.7</ele>
        <time>2021-05-17T13:04:24.000Z</time>
      </trkpt>
      <trkpt lat="44.89184" lon="0.6322">
        <ele>115.9</ele>
        <time>2021-05-17T13:04:25.000Z</time>
      </trkpt>
      <trkpt lat="44.89181" lon="0.63217">
        <ele>116.1</ele>
        <time>2021-05-17T13:04:26.000Z</time>
      </trkpt>
      <trkpt lat="44.89177" lon="0.63217">
        <ele>116.2</ele>
        <time>2021-05-17T13:04:27.000Z</time>
      </trkpt>
      <trkpt lat="44.89174" lon="0.63215">
        <ele>116.3</ele>
        <time>2021-05-17T13:04:28.000Z</time>
      </trkpt>
      <trkpt lat="44.8917" lon="0.63213">
        <ele>116.4</ele>
        <time>2021-05-17T13:04:29.000Z</time>
      </trkpt>
      <trkpt lat="44.89168" lon="0.6321">
        <ele>116.5</ele>
        <time>2021-05-17T13:04:30.000Z</time>
      </trkpt>
      <trkpt lat="44.89165" lon="0.63209">
        <ele>116.6</ele>
        <time>2021-05-17T13:04:31.000Z</time>
      </trkpt>
      <trkpt lat="44.8916" lon="0.63207">
        <ele>116.6</ele>
        <time>2021-05-17T13:04:32.000Z</time>
      </trkpt>
      <trkpt lat="44.89157" lon="0.63205">
        <ele>116.7</ele>
        <time>2021-05-17T13:04:33.000Z</time>
      </trkpt>
      <trkpt lat="44.89154" lon="0.63201">
        <ele>116.8</ele>
        <time>2021-05-17T13:04:34.000Z</time>
      </trkpt>
      <trkpt lat="44.89153" lon="0.632">
        <ele>116.8</ele>
        <time>2021-05-17T13:04:35.000Z</time>
      </trkpt>
      <trkpt lat="44.8915" lon="0.63196">
        <ele>116.9</ele>
        <time>2021-05-17T13:04:36.000Z</time>
      </trkpt>
      <trkpt lat="44.89147" lon="0.63194">
        <ele>117</ele>
        <time>2021-05-17T13:04:37.000Z</time>
      </trkpt>
      <trkpt lat="44.89143" lon="0.63192">
        <ele>117.1</ele>
        <time>2021-05-17T13:04:38.000Z</time>
      </trkpt>
      <trkpt lat="44.89139" lon="0.63192">
        <ele>117.3</ele>
        <time>2021-05-17T13:04:39.000Z</time>
      </trkpt>
      <trkpt lat="44.89135" lon="0.63191">
        <ele>117.7</ele>
        <time>2021-05-17T13:04:40.000Z</time>
      </trkpt>
      <trkpt lat="44.89131" lon="0.63191">
        <ele>117.8</ele>
        <time>2021-05-17T13:04:41.000Z</time>
      </trkpt>
      <trkpt lat="44.8913" lon="0.63192">
        <ele>117.9</ele>
        <time>2021-05-17T13:04:42.000Z</time>
      </trkpt>
      <trkpt lat="44.89126" lon="0.63192">
        <ele>118</ele>
        <time>2021-05-17T13:04:43.000Z</time>
      </trkpt>
      <trkpt lat="44.89125" lon="0.63192">
        <ele>118.1</ele>
        <time>2021-05-17T13:04:44.000Z</time>
      </trkpt>
      <trkpt lat="44.89123" lon="0.63194">
        <ele>118.1</ele>
        <time>2021-05-17T13:04:45.000Z</time>
      </trkpt>
      <trkpt lat="44.89121" lon="0.63195">
        <ele>118.1</ele>
        <time>2021-05-17T13:04:46.000Z</time>
      </trkpt>
      <trkpt lat="44.89119" lon="0.63198">
        <ele>118.1</ele>
        <time>2021-05-17T13:04:47.000Z</time>
      </trkpt>
      <trkpt lat="44.89116" lon="0.63201">
        <ele>118.2</ele>
        <time>2021-05-17T13:04:48.000Z</time>
      </trkpt>
      <trkpt lat="44.89116" lon="0.63202">
        <ele>118.1</ele>
        <time>2021-05-17T13:04:49.000Z</time>
      </trkpt>
      <trkpt lat="44.89113" lon="0.63204">
        <ele>118.1</ele>
        <time>2021-05-17T13:04:50.000Z</time>
      </trkpt>
      <trkpt lat="44.89112" lon="0.63205">
        <ele>118.2</ele>
        <time>2021-05-17T13:04:51.000Z</time>
      </trkpt>
      <trkpt lat="44.89108" lon="0.63206">
        <ele>118.1</ele>
        <time>2021-05-17T13:04:52.000Z</time>
      </trkpt>
      <trkpt lat="44.89105" lon="0.63208">
        <ele>118.2</ele>
        <time>2021-05-17T13:04:53.000Z</time>
      </trkpt>
      <trkpt lat="44.89102" lon="0.6321">
        <ele>118.1</ele>
        <time>2021-05-17T13:04:54.000Z</time>
      </trkpt>
      <trkpt lat="44.89101" lon="0.6321">
        <ele>118.2</ele>
        <time>2021-05-17T13:04:55.000Z</time>
      </trkpt>
      <trkpt lat="44.891" lon="0.6321">
        <ele>118.2</ele>
        <time>2021-05-17T13:04:56.000Z</time>
      </trkpt>
      <trkpt lat="44.89098" lon="0.63211">
        <ele>118.4</ele>
        <time>2021-05-17T13:04:57.000Z</time>
      </trkpt>
      <trkpt lat="44.89095" lon="0.63212">
        <ele>118.6</ele>
        <time>2021-05-17T13:04:58.000Z</time>
      </trkpt>
      <trkpt lat="44.89091" lon="0.63213">
        <ele>118.8</ele>
        <time>2021-05-17T13:04:59.000Z</time>
      </trkpt>
      <trkpt lat="44.8909" lon="0.63213">
        <ele>119.1</ele>
        <time>2021-05-17T13:05:00.000Z</time>
      </trkpt>
      <trkpt lat="44.89087" lon="0.63214">
        <ele>119.4</ele>
        <time>2021-05-17T13:05:01.000Z</time>
      </trkpt>
      <trkpt lat="44.89087" lon="0.63214">
        <ele>119.5</ele>
        <time>2021-05-17T13:05:02.000Z</time>
      </trkpt>
      <trkpt lat="44.89082" lon="0.63216">
        <ele>119.5</ele>
        <time>2021-05-17T13:05:03.000Z</time>
      </trkpt>
      <trkpt lat="44.8908" lon="0.63217">
        <ele>119.9</ele>
        <time>2021-05-17T13:05:04.000Z</time>
      </trkpt>
      <trkpt lat="44.89076" lon="0.63218">
        <ele>120.2</ele>
        <time>2021-05-17T13:05:05.000Z</time>
      </trkpt>
      <trkpt lat="44.89072" lon="0.6322">
        <ele>120.2</ele>
        <time>2021-05-17T13:05:06.000Z</time>
      </trkpt>
      <trkpt lat="44.89069" lon="0.63218">
        <ele>121.3</ele>
        <time>2021-05-17T13:05:07.000Z</time>
      </trkpt>
      <trkpt lat="44.89064" lon="0.63219">
        <ele>121.2</ele>
        <time>2021-05-17T13:05:08.000Z</time>
      </trkpt>
      <trkpt lat="44.8906" lon="0.63216">
        <ele>122</ele>
        <time>2021-05-17T13:05:09.000Z</time>
      </trkpt>
      <trkpt lat="44.89055" lon="0.63216">
        <ele>122.7</ele>
        <time>2021-05-17T13:05:10.000Z</time>
      </trkpt>
      <trkpt lat="44.8905" lon="0.63215">
        <ele>123.3</ele>
        <time>2021-05-17T13:05:11.000Z</time>
      </trkpt>
      <trkpt lat="44.89047" lon="0.63213">
        <ele>124.1</ele>
        <time>2021-05-17T13:05:12.000Z</time>
      </trkpt>
      <trkpt lat="44.89044" lon="0.63212">
        <ele>124.4</ele>
        <time>2021-05-17T13:05:13.000Z</time>
      </trkpt>
      <trkpt lat="44.8904" lon="0.63209">
        <ele>125.2</ele>
        <time>2021-05-17T13:05:14.000Z</time>
      </trkpt>
      <trkpt lat="44.89036" lon="0.63209">
        <ele>125.4</ele>
        <time>2021-05-17T13:05:15.000Z</time>
      </trkpt>
      <trkpt lat="44.89032" lon="0.63209">
        <ele>125.8</ele>
        <time>2021-05-17T13:05:16.000Z</time>
      </trkpt>
      <trkpt lat="44.89026" lon="0.63209">
        <ele>126.1</ele>
        <time>2021-05-17T13:05:17.000Z</time>
      </trkpt>
      <trkpt lat="44.89022" lon="0.63209">
        <ele>126.3</ele>
        <time>2021-05-17T13:05:18.000Z</time>
      </trkpt>
      <trkpt lat="44.89016" lon="0.63209">
        <ele>126.5</ele>
        <time>2021-05-17T13:05:19.000Z</time>
      </trkpt>
      <trkpt lat="44.89014" lon="0.63211">
        <ele>126</ele>
        <time>2021-05-17T13:05:20.000Z</time>
      </trkpt>
      <trkpt lat="44.89013" lon="0.63212">
        <ele>126</ele>
        <time>2021-05-17T13:05:21.000Z</time>
      </trkpt>
      <trkpt lat="44.89009" lon="0.63214">
        <ele>126.1</ele>
        <time>2021-05-17T13:05:22.000Z</time>
      </trkpt>
      <trkpt lat="44.89007" lon="0.63216">
        <ele>125.6</ele>
        <time>2021-05-17T13:05:23.000Z</time>
      </trkpt>
      <trkpt lat="44.89002" lon="0.63218">
        <ele>125.8</ele>
        <time>2021-05-17T13:05:24.000Z</time>
      </trkpt>
      <trkpt lat="44.88998" lon="0.63219">
        <ele>125.4</ele>
        <time>2021-05-17T13:05:25.000Z</time>
      </trkpt>
      <trkpt lat="44.88994" lon="0.63219">
        <ele>125.5</ele>
        <time>2021-05-17T13:05:26.000Z</time>
      </trkpt>
      <trkpt lat="44.8899" lon="0.6322">
        <ele>125.7</ele>
        <time>2021-05-17T13:05:27.000Z</time>
      </trkpt>
      <trkpt lat="44.88986" lon="0.63219">
        <ele>125.8</ele>
        <time>2021-05-17T13:05:28.000Z</time>
      </trkpt>
      <trkpt lat="44.88983" lon="0.63217">
        <ele>126.4</ele>
        <time>2021-05-17T13:05:29.000Z</time>
      </trkpt>
      <trkpt lat="44.88981" lon="0.63216">
        <ele>126.5</ele>
        <time>2021-05-17T13:05:30.000Z</time>
      </trkpt>
      <trkpt lat="44.88975" lon="0.63216">
        <ele>126.6</ele>
        <time>2021-05-17T13:05:31.000Z</time>
      </trkpt>
      <trkpt lat="44.88971" lon="0.63215">
        <ele>126.7</ele>
        <time>2021-05-17T13:05:32.000Z</time>
      </trkpt>
      <trkpt lat="44.88968" lon="0.63216">
        <ele>126.7</ele>
        <time>2021-05-17T13:05:33.000Z</time>
      </trkpt>
      <trkpt lat="44.88965" lon="0.63215">
        <ele>126.8</ele>
        <time>2021-05-17T13:05:34.000Z</time>
      </trkpt>
      <trkpt lat="44.8896" lon="0.63214">
        <ele>127.2</ele>
        <time>2021-05-17T13:05:35.000Z</time>
      </trkpt>
      <trkpt lat="44.88957" lon="0.63213">
        <ele>127.3</ele>
        <time>2021-05-17T13:05:36.000Z</time>
      </trkpt>
      <trkpt lat="44.88955" lon="0.63214">
        <ele>127.3</ele>
        <time>2021-05-17T13:05:37.000Z</time>
      </trkpt>
      <trkpt lat="44.88954" lon="0.63214">
        <ele>127.3</ele>
        <time>2021-05-17T13:05:38.000Z</time>
      </trkpt>
      <trkpt lat="44.8895" lon="0.63215">
        <ele>127</ele>
        <time>2021-05-17T13:05:39.000Z</time>
      </trkpt>
      <trkpt lat="44.88946" lon="0.63216">
        <ele>127.1</ele>
        <time>2021-05-17T13:05:40.000Z</time>
      </trkpt>
      <trkpt lat="44.88942" lon="0.63215">
        <ele>127.2</ele>
        <time>2021-05-17T13:05:41.000Z</time>
      </trkpt>
      <trkpt lat="44.88938" lon="0.63213">
        <ele>127.5</ele>
        <time>2021-05-17T13:05:42.000Z</time>
      </trkpt>
      <trkpt lat="44.88933" lon="0.63213">
        <ele>127.5</ele>
        <time>2021-05-17T13:05:43.000Z</time>
      </trkpt>
      <trkpt lat="44.88926" lon="0.63212">
        <ele>127.5</ele>
        <time>2021-05-17T13:05:44.000Z</time>
      </trkpt>
      <trkpt lat="44.8892" lon="0.63213">
        <ele>127.5</ele>
        <time>2021-05-17T13:05:45.000Z</time>
      </trkpt>
      <trkpt lat="44.88916" lon="0.63211">
        <ele>127.5</ele>
        <time>2021-05-17T13:05:46.000Z</time>
      </trkpt>
      <trkpt lat="44.88911" lon="0.63209">
        <ele>127.7</ele>
        <time>2021-05-17T13:05:47.000Z</time>
      </trkpt>
      <trkpt lat="44.88906" lon="0.63206">
        <ele>127.9</ele>
        <time>2021-05-17T13:05:48.000Z</time>
      </trkpt>
      <trkpt lat="44.88901" lon="0.63201">
        <ele>128</ele>
        <time>2021-05-17T13:05:49.000Z</time>
      </trkpt>
      <trkpt lat="44.88897" lon="0.63197">
        <ele>128.2</ele>
        <time>2021-05-17T13:05:50.000Z</time>
      </trkpt>
      <trkpt lat="44.88892" lon="0.63194">
        <ele>128.2</ele>
        <time>2021-05-17T13:05:51.000Z</time>
      </trkpt>
      <trkpt lat="44.88887" lon="0.63193">
        <ele>128.2</ele>
        <time>2021-05-17T13:05:52.000Z</time>
      </trkpt>
      <trkpt lat="44.88884" lon="0.63192">
        <ele>128.3</ele>
        <time>2021-05-17T13:05:53.000Z</time>
      </trkpt>
      <trkpt lat="44.88881" lon="0.63192">
        <ele>128.3</ele>
        <time>2021-05-17T13:05:54.000Z</time>
      </trkpt>
      <trkpt lat="44.88878" lon="0.63192">
        <ele>128.3</ele>
        <time>2021-05-17T13:05:55.000Z</time>
      </trkpt>
      <trkpt lat="44.88873" lon="0.63189">
        <ele>128.4</ele>
        <time>2021-05-17T13:05:56.000Z</time>
      </trkpt>
      <trkpt lat="44.8887" lon="0.63189">
        <ele>128.5</ele>
        <time>2021-05-17T13:05:57.000Z</time>
      </trkpt>
      <trkpt lat="44.88866" lon="0.63189">
        <ele>128.4</ele>
        <time>2021-05-17T13:05:58.000Z</time>
      </trkpt>
      <trkpt lat="44.88862" lon="0.63188">
        <ele>128.5</ele>
        <time>2021-05-17T13:05:59.000Z</time>
      </trkpt>
      <trkpt lat="44.88858" lon="0.63188">
        <ele>128.6</ele>
        <time>2021-05-17T13:06:00.000Z</time>
      </trkpt>
      <trkpt lat="44.88856" lon="0.63188">
        <ele>128.6</ele>
        <time>2021-05-17T13:06:01.000Z</time>
      </trkpt>
      <trkpt lat="44.88851" lon="0.63192">
        <ele>128.6</ele>
        <time>2021-05-17T13:06:02.000Z</time>
      </trkpt>
      <trkpt lat="44.88848" lon="0.63194">
        <ele>128.6</ele>
        <time>2021-05-17T13:06:03.000Z</time>
      </trkpt>
      <trkpt lat="44.88847" lon="0.63196">
        <ele>128.6</ele>
        <time>2021-05-17T13:06:04.000Z</time>
      </trkpt>
      <trkpt lat="44.88844" lon="0.63199">
        <ele>128.6</ele>
        <time>2021-05-17T13:06:05.000Z</time>
      </trkpt>
      <trkpt lat="44.88842" lon="0.63202">
        <ele>128.6</ele>
        <time>2021-05-17T13:06:06.000Z</time>
      </trkpt>
      <trkpt lat="44.88838" lon="0.63206">
        <ele>128.7</ele>
        <time>2021-05-17T13:06:07.000Z</time>
      </trkpt>
      <trkpt lat="44.88835" lon="0.63208">
        <ele>128.8</ele>
        <time>2021-05-17T13:06:08.000Z</time>
      </trkpt>
      <trkpt lat="44.88832" lon="0.63212">
        <ele>128.9</ele>
        <time>2021-05-17T13:06:09.000Z</time>
      </trkpt>
      <trkpt lat="44.8883" lon="0.63213">
        <ele>129</ele>
        <time>2021-05-17T13:06:10.000Z</time>
      </trkpt>
      <trkpt lat="44.88827" lon="0.63216">
        <ele>129.2</ele>
        <time>2021-05-17T13:06:11.000Z</time>
      </trkpt>
      <trkpt lat="44.88824" lon="0.63217">
        <ele>129.3</ele>
        <time>2021-05-17T13:06:12.000Z</time>
      </trkpt>
      <trkpt lat="44.88821" lon="0.63218">
        <ele>129.5</ele>
        <time>2021-05-17T13:06:13.000Z</time>
      </trkpt>
      <trkpt lat="44.88817" lon="0.63221">
        <ele>129.7</ele>
        <time>2021-05-17T13:06:15.000Z</time>
      </trkpt>
      <trkpt lat="44.88816" lon="0.63222">
        <ele>130</ele>
        <time>2021-05-17T13:06:16.000Z</time>
      </trkpt>
      <trkpt lat="44.88813" lon="0.63224">
        <ele>130.2</ele>
        <time>2021-05-17T13:06:17.000Z</time>
      </trkpt>
      <trkpt lat="44.8881" lon="0.63226">
        <ele>130.5</ele>
        <time>2021-05-17T13:06:18.000Z</time>
      </trkpt>
      <trkpt lat="44.88805" lon="0.63228">
        <ele>130.7</ele>
        <time>2021-05-17T13:06:19.000Z</time>
      </trkpt>
      <trkpt lat="44.88802" lon="0.6323">
        <ele>131</ele>
        <time>2021-05-17T13:06:20.000Z</time>
      </trkpt>
      <trkpt lat="44.88798" lon="0.63231">
        <ele>131.5</ele>
        <time>2021-05-17T13:06:21.000Z</time>
      </trkpt>
      <trkpt lat="44.88794" lon="0.63233">
        <ele>131.7</ele>
        <time>2021-05-17T13:06:22.000Z</time>
      </trkpt>
      <trkpt lat="44.8879" lon="0.63232">
        <ele>131.9</ele>
        <time>2021-05-17T13:06:23.000Z</time>
      </trkpt>
      <trkpt lat="44.88789" lon="0.63232">
        <ele>132.1</ele>
        <time>2021-05-17T13:06:24.000Z</time>
      </trkpt>
      <trkpt lat="44.88785" lon="0.6323">
        <ele>132.4</ele>
        <time>2021-05-17T13:06:25.000Z</time>
      </trkpt>
      <trkpt lat="44.88779" lon="0.63228">
        <ele>132.9</ele>
        <time>2021-05-17T13:06:26.000Z</time>
      </trkpt>
      <trkpt lat="44.88775" lon="0.63227">
        <ele>133.1</ele>
        <time>2021-05-17T13:06:27.000Z</time>
      </trkpt>
      <trkpt lat="44.88772" lon="0.63226">
        <ele>133.4</ele>
        <time>2021-05-17T13:06:28.000Z</time>
      </trkpt>
      <trkpt lat="44.88768" lon="0.63226">
        <ele>133.6</ele>
        <time>2021-05-17T13:06:29.000Z</time>
      </trkpt>
      <trkpt lat="44.88763" lon="0.63225">
        <ele>133.9</ele>
        <time>2021-05-17T13:06:30.000Z</time>
      </trkpt>
      <trkpt lat="44.8876" lon="0.63223">
        <ele>134.1</ele>
        <time>2021-05-17T13:06:31.000Z</time>
      </trkpt>
      <trkpt lat="44.88756" lon="0.6322">
        <ele>134.3</ele>
        <time>2021-05-17T13:06:32.000Z</time>
      </trkpt>
      <trkpt lat="44.88752" lon="0.63219">
        <ele>134.7</ele>
        <time>2021-05-17T13:06:33.000Z</time>
      </trkpt>
      <trkpt lat="44.88747" lon="0.63217">
        <ele>135</ele>
        <time>2021-05-17T13:06:34.000Z</time>
      </trkpt>
      <trkpt lat="44.88743" lon="0.63214">
        <ele>135.2</ele>
        <time>2021-05-17T13:06:35.000Z</time>
      </trkpt>
      <trkpt lat="44.88739" lon="0.63213">
        <ele>135.4</ele>
        <time>2021-05-17T13:06:36.000Z</time>
      </trkpt>
      <trkpt lat="44.88735" lon="0.63213">
        <ele>135.6</ele>
        <time>2021-05-17T13:06:37.000Z</time>
      </trkpt>
      <trkpt lat="44.88725" lon="0.63212">
        <ele>135.9</ele>
        <time>2021-05-17T13:06:38.000Z</time>
      </trkpt>
      <trkpt lat="44.8872" lon="0.63211">
        <ele>136.1</ele>
        <time>2021-05-17T13:06:39.000Z</time>
      </trkpt>
      <trkpt lat="44.88715" lon="0.6321">
        <ele>136.3</ele>
        <time>2021-05-17T13:06:40.000Z</time>
      </trkpt>
      <trkpt lat="44.8871" lon="0.63208">
        <ele>136.5</ele>
        <time>2021-05-17T13:06:41.000Z</time>
      </trkpt>
      <trkpt lat="44.88707" lon="0.63204">
        <ele>136.5</ele>
        <time>2021-05-17T13:06:42.000Z</time>
      </trkpt>
      <trkpt lat="44.88702" lon="0.63203">
        <ele>136.7</ele>
        <time>2021-05-17T13:06:43.000Z</time>
      </trkpt>
      <trkpt lat="44.88698" lon="0.63201">
        <ele>137</ele>
        <time>2021-05-17T13:06:44.000Z</time>
      </trkpt>
      <trkpt lat="44.88693" lon="0.63199">
        <ele>137.1</ele>
        <time>2021-05-17T13:06:45.000Z</time>
      </trkpt>
      <trkpt lat="44.88689" lon="0.63198">
        <ele>137.2</ele>
        <time>2021-05-17T13:06:46.000Z</time>
      </trkpt>
      <trkpt lat="44.88686" lon="0.63196">
        <ele>137.3</ele>
        <time>2021-05-17T13:06:47.000Z</time>
      </trkpt>
      <trkpt lat="44.88683" lon="0.63194">
        <ele>137.5</ele>
        <time>2021-05-17T13:06:48.000Z</time>
      </trkpt>
      <trkpt lat="44.88679" lon="0.63191">
        <ele>137.5</ele>
        <time>2021-05-17T13:06:49.000Z</time>
      </trkpt>
      <trkpt lat="44.88676" lon="0.63189">
        <ele>137.6</ele>
        <time>2021-05-17T13:06:50.000Z</time>
      </trkpt>
      <trkpt lat="44.88672" lon="0.63186">
        <ele>137.7</ele>
        <time>2021-05-17T13:06:51.000Z</time>
      </trkpt>
      <trkpt lat="44.88671" lon="0.63185">
        <ele>137.7</ele>
        <time>2021-05-17T13:06:52.000Z</time>
      </trkpt>
      <trkpt lat="44.88669" lon="0.63181">
        <ele>137.7</ele>
        <time>2021-05-17T13:06:53.000Z</time>
      </trkpt>
      <trkpt lat="44.88667" lon="0.63178">
        <ele>137.8</ele>
        <time>2021-05-17T13:06:54.000Z</time>
      </trkpt>
      <trkpt lat="44.88665" lon="0.63174">
        <ele>137.8</ele>
        <time>2021-05-17T13:06:55.000Z</time>
      </trkpt>
      <trkpt lat="44.88664" lon="0.6317">
        <ele>137.8</ele>
        <time>2021-05-17T13:06:56.000Z</time>
      </trkpt>
      <trkpt lat="44.88663" lon="0.63164">
        <ele>137.8</ele>
        <time>2021-05-17T13:06:57.000Z</time>
      </trkpt>
      <trkpt lat="44.88663" lon="0.63162">
        <ele>137.8</ele>
        <time>2021-05-17T13:06:58.000Z</time>
      </trkpt>
      <trkpt lat="44.88661" lon="0.63157">
        <ele>137.8</ele>
        <time>2021-05-17T13:06:59.000Z</time>
      </trkpt>
      <trkpt lat="44.8866" lon="0.63152">
        <ele>137.7</ele>
        <time>2021-05-17T13:07:00.000Z</time>
      </trkpt>
      <trkpt lat="44.8866" lon="0.63148">
        <ele>137.7</ele>
        <time>2021-05-17T13:07:01.000Z</time>
      </trkpt>
      <trkpt lat="44.88657" lon="0.63144">
        <ele>137.7</ele>
        <time>2021-05-17T13:07:02.000Z</time>
      </trkpt>
      <trkpt lat="44.88656" lon="0.6314">
        <ele>137.6</ele>
        <time>2021-05-17T13:07:03.000Z</time>
      </trkpt>
      <trkpt lat="44.88656" lon="0.63135">
        <ele>137.6</ele>
        <time>2021-05-17T13:07:04.000Z</time>
      </trkpt>
      <trkpt lat="44.88654" lon="0.6313">
        <ele>137.5</ele>
        <time>2021-05-17T13:07:05.000Z</time>
      </trkpt>
      <trkpt lat="44.88652" lon="0.63126">
        <ele>137.5</ele>
        <time>2021-05-17T13:07:06.000Z</time>
      </trkpt>
      <trkpt lat="44.8865" lon="0.63122">
        <ele>137.4</ele>
        <time>2021-05-17T13:07:07.000Z</time>
      </trkpt>
      <trkpt lat="44.8865" lon="0.6312">
        <ele>137.4</ele>
        <time>2021-05-17T13:07:08.000Z</time>
      </trkpt>
      <trkpt lat="44.88648" lon="0.63117">
        <ele>137.4</ele>
        <time>2021-05-17T13:07:09.000Z</time>
      </trkpt>
      <trkpt lat="44.88646" lon="0.63114">
        <ele>137.4</ele>
        <time>2021-05-17T13:07:10.000Z</time>
      </trkpt>
      <trkpt lat="44.88645" lon="0.63112">
        <ele>137.4</ele>
        <time>2021-05-17T13:07:11.000Z</time>
      </trkpt>
      <trkpt lat="44.88644" lon="0.63111">
        <ele>137.4</ele>
        <time>2021-05-17T13:07:12.000Z</time>
      </trkpt>
      <trkpt lat="44.88643" lon="0.6311">
        <ele>137.4</ele>
        <time>2021-05-17T13:07:13.000Z</time>
      </trkpt>
      <trkpt lat="44.88643" lon="0.6311">
        <ele>137.5</ele>
        <time>2021-05-17T13:07:14.000Z</time>
      </trkpt>
      <trkpt lat="44.88643" lon="0.63109">
        <ele>137.5</ele>
        <time>2021-05-17T13:07:15.000Z</time>
      </trkpt>
      <trkpt lat="44.88643" lon="0.63109">
        <ele>137.5</ele>
        <time>2021-05-17T13:07:16.000Z</time>
      </trkpt>
      <trkpt lat="44.88643" lon="0.63108">
        <ele>137.6</ele>
        <time>2021-05-17T13:07:17.000Z</time>
      </trkpt>
      <trkpt lat="44.88643" lon="0.63108">
        <ele>137.6</ele>
        <time>2021-05-17T13:07:18.000Z</time>
      </trkpt>
      <trkpt lat="44.88642" lon="0.63108">
        <ele>137.6</ele>
        <time>2021-05-17T13:07:19.000Z</time>
      </trkpt>
      <trkpt lat="44.88642" lon="0.63107">
        <ele>137.7</ele>
        <time>2021-05-17T13:07:20.000Z</time>
      </trkpt>
      <trkpt lat="44.88641" lon="0.63106">
        <ele>137.6</ele>
        <time>2021-05-17T13:07:21.000Z</time>
      </trkpt>
      <trkpt lat="44.88642" lon="0.63105">
        <ele>137.6</ele>
        <time>2021-05-17T13:07:22.000Z</time>
      </trkpt>
      <trkpt lat="44.88642" lon="0.63103">
        <ele>137.7</ele>
        <time>2021-05-17T13:07:23.000Z</time>
      </trkpt>
      <trkpt lat="44.88642" lon="0.63103">
        <ele>137.7</ele>
        <time>2021-05-17T13:07:24.000Z</time>
      </trkpt>
      <trkpt lat="44.88642" lon="0.63102">
        <ele>137.7</ele>
        <time>2021-05-17T13:07:25.000Z</time>
      </trkpt>
      <trkpt lat="44.88642" lon="0.63102">
        <ele>137.7</ele>
        <time>2021-05-17T13:07:26.000Z</time>
      </trkpt>
      <trkpt lat="44.88643" lon="0.63101">
        <ele>137.7</ele>
        <time>2021-05-17T13:07:27.000Z</time>
      </trkpt>
      <trkpt lat="44.88643" lon="0.63101">
        <ele>137.7</ele>
        <time>2021-05-17T13:07:28.000Z</time>
      </trkpt>
      <trkpt lat="44.88643" lon="0.631">
        <ele>137.8</ele>
        <time>2021-05-17T13:07:29.000Z</time>
      </trkpt>
      <trkpt lat="44.88643" lon="0.63099">
        <ele>137.8</ele>
        <time>2021-05-17T13:07:30.000Z</time>
      </trkpt>
      <trkpt lat="44.88643" lon="0.63099">
        <ele>137.8</ele>
        <time>2021-05-17T13:07:31.000Z</time>
      </trkpt>
      <trkpt lat="44.88644" lon="0.63101">
        <ele>137.8</ele>
        <time>2021-05-17T13:07:32.000Z</time>
      </trkpt>
      <trkpt lat="44.88643" lon="0.63099">
        <ele>137.9</ele>
        <time>2021-05-17T13:07:33.000Z</time>
      </trkpt>
      <trkpt lat="44.88642" lon="0.63101">
        <ele>137.9</ele>
        <time>2021-05-17T13:07:34.000Z</time>
      </trkpt>
      <trkpt lat="44.88642" lon="0.63099">
        <ele>138</ele>
        <time>2021-05-17T13:07:35.000Z</time>
      </trkpt>
      <trkpt lat="44.88642" lon="0.63099">
        <ele>138</ele>
        <time>2021-05-17T13:07:36.000Z</time>
      </trkpt>
      <trkpt lat="44.88641" lon="0.63098">
        <ele>137.9</ele>
        <time>2021-05-17T13:07:37.000Z</time>
      </trkpt>
      <trkpt lat="44.88641" lon="0.63098">
        <ele>138</ele>
        <time>2021-05-17T13:07:38.000Z</time>
      </trkpt>
      <trkpt lat="44.8864" lon="0.631">
        <ele>138</ele>
        <time>2021-05-17T13:07:39.000Z</time>
      </trkpt>
      <trkpt lat="44.8864" lon="0.631">
        <ele>138</ele>
        <time>2021-05-17T13:07:40.000Z</time>
      </trkpt>
      <trkpt lat="44.8864" lon="0.631">
        <ele>138.1</ele>
        <time>2021-05-17T13:07:41.000Z</time>
      </trkpt>
      <trkpt lat="44.8864" lon="0.631">
        <ele>138.1</ele>
        <time>2021-05-17T13:07:42.000Z</time>
      </trkpt>
      <trkpt lat="44.8864" lon="0.631">
        <ele>138.1</ele>
        <time>2021-05-17T13:07:43.000Z</time>
      </trkpt>
      <trkpt lat="44.8864" lon="0.631">
        <ele>138.1</ele>
        <time>2021-05-17T13:07:44.000Z</time>
      </trkpt>
      <trkpt lat="44.88639" lon="0.63099">
        <ele>138.1</ele>
        <time>2021-05-17T13:07:45.000Z</time>
      </trkpt>
      <trkpt lat="44.88638" lon="0.63098">
        <ele>138.1</ele>
        <time>2021-05-17T13:07:46.000Z</time>
      </trkpt>
      <trkpt lat="44.88637" lon="0.63098">
        <ele>138.2</ele>
        <time>2021-05-17T13:07:47.000Z</time>
      </trkpt>
      <trkpt lat="44.88638" lon="0.63098">
        <ele>138.2</ele>
        <time>2021-05-17T13:07:48.000Z</time>
      </trkpt>
      <trkpt lat="44.88637" lon="0.63099">
        <ele>138.2</ele>
        <time>2021-05-17T13:07:49.000Z</time>
      </trkpt>
      <trkpt lat="44.88638" lon="0.63098">
        <ele>138.2</ele>
        <time>2021-05-17T13:07:50.000Z</time>
      </trkpt>
      <trkpt lat="44.88637" lon="0.63098">
        <ele>138.2</ele>
        <time>2021-05-17T13:07:51.000Z</time>
      </trkpt>
      <trkpt lat="44.88637" lon="0.63098">
        <ele>138.2</ele>
        <time>2021-05-17T13:07:52.000Z</time>
      </trkpt>
      <trkpt lat="44.88637" lon="0.63098">
        <ele>138.3</ele>
        <time>2021-05-17T13:07:53.000Z</time>
      </trkpt>
      <trkpt lat="44.88637" lon="0.63098">
        <ele>138.3</ele>
        <time>2021-05-17T13:07:54.000Z</time>
      </trkpt>
      <trkpt lat="44.88636" lon="0.63098">
        <ele>138.3</ele>
        <time>2021-05-17T13:07:55.000Z</time>
      </trkpt>
      <trkpt lat="44.88636" lon="0.63098">
        <ele>138.3</ele>
        <time>2021-05-17T13:07:56.000Z</time>
      </trkpt>
      <trkpt lat="44.88636" lon="0.63097">
        <ele>138.3</ele>
        <time>2021-05-17T13:07:57.000Z</time>
      </trkpt>
      <trkpt lat="44.88635" lon="0.63096">
        <ele>138.3</ele>
        <time>2021-05-17T13:07:58.000Z</time>
      </trkpt>
      <trkpt lat="44.88635" lon="0.63096">
        <ele>138.3</ele>
        <time>2021-05-17T13:07:59.000Z</time>
      </trkpt>
      <trkpt lat="44.88635" lon="0.63096">
        <ele>138.3</ele>
        <time>2021-05-17T13:08:00.000Z</time>
      </trkpt>
      <trkpt lat="44.88635" lon="0.63095">
        <ele>138.3</ele>
        <time>2021-05-17T13:08:01.000Z</time>
      </trkpt>
      <trkpt lat="44.88635" lon="0.63095">
        <ele>138.3</ele>
        <time>2021-05-17T13:08:02.000Z</time>
      </trkpt>
      <trkpt lat="44.88635" lon="0.63095">
        <ele>138.3</ele>
        <time>2021-05-17T13:08:03.000Z</time>
      </trkpt>
      <trkpt lat="44.88635" lon="0.63094">
        <ele>138.3</ele>
        <time>2021-05-17T13:08:04.000Z</time>
      </trkpt>
      <trkpt lat="44.88635" lon="0.63094">
        <ele>138.3</ele>
        <time>2021-05-17T13:08:05.000Z</time>
      </trkpt>
      <trkpt lat="44.88635" lon="0.63094">
        <ele>138.4</ele>
        <time>2021-05-17T13:08:06.000Z</time>
      </trkpt>
      <trkpt lat="44.88635" lon="0.63094">
        <ele>138.4</ele>
        <time>2021-05-17T13:08:07.000Z</time>
      </trkpt>
      <trkpt lat="44.88635" lon="0.63093">
        <ele>138.4</ele>
        <time>2021-05-17T13:08:08.000Z</time>
      </trkpt>
      <trkpt lat="44.88635" lon="0.63093">
        <ele>138.4</ele>
        <time>2021-05-17T13:08:09.000Z</time>
      </trkpt>
      <trkpt lat="44.88636" lon="0.63093">
        <ele>138.4</ele>
        <time>2021-05-17T13:08:10.000Z</time>
      </trkpt>
      <trkpt lat="44.88636" lon="0.63092">
        <ele>138.4</ele>
        <time>2021-05-17T13:08:11.000Z</time>
      </trkpt>
      <trkpt lat="44.88636" lon="0.63092">
        <ele>138.4</ele>
        <time>2021-05-17T13:08:12.000Z</time>
      </trkpt>
      <trkpt lat="44.88636" lon="0.63092">
        <ele>138.4</ele>
        <time>2021-05-17T13:08:13.000Z</time>
      </trkpt>
      <trkpt lat="44.88636" lon="0.63092">
        <ele>138.4</ele>
        <time>2021-05-17T13:08:14.000Z</time>
      </trkpt>
      <trkpt lat="44.88636" lon="0.63091">
        <ele>138.4</ele>
        <time>2021-05-17T13:08:15.000Z</time>
      </trkpt>
      <trkpt lat="44.88636" lon="0.63091">
        <ele>138.4</ele>
        <time>2021-05-17T13:08:16.000Z</time>
      </trkpt>
      <trkpt lat="44.88636" lon="0.63091">
        <ele>138.4</ele>
        <time>2021-05-17T13:08:17.000Z</time>
      </trkpt>
      <trkpt lat="44.88636" lon="0.63089">
        <ele>138.4</ele>
        <time>2021-05-17T13:08:18.000Z</time>
      </trkpt>
      <trkpt lat="44.88636" lon="0.63089">
        <ele>138.4</ele>
        <time>2021-05-17T13:08:19.000Z</time>
      </trkpt>
      <trkpt lat="44.88637" lon="0.63089">
        <ele>138.4</ele>
        <time>2021-05-17T13:08:21.000Z</time>
      </trkpt>
      <trkpt lat="44.88637" lon="0.6309">
        <ele>138.4</ele>
        <time>2021-05-17T13:08:22.000Z</time>
      </trkpt>
      <trkpt lat="44.88637" lon="0.6309">
        <ele>138.4</ele>
        <time>2021-05-17T13:08:23.000Z</time>
      </trkpt>
      <trkpt lat="44.88637" lon="0.63089">
        <ele>138.4</ele>
        <time>2021-05-17T13:08:24.000Z</time>
      </trkpt>
      <trkpt lat="44.88637" lon="0.6309">
        <ele>138.4</ele>
        <time>2021-05-17T13:08:25.000Z</time>
      </trkpt>
      <trkpt lat="44.88637" lon="0.6309">
        <ele>138.4</ele>
        <time>2021-05-17T13:08:26.000Z</time>
      </trkpt>
      <trkpt lat="44.88636" lon="0.63091">
        <ele>138.4</ele>
        <time>2021-05-17T13:08:27.000Z</time>
      </trkpt>
      <trkpt lat="44.88636" lon="0.63092">
        <ele>138.4</ele>
        <time>2021-05-17T13:08:28.000Z</time>
      </trkpt>
      <trkpt lat="44.88636" lon="0.63091">
        <ele>138.4</ele>
        <time>2021-05-17T13:08:29.000Z</time>
      </trkpt>
      <trkpt lat="44.88636" lon="0.63091">
        <ele>138.4</ele>
        <time>2021-05-17T13:08:30.000Z</time>
      </trkpt>
      <trkpt lat="44.88636" lon="0.63091">
        <ele>138.4</ele>
        <time>2021-05-17T13:08:31.000Z</time>
      </trkpt>
      <trkpt lat="44.88637" lon="0.63091">
        <ele>138.4</ele>
        <time>2021-05-17T13:08:32.000Z</time>
      </trkpt>
      <trkpt lat="44.88637" lon="0.63091">
        <ele>138.4</ele>
        <time>2021-05-17T13:08:33.000Z</time>
      </trkpt>
      <trkpt lat="44.88637" lon="0.63091">
        <ele>138.4</ele>
        <time>2021-05-17T13:08:34.000Z</time>
      </trkpt>
      <trkpt lat="44.88637" lon="0.63091">
        <ele>138.4</ele>
        <time>2021-05-17T13:08:35.000Z</time>
      </trkpt>
      <trkpt lat="44.88637" lon="0.63091">
        <ele>138.4</ele>
        <time>2021-05-17T13:08:36.000Z</time>
      </trkpt>
      <trkpt lat="44.88637" lon="0.63091">
        <ele>138.4</ele>
        <time>2021-05-17T13:08:37.000Z</time>
      </trkpt>
      <trkpt lat="44.88637" lon="0.6309">
        <ele>138.4</ele>
        <time>2021-05-17T13:08:38.000Z</time>
      </trkpt>
      <trkpt lat="44.88637" lon="0.63091">
        <ele>138.4</ele>
        <time>2021-05-17T13:08:39.000Z</time>
      </trkpt>
      <trkpt lat="44.88637" lon="0.63091">
        <ele>138.4</ele>
        <time>2021-05-17T13:08:40.000Z</time>
      </trkpt>
      <trkpt lat="44.88638" lon="0.63091">
        <ele>138.3</ele>
        <time>2021-05-17T13:08:41.000Z</time>
      </trkpt>
      <trkpt lat="44.88638" lon="0.6309">
        <ele>138.3</ele>
        <time>2021-05-17T13:08:42.000Z</time>
      </trkpt>
      <trkpt lat="44.88638" lon="0.6309">
        <ele>138.3</ele>
        <time>2021-05-17T13:08:43.000Z</time>
      </trkpt>
      <trkpt lat="44.88638" lon="0.63089">
        <ele>138.3</ele>
        <time>2021-05-17T13:08:44.000Z</time>
      </trkpt>
      <trkpt lat="44.88638" lon="0.63089">
        <ele>138.3</ele>
        <time>2021-05-17T13:08:45.000Z</time>
      </trkpt>
      <trkpt lat="44.88638" lon="0.63089">
        <ele>138.3</ele>
        <time>2021-05-17T13:08:46.000Z</time>
      </trkpt>
      <trkpt lat="44.88638" lon="0.6309">
        <ele>138.3</ele>
        <time>2021-05-17T13:08:47.000Z</time>
      </trkpt>
      <trkpt lat="44.88639" lon="0.6309">
        <ele>138.3</ele>
        <time>2021-05-17T13:08:48.000Z</time>
      </trkpt>
      <trkpt lat="44.88639" lon="0.6309">
        <ele>138.3</ele>
        <time>2021-05-17T13:08:49.000Z</time>
      </trkpt>
      <trkpt lat="44.88639" lon="0.6309">
        <ele>138.3</ele>
        <time>2021-05-17T13:08:50.000Z</time>
      </trkpt>
      <trkpt lat="44.8864" lon="0.63091">
        <ele>138.3</ele>
        <time>2021-05-17T13:08:51.000Z</time>
      </trkpt>
      <trkpt lat="44.8864" lon="0.63091">
        <ele>138.3</ele>
        <time>2021-05-17T13:08:52.000Z</time>
      </trkpt>
      <trkpt lat="44.88639" lon="0.63092">
        <ele>138.2</ele>
        <time>2021-05-17T13:08:53.000Z</time>
      </trkpt>
      <trkpt lat="44.8864" lon="0.63092">
        <ele>138.2</ele>
        <time>2021-05-17T13:08:54.000Z</time>
      </trkpt>
      <trkpt lat="44.88639" lon="0.63091">
        <ele>138.2</ele>
        <time>2021-05-17T13:08:55.000Z</time>
      </trkpt>
      <trkpt lat="44.88639" lon="0.63091">
        <ele>138.2</ele>
        <time>2021-05-17T13:08:56.000Z</time>
      </trkpt>
      <trkpt lat="44.8864" lon="0.63091">
        <ele>138.2</ele>
        <time>2021-05-17T13:08:57.000Z</time>
      </trkpt>
      <trkpt lat="44.8864" lon="0.63091">
        <ele>138.2</ele>
        <time>2021-05-17T13:08:58.000Z</time>
      </trkpt>
      <trkpt lat="44.88639" lon="0.63091">
        <ele>138.2</ele>
        <time>2021-05-17T13:08:59.000Z</time>
      </trkpt>
      <trkpt lat="44.88639" lon="0.63092">
        <ele>138.1</ele>
        <time>2021-05-17T13:09:00.000Z</time>
      </trkpt>
      <trkpt lat="44.88639" lon="0.63092">
        <ele>138.1</ele>
        <time>2021-05-17T13:09:01.000Z</time>
      </trkpt>
      <trkpt lat="44.88639" lon="0.63093">
        <ele>138.1</ele>
        <time>2021-05-17T13:09:02.000Z</time>
      </trkpt>
      <trkpt lat="44.88639" lon="0.63093">
        <ele>138.1</ele>
        <time>2021-05-17T13:09:03.000Z</time>
      </trkpt>
      <trkpt lat="44.88639" lon="0.63094">
        <ele>138.1</ele>
        <time>2021-05-17T13:09:04.000Z</time>
      </trkpt>
      <trkpt lat="44.88639" lon="0.63093">
        <ele>138.1</ele>
        <time>2021-05-17T13:09:05.000Z</time>
      </trkpt>
      <trkpt lat="44.88639" lon="0.63094">
        <ele>138</ele>
        <time>2021-05-17T13:09:06.000Z</time>
      </trkpt>
      <trkpt lat="44.88638" lon="0.63093">
        <ele>138</ele>
        <time>2021-05-17T13:09:07.000Z</time>
      </trkpt>
      <trkpt lat="44.88638" lon="0.63093">
        <ele>138</ele>
        <time>2021-05-17T13:09:08.000Z</time>
      </trkpt>
      <trkpt lat="44.88638" lon="0.63094">
        <ele>138</ele>
        <time>2021-05-17T13:09:09.000Z</time>
      </trkpt>
      <trkpt lat="44.88638" lon="0.63094">
        <ele>137.9</ele>
        <time>2021-05-17T13:09:10.000Z</time>
      </trkpt>
      <trkpt lat="44.88639" lon="0.63094">
        <ele>137.9</ele>
        <time>2021-05-17T13:09:11.000Z</time>
      </trkpt>
      <trkpt lat="44.88639" lon="0.63094">
        <ele>137.9</ele>
        <time>2021-05-17T13:09:12.000Z</time>
      </trkpt>
      <trkpt lat="44.88638" lon="0.63094">
        <ele>137.9</ele>
        <time>2021-05-17T13:09:13.000Z</time>
      </trkpt>
      <trkpt lat="44.88639" lon="0.63094">
        <ele>137.9</ele>
        <time>2021-05-17T13:09:14.000Z</time>
      </trkpt>
      <trkpt lat="44.88639" lon="0.63094">
        <ele>137.9</ele>
        <time>2021-05-17T13:09:15.000Z</time>
      </trkpt>
      <trkpt lat="44.88639" lon="0.63094">
        <ele>137.9</ele>
        <time>2021-05-17T13:09:16.000Z</time>
      </trkpt>
      <trkpt lat="44.88639" lon="0.63094">
        <ele>137.8</ele>
        <time>2021-05-17T13:09:17.000Z</time>
      </trkpt>
      <trkpt lat="44.88639" lon="0.63094">
        <ele>137.8</ele>
        <time>2021-05-17T13:09:18.000Z</time>
      </trkpt>
      <trkpt lat="44.8864" lon="0.63094">
        <ele>137.8</ele>
        <time>2021-05-17T13:09:19.000Z</time>
      </trkpt>
      <trkpt lat="44.88639" lon="0.63094">
        <ele>137.8</ele>
        <time>2021-05-17T13:09:20.000Z</time>
      </trkpt>
      <trkpt lat="44.88639" lon="0.63094">
        <ele>137.8</ele>
        <time>2021-05-17T13:09:21.000Z</time>
      </trkpt>
      <trkpt lat="44.88639" lon="0.63095">
        <ele>137.8</ele>
        <time>2021-05-17T13:09:22.000Z</time>
      </trkpt>
      <trkpt lat="44.88639" lon="0.63095">
        <ele>137.8</ele>
        <time>2021-05-17T13:09:23.000Z</time>
      </trkpt>
      <trkpt lat="44.88639" lon="0.63095">
        <ele>137.8</ele>
        <time>2021-05-17T13:09:24.000Z</time>
      </trkpt>
      <trkpt lat="44.88639" lon="0.63095">
        <ele>137.8</ele>
        <time>2021-05-17T13:09:25.000Z</time>
      </trkpt>
      <trkpt lat="44.88639" lon="0.63095">
        <ele>137.8</ele>
        <time>2021-05-17T13:09:26.000Z</time>
      </trkpt>
      <trkpt lat="44.88639" lon="0.63095">
        <ele>137.8</ele>
        <time>2021-05-17T13:09:27.000Z</time>
      </trkpt>
      <trkpt lat="44.88639" lon="0.63095">
        <ele>137.8</ele>
        <time>2021-05-17T13:09:28.000Z</time>
      </trkpt>
      <trkpt lat="44.88639" lon="0.63097">
        <ele>137.7</ele>
        <time>2021-05-17T13:09:29.000Z</time>
      </trkpt>
      <trkpt lat="44.88639" lon="0.63097">
        <ele>137.7</ele>
        <time>2021-05-17T13:09:30.000Z</time>
      </trkpt>
      <trkpt lat="44.88639" lon="0.63097">
        <ele>137.7</ele>
        <time>2021-05-17T13:09:31.000Z</time>
      </trkpt>
      <trkpt lat="44.88639" lon="0.63097">
        <ele>137.7</ele>
        <time>2021-05-17T13:09:32.000Z</time>
      </trkpt>
      <trkpt lat="44.88639" lon="0.63097">
        <ele>137.7</ele>
        <time>2021-05-17T13:09:33.000Z</time>
      </trkpt>
      <trkpt lat="44.88639" lon="0.63097">
        <ele>137.6</ele>
        <time>2021-05-17T13:09:34.000Z</time>
      </trkpt>
      <trkpt lat="44.88639" lon="0.63097">
        <ele>137.6</ele>
        <time>2021-05-17T13:09:35.000Z</time>
      </trkpt>
      <trkpt lat="44.88639" lon="0.63097">
        <ele>137.6</ele>
        <time>2021-05-17T13:09:36.000Z</time>
      </trkpt>
      <trkpt lat="44.88639" lon="0.63097">
        <ele>137.6</ele>
        <time>2021-05-17T13:09:37.000Z</time>
      </trkpt>
      <trkpt lat="44.88639" lon="0.63097">
        <ele>137.6</ele>
        <time>2021-05-17T13:09:38.000Z</time>
      </trkpt>
      <trkpt lat="44.8864" lon="0.63097">
        <ele>137.6</ele>
        <time>2021-05-17T13:09:39.000Z</time>
      </trkpt>
      <trkpt lat="44.8864" lon="0.63097">
        <ele>137.6</ele>
        <time>2021-05-17T13:09:40.000Z</time>
      </trkpt>
      <trkpt lat="44.8864" lon="0.63097">
        <ele>137.5</ele>
        <time>2021-05-17T13:09:41.000Z</time>
      </trkpt>
      <trkpt lat="44.8864" lon="0.63097">
        <ele>137.5</ele>
        <time>2021-05-17T13:09:42.000Z</time>
      </trkpt>
      <trkpt lat="44.8864" lon="0.63097">
        <ele>137.5</ele>
        <time>2021-05-17T13:09:43.000Z</time>
      </trkpt>
      <trkpt lat="44.8864" lon="0.63097">
        <ele>137.5</ele>
        <time>2021-05-17T13:09:44.000Z</time>
      </trkpt>
      <trkpt lat="44.8864" lon="0.63097">
        <ele>137.5</ele>
        <time>2021-05-17T13:09:45.000Z</time>
      </trkpt>
      <trkpt lat="44.8864" lon="0.63097">
        <ele>137.5</ele>
        <time>2021-05-17T13:09:46.000Z</time>
      </trkpt>
      <trkpt lat="44.8864" lon="0.63097">
        <ele>137.5</ele>
        <time>2021-05-17T13:09:47.000Z</time>
      </trkpt>
      <trkpt lat="44.8864" lon="0.63097">
        <ele>137.4</ele>
        <time>2021-05-17T13:09:48.000Z</time>
      </trkpt>
      <trkpt lat="44.88641" lon="0.63096">
        <ele>137.4</ele>
        <time>2021-05-17T13:09:49.000Z</time>
      </trkpt>
      <trkpt lat="44.88641" lon="0.63096">
        <ele>137.4</ele>
        <time>2021-05-17T13:09:50.000Z</time>
      </trkpt>
      <trkpt lat="44.88641" lon="0.63096">
        <ele>137.4</ele>
        <time>2021-05-17T13:09:51.000Z</time>
      </trkpt>
      <trkpt lat="44.88641" lon="0.63095">
        <ele>137.3</ele>
        <time>2021-05-17T13:09:52.000Z</time>
      </trkpt>
      <trkpt lat="44.88641" lon="0.63095">
        <ele>137.3</ele>
        <time>2021-05-17T13:09:53.000Z</time>
      </trkpt>
      <trkpt lat="44.88641" lon="0.63095">
        <ele>137.3</ele>
        <time>2021-05-17T13:09:54.000Z</time>
      </trkpt>
      <trkpt lat="44.88641" lon="0.63095">
        <ele>137.3</ele>
        <time>2021-05-17T13:09:55.000Z</time>
      </trkpt>
      <trkpt lat="44.8864" lon="0.63095">
        <ele>137.2</ele>
        <time>2021-05-17T13:09:56.000Z</time>
      </trkpt>
      <trkpt lat="44.88641" lon="0.63094">
        <ele>137.2</ele>
        <time>2021-05-17T13:09:57.000Z</time>
      </trkpt>
      <trkpt lat="44.88641" lon="0.63094">
        <ele>137.1</ele>
        <time>2021-05-17T13:09:58.000Z</time>
      </trkpt>
      <trkpt lat="44.88641" lon="0.63094">
        <ele>137.1</ele>
        <time>2021-05-17T13:09:59.000Z</time>
      </trkpt>
      <trkpt lat="44.8864" lon="0.63095">
        <ele>137</ele>
        <time>2021-05-17T13:10:00.000Z</time>
      </trkpt>
      <trkpt lat="44.88638" lon="0.63096">
        <ele>136.9</ele>
        <time>2021-05-17T13:10:01.000Z</time>
      </trkpt>
      <trkpt lat="44.88637" lon="0.63098">
        <ele>136.8</ele>
        <time>2021-05-17T13:10:02.000Z</time>
      </trkpt>
      <trkpt lat="44.88637" lon="0.631">
        <ele>136.7</ele>
        <time>2021-05-17T13:10:03.000Z</time>
      </trkpt>
      <trkpt lat="44.88635" lon="0.63103">
        <ele>136.5</ele>
        <time>2021-05-17T13:10:04.000Z</time>
      </trkpt>
      <trkpt lat="44.88634" lon="0.63104">
        <ele>136.4</ele>
        <time>2021-05-17T13:10:05.000Z</time>
      </trkpt>
      <trkpt lat="44.88632" lon="0.63107">
        <ele>136.2</ele>
        <time>2021-05-17T13:10:06.000Z</time>
      </trkpt>
      <trkpt lat="44.88631" lon="0.63108">
        <ele>136.1</ele>
        <time>2021-05-17T13:10:07.000Z</time>
      </trkpt>
      <trkpt lat="44.88629" lon="0.63112">
        <ele>135.8</ele>
        <time>2021-05-17T13:10:08.000Z</time>
      </trkpt>
      <trkpt lat="44.88627" lon="0.63115">
        <ele>135.6</ele>
        <time>2021-05-17T13:10:09.000Z</time>
      </trkpt>
      <trkpt lat="44.88626" lon="0.63119">
        <ele>135.3</ele>
        <time>2021-05-17T13:10:10.000Z</time>
      </trkpt>
      <trkpt lat="44.88624" lon="0.63124">
        <ele>134.9</ele>
        <time>2021-05-17T13:10:11.000Z</time>
      </trkpt>
      <trkpt lat="44.88624" lon="0.63126">
        <ele>134.8</ele>
        <time>2021-05-17T13:10:12.000Z</time>
      </trkpt>
      <trkpt lat="44.88622" lon="0.63131">
        <ele>134.4</ele>
        <time>2021-05-17T13:10:13.000Z</time>
      </trkpt>
      <trkpt lat="44.88621" lon="0.63135">
        <ele>134.1</ele>
        <time>2021-05-17T13:10:14.000Z</time>
      </trkpt>
      <trkpt lat="44.8862" lon="0.63139">
        <ele>133.8</ele>
        <time>2021-05-17T13:10:15.000Z</time>
      </trkpt>
      <trkpt lat="44.88618" lon="0.63143">
        <ele>133.5</ele>
        <time>2021-05-17T13:10:16.000Z</time>
      </trkpt>
      <trkpt lat="44.88616" lon="0.63149">
        <ele>133.1</ele>
        <time>2021-05-17T13:10:17.000Z</time>
      </trkpt>
      <trkpt lat="44.88615" lon="0.63158">
        <ele>132.6</ele>
        <time>2021-05-17T13:10:18.000Z</time>
      </trkpt>
      <trkpt lat="44.88614" lon="0.63165">
        <ele>132.2</ele>
        <time>2021-05-17T13:10:19.000Z</time>
      </trkpt>
      <trkpt lat="44.88612" lon="0.63171">
        <ele>131.9</ele>
        <time>2021-05-17T13:10:20.000Z</time>
      </trkpt>
      <trkpt lat="44.88609" lon="0.6318">
        <ele>131.4</ele>
        <time>2021-05-17T13:10:21.000Z</time>
      </trkpt>
      <trkpt lat="44.88608" lon="0.63187">
        <ele>131</ele>
        <time>2021-05-17T13:10:22.000Z</time>
      </trkpt>
      <trkpt lat="44.88608" lon="0.63195">
        <ele>130.7</ele>
        <time>2021-05-17T13:10:23.000Z</time>
      </trkpt>
      <trkpt lat="44.88608" lon="0.63202">
        <ele>130.3</ele>
        <time>2021-05-17T13:10:24.000Z</time>
      </trkpt>
      <trkpt lat="44.88607" lon="0.63211">
        <ele>129.9</ele>
        <time>2021-05-17T13:10:25.000Z</time>
      </trkpt>
      <trkpt lat="44.88605" lon="0.63221">
        <ele>129.5</ele>
        <time>2021-05-17T13:10:27.000Z</time>
      </trkpt>
      <trkpt lat="44.88604" lon="0.63233">
        <ele>129.1</ele>
        <time>2021-05-17T13:10:28.000Z</time>
      </trkpt>
      <trkpt lat="44.88604" lon="0.63244">
        <ele>128.7</ele>
        <time>2021-05-17T13:10:29.000Z</time>
      </trkpt>
      <trkpt lat="44.88605" lon="0.63255">
        <ele>128.2</ele>
        <time>2021-05-17T13:10:30.000Z</time>
      </trkpt>
      <trkpt lat="44.88605" lon="0.63265">
        <ele>127.8</ele>
        <time>2021-05-17T13:10:31.000Z</time>
      </trkpt>
      <trkpt lat="44.88606" lon="0.63275">
        <ele>127.4</ele>
        <time>2021-05-17T13:10:32.000Z</time>
      </trkpt>
      <trkpt lat="44.88608" lon="0.63286">
        <ele>127</ele>
        <time>2021-05-17T13:10:33.000Z</time>
      </trkpt>
      <trkpt lat="44.8861" lon="0.63297">
        <ele>126.7</ele>
        <time>2021-05-17T13:10:34.000Z</time>
      </trkpt>
      <trkpt lat="44.88613" lon="0.63306">
        <ele>126.3</ele>
        <time>2021-05-17T13:10:35.000Z</time>
      </trkpt>
      <trkpt lat="44.88616" lon="0.63315">
        <ele>126</ele>
        <time>2021-05-17T13:10:36.000Z</time>
      </trkpt>
      <trkpt lat="44.88621" lon="0.63322">
        <ele>125.5</ele>
        <time>2021-05-17T13:10:37.000Z</time>
      </trkpt>
      <trkpt lat="44.88624" lon="0.63332">
        <ele>125.1</ele>
        <time>2021-05-17T13:10:38.000Z</time>
      </trkpt>
      <trkpt lat="44.88626" lon="0.6334">
        <ele>124.7</ele>
        <time>2021-05-17T13:10:39.000Z</time>
      </trkpt>
      <trkpt lat="44.88629" lon="0.63346">
        <ele>124.4</ele>
        <time>2021-05-17T13:10:40.000Z</time>
      </trkpt>
      <trkpt lat="44.88632" lon="0.63354">
        <ele>124</ele>
        <time>2021-05-17T13:10:41.000Z</time>
      </trkpt>
      <trkpt lat="44.88637" lon="0.63361">
        <ele>123.7</ele>
        <time>2021-05-17T13:10:42.000Z</time>
      </trkpt>
      <trkpt lat="44.88643" lon="0.63366">
        <ele>123.3</ele>
        <time>2021-05-17T13:10:43.000Z</time>
      </trkpt>
      <trkpt lat="44.88648" lon="0.63372">
        <ele>122.9</ele>
        <time>2021-05-17T13:10:44.000Z</time>
      </trkpt>
      <trkpt lat="44.88655" lon="0.63376">
        <ele>122.4</ele>
        <time>2021-05-17T13:10:45.000Z</time>
      </trkpt>
      <trkpt lat="44.88662" lon="0.63379">
        <ele>122</ele>
        <time>2021-05-17T13:10:46.000Z</time>
      </trkpt>
      <trkpt lat="44.88668" lon="0.63383">
        <ele>121.6</ele>
        <time>2021-05-17T13:10:47.000Z</time>
      </trkpt>
      <trkpt lat="44.88674" lon="0.63386">
        <ele>121.3</ele>
        <time>2021-05-17T13:10:48.000Z</time>
      </trkpt>
      <trkpt lat="44.8868" lon="0.6339">
        <ele>121</ele>
        <time>2021-05-17T13:10:49.000Z</time>
      </trkpt>
      <trkpt lat="44.88683" lon="0.63393">
        <ele>120.8</ele>
        <time>2021-05-17T13:10:50.000Z</time>
      </trkpt>
      <trkpt lat="44.88687" lon="0.63393">
        <ele>120.7</ele>
        <time>2021-05-17T13:10:51.000Z</time>
      </trkpt>
      <trkpt lat="44.88692" lon="0.63394">
        <ele>120.4</ele>
        <time>2021-05-17T13:10:52.000Z</time>
      </trkpt>
      <trkpt lat="44.88697" lon="0.63398">
        <ele>120.1</ele>
        <time>2021-05-17T13:10:53.000Z</time>
      </trkpt>
      <trkpt lat="44.88704" lon="0.63403">
        <ele>119.8</ele>
        <time>2021-05-17T13:10:54.000Z</time>
      </trkpt>
      <trkpt lat="44.88715" lon="0.63413">
        <ele>119.3</ele>
        <time>2021-05-17T13:10:55.000Z</time>
      </trkpt>
      <trkpt lat="44.88719" lon="0.63417">
        <ele>119.2</ele>
        <time>2021-05-17T13:10:56.000Z</time>
      </trkpt>
      <trkpt lat="44.88724" lon="0.63423">
        <ele>119.1</ele>
        <time>2021-05-17T13:10:57.000Z</time>
      </trkpt>
      <trkpt lat="44.88731" lon="0.63429">
        <ele>118.9</ele>
        <time>2021-05-17T13:10:58.000Z</time>
      </trkpt>
      <trkpt lat="44.88737" lon="0.63434">
        <ele>118.8</ele>
        <time>2021-05-17T13:10:59.000Z</time>
      </trkpt>
      <trkpt lat="44.88743" lon="0.63442">
        <ele>118.7</ele>
        <time>2021-05-17T13:11:00.000Z</time>
      </trkpt>
      <trkpt lat="44.88746" lon="0.63447">
        <ele>118.7</ele>
        <time>2021-05-17T13:11:01.000Z</time>
      </trkpt>
      <trkpt lat="44.8875" lon="0.63452">
        <ele>118.6</ele>
        <time>2021-05-17T13:11:02.000Z</time>
      </trkpt>
      <trkpt lat="44.88753" lon="0.63459">
        <ele>118.7</ele>
        <time>2021-05-17T13:11:03.000Z</time>
      </trkpt>
      <trkpt lat="44.88755" lon="0.63466">
        <ele>118.7</ele>
        <time>2021-05-17T13:11:04.000Z</time>
      </trkpt>
      <trkpt lat="44.88755" lon="0.63472">
        <ele>118.7</ele>
        <time>2021-05-17T13:11:05.000Z</time>
      </trkpt>
      <trkpt lat="44.88756" lon="0.63477">
        <ele>118.8</ele>
        <time>2021-05-17T13:11:06.000Z</time>
      </trkpt>
      <trkpt lat="44.88756" lon="0.63482">
        <ele>118.8</ele>
        <time>2021-05-17T13:11:07.000Z</time>
      </trkpt>
      <trkpt lat="44.88756" lon="0.63487">
        <ele>118.8</ele>
        <time>2021-05-17T13:11:08.000Z</time>
      </trkpt>
      <trkpt lat="44.88755" lon="0.63491">
        <ele>118.8</ele>
        <time>2021-05-17T13:11:09.000Z</time>
      </trkpt>
      <trkpt lat="44.88755" lon="0.63495">
        <ele>118.8</ele>
        <time>2021-05-17T13:11:10.000Z</time>
      </trkpt>
      <trkpt lat="44.88755" lon="0.63497">
        <ele>118.8</ele>
        <time>2021-05-17T13:11:11.000Z</time>
      </trkpt>
      <trkpt lat="44.88753" lon="0.635">
        <ele>118.8</ele>
        <time>2021-05-17T13:11:12.000Z</time>
      </trkpt>
      <trkpt lat="44.8875" lon="0.63503">
        <ele>118.9</ele>
        <time>2021-05-17T13:11:13.000Z</time>
      </trkpt>
      <trkpt lat="44.88748" lon="0.63507">
        <ele>118.9</ele>
        <time>2021-05-17T13:11:14.000Z</time>
      </trkpt>
      <trkpt lat="44.88745" lon="0.63511">
        <ele>118.9</ele>
        <time>2021-05-17T13:11:15.000Z</time>
      </trkpt>
      <trkpt lat="44.88743" lon="0.63515">
        <ele>119</ele>
        <time>2021-05-17T13:11:16.000Z</time>
      </trkpt>
      <trkpt lat="44.88741" lon="0.63519">
        <ele>119</ele>
        <time>2021-05-17T13:11:17.000Z</time>
      </trkpt>
      <trkpt lat="44.88741" lon="0.63522">
        <ele>119</ele>
        <time>2021-05-17T13:11:18.000Z</time>
      </trkpt>
      <trkpt lat="44.88738" lon="0.63523">
        <ele>119</ele>
        <time>2021-05-17T13:11:19.000Z</time>
      </trkpt>
      <trkpt lat="44.88735" lon="0.63524">
        <ele>119.1</ele>
        <time>2021-05-17T13:11:20.000Z</time>
      </trkpt>
      <trkpt lat="44.88731" lon="0.63526">
        <ele>119.1</ele>
        <time>2021-05-17T13:11:21.000Z</time>
      </trkpt>
      <trkpt lat="44.88729" lon="0.6353">
        <ele>119.2</ele>
        <time>2021-05-17T13:11:22.000Z</time>
      </trkpt>
      <trkpt lat="44.88728" lon="0.63531">
        <ele>119.2</ele>
        <time>2021-05-17T13:11:23.000Z</time>
      </trkpt>
      <trkpt lat="44.88724" lon="0.63537">
        <ele>119.3</ele>
        <time>2021-05-17T13:11:24.000Z</time>
      </trkpt>
      <trkpt lat="44.88722" lon="0.63539">
        <ele>119.4</ele>
        <time>2021-05-17T13:11:25.000Z</time>
      </trkpt>
      <trkpt lat="44.88721" lon="0.63544">
        <ele>119.4</ele>
        <time>2021-05-17T13:11:26.000Z</time>
      </trkpt>
      <trkpt lat="44.88719" lon="0.63548">
        <ele>119.5</ele>
        <time>2021-05-17T13:11:27.000Z</time>
      </trkpt>
      <trkpt lat="44.8872" lon="0.63552">
        <ele>119.6</ele>
        <time>2021-05-17T13:11:28.000Z</time>
      </trkpt>
      <trkpt lat="44.8872" lon="0.63557">
        <ele>119.7</ele>
        <time>2021-05-17T13:11:29.000Z</time>
      </trkpt>
      <trkpt lat="44.88718" lon="0.63561">
        <ele>119.8</ele>
        <time>2021-05-17T13:11:30.000Z</time>
      </trkpt>
      <trkpt lat="44.88716" lon="0.63564">
        <ele>119.8</ele>
        <time>2021-05-17T13:11:31.000Z</time>
      </trkpt>
      <trkpt lat="44.88716" lon="0.63571">
        <ele>119.9</ele>
        <time>2021-05-17T13:11:32.000Z</time>
      </trkpt>
      <trkpt lat="44.88715" lon="0.63578">
        <ele>119.9</ele>
        <time>2021-05-17T13:11:33.000Z</time>
      </trkpt>
      <trkpt lat="44.88713" lon="0.6358">
        <ele>120</ele>
        <time>2021-05-17T13:11:34.000Z</time>
      </trkpt>
      <trkpt lat="44.8871" lon="0.63581">
        <ele>120</ele>
        <time>2021-05-17T13:11:35.000Z</time>
      </trkpt>
      <trkpt lat="44.88705" lon="0.63582">
        <ele>120</ele>
        <time>2021-05-17T13:11:36.000Z</time>
      </trkpt>
      <trkpt lat="44.887" lon="0.63585">
        <ele>120.1</ele>
        <time>2021-05-17T13:11:37.000Z</time>
      </trkpt>
      <trkpt lat="44.88694" lon="0.6359">
        <ele>120.1</ele>
        <time>2021-05-17T13:11:38.000Z</time>
      </trkpt>
      <trkpt lat="44.8869" lon="0.63592">
        <ele>120</ele>
        <time>2021-05-17T13:11:39.000Z</time>
      </trkpt>
      <trkpt lat="44.88685" lon="0.63593">
        <ele>119.9</ele>
        <time>2021-05-17T13:11:40.000Z</time>
      </trkpt>
      <trkpt lat="44.88682" lon="0.63595">
        <ele>120</ele>
        <time>2021-05-17T13:11:41.000Z</time>
      </trkpt>
      <trkpt lat="44.88676" lon="0.63596">
        <ele>120.1</ele>
        <time>2021-05-17T13:11:42.000Z</time>
      </trkpt>
      <trkpt lat="44.88671" lon="0.63597">
        <ele>120.1</ele>
        <time>2021-05-17T13:11:43.000Z</time>
      </trkpt>
      <trkpt lat="44.88669" lon="0.63599">
        <ele>120.1</ele>
        <time>2021-05-17T13:11:44.000Z</time>
      </trkpt>
      <trkpt lat="44.88662" lon="0.63598">
        <ele>120.1</ele>
        <time>2021-05-17T13:11:45.000Z</time>
      </trkpt>
      <trkpt lat="44.88658" lon="0.636">
        <ele>120.1</ele>
        <time>2021-05-17T13:11:46.000Z</time>
      </trkpt>
      <trkpt lat="44.88652" lon="0.636">
        <ele>120.2</ele>
        <time>2021-05-17T13:11:47.000Z</time>
      </trkpt>
      <trkpt lat="44.88648" lon="0.63601">
        <ele>120.2</ele>
        <time>2021-05-17T13:11:48.000Z</time>
      </trkpt>
      <trkpt lat="44.88643" lon="0.63602">
        <ele>120.2</ele>
        <time>2021-05-17T13:11:49.000Z</time>
      </trkpt>
      <trkpt lat="44.88639" lon="0.63604">
        <ele>120.3</ele>
        <time>2021-05-17T13:11:50.000Z</time>
      </trkpt>
      <trkpt lat="44.88634" lon="0.63605">
        <ele>120.3</ele>
        <time>2021-05-17T13:11:51.000Z</time>
      </trkpt>
      <trkpt lat="44.88631" lon="0.63606">
        <ele>120.3</ele>
        <time>2021-05-17T13:11:52.000Z</time>
      </trkpt>
      <trkpt lat="44.88626" lon="0.63607">
        <ele>120.4</ele>
        <time>2021-05-17T13:11:53.000Z</time>
      </trkpt>
      <trkpt lat="44.88623" lon="0.63607">
        <ele>120.4</ele>
        <time>2021-05-17T13:11:54.000Z</time>
      </trkpt>
      <trkpt lat="44.88619" lon="0.63606">
        <ele>120.5</ele>
        <time>2021-05-17T13:11:55.000Z</time>
      </trkpt>
      <trkpt lat="44.88615" lon="0.63607">
        <ele>120.6</ele>
        <time>2021-05-17T13:11:56.000Z</time>
      </trkpt>
      <trkpt lat="44.88611" lon="0.63608">
        <ele>120.7</ele>
        <time>2021-05-17T13:11:57.000Z</time>
      </trkpt>
      <trkpt lat="44.88606" lon="0.63607">
        <ele>120.8</ele>
        <time>2021-05-17T13:11:58.000Z</time>
      </trkpt>
      <trkpt lat="44.88603" lon="0.63609">
        <ele>120.8</ele>
        <time>2021-05-17T13:11:59.000Z</time>
      </trkpt>
      <trkpt lat="44.88599" lon="0.63609">
        <ele>120.9</ele>
        <time>2021-05-17T13:12:00.000Z</time>
      </trkpt>
      <trkpt lat="44.88595" lon="0.63609">
        <ele>121</ele>
        <time>2021-05-17T13:12:01.000Z</time>
      </trkpt>
      <trkpt lat="44.8859" lon="0.6361">
        <ele>121</ele>
        <time>2021-05-17T13:12:02.000Z</time>
      </trkpt>
      <trkpt lat="44.88587" lon="0.6361">
        <ele>121.1</ele>
        <time>2021-05-17T13:12:03.000Z</time>
      </trkpt>
      <trkpt lat="44.88583" lon="0.6361">
        <ele>121.1</ele>
        <time>2021-05-17T13:12:04.000Z</time>
      </trkpt>
      <trkpt lat="44.88579" lon="0.63612">
        <ele>121.2</ele>
        <time>2021-05-17T13:12:05.000Z</time>
      </trkpt>
      <trkpt lat="44.88577" lon="0.63611">
        <ele>121.2</ele>
        <time>2021-05-17T13:12:06.000Z</time>
      </trkpt>
      <trkpt lat="44.88572" lon="0.63611">
        <ele>121.3</ele>
        <time>2021-05-17T13:12:07.000Z</time>
      </trkpt>
      <trkpt lat="44.88569" lon="0.63611">
        <ele>121.3</ele>
        <time>2021-05-17T13:12:08.000Z</time>
      </trkpt>
      <trkpt lat="44.88564" lon="0.63611">
        <ele>121.4</ele>
        <time>2021-05-17T13:12:09.000Z</time>
      </trkpt>
      <trkpt lat="44.8856" lon="0.63613">
        <ele>121.4</ele>
        <time>2021-05-17T13:12:10.000Z</time>
      </trkpt>
      <trkpt lat="44.88556" lon="0.63613">
        <ele>121.4</ele>
        <time>2021-05-17T13:12:11.000Z</time>
      </trkpt>
      <trkpt lat="44.88551" lon="0.63615">
        <ele>121.4</ele>
        <time>2021-05-17T13:12:12.000Z</time>
      </trkpt>
      <trkpt lat="44.88546" lon="0.63616">
        <ele>121.4</ele>
        <time>2021-05-17T13:12:13.000Z</time>
      </trkpt>
      <trkpt lat="44.88541" lon="0.63617">
        <ele>121.3</ele>
        <time>2021-05-17T13:12:14.000Z</time>
      </trkpt>
      <trkpt lat="44.88536" lon="0.63618">
        <ele>121.3</ele>
        <time>2021-05-17T13:12:15.000Z</time>
      </trkpt>
      <trkpt lat="44.88531" lon="0.63619">
        <ele>121.3</ele>
        <time>2021-05-17T13:12:16.000Z</time>
      </trkpt>
      <trkpt lat="44.88528" lon="0.63619">
        <ele>121.3</ele>
        <time>2021-05-17T13:12:17.000Z</time>
      </trkpt>
      <trkpt lat="44.88525" lon="0.6362">
        <ele>121.3</ele>
        <time>2021-05-17T13:12:18.000Z</time>
      </trkpt>
      <trkpt lat="44.88522" lon="0.63621">
        <ele>121.3</ele>
        <time>2021-05-17T13:12:19.000Z</time>
      </trkpt>
      <trkpt lat="44.88518" lon="0.63621">
        <ele>121.3</ele>
        <time>2021-05-17T13:12:20.000Z</time>
      </trkpt>
      <trkpt lat="44.88514" lon="0.63622">
        <ele>121.4</ele>
        <time>2021-05-17T13:12:21.000Z</time>
      </trkpt>
      <trkpt lat="44.8851" lon="0.63623">
        <ele>121.5</ele>
        <time>2021-05-17T13:12:22.000Z</time>
      </trkpt>
      <trkpt lat="44.88506" lon="0.63623">
        <ele>121.6</ele>
        <time>2021-05-17T13:12:23.000Z</time>
      </trkpt>
      <trkpt lat="44.88504" lon="0.63624">
        <ele>121.6</ele>
        <time>2021-05-17T13:12:24.000Z</time>
      </trkpt>
      <trkpt lat="44.88501" lon="0.63623">
        <ele>121.7</ele>
        <time>2021-05-17T13:12:25.000Z</time>
      </trkpt>
      <trkpt lat="44.88497" lon="0.63623">
        <ele>121.8</ele>
        <time>2021-05-17T13:12:26.000Z</time>
      </trkpt>
      <trkpt lat="44.88493" lon="0.63623">
        <ele>121.9</ele>
        <time>2021-05-17T13:12:27.000Z</time>
      </trkpt>
      <trkpt lat="44.88488" lon="0.63623">
        <ele>122</ele>
        <time>2021-05-17T13:12:28.000Z</time>
      </trkpt>
      <trkpt lat="44.88485" lon="0.63622">
        <ele>122</ele>
        <time>2021-05-17T13:12:29.000Z</time>
      </trkpt>
      <trkpt lat="44.8848" lon="0.63623">
        <ele>122.1</ele>
        <time>2021-05-17T13:12:30.000Z</time>
      </trkpt>
      <trkpt lat="44.88476" lon="0.63623">
        <ele>122.1</ele>
        <time>2021-05-17T13:12:31.000Z</time>
      </trkpt>
      <trkpt lat="44.88473" lon="0.63624">
        <ele>122.2</ele>
        <time>2021-05-17T13:12:33.000Z</time>
      </trkpt>
      <trkpt lat="44.88468" lon="0.63622">
        <ele>122.2</ele>
        <time>2021-05-17T13:12:34.000Z</time>
      </trkpt>
      <trkpt lat="44.88465" lon="0.63622">
        <ele>122.2</ele>
        <time>2021-05-17T13:12:35.000Z</time>
      </trkpt>
      <trkpt lat="44.8846" lon="0.63622">
        <ele>122.2</ele>
        <time>2021-05-17T13:12:36.000Z</time>
      </trkpt>
      <trkpt lat="44.88456" lon="0.63622">
        <ele>122.3</ele>
        <time>2021-05-17T13:12:37.000Z</time>
      </trkpt>
      <trkpt lat="44.88451" lon="0.63622">
        <ele>122.3</ele>
        <time>2021-05-17T13:12:38.000Z</time>
      </trkpt>
      <trkpt lat="44.88447" lon="0.63622">
        <ele>122.4</ele>
        <time>2021-05-17T13:12:39.000Z</time>
      </trkpt>
      <trkpt lat="44.88443" lon="0.63624">
        <ele>122.4</ele>
        <time>2021-05-17T13:12:40.000Z</time>
      </trkpt>
      <trkpt lat="44.88438" lon="0.63625">
        <ele>122.5</ele>
        <time>2021-05-17T13:12:41.000Z</time>
      </trkpt>
      <trkpt lat="44.88434" lon="0.63627">
        <ele>122.6</ele>
        <time>2021-05-17T13:12:42.000Z</time>
      </trkpt>
      <trkpt lat="44.88429" lon="0.63628">
        <ele>122.6</ele>
        <time>2021-05-17T13:12:43.000Z</time>
      </trkpt>
      <trkpt lat="44.88426" lon="0.63629">
        <ele>122.6</ele>
        <time>2021-05-17T13:12:44.000Z</time>
      </trkpt>
      <trkpt lat="44.88422" lon="0.63629">
        <ele>122.7</ele>
        <time>2021-05-17T13:12:45.000Z</time>
      </trkpt>
      <trkpt lat="44.88418" lon="0.63629">
        <ele>122.7</ele>
        <time>2021-05-17T13:12:46.000Z</time>
      </trkpt>
      <trkpt lat="44.88415" lon="0.6363">
        <ele>122.8</ele>
        <time>2021-05-17T13:12:47.000Z</time>
      </trkpt>
      <trkpt lat="44.88412" lon="0.63629">
        <ele>122.8</ele>
        <time>2021-05-17T13:12:48.000Z</time>
      </trkpt>
      <trkpt lat="44.88408" lon="0.63629">
        <ele>122.9</ele>
        <time>2021-05-17T13:12:49.000Z</time>
      </trkpt>
      <trkpt lat="44.88405" lon="0.63629">
        <ele>122.9</ele>
        <time>2021-05-17T13:12:50.000Z</time>
      </trkpt>
      <trkpt lat="44.88401" lon="0.63631">
        <ele>123</ele>
        <time>2021-05-17T13:12:51.000Z</time>
      </trkpt>
      <trkpt lat="44.88397" lon="0.63632">
        <ele>123.1</ele>
        <time>2021-05-17T13:12:52.000Z</time>
      </trkpt>
      <trkpt lat="44.88393" lon="0.63632">
        <ele>123.2</ele>
        <time>2021-05-17T13:12:53.000Z</time>
      </trkpt>
      <trkpt lat="44.88389" lon="0.63631">
        <ele>123.2</ele>
        <time>2021-05-17T13:12:54.000Z</time>
      </trkpt>
      <trkpt lat="44.88385" lon="0.63631">
        <ele>123.3</ele>
        <time>2021-05-17T13:12:55.000Z</time>
      </trkpt>
      <trkpt lat="44.88382" lon="0.63631">
        <ele>123.4</ele>
        <time>2021-05-17T13:12:56.000Z</time>
      </trkpt>
      <trkpt lat="44.88378" lon="0.63631">
        <ele>123.4</ele>
        <time>2021-05-17T13:12:57.000Z</time>
      </trkpt>
      <trkpt lat="44.88374" lon="0.63631">
        <ele>123.5</ele>
        <time>2021-05-17T13:12:58.000Z</time>
      </trkpt>
      <trkpt lat="44.88371" lon="0.63631">
        <ele>123.5</ele>
        <time>2021-05-17T13:12:59.000Z</time>
      </trkpt>
      <trkpt lat="44.88367" lon="0.6363">
        <ele>123.6</ele>
        <time>2021-05-17T13:13:00.000Z</time>
      </trkpt>
      <trkpt lat="44.8836" lon="0.6363">
        <ele>123.7</ele>
        <time>2021-05-17T13:13:01.000Z</time>
      </trkpt>
      <trkpt lat="44.88357" lon="0.63629">
        <ele>123.8</ele>
        <time>2021-05-17T13:13:02.000Z</time>
      </trkpt>
      <trkpt lat="44.88353" lon="0.63629">
        <ele>124</ele>
        <time>2021-05-17T13:13:03.000Z</time>
      </trkpt>
      <trkpt lat="44.88349" lon="0.6363">
        <ele>124.1</ele>
        <time>2021-05-17T13:13:04.000Z</time>
      </trkpt>
      <trkpt lat="44.88345" lon="0.6363">
        <ele>124.3</ele>
        <time>2021-05-17T13:13:05.000Z</time>
      </trkpt>
      <trkpt lat="44.88341" lon="0.6363">
        <ele>124.4</ele>
        <time>2021-05-17T13:13:06.000Z</time>
      </trkpt>
      <trkpt lat="44.88337" lon="0.6363">
        <ele>124.6</ele>
        <time>2021-05-17T13:13:07.000Z</time>
      </trkpt>
      <trkpt lat="44.88333" lon="0.63631">
        <ele>124.7</ele>
        <time>2021-05-17T13:13:08.000Z</time>
      </trkpt>
      <trkpt lat="44.88329" lon="0.63631">
        <ele>124.8</ele>
        <time>2021-05-17T13:13:09.000Z</time>
      </trkpt>
      <trkpt lat="44.88324" lon="0.63632">
        <ele>125</ele>
        <time>2021-05-17T13:13:10.000Z</time>
      </trkpt>
      <trkpt lat="44.8832" lon="0.63633">
        <ele>125.1</ele>
        <time>2021-05-17T13:13:11.000Z</time>
      </trkpt>
      <trkpt lat="44.88316" lon="0.63632">
        <ele>125.2</ele>
        <time>2021-05-17T13:13:12.000Z</time>
      </trkpt>
      <trkpt lat="44.88312" lon="0.63634">
        <ele>125.4</ele>
        <time>2021-05-17T13:13:13.000Z</time>
      </trkpt>
      <trkpt lat="44.88308" lon="0.63634">
        <ele>125.5</ele>
        <time>2021-05-17T13:13:14.000Z</time>
      </trkpt>
      <trkpt lat="44.88305" lon="0.63636">
        <ele>125.6</ele>
        <time>2021-05-17T13:13:15.000Z</time>
      </trkpt>
      <trkpt lat="44.88302" lon="0.63638">
        <ele>125.7</ele>
        <time>2021-05-17T13:13:16.000Z</time>
      </trkpt>
      <trkpt lat="44.883" lon="0.63641">
        <ele>125.7</ele>
        <time>2021-05-17T13:13:17.000Z</time>
      </trkpt>
      <trkpt lat="44.88298" lon="0.63646">
        <ele>125.9</ele>
        <time>2021-05-17T13:13:18.000Z</time>
      </trkpt>
      <trkpt lat="44.88297" lon="0.63651">
        <ele>126</ele>
        <time>2021-05-17T13:13:19.000Z</time>
      </trkpt>
      <trkpt lat="44.88294" lon="0.63655">
        <ele>126</ele>
        <time>2021-05-17T13:13:20.000Z</time>
      </trkpt>
      <trkpt lat="44.88293" lon="0.6366">
        <ele>126.2</ele>
        <time>2021-05-17T13:13:21.000Z</time>
      </trkpt>
      <trkpt lat="44.88293" lon="0.63662">
        <ele>126.1</ele>
        <time>2021-05-17T13:13:22.000Z</time>
      </trkpt>
      <trkpt lat="44.88292" lon="0.63664">
        <ele>126.1</ele>
        <time>2021-05-17T13:13:23.000Z</time>
      </trkpt>
      <trkpt lat="44.88291" lon="0.63667">
        <ele>126.1</ele>
        <time>2021-05-17T13:13:24.000Z</time>
      </trkpt>
      <trkpt lat="44.88291" lon="0.63672">
        <ele>126.3</ele>
        <time>2021-05-17T13:13:25.000Z</time>
      </trkpt>
      <trkpt lat="44.8829" lon="0.63674">
        <ele>126.4</ele>
        <time>2021-05-17T13:13:26.000Z</time>
      </trkpt>
      <trkpt lat="44.8829" lon="0.63675">
        <ele>126.3</ele>
        <time>2021-05-17T13:13:27.000Z</time>
      </trkpt>
      <trkpt lat="44.8829" lon="0.63679">
        <ele>126.4</ele>
        <time>2021-05-17T13:13:28.000Z</time>
      </trkpt>
      <trkpt lat="44.88289" lon="0.63683">
        <ele>126.5</ele>
        <time>2021-05-17T13:13:29.000Z</time>
      </trkpt>
      <trkpt lat="44.88288" lon="0.63688">
        <ele>126.7</ele>
        <time>2021-05-17T13:13:30.000Z</time>
      </trkpt>
      <trkpt lat="44.88287" lon="0.6369">
        <ele>126.7</ele>
        <time>2021-05-17T13:13:31.000Z</time>
      </trkpt>
      <trkpt lat="44.88284" lon="0.63694">
        <ele>127</ele>
        <time>2021-05-17T13:13:32.000Z</time>
      </trkpt>
      <trkpt lat="44.88282" lon="0.63698">
        <ele>127.4</ele>
        <time>2021-05-17T13:13:33.000Z</time>
      </trkpt>
      <trkpt lat="44.8828" lon="0.63703">
        <ele>127.5</ele>
        <time>2021-05-17T13:13:34.000Z</time>
      </trkpt>
      <trkpt lat="44.88277" lon="0.63708">
        <ele>128.1</ele>
        <time>2021-05-17T13:13:35.000Z</time>
      </trkpt>
      <trkpt lat="44.88277" lon="0.63716">
        <ele>128.3</ele>
        <time>2021-05-17T13:13:36.000Z</time>
      </trkpt>
      <trkpt lat="44.88275" lon="0.6372">
        <ele>128.7</ele>
        <time>2021-05-17T13:13:37.000Z</time>
      </trkpt>
      <trkpt lat="44.88273" lon="0.63724">
        <ele>129</ele>
        <time>2021-05-17T13:13:38.000Z</time>
      </trkpt>
      <trkpt lat="44.88269" lon="0.63727">
        <ele>129.4</ele>
        <time>2021-05-17T13:13:39.000Z</time>
      </trkpt>
      <trkpt lat="44.88265" lon="0.63729">
        <ele>129.6</ele>
        <time>2021-05-17T13:13:40.000Z</time>
      </trkpt>
      <trkpt lat="44.88261" lon="0.63729">
        <ele>129.5</ele>
        <time>2021-05-17T13:13:41.000Z</time>
      </trkpt>
      <trkpt lat="44.88256" lon="0.63728">
        <ele>129.5</ele>
        <time>2021-05-17T13:13:42.000Z</time>
      </trkpt>
      <trkpt lat="44.88253" lon="0.6373">
        <ele>129.7</ele>
        <time>2021-05-17T13:13:43.000Z</time>
      </trkpt>
      <trkpt lat="44.8825" lon="0.63732">
        <ele>129.8</ele>
        <time>2021-05-17T13:13:44.000Z</time>
      </trkpt>
      <trkpt lat="44.88249" lon="0.63733">
        <ele>129.8</ele>
        <time>2021-05-17T13:13:45.000Z</time>
      </trkpt>
      <trkpt lat="44.88246" lon="0.63736">
        <ele>130</ele>
        <time>2021-05-17T13:13:46.000Z</time>
      </trkpt>
      <trkpt lat="44.88246" lon="0.63737">
        <ele>129.9</ele>
        <time>2021-05-17T13:13:47.000Z</time>
      </trkpt>
      <trkpt lat="44.88245" lon="0.63738">
        <ele>130.1</ele>
        <time>2021-05-17T13:13:48.000Z</time>
      </trkpt>
      <trkpt lat="44.88244" lon="0.6374">
        <ele>130.1</ele>
        <time>2021-05-17T13:13:49.000Z</time>
      </trkpt>
      <trkpt lat="44.88243" lon="0.63741">
        <ele>130.1</ele>
        <time>2021-05-17T13:13:50.000Z</time>
      </trkpt>
      <trkpt lat="44.88241" lon="0.6374">
        <ele>130.1</ele>
        <time>2021-05-17T13:13:51.000Z</time>
      </trkpt>
      <trkpt lat="44.8824" lon="0.6374">
        <ele>130.1</ele>
        <time>2021-05-17T13:13:52.000Z</time>
      </trkpt>
      <trkpt lat="44.88239" lon="0.6374">
        <ele>130.1</ele>
        <time>2021-05-17T13:13:53.000Z</time>
      </trkpt>
      <trkpt lat="44.88236" lon="0.63741">
        <ele>130.1</ele>
        <time>2021-05-17T13:13:54.000Z</time>
      </trkpt>
      <trkpt lat="44.88235" lon="0.63741">
        <ele>130.1</ele>
        <time>2021-05-17T13:13:55.000Z</time>
      </trkpt>
      <trkpt lat="44.88235" lon="0.63741">
        <ele>130.1</ele>
        <time>2021-05-17T13:13:56.000Z</time>
      </trkpt>
      <trkpt lat="44.88235" lon="0.63741">
        <ele>130.1</ele>
        <time>2021-05-17T13:13:57.000Z</time>
      </trkpt>
      <trkpt lat="44.88233" lon="0.63741">
        <ele>130.1</ele>
        <time>2021-05-17T13:13:58.000Z</time>
      </trkpt>
      <trkpt lat="44.88232" lon="0.63741">
        <ele>130.1</ele>
        <time>2021-05-17T13:13:59.000Z</time>
      </trkpt>
      <trkpt lat="44.88231" lon="0.63742">
        <ele>130.1</ele>
        <time>2021-05-17T13:14:00.000Z</time>
      </trkpt>
      <trkpt lat="44.88231" lon="0.63741">
        <ele>130.1</ele>
        <time>2021-05-17T13:14:01.000Z</time>
      </trkpt>
      <trkpt lat="44.88231" lon="0.63742">
        <ele>130</ele>
        <time>2021-05-17T13:14:02.000Z</time>
      </trkpt>
      <trkpt lat="44.8823" lon="0.63741">
        <ele>130</ele>
        <time>2021-05-17T13:14:03.000Z</time>
      </trkpt>
      <trkpt lat="44.8823" lon="0.63742">
        <ele>130.1</ele>
        <time>2021-05-17T13:14:04.000Z</time>
      </trkpt>
      <trkpt lat="44.88229" lon="0.63742">
        <ele>130.2</ele>
        <time>2021-05-17T13:14:05.000Z</time>
      </trkpt>
      <trkpt lat="44.88229" lon="0.63742">
        <ele>130</ele>
        <time>2021-05-17T13:14:06.000Z</time>
      </trkpt>
      <trkpt lat="44.88228" lon="0.63742">
        <ele>130</ele>
        <time>2021-05-17T13:14:07.000Z</time>
      </trkpt>
      <trkpt lat="44.88227" lon="0.63742">
        <ele>130</ele>
        <time>2021-05-17T13:14:08.000Z</time>
      </trkpt>
      <trkpt lat="44.88227" lon="0.63742">
        <ele>130</ele>
        <time>2021-05-17T13:14:09.000Z</time>
      </trkpt>
      <trkpt lat="44.88227" lon="0.63741">
        <ele>130</ele>
        <time>2021-05-17T13:14:10.000Z</time>
      </trkpt>
      <trkpt lat="44.88227" lon="0.63741">
        <ele>130</ele>
        <time>2021-05-17T13:14:11.000Z</time>
      </trkpt>
      <trkpt lat="44.88227" lon="0.63741">
        <ele>130</ele>
        <time>2021-05-17T13:14:12.000Z</time>
      </trkpt>
      <trkpt lat="44.88228" lon="0.63741">
        <ele>129.9</ele>
        <time>2021-05-17T13:14:13.000Z</time>
      </trkpt>
      <trkpt lat="44.88229" lon="0.63741">
        <ele>129.9</ele>
        <time>2021-05-17T13:14:14.000Z</time>
      </trkpt>
      <trkpt lat="44.88229" lon="0.6374">
        <ele>129.9</ele>
        <time>2021-05-17T13:14:15.000Z</time>
      </trkpt>
      <trkpt lat="44.8823" lon="0.6374">
        <ele>129.9</ele>
        <time>2021-05-17T13:14:16.000Z</time>
      </trkpt>
      <trkpt lat="44.8823" lon="0.6374">
        <ele>129.9</ele>
        <time>2021-05-17T13:14:17.000Z</time>
      </trkpt>
      <trkpt lat="44.88233" lon="0.63742">
        <ele>129.8</ele>
        <time>2021-05-17T13:14:18.000Z</time>
      </trkpt>
      <trkpt lat="44.88234" lon="0.63743">
        <ele>130</ele>
        <time>2021-05-17T13:14:19.000Z</time>
      </trkpt>
      <trkpt lat="44.88235" lon="0.63748">
        <ele>130.1</ele>
        <time>2021-05-17T13:14:20.000Z</time>
      </trkpt>
      <trkpt lat="44.88236" lon="0.6375">
        <ele>130.1</ele>
        <time>2021-05-17T13:14:21.000Z</time>
      </trkpt>
      <trkpt lat="44.88235" lon="0.63752">
        <ele>130.2</ele>
        <time>2021-05-17T13:14:22.000Z</time>
      </trkpt>
      <trkpt lat="44.88235" lon="0.63755">
        <ele>130.3</ele>
        <time>2021-05-17T13:14:23.000Z</time>
      </trkpt>
      <trkpt lat="44.88236" lon="0.63759">
        <ele>130.3</ele>
        <time>2021-05-17T13:14:24.000Z</time>
      </trkpt>
      <trkpt lat="44.88236" lon="0.63763">
        <ele>130.4</ele>
        <time>2021-05-17T13:14:25.000Z</time>
      </trkpt>
      <trkpt lat="44.88237" lon="0.63768">
        <ele>130.5</ele>
        <time>2021-05-17T13:14:26.000Z</time>
      </trkpt>
      <trkpt lat="44.88238" lon="0.63772">
        <ele>130.6</ele>
        <time>2021-05-17T13:14:27.000Z</time>
      </trkpt>
      <trkpt lat="44.88239" lon="0.63773">
        <ele>130.6</ele>
        <time>2021-05-17T13:14:28.000Z</time>
      </trkpt>
      <trkpt lat="44.8824" lon="0.63776">
        <ele>130.6</ele>
        <time>2021-05-17T13:14:29.000Z</time>
      </trkpt>
      <trkpt lat="44.88241" lon="0.63778">
        <ele>130.7</ele>
        <time>2021-05-17T13:14:30.000Z</time>
      </trkpt>
      <trkpt lat="44.88241" lon="0.63781">
        <ele>130.7</ele>
        <time>2021-05-17T13:14:31.000Z</time>
      </trkpt>
      <trkpt lat="44.88241" lon="0.63785">
        <ele>130.8</ele>
        <time>2021-05-17T13:14:32.000Z</time>
      </trkpt>
      <trkpt lat="44.88243" lon="0.63788">
        <ele>130.8</ele>
        <time>2021-05-17T13:14:33.000Z</time>
      </trkpt>
      <trkpt lat="44.88244" lon="0.63789">
        <ele>130.8</ele>
        <time>2021-05-17T13:14:34.000Z</time>
      </trkpt>
      <trkpt lat="44.88246" lon="0.63788">
        <ele>130.7</ele>
        <time>2021-05-17T13:14:35.000Z</time>
      </trkpt>
      <trkpt lat="44.88248" lon="0.63788">
        <ele>130.7</ele>
        <time>2021-05-17T13:14:36.000Z</time>
      </trkpt>
      <trkpt lat="44.88249" lon="0.63788">
        <ele>130.7</ele>
        <time>2021-05-17T13:14:37.000Z</time>
      </trkpt>
      <trkpt lat="44.8825" lon="0.63792">
        <ele>130.8</ele>
        <time>2021-05-17T13:14:39.000Z</time>
      </trkpt>
      <trkpt lat="44.88251" lon="0.63793">
        <ele>130.7</ele>
        <time>2021-05-17T13:14:40.000Z</time>
      </trkpt>
      <trkpt lat="44.88252" lon="0.63795">
        <ele>130.8</ele>
        <time>2021-05-17T13:14:41.000Z</time>
      </trkpt>
      <trkpt lat="44.88254" lon="0.63799">
        <ele>130.9</ele>
        <time>2021-05-17T13:14:42.000Z</time>
      </trkpt>
      <trkpt lat="44.88255" lon="0.63801">
        <ele>130.8</ele>
        <time>2021-05-17T13:14:43.000Z</time>
      </trkpt>
      <trkpt lat="44.88256" lon="0.63806">
        <ele>130.9</ele>
        <time>2021-05-17T13:14:44.000Z</time>
      </trkpt>
      <trkpt lat="44.88258" lon="0.6381">
        <ele>131</ele>
        <time>2021-05-17T13:14:45.000Z</time>
      </trkpt>
      <trkpt lat="44.8826" lon="0.63815">
        <ele>131.1</ele>
        <time>2021-05-17T13:14:46.000Z</time>
      </trkpt>
      <trkpt lat="44.88262" lon="0.63821">
        <ele>131.2</ele>
        <time>2021-05-17T13:14:47.000Z</time>
      </trkpt>
      <trkpt lat="44.88262" lon="0.63827">
        <ele>131.2</ele>
        <time>2021-05-17T13:14:48.000Z</time>
      </trkpt>
      <trkpt lat="44.88262" lon="0.63831">
        <ele>131.3</ele>
        <time>2021-05-17T13:14:49.000Z</time>
      </trkpt>
      <trkpt lat="44.88263" lon="0.63835">
        <ele>131.3</ele>
        <time>2021-05-17T13:14:50.000Z</time>
      </trkpt>
      <trkpt lat="44.88264" lon="0.63837">
        <ele>131.2</ele>
        <time>2021-05-17T13:14:51.000Z</time>
      </trkpt>
      <trkpt lat="44.88265" lon="0.63841">
        <ele>131.2</ele>
        <time>2021-05-17T13:14:52.000Z</time>
      </trkpt>
      <trkpt lat="44.88265" lon="0.63842">
        <ele>131.2</ele>
        <time>2021-05-17T13:14:53.000Z</time>
      </trkpt>
      <trkpt lat="44.88265" lon="0.63846">
        <ele>131.2</ele>
        <time>2021-05-17T13:14:54.000Z</time>
      </trkpt>
      <trkpt lat="44.88264" lon="0.63851">
        <ele>131.2</ele>
        <time>2021-05-17T13:14:55.000Z</time>
      </trkpt>
      <trkpt lat="44.88262" lon="0.63855">
        <ele>131.2</ele>
        <time>2021-05-17T13:14:56.000Z</time>
      </trkpt>
      <trkpt lat="44.8826" lon="0.63858">
        <ele>131.2</ele>
        <time>2021-05-17T13:14:57.000Z</time>
      </trkpt>
      <trkpt lat="44.88259" lon="0.6386">
        <ele>131.1</ele>
        <time>2021-05-17T13:14:58.000Z</time>
      </trkpt>
      <trkpt lat="44.88256" lon="0.63863">
        <ele>131.2</ele>
        <time>2021-05-17T13:14:59.000Z</time>
      </trkpt>
      <trkpt lat="44.88253" lon="0.63867">
        <ele>131.2</ele>
        <time>2021-05-17T13:15:00.000Z</time>
      </trkpt>
      <trkpt lat="44.88252" lon="0.63868">
        <ele>131.2</ele>
        <time>2021-05-17T13:15:01.000Z</time>
      </trkpt>
      <trkpt lat="44.8825" lon="0.63871">
        <ele>131.3</ele>
        <time>2021-05-17T13:15:02.000Z</time>
      </trkpt>
      <trkpt lat="44.88249" lon="0.63872">
        <ele>131.3</ele>
        <time>2021-05-17T13:15:03.000Z</time>
      </trkpt>
      <trkpt lat="44.88248" lon="0.63878">
        <ele>131.4</ele>
        <time>2021-05-17T13:15:04.000Z</time>
      </trkpt>
      <trkpt lat="44.88248" lon="0.6388">
        <ele>131.4</ele>
        <time>2021-05-17T13:15:05.000Z</time>
      </trkpt>
      <trkpt lat="44.8825" lon="0.63884">
        <ele>131.3</ele>
        <time>2021-05-17T13:15:06.000Z</time>
      </trkpt>
      <trkpt lat="44.88251" lon="0.63885">
        <ele>131.3</ele>
        <time>2021-05-17T13:15:07.000Z</time>
      </trkpt>
      <trkpt lat="44.88253" lon="0.63887">
        <ele>131.2</ele>
        <time>2021-05-17T13:15:08.000Z</time>
      </trkpt>
      <trkpt lat="44.88256" lon="0.63888">
        <ele>131.2</ele>
        <time>2021-05-17T13:15:09.000Z</time>
      </trkpt>
      <trkpt lat="44.88259" lon="0.63892">
        <ele>131.2</ele>
        <time>2021-05-17T13:15:10.000Z</time>
      </trkpt>
      <trkpt lat="44.8826" lon="0.63892">
        <ele>131.1</ele>
        <time>2021-05-17T13:15:11.000Z</time>
      </trkpt>
      <trkpt lat="44.88263" lon="0.63894">
        <ele>131.1</ele>
        <time>2021-05-17T13:15:12.000Z</time>
      </trkpt>
      <trkpt lat="44.88264" lon="0.63894">
        <ele>131.1</ele>
        <time>2021-05-17T13:15:13.000Z</time>
      </trkpt>
      <trkpt lat="44.88267" lon="0.63896">
        <ele>131.1</ele>
        <time>2021-05-17T13:15:14.000Z</time>
      </trkpt>
      <trkpt lat="44.8827" lon="0.63898">
        <ele>131</ele>
        <time>2021-05-17T13:15:15.000Z</time>
      </trkpt>
      <trkpt lat="44.88273" lon="0.639">
        <ele>131</ele>
        <time>2021-05-17T13:15:16.000Z</time>
      </trkpt>
      <trkpt lat="44.88275" lon="0.63901">
        <ele>131</ele>
        <time>2021-05-17T13:15:17.000Z</time>
      </trkpt>
      <trkpt lat="44.88278" lon="0.63903">
        <ele>131</ele>
        <time>2021-05-17T13:15:18.000Z</time>
      </trkpt>
      <trkpt lat="44.88281" lon="0.63906">
        <ele>131</ele>
        <time>2021-05-17T13:15:19.000Z</time>
      </trkpt>
      <trkpt lat="44.88284" lon="0.63909">
        <ele>131</ele>
        <time>2021-05-17T13:15:20.000Z</time>
      </trkpt>
      <trkpt lat="44.88288" lon="0.63913">
        <ele>131</ele>
        <time>2021-05-17T13:15:21.000Z</time>
      </trkpt>
      <trkpt lat="44.88292" lon="0.63916">
        <ele>131.1</ele>
        <time>2021-05-17T13:15:22.000Z</time>
      </trkpt>
      <trkpt lat="44.88295" lon="0.63918">
        <ele>131.1</ele>
        <time>2021-05-17T13:15:23.000Z</time>
      </trkpt>
      <trkpt lat="44.88298" lon="0.6392">
        <ele>131.1</ele>
        <time>2021-05-17T13:15:24.000Z</time>
      </trkpt>
      <trkpt lat="44.88301" lon="0.63924">
        <ele>131.1</ele>
        <time>2021-05-17T13:15:25.000Z</time>
      </trkpt>
      <trkpt lat="44.88305" lon="0.6393">
        <ele>131.2</ele>
        <time>2021-05-17T13:15:26.000Z</time>
      </trkpt>
      <trkpt lat="44.88309" lon="0.63934">
        <ele>131.3</ele>
        <time>2021-05-17T13:15:27.000Z</time>
      </trkpt>
      <trkpt lat="44.88313" lon="0.6394">
        <ele>131.3</ele>
        <time>2021-05-17T13:15:28.000Z</time>
      </trkpt>
      <trkpt lat="44.88316" lon="0.63945">
        <ele>131.4</ele>
        <time>2021-05-17T13:15:29.000Z</time>
      </trkpt>
      <trkpt lat="44.88319" lon="0.63952">
        <ele>131.5</ele>
        <time>2021-05-17T13:15:30.000Z</time>
      </trkpt>
      <trkpt lat="44.88322" lon="0.63957">
        <ele>131.6</ele>
        <time>2021-05-17T13:15:31.000Z</time>
      </trkpt>
      <trkpt lat="44.88324" lon="0.63963">
        <ele>131.7</ele>
        <time>2021-05-17T13:15:32.000Z</time>
      </trkpt>
      <trkpt lat="44.88326" lon="0.63969">
        <ele>131.8</ele>
        <time>2021-05-17T13:15:33.000Z</time>
      </trkpt>
      <trkpt lat="44.88328" lon="0.63975">
        <ele>131.9</ele>
        <time>2021-05-17T13:15:34.000Z</time>
      </trkpt>
      <trkpt lat="44.88331" lon="0.6398">
        <ele>131.9</ele>
        <time>2021-05-17T13:15:35.000Z</time>
      </trkpt>
      <trkpt lat="44.88334" lon="0.63986">
        <ele>132</ele>
        <time>2021-05-17T13:15:36.000Z</time>
      </trkpt>
      <trkpt lat="44.88336" lon="0.63991">
        <ele>132.1</ele>
        <time>2021-05-17T13:15:37.000Z</time>
      </trkpt>
      <trkpt lat="44.88338" lon="0.63997">
        <ele>132.2</ele>
        <time>2021-05-17T13:15:38.000Z</time>
      </trkpt>
      <trkpt lat="44.88341" lon="0.64004">
        <ele>132.3</ele>
        <time>2021-05-17T13:15:39.000Z</time>
      </trkpt>
      <trkpt lat="44.88343" lon="0.6401">
        <ele>132.4</ele>
        <time>2021-05-17T13:15:40.000Z</time>
      </trkpt>
      <trkpt lat="44.88345" lon="0.64017">
        <ele>132.5</ele>
        <time>2021-05-17T13:15:41.000Z</time>
      </trkpt>
      <trkpt lat="44.88347" lon="0.64022">
        <ele>132.6</ele>
        <time>2021-05-17T13:15:42.000Z</time>
      </trkpt>
      <trkpt lat="44.88349" lon="0.64027">
        <ele>132.7</ele>
        <time>2021-05-17T13:15:43.000Z</time>
      </trkpt>
      <trkpt lat="44.88351" lon="0.64033">
        <ele>132.8</ele>
        <time>2021-05-17T13:15:44.000Z</time>
      </trkpt>
      <trkpt lat="44.88353" lon="0.64038">
        <ele>132.9</ele>
        <time>2021-05-17T13:15:45.000Z</time>
      </trkpt>
      <trkpt lat="44.88354" lon="0.64043">
        <ele>133</ele>
        <time>2021-05-17T13:15:46.000Z</time>
      </trkpt>
      <trkpt lat="44.88355" lon="0.64045">
        <ele>133.1</ele>
        <time>2021-05-17T13:15:47.000Z</time>
      </trkpt>
      <trkpt lat="44.88357" lon="0.64049">
        <ele>133.1</ele>
        <time>2021-05-17T13:15:48.000Z</time>
      </trkpt>
      <trkpt lat="44.88358" lon="0.64053">
        <ele>133.2</ele>
        <time>2021-05-17T13:15:49.000Z</time>
      </trkpt>
      <trkpt lat="44.88359" lon="0.64057">
        <ele>133.3</ele>
        <time>2021-05-17T13:15:50.000Z</time>
      </trkpt>
      <trkpt lat="44.88361" lon="0.64061">
        <ele>133.3</ele>
        <time>2021-05-17T13:15:51.000Z</time>
      </trkpt>
      <trkpt lat="44.88363" lon="0.64065">
        <ele>133.4</ele>
        <time>2021-05-17T13:15:52.000Z</time>
      </trkpt>
      <trkpt lat="44.88365" lon="0.64071">
        <ele>133.5</ele>
        <time>2021-05-17T13:15:53.000Z</time>
      </trkpt>
      <trkpt lat="44.88367" lon="0.64074">
        <ele>133.6</ele>
        <time>2021-05-17T13:15:54.000Z</time>
      </trkpt>
      <trkpt lat="44.88368" lon="0.64079">
        <ele>133.6</ele>
        <time>2021-05-17T13:15:55.000Z</time>
      </trkpt>
      <trkpt lat="44.8837" lon="0.64084">
        <ele>133.6</ele>
        <time>2021-05-17T13:15:56.000Z</time>
      </trkpt>
      <trkpt lat="44.88372" lon="0.64091">
        <ele>133.6</ele>
        <time>2021-05-17T13:15:57.000Z</time>
      </trkpt>
      <trkpt lat="44.88374" lon="0.64098">
        <ele>133.6</ele>
        <time>2021-05-17T13:15:58.000Z</time>
      </trkpt>
      <trkpt lat="44.88378" lon="0.64104">
        <ele>133.5</ele>
        <time>2021-05-17T13:15:59.000Z</time>
      </trkpt>
      <trkpt lat="44.88381" lon="0.64112">
        <ele>133.5</ele>
        <time>2021-05-17T13:16:00.000Z</time>
      </trkpt>
      <trkpt lat="44.88383" lon="0.64121">
        <ele>133.4</ele>
        <time>2021-05-17T13:16:01.000Z</time>
      </trkpt>
      <trkpt lat="44.88385" lon="0.64125">
        <ele>133.4</ele>
        <time>2021-05-17T13:16:02.000Z</time>
      </trkpt>
      <trkpt lat="44.88388" lon="0.64131">
        <ele>133.4</ele>
        <time>2021-05-17T13:16:03.000Z</time>
      </trkpt>
      <trkpt lat="44.8839" lon="0.6414">
        <ele>133.3</ele>
        <time>2021-05-17T13:16:04.000Z</time>
      </trkpt>
      <trkpt lat="44.88393" lon="0.64148">
        <ele>133.3</ele>
        <time>2021-05-17T13:16:05.000Z</time>
      </trkpt>
      <trkpt lat="44.88395" lon="0.64154">
        <ele>133.3</ele>
        <time>2021-05-17T13:16:06.000Z</time>
      </trkpt>
      <trkpt lat="44.88398" lon="0.64162">
        <ele>133.3</ele>
        <time>2021-05-17T13:16:07.000Z</time>
      </trkpt>
      <trkpt lat="44.88401" lon="0.64168">
        <ele>133.3</ele>
        <time>2021-05-17T13:16:08.000Z</time>
      </trkpt>
      <trkpt lat="44.88403" lon="0.64172">
        <ele>133.2</ele>
        <time>2021-05-17T13:16:09.000Z</time>
      </trkpt>
      <trkpt lat="44.88405" lon="0.64175">
        <ele>133.2</ele>
        <time>2021-05-17T13:16:10.000Z</time>
      </trkpt>
      <trkpt lat="44.88408" lon="0.64178">
        <ele>133.2</ele>
        <time>2021-05-17T13:16:11.000Z</time>
      </trkpt>
      <trkpt lat="44.8841" lon="0.64181">
        <ele>133.2</ele>
        <time>2021-05-17T13:16:12.000Z</time>
      </trkpt>
      <trkpt lat="44.88412" lon="0.64184">
        <ele>133.2</ele>
        <time>2021-05-17T13:16:13.000Z</time>
      </trkpt>
      <trkpt lat="44.88415" lon="0.64187">
        <ele>133.1</ele>
        <time>2021-05-17T13:16:14.000Z</time>
      </trkpt>
      <trkpt lat="44.88418" lon="0.64191">
        <ele>133.1</ele>
        <time>2021-05-17T13:16:15.000Z</time>
      </trkpt>
      <trkpt lat="44.88418" lon="0.64196">
        <ele>133.2</ele>
        <time>2021-05-17T13:16:16.000Z</time>
      </trkpt>
      <trkpt lat="44.88418" lon="0.64197">
        <ele>133.2</ele>
        <time>2021-05-17T13:16:17.000Z</time>
      </trkpt>
      <trkpt lat="44.88417" lon="0.64202">
        <ele>133.3</ele>
        <time>2021-05-17T13:16:18.000Z</time>
      </trkpt>
      <trkpt lat="44.88417" lon="0.64203">
        <ele>133.3</ele>
        <time>2021-05-17T13:16:19.000Z</time>
      </trkpt>
      <trkpt lat="44.88415" lon="0.64206">
        <ele>133.4</ele>
        <time>2021-05-17T13:16:20.000Z</time>
      </trkpt>
      <trkpt lat="44.88414" lon="0.64208">
        <ele>133.4</ele>
        <time>2021-05-17T13:16:21.000Z</time>
      </trkpt>
      <trkpt lat="44.88412" lon="0.64208">
        <ele>133.4</ele>
        <time>2021-05-17T13:16:22.000Z</time>
      </trkpt>
      <trkpt lat="44.88409" lon="0.64209">
        <ele>133.4</ele>
        <time>2021-05-17T13:16:23.000Z</time>
      </trkpt>
      <trkpt lat="44.88408" lon="0.6421">
        <ele>133.4</ele>
        <time>2021-05-17T13:16:24.000Z</time>
      </trkpt>
      <trkpt lat="44.88405" lon="0.64212">
        <ele>133.4</ele>
        <time>2021-05-17T13:16:25.000Z</time>
      </trkpt>
      <trkpt lat="44.88402" lon="0.64213">
        <ele>133.4</ele>
        <time>2021-05-17T13:16:26.000Z</time>
      </trkpt>
      <trkpt lat="44.884" lon="0.64215">
        <ele>133.4</ele>
        <time>2021-05-17T13:16:27.000Z</time>
      </trkpt>
      <trkpt lat="44.88397" lon="0.64216">
        <ele>133.4</ele>
        <time>2021-05-17T13:16:28.000Z</time>
      </trkpt>
      <trkpt lat="44.88395" lon="0.64216">
        <ele>133.4</ele>
        <time>2021-05-17T13:16:29.000Z</time>
      </trkpt>
      <trkpt lat="44.88393" lon="0.64218">
        <ele>133.3</ele>
        <time>2021-05-17T13:16:30.000Z</time>
      </trkpt>
      <trkpt lat="44.88389" lon="0.64219">
        <ele>133.3</ele>
        <time>2021-05-17T13:16:31.000Z</time>
      </trkpt>
      <trkpt lat="44.88387" lon="0.64219">
        <ele>133.3</ele>
        <time>2021-05-17T13:16:32.000Z</time>
      </trkpt>
      <trkpt lat="44.88384" lon="0.64218">
        <ele>133.2</ele>
        <time>2021-05-17T13:16:33.000Z</time>
      </trkpt>
      <trkpt lat="44.8838" lon="0.64219">
        <ele>133.2</ele>
        <time>2021-05-17T13:16:34.000Z</time>
      </trkpt>
      <trkpt lat="44.88377" lon="0.64221">
        <ele>133.1</ele>
        <time>2021-05-17T13:16:35.000Z</time>
      </trkpt>
      <trkpt lat="44.88374" lon="0.64221">
        <ele>133.1</ele>
        <time>2021-05-17T13:16:36.000Z</time>
      </trkpt>
      <trkpt lat="44.88372" lon="0.64222">
        <ele>133.1</ele>
        <time>2021-05-17T13:16:37.000Z</time>
      </trkpt>
      <trkpt lat="44.88369" lon="0.64222">
        <ele>133.1</ele>
        <time>2021-05-17T13:16:38.000Z</time>
      </trkpt>
      <trkpt lat="44.88366" lon="0.64223">
        <ele>133.1</ele>
        <time>2021-05-17T13:16:39.000Z</time>
      </trkpt>
      <trkpt lat="44.88363" lon="0.64224">
        <ele>133.1</ele>
        <time>2021-05-17T13:16:40.000Z</time>
      </trkpt>
      <trkpt lat="44.8836" lon="0.64226">
        <ele>133.1</ele>
        <time>2021-05-17T13:16:41.000Z</time>
      </trkpt>
      <trkpt lat="44.88357" lon="0.6423">
        <ele>133.1</ele>
        <time>2021-05-17T13:16:42.000Z</time>
      </trkpt>
      <trkpt lat="44.88355" lon="0.64234">
        <ele>133.2</ele>
        <time>2021-05-17T13:16:43.000Z</time>
      </trkpt>
      <trkpt lat="44.88354" lon="0.6424">
        <ele>133.3</ele>
        <time>2021-05-17T13:16:45.000Z</time>
      </trkpt>
      <trkpt lat="44.88354" lon="0.64242">
        <ele>133.3</ele>
        <time>2021-05-17T13:16:46.000Z</time>
      </trkpt>
      <trkpt lat="44.88354" lon="0.64244">
        <ele>133.3</ele>
        <time>2021-05-17T13:16:47.000Z</time>
      </trkpt>
      <trkpt lat="44.88356" lon="0.64249">
        <ele>133.6</ele>
        <time>2021-05-17T13:16:48.000Z</time>
      </trkpt>
      <trkpt lat="44.88357" lon="0.64253">
        <ele>133.7</ele>
        <time>2021-05-17T13:16:49.000Z</time>
      </trkpt>
      <trkpt lat="44.88357" lon="0.64254">
        <ele>133.7</ele>
        <time>2021-05-17T13:16:50.000Z</time>
      </trkpt>
      <trkpt lat="44.88358" lon="0.6426">
        <ele>133.9</ele>
        <time>2021-05-17T13:16:51.000Z</time>
      </trkpt>
      <trkpt lat="44.88359" lon="0.64262">
        <ele>134</ele>
        <time>2021-05-17T13:16:52.000Z</time>
      </trkpt>
      <trkpt lat="44.88361" lon="0.64267">
        <ele>134.2</ele>
        <time>2021-05-17T13:16:53.000Z</time>
      </trkpt>
      <trkpt lat="44.88362" lon="0.64267">
        <ele>134.2</ele>
        <time>2021-05-17T13:16:54.000Z</time>
      </trkpt>
      <trkpt lat="44.88364" lon="0.64271">
        <ele>134.3</ele>
        <time>2021-05-17T13:16:55.000Z</time>
      </trkpt>
      <trkpt lat="44.88366" lon="0.64276">
        <ele>134.4</ele>
        <time>2021-05-17T13:16:56.000Z</time>
      </trkpt>
      <trkpt lat="44.88367" lon="0.64278">
        <ele>134.4</ele>
        <time>2021-05-17T13:16:57.000Z</time>
      </trkpt>
      <trkpt lat="44.88368" lon="0.64282">
        <ele>134.5</ele>
        <time>2021-05-17T13:16:58.000Z</time>
      </trkpt>
      <trkpt lat="44.8837" lon="0.64285">
        <ele>134.6</ele>
        <time>2021-05-17T13:16:59.000Z</time>
      </trkpt>
      <trkpt lat="44.88372" lon="0.64287">
        <ele>134.7</ele>
        <time>2021-05-17T13:17:00.000Z</time>
      </trkpt>
      <trkpt lat="44.88372" lon="0.64289">
        <ele>134.7</ele>
        <time>2021-05-17T13:17:01.000Z</time>
      </trkpt>
      <trkpt lat="44.88373" lon="0.64293">
        <ele>134.7</ele>
        <time>2021-05-17T13:17:02.000Z</time>
      </trkpt>
      <trkpt lat="44.88375" lon="0.64297">
        <ele>134.7</ele>
        <time>2021-05-17T13:17:03.000Z</time>
      </trkpt>
      <trkpt lat="44.88377" lon="0.64302">
        <ele>134.7</ele>
        <time>2021-05-17T13:17:04.000Z</time>
      </trkpt>
      <trkpt lat="44.88378" lon="0.64303">
        <ele>134.6</ele>
        <time>2021-05-17T13:17:05.000Z</time>
      </trkpt>
      <trkpt lat="44.8838" lon="0.64307">
        <ele>134.6</ele>
        <time>2021-05-17T13:17:06.000Z</time>
      </trkpt>
      <trkpt lat="44.88381" lon="0.64315">
        <ele>134.5</ele>
        <time>2021-05-17T13:17:07.000Z</time>
      </trkpt>
      <trkpt lat="44.88382" lon="0.64321">
        <ele>134.4</ele>
        <time>2021-05-17T13:17:08.000Z</time>
      </trkpt>
      <trkpt lat="44.88383" lon="0.64327">
        <ele>134.3</ele>
        <time>2021-05-17T13:17:09.000Z</time>
      </trkpt>
      <trkpt lat="44.88384" lon="0.64329">
        <ele>134.3</ele>
        <time>2021-05-17T13:17:10.000Z</time>
      </trkpt>
      <trkpt lat="44.88386" lon="0.64334">
        <ele>134.3</ele>
        <time>2021-05-17T13:17:11.000Z</time>
      </trkpt>
      <trkpt lat="44.88387" lon="0.64336">
        <ele>134.3</ele>
        <time>2021-05-17T13:17:12.000Z</time>
      </trkpt>
      <trkpt lat="44.8839" lon="0.64345">
        <ele>134.3</ele>
        <time>2021-05-17T13:17:13.000Z</time>
      </trkpt>
      <trkpt lat="44.88391" lon="0.64348">
        <ele>134.3</ele>
        <time>2021-05-17T13:17:14.000Z</time>
      </trkpt>
      <trkpt lat="44.88393" lon="0.64354">
        <ele>134.3</ele>
        <time>2021-05-17T13:17:15.000Z</time>
      </trkpt>
      <trkpt lat="44.88393" lon="0.64356">
        <ele>134.3</ele>
        <time>2021-05-17T13:17:16.000Z</time>
      </trkpt>
      <trkpt lat="44.88396" lon="0.64363">
        <ele>134.4</ele>
        <time>2021-05-17T13:17:17.000Z</time>
      </trkpt>
      <trkpt lat="44.88399" lon="0.64372">
        <ele>134.5</ele>
        <time>2021-05-17T13:17:18.000Z</time>
      </trkpt>
      <trkpt lat="44.884" lon="0.64376">
        <ele>134.5</ele>
        <time>2021-05-17T13:17:19.000Z</time>
      </trkpt>
      <trkpt lat="44.88402" lon="0.64381">
        <ele>134.5</ele>
        <time>2021-05-17T13:17:20.000Z</time>
      </trkpt>
      <trkpt lat="44.88404" lon="0.64385">
        <ele>134.6</ele>
        <time>2021-05-17T13:17:21.000Z</time>
      </trkpt>
      <trkpt lat="44.88406" lon="0.64391">
        <ele>134.6</ele>
        <time>2021-05-17T13:17:22.000Z</time>
      </trkpt>
      <trkpt lat="44.88407" lon="0.64393">
        <ele>134.6</ele>
        <time>2021-05-17T13:17:23.000Z</time>
      </trkpt>
      <trkpt lat="44.88409" lon="0.644">
        <ele>134.7</ele>
        <time>2021-05-17T13:17:24.000Z</time>
      </trkpt>
      <trkpt lat="44.88413" lon="0.64407">
        <ele>134.8</ele>
        <time>2021-05-17T13:17:25.000Z</time>
      </trkpt>
      <trkpt lat="44.88414" lon="0.64411">
        <ele>134.9</ele>
        <time>2021-05-17T13:17:26.000Z</time>
      </trkpt>
      <trkpt lat="44.88416" lon="0.64417">
        <ele>135</ele>
        <time>2021-05-17T13:17:27.000Z</time>
      </trkpt>
      <trkpt lat="44.88417" lon="0.6442">
        <ele>135</ele>
        <time>2021-05-17T13:17:28.000Z</time>
      </trkpt>
      <trkpt lat="44.88421" lon="0.64426">
        <ele>135.3</ele>
        <time>2021-05-17T13:17:29.000Z</time>
      </trkpt>
      <trkpt lat="44.88424" lon="0.64431">
        <ele>135.4</ele>
        <time>2021-05-17T13:17:30.000Z</time>
      </trkpt>
      <trkpt lat="44.88426" lon="0.64437">
        <ele>135.7</ele>
        <time>2021-05-17T13:17:31.000Z</time>
      </trkpt>
      <trkpt lat="44.88427" lon="0.64444">
        <ele>135.9</ele>
        <time>2021-05-17T13:17:32.000Z</time>
      </trkpt>
      <trkpt lat="44.88428" lon="0.64452">
        <ele>136.2</ele>
        <time>2021-05-17T13:17:33.000Z</time>
      </trkpt>
      <trkpt lat="44.88431" lon="0.64457">
        <ele>136.4</ele>
        <time>2021-05-17T13:17:34.000Z</time>
      </trkpt>
      <trkpt lat="44.88431" lon="0.64462">
        <ele>136.6</ele>
        <time>2021-05-17T13:17:35.000Z</time>
      </trkpt>
      <trkpt lat="44.88433" lon="0.64469">
        <ele>137</ele>
        <time>2021-05-17T13:17:36.000Z</time>
      </trkpt>
      <trkpt lat="44.88435" lon="0.64474">
        <ele>137.2</ele>
        <time>2021-05-17T13:17:37.000Z</time>
      </trkpt>
      <trkpt lat="44.88436" lon="0.64479">
        <ele>137.4</ele>
        <time>2021-05-17T13:17:38.000Z</time>
      </trkpt>
      <trkpt lat="44.88437" lon="0.64487">
        <ele>137.9</ele>
        <time>2021-05-17T13:17:39.000Z</time>
      </trkpt>
      <trkpt lat="44.88437" lon="0.64495">
        <ele>138.3</ele>
        <time>2021-05-17T13:17:40.000Z</time>
      </trkpt>
      <trkpt lat="44.88438" lon="0.64502">
        <ele>138.6</ele>
        <time>2021-05-17T13:17:41.000Z</time>
      </trkpt>
      <trkpt lat="44.88439" lon="0.64508">
        <ele>139</ele>
        <time>2021-05-17T13:17:42.000Z</time>
      </trkpt>
      <trkpt lat="44.88438" lon="0.64514">
        <ele>139.2</ele>
        <time>2021-05-17T13:17:43.000Z</time>
      </trkpt>
      <trkpt lat="44.8844" lon="0.64523">
        <ele>139.5</ele>
        <time>2021-05-17T13:17:44.000Z</time>
      </trkpt>
      <trkpt lat="44.8844" lon="0.64528">
        <ele>139.9</ele>
        <time>2021-05-17T13:17:45.000Z</time>
      </trkpt>
      <trkpt lat="44.8844" lon="0.64535">
        <ele>140</ele>
        <time>2021-05-17T13:17:46.000Z</time>
      </trkpt>
      <trkpt lat="44.88439" lon="0.6454">
        <ele>140.2</ele>
        <time>2021-05-17T13:17:47.000Z</time>
      </trkpt>
      <trkpt lat="44.88442" lon="0.64547">
        <ele>140.2</ele>
        <time>2021-05-17T13:17:48.000Z</time>
      </trkpt>
      <trkpt lat="44.88444" lon="0.64555">
        <ele>140.3</ele>
        <time>2021-05-17T13:17:49.000Z</time>
      </trkpt>
      <trkpt lat="44.88446" lon="0.6456">
        <ele>140.3</ele>
        <time>2021-05-17T13:17:50.000Z</time>
      </trkpt>
      <trkpt lat="44.88446" lon="0.64565">
        <ele>140.3</ele>
        <time>2021-05-17T13:17:51.000Z</time>
      </trkpt>
      <trkpt lat="44.88449" lon="0.64572">
        <ele>140.4</ele>
        <time>2021-05-17T13:17:52.000Z</time>
      </trkpt>
      <trkpt lat="44.88451" lon="0.6458">
        <ele>140.4</ele>
        <time>2021-05-17T13:17:53.000Z</time>
      </trkpt>
      <trkpt lat="44.88451" lon="0.64586">
        <ele>140.4</ele>
        <time>2021-05-17T13:17:54.000Z</time>
      </trkpt>
      <trkpt lat="44.88452" lon="0.64591">
        <ele>140.5</ele>
        <time>2021-05-17T13:17:55.000Z</time>
      </trkpt>
      <trkpt lat="44.88453" lon="0.646">
        <ele>140.4</ele>
        <time>2021-05-17T13:17:56.000Z</time>
      </trkpt>
      <trkpt lat="44.88455" lon="0.64606">
        <ele>140.6</ele>
        <time>2021-05-17T13:17:57.000Z</time>
      </trkpt>
      <trkpt lat="44.88457" lon="0.64614">
        <ele>140.9</ele>
        <time>2021-05-17T13:17:58.000Z</time>
      </trkpt>
      <trkpt lat="44.88458" lon="0.64622">
        <ele>141.2</ele>
        <time>2021-05-17T13:17:59.000Z</time>
      </trkpt>
      <trkpt lat="44.88458" lon="0.6463">
        <ele>141.5</ele>
        <time>2021-05-17T13:18:00.000Z</time>
      </trkpt>
      <trkpt lat="44.8846" lon="0.64636">
        <ele>141.6</ele>
        <time>2021-05-17T13:18:01.000Z</time>
      </trkpt>
      <trkpt lat="44.8846" lon="0.64641">
        <ele>141.7</ele>
        <time>2021-05-17T13:18:02.000Z</time>
      </trkpt>
      <trkpt lat="44.8846" lon="0.64647">
        <ele>141.8</ele>
        <time>2021-05-17T13:18:03.000Z</time>
      </trkpt>
      <trkpt lat="44.8846" lon="0.64654">
        <ele>142</ele>
        <time>2021-05-17T13:18:04.000Z</time>
      </trkpt>
      <trkpt lat="44.88462" lon="0.6466">
        <ele>142.1</ele>
        <time>2021-05-17T13:18:05.000Z</time>
      </trkpt>
      <trkpt lat="44.88465" lon="0.6467">
        <ele>142.3</ele>
        <time>2021-05-17T13:18:06.000Z</time>
      </trkpt>
      <trkpt lat="44.88467" lon="0.64678">
        <ele>142.4</ele>
        <time>2021-05-17T13:18:07.000Z</time>
      </trkpt>
      <trkpt lat="44.88468" lon="0.64683">
        <ele>142.4</ele>
        <time>2021-05-17T13:18:08.000Z</time>
      </trkpt>
      <trkpt lat="44.88468" lon="0.64692">
        <ele>142.5</ele>
        <time>2021-05-17T13:18:09.000Z</time>
      </trkpt>
      <trkpt lat="44.88469" lon="0.64699">
        <ele>142.6</ele>
        <time>2021-05-17T13:18:10.000Z</time>
      </trkpt>
      <trkpt lat="44.8847" lon="0.64707">
        <ele>142.6</ele>
        <time>2021-05-17T13:18:11.000Z</time>
      </trkpt>
      <trkpt lat="44.8847" lon="0.64714">
        <ele>142.6</ele>
        <time>2021-05-17T13:18:12.000Z</time>
      </trkpt>
      <trkpt lat="44.88471" lon="0.64722">
        <ele>142.6</ele>
        <time>2021-05-17T13:18:13.000Z</time>
      </trkpt>
      <trkpt lat="44.88471" lon="0.6473">
        <ele>142.5</ele>
        <time>2021-05-17T13:18:14.000Z</time>
      </trkpt>
      <trkpt lat="44.88471" lon="0.64738">
        <ele>142.4</ele>
        <time>2021-05-17T13:18:15.000Z</time>
      </trkpt>
      <trkpt lat="44.8847" lon="0.64746">
        <ele>142.3</ele>
        <time>2021-05-17T13:18:16.000Z</time>
      </trkpt>
      <trkpt lat="44.88471" lon="0.64754">
        <ele>142.1</ele>
        <time>2021-05-17T13:18:17.000Z</time>
      </trkpt>
      <trkpt lat="44.88471" lon="0.64762">
        <ele>142</ele>
        <time>2021-05-17T13:18:18.000Z</time>
      </trkpt>
      <trkpt lat="44.88471" lon="0.64769">
        <ele>141.9</ele>
        <time>2021-05-17T13:18:19.000Z</time>
      </trkpt>
      <trkpt lat="44.88471" lon="0.64775">
        <ele>141.8</ele>
        <time>2021-05-17T13:18:20.000Z</time>
      </trkpt>
      <trkpt lat="44.88469" lon="0.64782">
        <ele>141.6</ele>
        <time>2021-05-17T13:18:21.000Z</time>
      </trkpt>
      <trkpt lat="44.88468" lon="0.6479">
        <ele>141.5</ele>
        <time>2021-05-17T13:18:22.000Z</time>
      </trkpt>
      <trkpt lat="44.88467" lon="0.64796">
        <ele>141.3</ele>
        <time>2021-05-17T13:18:23.000Z</time>
      </trkpt>
      <trkpt lat="44.88466" lon="0.64803">
        <ele>141.1</ele>
        <time>2021-05-17T13:18:24.000Z</time>
      </trkpt>
      <trkpt lat="44.88466" lon="0.64811">
        <ele>140.9</ele>
        <time>2021-05-17T13:18:25.000Z</time>
      </trkpt>
      <trkpt lat="44.88466" lon="0.64816">
        <ele>140.8</ele>
        <time>2021-05-17T13:18:26.000Z</time>
      </trkpt>
      <trkpt lat="44.88465" lon="0.64822">
        <ele>140.6</ele>
        <time>2021-05-17T13:18:27.000Z</time>
      </trkpt>
      <trkpt lat="44.88464" lon="0.64827">
        <ele>140.5</ele>
        <time>2021-05-17T13:18:28.000Z</time>
      </trkpt>
      <trkpt lat="44.88463" lon="0.64832">
        <ele>140.3</ele>
        <time>2021-05-17T13:18:29.000Z</time>
      </trkpt>
      <trkpt lat="44.88462" lon="0.64837">
        <ele>140.1</ele>
        <time>2021-05-17T13:18:30.000Z</time>
      </trkpt>
      <trkpt lat="44.88461" lon="0.64841">
        <ele>140</ele>
        <time>2021-05-17T13:18:31.000Z</time>
      </trkpt>
      <trkpt lat="44.88461" lon="0.64848">
        <ele>139.8</ele>
        <time>2021-05-17T13:18:32.000Z</time>
      </trkpt>
      <trkpt lat="44.8846" lon="0.64852">
        <ele>139.8</ele>
        <time>2021-05-17T13:18:33.000Z</time>
      </trkpt>
      <trkpt lat="44.8846" lon="0.64857">
        <ele>139.7</ele>
        <time>2021-05-17T13:18:34.000Z</time>
      </trkpt>
      <trkpt lat="44.88461" lon="0.64864">
        <ele>139.6</ele>
        <time>2021-05-17T13:18:35.000Z</time>
      </trkpt>
      <trkpt lat="44.88461" lon="0.6487">
        <ele>139.5</ele>
        <time>2021-05-17T13:18:36.000Z</time>
      </trkpt>
      <trkpt lat="44.88462" lon="0.64875">
        <ele>139.4</ele>
        <time>2021-05-17T13:18:37.000Z</time>
      </trkpt>
      <trkpt lat="44.88462" lon="0.64881">
        <ele>139.3</ele>
        <time>2021-05-17T13:18:38.000Z</time>
      </trkpt>
      <trkpt lat="44.88463" lon="0.64886">
        <ele>139.3</ele>
        <time>2021-05-17T13:18:39.000Z</time>
      </trkpt>
      <trkpt lat="44.88463" lon="0.64891">
        <ele>139.2</ele>
        <time>2021-05-17T13:18:40.000Z</time>
      </trkpt>
      <trkpt lat="44.88464" lon="0.64896">
        <ele>139.2</ele>
        <time>2021-05-17T13:18:41.000Z</time>
      </trkpt>
      <trkpt lat="44.88464" lon="0.64901">
        <ele>139.2</ele>
        <time>2021-05-17T13:18:42.000Z</time>
      </trkpt>
      <trkpt lat="44.88465" lon="0.64905">
        <ele>139.1</ele>
        <time>2021-05-17T13:18:43.000Z</time>
      </trkpt>
      <trkpt lat="44.88467" lon="0.64908">
        <ele>139.1</ele>
        <time>2021-05-17T13:18:44.000Z</time>
      </trkpt>
      <trkpt lat="44.88469" lon="0.64914">
        <ele>139.1</ele>
        <time>2021-05-17T13:18:45.000Z</time>
      </trkpt>
      <trkpt lat="44.8847" lon="0.64918">
        <ele>139.1</ele>
        <time>2021-05-17T13:18:46.000Z</time>
      </trkpt>
      <trkpt lat="44.88472" lon="0.64924">
        <ele>139.1</ele>
        <time>2021-05-17T13:18:47.000Z</time>
      </trkpt>
      <trkpt lat="44.88474" lon="0.64928">
        <ele>139.1</ele>
        <time>2021-05-17T13:18:48.000Z</time>
      </trkpt>
      <trkpt lat="44.88477" lon="0.64933">
        <ele>139.1</ele>
        <time>2021-05-17T13:18:49.000Z</time>
      </trkpt>
      <trkpt lat="44.88478" lon="0.64938">
        <ele>139.1</ele>
        <time>2021-05-17T13:18:51.000Z</time>
      </trkpt>
      <trkpt lat="44.88479" lon="0.64942">
        <ele>139.1</ele>
        <time>2021-05-17T13:18:52.000Z</time>
      </trkpt>
      <trkpt lat="44.88481" lon="0.64948">
        <ele>139.1</ele>
        <time>2021-05-17T13:18:53.000Z</time>
      </trkpt>
      <trkpt lat="44.88483" lon="0.64955">
        <ele>139.1</ele>
        <time>2021-05-17T13:18:54.000Z</time>
      </trkpt>
      <trkpt lat="44.88485" lon="0.6496">
        <ele>139.2</ele>
        <time>2021-05-17T13:18:55.000Z</time>
      </trkpt>
      <trkpt lat="44.88486" lon="0.64965">
        <ele>139.2</ele>
        <time>2021-05-17T13:18:56.000Z</time>
      </trkpt>
      <trkpt lat="44.88489" lon="0.6497">
        <ele>139.3</ele>
        <time>2021-05-17T13:18:57.000Z</time>
      </trkpt>
      <trkpt lat="44.88492" lon="0.64977">
        <ele>139.4</ele>
        <time>2021-05-17T13:18:58.000Z</time>
      </trkpt>
      <trkpt lat="44.88495" lon="0.64981">
        <ele>139.4</ele>
        <time>2021-05-17T13:18:59.000Z</time>
      </trkpt>
      <trkpt lat="44.88499" lon="0.64985">
        <ele>139.5</ele>
        <time>2021-05-17T13:19:00.000Z</time>
      </trkpt>
      <trkpt lat="44.88501" lon="0.64991">
        <ele>139.6</ele>
        <time>2021-05-17T13:19:01.000Z</time>
      </trkpt>
      <trkpt lat="44.88504" lon="0.64998">
        <ele>139.6</ele>
        <time>2021-05-17T13:19:02.000Z</time>
      </trkpt>
      <trkpt lat="44.88506" lon="0.65004">
        <ele>139.6</ele>
        <time>2021-05-17T13:19:03.000Z</time>
      </trkpt>
      <trkpt lat="44.88509" lon="0.65009">
        <ele>139.7</ele>
        <time>2021-05-17T13:19:04.000Z</time>
      </trkpt>
      <trkpt lat="44.8851" lon="0.65013">
        <ele>139.7</ele>
        <time>2021-05-17T13:19:05.000Z</time>
      </trkpt>
      <trkpt lat="44.88513" lon="0.65018">
        <ele>139.8</ele>
        <time>2021-05-17T13:19:06.000Z</time>
      </trkpt>
      <trkpt lat="44.88514" lon="0.65022">
        <ele>139.8</ele>
        <time>2021-05-17T13:19:07.000Z</time>
      </trkpt>
      <trkpt lat="44.88518" lon="0.65031">
        <ele>139.9</ele>
        <time>2021-05-17T13:19:08.000Z</time>
      </trkpt>
      <trkpt lat="44.8852" lon="0.65038">
        <ele>140</ele>
        <time>2021-05-17T13:19:09.000Z</time>
      </trkpt>
      <trkpt lat="44.88522" lon="0.65044">
        <ele>140.1</ele>
        <time>2021-05-17T13:19:10.000Z</time>
      </trkpt>
      <trkpt lat="44.88524" lon="0.65048">
        <ele>140.1</ele>
        <time>2021-05-17T13:19:11.000Z</time>
      </trkpt>
      <trkpt lat="44.88525" lon="0.65054">
        <ele>140.1</ele>
        <time>2021-05-17T13:19:12.000Z</time>
      </trkpt>
      <trkpt lat="44.88527" lon="0.65058">
        <ele>140.2</ele>
        <time>2021-05-17T13:19:13.000Z</time>
      </trkpt>
      <trkpt lat="44.8853" lon="0.65063">
        <ele>140.2</ele>
        <time>2021-05-17T13:19:14.000Z</time>
      </trkpt>
      <trkpt lat="44.88531" lon="0.65069">
        <ele>140.2</ele>
        <time>2021-05-17T13:19:15.000Z</time>
      </trkpt>
      <trkpt lat="44.88532" lon="0.65073">
        <ele>140.2</ele>
        <time>2021-05-17T13:19:16.000Z</time>
      </trkpt>
      <trkpt lat="44.88535" lon="0.65076">
        <ele>140.3</ele>
        <time>2021-05-17T13:19:17.000Z</time>
      </trkpt>
      <trkpt lat="44.88538" lon="0.65081">
        <ele>140.3</ele>
        <time>2021-05-17T13:19:18.000Z</time>
      </trkpt>
      <trkpt lat="44.88544" lon="0.65094">
        <ele>140.5</ele>
        <time>2021-05-17T13:19:19.000Z</time>
      </trkpt>
      <trkpt lat="44.88547" lon="0.65099">
        <ele>140.5</ele>
        <time>2021-05-17T13:19:20.000Z</time>
      </trkpt>
      <trkpt lat="44.88552" lon="0.65102">
        <ele>140.6</ele>
        <time>2021-05-17T13:19:21.000Z</time>
      </trkpt>
      <trkpt lat="44.88557" lon="0.65107">
        <ele>140.7</ele>
        <time>2021-05-17T13:19:22.000Z</time>
      </trkpt>
      <trkpt lat="44.88561" lon="0.65113">
        <ele>140.8</ele>
        <time>2021-05-17T13:19:23.000Z</time>
      </trkpt>
      <trkpt lat="44.88566" lon="0.65119">
        <ele>140.9</ele>
        <time>2021-05-17T13:19:24.000Z</time>
      </trkpt>
      <trkpt lat="44.88569" lon="0.65124">
        <ele>141</ele>
        <time>2021-05-17T13:19:25.000Z</time>
      </trkpt>
      <trkpt lat="44.88573" lon="0.65129">
        <ele>141.1</ele>
        <time>2021-05-17T13:19:26.000Z</time>
      </trkpt>
      <trkpt lat="44.88577" lon="0.65133">
        <ele>141.3</ele>
        <time>2021-05-17T13:19:27.000Z</time>
      </trkpt>
      <trkpt lat="44.8858" lon="0.65138">
        <ele>141.4</ele>
        <time>2021-05-17T13:19:28.000Z</time>
      </trkpt>
      <trkpt lat="44.88584" lon="0.65143">
        <ele>141.5</ele>
        <time>2021-05-17T13:19:29.000Z</time>
      </trkpt>
      <trkpt lat="44.88588" lon="0.65148">
        <ele>141.6</ele>
        <time>2021-05-17T13:19:30.000Z</time>
      </trkpt>
      <trkpt lat="44.88591" lon="0.65152">
        <ele>141.7</ele>
        <time>2021-05-17T13:19:31.000Z</time>
      </trkpt>
      <trkpt lat="44.88595" lon="0.65158">
        <ele>141.9</ele>
        <time>2021-05-17T13:19:32.000Z</time>
      </trkpt>
      <trkpt lat="44.88598" lon="0.65163">
        <ele>142</ele>
        <time>2021-05-17T13:19:33.000Z</time>
      </trkpt>
      <trkpt lat="44.88601" lon="0.65168">
        <ele>142.2</ele>
        <time>2021-05-17T13:19:34.000Z</time>
      </trkpt>
      <trkpt lat="44.88604" lon="0.65175">
        <ele>142.3</ele>
        <time>2021-05-17T13:19:35.000Z</time>
      </trkpt>
      <trkpt lat="44.88607" lon="0.65181">
        <ele>142.5</ele>
        <time>2021-05-17T13:19:36.000Z</time>
      </trkpt>
      <trkpt lat="44.88609" lon="0.65187">
        <ele>142.7</ele>
        <time>2021-05-17T13:19:37.000Z</time>
      </trkpt>
      <trkpt lat="44.88611" lon="0.65193">
        <ele>142.8</ele>
        <time>2021-05-17T13:19:38.000Z</time>
      </trkpt>
      <trkpt lat="44.88614" lon="0.652">
        <ele>143</ele>
        <time>2021-05-17T13:19:39.000Z</time>
      </trkpt>
      <trkpt lat="44.88616" lon="0.65206">
        <ele>143.1</ele>
        <time>2021-05-17T13:19:40.000Z</time>
      </trkpt>
      <trkpt lat="44.88618" lon="0.65214">
        <ele>143.3</ele>
        <time>2021-05-17T13:19:41.000Z</time>
      </trkpt>
      <trkpt lat="44.8862" lon="0.65219">
        <ele>143.5</ele>
        <time>2021-05-17T13:19:42.000Z</time>
      </trkpt>
      <trkpt lat="44.88622" lon="0.65225">
        <ele>143.7</ele>
        <time>2021-05-17T13:19:43.000Z</time>
      </trkpt>
      <trkpt lat="44.88624" lon="0.65229">
        <ele>143.8</ele>
        <time>2021-05-17T13:19:44.000Z</time>
      </trkpt>
      <trkpt lat="44.88626" lon="0.65234">
        <ele>143.9</ele>
        <time>2021-05-17T13:19:45.000Z</time>
      </trkpt>
      <trkpt lat="44.88628" lon="0.6524">
        <ele>144.1</ele>
        <time>2021-05-17T13:19:46.000Z</time>
      </trkpt>
      <trkpt lat="44.88631" lon="0.65247">
        <ele>144.3</ele>
        <time>2021-05-17T13:19:47.000Z</time>
      </trkpt>
      <trkpt lat="44.88633" lon="0.65253">
        <ele>144.4</ele>
        <time>2021-05-17T13:19:48.000Z</time>
      </trkpt>
      <trkpt lat="44.88635" lon="0.6526">
        <ele>144.6</ele>
        <time>2021-05-17T13:19:49.000Z</time>
      </trkpt>
      <trkpt lat="44.88637" lon="0.65266">
        <ele>144.7</ele>
        <time>2021-05-17T13:19:50.000Z</time>
      </trkpt>
      <trkpt lat="44.88639" lon="0.65272">
        <ele>144.9</ele>
        <time>2021-05-17T13:19:51.000Z</time>
      </trkpt>
      <trkpt lat="44.88642" lon="0.65277">
        <ele>145</ele>
        <time>2021-05-17T13:19:52.000Z</time>
      </trkpt>
      <trkpt lat="44.88646" lon="0.65283">
        <ele>145.1</ele>
        <time>2021-05-17T13:19:53.000Z</time>
      </trkpt>
      <trkpt lat="44.88649" lon="0.65289">
        <ele>145.3</ele>
        <time>2021-05-17T13:19:54.000Z</time>
      </trkpt>
      <trkpt lat="44.88652" lon="0.65294">
        <ele>145.4</ele>
        <time>2021-05-17T13:19:55.000Z</time>
      </trkpt>
      <trkpt lat="44.88655" lon="0.65299">
        <ele>145.6</ele>
        <time>2021-05-17T13:19:56.000Z</time>
      </trkpt>
      <trkpt lat="44.88658" lon="0.65304">
        <ele>145.7</ele>
        <time>2021-05-17T13:19:57.000Z</time>
      </trkpt>
      <trkpt lat="44.88662" lon="0.65308">
        <ele>145.9</ele>
        <time>2021-05-17T13:19:58.000Z</time>
      </trkpt>
      <trkpt lat="44.88666" lon="0.65312">
        <ele>146</ele>
        <time>2021-05-17T13:19:59.000Z</time>
      </trkpt>
      <trkpt lat="44.8867" lon="0.65317">
        <ele>146.2</ele>
        <time>2021-05-17T13:20:00.000Z</time>
      </trkpt>
      <trkpt lat="44.88674" lon="0.65321">
        <ele>146.4</ele>
        <time>2021-05-17T13:20:01.000Z</time>
      </trkpt>
      <trkpt lat="44.88677" lon="0.65326">
        <ele>146.5</ele>
        <time>2021-05-17T13:20:02.000Z</time>
      </trkpt>
      <trkpt lat="44.88681" lon="0.6533">
        <ele>146.6</ele>
        <time>2021-05-17T13:20:03.000Z</time>
      </trkpt>
      <trkpt lat="44.88685" lon="0.65334">
        <ele>146.8</ele>
        <time>2021-05-17T13:20:04.000Z</time>
      </trkpt>
      <trkpt lat="44.88689" lon="0.65338">
        <ele>146.9</ele>
        <time>2021-05-17T13:20:05.000Z</time>
      </trkpt>
      <trkpt lat="44.88692" lon="0.65342">
        <ele>147</ele>
        <time>2021-05-17T13:20:06.000Z</time>
      </trkpt>
      <trkpt lat="44.88695" lon="0.65346">
        <ele>147.1</ele>
        <time>2021-05-17T13:20:07.000Z</time>
      </trkpt>
      <trkpt lat="44.88698" lon="0.65349">
        <ele>147.2</ele>
        <time>2021-05-17T13:20:08.000Z</time>
      </trkpt>
      <trkpt lat="44.88701" lon="0.65352">
        <ele>147.3</ele>
        <time>2021-05-17T13:20:09.000Z</time>
      </trkpt>
      <trkpt lat="44.88704" lon="0.65356">
        <ele>147.3</ele>
        <time>2021-05-17T13:20:10.000Z</time>
      </trkpt>
      <trkpt lat="44.88705" lon="0.65359">
        <ele>147.4</ele>
        <time>2021-05-17T13:20:11.000Z</time>
      </trkpt>
      <trkpt lat="44.88707" lon="0.65362">
        <ele>147.4</ele>
        <time>2021-05-17T13:20:12.000Z</time>
      </trkpt>
      <trkpt lat="44.8871" lon="0.65365">
        <ele>147.4</ele>
        <time>2021-05-17T13:20:13.000Z</time>
      </trkpt>
      <trkpt lat="44.88714" lon="0.65367">
        <ele>147.4</ele>
        <time>2021-05-17T13:20:14.000Z</time>
      </trkpt>
      <trkpt lat="44.88716" lon="0.65368">
        <ele>147.4</ele>
        <time>2021-05-17T13:20:15.000Z</time>
      </trkpt>
      <trkpt lat="44.88718" lon="0.65369">
        <ele>147.5</ele>
        <time>2021-05-17T13:20:16.000Z</time>
      </trkpt>
      <trkpt lat="44.88721" lon="0.6537">
        <ele>147.5</ele>
        <time>2021-05-17T13:20:17.000Z</time>
      </trkpt>
      <trkpt lat="44.88722" lon="0.6537">
        <ele>147.5</ele>
        <time>2021-05-17T13:20:18.000Z</time>
      </trkpt>
      <trkpt lat="44.88725" lon="0.65372">
        <ele>147.5</ele>
        <time>2021-05-17T13:20:19.000Z</time>
      </trkpt>
      <trkpt lat="44.88729" lon="0.65374">
        <ele>147.5</ele>
        <time>2021-05-17T13:20:20.000Z</time>
      </trkpt>
      <trkpt lat="44.88733" lon="0.65375">
        <ele>147.5</ele>
        <time>2021-05-17T13:20:21.000Z</time>
      </trkpt>
      <trkpt lat="44.88737" lon="0.65376">
        <ele>147.5</ele>
        <time>2021-05-17T13:20:22.000Z</time>
      </trkpt>
      <trkpt lat="44.8874" lon="0.65376">
        <ele>147.4</ele>
        <time>2021-05-17T13:20:23.000Z</time>
      </trkpt>
      <trkpt lat="44.88743" lon="0.65377">
        <ele>147.4</ele>
        <time>2021-05-17T13:20:24.000Z</time>
      </trkpt>
      <trkpt lat="44.88747" lon="0.65379">
        <ele>147.2</ele>
        <time>2021-05-17T13:20:25.000Z</time>
      </trkpt>
      <trkpt lat="44.8875" lon="0.65382">
        <ele>147.2</ele>
        <time>2021-05-17T13:20:26.000Z</time>
      </trkpt>
      <trkpt lat="44.88751" lon="0.65383">
        <ele>147.2</ele>
        <time>2021-05-17T13:20:27.000Z</time>
      </trkpt>
      <trkpt lat="44.88756" lon="0.65386">
        <ele>147.2</ele>
        <time>2021-05-17T13:20:28.000Z</time>
      </trkpt>
      <trkpt lat="44.88759" lon="0.6539">
        <ele>146.8</ele>
        <time>2021-05-17T13:20:29.000Z</time>
      </trkpt>
      <trkpt lat="44.88764" lon="0.65396">
        <ele>146.9</ele>
        <time>2021-05-17T13:20:30.000Z</time>
      </trkpt>
      <trkpt lat="44.88768" lon="0.65399">
        <ele>146.6</ele>
        <time>2021-05-17T13:20:31.000Z</time>
      </trkpt>
      <trkpt lat="44.88773" lon="0.65401">
        <ele>146.5</ele>
        <time>2021-05-17T13:20:32.000Z</time>
      </trkpt>
      <trkpt lat="44.8878" lon="0.65402">
        <ele>146.1</ele>
        <time>2021-05-17T13:20:33.000Z</time>
      </trkpt>
      <trkpt lat="44.88784" lon="0.65402">
        <ele>145.8</ele>
        <time>2021-05-17T13:20:34.000Z</time>
      </trkpt>
      <trkpt lat="44.88788" lon="0.65402">
        <ele>145.6</ele>
        <time>2021-05-17T13:20:35.000Z</time>
      </trkpt>
      <trkpt lat="44.88792" lon="0.65404">
        <ele>145.6</ele>
        <time>2021-05-17T13:20:36.000Z</time>
      </trkpt>
      <trkpt lat="44.88798" lon="0.65406">
        <ele>145.3</ele>
        <time>2021-05-17T13:20:37.000Z</time>
      </trkpt>
      <trkpt lat="44.88805" lon="0.65407">
        <ele>144.9</ele>
        <time>2021-05-17T13:20:38.000Z</time>
      </trkpt>
      <trkpt lat="44.88812" lon="0.65406">
        <ele>144.6</ele>
        <time>2021-05-17T13:20:39.000Z</time>
      </trkpt>
      <trkpt lat="44.88817" lon="0.65407">
        <ele>144.4</ele>
        <time>2021-05-17T13:20:40.000Z</time>
      </trkpt>
      <trkpt lat="44.88822" lon="0.65413">
        <ele>144.3</ele>
        <time>2021-05-17T13:20:41.000Z</time>
      </trkpt>
      <trkpt lat="44.88827" lon="0.65418">
        <ele>144.1</ele>
        <time>2021-05-17T13:20:42.000Z</time>
      </trkpt>
      <trkpt lat="44.88832" lon="0.65423">
        <ele>144</ele>
        <time>2021-05-17T13:20:43.000Z</time>
      </trkpt>
      <trkpt lat="44.88839" lon="0.65424">
        <ele>143.4</ele>
        <time>2021-05-17T13:20:44.000Z</time>
      </trkpt>
      <trkpt lat="44.88845" lon="0.65423">
        <ele>143</ele>
        <time>2021-05-17T13:20:45.000Z</time>
      </trkpt>
      <trkpt lat="44.88851" lon="0.65425">
        <ele>142.7</ele>
        <time>2021-05-17T13:20:46.000Z</time>
      </trkpt>
      <trkpt lat="44.88857" lon="0.65426">
        <ele>142.2</ele>
        <time>2021-05-17T13:20:47.000Z</time>
      </trkpt>
      <trkpt lat="44.88866" lon="0.6543">
        <ele>141.5</ele>
        <time>2021-05-17T13:20:48.000Z</time>
      </trkpt>
      <trkpt lat="44.88869" lon="0.65435">
        <ele>141.3</ele>
        <time>2021-05-17T13:20:49.000Z</time>
      </trkpt>
      <trkpt lat="44.88872" lon="0.6544">
        <ele>141.2</ele>
        <time>2021-05-17T13:20:50.000Z</time>
      </trkpt>
      <trkpt lat="44.88874" lon="0.65443">
        <ele>141.2</ele>
        <time>2021-05-17T13:20:51.000Z</time>
      </trkpt>
      <trkpt lat="44.88877" lon="0.65449">
        <ele>141</ele>
        <time>2021-05-17T13:20:52.000Z</time>
      </trkpt>
      <trkpt lat="44.88879" lon="0.65456">
        <ele>140.9</ele>
        <time>2021-05-17T13:20:53.000Z</time>
      </trkpt>
      <trkpt lat="44.88884" lon="0.65465">
        <ele>140.6</ele>
        <time>2021-05-17T13:20:54.000Z</time>
      </trkpt>
      <trkpt lat="44.88888" lon="0.65472">
        <ele>140.5</ele>
        <time>2021-05-17T13:20:55.000Z</time>
      </trkpt>
      <trkpt lat="44.8889" lon="0.65478">
        <ele>140.4</ele>
        <time>2021-05-17T13:20:57.000Z</time>
      </trkpt>
      <trkpt lat="44.88893" lon="0.65483">
        <ele>140.3</ele>
        <time>2021-05-17T13:20:58.000Z</time>
      </trkpt>
      <trkpt lat="44.88895" lon="0.65487">
        <ele>140.4</ele>
        <time>2021-05-17T13:20:59.000Z</time>
      </trkpt>
      <trkpt lat="44.88895" lon="0.65492">
        <ele>140.5</ele>
        <time>2021-05-17T13:21:00.000Z</time>
      </trkpt>
      <trkpt lat="44.88895" lon="0.65495">
        <ele>140.5</ele>
        <time>2021-05-17T13:21:01.000Z</time>
      </trkpt>
      <trkpt lat="44.88895" lon="0.655">
        <ele>140.6</ele>
        <time>2021-05-17T13:21:02.000Z</time>
      </trkpt>
      <trkpt lat="44.88895" lon="0.65502">
        <ele>140.6</ele>
        <time>2021-05-17T13:21:03.000Z</time>
      </trkpt>
      <trkpt lat="44.88895" lon="0.65506">
        <ele>140.7</ele>
        <time>2021-05-17T13:21:04.000Z</time>
      </trkpt>
      <trkpt lat="44.88897" lon="0.65509">
        <ele>140.6</ele>
        <time>2021-05-17T13:21:05.000Z</time>
      </trkpt>
      <trkpt lat="44.88899" lon="0.65514">
        <ele>140.7</ele>
        <time>2021-05-17T13:21:06.000Z</time>
      </trkpt>
      <trkpt lat="44.88901" lon="0.65517">
        <ele>140.6</ele>
        <time>2021-05-17T13:21:07.000Z</time>
      </trkpt>
      <trkpt lat="44.88903" lon="0.65519">
        <ele>140.5</ele>
        <time>2021-05-17T13:21:08.000Z</time>
      </trkpt>
      <trkpt lat="44.88904" lon="0.65525">
        <ele>140.6</ele>
        <time>2021-05-17T13:21:09.000Z</time>
      </trkpt>
      <trkpt lat="44.88904" lon="0.65528">
        <ele>140.6</ele>
        <time>2021-05-17T13:21:10.000Z</time>
      </trkpt>
      <trkpt lat="44.88907" lon="0.65533">
        <ele>140.5</ele>
        <time>2021-05-17T13:21:11.000Z</time>
      </trkpt>
      <trkpt lat="44.88909" lon="0.65537">
        <ele>140.4</ele>
        <time>2021-05-17T13:21:12.000Z</time>
      </trkpt>
      <trkpt lat="44.88914" lon="0.65543">
        <ele>140.3</ele>
        <time>2021-05-17T13:21:13.000Z</time>
      </trkpt>
      <trkpt lat="44.88922" lon="0.65548">
        <ele>140.1</ele>
        <time>2021-05-17T13:21:14.000Z</time>
      </trkpt>
      <trkpt lat="44.88927" lon="0.65553">
        <ele>139.9</ele>
        <time>2021-05-17T13:21:15.000Z</time>
      </trkpt>
      <trkpt lat="44.88931" lon="0.65559">
        <ele>139.9</ele>
        <time>2021-05-17T13:21:16.000Z</time>
      </trkpt>
      <trkpt lat="44.88936" lon="0.65566">
        <ele>139.8</ele>
        <time>2021-05-17T13:21:17.000Z</time>
      </trkpt>
      <trkpt lat="44.8894" lon="0.6557">
        <ele>139.8</ele>
        <time>2021-05-17T13:21:18.000Z</time>
      </trkpt>
      <trkpt lat="44.88945" lon="0.65576">
        <ele>139.8</ele>
        <time>2021-05-17T13:21:19.000Z</time>
      </trkpt>
      <trkpt lat="44.88948" lon="0.65581">
        <ele>139.8</ele>
        <time>2021-05-17T13:21:20.000Z</time>
      </trkpt>
      <trkpt lat="44.88951" lon="0.65585">
        <ele>139.9</ele>
        <time>2021-05-17T13:21:21.000Z</time>
      </trkpt>
      <trkpt lat="44.88955" lon="0.6559">
        <ele>139.9</ele>
        <time>2021-05-17T13:21:22.000Z</time>
      </trkpt>
      <trkpt lat="44.88958" lon="0.65595">
        <ele>140</ele>
        <time>2021-05-17T13:21:23.000Z</time>
      </trkpt>
      <trkpt lat="44.88963" lon="0.656">
        <ele>140.1</ele>
        <time>2021-05-17T13:21:24.000Z</time>
      </trkpt>
      <trkpt lat="44.88971" lon="0.65608">
        <ele>140.1</ele>
        <time>2021-05-17T13:21:25.000Z</time>
      </trkpt>
      <trkpt lat="44.88976" lon="0.65613">
        <ele>140.2</ele>
        <time>2021-05-17T13:21:26.000Z</time>
      </trkpt>
      <trkpt lat="44.88981" lon="0.65618">
        <ele>140.3</ele>
        <time>2021-05-17T13:21:27.000Z</time>
      </trkpt>
      <trkpt lat="44.88984" lon="0.65624">
        <ele>140.3</ele>
        <time>2021-05-17T13:21:28.000Z</time>
      </trkpt>
      <trkpt lat="44.88989" lon="0.6563">
        <ele>140.4</ele>
        <time>2021-05-17T13:21:29.000Z</time>
      </trkpt>
      <trkpt lat="44.88992" lon="0.65636">
        <ele>140.6</ele>
        <time>2021-05-17T13:21:30.000Z</time>
      </trkpt>
      <trkpt lat="44.88995" lon="0.65642">
        <ele>140.6</ele>
        <time>2021-05-17T13:21:31.000Z</time>
      </trkpt>
      <trkpt lat="44.88994" lon="0.6565">
        <ele>140.8</ele>
        <time>2021-05-17T13:21:32.000Z</time>
      </trkpt>
      <trkpt lat="44.88994" lon="0.65658">
        <ele>141</ele>
        <time>2021-05-17T13:21:33.000Z</time>
      </trkpt>
      <trkpt lat="44.88994" lon="0.65667">
        <ele>141.1</ele>
        <time>2021-05-17T13:21:34.000Z</time>
      </trkpt>
      <trkpt lat="44.88995" lon="0.65675">
        <ele>141.2</ele>
        <time>2021-05-17T13:21:35.000Z</time>
      </trkpt>
      <trkpt lat="44.88995" lon="0.65682">
        <ele>141.2</ele>
        <time>2021-05-17T13:21:36.000Z</time>
      </trkpt>
      <trkpt lat="44.88997" lon="0.6569">
        <ele>141.1</ele>
        <time>2021-05-17T13:21:37.000Z</time>
      </trkpt>
      <trkpt lat="44.88999" lon="0.65697">
        <ele>141</ele>
        <time>2021-05-17T13:21:38.000Z</time>
      </trkpt>
      <trkpt lat="44.89" lon="0.65706">
        <ele>140.8</ele>
        <time>2021-05-17T13:21:39.000Z</time>
      </trkpt>
      <trkpt lat="44.89" lon="0.65712">
        <ele>140.8</ele>
        <time>2021-05-17T13:21:40.000Z</time>
      </trkpt>
      <trkpt lat="44.89001" lon="0.65717">
        <ele>140.6</ele>
        <time>2021-05-17T13:21:41.000Z</time>
      </trkpt>
      <trkpt lat="44.89001" lon="0.65722">
        <ele>140.5</ele>
        <time>2021-05-17T13:21:42.000Z</time>
      </trkpt>
      <trkpt lat="44.89003" lon="0.65726">
        <ele>140.4</ele>
        <time>2021-05-17T13:21:43.000Z</time>
      </trkpt>
      <trkpt lat="44.89004" lon="0.6573">
        <ele>140.3</ele>
        <time>2021-05-17T13:21:44.000Z</time>
      </trkpt>
      <trkpt lat="44.89006" lon="0.65733">
        <ele>140.3</ele>
        <time>2021-05-17T13:21:45.000Z</time>
      </trkpt>
      <trkpt lat="44.89007" lon="0.65738">
        <ele>140.1</ele>
        <time>2021-05-17T13:21:46.000Z</time>
      </trkpt>
      <trkpt lat="44.89009" lon="0.65749">
        <ele>139.9</ele>
        <time>2021-05-17T13:21:47.000Z</time>
      </trkpt>
      <trkpt lat="44.89011" lon="0.65757">
        <ele>139.7</ele>
        <time>2021-05-17T13:21:48.000Z</time>
      </trkpt>
      <trkpt lat="44.89015" lon="0.65766">
        <ele>139.5</ele>
        <time>2021-05-17T13:21:49.000Z</time>
      </trkpt>
      <trkpt lat="44.89018" lon="0.65772">
        <ele>139.4</ele>
        <time>2021-05-17T13:21:50.000Z</time>
      </trkpt>
      <trkpt lat="44.89021" lon="0.65779">
        <ele>139.2</ele>
        <time>2021-05-17T13:21:51.000Z</time>
      </trkpt>
      <trkpt lat="44.89027" lon="0.65783">
        <ele>139.1</ele>
        <time>2021-05-17T13:21:52.000Z</time>
      </trkpt>
      <trkpt lat="44.89033" lon="0.65789">
        <ele>138.8</ele>
        <time>2021-05-17T13:21:53.000Z</time>
      </trkpt>
      <trkpt lat="44.89037" lon="0.65793">
        <ele>138.8</ele>
        <time>2021-05-17T13:21:54.000Z</time>
      </trkpt>
      <trkpt lat="44.89043" lon="0.65797">
        <ele>138.7</ele>
        <time>2021-05-17T13:21:55.000Z</time>
      </trkpt>
      <trkpt lat="44.89049" lon="0.65807">
        <ele>138.1</ele>
        <time>2021-05-17T13:21:56.000Z</time>
      </trkpt>
      <trkpt lat="44.89056" lon="0.65814">
        <ele>137.7</ele>
        <time>2021-05-17T13:21:57.000Z</time>
      </trkpt>
      <trkpt lat="44.89063" lon="0.6582">
        <ele>137</ele>
        <time>2021-05-17T13:21:58.000Z</time>
      </trkpt>
      <trkpt lat="44.89071" lon="0.65828">
        <ele>136.1</ele>
        <time>2021-05-17T13:21:59.000Z</time>
      </trkpt>
      <trkpt lat="44.89078" lon="0.65834">
        <ele>135.3</ele>
        <time>2021-05-17T13:22:00.000Z</time>
      </trkpt>
      <trkpt lat="44.89086" lon="0.65841">
        <ele>134.5</ele>
        <time>2021-05-17T13:22:01.000Z</time>
      </trkpt>
      <trkpt lat="44.89093" lon="0.6585">
        <ele>133.8</ele>
        <time>2021-05-17T13:22:02.000Z</time>
      </trkpt>
      <trkpt lat="44.89101" lon="0.65858">
        <ele>133</ele>
        <time>2021-05-17T13:22:03.000Z</time>
      </trkpt>
      <trkpt lat="44.89109" lon="0.65867">
        <ele>132.2</ele>
        <time>2021-05-17T13:22:04.000Z</time>
      </trkpt>
      <trkpt lat="44.89118" lon="0.65873">
        <ele>131.9</ele>
        <time>2021-05-17T13:22:05.000Z</time>
      </trkpt>
      <trkpt lat="44.89124" lon="0.65876">
        <ele>131.6</ele>
        <time>2021-05-17T13:22:06.000Z</time>
      </trkpt>
      <trkpt lat="44.89131" lon="0.65876">
        <ele>131.4</ele>
        <time>2021-05-17T13:22:07.000Z</time>
      </trkpt>
      <trkpt lat="44.89135" lon="0.65879">
        <ele>131.4</ele>
        <time>2021-05-17T13:22:08.000Z</time>
      </trkpt>
      <trkpt lat="44.89141" lon="0.6588">
        <ele>131.3</ele>
        <time>2021-05-17T13:22:09.000Z</time>
      </trkpt>
      <trkpt lat="44.89146" lon="0.6588">
        <ele>131.3</ele>
        <time>2021-05-17T13:22:10.000Z</time>
      </trkpt>
      <trkpt lat="44.89151" lon="0.65881">
        <ele>131.3</ele>
        <time>2021-05-17T13:22:11.000Z</time>
      </trkpt>
      <trkpt lat="44.89155" lon="0.65882">
        <ele>131.4</ele>
        <time>2021-05-17T13:22:12.000Z</time>
      </trkpt>
      <trkpt lat="44.8916" lon="0.65883">
        <ele>131.5</ele>
        <time>2021-05-17T13:22:13.000Z</time>
      </trkpt>
      <trkpt lat="44.89166" lon="0.65886">
        <ele>131.5</ele>
        <time>2021-05-17T13:22:14.000Z</time>
      </trkpt>
      <trkpt lat="44.89171" lon="0.65887">
        <ele>131.7</ele>
        <time>2021-05-17T13:22:15.000Z</time>
      </trkpt>
      <trkpt lat="44.89177" lon="0.6589">
        <ele>131.8</ele>
        <time>2021-05-17T13:22:16.000Z</time>
      </trkpt>
      <trkpt lat="44.89182" lon="0.65891">
        <ele>132</ele>
        <time>2021-05-17T13:22:17.000Z</time>
      </trkpt>
      <trkpt lat="44.89186" lon="0.65893">
        <ele>132.2</ele>
        <time>2021-05-17T13:22:18.000Z</time>
      </trkpt>
      <trkpt lat="44.89191" lon="0.65892">
        <ele>132.5</ele>
        <time>2021-05-17T13:22:19.000Z</time>
      </trkpt>
      <trkpt lat="44.89197" lon="0.65894">
        <ele>132.7</ele>
        <time>2021-05-17T13:22:20.000Z</time>
      </trkpt>
      <trkpt lat="44.89201" lon="0.65896">
        <ele>132.9</ele>
        <time>2021-05-17T13:22:21.000Z</time>
      </trkpt>
      <trkpt lat="44.89204" lon="0.65896">
        <ele>133</ele>
        <time>2021-05-17T13:22:22.000Z</time>
      </trkpt>
      <trkpt lat="44.8921" lon="0.65897">
        <ele>133.3</ele>
        <time>2021-05-17T13:22:23.000Z</time>
      </trkpt>
      <trkpt lat="44.89216" lon="0.65898">
        <ele>133.1</ele>
        <time>2021-05-17T13:22:24.000Z</time>
      </trkpt>
      <trkpt lat="44.89222" lon="0.65898">
        <ele>132.8</ele>
        <time>2021-05-17T13:22:25.000Z</time>
      </trkpt>
      <trkpt lat="44.89227" lon="0.659">
        <ele>132.6</ele>
        <time>2021-05-17T13:22:26.000Z</time>
      </trkpt>
      <trkpt lat="44.89233" lon="0.65901">
        <ele>132.3</ele>
        <time>2021-05-17T13:22:27.000Z</time>
      </trkpt>
      <trkpt lat="44.8924" lon="0.65902">
        <ele>132.1</ele>
        <time>2021-05-17T13:22:28.000Z</time>
      </trkpt>
      <trkpt lat="44.89245" lon="0.65902">
        <ele>131.9</ele>
        <time>2021-05-17T13:22:29.000Z</time>
      </trkpt>
      <trkpt lat="44.89251" lon="0.65901">
        <ele>131.7</ele>
        <time>2021-05-17T13:22:30.000Z</time>
      </trkpt>
      <trkpt lat="44.89258" lon="0.659">
        <ele>131.4</ele>
        <time>2021-05-17T13:22:31.000Z</time>
      </trkpt>
      <trkpt lat="44.89264" lon="0.65901">
        <ele>131.1</ele>
        <time>2021-05-17T13:22:32.000Z</time>
      </trkpt>
      <trkpt lat="44.89268" lon="0.65901">
        <ele>131</ele>
        <time>2021-05-17T13:22:33.000Z</time>
      </trkpt>
      <trkpt lat="44.89272" lon="0.65899">
        <ele>130.8</ele>
        <time>2021-05-17T13:22:34.000Z</time>
      </trkpt>
      <trkpt lat="44.89278" lon="0.65896">
        <ele>130.6</ele>
        <time>2021-05-17T13:22:35.000Z</time>
      </trkpt>
      <trkpt lat="44.89282" lon="0.65893">
        <ele>130.4</ele>
        <time>2021-05-17T13:22:36.000Z</time>
      </trkpt>
      <trkpt lat="44.8929" lon="0.65897">
        <ele>130.1</ele>
        <time>2021-05-17T13:22:37.000Z</time>
      </trkpt>
      <trkpt lat="44.893" lon="0.65898">
        <ele>129.8</ele>
        <time>2021-05-17T13:22:38.000Z</time>
      </trkpt>
      <trkpt lat="44.89309" lon="0.65899">
        <ele>129.4</ele>
        <time>2021-05-17T13:22:39.000Z</time>
      </trkpt>
      <trkpt lat="44.89319" lon="0.65899">
        <ele>129.1</ele>
        <time>2021-05-17T13:22:40.000Z</time>
      </trkpt>
      <trkpt lat="44.89328" lon="0.65899">
        <ele>128.8</ele>
        <time>2021-05-17T13:22:41.000Z</time>
      </trkpt>
      <trkpt lat="44.89336" lon="0.65897">
        <ele>128.6</ele>
        <time>2021-05-17T13:22:42.000Z</time>
      </trkpt>
      <trkpt lat="44.89346" lon="0.65896">
        <ele>128.5</ele>
        <time>2021-05-17T13:22:43.000Z</time>
      </trkpt>
      <trkpt lat="44.89356" lon="0.65895">
        <ele>128.4</ele>
        <time>2021-05-17T13:22:44.000Z</time>
      </trkpt>
      <trkpt lat="44.89365" lon="0.65894">
        <ele>128.2</ele>
        <time>2021-05-17T13:22:45.000Z</time>
      </trkpt>
      <trkpt lat="44.89373" lon="0.65893">
        <ele>128</ele>
        <time>2021-05-17T13:22:46.000Z</time>
      </trkpt>
      <trkpt lat="44.8938" lon="0.65892">
        <ele>127.9</ele>
        <time>2021-05-17T13:22:47.000Z</time>
      </trkpt>
      <trkpt lat="44.89387" lon="0.65891">
        <ele>127.9</ele>
        <time>2021-05-17T13:22:48.000Z</time>
      </trkpt>
      <trkpt lat="44.89393" lon="0.65892">
        <ele>127.8</ele>
        <time>2021-05-17T13:22:49.000Z</time>
      </trkpt>
      <trkpt lat="44.894" lon="0.65892">
        <ele>127.8</ele>
        <time>2021-05-17T13:22:50.000Z</time>
      </trkpt>
      <trkpt lat="44.89406" lon="0.65894">
        <ele>127.8</ele>
        <time>2021-05-17T13:22:51.000Z</time>
      </trkpt>
      <trkpt lat="44.89412" lon="0.65896">
        <ele>127.8</ele>
        <time>2021-05-17T13:22:52.000Z</time>
      </trkpt>
      <trkpt lat="44.89419" lon="0.65897">
        <ele>127.8</ele>
        <time>2021-05-17T13:22:53.000Z</time>
      </trkpt>
      <trkpt lat="44.89424" lon="0.65896">
        <ele>127.8</ele>
        <time>2021-05-17T13:22:54.000Z</time>
      </trkpt>
      <trkpt lat="44.89429" lon="0.65897">
        <ele>127.8</ele>
        <time>2021-05-17T13:22:55.000Z</time>
      </trkpt>
      <trkpt lat="44.89434" lon="0.65898">
        <ele>127.8</ele>
        <time>2021-05-17T13:22:56.000Z</time>
      </trkpt>
      <trkpt lat="44.89439" lon="0.65897">
        <ele>127.9</ele>
        <time>2021-05-17T13:22:57.000Z</time>
      </trkpt>
      <trkpt lat="44.89445" lon="0.65898">
        <ele>127.9</ele>
        <time>2021-05-17T13:22:58.000Z</time>
      </trkpt>
      <trkpt lat="44.89449" lon="0.65902">
        <ele>128</ele>
        <time>2021-05-17T13:22:59.000Z</time>
      </trkpt>
      <trkpt lat="44.89454" lon="0.65905">
        <ele>128</ele>
        <time>2021-05-17T13:23:00.000Z</time>
      </trkpt>
      <trkpt lat="44.89459" lon="0.65907">
        <ele>128.1</ele>
        <time>2021-05-17T13:23:01.000Z</time>
      </trkpt>
      <trkpt lat="44.89466" lon="0.65909">
        <ele>128.1</ele>
        <time>2021-05-17T13:23:03.000Z</time>
      </trkpt>
      <trkpt lat="44.89471" lon="0.6591">
        <ele>128.2</ele>
        <time>2021-05-17T13:23:04.000Z</time>
      </trkpt>
      <trkpt lat="44.89477" lon="0.65912">
        <ele>128.2</ele>
        <time>2021-05-17T13:23:05.000Z</time>
      </trkpt>
      <trkpt lat="44.89484" lon="0.65913">
        <ele>128.3</ele>
        <time>2021-05-17T13:23:06.000Z</time>
      </trkpt>
      <trkpt lat="44.89488" lon="0.65918">
        <ele>128.3</ele>
        <time>2021-05-17T13:23:07.000Z</time>
      </trkpt>
      <trkpt lat="44.89493" lon="0.65923">
        <ele>128.5</ele>
        <time>2021-05-17T13:23:08.000Z</time>
      </trkpt>
      <trkpt lat="44.89498" lon="0.65925">
        <ele>128.6</ele>
        <time>2021-05-17T13:23:09.000Z</time>
      </trkpt>
      <trkpt lat="44.89503" lon="0.6593">
        <ele>128.7</ele>
        <time>2021-05-17T13:23:10.000Z</time>
      </trkpt>
      <trkpt lat="44.89507" lon="0.65933">
        <ele>128.8</ele>
        <time>2021-05-17T13:23:11.000Z</time>
      </trkpt>
      <trkpt lat="44.89512" lon="0.65937">
        <ele>128.9</ele>
        <time>2021-05-17T13:23:12.000Z</time>
      </trkpt>
      <trkpt lat="44.89517" lon="0.65939">
        <ele>128.9</ele>
        <time>2021-05-17T13:23:13.000Z</time>
      </trkpt>
      <trkpt lat="44.89523" lon="0.65941">
        <ele>128.9</ele>
        <time>2021-05-17T13:23:14.000Z</time>
      </trkpt>
      <trkpt lat="44.8953" lon="0.65941">
        <ele>128.9</ele>
        <time>2021-05-17T13:23:15.000Z</time>
      </trkpt>
      <trkpt lat="44.89538" lon="0.65941">
        <ele>128.9</ele>
        <time>2021-05-17T13:23:16.000Z</time>
      </trkpt>
      <trkpt lat="44.89544" lon="0.65939">
        <ele>128.9</ele>
        <time>2021-05-17T13:23:17.000Z</time>
      </trkpt>
      <trkpt lat="44.89549" lon="0.65936">
        <ele>128.9</ele>
        <time>2021-05-17T13:23:18.000Z</time>
      </trkpt>
      <trkpt lat="44.89555" lon="0.65935">
        <ele>128.9</ele>
        <time>2021-05-17T13:23:19.000Z</time>
      </trkpt>
      <trkpt lat="44.89561" lon="0.65934">
        <ele>128.9</ele>
        <time>2021-05-17T13:23:20.000Z</time>
      </trkpt>
      <trkpt lat="44.89567" lon="0.65933">
        <ele>128.9</ele>
        <time>2021-05-17T13:23:21.000Z</time>
      </trkpt>
      <trkpt lat="44.89573" lon="0.65932">
        <ele>128.9</ele>
        <time>2021-05-17T13:23:22.000Z</time>
      </trkpt>
      <trkpt lat="44.89579" lon="0.6593">
        <ele>128.9</ele>
        <time>2021-05-17T13:23:23.000Z</time>
      </trkpt>
      <trkpt lat="44.89585" lon="0.65929">
        <ele>128.9</ele>
        <time>2021-05-17T13:23:24.000Z</time>
      </trkpt>
      <trkpt lat="44.89591" lon="0.65926">
        <ele>128.8</ele>
        <time>2021-05-17T13:23:25.000Z</time>
      </trkpt>
      <trkpt lat="44.89597" lon="0.65924">
        <ele>128.8</ele>
        <time>2021-05-17T13:23:26.000Z</time>
      </trkpt>
      <trkpt lat="44.89603" lon="0.65923">
        <ele>128.6</ele>
        <time>2021-05-17T13:23:27.000Z</time>
      </trkpt>
      <trkpt lat="44.89609" lon="0.65923">
        <ele>128.4</ele>
        <time>2021-05-17T13:23:28.000Z</time>
      </trkpt>
      <trkpt lat="44.89614" lon="0.65924">
        <ele>128.2</ele>
        <time>2021-05-17T13:23:29.000Z</time>
      </trkpt>
      <trkpt lat="44.8962" lon="0.65923">
        <ele>127.9</ele>
        <time>2021-05-17T13:23:30.000Z</time>
      </trkpt>
      <trkpt lat="44.89625" lon="0.65922">
        <ele>127.7</ele>
        <time>2021-05-17T13:23:31.000Z</time>
      </trkpt>
      <trkpt lat="44.89631" lon="0.65921">
        <ele>127.4</ele>
        <time>2021-05-17T13:23:32.000Z</time>
      </trkpt>
      <trkpt lat="44.89641" lon="0.6592">
        <ele>126.9</ele>
        <time>2021-05-17T13:23:33.000Z</time>
      </trkpt>
      <trkpt lat="44.89647" lon="0.65919">
        <ele>126.6</ele>
        <time>2021-05-17T13:23:34.000Z</time>
      </trkpt>
      <trkpt lat="44.89653" lon="0.6592">
        <ele>126.2</ele>
        <time>2021-05-17T13:23:35.000Z</time>
      </trkpt>
      <trkpt lat="44.89659" lon="0.65918">
        <ele>125.9</ele>
        <time>2021-05-17T13:23:36.000Z</time>
      </trkpt>
      <trkpt lat="44.89664" lon="0.65917">
        <ele>125.6</ele>
        <time>2021-05-17T13:23:37.000Z</time>
      </trkpt>
      <trkpt lat="44.89673" lon="0.65921">
        <ele>125.2</ele>
        <time>2021-05-17T13:23:38.000Z</time>
      </trkpt>
      <trkpt lat="44.8968" lon="0.65922">
        <ele>124.9</ele>
        <time>2021-05-17T13:23:39.000Z</time>
      </trkpt>
      <trkpt lat="44.89687" lon="0.65922">
        <ele>124.7</ele>
        <time>2021-05-17T13:23:40.000Z</time>
      </trkpt>
      <trkpt lat="44.89692" lon="0.65923">
        <ele>124.5</ele>
        <time>2021-05-17T13:23:41.000Z</time>
      </trkpt>
      <trkpt lat="44.89698" lon="0.65925">
        <ele>124.3</ele>
        <time>2021-05-17T13:23:42.000Z</time>
      </trkpt>
      <trkpt lat="44.89703" lon="0.65925">
        <ele>124.2</ele>
        <time>2021-05-17T13:23:43.000Z</time>
      </trkpt>
      <trkpt lat="44.89706" lon="0.65926">
        <ele>124.1</ele>
        <time>2021-05-17T13:23:44.000Z</time>
      </trkpt>
      <trkpt lat="44.8971" lon="0.65927">
        <ele>124</ele>
        <time>2021-05-17T13:23:45.000Z</time>
      </trkpt>
      <trkpt lat="44.89713" lon="0.65928">
        <ele>123.9</ele>
        <time>2021-05-17T13:23:46.000Z</time>
      </trkpt>
      <trkpt lat="44.89714" lon="0.65928">
        <ele>123.8</ele>
        <time>2021-05-17T13:23:47.000Z</time>
      </trkpt>
      <trkpt lat="44.89714" lon="0.65934">
        <ele>123.7</ele>
        <time>2021-05-17T13:23:48.000Z</time>
      </trkpt>
      <trkpt lat="44.89714" lon="0.6594">
        <ele>123.7</ele>
        <time>2021-05-17T13:23:49.000Z</time>
      </trkpt>
      <trkpt lat="44.89711" lon="0.65946">
        <ele>123.7</ele>
        <time>2021-05-17T13:23:50.000Z</time>
      </trkpt>
      <trkpt lat="44.89709" lon="0.65952">
        <ele>123.7</ele>
        <time>2021-05-17T13:23:51.000Z</time>
      </trkpt>
      <trkpt lat="44.89707" lon="0.65958">
        <ele>123.7</ele>
        <time>2021-05-17T13:23:52.000Z</time>
      </trkpt>
      <trkpt lat="44.89706" lon="0.65965">
        <ele>123.8</ele>
        <time>2021-05-17T13:23:53.000Z</time>
      </trkpt>
      <trkpt lat="44.89704" lon="0.65973">
        <ele>123.8</ele>
        <time>2021-05-17T13:23:54.000Z</time>
      </trkpt>
      <trkpt lat="44.89702" lon="0.6598">
        <ele>123.9</ele>
        <time>2021-05-17T13:23:55.000Z</time>
      </trkpt>
      <trkpt lat="44.897" lon="0.65986">
        <ele>124</ele>
        <time>2021-05-17T13:23:56.000Z</time>
      </trkpt>
      <trkpt lat="44.89699" lon="0.65993">
        <ele>124.1</ele>
        <time>2021-05-17T13:23:57.000Z</time>
      </trkpt>
      <trkpt lat="44.89697" lon="0.66001">
        <ele>124.2</ele>
        <time>2021-05-17T13:23:58.000Z</time>
      </trkpt>
      <trkpt lat="44.89696" lon="0.66008">
        <ele>124.3</ele>
        <time>2021-05-17T13:23:59.000Z</time>
      </trkpt>
      <trkpt lat="44.89694" lon="0.66014">
        <ele>124.4</ele>
        <time>2021-05-17T13:24:00.000Z</time>
      </trkpt>
      <trkpt lat="44.89692" lon="0.66021">
        <ele>124.5</ele>
        <time>2021-05-17T13:24:01.000Z</time>
      </trkpt>
      <trkpt lat="44.89691" lon="0.66027">
        <ele>124.6</ele>
        <time>2021-05-17T13:24:02.000Z</time>
      </trkpt>
      <trkpt lat="44.89689" lon="0.66033">
        <ele>124.7</ele>
        <time>2021-05-17T13:24:03.000Z</time>
      </trkpt>
      <trkpt lat="44.89687" lon="0.66041">
        <ele>124.8</ele>
        <time>2021-05-17T13:24:04.000Z</time>
      </trkpt>
      <trkpt lat="44.89686" lon="0.66047">
        <ele>124.9</ele>
        <time>2021-05-17T13:24:05.000Z</time>
      </trkpt>
      <trkpt lat="44.89684" lon="0.66054">
        <ele>125</ele>
        <time>2021-05-17T13:24:06.000Z</time>
      </trkpt>
      <trkpt lat="44.89682" lon="0.6606">
        <ele>125.1</ele>
        <time>2021-05-17T13:24:07.000Z</time>
      </trkpt>
      <trkpt lat="44.89681" lon="0.66066">
        <ele>125.1</ele>
        <time>2021-05-17T13:24:08.000Z</time>
      </trkpt>
      <trkpt lat="44.8968" lon="0.66072">
        <ele>125.1</ele>
        <time>2021-05-17T13:24:09.000Z</time>
      </trkpt>
      <trkpt lat="44.89678" lon="0.66079">
        <ele>125.2</ele>
        <time>2021-05-17T13:24:10.000Z</time>
      </trkpt>
      <trkpt lat="44.89676" lon="0.66086">
        <ele>125.2</ele>
        <time>2021-05-17T13:24:11.000Z</time>
      </trkpt>
      <trkpt lat="44.89673" lon="0.6609">
        <ele>125.1</ele>
        <time>2021-05-17T13:24:12.000Z</time>
      </trkpt>
      <trkpt lat="44.89669" lon="0.66092">
        <ele>125.1</ele>
        <time>2021-05-17T13:24:13.000Z</time>
      </trkpt>
      <trkpt lat="44.89665" lon="0.66095">
        <ele>124.9</ele>
        <time>2021-05-17T13:24:14.000Z</time>
      </trkpt>
      <trkpt lat="44.8966" lon="0.66096">
        <ele>124.7</ele>
        <time>2021-05-17T13:24:15.000Z</time>
      </trkpt>
      <trkpt lat="44.89655" lon="0.66098">
        <ele>124.5</ele>
        <time>2021-05-17T13:24:16.000Z</time>
      </trkpt>
      <trkpt lat="44.8965" lon="0.661">
        <ele>124.2</ele>
        <time>2021-05-17T13:24:17.000Z</time>
      </trkpt>
      <trkpt lat="44.89644" lon="0.66102">
        <ele>123.8</ele>
        <time>2021-05-17T13:24:18.000Z</time>
      </trkpt>
      <trkpt lat="44.89639" lon="0.66104">
        <ele>123.5</ele>
        <time>2021-05-17T13:24:19.000Z</time>
      </trkpt>
      <trkpt lat="44.89633" lon="0.66106">
        <ele>123.1</ele>
        <time>2021-05-17T13:24:20.000Z</time>
      </trkpt>
      <trkpt lat="44.89627" lon="0.66109">
        <ele>122.8</ele>
        <time>2021-05-17T13:24:21.000Z</time>
      </trkpt>
      <trkpt lat="44.89623" lon="0.66115">
        <ele>122.5</ele>
        <time>2021-05-17T13:24:22.000Z</time>
      </trkpt>
      <trkpt lat="44.8962" lon="0.66123">
        <ele>122.1</ele>
        <time>2021-05-17T13:24:23.000Z</time>
      </trkpt>
      <trkpt lat="44.89619" lon="0.66133">
        <ele>121.8</ele>
        <time>2021-05-17T13:24:24.000Z</time>
      </trkpt>
      <trkpt lat="44.8962" lon="0.66142">
        <ele>121.5</ele>
        <time>2021-05-17T13:24:25.000Z</time>
      </trkpt>
      <trkpt lat="44.8962" lon="0.66151">
        <ele>121.2</ele>
        <time>2021-05-17T13:24:26.000Z</time>
      </trkpt>
      <trkpt lat="44.89619" lon="0.66161">
        <ele>120.9</ele>
        <time>2021-05-17T13:24:27.000Z</time>
      </trkpt>
      <trkpt lat="44.89618" lon="0.66169">
        <ele>120.7</ele>
        <time>2021-05-17T13:24:28.000Z</time>
      </trkpt>
      <trkpt lat="44.89618" lon="0.66178">
        <ele>120.4</ele>
        <time>2021-05-17T13:24:29.000Z</time>
      </trkpt>
      <trkpt lat="44.89618" lon="0.66188">
        <ele>120.1</ele>
        <time>2021-05-17T13:24:30.000Z</time>
      </trkpt>
      <trkpt lat="44.89617" lon="0.66198">
        <ele>119.8</ele>
        <time>2021-05-17T13:24:31.000Z</time>
      </trkpt>
      <trkpt lat="44.89617" lon="0.66206">
        <ele>119.4</ele>
        <time>2021-05-17T13:24:32.000Z</time>
      </trkpt>
      <trkpt lat="44.89617" lon="0.66216">
        <ele>119</ele>
        <time>2021-05-17T13:24:33.000Z</time>
      </trkpt>
      <trkpt lat="44.89617" lon="0.66225">
        <ele>118.5</ele>
        <time>2021-05-17T13:24:34.000Z</time>
      </trkpt>
      <trkpt lat="44.89617" lon="0.66234">
        <ele>118</ele>
        <time>2021-05-17T13:24:35.000Z</time>
      </trkpt>
      <trkpt lat="44.89617" lon="0.66245">
        <ele>117.3</ele>
        <time>2021-05-17T13:24:36.000Z</time>
      </trkpt>
      <trkpt lat="44.89616" lon="0.66256">
        <ele>116.3</ele>
        <time>2021-05-17T13:24:37.000Z</time>
      </trkpt>
      <trkpt lat="44.89616" lon="0.66267">
        <ele>115.3</ele>
        <time>2021-05-17T13:24:38.000Z</time>
      </trkpt>
      <trkpt lat="44.89614" lon="0.66279">
        <ele>114.1</ele>
        <time>2021-05-17T13:24:39.000Z</time>
      </trkpt>
      <trkpt lat="44.89612" lon="0.66293">
        <ele>112.9</ele>
        <time>2021-05-17T13:24:40.000Z</time>
      </trkpt>
      <trkpt lat="44.89612" lon="0.66309">
        <ele>111.9</ele>
        <time>2021-05-17T13:24:41.000Z</time>
      </trkpt>
      <trkpt lat="44.89612" lon="0.66324">
        <ele>111.3</ele>
        <time>2021-05-17T13:24:42.000Z</time>
      </trkpt>
      <trkpt lat="44.89611" lon="0.6634">
        <ele>110.9</ele>
        <time>2021-05-17T13:24:43.000Z</time>
      </trkpt>
      <trkpt lat="44.89611" lon="0.66357">
        <ele>110.6</ele>
        <time>2021-05-17T13:24:44.000Z</time>
      </trkpt>
      <trkpt lat="44.89609" lon="0.66372">
        <ele>110.6</ele>
        <time>2021-05-17T13:24:45.000Z</time>
      </trkpt>
      <trkpt lat="44.89608" lon="0.66387">
        <ele>110.6</ele>
        <time>2021-05-17T13:24:46.000Z</time>
      </trkpt>
      <trkpt lat="44.89606" lon="0.66398">
        <ele>110.7</ele>
        <time>2021-05-17T13:24:47.000Z</time>
      </trkpt>
      <trkpt lat="44.89606" lon="0.6641">
        <ele>110.9</ele>
        <time>2021-05-17T13:24:48.000Z</time>
      </trkpt>
      <trkpt lat="44.89608" lon="0.6642">
        <ele>110.9</ele>
        <time>2021-05-17T13:24:49.000Z</time>
      </trkpt>
      <trkpt lat="44.89612" lon="0.66427">
        <ele>110.8</ele>
        <time>2021-05-17T13:24:50.000Z</time>
      </trkpt>
      <trkpt lat="44.89615" lon="0.66431">
        <ele>110.8</ele>
        <time>2021-05-17T13:24:51.000Z</time>
      </trkpt>
      <trkpt lat="44.89618" lon="0.66435">
        <ele>110.8</ele>
        <time>2021-05-17T13:24:52.000Z</time>
      </trkpt>
      <trkpt lat="44.89621" lon="0.66438">
        <ele>110.9</ele>
        <time>2021-05-17T13:24:53.000Z</time>
      </trkpt>
      <trkpt lat="44.89625" lon="0.66441">
        <ele>111</ele>
        <time>2021-05-17T13:24:54.000Z</time>
      </trkpt>
      <trkpt lat="44.89628" lon="0.66445">
        <ele>111.1</ele>
        <time>2021-05-17T13:24:55.000Z</time>
      </trkpt>
      <trkpt lat="44.89631" lon="0.6645">
        <ele>111.3</ele>
        <time>2021-05-17T13:24:56.000Z</time>
      </trkpt>
      <trkpt lat="44.89634" lon="0.66453">
        <ele>111.4</ele>
        <time>2021-05-17T13:24:57.000Z</time>
      </trkpt>
      <trkpt lat="44.89636" lon="0.66457">
        <ele>111.6</ele>
        <time>2021-05-17T13:24:58.000Z</time>
      </trkpt>
      <trkpt lat="44.89639" lon="0.66464">
        <ele>111.9</ele>
        <time>2021-05-17T13:24:59.000Z</time>
      </trkpt>
      <trkpt lat="44.89641" lon="0.66468">
        <ele>112.1</ele>
        <time>2021-05-17T13:25:00.000Z</time>
      </trkpt>
      <trkpt lat="44.89642" lon="0.66469">
        <ele>112.2</ele>
        <time>2021-05-17T13:25:01.000Z</time>
      </trkpt>
      <trkpt lat="44.89645" lon="0.66471">
        <ele>112.4</ele>
        <time>2021-05-17T13:25:02.000Z</time>
      </trkpt>
      <trkpt lat="44.89646" lon="0.66471">
        <ele>112.4</ele>
        <time>2021-05-17T13:25:03.000Z</time>
      </trkpt>
      <trkpt lat="44.89649" lon="0.66473">
        <ele>112.6</ele>
        <time>2021-05-17T13:25:04.000Z</time>
      </trkpt>
      <trkpt lat="44.89652" lon="0.66475">
        <ele>112.8</ele>
        <time>2021-05-17T13:25:05.000Z</time>
      </trkpt>
      <trkpt lat="44.89657" lon="0.66477">
        <ele>113.2</ele>
        <time>2021-05-17T13:25:06.000Z</time>
      </trkpt>
      <trkpt lat="44.89659" lon="0.66479">
        <ele>113.3</ele>
        <time>2021-05-17T13:25:07.000Z</time>
      </trkpt>
      <trkpt lat="44.89663" lon="0.66481">
        <ele>113.6</ele>
        <time>2021-05-17T13:25:09.000Z</time>
      </trkpt>
      <trkpt lat="44.89667" lon="0.66485">
        <ele>113.9</ele>
        <time>2021-05-17T13:25:10.000Z</time>
      </trkpt>
      <trkpt lat="44.89669" lon="0.66486">
        <ele>114</ele>
        <time>2021-05-17T13:25:11.000Z</time>
      </trkpt>
      <trkpt lat="44.89671" lon="0.6649">
        <ele>114.2</ele>
        <time>2021-05-17T13:25:12.000Z</time>
      </trkpt>
      <trkpt lat="44.89673" lon="0.66495">
        <ele>114.4</ele>
        <time>2021-05-17T13:25:13.000Z</time>
      </trkpt>
      <trkpt lat="44.89674" lon="0.66499">
        <ele>114.6</ele>
        <time>2021-05-17T13:25:14.000Z</time>
      </trkpt>
      <trkpt lat="44.89675" lon="0.66505">
        <ele>115</ele>
        <time>2021-05-17T13:25:15.000Z</time>
      </trkpt>
      <trkpt lat="44.89674" lon="0.6651">
        <ele>115.2</ele>
        <time>2021-05-17T13:25:16.000Z</time>
      </trkpt>
      <trkpt lat="44.89671" lon="0.66513">
        <ele>115.5</ele>
        <time>2021-05-17T13:25:17.000Z</time>
      </trkpt>
      <trkpt lat="44.89668" lon="0.66516">
        <ele>115.8</ele>
        <time>2021-05-17T13:25:18.000Z</time>
      </trkpt>
      <trkpt lat="44.89666" lon="0.66519">
        <ele>116</ele>
        <time>2021-05-17T13:25:19.000Z</time>
      </trkpt>
      <trkpt lat="44.89666" lon="0.66524">
        <ele>116.3</ele>
        <time>2021-05-17T13:25:20.000Z</time>
      </trkpt>
      <trkpt lat="44.89665" lon="0.66528">
        <ele>116.5</ele>
        <time>2021-05-17T13:25:21.000Z</time>
      </trkpt>
      <trkpt lat="44.89664" lon="0.66529">
        <ele>116.7</ele>
        <time>2021-05-17T13:25:22.000Z</time>
      </trkpt>
      <trkpt lat="44.8966" lon="0.66533">
        <ele>117</ele>
        <time>2021-05-17T13:25:23.000Z</time>
      </trkpt>
      <trkpt lat="44.89659" lon="0.66534">
        <ele>117.1</ele>
        <time>2021-05-17T13:25:24.000Z</time>
      </trkpt>
      <trkpt lat="44.89657" lon="0.66537">
        <ele>117.3</ele>
        <time>2021-05-17T13:25:25.000Z</time>
      </trkpt>
      <trkpt lat="44.89654" lon="0.66539">
        <ele>117.5</ele>
        <time>2021-05-17T13:25:26.000Z</time>
      </trkpt>
      <trkpt lat="44.89652" lon="0.66543">
        <ele>117.7</ele>
        <time>2021-05-17T13:25:27.000Z</time>
      </trkpt>
      <trkpt lat="44.89649" lon="0.66546">
        <ele>117.9</ele>
        <time>2021-05-17T13:25:28.000Z</time>
      </trkpt>
      <trkpt lat="44.89648" lon="0.66547">
        <ele>117.9</ele>
        <time>2021-05-17T13:25:29.000Z</time>
      </trkpt>
      <trkpt lat="44.89646" lon="0.66551">
        <ele>118.1</ele>
        <time>2021-05-17T13:25:30.000Z</time>
      </trkpt>
      <trkpt lat="44.89645" lon="0.66558">
        <ele>118.3</ele>
        <time>2021-05-17T13:25:31.000Z</time>
      </trkpt>
      <trkpt lat="44.89644" lon="0.66561">
        <ele>118.5</ele>
        <time>2021-05-17T13:25:32.000Z</time>
      </trkpt>
      <trkpt lat="44.89644" lon="0.66565">
        <ele>118.6</ele>
        <time>2021-05-17T13:25:33.000Z</time>
      </trkpt>
      <trkpt lat="44.89643" lon="0.66569">
        <ele>118.7</ele>
        <time>2021-05-17T13:25:34.000Z</time>
      </trkpt>
      <trkpt lat="44.89643" lon="0.66574">
        <ele>118.9</ele>
        <time>2021-05-17T13:25:35.000Z</time>
      </trkpt>
      <trkpt lat="44.8964" lon="0.66579">
        <ele>119.1</ele>
        <time>2021-05-17T13:25:36.000Z</time>
      </trkpt>
      <trkpt lat="44.89638" lon="0.66582">
        <ele>119.3</ele>
        <time>2021-05-17T13:25:37.000Z</time>
      </trkpt>
      <trkpt lat="44.89638" lon="0.66587">
        <ele>119.5</ele>
        <time>2021-05-17T13:25:38.000Z</time>
      </trkpt>
      <trkpt lat="44.89636" lon="0.66598">
        <ele>119.9</ele>
        <time>2021-05-17T13:25:39.000Z</time>
      </trkpt>
      <trkpt lat="44.89634" lon="0.66602">
        <ele>120.1</ele>
        <time>2021-05-17T13:25:40.000Z</time>
      </trkpt>
      <trkpt lat="44.89633" lon="0.66606">
        <ele>120.3</ele>
        <time>2021-05-17T13:25:41.000Z</time>
      </trkpt>
      <trkpt lat="44.89632" lon="0.66612">
        <ele>120.6</ele>
        <time>2021-05-17T13:25:42.000Z</time>
      </trkpt>
      <trkpt lat="44.89632" lon="0.66619">
        <ele>120.8</ele>
        <time>2021-05-17T13:25:43.000Z</time>
      </trkpt>
      <trkpt lat="44.89631" lon="0.66623">
        <ele>121</ele>
        <time>2021-05-17T13:25:44.000Z</time>
      </trkpt>
      <trkpt lat="44.89631" lon="0.66627">
        <ele>121.2</ele>
        <time>2021-05-17T13:25:45.000Z</time>
      </trkpt>
      <trkpt lat="44.89629" lon="0.66632">
        <ele>121.5</ele>
        <time>2021-05-17T13:25:46.000Z</time>
      </trkpt>
      <trkpt lat="44.89628" lon="0.66635">
        <ele>121.6</ele>
        <time>2021-05-17T13:25:47.000Z</time>
      </trkpt>
      <trkpt lat="44.89626" lon="0.66638">
        <ele>121.8</ele>
        <time>2021-05-17T13:25:48.000Z</time>
      </trkpt>
      <trkpt lat="44.89625" lon="0.6664">
        <ele>121.9</ele>
        <time>2021-05-17T13:25:49.000Z</time>
      </trkpt>
      <trkpt lat="44.89625" lon="0.66645">
        <ele>122.1</ele>
        <time>2021-05-17T13:25:50.000Z</time>
      </trkpt>
      <trkpt lat="44.89623" lon="0.6665">
        <ele>122.3</ele>
        <time>2021-05-17T13:25:51.000Z</time>
      </trkpt>
      <trkpt lat="44.89621" lon="0.66655">
        <ele>122.5</ele>
        <time>2021-05-17T13:25:52.000Z</time>
      </trkpt>
      <trkpt lat="44.89621" lon="0.66658">
        <ele>122.6</ele>
        <time>2021-05-17T13:25:53.000Z</time>
      </trkpt>
      <trkpt lat="44.8962" lon="0.66664">
        <ele>122.9</ele>
        <time>2021-05-17T13:25:54.000Z</time>
      </trkpt>
      <trkpt lat="44.8962" lon="0.66667">
        <ele>123</ele>
        <time>2021-05-17T13:25:55.000Z</time>
      </trkpt>
      <trkpt lat="44.89618" lon="0.66672">
        <ele>123.3</ele>
        <time>2021-05-17T13:25:56.000Z</time>
      </trkpt>
      <trkpt lat="44.89617" lon="0.66674">
        <ele>123.4</ele>
        <time>2021-05-17T13:25:57.000Z</time>
      </trkpt>
      <trkpt lat="44.89616" lon="0.66679">
        <ele>123.6</ele>
        <time>2021-05-17T13:25:58.000Z</time>
      </trkpt>
      <trkpt lat="44.89614" lon="0.66682">
        <ele>123.8</ele>
        <time>2021-05-17T13:25:59.000Z</time>
      </trkpt>
      <trkpt lat="44.89612" lon="0.66688">
        <ele>124</ele>
        <time>2021-05-17T13:26:00.000Z</time>
      </trkpt>
      <trkpt lat="44.89611" lon="0.66693">
        <ele>124.2</ele>
        <time>2021-05-17T13:26:01.000Z</time>
      </trkpt>
      <trkpt lat="44.89611" lon="0.66696">
        <ele>124.3</ele>
        <time>2021-05-17T13:26:02.000Z</time>
      </trkpt>
      <trkpt lat="44.89609" lon="0.66701">
        <ele>124.5</ele>
        <time>2021-05-17T13:26:03.000Z</time>
      </trkpt>
      <trkpt lat="44.89607" lon="0.66704">
        <ele>124.6</ele>
        <time>2021-05-17T13:26:04.000Z</time>
      </trkpt>
      <trkpt lat="44.89606" lon="0.66708">
        <ele>124.7</ele>
        <time>2021-05-17T13:26:05.000Z</time>
      </trkpt>
      <trkpt lat="44.89606" lon="0.6671">
        <ele>124.7</ele>
        <time>2021-05-17T13:26:06.000Z</time>
      </trkpt>
      <trkpt lat="44.89604" lon="0.66714">
        <ele>124.8</ele>
        <time>2021-05-17T13:26:07.000Z</time>
      </trkpt>
      <trkpt lat="44.89603" lon="0.66718">
        <ele>124.9</ele>
        <time>2021-05-17T13:26:08.000Z</time>
      </trkpt>
      <trkpt lat="44.89602" lon="0.66722">
        <ele>125</ele>
        <time>2021-05-17T13:26:09.000Z</time>
      </trkpt>
      <trkpt lat="44.89601" lon="0.66728">
        <ele>125</ele>
        <time>2021-05-17T13:26:10.000Z</time>
      </trkpt>
      <trkpt lat="44.89601" lon="0.66731">
        <ele>125.1</ele>
        <time>2021-05-17T13:26:11.000Z</time>
      </trkpt>
      <trkpt lat="44.896" lon="0.66735">
        <ele>125.1</ele>
        <time>2021-05-17T13:26:12.000Z</time>
      </trkpt>
      <trkpt lat="44.89599" lon="0.66737">
        <ele>125.1</ele>
        <time>2021-05-17T13:26:13.000Z</time>
      </trkpt>
      <trkpt lat="44.89599" lon="0.66741">
        <ele>125.2</ele>
        <time>2021-05-17T13:26:14.000Z</time>
      </trkpt>
      <trkpt lat="44.89597" lon="0.66745">
        <ele>125.3</ele>
        <time>2021-05-17T13:26:15.000Z</time>
      </trkpt>
      <trkpt lat="44.89596" lon="0.66747">
        <ele>125.3</ele>
        <time>2021-05-17T13:26:16.000Z</time>
      </trkpt>
      <trkpt lat="44.89595" lon="0.66752">
        <ele>125.3</ele>
        <time>2021-05-17T13:26:17.000Z</time>
      </trkpt>
      <trkpt lat="44.89595" lon="0.66754">
        <ele>125.4</ele>
        <time>2021-05-17T13:26:18.000Z</time>
      </trkpt>
      <trkpt lat="44.89594" lon="0.66758">
        <ele>125.4</ele>
        <time>2021-05-17T13:26:19.000Z</time>
      </trkpt>
      <trkpt lat="44.89591" lon="0.66763">
        <ele>125.5</ele>
        <time>2021-05-17T13:26:20.000Z</time>
      </trkpt>
      <trkpt lat="44.89589" lon="0.66767">
        <ele>125.5</ele>
        <time>2021-05-17T13:26:21.000Z</time>
      </trkpt>
      <trkpt lat="44.89588" lon="0.66771">
        <ele>125.6</ele>
        <time>2021-05-17T13:26:22.000Z</time>
      </trkpt>
      <trkpt lat="44.89587" lon="0.66777">
        <ele>125.6</ele>
        <time>2021-05-17T13:26:23.000Z</time>
      </trkpt>
      <trkpt lat="44.89585" lon="0.66781">
        <ele>125.7</ele>
        <time>2021-05-17T13:26:24.000Z</time>
      </trkpt>
      <trkpt lat="44.89585" lon="0.66784">
        <ele>125.7</ele>
        <time>2021-05-17T13:26:25.000Z</time>
      </trkpt>
      <trkpt lat="44.89583" lon="0.66789">
        <ele>125.8</ele>
        <time>2021-05-17T13:26:26.000Z</time>
      </trkpt>
      <trkpt lat="44.89582" lon="0.66792">
        <ele>125.8</ele>
        <time>2021-05-17T13:26:27.000Z</time>
      </trkpt>
      <trkpt lat="44.89582" lon="0.66797">
        <ele>125.9</ele>
        <time>2021-05-17T13:26:28.000Z</time>
      </trkpt>
      <trkpt lat="44.89581" lon="0.66799">
        <ele>125.9</ele>
        <time>2021-05-17T13:26:29.000Z</time>
      </trkpt>
      <trkpt lat="44.89581" lon="0.66805">
        <ele>126</ele>
        <time>2021-05-17T13:26:30.000Z</time>
      </trkpt>
      <trkpt lat="44.8958" lon="0.66807">
        <ele>126.1</ele>
        <time>2021-05-17T13:26:31.000Z</time>
      </trkpt>
      <trkpt lat="44.89579" lon="0.66811">
        <ele>126.2</ele>
        <time>2021-05-17T13:26:32.000Z</time>
      </trkpt>
      <trkpt lat="44.89578" lon="0.66814">
        <ele>126.2</ele>
        <time>2021-05-17T13:26:33.000Z</time>
      </trkpt>
      <trkpt lat="44.89577" lon="0.66817">
        <ele>126.3</ele>
        <time>2021-05-17T13:26:34.000Z</time>
      </trkpt>
      <trkpt lat="44.89577" lon="0.66819">
        <ele>126.3</ele>
        <time>2021-05-17T13:26:35.000Z</time>
      </trkpt>
      <trkpt lat="44.89577" lon="0.66823">
        <ele>126.4</ele>
        <time>2021-05-17T13:26:36.000Z</time>
      </trkpt>
      <trkpt lat="44.89576" lon="0.6683">
        <ele>126.5</ele>
        <time>2021-05-17T13:26:37.000Z</time>
      </trkpt>
      <trkpt lat="44.89573" lon="0.66837">
        <ele>126.7</ele>
        <time>2021-05-17T13:26:38.000Z</time>
      </trkpt>
      <trkpt lat="44.89572" lon="0.6684">
        <ele>126.8</ele>
        <time>2021-05-17T13:26:39.000Z</time>
      </trkpt>
      <trkpt lat="44.89571" lon="0.66846">
        <ele>126.9</ele>
        <time>2021-05-17T13:26:40.000Z</time>
      </trkpt>
      <trkpt lat="44.8957" lon="0.66851">
        <ele>127.1</ele>
        <time>2021-05-17T13:26:41.000Z</time>
      </trkpt>
      <trkpt lat="44.89567" lon="0.66853">
        <ele>127.2</ele>
        <time>2021-05-17T13:26:42.000Z</time>
      </trkpt>
      <trkpt lat="44.89566" lon="0.66855">
        <ele>127.3</ele>
        <time>2021-05-17T13:26:43.000Z</time>
      </trkpt>
      <trkpt lat="44.89566" lon="0.66857">
        <ele>127.4</ele>
        <time>2021-05-17T13:26:44.000Z</time>
      </trkpt>
      <trkpt lat="44.89565" lon="0.6686">
        <ele>127.4</ele>
        <time>2021-05-17T13:26:45.000Z</time>
      </trkpt>
      <trkpt lat="44.89564" lon="0.66865">
        <ele>127.6</ele>
        <time>2021-05-17T13:26:46.000Z</time>
      </trkpt>
      <trkpt lat="44.89564" lon="0.66871">
        <ele>127.8</ele>
        <time>2021-05-17T13:26:47.000Z</time>
      </trkpt>
      <trkpt lat="44.89564" lon="0.66874">
        <ele>127.9</ele>
        <time>2021-05-17T13:26:48.000Z</time>
      </trkpt>
      <trkpt lat="44.89563" lon="0.66877">
        <ele>128</ele>
        <time>2021-05-17T13:26:49.000Z</time>
      </trkpt>
      <trkpt lat="44.89562" lon="0.66881">
        <ele>128.1</ele>
        <time>2021-05-17T13:26:50.000Z</time>
      </trkpt>
      <trkpt lat="44.8956" lon="0.66887">
        <ele>128.3</ele>
        <time>2021-05-17T13:26:51.000Z</time>
      </trkpt>
      <trkpt lat="44.89558" lon="0.66894">
        <ele>128.5</ele>
        <time>2021-05-17T13:26:52.000Z</time>
      </trkpt>
      <trkpt lat="44.89556" lon="0.66901">
        <ele>128.7</ele>
        <time>2021-05-17T13:26:53.000Z</time>
      </trkpt>
      <trkpt lat="44.89553" lon="0.66905">
        <ele>128.8</ele>
        <time>2021-05-17T13:26:54.000Z</time>
      </trkpt>
      <trkpt lat="44.8955" lon="0.66908">
        <ele>128.9</ele>
        <time>2021-05-17T13:26:55.000Z</time>
      </trkpt>
      <trkpt lat="44.89549" lon="0.66909">
        <ele>128.9</ele>
        <time>2021-05-17T13:26:56.000Z</time>
      </trkpt>
      <trkpt lat="44.89547" lon="0.66913">
        <ele>128.9</ele>
        <time>2021-05-17T13:26:57.000Z</time>
      </trkpt>
      <trkpt lat="44.89546" lon="0.66917">
        <ele>129</ele>
        <time>2021-05-17T13:26:58.000Z</time>
      </trkpt>
      <trkpt lat="44.89544" lon="0.66921">
        <ele>129</ele>
        <time>2021-05-17T13:26:59.000Z</time>
      </trkpt>
      <trkpt lat="44.89541" lon="0.66926">
        <ele>129</ele>
        <time>2021-05-17T13:27:00.000Z</time>
      </trkpt>
      <trkpt lat="44.89539" lon="0.6693">
        <ele>129</ele>
        <time>2021-05-17T13:27:01.000Z</time>
      </trkpt>
      <trkpt lat="44.89537" lon="0.66935">
        <ele>128.9</ele>
        <time>2021-05-17T13:27:02.000Z</time>
      </trkpt>
      <trkpt lat="44.89536" lon="0.66938">
        <ele>128.9</ele>
        <time>2021-05-17T13:27:03.000Z</time>
      </trkpt>
      <trkpt lat="44.89535" lon="0.66942">
        <ele>128.9</ele>
        <time>2021-05-17T13:27:04.000Z</time>
      </trkpt>
      <trkpt lat="44.89535" lon="0.66944">
        <ele>128.9</ele>
        <time>2021-05-17T13:27:05.000Z</time>
      </trkpt>
      <trkpt lat="44.89534" lon="0.66945">
        <ele>128.8</ele>
        <time>2021-05-17T13:27:06.000Z</time>
      </trkpt>
      <trkpt lat="44.89533" lon="0.66947">
        <ele>128.8</ele>
        <time>2021-05-17T13:27:07.000Z</time>
      </trkpt>
      <trkpt lat="44.89531" lon="0.66952">
        <ele>128.8</ele>
        <time>2021-05-17T13:27:08.000Z</time>
      </trkpt>
      <trkpt lat="44.8953" lon="0.66957">
        <ele>128.7</ele>
        <time>2021-05-17T13:27:09.000Z</time>
      </trkpt>
      <trkpt lat="44.89528" lon="0.66961">
        <ele>128.7</ele>
        <time>2021-05-17T13:27:10.000Z</time>
      </trkpt>
      <trkpt lat="44.89528" lon="0.66963">
        <ele>128.6</ele>
        <time>2021-05-17T13:27:11.000Z</time>
      </trkpt>
      <trkpt lat="44.89502" lon="0.67203">
        <ele>125.6</ele>
        <time>2021-05-17T13:27:12.000Z</time>
      </trkpt>
      <trkpt lat="44.89499" lon="0.67213">
        <ele>125.4</ele>
        <time>2021-05-17T13:27:13.000Z</time>
      </trkpt>
      <trkpt lat="44.89498" lon="0.6722">
        <ele>125.3</ele>
        <time>2021-05-17T13:27:15.000Z</time>
      </trkpt>
      <trkpt lat="44.89496" lon="0.67227">
        <ele>125.2</ele>
        <time>2021-05-17T13:27:16.000Z</time>
      </trkpt>
      <trkpt lat="44.89495" lon="0.67234">
        <ele>125.2</ele>
        <time>2021-05-17T13:27:17.000Z</time>
      </trkpt>
      <trkpt lat="44.89494" lon="0.67244">
        <ele>125.1</ele>
        <time>2021-05-17T13:27:18.000Z</time>
      </trkpt>
      <trkpt lat="44.89493" lon="0.67253">
        <ele>125</ele>
        <time>2021-05-17T13:27:19.000Z</time>
      </trkpt>
      <trkpt lat="44.8949" lon="0.6726">
        <ele>125</ele>
        <time>2021-05-17T13:27:20.000Z</time>
      </trkpt>
      <trkpt lat="44.89489" lon="0.67268">
        <ele>125.1</ele>
        <time>2021-05-17T13:27:21.000Z</time>
      </trkpt>
      <trkpt lat="44.89487" lon="0.67276">
        <ele>125.3</ele>
        <time>2021-05-17T13:27:22.000Z</time>
      </trkpt>
      <trkpt lat="44.89485" lon="0.67283">
        <ele>125.4</ele>
        <time>2021-05-17T13:27:23.000Z</time>
      </trkpt>
      <trkpt lat="44.89484" lon="0.6729">
        <ele>125.5</ele>
        <time>2021-05-17T13:27:24.000Z</time>
      </trkpt>
      <trkpt lat="44.89482" lon="0.67298">
        <ele>125.7</ele>
        <time>2021-05-17T13:27:25.000Z</time>
      </trkpt>
      <trkpt lat="44.89481" lon="0.67305">
        <ele>125.8</ele>
        <time>2021-05-17T13:27:26.000Z</time>
      </trkpt>
      <trkpt lat="44.89493" lon="0.67078">
        <ele>126.8</ele>
        <time>2021-05-17T13:27:27.000Z</time>
      </trkpt>
      <trkpt lat="44.89491" lon="0.67083">
        <ele>126.8</ele>
        <time>2021-05-17T13:27:28.000Z</time>
      </trkpt>
      <trkpt lat="44.8949" lon="0.67088">
        <ele>126.7</ele>
        <time>2021-05-17T13:27:29.000Z</time>
      </trkpt>
      <trkpt lat="44.89489" lon="0.67093">
        <ele>126.7</ele>
        <time>2021-05-17T13:27:30.000Z</time>
      </trkpt>
      <trkpt lat="44.89489" lon="0.67099">
        <ele>126.6</ele>
        <time>2021-05-17T13:27:31.000Z</time>
      </trkpt>
      <trkpt lat="44.89488" lon="0.67102">
        <ele>126.6</ele>
        <time>2021-05-17T13:27:32.000Z</time>
      </trkpt>
      <trkpt lat="44.89486" lon="0.67106">
        <ele>126.6</ele>
        <time>2021-05-17T13:27:33.000Z</time>
      </trkpt>
      <trkpt lat="44.89484" lon="0.67111">
        <ele>126.5</ele>
        <time>2021-05-17T13:27:34.000Z</time>
      </trkpt>
      <trkpt lat="44.89486" lon="0.67113">
        <ele>126.5</ele>
        <time>2021-05-17T13:27:35.000Z</time>
      </trkpt>
      <trkpt lat="44.89482" lon="0.67125">
        <ele>126.4</ele>
        <time>2021-05-17T13:27:36.000Z</time>
      </trkpt>
      <trkpt lat="44.89477" lon="0.67127">
        <ele>126.3</ele>
        <time>2021-05-17T13:27:37.000Z</time>
      </trkpt>
      <trkpt lat="44.89471" lon="0.67131">
        <ele>126.2</ele>
        <time>2021-05-17T13:27:38.000Z</time>
      </trkpt>
      <trkpt lat="44.89466" lon="0.6714">
        <ele>126.1</ele>
        <time>2021-05-17T13:27:39.000Z</time>
      </trkpt>
      <trkpt lat="44.8946" lon="0.67141">
        <ele>126.1</ele>
        <time>2021-05-17T13:27:40.000Z</time>
      </trkpt>
      <trkpt lat="44.89455" lon="0.67144">
        <ele>126</ele>
        <time>2021-05-17T13:27:41.000Z</time>
      </trkpt>
      <trkpt lat="44.89452" lon="0.67145">
        <ele>126</ele>
        <time>2021-05-17T13:27:42.000Z</time>
      </trkpt>
      <trkpt lat="44.89451" lon="0.67146">
        <ele>126</ele>
        <time>2021-05-17T13:27:43.000Z</time>
      </trkpt>
      <trkpt lat="44.89454" lon="0.67374">
        <ele>127.4</ele>
        <time>2021-05-17T13:27:44.000Z</time>
      </trkpt>
      <trkpt lat="44.89449" lon="0.67385">
        <ele>127.5</ele>
        <time>2021-05-17T13:27:45.000Z</time>
      </trkpt>
      <trkpt lat="44.89445" lon="0.67396">
        <ele>127.6</ele>
        <time>2021-05-17T13:27:46.000Z</time>
      </trkpt>
      <trkpt lat="44.89441" lon="0.67406">
        <ele>127.4</ele>
        <time>2021-05-17T13:27:47.000Z</time>
      </trkpt>
      <trkpt lat="44.89437" lon="0.67417">
        <ele>127.1</ele>
        <time>2021-05-17T13:27:48.000Z</time>
      </trkpt>
      <trkpt lat="44.89436" lon="0.67424">
        <ele>127</ele>
        <time>2021-05-17T13:27:49.000Z</time>
      </trkpt>
      <trkpt lat="44.89436" lon="0.67428">
        <ele>126.9</ele>
        <time>2021-05-17T13:27:50.000Z</time>
      </trkpt>
      <trkpt lat="44.89435" lon="0.67434">
        <ele>126.7</ele>
        <time>2021-05-17T13:27:51.000Z</time>
      </trkpt>
      <trkpt lat="44.89435" lon="0.6744">
        <ele>126.6</ele>
        <time>2021-05-17T13:27:52.000Z</time>
      </trkpt>
      <trkpt lat="44.89435" lon="0.67444">
        <ele>126.5</ele>
        <time>2021-05-17T13:27:53.000Z</time>
      </trkpt>
      <trkpt lat="44.89435" lon="0.6745">
        <ele>126.3</ele>
        <time>2021-05-17T13:27:54.000Z</time>
      </trkpt>
      <trkpt lat="44.89436" lon="0.67457">
        <ele>126.1</ele>
        <time>2021-05-17T13:27:55.000Z</time>
      </trkpt>
      <trkpt lat="44.89437" lon="0.67464">
        <ele>125.9</ele>
        <time>2021-05-17T13:27:56.000Z</time>
      </trkpt>
      <trkpt lat="44.89438" lon="0.6747">
        <ele>125.7</ele>
        <time>2021-05-17T13:27:57.000Z</time>
      </trkpt>
      <trkpt lat="44.89438" lon="0.67476">
        <ele>125.6</ele>
        <time>2021-05-17T13:27:58.000Z</time>
      </trkpt>
      <trkpt lat="44.89439" lon="0.67481">
        <ele>125.4</ele>
        <time>2021-05-17T13:27:59.000Z</time>
      </trkpt>
      <trkpt lat="44.89439" lon="0.67486">
        <ele>125.2</ele>
        <time>2021-05-17T13:28:00.000Z</time>
      </trkpt>
      <trkpt lat="44.89441" lon="0.67492">
        <ele>125</ele>
        <time>2021-05-17T13:28:01.000Z</time>
      </trkpt>
      <trkpt lat="44.89441" lon="0.675">
        <ele>124.8</ele>
        <time>2021-05-17T13:28:02.000Z</time>
      </trkpt>
      <trkpt lat="44.89441" lon="0.67506">
        <ele>124.6</ele>
        <time>2021-05-17T13:28:03.000Z</time>
      </trkpt>
      <trkpt lat="44.8944" lon="0.67512">
        <ele>124.4</ele>
        <time>2021-05-17T13:28:04.000Z</time>
      </trkpt>
      <trkpt lat="44.8944" lon="0.67518">
        <ele>124.2</ele>
        <time>2021-05-17T13:28:05.000Z</time>
      </trkpt>
      <trkpt lat="44.89439" lon="0.67525">
        <ele>124</ele>
        <time>2021-05-17T13:28:06.000Z</time>
      </trkpt>
      <trkpt lat="44.89439" lon="0.6753">
        <ele>123.8</ele>
        <time>2021-05-17T13:28:07.000Z</time>
      </trkpt>
      <trkpt lat="44.89439" lon="0.67534">
        <ele>123.7</ele>
        <time>2021-05-17T13:28:08.000Z</time>
      </trkpt>
      <trkpt lat="44.8944" lon="0.67541">
        <ele>123.5</ele>
        <time>2021-05-17T13:28:09.000Z</time>
      </trkpt>
      <trkpt lat="44.8944" lon="0.6755">
        <ele>123.2</ele>
        <time>2021-05-17T13:28:10.000Z</time>
      </trkpt>
      <trkpt lat="44.89441" lon="0.67557">
        <ele>123</ele>
        <time>2021-05-17T13:28:11.000Z</time>
      </trkpt>
      <trkpt lat="44.89444" lon="0.67564">
        <ele>122.8</ele>
        <time>2021-05-17T13:28:12.000Z</time>
      </trkpt>
      <trkpt lat="44.89446" lon="0.67569">
        <ele>122.7</ele>
        <time>2021-05-17T13:28:13.000Z</time>
      </trkpt>
      <trkpt lat="44.89447" lon="0.67574">
        <ele>122.5</ele>
        <time>2021-05-17T13:28:14.000Z</time>
      </trkpt>
      <trkpt lat="44.89448" lon="0.67577">
        <ele>122.5</ele>
        <time>2021-05-17T13:28:15.000Z</time>
      </trkpt>
      <trkpt lat="44.89451" lon="0.67582">
        <ele>122.3</ele>
        <time>2021-05-17T13:28:16.000Z</time>
      </trkpt>
      <trkpt lat="44.89454" lon="0.67584">
        <ele>122.2</ele>
        <time>2021-05-17T13:28:17.000Z</time>
      </trkpt>
      <trkpt lat="44.89457" lon="0.67588">
        <ele>122.1</ele>
        <time>2021-05-17T13:28:18.000Z</time>
      </trkpt>
      <trkpt lat="44.89458" lon="0.6759">
        <ele>122</ele>
        <time>2021-05-17T13:28:19.000Z</time>
      </trkpt>
      <trkpt lat="44.89461" lon="0.67596">
        <ele>121.9</ele>
        <time>2021-05-17T13:28:20.000Z</time>
      </trkpt>
      <trkpt lat="44.89463" lon="0.67599">
        <ele>121.8</ele>
        <time>2021-05-17T13:28:21.000Z</time>
      </trkpt>
      <trkpt lat="44.89465" lon="0.67605">
        <ele>121.7</ele>
        <time>2021-05-17T13:28:22.000Z</time>
      </trkpt>
      <trkpt lat="44.89468" lon="0.67609">
        <ele>121.6</ele>
        <time>2021-05-17T13:28:23.000Z</time>
      </trkpt>
      <trkpt lat="44.89469" lon="0.67612">
        <ele>121.5</ele>
        <time>2021-05-17T13:28:24.000Z</time>
      </trkpt>
      <trkpt lat="44.8947" lon="0.67613">
        <ele>121.5</ele>
        <time>2021-05-17T13:28:25.000Z</time>
      </trkpt>
      <trkpt lat="44.89472" lon="0.67617">
        <ele>121.5</ele>
        <time>2021-05-17T13:28:26.000Z</time>
      </trkpt>
      <trkpt lat="44.89474" lon="0.6762">
        <ele>121.4</ele>
        <time>2021-05-17T13:28:27.000Z</time>
      </trkpt>
      <trkpt lat="44.89478" lon="0.6763">
        <ele>121.3</ele>
        <time>2021-05-17T13:28:28.000Z</time>
      </trkpt>
      <trkpt lat="44.8948" lon="0.67635">
        <ele>121.3</ele>
        <time>2021-05-17T13:28:29.000Z</time>
      </trkpt>
      <trkpt lat="44.89483" lon="0.67641">
        <ele>121.2</ele>
        <time>2021-05-17T13:28:30.000Z</time>
      </trkpt>
      <trkpt lat="44.89486" lon="0.67648">
        <ele>121.1</ele>
        <time>2021-05-17T13:28:31.000Z</time>
      </trkpt>
      <trkpt lat="44.8949" lon="0.67656">
        <ele>121</ele>
        <time>2021-05-17T13:28:32.000Z</time>
      </trkpt>
      <trkpt lat="44.89493" lon="0.67667">
        <ele>120.8</ele>
        <time>2021-05-17T13:28:33.000Z</time>
      </trkpt>
      <trkpt lat="44.89497" lon="0.67674">
        <ele>120.5</ele>
        <time>2021-05-17T13:28:34.000Z</time>
      </trkpt>
      <trkpt lat="44.89501" lon="0.67684">
        <ele>120.1</ele>
        <time>2021-05-17T13:28:35.000Z</time>
      </trkpt>
      <trkpt lat="44.89505" lon="0.67691">
        <ele>119.7</ele>
        <time>2021-05-17T13:28:36.000Z</time>
      </trkpt>
      <trkpt lat="44.89507" lon="0.67697">
        <ele>119.3</ele>
        <time>2021-05-17T13:28:37.000Z</time>
      </trkpt>
      <trkpt lat="44.8951" lon="0.67701">
        <ele>119.1</ele>
        <time>2021-05-17T13:28:38.000Z</time>
      </trkpt>
      <trkpt lat="44.89513" lon="0.67706">
        <ele>118.8</ele>
        <time>2021-05-17T13:28:39.000Z</time>
      </trkpt>
      <trkpt lat="44.89517" lon="0.67714">
        <ele>118.4</ele>
        <time>2021-05-17T13:28:40.000Z</time>
      </trkpt>
      <trkpt lat="44.8952" lon="0.67719">
        <ele>118.1</ele>
        <time>2021-05-17T13:28:41.000Z</time>
      </trkpt>
      <trkpt lat="44.89521" lon="0.67723">
        <ele>117.9</ele>
        <time>2021-05-17T13:28:42.000Z</time>
      </trkpt>
      <trkpt lat="44.89523" lon="0.67728">
        <ele>117.8</ele>
        <time>2021-05-17T13:28:43.000Z</time>
      </trkpt>
      <trkpt lat="44.89525" lon="0.67735">
        <ele>117.6</ele>
        <time>2021-05-17T13:28:44.000Z</time>
      </trkpt>
      <trkpt lat="44.89528" lon="0.67743">
        <ele>117.4</ele>
        <time>2021-05-17T13:28:45.000Z</time>
      </trkpt>
      <trkpt lat="44.8953" lon="0.67749">
        <ele>117.3</ele>
        <time>2021-05-17T13:28:46.000Z</time>
      </trkpt>
      <trkpt lat="44.89532" lon="0.67757">
        <ele>117.3</ele>
        <time>2021-05-17T13:28:47.000Z</time>
      </trkpt>
      <trkpt lat="44.89535" lon="0.67765">
        <ele>117.3</ele>
        <time>2021-05-17T13:28:48.000Z</time>
      </trkpt>
      <trkpt lat="44.89536" lon="0.6777">
        <ele>117.4</ele>
        <time>2021-05-17T13:28:49.000Z</time>
      </trkpt>
      <trkpt lat="44.89539" lon="0.67779">
        <ele>117.6</ele>
        <time>2021-05-17T13:28:50.000Z</time>
      </trkpt>
      <trkpt lat="44.89542" lon="0.67789">
        <ele>117.9</ele>
        <time>2021-05-17T13:28:51.000Z</time>
      </trkpt>
      <trkpt lat="44.89544" lon="0.67795">
        <ele>118.2</ele>
        <time>2021-05-17T13:28:52.000Z</time>
      </trkpt>
      <trkpt lat="44.89546" lon="0.678">
        <ele>118.4</ele>
        <time>2021-05-17T13:28:53.000Z</time>
      </trkpt>
      <trkpt lat="44.89548" lon="0.67807">
        <ele>118.8</ele>
        <time>2021-05-17T13:28:54.000Z</time>
      </trkpt>
      <trkpt lat="44.89551" lon="0.67813">
        <ele>119.3</ele>
        <time>2021-05-17T13:28:55.000Z</time>
      </trkpt>
      <trkpt lat="44.89554" lon="0.6782">
        <ele>119.8</ele>
        <time>2021-05-17T13:28:56.000Z</time>
      </trkpt>
      <trkpt lat="44.89556" lon="0.67827">
        <ele>120.3</ele>
        <time>2021-05-17T13:28:57.000Z</time>
      </trkpt>
      <trkpt lat="44.89559" lon="0.67834">
        <ele>120.9</ele>
        <time>2021-05-17T13:28:58.000Z</time>
      </trkpt>
      <trkpt lat="44.89563" lon="0.6784">
        <ele>121.3</ele>
        <time>2021-05-17T13:28:59.000Z</time>
      </trkpt>
      <trkpt lat="44.89565" lon="0.67845">
        <ele>121.6</ele>
        <time>2021-05-17T13:29:00.000Z</time>
      </trkpt>
      <trkpt lat="44.89568" lon="0.6785">
        <ele>121.9</ele>
        <time>2021-05-17T13:29:01.000Z</time>
      </trkpt>
      <trkpt lat="44.89571" lon="0.67857">
        <ele>122.2</ele>
        <time>2021-05-17T13:29:02.000Z</time>
      </trkpt>
      <trkpt lat="44.89574" lon="0.67861">
        <ele>122.4</ele>
        <time>2021-05-17T13:29:03.000Z</time>
      </trkpt>
      <trkpt lat="44.89577" lon="0.67866">
        <ele>122.6</ele>
        <time>2021-05-17T13:29:04.000Z</time>
      </trkpt>
      <trkpt lat="44.89579" lon="0.67869">
        <ele>122.6</ele>
        <time>2021-05-17T13:29:05.000Z</time>
      </trkpt>
      <trkpt lat="44.89583" lon="0.67876">
        <ele>122.7</ele>
        <time>2021-05-17T13:29:06.000Z</time>
      </trkpt>
      <trkpt lat="44.89585" lon="0.6788">
        <ele>122.7</ele>
        <time>2021-05-17T13:29:07.000Z</time>
      </trkpt>
      <trkpt lat="44.89589" lon="0.67886">
        <ele>122.6</ele>
        <time>2021-05-17T13:29:08.000Z</time>
      </trkpt>
      <trkpt lat="44.89591" lon="0.6789">
        <ele>122.5</ele>
        <time>2021-05-17T13:29:09.000Z</time>
      </trkpt>
      <trkpt lat="44.89593" lon="0.67895">
        <ele>122.3</ele>
        <time>2021-05-17T13:29:10.000Z</time>
      </trkpt>
      <trkpt lat="44.89595" lon="0.67902">
        <ele>122</ele>
        <time>2021-05-17T13:29:11.000Z</time>
      </trkpt>
      <trkpt lat="44.89597" lon="0.67911">
        <ele>121.6</ele>
        <time>2021-05-17T13:29:12.000Z</time>
      </trkpt>
      <trkpt lat="44.896" lon="0.67921">
        <ele>120.9</ele>
        <time>2021-05-17T13:29:13.000Z</time>
      </trkpt>
      <trkpt lat="44.89603" lon="0.67934">
        <ele>119.9</ele>
        <time>2021-05-17T13:29:14.000Z</time>
      </trkpt>
      <trkpt lat="44.89604" lon="0.67946">
        <ele>119</ele>
        <time>2021-05-17T13:29:15.000Z</time>
      </trkpt>
      <trkpt lat="44.89606" lon="0.67959">
        <ele>117.9</ele>
        <time>2021-05-17T13:29:16.000Z</time>
      </trkpt>
      <trkpt lat="44.89607" lon="0.67972">
        <ele>116.7</ele>
        <time>2021-05-17T13:29:17.000Z</time>
      </trkpt>
      <trkpt lat="44.89609" lon="0.67989">
        <ele>115.1</ele>
        <time>2021-05-17T13:29:18.000Z</time>
      </trkpt>
      <trkpt lat="44.8961" lon="0.68002">
        <ele>114</ele>
        <time>2021-05-17T13:29:19.000Z</time>
      </trkpt>
      <trkpt lat="44.89612" lon="0.68015">
        <ele>113.1</ele>
        <time>2021-05-17T13:29:21.000Z</time>
      </trkpt>
      <trkpt lat="44.89615" lon="0.68026">
        <ele>112.4</ele>
        <time>2021-05-17T13:29:22.000Z</time>
      </trkpt>
      <trkpt lat="44.89617" lon="0.68033">
        <ele>111.9</ele>
        <time>2021-05-17T13:29:23.000Z</time>
      </trkpt>
      <trkpt lat="44.89619" lon="0.68038">
        <ele>111.6</ele>
        <time>2021-05-17T13:29:24.000Z</time>
      </trkpt>
      <trkpt lat="44.89619" lon="0.68046">
        <ele>111.2</ele>
        <time>2021-05-17T13:29:25.000Z</time>
      </trkpt>
      <trkpt lat="44.89618" lon="0.68052">
        <ele>111</ele>
        <time>2021-05-17T13:29:26.000Z</time>
      </trkpt>
      <trkpt lat="44.89615" lon="0.68056">
        <ele>112.6</ele>
        <time>2021-05-17T13:29:27.000Z</time>
      </trkpt>
      <trkpt lat="44.89613" lon="0.68058">
        <ele>112.8</ele>
        <time>2021-05-17T13:29:28.000Z</time>
      </trkpt>
      <trkpt lat="44.89612" lon="0.68059">
        <ele>113</ele>
        <time>2021-05-17T13:29:29.000Z</time>
      </trkpt>
      <trkpt lat="44.8961" lon="0.6806">
        <ele>113.2</ele>
        <time>2021-05-17T13:29:30.000Z</time>
      </trkpt>
      <trkpt lat="44.89609" lon="0.68061">
        <ele>113.3</ele>
        <time>2021-05-17T13:29:31.000Z</time>
      </trkpt>
      <trkpt lat="44.89606" lon="0.68062">
        <ele>113.6</ele>
        <time>2021-05-17T13:29:32.000Z</time>
      </trkpt>
      <trkpt lat="44.89605" lon="0.68062">
        <ele>113.8</ele>
        <time>2021-05-17T13:29:33.000Z</time>
      </trkpt>
      <trkpt lat="44.89602" lon="0.68062">
        <ele>114.1</ele>
        <time>2021-05-17T13:29:34.000Z</time>
      </trkpt>
      <trkpt lat="44.89599" lon="0.68061">
        <ele>114.4</ele>
        <time>2021-05-17T13:29:35.000Z</time>
      </trkpt>
      <trkpt lat="44.89597" lon="0.68061">
        <ele>114.5</ele>
        <time>2021-05-17T13:29:36.000Z</time>
      </trkpt>
      <trkpt lat="44.89595" lon="0.6806">
        <ele>114.8</ele>
        <time>2021-05-17T13:29:37.000Z</time>
      </trkpt>
      <trkpt lat="44.89592" lon="0.6806">
        <ele>115.1</ele>
        <time>2021-05-17T13:29:38.000Z</time>
      </trkpt>
      <trkpt lat="44.89591" lon="0.6806">
        <ele>115.2</ele>
        <time>2021-05-17T13:29:39.000Z</time>
      </trkpt>
      <trkpt lat="44.89588" lon="0.6806">
        <ele>115.6</ele>
        <time>2021-05-17T13:29:40.000Z</time>
      </trkpt>
      <trkpt lat="44.89586" lon="0.6806">
        <ele>115.8</ele>
        <time>2021-05-17T13:29:41.000Z</time>
      </trkpt>
      <trkpt lat="44.89583" lon="0.68059">
        <ele>116.2</ele>
        <time>2021-05-17T13:29:42.000Z</time>
      </trkpt>
      <trkpt lat="44.89582" lon="0.68059">
        <ele>116.3</ele>
        <time>2021-05-17T13:29:43.000Z</time>
      </trkpt>
      <trkpt lat="44.89579" lon="0.68059">
        <ele>116.7</ele>
        <time>2021-05-17T13:29:44.000Z</time>
      </trkpt>
      <trkpt lat="44.89576" lon="0.6806">
        <ele>117.1</ele>
        <time>2021-05-17T13:29:45.000Z</time>
      </trkpt>
      <trkpt lat="44.89574" lon="0.68059">
        <ele>117.3</ele>
        <time>2021-05-17T13:29:46.000Z</time>
      </trkpt>
      <trkpt lat="44.89572" lon="0.6806">
        <ele>117.5</ele>
        <time>2021-05-17T13:29:47.000Z</time>
      </trkpt>
      <trkpt lat="44.89569" lon="0.68059">
        <ele>117.9</ele>
        <time>2021-05-17T13:29:48.000Z</time>
      </trkpt>
      <trkpt lat="44.89566" lon="0.6806">
        <ele>118.3</ele>
        <time>2021-05-17T13:29:49.000Z</time>
      </trkpt>
      <trkpt lat="44.89565" lon="0.6806">
        <ele>118.5</ele>
        <time>2021-05-17T13:29:50.000Z</time>
      </trkpt>
      <trkpt lat="44.89561" lon="0.68061">
        <ele>118.9</ele>
        <time>2021-05-17T13:29:51.000Z</time>
      </trkpt>
      <trkpt lat="44.8956" lon="0.68061">
        <ele>119.1</ele>
        <time>2021-05-17T13:29:52.000Z</time>
      </trkpt>
      <trkpt lat="44.89555" lon="0.68061">
        <ele>119.7</ele>
        <time>2021-05-17T13:29:53.000Z</time>
      </trkpt>
      <trkpt lat="44.89552" lon="0.6806">
        <ele>120</ele>
        <time>2021-05-17T13:29:54.000Z</time>
      </trkpt>
      <trkpt lat="44.89548" lon="0.6806">
        <ele>120.4</ele>
        <time>2021-05-17T13:29:55.000Z</time>
      </trkpt>
      <trkpt lat="44.89547" lon="0.68059">
        <ele>120.6</ele>
        <time>2021-05-17T13:29:56.000Z</time>
      </trkpt>
      <trkpt lat="44.89543" lon="0.68059">
        <ele>120.9</ele>
        <time>2021-05-17T13:29:57.000Z</time>
      </trkpt>
      <trkpt lat="44.89542" lon="0.68059">
        <ele>121.1</ele>
        <time>2021-05-17T13:29:58.000Z</time>
      </trkpt>
      <trkpt lat="44.89539" lon="0.68059">
        <ele>121.4</ele>
        <time>2021-05-17T13:29:59.000Z</time>
      </trkpt>
      <trkpt lat="44.89537" lon="0.68058">
        <ele>121.6</ele>
        <time>2021-05-17T13:30:00.000Z</time>
      </trkpt>
      <trkpt lat="44.89534" lon="0.68058">
        <ele>121.9</ele>
        <time>2021-05-17T13:30:01.000Z</time>
      </trkpt>
      <trkpt lat="44.89531" lon="0.68058">
        <ele>122.3</ele>
        <time>2021-05-17T13:30:02.000Z</time>
      </trkpt>
      <trkpt lat="44.8953" lon="0.68059">
        <ele>122.4</ele>
        <time>2021-05-17T13:30:03.000Z</time>
      </trkpt>
      <trkpt lat="44.89526" lon="0.68057">
        <ele>122.8</ele>
        <time>2021-05-17T13:30:04.000Z</time>
      </trkpt>
      <trkpt lat="44.89524" lon="0.68057">
        <ele>122.9</ele>
        <time>2021-05-17T13:30:05.000Z</time>
      </trkpt>
      <trkpt lat="44.89521" lon="0.68056">
        <ele>123.3</ele>
        <time>2021-05-17T13:30:06.000Z</time>
      </trkpt>
      <trkpt lat="44.89519" lon="0.68055">
        <ele>123.5</ele>
        <time>2021-05-17T13:30:07.000Z</time>
      </trkpt>
      <trkpt lat="44.89515" lon="0.68054">
        <ele>123.8</ele>
        <time>2021-05-17T13:30:08.000Z</time>
      </trkpt>
      <trkpt lat="44.89514" lon="0.68054">
        <ele>124</ele>
        <time>2021-05-17T13:30:09.000Z</time>
      </trkpt>
      <trkpt lat="44.8951" lon="0.68054">
        <ele>124.3</ele>
        <time>2021-05-17T13:30:10.000Z</time>
      </trkpt>
      <trkpt lat="44.89509" lon="0.68054">
        <ele>124.4</ele>
        <time>2021-05-17T13:30:11.000Z</time>
      </trkpt>
      <trkpt lat="44.89506" lon="0.68057">
        <ele>124.8</ele>
        <time>2021-05-17T13:30:12.000Z</time>
      </trkpt>
      <trkpt lat="44.89505" lon="0.68058">
        <ele>125</ele>
        <time>2021-05-17T13:30:13.000Z</time>
      </trkpt>
      <trkpt lat="44.89503" lon="0.6806">
        <ele>125.2</ele>
        <time>2021-05-17T13:30:14.000Z</time>
      </trkpt>
      <trkpt lat="44.89502" lon="0.68061">
        <ele>125.3</ele>
        <time>2021-05-17T13:30:15.000Z</time>
      </trkpt>
      <trkpt lat="44.895" lon="0.68064">
        <ele>125.7</ele>
        <time>2021-05-17T13:30:16.000Z</time>
      </trkpt>
      <trkpt lat="44.89499" lon="0.68065">
        <ele>125.8</ele>
        <time>2021-05-17T13:30:17.000Z</time>
      </trkpt>
      <trkpt lat="44.89496" lon="0.68067">
        <ele>126.1</ele>
        <time>2021-05-17T13:30:18.000Z</time>
      </trkpt>
      <trkpt lat="44.89495" lon="0.68069">
        <ele>126.3</ele>
        <time>2021-05-17T13:30:19.000Z</time>
      </trkpt>
      <trkpt lat="44.89492" lon="0.6807">
        <ele>126.5</ele>
        <time>2021-05-17T13:30:20.000Z</time>
      </trkpt>
      <trkpt lat="44.89489" lon="0.68074">
        <ele>126.9</ele>
        <time>2021-05-17T13:30:21.000Z</time>
      </trkpt>
      <trkpt lat="44.89487" lon="0.68075">
        <ele>127</ele>
        <time>2021-05-17T13:30:22.000Z</time>
      </trkpt>
      <trkpt lat="44.89485" lon="0.68078">
        <ele>127.2</ele>
        <time>2021-05-17T13:30:23.000Z</time>
      </trkpt>
      <trkpt lat="44.89482" lon="0.68081">
        <ele>127.5</ele>
        <time>2021-05-17T13:30:24.000Z</time>
      </trkpt>
      <trkpt lat="44.8948" lon="0.68082">
        <ele>127.6</ele>
        <time>2021-05-17T13:30:25.000Z</time>
      </trkpt>
      <trkpt lat="44.89477" lon="0.68082">
        <ele>127.8</ele>
        <time>2021-05-17T13:30:26.000Z</time>
      </trkpt>
      <trkpt lat="44.89474" lon="0.68082">
        <ele>128.1</ele>
        <time>2021-05-17T13:30:27.000Z</time>
      </trkpt>
      <trkpt lat="44.89471" lon="0.68082">
        <ele>128.3</ele>
        <time>2021-05-17T13:30:28.000Z</time>
      </trkpt>
      <trkpt lat="44.89467" lon="0.6808">
        <ele>128.6</ele>
        <time>2021-05-17T13:30:29.000Z</time>
      </trkpt>
      <trkpt lat="44.89465" lon="0.6808">
        <ele>128.7</ele>
        <time>2021-05-17T13:30:30.000Z</time>
      </trkpt>
      <trkpt lat="44.89461" lon="0.68078">
        <ele>128.9</ele>
        <time>2021-05-17T13:30:31.000Z</time>
      </trkpt>
      <trkpt lat="44.89457" lon="0.68077">
        <ele>129.1</ele>
        <time>2021-05-17T13:30:32.000Z</time>
      </trkpt>
      <trkpt lat="44.89454" lon="0.68077">
        <ele>129.3</ele>
        <time>2021-05-17T13:30:33.000Z</time>
      </trkpt>
      <trkpt lat="44.8945" lon="0.68075">
        <ele>129.5</ele>
        <time>2021-05-17T13:30:34.000Z</time>
      </trkpt>
      <trkpt lat="44.89449" lon="0.68075">
        <ele>129.5</ele>
        <time>2021-05-17T13:30:35.000Z</time>
      </trkpt>
      <trkpt lat="44.89446" lon="0.68073">
        <ele>129.6</ele>
        <time>2021-05-17T13:30:36.000Z</time>
      </trkpt>
      <trkpt lat="44.89442" lon="0.68072">
        <ele>129.8</ele>
        <time>2021-05-17T13:30:37.000Z</time>
      </trkpt>
      <trkpt lat="44.89439" lon="0.6807">
        <ele>129.9</ele>
        <time>2021-05-17T13:30:38.000Z</time>
      </trkpt>
      <trkpt lat="44.89436" lon="0.68067">
        <ele>130</ele>
        <time>2021-05-17T13:30:39.000Z</time>
      </trkpt>
      <trkpt lat="44.89433" lon="0.68064">
        <ele>130</ele>
        <time>2021-05-17T13:30:40.000Z</time>
      </trkpt>
      <trkpt lat="44.8943" lon="0.68061">
        <ele>130.1</ele>
        <time>2021-05-17T13:30:41.000Z</time>
      </trkpt>
      <trkpt lat="44.89426" lon="0.68058">
        <ele>130.2</ele>
        <time>2021-05-17T13:30:42.000Z</time>
      </trkpt>
      <trkpt lat="44.89423" lon="0.68056">
        <ele>130.3</ele>
        <time>2021-05-17T13:30:43.000Z</time>
      </trkpt>
      <trkpt lat="44.89419" lon="0.68054">
        <ele>130.4</ele>
        <time>2021-05-17T13:30:44.000Z</time>
      </trkpt>
      <trkpt lat="44.89413" lon="0.6805">
        <ele>130.4</ele>
        <time>2021-05-17T13:30:45.000Z</time>
      </trkpt>
      <trkpt lat="44.8941" lon="0.68048">
        <ele>130.5</ele>
        <time>2021-05-17T13:30:46.000Z</time>
      </trkpt>
      <trkpt lat="44.89405" lon="0.68045">
        <ele>130.5</ele>
        <time>2021-05-17T13:30:47.000Z</time>
      </trkpt>
      <trkpt lat="44.89402" lon="0.68043">
        <ele>130.5</ele>
        <time>2021-05-17T13:30:48.000Z</time>
      </trkpt>
      <trkpt lat="44.89399" lon="0.68042">
        <ele>130.5</ele>
        <time>2021-05-17T13:30:49.000Z</time>
      </trkpt>
      <trkpt lat="44.89394" lon="0.68041">
        <ele>130.5</ele>
        <time>2021-05-17T13:30:50.000Z</time>
      </trkpt>
      <trkpt lat="44.89389" lon="0.68038">
        <ele>130.6</ele>
        <time>2021-05-17T13:30:51.000Z</time>
      </trkpt>
      <trkpt lat="44.89386" lon="0.68036">
        <ele>130.6</ele>
        <time>2021-05-17T13:30:52.000Z</time>
      </trkpt>
      <trkpt lat="44.8938" lon="0.68035">
        <ele>130.6</ele>
        <time>2021-05-17T13:30:53.000Z</time>
      </trkpt>
      <trkpt lat="44.89377" lon="0.68034">
        <ele>130.6</ele>
        <time>2021-05-17T13:30:54.000Z</time>
      </trkpt>
      <trkpt lat="44.89371" lon="0.68035">
        <ele>130.7</ele>
        <time>2021-05-17T13:30:55.000Z</time>
      </trkpt>
      <trkpt lat="44.89367" lon="0.68037">
        <ele>130.8</ele>
        <time>2021-05-17T13:30:56.000Z</time>
      </trkpt>
      <trkpt lat="44.89365" lon="0.68039">
        <ele>130.8</ele>
        <time>2021-05-17T13:30:57.000Z</time>
      </trkpt>
      <trkpt lat="44.89364" lon="0.68041">
        <ele>130.9</ele>
        <time>2021-05-17T13:30:58.000Z</time>
      </trkpt>
      <trkpt lat="44.89362" lon="0.68042">
        <ele>130.9</ele>
        <time>2021-05-17T13:30:59.000Z</time>
      </trkpt>
      <trkpt lat="44.89359" lon="0.68044">
        <ele>131</ele>
        <time>2021-05-17T13:31:00.000Z</time>
      </trkpt>
      <trkpt lat="44.89356" lon="0.68047">
        <ele>131.1</ele>
        <time>2021-05-17T13:31:01.000Z</time>
      </trkpt>
      <trkpt lat="44.89352" lon="0.6805">
        <ele>131.2</ele>
        <time>2021-05-17T13:31:02.000Z</time>
      </trkpt>
      <trkpt lat="44.8935" lon="0.68052">
        <ele>131.2</ele>
        <time>2021-05-17T13:31:03.000Z</time>
      </trkpt>
      <trkpt lat="44.89346" lon="0.68055">
        <ele>131.4</ele>
        <time>2021-05-17T13:31:04.000Z</time>
      </trkpt>
      <trkpt lat="44.89343" lon="0.68059">
        <ele>131.4</ele>
        <time>2021-05-17T13:31:05.000Z</time>
      </trkpt>
      <trkpt lat="44.8934" lon="0.68061">
        <ele>131.5</ele>
        <time>2021-05-17T13:31:06.000Z</time>
      </trkpt>
      <trkpt lat="44.89338" lon="0.68062">
        <ele>131.6</ele>
        <time>2021-05-17T13:31:07.000Z</time>
      </trkpt>
      <trkpt lat="44.89336" lon="0.68063">
        <ele>131.6</ele>
        <time>2021-05-17T13:31:08.000Z</time>
      </trkpt>
      <trkpt lat="44.89332" lon="0.68066">
        <ele>131.7</ele>
        <time>2021-05-17T13:31:09.000Z</time>
      </trkpt>
      <trkpt lat="44.89328" lon="0.68066">
        <ele>131.8</ele>
        <time>2021-05-17T13:31:10.000Z</time>
      </trkpt>
      <trkpt lat="44.89325" lon="0.68066">
        <ele>131.8</ele>
        <time>2021-05-17T13:31:11.000Z</time>
      </trkpt>
      <trkpt lat="44.8932" lon="0.68069">
        <ele>131.8</ele>
        <time>2021-05-17T13:31:12.000Z</time>
      </trkpt>
      <trkpt lat="44.89316" lon="0.6807">
        <ele>131.8</ele>
        <time>2021-05-17T13:31:13.000Z</time>
      </trkpt>
      <trkpt lat="44.89311" lon="0.68071">
        <ele>131.7</ele>
        <time>2021-05-17T13:31:14.000Z</time>
      </trkpt>
      <trkpt lat="44.89305" lon="0.6807">
        <ele>131.5</ele>
        <time>2021-05-17T13:31:15.000Z</time>
      </trkpt>
      <trkpt lat="44.893" lon="0.68071">
        <ele>131.4</ele>
        <time>2021-05-17T13:31:16.000Z</time>
      </trkpt>
      <trkpt lat="44.89295" lon="0.68072">
        <ele>131.3</ele>
        <time>2021-05-17T13:31:17.000Z</time>
      </trkpt>
      <trkpt lat="44.8929" lon="0.68072">
        <ele>131.1</ele>
        <time>2021-05-17T13:31:18.000Z</time>
      </trkpt>
      <trkpt lat="44.89285" lon="0.68074">
        <ele>131</ele>
        <time>2021-05-17T13:31:19.000Z</time>
      </trkpt>
      <trkpt lat="44.89281" lon="0.68074">
        <ele>130.9</ele>
        <time>2021-05-17T13:31:20.000Z</time>
      </trkpt>
      <trkpt lat="44.89276" lon="0.68074">
        <ele>130.8</ele>
        <time>2021-05-17T13:31:21.000Z</time>
      </trkpt>
      <trkpt lat="44.89271" lon="0.68074">
        <ele>130.6</ele>
        <time>2021-05-17T13:31:22.000Z</time>
      </trkpt>
      <trkpt lat="44.89268" lon="0.68074">
        <ele>130.5</ele>
        <time>2021-05-17T13:31:23.000Z</time>
      </trkpt>
      <trkpt lat="44.89266" lon="0.68074">
        <ele>130.4</ele>
        <time>2021-05-17T13:31:24.000Z</time>
      </trkpt>
      <trkpt lat="44.89262" lon="0.68073">
        <ele>130.4</ele>
        <time>2021-05-17T13:31:25.000Z</time>
      </trkpt>
      <trkpt lat="44.89257" lon="0.68073">
        <ele>130.3</ele>
        <time>2021-05-17T13:31:27.000Z</time>
      </trkpt>
      <trkpt lat="44.89252" lon="0.68074">
        <ele>130.3</ele>
        <time>2021-05-17T13:31:28.000Z</time>
      </trkpt>
      <trkpt lat="44.89247" lon="0.68076">
        <ele>130.3</ele>
        <time>2021-05-17T13:31:29.000Z</time>
      </trkpt>
      <trkpt lat="44.89244" lon="0.68077">
        <ele>130.4</ele>
        <time>2021-05-17T13:31:30.000Z</time>
      </trkpt>
      <trkpt lat="44.8924" lon="0.68078">
        <ele>130.4</ele>
        <time>2021-05-17T13:31:31.000Z</time>
      </trkpt>
      <trkpt lat="44.89236" lon="0.68079">
        <ele>130.6</ele>
        <time>2021-05-17T13:31:32.000Z</time>
      </trkpt>
      <trkpt lat="44.89234" lon="0.68079">
        <ele>130.6</ele>
        <time>2021-05-17T13:31:33.000Z</time>
      </trkpt>
      <trkpt lat="44.89229" lon="0.68078">
        <ele>130.7</ele>
        <time>2021-05-17T13:31:34.000Z</time>
      </trkpt>
      <trkpt lat="44.89224" lon="0.68079">
        <ele>131</ele>
        <time>2021-05-17T13:31:35.000Z</time>
      </trkpt>
      <trkpt lat="44.89219" lon="0.68082">
        <ele>131.1</ele>
        <time>2021-05-17T13:31:36.000Z</time>
      </trkpt>
      <trkpt lat="44.89217" lon="0.68083">
        <ele>131.2</ele>
        <time>2021-05-17T13:31:37.000Z</time>
      </trkpt>
      <trkpt lat="44.89213" lon="0.68082">
        <ele>131.4</ele>
        <time>2021-05-17T13:31:38.000Z</time>
      </trkpt>
      <trkpt lat="44.89211" lon="0.68083">
        <ele>131.5</ele>
        <time>2021-05-17T13:31:39.000Z</time>
      </trkpt>
      <trkpt lat="44.89208" lon="0.68084">
        <ele>131.6</ele>
        <time>2021-05-17T13:31:40.000Z</time>
      </trkpt>
      <trkpt lat="44.89206" lon="0.68084">
        <ele>131.6</ele>
        <time>2021-05-17T13:31:41.000Z</time>
      </trkpt>
      <trkpt lat="44.89202" lon="0.68085">
        <ele>131.8</ele>
        <time>2021-05-17T13:31:42.000Z</time>
      </trkpt>
      <trkpt lat="44.89199" lon="0.68085">
        <ele>132</ele>
        <time>2021-05-17T13:31:43.000Z</time>
      </trkpt>
      <trkpt lat="44.89197" lon="0.68085">
        <ele>132</ele>
        <time>2021-05-17T13:31:44.000Z</time>
      </trkpt>
      <trkpt lat="44.89193" lon="0.68085">
        <ele>132.2</ele>
        <time>2021-05-17T13:31:45.000Z</time>
      </trkpt>
      <trkpt lat="44.89191" lon="0.68084">
        <ele>132.2</ele>
        <time>2021-05-17T13:31:46.000Z</time>
      </trkpt>
      <trkpt lat="44.89191" lon="0.68083">
        <ele>132.4</ele>
        <time>2021-05-17T13:31:47.000Z</time>
      </trkpt>
      <trkpt lat="44.89188" lon="0.68082">
        <ele>132.4</ele>
        <time>2021-05-17T13:31:48.000Z</time>
      </trkpt>
      <trkpt lat="44.89185" lon="0.6808">
        <ele>132.6</ele>
        <time>2021-05-17T13:31:49.000Z</time>
      </trkpt>
      <trkpt lat="44.89181" lon="0.68079">
        <ele>132.9</ele>
        <time>2021-05-17T13:31:50.000Z</time>
      </trkpt>
      <trkpt lat="44.89177" lon="0.68079">
        <ele>133.2</ele>
        <time>2021-05-17T13:31:51.000Z</time>
      </trkpt>
      <trkpt lat="44.89176" lon="0.68079">
        <ele>133.2</ele>
        <time>2021-05-17T13:31:52.000Z</time>
      </trkpt>
      <trkpt lat="44.89172" lon="0.6808">
        <ele>133.6</ele>
        <time>2021-05-17T13:31:53.000Z</time>
      </trkpt>
      <trkpt lat="44.89171" lon="0.6808">
        <ele>133.7</ele>
        <time>2021-05-17T13:31:54.000Z</time>
      </trkpt>
      <trkpt lat="44.89167" lon="0.68081">
        <ele>133.9</ele>
        <time>2021-05-17T13:31:55.000Z</time>
      </trkpt>
      <trkpt lat="44.89166" lon="0.68081">
        <ele>134.2</ele>
        <time>2021-05-17T13:31:56.000Z</time>
      </trkpt>
      <trkpt lat="44.89163" lon="0.68082">
        <ele>134.4</ele>
        <time>2021-05-17T13:31:57.000Z</time>
      </trkpt>
      <trkpt lat="44.89161" lon="0.68083">
        <ele>134.5</ele>
        <time>2021-05-17T13:31:58.000Z</time>
      </trkpt>
      <trkpt lat="44.89151" lon="0.6808">
        <ele>135.5</ele>
        <time>2021-05-17T13:31:59.000Z</time>
      </trkpt>
      <trkpt lat="44.89144" lon="0.6808">
        <ele>136</ele>
        <time>2021-05-17T13:32:00.000Z</time>
      </trkpt>
      <trkpt lat="44.89139" lon="0.68081">
        <ele>136.4</ele>
        <time>2021-05-17T13:32:01.000Z</time>
      </trkpt>
      <trkpt lat="44.89133" lon="0.6808">
        <ele>136.8</ele>
        <time>2021-05-17T13:32:02.000Z</time>
      </trkpt>
      <trkpt lat="44.89129" lon="0.68079">
        <ele>137</ele>
        <time>2021-05-17T13:32:03.000Z</time>
      </trkpt>
      <trkpt lat="44.89123" lon="0.6808">
        <ele>137.3</ele>
        <time>2021-05-17T13:32:04.000Z</time>
      </trkpt>
      <trkpt lat="44.89118" lon="0.68081">
        <ele>137.3</ele>
        <time>2021-05-17T13:32:05.000Z</time>
      </trkpt>
      <trkpt lat="44.89114" lon="0.68082">
        <ele>137.6</ele>
        <time>2021-05-17T13:32:06.000Z</time>
      </trkpt>
      <trkpt lat="44.89109" lon="0.68083">
        <ele>137.8</ele>
        <time>2021-05-17T13:32:07.000Z</time>
      </trkpt>
      <trkpt lat="44.89104" lon="0.68085">
        <ele>138.2</ele>
        <time>2021-05-17T13:32:08.000Z</time>
      </trkpt>
      <trkpt lat="44.891" lon="0.68085">
        <ele>138.3</ele>
        <time>2021-05-17T13:32:09.000Z</time>
      </trkpt>
      <trkpt lat="44.89095" lon="0.68085">
        <ele>138.6</ele>
        <time>2021-05-17T13:32:10.000Z</time>
      </trkpt>
      <trkpt lat="44.89092" lon="0.68083">
        <ele>138.8</ele>
        <time>2021-05-17T13:32:11.000Z</time>
      </trkpt>
      <trkpt lat="44.89087" lon="0.68083">
        <ele>139.2</ele>
        <time>2021-05-17T13:32:12.000Z</time>
      </trkpt>
      <trkpt lat="44.89081" lon="0.68082">
        <ele>139.5</ele>
        <time>2021-05-17T13:32:13.000Z</time>
      </trkpt>
      <trkpt lat="44.89075" lon="0.68082">
        <ele>139.8</ele>
        <time>2021-05-17T13:32:14.000Z</time>
      </trkpt>
      <trkpt lat="44.89071" lon="0.68083">
        <ele>140</ele>
        <time>2021-05-17T13:32:15.000Z</time>
      </trkpt>
      <trkpt lat="44.89065" lon="0.68084">
        <ele>140.2</ele>
        <time>2021-05-17T13:32:16.000Z</time>
      </trkpt>
      <trkpt lat="44.8906" lon="0.68083">
        <ele>140.4</ele>
        <time>2021-05-17T13:32:17.000Z</time>
      </trkpt>
      <trkpt lat="44.89053" lon="0.68086">
        <ele>140.3</ele>
        <time>2021-05-17T13:32:18.000Z</time>
      </trkpt>
      <trkpt lat="44.89046" lon="0.68088">
        <ele>140.5</ele>
        <time>2021-05-17T13:32:19.000Z</time>
      </trkpt>
      <trkpt lat="44.89041" lon="0.68088">
        <ele>140.7</ele>
        <time>2021-05-17T13:32:20.000Z</time>
      </trkpt>
      <trkpt lat="44.89034" lon="0.68087">
        <ele>141</ele>
        <time>2021-05-17T13:32:21.000Z</time>
      </trkpt>
      <trkpt lat="44.89026" lon="0.68085">
        <ele>141.6</ele>
        <time>2021-05-17T13:32:22.000Z</time>
      </trkpt>
      <trkpt lat="44.89021" lon="0.68084">
        <ele>141.7</ele>
        <time>2021-05-17T13:32:23.000Z</time>
      </trkpt>
      <trkpt lat="44.89016" lon="0.68083">
        <ele>141.9</ele>
        <time>2021-05-17T13:32:24.000Z</time>
      </trkpt>
      <trkpt lat="44.89004" lon="0.68081">
        <ele>142.2</ele>
        <time>2021-05-17T13:32:25.000Z</time>
      </trkpt>
      <trkpt lat="44.88997" lon="0.68079">
        <ele>142.4</ele>
        <time>2021-05-17T13:32:26.000Z</time>
      </trkpt>
      <trkpt lat="44.88991" lon="0.68078">
        <ele>142.5</ele>
        <time>2021-05-17T13:32:27.000Z</time>
      </trkpt>
      <trkpt lat="44.88987" lon="0.68078">
        <ele>142.4</ele>
        <time>2021-05-17T13:32:28.000Z</time>
      </trkpt>
      <trkpt lat="44.88979" lon="0.68077">
        <ele>142.3</ele>
        <time>2021-05-17T13:32:29.000Z</time>
      </trkpt>
      <trkpt lat="44.88969" lon="0.68075">
        <ele>142</ele>
        <time>2021-05-17T13:32:30.000Z</time>
      </trkpt>
      <trkpt lat="44.88959" lon="0.68074">
        <ele>141.6</ele>
        <time>2021-05-17T13:32:31.000Z</time>
      </trkpt>
      <trkpt lat="44.88949" lon="0.68072">
        <ele>141.2</ele>
        <time>2021-05-17T13:32:32.000Z</time>
      </trkpt>
      <trkpt lat="44.8894" lon="0.6807">
        <ele>141</ele>
        <time>2021-05-17T13:32:33.000Z</time>
      </trkpt>
      <trkpt lat="44.88932" lon="0.68069">
        <ele>140.8</ele>
        <time>2021-05-17T13:32:34.000Z</time>
      </trkpt>
      <trkpt lat="44.88925" lon="0.68065">
        <ele>140.6</ele>
        <time>2021-05-17T13:32:35.000Z</time>
      </trkpt>
      <trkpt lat="44.8892" lon="0.68061">
        <ele>140.4</ele>
        <time>2021-05-17T13:32:36.000Z</time>
      </trkpt>
      <trkpt lat="44.88915" lon="0.68058">
        <ele>140.2</ele>
        <time>2021-05-17T13:32:37.000Z</time>
      </trkpt>
      <trkpt lat="44.8891" lon="0.68054">
        <ele>140</ele>
        <time>2021-05-17T13:32:38.000Z</time>
      </trkpt>
      <trkpt lat="44.88906" lon="0.68049">
        <ele>139.9</ele>
        <time>2021-05-17T13:32:39.000Z</time>
      </trkpt>
      <trkpt lat="44.889" lon="0.68045">
        <ele>139.8</ele>
        <time>2021-05-17T13:32:40.000Z</time>
      </trkpt>
      <trkpt lat="44.88895" lon="0.68041">
        <ele>139.6</ele>
        <time>2021-05-17T13:32:41.000Z</time>
      </trkpt>
      <trkpt lat="44.88892" lon="0.68036">
        <ele>139.5</ele>
        <time>2021-05-17T13:32:42.000Z</time>
      </trkpt>
      <trkpt lat="44.88889" lon="0.6803">
        <ele>139.4</ele>
        <time>2021-05-17T13:32:43.000Z</time>
      </trkpt>
      <trkpt lat="44.88884" lon="0.68027">
        <ele>139.3</ele>
        <time>2021-05-17T13:32:44.000Z</time>
      </trkpt>
      <trkpt lat="44.88879" lon="0.68025">
        <ele>139.2</ele>
        <time>2021-05-17T13:32:45.000Z</time>
      </trkpt>
      <trkpt lat="44.88875" lon="0.68022">
        <ele>139.3</ele>
        <time>2021-05-17T13:32:46.000Z</time>
      </trkpt>
      <trkpt lat="44.88871" lon="0.6802">
        <ele>139.2</ele>
        <time>2021-05-17T13:32:47.000Z</time>
      </trkpt>
      <trkpt lat="44.88866" lon="0.68021">
        <ele>139.3</ele>
        <time>2021-05-17T13:32:48.000Z</time>
      </trkpt>
      <trkpt lat="44.88862" lon="0.68018">
        <ele>139.4</ele>
        <time>2021-05-17T13:32:49.000Z</time>
      </trkpt>
      <trkpt lat="44.88858" lon="0.68018">
        <ele>139.5</ele>
        <time>2021-05-17T13:32:50.000Z</time>
      </trkpt>
      <trkpt lat="44.88852" lon="0.68016">
        <ele>139.4</ele>
        <time>2021-05-17T13:32:51.000Z</time>
      </trkpt>
      <trkpt lat="44.88849" lon="0.68013">
        <ele>139.5</ele>
        <time>2021-05-17T13:32:52.000Z</time>
      </trkpt>
      <trkpt lat="44.88844" lon="0.68011">
        <ele>139.5</ele>
        <time>2021-05-17T13:32:53.000Z</time>
      </trkpt>
      <trkpt lat="44.88838" lon="0.68007">
        <ele>139.4</ele>
        <time>2021-05-17T13:32:54.000Z</time>
      </trkpt>
      <trkpt lat="44.88833" lon="0.68004">
        <ele>139.5</ele>
        <time>2021-05-17T13:32:55.000Z</time>
      </trkpt>
      <trkpt lat="44.88829" lon="0.68002">
        <ele>139.5</ele>
        <time>2021-05-17T13:32:56.000Z</time>
      </trkpt>
      <trkpt lat="44.88825" lon="0.67999">
        <ele>139.3</ele>
        <time>2021-05-17T13:32:57.000Z</time>
      </trkpt>
      <trkpt lat="44.8882" lon="0.67997">
        <ele>139.4</ele>
        <time>2021-05-17T13:32:58.000Z</time>
      </trkpt>
      <trkpt lat="44.88815" lon="0.67993">
        <ele>139.3</ele>
        <time>2021-05-17T13:32:59.000Z</time>
      </trkpt>
      <trkpt lat="44.88811" lon="0.67987">
        <ele>139.1</ele>
        <time>2021-05-17T13:33:00.000Z</time>
      </trkpt>
      <trkpt lat="44.88807" lon="0.6798">
        <ele>138.8</ele>
        <time>2021-05-17T13:33:01.000Z</time>
      </trkpt>
      <trkpt lat="44.88804" lon="0.67972">
        <ele>138.5</ele>
        <time>2021-05-17T13:33:02.000Z</time>
      </trkpt>
      <trkpt lat="44.88801" lon="0.67963">
        <ele>138.2</ele>
        <time>2021-05-17T13:33:03.000Z</time>
      </trkpt>
      <trkpt lat="44.88798" lon="0.67955">
        <ele>138</ele>
        <time>2021-05-17T13:33:04.000Z</time>
      </trkpt>
      <trkpt lat="44.88791" lon="0.67944">
        <ele>137.8</ele>
        <time>2021-05-17T13:33:05.000Z</time>
      </trkpt>
      <trkpt lat="44.88786" lon="0.67934">
        <ele>137.4</ele>
        <time>2021-05-17T13:33:06.000Z</time>
      </trkpt>
      <trkpt lat="44.88783" lon="0.67924">
        <ele>137.2</ele>
        <time>2021-05-17T13:33:07.000Z</time>
      </trkpt>
      <trkpt lat="44.88781" lon="0.67915">
        <ele>137</ele>
        <time>2021-05-17T13:33:08.000Z</time>
      </trkpt>
      <trkpt lat="44.88778" lon="0.67904">
        <ele>136.7</ele>
        <time>2021-05-17T13:33:09.000Z</time>
      </trkpt>
      <trkpt lat="44.88775" lon="0.67894">
        <ele>136.5</ele>
        <time>2021-05-17T13:33:10.000Z</time>
      </trkpt>
      <trkpt lat="44.88775" lon="0.67886">
        <ele>136.3</ele>
        <time>2021-05-17T13:33:11.000Z</time>
      </trkpt>
      <trkpt lat="44.88776" lon="0.67879">
        <ele>136.1</ele>
        <time>2021-05-17T13:33:12.000Z</time>
      </trkpt>
      <trkpt lat="44.88776" lon="0.67871">
        <ele>136.1</ele>
        <time>2021-05-17T13:33:13.000Z</time>
      </trkpt>
      <trkpt lat="44.88777" lon="0.67866">
        <ele>135.9</ele>
        <time>2021-05-17T13:33:14.000Z</time>
      </trkpt>
      <trkpt lat="44.88773" lon="0.67864">
        <ele>135.9</ele>
        <time>2021-05-17T13:33:15.000Z</time>
      </trkpt>
      <trkpt lat="44.88772" lon="0.67863">
        <ele>136</ele>
        <time>2021-05-17T13:33:16.000Z</time>
      </trkpt>
      <trkpt lat="44.88768" lon="0.67864">
        <ele>136</ele>
        <time>2021-05-17T13:33:17.000Z</time>
      </trkpt>
      <trkpt lat="44.88765" lon="0.67867">
        <ele>135.8</ele>
        <time>2021-05-17T13:33:18.000Z</time>
      </trkpt>
      <trkpt lat="44.88761" lon="0.67872">
        <ele>135.6</ele>
        <time>2021-05-17T13:33:19.000Z</time>
      </trkpt>
      <trkpt lat="44.88755" lon="0.67875">
        <ele>135.4</ele>
        <time>2021-05-17T13:33:20.000Z</time>
      </trkpt>
      <trkpt lat="44.88749" lon="0.67879">
        <ele>135.2</ele>
        <time>2021-05-17T13:33:21.000Z</time>
      </trkpt>
      <trkpt lat="44.88743" lon="0.67881">
        <ele>135</ele>
        <time>2021-05-17T13:33:22.000Z</time>
      </trkpt>
      <trkpt lat="44.88739" lon="0.67883">
        <ele>135</ele>
        <time>2021-05-17T13:33:23.000Z</time>
      </trkpt>
      <trkpt lat="44.88734" lon="0.67886">
        <ele>134.9</ele>
        <time>2021-05-17T13:33:24.000Z</time>
      </trkpt>
      <trkpt lat="44.88729" lon="0.67888">
        <ele>134.9</ele>
        <time>2021-05-17T13:33:25.000Z</time>
      </trkpt>
      <trkpt lat="44.88723" lon="0.67889">
        <ele>134.8</ele>
        <time>2021-05-17T13:33:26.000Z</time>
      </trkpt>
      <trkpt lat="44.88717" lon="0.67888">
        <ele>134.7</ele>
        <time>2021-05-17T13:33:27.000Z</time>
      </trkpt>
      <trkpt lat="44.88711" lon="0.67887">
        <ele>134.6</ele>
        <time>2021-05-17T13:33:28.000Z</time>
      </trkpt>
      <trkpt lat="44.88704" lon="0.67887">
        <ele>134.4</ele>
        <time>2021-05-17T13:33:29.000Z</time>
      </trkpt>
      <trkpt lat="44.88699" lon="0.67886">
        <ele>134.2</ele>
        <time>2021-05-17T13:33:30.000Z</time>
      </trkpt>
      <trkpt lat="44.88694" lon="0.67886">
        <ele>134</ele>
        <time>2021-05-17T13:33:31.000Z</time>
      </trkpt>
      <trkpt lat="44.88689" lon="0.67884">
        <ele>133.8</ele>
        <time>2021-05-17T13:33:33.000Z</time>
      </trkpt>
      <trkpt lat="44.88682" lon="0.67883">
        <ele>133.6</ele>
        <time>2021-05-17T13:33:34.000Z</time>
      </trkpt>
      <trkpt lat="44.88677" lon="0.67882">
        <ele>133.5</ele>
        <time>2021-05-17T13:33:35.000Z</time>
      </trkpt>
      <trkpt lat="44.8867" lon="0.67881">
        <ele>133.3</ele>
        <time>2021-05-17T13:33:36.000Z</time>
      </trkpt>
      <trkpt lat="44.88665" lon="0.67881">
        <ele>133.1</ele>
        <time>2021-05-17T13:33:37.000Z</time>
      </trkpt>
      <trkpt lat="44.88659" lon="0.67881">
        <ele>132.9</ele>
        <time>2021-05-17T13:33:38.000Z</time>
      </trkpt>
      <trkpt lat="44.88654" lon="0.67881">
        <ele>132.6</ele>
        <time>2021-05-17T13:33:39.000Z</time>
      </trkpt>
      <trkpt lat="44.88649" lon="0.67881">
        <ele>132.4</ele>
        <time>2021-05-17T13:33:40.000Z</time>
      </trkpt>
      <trkpt lat="44.88644" lon="0.67877">
        <ele>132.1</ele>
        <time>2021-05-17T13:33:41.000Z</time>
      </trkpt>
      <trkpt lat="44.8864" lon="0.67873">
        <ele>131.7</ele>
        <time>2021-05-17T13:33:42.000Z</time>
      </trkpt>
      <trkpt lat="44.88636" lon="0.67867">
        <ele>131.4</ele>
        <time>2021-05-17T13:33:43.000Z</time>
      </trkpt>
      <trkpt lat="44.88633" lon="0.67861">
        <ele>131.2</ele>
        <time>2021-05-17T13:33:44.000Z</time>
      </trkpt>
      <trkpt lat="44.88629" lon="0.67856">
        <ele>130.9</ele>
        <time>2021-05-17T13:33:45.000Z</time>
      </trkpt>
      <trkpt lat="44.88623" lon="0.67853">
        <ele>130.7</ele>
        <time>2021-05-17T13:33:46.000Z</time>
      </trkpt>
      <trkpt lat="44.8862" lon="0.6785">
        <ele>130.6</ele>
        <time>2021-05-17T13:33:47.000Z</time>
      </trkpt>
      <trkpt lat="44.88617" lon="0.67848">
        <ele>130.5</ele>
        <time>2021-05-17T13:33:48.000Z</time>
      </trkpt>
      <trkpt lat="44.88612" lon="0.67844">
        <ele>130.3</ele>
        <time>2021-05-17T13:33:49.000Z</time>
      </trkpt>
      <trkpt lat="44.8861" lon="0.67843">
        <ele>130.3</ele>
        <time>2021-05-17T13:33:50.000Z</time>
      </trkpt>
      <trkpt lat="44.88604" lon="0.67839">
        <ele>130.2</ele>
        <time>2021-05-17T13:33:51.000Z</time>
      </trkpt>
      <trkpt lat="44.886" lon="0.67834">
        <ele>130.1</ele>
        <time>2021-05-17T13:33:52.000Z</time>
      </trkpt>
      <trkpt lat="44.88597" lon="0.67831">
        <ele>130</ele>
        <time>2021-05-17T13:33:53.000Z</time>
      </trkpt>
      <trkpt lat="44.88593" lon="0.67829">
        <ele>130</ele>
        <time>2021-05-17T13:33:54.000Z</time>
      </trkpt>
      <trkpt lat="44.88589" lon="0.67827">
        <ele>130</ele>
        <time>2021-05-17T13:33:55.000Z</time>
      </trkpt>
      <trkpt lat="44.88583" lon="0.67825">
        <ele>129.9</ele>
        <time>2021-05-17T13:33:56.000Z</time>
      </trkpt>
      <trkpt lat="44.88579" lon="0.6782">
        <ele>129.9</ele>
        <time>2021-05-17T13:33:57.000Z</time>
      </trkpt>
      <trkpt lat="44.88574" lon="0.67818">
        <ele>129.9</ele>
        <time>2021-05-17T13:33:58.000Z</time>
      </trkpt>
      <trkpt lat="44.88571" lon="0.67815">
        <ele>130</ele>
        <time>2021-05-17T13:33:59.000Z</time>
      </trkpt>
      <trkpt lat="44.88567" lon="0.67811">
        <ele>130</ele>
        <time>2021-05-17T13:34:00.000Z</time>
      </trkpt>
      <trkpt lat="44.8856" lon="0.67808">
        <ele>130.1</ele>
        <time>2021-05-17T13:34:01.000Z</time>
      </trkpt>
      <trkpt lat="44.88554" lon="0.67805">
        <ele>130.2</ele>
        <time>2021-05-17T13:34:02.000Z</time>
      </trkpt>
      <trkpt lat="44.8855" lon="0.67804">
        <ele>130.3</ele>
        <time>2021-05-17T13:34:03.000Z</time>
      </trkpt>
      <trkpt lat="44.88544" lon="0.67802">
        <ele>130.5</ele>
        <time>2021-05-17T13:34:04.000Z</time>
      </trkpt>
      <trkpt lat="44.88539" lon="0.678">
        <ele>130.7</ele>
        <time>2021-05-17T13:34:05.000Z</time>
      </trkpt>
      <trkpt lat="44.88529" lon="0.67794">
        <ele>131</ele>
        <time>2021-05-17T13:34:06.000Z</time>
      </trkpt>
      <trkpt lat="44.88526" lon="0.67791">
        <ele>131.1</ele>
        <time>2021-05-17T13:34:07.000Z</time>
      </trkpt>
      <trkpt lat="44.88523" lon="0.67789">
        <ele>131.3</ele>
        <time>2021-05-17T13:34:08.000Z</time>
      </trkpt>
      <trkpt lat="44.88515" lon="0.67785">
        <ele>131.6</ele>
        <time>2021-05-17T13:34:09.000Z</time>
      </trkpt>
      <trkpt lat="44.88509" lon="0.67781">
        <ele>131.9</ele>
        <time>2021-05-17T13:34:10.000Z</time>
      </trkpt>
      <trkpt lat="44.88504" lon="0.67779">
        <ele>132.1</ele>
        <time>2021-05-17T13:34:11.000Z</time>
      </trkpt>
      <trkpt lat="44.88502" lon="0.67777">
        <ele>132.3</ele>
        <time>2021-05-17T13:34:12.000Z</time>
      </trkpt>
      <trkpt lat="44.88495" lon="0.67774">
        <ele>132.5</ele>
        <time>2021-05-17T13:34:13.000Z</time>
      </trkpt>
      <trkpt lat="44.88491" lon="0.67773">
        <ele>132.7</ele>
        <time>2021-05-17T13:34:14.000Z</time>
      </trkpt>
      <trkpt lat="44.88486" lon="0.67771">
        <ele>132.9</ele>
        <time>2021-05-17T13:34:15.000Z</time>
      </trkpt>
      <trkpt lat="44.88481" lon="0.67768">
        <ele>133</ele>
        <time>2021-05-17T13:34:16.000Z</time>
      </trkpt>
      <trkpt lat="44.88477" lon="0.67767">
        <ele>133.2</ele>
        <time>2021-05-17T13:34:17.000Z</time>
      </trkpt>
      <trkpt lat="44.88472" lon="0.67766">
        <ele>133.3</ele>
        <time>2021-05-17T13:34:18.000Z</time>
      </trkpt>
      <trkpt lat="44.88468" lon="0.67763">
        <ele>133.4</ele>
        <time>2021-05-17T13:34:19.000Z</time>
      </trkpt>
      <trkpt lat="44.88461" lon="0.67759">
        <ele>133.5</ele>
        <time>2021-05-17T13:34:20.000Z</time>
      </trkpt>
      <trkpt lat="44.88455" lon="0.67757">
        <ele>133.5</ele>
        <time>2021-05-17T13:34:21.000Z</time>
      </trkpt>
      <trkpt lat="44.88449" lon="0.67755">
        <ele>133.4</ele>
        <time>2021-05-17T13:34:22.000Z</time>
      </trkpt>
      <trkpt lat="44.88446" lon="0.67754">
        <ele>133.4</ele>
        <time>2021-05-17T13:34:23.000Z</time>
      </trkpt>
      <trkpt lat="44.8844" lon="0.67751">
        <ele>133.2</ele>
        <time>2021-05-17T13:34:24.000Z</time>
      </trkpt>
      <trkpt lat="44.88436" lon="0.67747">
        <ele>133</ele>
        <time>2021-05-17T13:34:25.000Z</time>
      </trkpt>
      <trkpt lat="44.88432" lon="0.67743">
        <ele>132.9</ele>
        <time>2021-05-17T13:34:26.000Z</time>
      </trkpt>
      <trkpt lat="44.88425" lon="0.67741">
        <ele>132.7</ele>
        <time>2021-05-17T13:34:27.000Z</time>
      </trkpt>
      <trkpt lat="44.88419" lon="0.67737">
        <ele>132.4</ele>
        <time>2021-05-17T13:34:28.000Z</time>
      </trkpt>
      <trkpt lat="44.88413" lon="0.67736">
        <ele>132.2</ele>
        <time>2021-05-17T13:34:29.000Z</time>
      </trkpt>
      <trkpt lat="44.88409" lon="0.67732">
        <ele>132</ele>
        <time>2021-05-17T13:34:30.000Z</time>
      </trkpt>
      <trkpt lat="44.88404" lon="0.67726">
        <ele>131.7</ele>
        <time>2021-05-17T13:34:31.000Z</time>
      </trkpt>
      <trkpt lat="44.884" lon="0.67722">
        <ele>131.5</ele>
        <time>2021-05-17T13:34:32.000Z</time>
      </trkpt>
      <trkpt lat="44.88392" lon="0.67719">
        <ele>131.1</ele>
        <time>2021-05-17T13:34:33.000Z</time>
      </trkpt>
      <trkpt lat="44.88385" lon="0.67718">
        <ele>130.8</ele>
        <time>2021-05-17T13:34:34.000Z</time>
      </trkpt>
      <trkpt lat="44.88378" lon="0.67716">
        <ele>130.4</ele>
        <time>2021-05-17T13:34:35.000Z</time>
      </trkpt>
      <trkpt lat="44.88372" lon="0.67714">
        <ele>130.1</ele>
        <time>2021-05-17T13:34:36.000Z</time>
      </trkpt>
      <trkpt lat="44.88368" lon="0.67712">
        <ele>129.9</ele>
        <time>2021-05-17T13:34:37.000Z</time>
      </trkpt>
      <trkpt lat="44.88363" lon="0.6771">
        <ele>129.8</ele>
        <time>2021-05-17T13:34:38.000Z</time>
      </trkpt>
      <trkpt lat="44.88358" lon="0.67706">
        <ele>129.6</ele>
        <time>2021-05-17T13:34:39.000Z</time>
      </trkpt>
      <trkpt lat="44.8835" lon="0.67704">
        <ele>129.4</ele>
        <time>2021-05-17T13:34:40.000Z</time>
      </trkpt>
      <trkpt lat="44.88343" lon="0.67701">
        <ele>129.2</ele>
        <time>2021-05-17T13:34:41.000Z</time>
      </trkpt>
      <trkpt lat="44.88338" lon="0.67697">
        <ele>129.1</ele>
        <time>2021-05-17T13:34:42.000Z</time>
      </trkpt>
      <trkpt lat="44.8833" lon="0.67695">
        <ele>129</ele>
        <time>2021-05-17T13:34:43.000Z</time>
      </trkpt>
      <trkpt lat="44.88325" lon="0.67693">
        <ele>128.8</ele>
        <time>2021-05-17T13:34:44.000Z</time>
      </trkpt>
      <trkpt lat="44.88319" lon="0.67691">
        <ele>128.7</ele>
        <time>2021-05-17T13:34:45.000Z</time>
      </trkpt>
      <trkpt lat="44.88317" lon="0.6769">
        <ele>128.7</ele>
        <time>2021-05-17T13:34:46.000Z</time>
      </trkpt>
      <trkpt lat="44.88313" lon="0.67689">
        <ele>128.6</ele>
        <time>2021-05-17T13:34:47.000Z</time>
      </trkpt>
      <trkpt lat="44.88309" lon="0.67687">
        <ele>128.6</ele>
        <time>2021-05-17T13:34:48.000Z</time>
      </trkpt>
      <trkpt lat="44.88306" lon="0.67686">
        <ele>128.6</ele>
        <time>2021-05-17T13:34:49.000Z</time>
      </trkpt>
      <trkpt lat="44.88303" lon="0.67683">
        <ele>128.6</ele>
        <time>2021-05-17T13:34:50.000Z</time>
      </trkpt>
      <trkpt lat="44.883" lon="0.67681">
        <ele>128.5</ele>
        <time>2021-05-17T13:34:51.000Z</time>
      </trkpt>
      <trkpt lat="44.88296" lon="0.67679">
        <ele>128.5</ele>
        <time>2021-05-17T13:34:52.000Z</time>
      </trkpt>
      <trkpt lat="44.88292" lon="0.67673">
        <ele>128.5</ele>
        <time>2021-05-17T13:34:53.000Z</time>
      </trkpt>
      <trkpt lat="44.88288" lon="0.67669">
        <ele>128.6</ele>
        <time>2021-05-17T13:34:54.000Z</time>
      </trkpt>
      <trkpt lat="44.88284" lon="0.67666">
        <ele>128.6</ele>
        <time>2021-05-17T13:34:55.000Z</time>
      </trkpt>
      <trkpt lat="44.8828" lon="0.6766">
        <ele>128.7</ele>
        <time>2021-05-17T13:34:56.000Z</time>
      </trkpt>
      <trkpt lat="44.88277" lon="0.67658">
        <ele>128.8</ele>
        <time>2021-05-17T13:34:57.000Z</time>
      </trkpt>
      <trkpt lat="44.88273" lon="0.67653">
        <ele>128.9</ele>
        <time>2021-05-17T13:34:58.000Z</time>
      </trkpt>
      <trkpt lat="44.8827" lon="0.67649">
        <ele>128.9</ele>
        <time>2021-05-17T13:34:59.000Z</time>
      </trkpt>
      <trkpt lat="44.88267" lon="0.67645">
        <ele>129</ele>
        <time>2021-05-17T13:35:00.000Z</time>
      </trkpt>
      <trkpt lat="44.88265" lon="0.6764">
        <ele>129.2</ele>
        <time>2021-05-17T13:35:01.000Z</time>
      </trkpt>
      <trkpt lat="44.88263" lon="0.67636">
        <ele>129.2</ele>
        <time>2021-05-17T13:35:02.000Z</time>
      </trkpt>
      <trkpt lat="44.88261" lon="0.67631">
        <ele>129.4</ele>
        <time>2021-05-17T13:35:03.000Z</time>
      </trkpt>
      <trkpt lat="44.88257" lon="0.67629">
        <ele>129.5</ele>
        <time>2021-05-17T13:35:04.000Z</time>
      </trkpt>
      <trkpt lat="44.88254" lon="0.67625">
        <ele>129.6</ele>
        <time>2021-05-17T13:35:05.000Z</time>
      </trkpt>
      <trkpt lat="44.88252" lon="0.6762">
        <ele>129.6</ele>
        <time>2021-05-17T13:35:06.000Z</time>
      </trkpt>
      <trkpt lat="44.88246" lon="0.67616">
        <ele>129.7</ele>
        <time>2021-05-17T13:35:07.000Z</time>
      </trkpt>
      <trkpt lat="44.88241" lon="0.67612">
        <ele>129.7</ele>
        <time>2021-05-17T13:35:08.000Z</time>
      </trkpt>
      <trkpt lat="44.88236" lon="0.67608">
        <ele>129.7</ele>
        <time>2021-05-17T13:35:09.000Z</time>
      </trkpt>
      <trkpt lat="44.88234" lon="0.67604">
        <ele>129.7</ele>
        <time>2021-05-17T13:35:10.000Z</time>
      </trkpt>
      <trkpt lat="44.88231" lon="0.67601">
        <ele>129.6</ele>
        <time>2021-05-17T13:35:11.000Z</time>
      </trkpt>
      <trkpt lat="44.88228" lon="0.676">
        <ele>129.6</ele>
        <time>2021-05-17T13:35:12.000Z</time>
      </trkpt>
      <trkpt lat="44.88223" lon="0.67596">
        <ele>129.5</ele>
        <time>2021-05-17T13:35:13.000Z</time>
      </trkpt>
      <trkpt lat="44.88221" lon="0.67592">
        <ele>129.4</ele>
        <time>2021-05-17T13:35:14.000Z</time>
      </trkpt>
      <trkpt lat="44.88217" lon="0.6759">
        <ele>129.3</ele>
        <time>2021-05-17T13:35:15.000Z</time>
      </trkpt>
      <trkpt lat="44.88212" lon="0.67587">
        <ele>129.1</ele>
        <time>2021-05-17T13:35:16.000Z</time>
      </trkpt>
      <trkpt lat="44.88207" lon="0.67584">
        <ele>128.9</ele>
        <time>2021-05-17T13:35:17.000Z</time>
      </trkpt>
      <trkpt lat="44.88204" lon="0.6758">
        <ele>128.8</ele>
        <time>2021-05-17T13:35:18.000Z</time>
      </trkpt>
      <trkpt lat="44.88201" lon="0.67574">
        <ele>128.6</ele>
        <time>2021-05-17T13:35:19.000Z</time>
      </trkpt>
      <trkpt lat="44.88199" lon="0.67569">
        <ele>128.4</ele>
        <time>2021-05-17T13:35:20.000Z</time>
      </trkpt>
      <trkpt lat="44.88196" lon="0.67563">
        <ele>128.3</ele>
        <time>2021-05-17T13:35:21.000Z</time>
      </trkpt>
      <trkpt lat="44.88195" lon="0.67559">
        <ele>128.1</ele>
        <time>2021-05-17T13:35:22.000Z</time>
      </trkpt>
      <trkpt lat="44.88192" lon="0.67552">
        <ele>128</ele>
        <time>2021-05-17T13:35:23.000Z</time>
      </trkpt>
      <trkpt lat="44.8819" lon="0.67544">
        <ele>127.7</ele>
        <time>2021-05-17T13:35:24.000Z</time>
      </trkpt>
      <trkpt lat="44.88187" lon="0.67537">
        <ele>127.4</ele>
        <time>2021-05-17T13:35:25.000Z</time>
      </trkpt>
      <trkpt lat="44.88182" lon="0.67531">
        <ele>127.2</ele>
        <time>2021-05-17T13:35:26.000Z</time>
      </trkpt>
      <trkpt lat="44.88178" lon="0.67526">
        <ele>127</ele>
        <time>2021-05-17T13:35:27.000Z</time>
      </trkpt>
      <trkpt lat="44.88177" lon="0.67521">
        <ele>126.8</ele>
        <time>2021-05-17T13:35:28.000Z</time>
      </trkpt>
      <trkpt lat="44.88173" lon="0.67513">
        <ele>126.6</ele>
        <time>2021-05-17T13:35:29.000Z</time>
      </trkpt>
      <trkpt lat="44.88169" lon="0.67508">
        <ele>126.4</ele>
        <time>2021-05-17T13:35:30.000Z</time>
      </trkpt>
      <trkpt lat="44.88167" lon="0.67502">
        <ele>126.2</ele>
        <time>2021-05-17T13:35:31.000Z</time>
      </trkpt>
      <trkpt lat="44.88164" lon="0.67496">
        <ele>126</ele>
        <time>2021-05-17T13:35:32.000Z</time>
      </trkpt>
      <trkpt lat="44.8816" lon="0.6749">
        <ele>125.8</ele>
        <time>2021-05-17T13:35:33.000Z</time>
      </trkpt>
      <trkpt lat="44.88158" lon="0.67482">
        <ele>125.7</ele>
        <time>2021-05-17T13:35:34.000Z</time>
      </trkpt>
      <trkpt lat="44.88155" lon="0.67475">
        <ele>125.6</ele>
        <time>2021-05-17T13:35:35.000Z</time>
      </trkpt>
      <trkpt lat="44.88153" lon="0.67469">
        <ele>125.5</ele>
        <time>2021-05-17T13:35:36.000Z</time>
      </trkpt>
      <trkpt lat="44.88149" lon="0.67463">
        <ele>125.4</ele>
        <time>2021-05-17T13:35:37.000Z</time>
      </trkpt>
      <trkpt lat="44.88147" lon="0.67455">
        <ele>125.3</ele>
        <time>2021-05-17T13:35:39.000Z</time>
      </trkpt>
      <trkpt lat="44.88143" lon="0.67449">
        <ele>125.2</ele>
        <time>2021-05-17T13:35:40.000Z</time>
      </trkpt>
      <trkpt lat="44.88138" lon="0.67445">
        <ele>125.2</ele>
        <time>2021-05-17T13:35:41.000Z</time>
      </trkpt>
      <trkpt lat="44.88137" lon="0.6744">
        <ele>125.1</ele>
        <time>2021-05-17T13:35:42.000Z</time>
      </trkpt>
      <trkpt lat="44.88136" lon="0.67433">
        <ele>125.1</ele>
        <time>2021-05-17T13:35:43.000Z</time>
      </trkpt>
      <trkpt lat="44.88135" lon="0.67426">
        <ele>125</ele>
        <time>2021-05-17T13:35:44.000Z</time>
      </trkpt>
      <trkpt lat="44.88131" lon="0.67417">
        <ele>125</ele>
        <time>2021-05-17T13:35:45.000Z</time>
      </trkpt>
      <trkpt lat="44.88131" lon="0.67411">
        <ele>125</ele>
        <time>2021-05-17T13:35:46.000Z</time>
      </trkpt>
      <trkpt lat="44.8813" lon="0.67406">
        <ele>124.9</ele>
        <time>2021-05-17T13:35:47.000Z</time>
      </trkpt>
      <trkpt lat="44.88129" lon="0.67399">
        <ele>124.9</ele>
        <time>2021-05-17T13:35:48.000Z</time>
      </trkpt>
      <trkpt lat="44.88129" lon="0.67393">
        <ele>124.9</ele>
        <time>2021-05-17T13:35:49.000Z</time>
      </trkpt>
      <trkpt lat="44.8813" lon="0.67388">
        <ele>124.9</ele>
        <time>2021-05-17T13:35:50.000Z</time>
      </trkpt>
      <trkpt lat="44.88129" lon="0.67383">
        <ele>124.9</ele>
        <time>2021-05-17T13:35:51.000Z</time>
      </trkpt>
      <trkpt lat="44.8813" lon="0.67378">
        <ele>124.9</ele>
        <time>2021-05-17T13:35:52.000Z</time>
      </trkpt>
      <trkpt lat="44.8813" lon="0.67372">
        <ele>124.9</ele>
        <time>2021-05-17T13:35:53.000Z</time>
      </trkpt>
      <trkpt lat="44.88129" lon="0.67366">
        <ele>125</ele>
        <time>2021-05-17T13:35:54.000Z</time>
      </trkpt>
      <trkpt lat="44.88128" lon="0.6736">
        <ele>125</ele>
        <time>2021-05-17T13:35:55.000Z</time>
      </trkpt>
      <trkpt lat="44.88127" lon="0.67354">
        <ele>125</ele>
        <time>2021-05-17T13:35:56.000Z</time>
      </trkpt>
      <trkpt lat="44.88126" lon="0.6735">
        <ele>125</ele>
        <time>2021-05-17T13:35:57.000Z</time>
      </trkpt>
      <trkpt lat="44.88127" lon="0.67346">
        <ele>125</ele>
        <time>2021-05-17T13:35:58.000Z</time>
      </trkpt>
      <trkpt lat="44.88127" lon="0.67341">
        <ele>125</ele>
        <time>2021-05-17T13:35:59.000Z</time>
      </trkpt>
      <trkpt lat="44.88127" lon="0.67336">
        <ele>125.1</ele>
        <time>2021-05-17T13:36:00.000Z</time>
      </trkpt>
      <trkpt lat="44.88128" lon="0.67334">
        <ele>125.1</ele>
        <time>2021-05-17T13:36:01.000Z</time>
      </trkpt>
      <trkpt lat="44.88128" lon="0.6733">
        <ele>125.1</ele>
        <time>2021-05-17T13:36:02.000Z</time>
      </trkpt>
      <trkpt lat="44.88128" lon="0.67325">
        <ele>125.2</ele>
        <time>2021-05-17T13:36:03.000Z</time>
      </trkpt>
      <trkpt lat="44.88128" lon="0.6732">
        <ele>125.2</ele>
        <time>2021-05-17T13:36:04.000Z</time>
      </trkpt>
      <trkpt lat="44.88129" lon="0.67315">
        <ele>125.3</ele>
        <time>2021-05-17T13:36:05.000Z</time>
      </trkpt>
      <trkpt lat="44.88131" lon="0.67311">
        <ele>125.4</ele>
        <time>2021-05-17T13:36:06.000Z</time>
      </trkpt>
      <trkpt lat="44.88134" lon="0.67306">
        <ele>125.6</ele>
        <time>2021-05-17T13:36:07.000Z</time>
      </trkpt>
      <trkpt lat="44.88134" lon="0.67301">
        <ele>125.7</ele>
        <time>2021-05-17T13:36:08.000Z</time>
      </trkpt>
      <trkpt lat="44.88134" lon="0.67295">
        <ele>125.8</ele>
        <time>2021-05-17T13:36:09.000Z</time>
      </trkpt>
      <trkpt lat="44.88134" lon="0.67289">
        <ele>125.9</ele>
        <time>2021-05-17T13:36:10.000Z</time>
      </trkpt>
      <trkpt lat="44.88133" lon="0.67284">
        <ele>126</ele>
        <time>2021-05-17T13:36:11.000Z</time>
      </trkpt>
      <trkpt lat="44.88129" lon="0.67274">
        <ele>126.1</ele>
        <time>2021-05-17T13:36:12.000Z</time>
      </trkpt>
      <trkpt lat="44.88127" lon="0.67269">
        <ele>126.1</ele>
        <time>2021-05-17T13:36:13.000Z</time>
      </trkpt>
      <trkpt lat="44.88125" lon="0.67266">
        <ele>126.1</ele>
        <time>2021-05-17T13:36:14.000Z</time>
      </trkpt>
      <trkpt lat="44.88123" lon="0.6726">
        <ele>126.1</ele>
        <time>2021-05-17T13:36:15.000Z</time>
      </trkpt>
      <trkpt lat="44.88121" lon="0.67255">
        <ele>126.1</ele>
        <time>2021-05-17T13:36:16.000Z</time>
      </trkpt>
      <trkpt lat="44.8812" lon="0.67251">
        <ele>126.1</ele>
        <time>2021-05-17T13:36:17.000Z</time>
      </trkpt>
      <trkpt lat="44.88117" lon="0.67247">
        <ele>126.1</ele>
        <time>2021-05-17T13:36:18.000Z</time>
      </trkpt>
      <trkpt lat="44.88117" lon="0.67241">
        <ele>126</ele>
        <time>2021-05-17T13:36:19.000Z</time>
      </trkpt>
      <trkpt lat="44.88114" lon="0.67237">
        <ele>126</ele>
        <time>2021-05-17T13:36:20.000Z</time>
      </trkpt>
      <trkpt lat="44.88112" lon="0.67233">
        <ele>125.9</ele>
        <time>2021-05-17T13:36:21.000Z</time>
      </trkpt>
      <trkpt lat="44.8811" lon="0.67228">
        <ele>125.9</ele>
        <time>2021-05-17T13:36:22.000Z</time>
      </trkpt>
      <trkpt lat="44.88106" lon="0.67224">
        <ele>125.8</ele>
        <time>2021-05-17T13:36:23.000Z</time>
      </trkpt>
      <trkpt lat="44.88102" lon="0.6722">
        <ele>125.7</ele>
        <time>2021-05-17T13:36:24.000Z</time>
      </trkpt>
      <trkpt lat="44.88099" lon="0.67216">
        <ele>125.7</ele>
        <time>2021-05-17T13:36:25.000Z</time>
      </trkpt>
      <trkpt lat="44.88096" lon="0.67213">
        <ele>125.6</ele>
        <time>2021-05-17T13:36:26.000Z</time>
      </trkpt>
      <trkpt lat="44.88091" lon="0.67212">
        <ele>125.6</ele>
        <time>2021-05-17T13:36:27.000Z</time>
      </trkpt>
      <trkpt lat="44.88089" lon="0.67208">
        <ele>125.5</ele>
        <time>2021-05-17T13:36:28.000Z</time>
      </trkpt>
      <trkpt lat="44.88085" lon="0.67206">
        <ele>125.5</ele>
        <time>2021-05-17T13:36:29.000Z</time>
      </trkpt>
      <trkpt lat="44.8808" lon="0.67204">
        <ele>125.4</ele>
        <time>2021-05-17T13:36:30.000Z</time>
      </trkpt>
      <trkpt lat="44.88076" lon="0.67201">
        <ele>125.2</ele>
        <time>2021-05-17T13:36:31.000Z</time>
      </trkpt>
      <trkpt lat="44.88071" lon="0.67198">
        <ele>125.1</ele>
        <time>2021-05-17T13:36:32.000Z</time>
      </trkpt>
      <trkpt lat="44.88067" lon="0.67196">
        <ele>124.9</ele>
        <time>2021-05-17T13:36:33.000Z</time>
      </trkpt>
      <trkpt lat="44.88064" lon="0.67193">
        <ele>124.8</ele>
        <time>2021-05-17T13:36:34.000Z</time>
      </trkpt>
      <trkpt lat="44.88059" lon="0.67191">
        <ele>124.7</ele>
        <time>2021-05-17T13:36:35.000Z</time>
      </trkpt>
      <trkpt lat="44.88054" lon="0.67189">
        <ele>124.5</ele>
        <time>2021-05-17T13:36:36.000Z</time>
      </trkpt>
      <trkpt lat="44.88048" lon="0.67187">
        <ele>124.4</ele>
        <time>2021-05-17T13:36:37.000Z</time>
      </trkpt>
      <trkpt lat="44.88042" lon="0.67185">
        <ele>124.3</ele>
        <time>2021-05-17T13:36:38.000Z</time>
      </trkpt>
      <trkpt lat="44.88038" lon="0.67182">
        <ele>124.2</ele>
        <time>2021-05-17T13:36:39.000Z</time>
      </trkpt>
      <trkpt lat="44.88034" lon="0.6718">
        <ele>124.2</ele>
        <time>2021-05-17T13:36:40.000Z</time>
      </trkpt>
      <trkpt lat="44.88032" lon="0.67178">
        <ele>124.2</ele>
        <time>2021-05-17T13:36:41.000Z</time>
      </trkpt>
      <trkpt lat="44.88029" lon="0.67177">
        <ele>124.2</ele>
        <time>2021-05-17T13:36:42.000Z</time>
      </trkpt>
      <trkpt lat="44.88024" lon="0.67176">
        <ele>124.2</ele>
        <time>2021-05-17T13:36:43.000Z</time>
      </trkpt>
      <trkpt lat="44.88019" lon="0.67173">
        <ele>124.3</ele>
        <time>2021-05-17T13:36:44.000Z</time>
      </trkpt>
      <trkpt lat="44.88012" lon="0.67171">
        <ele>124.4</ele>
        <time>2021-05-17T13:36:45.000Z</time>
      </trkpt>
      <trkpt lat="44.88007" lon="0.6717">
        <ele>124.4</ele>
        <time>2021-05-17T13:36:46.000Z</time>
      </trkpt>
      <trkpt lat="44.88002" lon="0.67166">
        <ele>124.5</ele>
        <time>2021-05-17T13:36:47.000Z</time>
      </trkpt>
      <trkpt lat="44.87998" lon="0.67165">
        <ele>124.5</ele>
        <time>2021-05-17T13:36:48.000Z</time>
      </trkpt>
      <trkpt lat="44.87993" lon="0.67162">
        <ele>124.6</ele>
        <time>2021-05-17T13:36:49.000Z</time>
      </trkpt>
      <trkpt lat="44.8799" lon="0.67162">
        <ele>124.6</ele>
        <time>2021-05-17T13:36:50.000Z</time>
      </trkpt>
      <trkpt lat="44.87986" lon="0.6716">
        <ele>124.6</ele>
        <time>2021-05-17T13:36:51.000Z</time>
      </trkpt>
      <trkpt lat="44.87981" lon="0.67157">
        <ele>124.7</ele>
        <time>2021-05-17T13:36:52.000Z</time>
      </trkpt>
      <trkpt lat="44.87973" lon="0.67156">
        <ele>124.7</ele>
        <time>2021-05-17T13:36:53.000Z</time>
      </trkpt>
      <trkpt lat="44.87967" lon="0.67154">
        <ele>124.7</ele>
        <time>2021-05-17T13:36:54.000Z</time>
      </trkpt>
      <trkpt lat="44.87963" lon="0.67153">
        <ele>124.6</ele>
        <time>2021-05-17T13:36:55.000Z</time>
      </trkpt>
      <trkpt lat="44.8796" lon="0.67151">
        <ele>124.6</ele>
        <time>2021-05-17T13:36:56.000Z</time>
      </trkpt>
      <trkpt lat="44.87957" lon="0.67149">
        <ele>124.6</ele>
        <time>2021-05-17T13:36:57.000Z</time>
      </trkpt>
      <trkpt lat="44.87953" lon="0.67147">
        <ele>124.5</ele>
        <time>2021-05-17T13:36:58.000Z</time>
      </trkpt>
      <trkpt lat="44.87946" lon="0.67148">
        <ele>124.3</ele>
        <time>2021-05-17T13:36:59.000Z</time>
      </trkpt>
      <trkpt lat="44.87941" lon="0.67145">
        <ele>124.2</ele>
        <time>2021-05-17T13:37:00.000Z</time>
      </trkpt>
      <trkpt lat="44.87935" lon="0.67143">
        <ele>124</ele>
        <time>2021-05-17T13:37:01.000Z</time>
      </trkpt>
      <trkpt lat="44.87928" lon="0.6714">
        <ele>123.7</ele>
        <time>2021-05-17T13:37:02.000Z</time>
      </trkpt>
      <trkpt lat="44.87923" lon="0.67138">
        <ele>123.5</ele>
        <time>2021-05-17T13:37:03.000Z</time>
      </trkpt>
      <trkpt lat="44.87918" lon="0.67135">
        <ele>123.4</ele>
        <time>2021-05-17T13:37:04.000Z</time>
      </trkpt>
      <trkpt lat="44.87912" lon="0.67132">
        <ele>123.1</ele>
        <time>2021-05-17T13:37:05.000Z</time>
      </trkpt>
      <trkpt lat="44.87906" lon="0.6713">
        <ele>122.9</ele>
        <time>2021-05-17T13:37:06.000Z</time>
      </trkpt>
      <trkpt lat="44.879" lon="0.67128">
        <ele>122.6</ele>
        <time>2021-05-17T13:37:07.000Z</time>
      </trkpt>
      <trkpt lat="44.87894" lon="0.67126">
        <ele>122.3</ele>
        <time>2021-05-17T13:37:08.000Z</time>
      </trkpt>
      <trkpt lat="44.87886" lon="0.67124">
        <ele>121.9</ele>
        <time>2021-05-17T13:37:09.000Z</time>
      </trkpt>
      <trkpt lat="44.8788" lon="0.67122">
        <ele>121.7</ele>
        <time>2021-05-17T13:37:10.000Z</time>
      </trkpt>
      <trkpt lat="44.87875" lon="0.6712">
        <ele>121.5</ele>
        <time>2021-05-17T13:37:11.000Z</time>
      </trkpt>
      <trkpt lat="44.87871" lon="0.67119">
        <ele>121.4</ele>
        <time>2021-05-17T13:37:12.000Z</time>
      </trkpt>
      <trkpt lat="44.87865" lon="0.67118">
        <ele>121.2</ele>
        <time>2021-05-17T13:37:13.000Z</time>
      </trkpt>
      <trkpt lat="44.87861" lon="0.67112">
        <ele>121</ele>
        <time>2021-05-17T13:37:14.000Z</time>
      </trkpt>
      <trkpt lat="44.87853" lon="0.67109">
        <ele>120.9</ele>
        <time>2021-05-17T13:37:15.000Z</time>
      </trkpt>
      <trkpt lat="44.87849" lon="0.67106">
        <ele>120.9</ele>
        <time>2021-05-17T13:37:16.000Z</time>
      </trkpt>
      <trkpt lat="44.87845" lon="0.67102">
        <ele>120.8</ele>
        <time>2021-05-17T13:37:17.000Z</time>
      </trkpt>
      <trkpt lat="44.87841" lon="0.67099">
        <ele>120.9</ele>
        <time>2021-05-17T13:37:18.000Z</time>
      </trkpt>
      <trkpt lat="44.87838" lon="0.67096">
        <ele>120.9</ele>
        <time>2021-05-17T13:37:19.000Z</time>
      </trkpt>
      <trkpt lat="44.87832" lon="0.67092">
        <ele>121</ele>
        <time>2021-05-17T13:37:20.000Z</time>
      </trkpt>
      <trkpt lat="44.87827" lon="0.67089">
        <ele>121.1</ele>
        <time>2021-05-17T13:37:21.000Z</time>
      </trkpt>
      <trkpt lat="44.87823" lon="0.67087">
        <ele>121.2</ele>
        <time>2021-05-17T13:37:22.000Z</time>
      </trkpt>
      <trkpt lat="44.87822" lon="0.67086">
        <ele>121.2</ele>
        <time>2021-05-17T13:37:23.000Z</time>
      </trkpt>
      <trkpt lat="44.8782" lon="0.67085">
        <ele>121.3</ele>
        <time>2021-05-17T13:37:24.000Z</time>
      </trkpt>
      <trkpt lat="44.87814" lon="0.67083">
        <ele>121.5</ele>
        <time>2021-05-17T13:37:25.000Z</time>
      </trkpt>
      <trkpt lat="44.87809" lon="0.67082">
        <ele>121.7</ele>
        <time>2021-05-17T13:37:26.000Z</time>
      </trkpt>
      <trkpt lat="44.87806" lon="0.6708">
        <ele>121.8</ele>
        <time>2021-05-17T13:37:27.000Z</time>
      </trkpt>
      <trkpt lat="44.87801" lon="0.67077">
        <ele>122.1</ele>
        <time>2021-05-17T13:37:28.000Z</time>
      </trkpt>
      <trkpt lat="44.87796" lon="0.67074">
        <ele>122.3</ele>
        <time>2021-05-17T13:37:29.000Z</time>
      </trkpt>
      <trkpt lat="44.87791" lon="0.67071">
        <ele>122.5</ele>
        <time>2021-05-17T13:37:30.000Z</time>
      </trkpt>
      <trkpt lat="44.87786" lon="0.67068">
        <ele>122.8</ele>
        <time>2021-05-17T13:37:31.000Z</time>
      </trkpt>
      <trkpt lat="44.87782" lon="0.67067">
        <ele>123</ele>
        <time>2021-05-17T13:37:32.000Z</time>
      </trkpt>
      <trkpt lat="44.87778" lon="0.67065">
        <ele>123.2</ele>
        <time>2021-05-17T13:37:33.000Z</time>
      </trkpt>
      <trkpt lat="44.87775" lon="0.67061">
        <ele>123.4</ele>
        <time>2021-05-17T13:37:34.000Z</time>
      </trkpt>
      <trkpt lat="44.87774" lon="0.6706">
        <ele>123.5</ele>
        <time>2021-05-17T13:37:35.000Z</time>
      </trkpt>
      <trkpt lat="44.87771" lon="0.67058">
        <ele>123.6</ele>
        <time>2021-05-17T13:37:36.000Z</time>
      </trkpt>
      <trkpt lat="44.87767" lon="0.67056">
        <ele>123.8</ele>
        <time>2021-05-17T13:37:37.000Z</time>
      </trkpt>
      <trkpt lat="44.87764" lon="0.67052">
        <ele>124</ele>
        <time>2021-05-17T13:37:38.000Z</time>
      </trkpt>
      <trkpt lat="44.87763" lon="0.6705">
        <ele>124</ele>
        <time>2021-05-17T13:37:39.000Z</time>
      </trkpt>
      <trkpt lat="44.8776" lon="0.67046">
        <ele>124.2</ele>
        <time>2021-05-17T13:37:40.000Z</time>
      </trkpt>
      <trkpt lat="44.87759" lon="0.67042">
        <ele>124.4</ele>
        <time>2021-05-17T13:37:41.000Z</time>
      </trkpt>
      <trkpt lat="44.87759" lon="0.67041">
        <ele>124.4</ele>
        <time>2021-05-17T13:37:42.000Z</time>
      </trkpt>
      <trkpt lat="44.87757" lon="0.67037">
        <ele>124.5</ele>
        <time>2021-05-17T13:37:43.000Z</time>
      </trkpt>
      <trkpt lat="44.87755" lon="0.67032">
        <ele>124.6</ele>
        <time>2021-05-17T13:37:45.000Z</time>
      </trkpt>
      <trkpt lat="44.87755" lon="0.67031">
        <ele>124.7</ele>
        <time>2021-05-17T13:37:46.000Z</time>
      </trkpt>
      <trkpt lat="44.87754" lon="0.67026">
        <ele>124.8</ele>
        <time>2021-05-17T13:37:47.000Z</time>
      </trkpt>
      <trkpt lat="44.87752" lon="0.67023">
        <ele>124.9</ele>
        <time>2021-05-17T13:37:48.000Z</time>
      </trkpt>
      <trkpt lat="44.8775" lon="0.67019">
        <ele>125</ele>
        <time>2021-05-17T13:37:49.000Z</time>
      </trkpt>
      <trkpt lat="44.87749" lon="0.67014">
        <ele>125.1</ele>
        <time>2021-05-17T13:37:50.000Z</time>
      </trkpt>
      <trkpt lat="44.87747" lon="0.6701">
        <ele>125.2</ele>
        <time>2021-05-17T13:37:51.000Z</time>
      </trkpt>
      <trkpt lat="44.87745" lon="0.67005">
        <ele>125.3</ele>
        <time>2021-05-17T13:37:52.000Z</time>
      </trkpt>
      <trkpt lat="44.87742" lon="0.67001">
        <ele>125.4</ele>
        <time>2021-05-17T13:37:53.000Z</time>
      </trkpt>
      <trkpt lat="44.8774" lon="0.66997">
        <ele>125.4</ele>
        <time>2021-05-17T13:37:54.000Z</time>
      </trkpt>
      <trkpt lat="44.87739" lon="0.66993">
        <ele>125.4</ele>
        <time>2021-05-17T13:37:55.000Z</time>
      </trkpt>
      <trkpt lat="44.87737" lon="0.66989">
        <ele>125.4</ele>
        <time>2021-05-17T13:37:56.000Z</time>
      </trkpt>
      <trkpt lat="44.87735" lon="0.66983">
        <ele>125.4</ele>
        <time>2021-05-17T13:37:57.000Z</time>
      </trkpt>
      <trkpt lat="44.87732" lon="0.66979">
        <ele>125.4</ele>
        <time>2021-05-17T13:37:58.000Z</time>
      </trkpt>
      <trkpt lat="44.87731" lon="0.66977">
        <ele>125.4</ele>
        <time>2021-05-17T13:37:59.000Z</time>
      </trkpt>
      <trkpt lat="44.87727" lon="0.66972">
        <ele>125.5</ele>
        <time>2021-05-17T13:38:00.000Z</time>
      </trkpt>
      <trkpt lat="44.87724" lon="0.66967">
        <ele>125.5</ele>
        <time>2021-05-17T13:38:01.000Z</time>
      </trkpt>
      <trkpt lat="44.87722" lon="0.66963">
        <ele>125.5</ele>
        <time>2021-05-17T13:38:02.000Z</time>
      </trkpt>
      <trkpt lat="44.87721" lon="0.66957">
        <ele>125.4</ele>
        <time>2021-05-17T13:38:03.000Z</time>
      </trkpt>
      <trkpt lat="44.87722" lon="0.66952">
        <ele>125.3</ele>
        <time>2021-05-17T13:38:04.000Z</time>
      </trkpt>
      <trkpt lat="44.87721" lon="0.66951">
        <ele>125.3</ele>
        <time>2021-05-17T13:38:05.000Z</time>
      </trkpt>
      <trkpt lat="44.87722" lon="0.66946">
        <ele>125.2</ele>
        <time>2021-05-17T13:38:06.000Z</time>
      </trkpt>
      <trkpt lat="44.87722" lon="0.66944">
        <ele>125.2</ele>
        <time>2021-05-17T13:38:07.000Z</time>
      </trkpt>
      <trkpt lat="44.87725" lon="0.6694">
        <ele>125</ele>
        <time>2021-05-17T13:38:08.000Z</time>
      </trkpt>
      <trkpt lat="44.87726" lon="0.66938">
        <ele>124.8</ele>
        <time>2021-05-17T13:38:09.000Z</time>
      </trkpt>
      <trkpt lat="44.8773" lon="0.66935">
        <ele>124.6</ele>
        <time>2021-05-17T13:38:10.000Z</time>
      </trkpt>
      <trkpt lat="44.87731" lon="0.66933">
        <ele>124.5</ele>
        <time>2021-05-17T13:38:11.000Z</time>
      </trkpt>
      <trkpt lat="44.87734" lon="0.6693">
        <ele>124.4</ele>
        <time>2021-05-17T13:38:12.000Z</time>
      </trkpt>
      <trkpt lat="44.87735" lon="0.66929">
        <ele>124.3</ele>
        <time>2021-05-17T13:38:13.000Z</time>
      </trkpt>
      <trkpt lat="44.87737" lon="0.66925">
        <ele>124.1</ele>
        <time>2021-05-17T13:38:14.000Z</time>
      </trkpt>
      <trkpt lat="44.8774" lon="0.66919">
        <ele>123.9</ele>
        <time>2021-05-17T13:38:15.000Z</time>
      </trkpt>
      <trkpt lat="44.87741" lon="0.66915">
        <ele>123.6</ele>
        <time>2021-05-17T13:38:16.000Z</time>
      </trkpt>
      <trkpt lat="44.87745" lon="0.66909">
        <ele>123</ele>
        <time>2021-05-17T13:38:17.000Z</time>
      </trkpt>
      <trkpt lat="44.8775" lon="0.669">
        <ele>122.4</ele>
        <time>2021-05-17T13:38:18.000Z</time>
      </trkpt>
      <trkpt lat="44.87756" lon="0.6689">
        <ele>122</ele>
        <time>2021-05-17T13:38:19.000Z</time>
      </trkpt>
      <trkpt lat="44.87758" lon="0.66884">
        <ele>121.7</ele>
        <time>2021-05-17T13:38:20.000Z</time>
      </trkpt>
      <trkpt lat="44.87762" lon="0.66876">
        <ele>121.3</ele>
        <time>2021-05-17T13:38:21.000Z</time>
      </trkpt>
      <trkpt lat="44.87765" lon="0.66868">
        <ele>120.9</ele>
        <time>2021-05-17T13:38:22.000Z</time>
      </trkpt>
      <trkpt lat="44.87766" lon="0.66861">
        <ele>120.6</ele>
        <time>2021-05-17T13:38:23.000Z</time>
      </trkpt>
      <trkpt lat="44.87767" lon="0.66854">
        <ele>120.5</ele>
        <time>2021-05-17T13:38:24.000Z</time>
      </trkpt>
      <trkpt lat="44.87769" lon="0.66846">
        <ele>120.3</ele>
        <time>2021-05-17T13:38:25.000Z</time>
      </trkpt>
      <trkpt lat="44.87772" lon="0.66838">
        <ele>120.2</ele>
        <time>2021-05-17T13:38:26.000Z</time>
      </trkpt>
      <trkpt lat="44.87774" lon="0.66834">
        <ele>120.1</ele>
        <time>2021-05-17T13:38:27.000Z</time>
      </trkpt>
      <trkpt lat="44.87777" lon="0.66825">
        <ele>120.1</ele>
        <time>2021-05-17T13:38:28.000Z</time>
      </trkpt>
      <trkpt lat="44.87779" lon="0.66819">
        <ele>120.1</ele>
        <time>2021-05-17T13:38:29.000Z</time>
      </trkpt>
      <trkpt lat="44.87783" lon="0.66813">
        <ele>120.2</ele>
        <time>2021-05-17T13:38:30.000Z</time>
      </trkpt>
      <trkpt lat="44.87786" lon="0.66805">
        <ele>120.2</ele>
        <time>2021-05-17T13:38:31.000Z</time>
      </trkpt>
      <trkpt lat="44.8779" lon="0.66799">
        <ele>120.3</ele>
        <time>2021-05-17T13:38:32.000Z</time>
      </trkpt>
      <trkpt lat="44.87794" lon="0.66794">
        <ele>120.3</ele>
        <time>2021-05-17T13:38:33.000Z</time>
      </trkpt>
      <trkpt lat="44.87797" lon="0.66791">
        <ele>120.3</ele>
        <time>2021-05-17T13:38:34.000Z</time>
      </trkpt>
      <trkpt lat="44.87801" lon="0.66784">
        <ele>120.4</ele>
        <time>2021-05-17T13:38:35.000Z</time>
      </trkpt>
      <trkpt lat="44.87805" lon="0.66773">
        <ele>120.4</ele>
        <time>2021-05-17T13:38:36.000Z</time>
      </trkpt>
      <trkpt lat="44.87806" lon="0.66766">
        <ele>120.4</ele>
        <time>2021-05-17T13:38:37.000Z</time>
      </trkpt>
      <trkpt lat="44.87806" lon="0.66759">
        <ele>120.4</ele>
        <time>2021-05-17T13:38:38.000Z</time>
      </trkpt>
      <trkpt lat="44.87805" lon="0.66753">
        <ele>120.4</ele>
        <time>2021-05-17T13:38:39.000Z</time>
      </trkpt>
      <trkpt lat="44.87805" lon="0.66742">
        <ele>120.4</ele>
        <time>2021-05-17T13:38:40.000Z</time>
      </trkpt>
      <trkpt lat="44.87806" lon="0.66732">
        <ele>120.3</ele>
        <time>2021-05-17T13:38:41.000Z</time>
      </trkpt>
      <trkpt lat="44.87809" lon="0.66724">
        <ele>120.3</ele>
        <time>2021-05-17T13:38:42.000Z</time>
      </trkpt>
      <trkpt lat="44.87813" lon="0.66715">
        <ele>120.3</ele>
        <time>2021-05-17T13:38:43.000Z</time>
      </trkpt>
      <trkpt lat="44.87816" lon="0.66704">
        <ele>120.3</ele>
        <time>2021-05-17T13:38:44.000Z</time>
      </trkpt>
      <trkpt lat="44.87818" lon="0.66694">
        <ele>120.2</ele>
        <time>2021-05-17T13:38:45.000Z</time>
      </trkpt>
      <trkpt lat="44.8782" lon="0.66687">
        <ele>120.2</ele>
        <time>2021-05-17T13:38:46.000Z</time>
      </trkpt>
      <trkpt lat="44.87824" lon="0.66679">
        <ele>120.1</ele>
        <time>2021-05-17T13:38:47.000Z</time>
      </trkpt>
      <trkpt lat="44.87827" lon="0.66672">
        <ele>120</ele>
        <time>2021-05-17T13:38:48.000Z</time>
      </trkpt>
      <trkpt lat="44.87831" lon="0.66667">
        <ele>119.9</ele>
        <time>2021-05-17T13:38:49.000Z</time>
      </trkpt>
      <trkpt lat="44.87834" lon="0.66659">
        <ele>119.7</ele>
        <time>2021-05-17T13:38:50.000Z</time>
      </trkpt>
      <trkpt lat="44.8784" lon="0.66653">
        <ele>119.8</ele>
        <time>2021-05-17T13:38:51.000Z</time>
      </trkpt>
      <trkpt lat="44.87844" lon="0.66645">
        <ele>119.5</ele>
        <time>2021-05-17T13:38:52.000Z</time>
      </trkpt>
      <trkpt lat="44.87849" lon="0.66637">
        <ele>119.2</ele>
        <time>2021-05-17T13:38:53.000Z</time>
      </trkpt>
      <trkpt lat="44.87852" lon="0.66629">
        <ele>118.7</ele>
        <time>2021-05-17T13:38:54.000Z</time>
      </trkpt>
      <trkpt lat="44.87853" lon="0.66622">
        <ele>118.5</ele>
        <time>2021-05-17T13:38:55.000Z</time>
      </trkpt>
      <trkpt lat="44.87852" lon="0.66615">
        <ele>117.9</ele>
        <time>2021-05-17T13:38:56.000Z</time>
      </trkpt>
      <trkpt lat="44.87852" lon="0.66605">
        <ele>117.4</ele>
        <time>2021-05-17T13:38:57.000Z</time>
      </trkpt>
      <trkpt lat="44.87853" lon="0.66596">
        <ele>116.9</ele>
        <time>2021-05-17T13:38:58.000Z</time>
      </trkpt>
      <trkpt lat="44.87855" lon="0.6659">
        <ele>116.4</ele>
        <time>2021-05-17T13:38:59.000Z</time>
      </trkpt>
      <trkpt lat="44.87856" lon="0.66581">
        <ele>116</ele>
        <time>2021-05-17T13:39:00.000Z</time>
      </trkpt>
      <trkpt lat="44.87857" lon="0.66572">
        <ele>115.6</ele>
        <time>2021-05-17T13:39:01.000Z</time>
      </trkpt>
      <trkpt lat="44.87855" lon="0.66561">
        <ele>114.9</ele>
        <time>2021-05-17T13:39:02.000Z</time>
      </trkpt>
      <trkpt lat="44.87854" lon="0.66552">
        <ele>114.4</ele>
        <time>2021-05-17T13:39:03.000Z</time>
      </trkpt>
      <trkpt lat="44.87853" lon="0.66545">
        <ele>113.8</ele>
        <time>2021-05-17T13:39:04.000Z</time>
      </trkpt>
      <trkpt lat="44.87854" lon="0.66537">
        <ele>113.6</ele>
        <time>2021-05-17T13:39:05.000Z</time>
      </trkpt>
      <trkpt lat="44.87855" lon="0.66528">
        <ele>113.2</ele>
        <time>2021-05-17T13:39:06.000Z</time>
      </trkpt>
      <trkpt lat="44.87858" lon="0.6652">
        <ele>112.8</ele>
        <time>2021-05-17T13:39:07.000Z</time>
      </trkpt>
      <trkpt lat="44.87858" lon="0.6651">
        <ele>112.4</ele>
        <time>2021-05-17T13:39:08.000Z</time>
      </trkpt>
      <trkpt lat="44.87859" lon="0.66502">
        <ele>112.3</ele>
        <time>2021-05-17T13:39:09.000Z</time>
      </trkpt>
      <trkpt lat="44.87859" lon="0.66493">
        <ele>112</ele>
        <time>2021-05-17T13:39:10.000Z</time>
      </trkpt>
      <trkpt lat="44.8786" lon="0.66481">
        <ele>111.9</ele>
        <time>2021-05-17T13:39:11.000Z</time>
      </trkpt>
      <trkpt lat="44.87861" lon="0.66472">
        <ele>111.9</ele>
        <time>2021-05-17T13:39:12.000Z</time>
      </trkpt>
      <trkpt lat="44.87864" lon="0.66462">
        <ele>111.8</ele>
        <time>2021-05-17T13:39:13.000Z</time>
      </trkpt>
      <trkpt lat="44.87868" lon="0.66451">
        <ele>111.6</ele>
        <time>2021-05-17T13:39:14.000Z</time>
      </trkpt>
      <trkpt lat="44.8787" lon="0.66439">
        <ele>111.4</ele>
        <time>2021-05-17T13:39:15.000Z</time>
      </trkpt>
      <trkpt lat="44.87871" lon="0.66431">
        <ele>111.2</ele>
        <time>2021-05-17T13:39:16.000Z</time>
      </trkpt>
      <trkpt lat="44.87874" lon="0.66423">
        <ele>111</ele>
        <time>2021-05-17T13:39:17.000Z</time>
      </trkpt>
      <trkpt lat="44.87877" lon="0.66415">
        <ele>110.9</ele>
        <time>2021-05-17T13:39:18.000Z</time>
      </trkpt>
      <trkpt lat="44.87879" lon="0.66404">
        <ele>110.6</ele>
        <time>2021-05-17T13:39:19.000Z</time>
      </trkpt>
      <trkpt lat="44.8788" lon="0.66396">
        <ele>110.3</ele>
        <time>2021-05-17T13:39:20.000Z</time>
      </trkpt>
      <trkpt lat="44.87881" lon="0.66386">
        <ele>110</ele>
        <time>2021-05-17T13:39:21.000Z</time>
      </trkpt>
      <trkpt lat="44.8788" lon="0.6638">
        <ele>109.8</ele>
        <time>2021-05-17T13:39:22.000Z</time>
      </trkpt>
      <trkpt lat="44.87876" lon="0.66373">
        <ele>109.6</ele>
        <time>2021-05-17T13:39:23.000Z</time>
      </trkpt>
      <trkpt lat="44.87873" lon="0.66366">
        <ele>109.6</ele>
        <time>2021-05-17T13:39:24.000Z</time>
      </trkpt>
      <trkpt lat="44.87869" lon="0.66359">
        <ele>109.5</ele>
        <time>2021-05-17T13:39:25.000Z</time>
      </trkpt>
      <trkpt lat="44.87867" lon="0.66351">
        <ele>109.5</ele>
        <time>2021-05-17T13:39:26.000Z</time>
      </trkpt>
      <trkpt lat="44.87862" lon="0.66348">
        <ele>109.5</ele>
        <time>2021-05-17T13:39:27.000Z</time>
      </trkpt>
      <trkpt lat="44.8786" lon="0.66345">
        <ele>109.5</ele>
        <time>2021-05-17T13:39:28.000Z</time>
      </trkpt>
      <trkpt lat="44.87857" lon="0.66339">
        <ele>109.5</ele>
        <time>2021-05-17T13:39:29.000Z</time>
      </trkpt>
      <trkpt lat="44.87855" lon="0.66335">
        <ele>109.5</ele>
        <time>2021-05-17T13:39:30.000Z</time>
      </trkpt>
      <trkpt lat="44.87852" lon="0.66331">
        <ele>109.6</ele>
        <time>2021-05-17T13:39:31.000Z</time>
      </trkpt>
      <trkpt lat="44.87848" lon="0.66327">
        <ele>109.6</ele>
        <time>2021-05-17T13:39:32.000Z</time>
      </trkpt>
      <trkpt lat="44.87844" lon="0.6632">
        <ele>109.7</ele>
        <time>2021-05-17T13:39:33.000Z</time>
      </trkpt>
      <trkpt lat="44.87841" lon="0.66315">
        <ele>109.8</ele>
        <time>2021-05-17T13:39:34.000Z</time>
      </trkpt>
      <trkpt lat="44.87838" lon="0.6631">
        <ele>109.9</ele>
        <time>2021-05-17T13:39:35.000Z</time>
      </trkpt>
      <trkpt lat="44.87836" lon="0.66303">
        <ele>110</ele>
        <time>2021-05-17T13:39:36.000Z</time>
      </trkpt>
      <trkpt lat="44.87832" lon="0.66299">
        <ele>110</ele>
        <time>2021-05-17T13:39:37.000Z</time>
      </trkpt>
      <trkpt lat="44.8783" lon="0.66293">
        <ele>110.1</ele>
        <time>2021-05-17T13:39:38.000Z</time>
      </trkpt>
      <trkpt lat="44.87827" lon="0.66288">
        <ele>110.1</ele>
        <time>2021-05-17T13:39:39.000Z</time>
      </trkpt>
      <trkpt lat="44.87826" lon="0.66281">
        <ele>110.5</ele>
        <time>2021-05-17T13:39:40.000Z</time>
      </trkpt>
      <trkpt lat="44.87824" lon="0.66276">
        <ele>110.6</ele>
        <time>2021-05-17T13:39:41.000Z</time>
      </trkpt>
      <trkpt lat="44.87822" lon="0.66271">
        <ele>110.7</ele>
        <time>2021-05-17T13:39:42.000Z</time>
      </trkpt>
      <trkpt lat="44.87818" lon="0.66265">
        <ele>111</ele>
        <time>2021-05-17T13:39:43.000Z</time>
      </trkpt>
      <trkpt lat="44.87814" lon="0.66258">
        <ele>111</ele>
        <time>2021-05-17T13:39:44.000Z</time>
      </trkpt>
      <trkpt lat="44.87811" lon="0.66252">
        <ele>111.1</ele>
        <time>2021-05-17T13:39:45.000Z</time>
      </trkpt>
      <trkpt lat="44.87805" lon="0.66246">
        <ele>110.9</ele>
        <time>2021-05-17T13:39:46.000Z</time>
      </trkpt>
      <trkpt lat="44.878" lon="0.66242">
        <ele>110.7</ele>
        <time>2021-05-17T13:39:47.000Z</time>
      </trkpt>
      <trkpt lat="44.87797" lon="0.66237">
        <ele>110.6</ele>
        <time>2021-05-17T13:39:48.000Z</time>
      </trkpt>
      <trkpt lat="44.87795" lon="0.66231">
        <ele>110.6</ele>
        <time>2021-05-17T13:39:49.000Z</time>
      </trkpt>
      <trkpt lat="44.87792" lon="0.66228">
        <ele>110.6</ele>
        <time>2021-05-17T13:39:51.000Z</time>
      </trkpt>
      <trkpt lat="44.87788" lon="0.66225">
        <ele>110.4</ele>
        <time>2021-05-17T13:39:52.000Z</time>
      </trkpt>
      <trkpt lat="44.87785" lon="0.66223">
        <ele>110.3</ele>
        <time>2021-05-17T13:39:53.000Z</time>
      </trkpt>
      <trkpt lat="44.87779" lon="0.66221">
        <ele>110</ele>
        <time>2021-05-17T13:39:54.000Z</time>
      </trkpt>
      <trkpt lat="44.87775" lon="0.66218">
        <ele>109.8</ele>
        <time>2021-05-17T13:39:55.000Z</time>
      </trkpt>
      <trkpt lat="44.87767" lon="0.66218">
        <ele>109.4</ele>
        <time>2021-05-17T13:39:56.000Z</time>
      </trkpt>
      <trkpt lat="44.87762" lon="0.66216">
        <ele>109.1</ele>
        <time>2021-05-17T13:39:57.000Z</time>
      </trkpt>
      <trkpt lat="44.87758" lon="0.66213">
        <ele>108.9</ele>
        <time>2021-05-17T13:39:58.000Z</time>
      </trkpt>
      <trkpt lat="44.87752" lon="0.66211">
        <ele>108.6</ele>
        <time>2021-05-17T13:39:59.000Z</time>
      </trkpt>
      <trkpt lat="44.87748" lon="0.66209">
        <ele>108.4</ele>
        <time>2021-05-17T13:40:00.000Z</time>
      </trkpt>
      <trkpt lat="44.87743" lon="0.66207">
        <ele>108.3</ele>
        <time>2021-05-17T13:40:01.000Z</time>
      </trkpt>
      <trkpt lat="44.87739" lon="0.66206">
        <ele>108</ele>
        <time>2021-05-17T13:40:02.000Z</time>
      </trkpt>
      <trkpt lat="44.87734" lon="0.66204">
        <ele>107.7</ele>
        <time>2021-05-17T13:40:03.000Z</time>
      </trkpt>
      <trkpt lat="44.8773" lon="0.66204">
        <ele>107.6</ele>
        <time>2021-05-17T13:40:04.000Z</time>
      </trkpt>
      <trkpt lat="44.87726" lon="0.66202">
        <ele>107.5</ele>
        <time>2021-05-17T13:40:05.000Z</time>
      </trkpt>
      <trkpt lat="44.87723" lon="0.662">
        <ele>107.3</ele>
        <time>2021-05-17T13:40:06.000Z</time>
      </trkpt>
      <trkpt lat="44.87719" lon="0.66198">
        <ele>107</ele>
        <time>2021-05-17T13:40:07.000Z</time>
      </trkpt>
      <trkpt lat="44.87713" lon="0.66194">
        <ele>106.7</ele>
        <time>2021-05-17T13:40:08.000Z</time>
      </trkpt>
      <trkpt lat="44.87708" lon="0.66191">
        <ele>106.6</ele>
        <time>2021-05-17T13:40:09.000Z</time>
      </trkpt>
      <trkpt lat="44.87703" lon="0.66187">
        <ele>106.4</ele>
        <time>2021-05-17T13:40:10.000Z</time>
      </trkpt>
      <trkpt lat="44.87698" lon="0.66182">
        <ele>106.3</ele>
        <time>2021-05-17T13:40:11.000Z</time>
      </trkpt>
      <trkpt lat="44.8769" lon="0.6618">
        <ele>106</ele>
        <time>2021-05-17T13:40:12.000Z</time>
      </trkpt>
      <trkpt lat="44.87681" lon="0.66177">
        <ele>105.6</ele>
        <time>2021-05-17T13:40:13.000Z</time>
      </trkpt>
      <trkpt lat="44.87673" lon="0.66174">
        <ele>105.3</ele>
        <time>2021-05-17T13:40:14.000Z</time>
      </trkpt>
      <trkpt lat="44.87669" lon="0.66171">
        <ele>105.2</ele>
        <time>2021-05-17T13:40:15.000Z</time>
      </trkpt>
      <trkpt lat="44.87667" lon="0.66167">
        <ele>105.1</ele>
        <time>2021-05-17T13:40:16.000Z</time>
      </trkpt>
      <trkpt lat="44.87663" lon="0.66164">
        <ele>105.1</ele>
        <time>2021-05-17T13:40:17.000Z</time>
      </trkpt>
      <trkpt lat="44.87659" lon="0.66161">
        <ele>105.1</ele>
        <time>2021-05-17T13:40:18.000Z</time>
      </trkpt>
      <trkpt lat="44.87655" lon="0.66157">
        <ele>105</ele>
        <time>2021-05-17T13:40:19.000Z</time>
      </trkpt>
      <trkpt lat="44.8765" lon="0.66153">
        <ele>105.1</ele>
        <time>2021-05-17T13:40:20.000Z</time>
      </trkpt>
      <trkpt lat="44.87647" lon="0.6615">
        <ele>105.2</ele>
        <time>2021-05-17T13:40:21.000Z</time>
      </trkpt>
      <trkpt lat="44.87643" lon="0.66146">
        <ele>105.1</ele>
        <time>2021-05-17T13:40:22.000Z</time>
      </trkpt>
      <trkpt lat="44.8764" lon="0.66143">
        <ele>105.2</ele>
        <time>2021-05-17T13:40:23.000Z</time>
      </trkpt>
      <trkpt lat="44.87639" lon="0.66142">
        <ele>105.1</ele>
        <time>2021-05-17T13:40:24.000Z</time>
      </trkpt>
      <trkpt lat="44.87635" lon="0.66141">
        <ele>105.3</ele>
        <time>2021-05-17T13:40:25.000Z</time>
      </trkpt>
      <trkpt lat="44.87632" lon="0.66139">
        <ele>105.2</ele>
        <time>2021-05-17T13:40:26.000Z</time>
      </trkpt>
      <trkpt lat="44.87624" lon="0.66136">
        <ele>105.4</ele>
        <time>2021-05-17T13:40:27.000Z</time>
      </trkpt>
      <trkpt lat="44.87622" lon="0.66136">
        <ele>105.4</ele>
        <time>2021-05-17T13:40:28.000Z</time>
      </trkpt>
      <trkpt lat="44.87619" lon="0.66135">
        <ele>105.4</ele>
        <time>2021-05-17T13:40:29.000Z</time>
      </trkpt>
      <trkpt lat="44.87618" lon="0.66134">
        <ele>105.4</ele>
        <time>2021-05-17T13:40:30.000Z</time>
      </trkpt>
      <trkpt lat="44.87616" lon="0.66133">
        <ele>105.4</ele>
        <time>2021-05-17T13:40:31.000Z</time>
      </trkpt>
      <trkpt lat="44.87614" lon="0.66129">
        <ele>105.7</ele>
        <time>2021-05-17T13:40:32.000Z</time>
      </trkpt>
      <trkpt lat="44.87613" lon="0.66128">
        <ele>106.1</ele>
        <time>2021-05-17T13:40:33.000Z</time>
      </trkpt>
      <trkpt lat="44.87613" lon="0.66125">
        <ele>106</ele>
        <time>2021-05-17T13:40:34.000Z</time>
      </trkpt>
      <trkpt lat="44.87612" lon="0.66123">
        <ele>106.4</ele>
        <time>2021-05-17T13:40:35.000Z</time>
      </trkpt>
      <trkpt lat="44.87611" lon="0.6612">
        <ele>106.4</ele>
        <time>2021-05-17T13:40:36.000Z</time>
      </trkpt>
      <trkpt lat="44.8761" lon="0.66119">
        <ele>106.7</ele>
        <time>2021-05-17T13:40:37.000Z</time>
      </trkpt>
      <trkpt lat="44.87609" lon="0.66119">
        <ele>106.8</ele>
        <time>2021-05-17T13:40:38.000Z</time>
      </trkpt>
      <trkpt lat="44.87607" lon="0.66115">
        <ele>107.1</ele>
        <time>2021-05-17T13:40:39.000Z</time>
      </trkpt>
      <trkpt lat="44.87606" lon="0.66114">
        <ele>107.1</ele>
        <time>2021-05-17T13:40:40.000Z</time>
      </trkpt>
      <trkpt lat="44.87605" lon="0.6611">
        <ele>107.4</ele>
        <time>2021-05-17T13:40:41.000Z</time>
      </trkpt>
      <trkpt lat="44.87604" lon="0.66105">
        <ele>107.8</ele>
        <time>2021-05-17T13:40:42.000Z</time>
      </trkpt>
      <trkpt lat="44.87604" lon="0.66104">
        <ele>107.8</ele>
        <time>2021-05-17T13:40:43.000Z</time>
      </trkpt>
      <trkpt lat="44.87603" lon="0.66099">
        <ele>108.1</ele>
        <time>2021-05-17T13:40:44.000Z</time>
      </trkpt>
      <trkpt lat="44.87603" lon="0.66098">
        <ele>108.5</ele>
        <time>2021-05-17T13:40:45.000Z</time>
      </trkpt>
      <trkpt lat="44.87603" lon="0.66094">
        <ele>108.5</ele>
        <time>2021-05-17T13:40:46.000Z</time>
      </trkpt>
      <trkpt lat="44.87603" lon="0.66092">
        <ele>108.8</ele>
        <time>2021-05-17T13:40:47.000Z</time>
      </trkpt>
      <trkpt lat="44.87603" lon="0.66086">
        <ele>109.1</ele>
        <time>2021-05-17T13:40:48.000Z</time>
      </trkpt>
      <trkpt lat="44.87603" lon="0.66085">
        <ele>109.4</ele>
        <time>2021-05-17T13:40:49.000Z</time>
      </trkpt>
      <trkpt lat="44.87602" lon="0.66082">
        <ele>109.4</ele>
        <time>2021-05-17T13:40:50.000Z</time>
      </trkpt>
      <trkpt lat="44.87601" lon="0.66076">
        <ele>109.9</ele>
        <time>2021-05-17T13:40:51.000Z</time>
      </trkpt>
      <trkpt lat="44.87601" lon="0.66075">
        <ele>109.9</ele>
        <time>2021-05-17T13:40:52.000Z</time>
      </trkpt>
      <trkpt lat="44.876" lon="0.6607">
        <ele>110.2</ele>
        <time>2021-05-17T13:40:53.000Z</time>
      </trkpt>
      <trkpt lat="44.876" lon="0.66067">
        <ele>110.5</ele>
        <time>2021-05-17T13:40:54.000Z</time>
      </trkpt>
      <trkpt lat="44.87598" lon="0.66063">
        <ele>110.8</ele>
        <time>2021-05-17T13:40:55.000Z</time>
      </trkpt>
      <trkpt lat="44.87597" lon="0.6606">
        <ele>110.8</ele>
        <time>2021-05-17T13:40:56.000Z</time>
      </trkpt>
      <trkpt lat="44.87598" lon="0.66056">
        <ele>111.1</ele>
        <time>2021-05-17T13:40:57.000Z</time>
      </trkpt>
      <trkpt lat="44.87598" lon="0.66054">
        <ele>111.4</ele>
        <time>2021-05-17T13:40:58.000Z</time>
      </trkpt>
      <trkpt lat="44.87597" lon="0.66051">
        <ele>111.7</ele>
        <time>2021-05-17T13:40:59.000Z</time>
      </trkpt>
      <trkpt lat="44.87597" lon="0.66046">
        <ele>111.9</ele>
        <time>2021-05-17T13:41:00.000Z</time>
      </trkpt>
      <trkpt lat="44.87597" lon="0.66044">
        <ele>111.9</ele>
        <time>2021-05-17T13:41:01.000Z</time>
      </trkpt>
      <trkpt lat="44.87597" lon="0.66039">
        <ele>112.2</ele>
        <time>2021-05-17T13:41:02.000Z</time>
      </trkpt>
      <trkpt lat="44.87596" lon="0.66037">
        <ele>112.4</ele>
        <time>2021-05-17T13:41:03.000Z</time>
      </trkpt>
      <trkpt lat="44.87596" lon="0.66032">
        <ele>112.6</ele>
        <time>2021-05-17T13:41:04.000Z</time>
      </trkpt>
      <trkpt lat="44.87596" lon="0.66029">
        <ele>112.8</ele>
        <time>2021-05-17T13:41:05.000Z</time>
      </trkpt>
      <trkpt lat="44.87594" lon="0.66024">
        <ele>113.1</ele>
        <time>2021-05-17T13:41:06.000Z</time>
      </trkpt>
      <trkpt lat="44.87593" lon="0.66019">
        <ele>113.3</ele>
        <time>2021-05-17T13:41:07.000Z</time>
      </trkpt>
      <trkpt lat="44.87593" lon="0.66015">
        <ele>113.5</ele>
        <time>2021-05-17T13:41:08.000Z</time>
      </trkpt>
      <trkpt lat="44.87593" lon="0.66009">
        <ele>113.7</ele>
        <time>2021-05-17T13:41:09.000Z</time>
      </trkpt>
      <trkpt lat="44.87593" lon="0.66006">
        <ele>113.9</ele>
        <time>2021-05-17T13:41:10.000Z</time>
      </trkpt>
      <trkpt lat="44.87593" lon="0.66001">
        <ele>114.1</ele>
        <time>2021-05-17T13:41:11.000Z</time>
      </trkpt>
      <trkpt lat="44.87593" lon="0.65999">
        <ele>114.2</ele>
        <time>2021-05-17T13:41:12.000Z</time>
      </trkpt>
      <trkpt lat="44.87593" lon="0.65997">
        <ele>114.2</ele>
        <time>2021-05-17T13:41:13.000Z</time>
      </trkpt>
      <trkpt lat="44.87593" lon="0.65993">
        <ele>114.4</ele>
        <time>2021-05-17T13:41:14.000Z</time>
      </trkpt>
      <trkpt lat="44.87593" lon="0.65991">
        <ele>114.4</ele>
        <time>2021-05-17T13:41:15.000Z</time>
      </trkpt>
      <trkpt lat="44.87593" lon="0.65989">
        <ele>114.5</ele>
        <time>2021-05-17T13:41:16.000Z</time>
      </trkpt>
      <trkpt lat="44.87593" lon="0.65986">
        <ele>114.6</ele>
        <time>2021-05-17T13:41:17.000Z</time>
      </trkpt>
      <trkpt lat="44.87592" lon="0.65982">
        <ele>114.7</ele>
        <time>2021-05-17T13:41:18.000Z</time>
      </trkpt>
      <trkpt lat="44.87592" lon="0.6598">
        <ele>114.7</ele>
        <time>2021-05-17T13:41:19.000Z</time>
      </trkpt>
      <trkpt lat="44.87592" lon="0.65976">
        <ele>114.9</ele>
        <time>2021-05-17T13:41:20.000Z</time>
      </trkpt>
      <trkpt lat="44.87591" lon="0.65971">
        <ele>115.1</ele>
        <time>2021-05-17T13:41:21.000Z</time>
      </trkpt>
      <trkpt lat="44.87591" lon="0.6597">
        <ele>115.1</ele>
        <time>2021-05-17T13:41:22.000Z</time>
      </trkpt>
      <trkpt lat="44.8759" lon="0.65967">
        <ele>115.2</ele>
        <time>2021-05-17T13:41:23.000Z</time>
      </trkpt>
      <trkpt lat="44.8759" lon="0.65966">
        <ele>115.2</ele>
        <time>2021-05-17T13:41:24.000Z</time>
      </trkpt>
      <trkpt lat="44.8759" lon="0.65963">
        <ele>115.3</ele>
        <time>2021-05-17T13:41:25.000Z</time>
      </trkpt>
      <trkpt lat="44.8759" lon="0.65961">
        <ele>115.3</ele>
        <time>2021-05-17T13:41:26.000Z</time>
      </trkpt>
      <trkpt lat="44.87591" lon="0.65957">
        <ele>115.4</ele>
        <time>2021-05-17T13:41:27.000Z</time>
      </trkpt>
      <trkpt lat="44.87592" lon="0.65956">
        <ele>115.3</ele>
        <time>2021-05-17T13:41:28.000Z</time>
      </trkpt>
      <trkpt lat="44.87593" lon="0.65952">
        <ele>115.4</ele>
        <time>2021-05-17T13:41:29.000Z</time>
      </trkpt>
      <trkpt lat="44.87593" lon="0.6595">
        <ele>115.4</ele>
        <time>2021-05-17T13:41:30.000Z</time>
      </trkpt>
      <trkpt lat="44.87595" lon="0.65947">
        <ele>115.3</ele>
        <time>2021-05-17T13:41:31.000Z</time>
      </trkpt>
      <trkpt lat="44.87595" lon="0.65945">
        <ele>115.3</ele>
        <time>2021-05-17T13:41:32.000Z</time>
      </trkpt>
      <trkpt lat="44.87595" lon="0.65942">
        <ele>115.3</ele>
        <time>2021-05-17T13:41:33.000Z</time>
      </trkpt>
      <trkpt lat="44.87597" lon="0.65938">
        <ele>115.4</ele>
        <time>2021-05-17T13:41:34.000Z</time>
      </trkpt>
      <trkpt lat="44.87597" lon="0.65936">
        <ele>115.4</ele>
        <time>2021-05-17T13:41:35.000Z</time>
      </trkpt>
      <trkpt lat="44.87597" lon="0.65931">
        <ele>115.4</ele>
        <time>2021-05-17T13:41:36.000Z</time>
      </trkpt>
      <trkpt lat="44.87597" lon="0.6593">
        <ele>115.5</ele>
        <time>2021-05-17T13:41:37.000Z</time>
      </trkpt>
      <trkpt lat="44.87597" lon="0.65925">
        <ele>115.5</ele>
        <time>2021-05-17T13:41:38.000Z</time>
      </trkpt>
      <trkpt lat="44.87597" lon="0.65924">
        <ele>115.5</ele>
        <time>2021-05-17T13:41:39.000Z</time>
      </trkpt>
      <trkpt lat="44.87597" lon="0.65918">
        <ele>115.6</ele>
        <time>2021-05-17T13:41:40.000Z</time>
      </trkpt>
      <trkpt lat="44.87596" lon="0.65916">
        <ele>115.7</ele>
        <time>2021-05-17T13:41:41.000Z</time>
      </trkpt>
      <trkpt lat="44.87595" lon="0.65912">
        <ele>115.7</ele>
        <time>2021-05-17T13:41:42.000Z</time>
      </trkpt>
      <trkpt lat="44.87595" lon="0.65911">
        <ele>115.7</ele>
        <time>2021-05-17T13:41:43.000Z</time>
      </trkpt>
      <trkpt lat="44.87595" lon="0.65909">
        <ele>115.8</ele>
        <time>2021-05-17T13:41:44.000Z</time>
      </trkpt>
      <trkpt lat="44.87594" lon="0.65906">
        <ele>115.8</ele>
        <time>2021-05-17T13:41:45.000Z</time>
      </trkpt>
      <trkpt lat="44.87594" lon="0.65902">
        <ele>116</ele>
        <time>2021-05-17T13:41:46.000Z</time>
      </trkpt>
      <trkpt lat="44.87595" lon="0.65897">
        <ele>115.8</ele>
        <time>2021-05-17T13:41:47.000Z</time>
      </trkpt>
      <trkpt lat="44.87595" lon="0.65896">
        <ele>115.8</ele>
        <time>2021-05-17T13:41:48.000Z</time>
      </trkpt>
      <trkpt lat="44.87596" lon="0.65891">
        <ele>115.9</ele>
        <time>2021-05-17T13:41:49.000Z</time>
      </trkpt>
      <trkpt lat="44.87596" lon="0.65889">
        <ele>115.9</ele>
        <time>2021-05-17T13:41:50.000Z</time>
      </trkpt>
      <trkpt lat="44.87597" lon="0.65886">
        <ele>115.9</ele>
        <time>2021-05-17T13:41:51.000Z</time>
      </trkpt>
      <trkpt lat="44.87597" lon="0.65885">
        <ele>115.9</ele>
        <time>2021-05-17T13:41:52.000Z</time>
      </trkpt>
      <trkpt lat="44.87597" lon="0.65879">
        <ele>115.9</ele>
        <time>2021-05-17T13:41:53.000Z</time>
      </trkpt>
      <trkpt lat="44.87597" lon="0.65877">
        <ele>115.9</ele>
        <time>2021-05-17T13:41:54.000Z</time>
      </trkpt>
      <trkpt lat="44.87596" lon="0.65873">
        <ele>116</ele>
        <time>2021-05-17T13:41:55.000Z</time>
      </trkpt>
      <trkpt lat="44.87596" lon="0.65869">
        <ele>116</ele>
        <time>2021-05-17T13:41:57.000Z</time>
      </trkpt>
      <trkpt lat="44.87596" lon="0.65867">
        <ele>116</ele>
        <time>2021-05-17T13:41:58.000Z</time>
      </trkpt>
      <trkpt lat="44.87596" lon="0.65862">
        <ele>116.1</ele>
        <time>2021-05-17T13:41:59.000Z</time>
      </trkpt>
      <trkpt lat="44.87596" lon="0.6586">
        <ele>116.1</ele>
        <time>2021-05-17T13:42:00.000Z</time>
      </trkpt>
      <trkpt lat="44.87597" lon="0.65858">
        <ele>116.2</ele>
        <time>2021-05-17T13:42:01.000Z</time>
      </trkpt>
      <trkpt lat="44.87598" lon="0.65856">
        <ele>116</ele>
        <time>2021-05-17T13:42:02.000Z</time>
      </trkpt>
      <trkpt lat="44.876" lon="0.65853">
        <ele>116</ele>
        <time>2021-05-17T13:42:03.000Z</time>
      </trkpt>
      <trkpt lat="44.87601" lon="0.65848">
        <ele>115.8</ele>
        <time>2021-05-17T13:42:04.000Z</time>
      </trkpt>
      <trkpt lat="44.87601" lon="0.65847">
        <ele>115.8</ele>
        <time>2021-05-17T13:42:05.000Z</time>
      </trkpt>
      <trkpt lat="44.87603" lon="0.65843">
        <ele>115.8</ele>
        <time>2021-05-17T13:42:06.000Z</time>
      </trkpt>
      <trkpt lat="44.87604" lon="0.65837">
        <ele>115.6</ele>
        <time>2021-05-17T13:42:07.000Z</time>
      </trkpt>
      <trkpt lat="44.87605" lon="0.65835">
        <ele>115.5</ele>
        <time>2021-05-17T13:42:08.000Z</time>
      </trkpt>
      <trkpt lat="44.87606" lon="0.65831">
        <ele>115.4</ele>
        <time>2021-05-17T13:42:09.000Z</time>
      </trkpt>
      <trkpt lat="44.87608" lon="0.65817">
        <ele>115.1</ele>
        <time>2021-05-17T13:42:10.000Z</time>
      </trkpt>
      <trkpt lat="44.8761" lon="0.65807">
        <ele>114.8</ele>
        <time>2021-05-17T13:42:11.000Z</time>
      </trkpt>
      <trkpt lat="44.87611" lon="0.65797">
        <ele>114.6</ele>
        <time>2021-05-17T13:42:12.000Z</time>
      </trkpt>
      <trkpt lat="44.87611" lon="0.65784">
        <ele>114.4</ele>
        <time>2021-05-17T13:42:13.000Z</time>
      </trkpt>
      <trkpt lat="44.87611" lon="0.65776">
        <ele>114.2</ele>
        <time>2021-05-17T13:42:14.000Z</time>
      </trkpt>
      <trkpt lat="44.87614" lon="0.6577">
        <ele>113.9</ele>
        <time>2021-05-17T13:42:15.000Z</time>
      </trkpt>
      <trkpt lat="44.87616" lon="0.65767">
        <ele>113.6</ele>
        <time>2021-05-17T13:42:16.000Z</time>
      </trkpt>
      <trkpt lat="44.87617" lon="0.65766">
        <ele>113.6</ele>
        <time>2021-05-17T13:42:17.000Z</time>
      </trkpt>
      <trkpt lat="44.87619" lon="0.65762">
        <ele>113.6</ele>
        <time>2021-05-17T13:42:18.000Z</time>
      </trkpt>
      <trkpt lat="44.87619" lon="0.65755">
        <ele>113.4</ele>
        <time>2021-05-17T13:42:19.000Z</time>
      </trkpt>
      <trkpt lat="44.87618" lon="0.65746">
        <ele>113.3</ele>
        <time>2021-05-17T13:42:20.000Z</time>
      </trkpt>
      <trkpt lat="44.87619" lon="0.65738">
        <ele>113.1</ele>
        <time>2021-05-17T13:42:21.000Z</time>
      </trkpt>
      <trkpt lat="44.87621" lon="0.6573">
        <ele>113</ele>
        <time>2021-05-17T13:42:22.000Z</time>
      </trkpt>
      <trkpt lat="44.87622" lon="0.65715">
        <ele>112.3</ele>
        <time>2021-05-17T13:42:23.000Z</time>
      </trkpt>
      <trkpt lat="44.87622" lon="0.65702">
        <ele>111.6</ele>
        <time>2021-05-17T13:42:24.000Z</time>
      </trkpt>
      <trkpt lat="44.87621" lon="0.65688">
        <ele>111</ele>
        <time>2021-05-17T13:42:25.000Z</time>
      </trkpt>
      <trkpt lat="44.87619" lon="0.65671">
        <ele>110</ele>
        <time>2021-05-17T13:42:26.000Z</time>
      </trkpt>
      <trkpt lat="44.87617" lon="0.6566">
        <ele>109.4</ele>
        <time>2021-05-17T13:42:27.000Z</time>
      </trkpt>
      <trkpt lat="44.87616" lon="0.65648">
        <ele>109.1</ele>
        <time>2021-05-17T13:42:28.000Z</time>
      </trkpt>
      <trkpt lat="44.87613" lon="0.65639">
        <ele>108.5</ele>
        <time>2021-05-17T13:42:29.000Z</time>
      </trkpt>
      <trkpt lat="44.87612" lon="0.6563">
        <ele>107.9</ele>
        <time>2021-05-17T13:42:30.000Z</time>
      </trkpt>
      <trkpt lat="44.87609" lon="0.6562">
        <ele>107.5</ele>
        <time>2021-05-17T13:42:31.000Z</time>
      </trkpt>
      <trkpt lat="44.87606" lon="0.6561">
        <ele>107.1</ele>
        <time>2021-05-17T13:42:32.000Z</time>
      </trkpt>
      <trkpt lat="44.87599" lon="0.65594">
        <ele>106.6</ele>
        <time>2021-05-17T13:42:33.000Z</time>
      </trkpt>
      <trkpt lat="44.87598" lon="0.65587">
        <ele>106.5</ele>
        <time>2021-05-17T13:42:34.000Z</time>
      </trkpt>
      <trkpt lat="44.87597" lon="0.65576">
        <ele>106.6</ele>
        <time>2021-05-17T13:42:35.000Z</time>
      </trkpt>
      <trkpt lat="44.87594" lon="0.65567">
        <ele>106.7</ele>
        <time>2021-05-17T13:42:36.000Z</time>
      </trkpt>
      <trkpt lat="44.87588" lon="0.65558">
        <ele>106.8</ele>
        <time>2021-05-17T13:42:37.000Z</time>
      </trkpt>
      <trkpt lat="44.87586" lon="0.6555">
        <ele>106.9</ele>
        <time>2021-05-17T13:42:38.000Z</time>
      </trkpt>
      <trkpt lat="44.87584" lon="0.65541">
        <ele>107</ele>
        <time>2021-05-17T13:42:39.000Z</time>
      </trkpt>
      <trkpt lat="44.87581" lon="0.65534">
        <ele>107.1</ele>
        <time>2021-05-17T13:42:40.000Z</time>
      </trkpt>
      <trkpt lat="44.87574" lon="0.65527">
        <ele>107.3</ele>
        <time>2021-05-17T13:42:41.000Z</time>
      </trkpt>
      <trkpt lat="44.87568" lon="0.65522">
        <ele>107.4</ele>
        <time>2021-05-17T13:42:42.000Z</time>
      </trkpt>
      <trkpt lat="44.87562" lon="0.65517">
        <ele>107.5</ele>
        <time>2021-05-17T13:42:43.000Z</time>
      </trkpt>
      <trkpt lat="44.87554" lon="0.65512">
        <ele>107.6</ele>
        <time>2021-05-17T13:42:44.000Z</time>
      </trkpt>
      <trkpt lat="44.87551" lon="0.65509">
        <ele>107.7</ele>
        <time>2021-05-17T13:42:45.000Z</time>
      </trkpt>
      <trkpt lat="44.87542" lon="0.65514">
        <ele>107.6</ele>
        <time>2021-05-17T13:42:46.000Z</time>
      </trkpt>
      <trkpt lat="44.87538" lon="0.65511">
        <ele>107.6</ele>
        <time>2021-05-17T13:42:47.000Z</time>
      </trkpt>
      <trkpt lat="44.87534" lon="0.65508">
        <ele>107.8</ele>
        <time>2021-05-17T13:42:48.000Z</time>
      </trkpt>
      <trkpt lat="44.87527" lon="0.65506">
        <ele>108</ele>
        <time>2021-05-17T13:42:49.000Z</time>
      </trkpt>
      <trkpt lat="44.87523" lon="0.65504">
        <ele>108.1</ele>
        <time>2021-05-17T13:42:50.000Z</time>
      </trkpt>
      <trkpt lat="44.87518" lon="0.65503">
        <ele>108.1</ele>
        <time>2021-05-17T13:42:51.000Z</time>
      </trkpt>
      <trkpt lat="44.87512" lon="0.65502">
        <ele>108.2</ele>
        <time>2021-05-17T13:42:52.000Z</time>
      </trkpt>
      <trkpt lat="44.87504" lon="0.65503">
        <ele>108.2</ele>
        <time>2021-05-17T13:42:53.000Z</time>
      </trkpt>
      <trkpt lat="44.87497" lon="0.65504">
        <ele>108.1</ele>
        <time>2021-05-17T13:42:54.000Z</time>
      </trkpt>
      <trkpt lat="44.87492" lon="0.65505">
        <ele>108.1</ele>
        <time>2021-05-17T13:42:55.000Z</time>
      </trkpt>
      <trkpt lat="44.87486" lon="0.65505">
        <ele>108.1</ele>
        <time>2021-05-17T13:42:56.000Z</time>
      </trkpt>
      <trkpt lat="44.87479" lon="0.65505">
        <ele>108.1</ele>
        <time>2021-05-17T13:42:57.000Z</time>
      </trkpt>
      <trkpt lat="44.87472" lon="0.65505">
        <ele>108.1</ele>
        <time>2021-05-17T13:42:58.000Z</time>
      </trkpt>
      <trkpt lat="44.87465" lon="0.65506">
        <ele>107.8</ele>
        <time>2021-05-17T13:42:59.000Z</time>
      </trkpt>
      <trkpt lat="44.87459" lon="0.65505">
        <ele>108</ele>
        <time>2021-05-17T13:43:00.000Z</time>
      </trkpt>
      <trkpt lat="44.87455" lon="0.65504">
        <ele>108.1</ele>
        <time>2021-05-17T13:43:01.000Z</time>
      </trkpt>
      <trkpt lat="44.87451" lon="0.65505">
        <ele>107.9</ele>
        <time>2021-05-17T13:43:02.000Z</time>
      </trkpt>
      <trkpt lat="44.87444" lon="0.65504">
        <ele>107.9</ele>
        <time>2021-05-17T13:43:03.000Z</time>
      </trkpt>
      <trkpt lat="44.87437" lon="0.65501">
        <ele>108</ele>
        <time>2021-05-17T13:43:04.000Z</time>
      </trkpt>
      <trkpt lat="44.87432" lon="0.65497">
        <ele>108.1</ele>
        <time>2021-05-17T13:43:05.000Z</time>
      </trkpt>
      <trkpt lat="44.87426" lon="0.65495">
        <ele>108</ele>
        <time>2021-05-17T13:43:06.000Z</time>
      </trkpt>
      <trkpt lat="44.87421" lon="0.65495">
        <ele>107.8</ele>
        <time>2021-05-17T13:43:07.000Z</time>
      </trkpt>
      <trkpt lat="44.87417" lon="0.65494">
        <ele>107.5</ele>
        <time>2021-05-17T13:43:08.000Z</time>
      </trkpt>
      <trkpt lat="44.87411" lon="0.65494">
        <ele>107.1</ele>
        <time>2021-05-17T13:43:09.000Z</time>
      </trkpt>
      <trkpt lat="44.87405" lon="0.65492">
        <ele>106.9</ele>
        <time>2021-05-17T13:43:10.000Z</time>
      </trkpt>
      <trkpt lat="44.874" lon="0.65488">
        <ele>106.7</ele>
        <time>2021-05-17T13:43:11.000Z</time>
      </trkpt>
      <trkpt lat="44.87394" lon="0.65486">
        <ele>106.5</ele>
        <time>2021-05-17T13:43:12.000Z</time>
      </trkpt>
      <trkpt lat="44.87387" lon="0.65484">
        <ele>105.8</ele>
        <time>2021-05-17T13:43:13.000Z</time>
      </trkpt>
      <trkpt lat="44.87384" lon="0.65479">
        <ele>105.7</ele>
        <time>2021-05-17T13:43:14.000Z</time>
      </trkpt>
      <trkpt lat="44.87378" lon="0.65478">
        <ele>105.1</ele>
        <time>2021-05-17T13:43:15.000Z</time>
      </trkpt>
      <trkpt lat="44.87375" lon="0.65478">
        <ele>105</ele>
        <time>2021-05-17T13:43:16.000Z</time>
      </trkpt>
      <trkpt lat="44.87369" lon="0.65477">
        <ele>104.4</ele>
        <time>2021-05-17T13:43:17.000Z</time>
      </trkpt>
      <trkpt lat="44.87367" lon="0.65475">
        <ele>104.5</ele>
        <time>2021-05-17T13:43:18.000Z</time>
      </trkpt>
      <trkpt lat="44.87362" lon="0.65472">
        <ele>103.8</ele>
        <time>2021-05-17T13:43:19.000Z</time>
      </trkpt>
      <trkpt lat="44.87358" lon="0.65469">
        <ele>103.4</ele>
        <time>2021-05-17T13:43:20.000Z</time>
      </trkpt>
      <trkpt lat="44.87352" lon="0.65466">
        <ele>102.7</ele>
        <time>2021-05-17T13:43:21.000Z</time>
      </trkpt>
      <trkpt lat="44.87346" lon="0.65463">
        <ele>101.9</ele>
        <time>2021-05-17T13:43:22.000Z</time>
      </trkpt>
      <trkpt lat="44.8734" lon="0.65456">
        <ele>101</ele>
        <time>2021-05-17T13:43:23.000Z</time>
      </trkpt>
      <trkpt lat="44.87335" lon="0.65453">
        <ele>100.1</ele>
        <time>2021-05-17T13:43:24.000Z</time>
      </trkpt>
      <trkpt lat="44.87332" lon="0.65449">
        <ele>99.6</ele>
        <time>2021-05-17T13:43:25.000Z</time>
      </trkpt>
      <trkpt lat="44.8733" lon="0.65445">
        <ele>99.7</ele>
        <time>2021-05-17T13:43:26.000Z</time>
      </trkpt>
      <trkpt lat="44.87328" lon="0.6544">
        <ele>99.2</ele>
        <time>2021-05-17T13:43:27.000Z</time>
      </trkpt>
      <trkpt lat="44.87327" lon="0.65435">
        <ele>99.3</ele>
        <time>2021-05-17T13:43:28.000Z</time>
      </trkpt>
      <trkpt lat="44.87326" lon="0.65428">
        <ele>98.9</ele>
        <time>2021-05-17T13:43:29.000Z</time>
      </trkpt>
      <trkpt lat="44.87324" lon="0.65423">
        <ele>99</ele>
        <time>2021-05-17T13:43:30.000Z</time>
      </trkpt>
      <trkpt lat="44.87325" lon="0.65417">
        <ele>99.1</ele>
        <time>2021-05-17T13:43:31.000Z</time>
      </trkpt>
      <trkpt lat="44.87324" lon="0.65412">
        <ele>99.2</ele>
        <time>2021-05-17T13:43:32.000Z</time>
      </trkpt>
      <trkpt lat="44.87326" lon="0.65405">
        <ele>99.5</ele>
        <time>2021-05-17T13:43:33.000Z</time>
      </trkpt>
      <trkpt lat="44.87325" lon="0.65399">
        <ele>100</ele>
        <time>2021-05-17T13:43:34.000Z</time>
      </trkpt>
      <trkpt lat="44.87323" lon="0.65393">
        <ele>99.7</ele>
        <time>2021-05-17T13:43:35.000Z</time>
      </trkpt>
      <trkpt lat="44.87322" lon="0.65388">
        <ele>100</ele>
        <time>2021-05-17T13:43:36.000Z</time>
      </trkpt>
      <trkpt lat="44.87323" lon="0.65383">
        <ele>100.4</ele>
        <time>2021-05-17T13:43:37.000Z</time>
      </trkpt>
      <trkpt lat="44.87324" lon="0.65377">
        <ele>101.6</ele>
        <time>2021-05-17T13:43:38.000Z</time>
      </trkpt>
      <trkpt lat="44.87325" lon="0.65371">
        <ele>101.9</ele>
        <time>2021-05-17T13:43:39.000Z</time>
      </trkpt>
      <trkpt lat="44.87325" lon="0.65366">
        <ele>102.1</ele>
        <time>2021-05-17T13:43:40.000Z</time>
      </trkpt>
      <trkpt lat="44.87326" lon="0.6536">
        <ele>102.4</ele>
        <time>2021-05-17T13:43:41.000Z</time>
      </trkpt>
      <trkpt lat="44.87326" lon="0.65356">
        <ele>102.8</ele>
        <time>2021-05-17T13:43:42.000Z</time>
      </trkpt>
      <trkpt lat="44.87326" lon="0.6535">
        <ele>103</ele>
        <time>2021-05-17T13:43:43.000Z</time>
      </trkpt>
      <trkpt lat="44.87325" lon="0.65344">
        <ele>103.1</ele>
        <time>2021-05-17T13:43:44.000Z</time>
      </trkpt>
      <trkpt lat="44.87326" lon="0.6534">
        <ele>103.2</ele>
        <time>2021-05-17T13:43:45.000Z</time>
      </trkpt>
      <trkpt lat="44.87326" lon="0.65334">
        <ele>103.5</ele>
        <time>2021-05-17T13:43:46.000Z</time>
      </trkpt>
      <trkpt lat="44.87326" lon="0.65331">
        <ele>103.5</ele>
        <time>2021-05-17T13:43:47.000Z</time>
      </trkpt>
      <trkpt lat="44.87326" lon="0.65326">
        <ele>103.6</ele>
        <time>2021-05-17T13:43:48.000Z</time>
      </trkpt>
      <trkpt lat="44.87326" lon="0.6532">
        <ele>103.8</ele>
        <time>2021-05-17T13:43:49.000Z</time>
      </trkpt>
      <trkpt lat="44.87326" lon="0.65315">
        <ele>103.9</ele>
        <time>2021-05-17T13:43:50.000Z</time>
      </trkpt>
      <trkpt lat="44.87327" lon="0.65312">
        <ele>104</ele>
        <time>2021-05-17T13:43:51.000Z</time>
      </trkpt>
      <trkpt lat="44.87326" lon="0.65307">
        <ele>104.2</ele>
        <time>2021-05-17T13:43:52.000Z</time>
      </trkpt>
      <trkpt lat="44.87326" lon="0.65303">
        <ele>104.3</ele>
        <time>2021-05-17T13:43:53.000Z</time>
      </trkpt>
      <trkpt lat="44.87326" lon="0.65298">
        <ele>104.4</ele>
        <time>2021-05-17T13:43:54.000Z</time>
      </trkpt>
      <trkpt lat="44.87326" lon="0.65295">
        <ele>104.6</ele>
        <time>2021-05-17T13:43:55.000Z</time>
      </trkpt>
      <trkpt lat="44.87326" lon="0.6529">
        <ele>104.7</ele>
        <time>2021-05-17T13:43:56.000Z</time>
      </trkpt>
      <trkpt lat="44.87326" lon="0.65281">
        <ele>104.9</ele>
        <time>2021-05-17T13:43:57.000Z</time>
      </trkpt>
      <trkpt lat="44.87326" lon="0.65277">
        <ele>105</ele>
        <time>2021-05-17T13:43:58.000Z</time>
      </trkpt>
      <trkpt lat="44.87327" lon="0.65273">
        <ele>105.6</ele>
        <time>2021-05-17T13:43:59.000Z</time>
      </trkpt>
      <trkpt lat="44.87328" lon="0.65268">
        <ele>105.7</ele>
        <time>2021-05-17T13:44:00.000Z</time>
      </trkpt>
      <trkpt lat="44.87329" lon="0.65264">
        <ele>105.8</ele>
        <time>2021-05-17T13:44:01.000Z</time>
      </trkpt>
      <trkpt lat="44.8733" lon="0.65259">
        <ele>106.4</ele>
        <time>2021-05-17T13:44:03.000Z</time>
      </trkpt>
      <trkpt lat="44.87331" lon="0.65257">
        <ele>106.4</ele>
        <time>2021-05-17T13:44:04.000Z</time>
      </trkpt>
      <trkpt lat="44.87332" lon="0.65253">
        <ele>106.4</ele>
        <time>2021-05-17T13:44:05.000Z</time>
      </trkpt>
      <trkpt lat="44.87332" lon="0.65251">
        <ele>106.4</ele>
        <time>2021-05-17T13:44:06.000Z</time>
      </trkpt>
      <trkpt lat="44.87334" lon="0.65247">
        <ele>106.9</ele>
        <time>2021-05-17T13:44:07.000Z</time>
      </trkpt>
      <trkpt lat="44.87334" lon="0.65244">
        <ele>106.9</ele>
        <time>2021-05-17T13:44:08.000Z</time>
      </trkpt>
      <trkpt lat="44.87335" lon="0.65241">
        <ele>107</ele>
        <time>2021-05-17T13:44:09.000Z</time>
      </trkpt>
      <trkpt lat="44.87338" lon="0.65237">
        <ele>107.3</ele>
        <time>2021-05-17T13:44:10.000Z</time>
      </trkpt>
      <trkpt lat="44.87339" lon="0.65235">
        <ele>107.3</ele>
        <time>2021-05-17T13:44:11.000Z</time>
      </trkpt>
      <trkpt lat="44.87341" lon="0.65232">
        <ele>107.8</ele>
        <time>2021-05-17T13:44:12.000Z</time>
      </trkpt>
      <trkpt lat="44.87343" lon="0.65227">
        <ele>108.1</ele>
        <time>2021-05-17T13:44:13.000Z</time>
      </trkpt>
      <trkpt lat="44.87345" lon="0.65223">
        <ele>108.5</ele>
        <time>2021-05-17T13:44:14.000Z</time>
      </trkpt>
      <trkpt lat="44.87348" lon="0.6522">
        <ele>108.2</ele>
        <time>2021-05-17T13:44:15.000Z</time>
      </trkpt>
      <trkpt lat="44.8735" lon="0.65216">
        <ele>108.5</ele>
        <time>2021-05-17T13:44:16.000Z</time>
      </trkpt>
      <trkpt lat="44.87351" lon="0.65212">
        <ele>108.7</ele>
        <time>2021-05-17T13:44:17.000Z</time>
      </trkpt>
      <trkpt lat="44.87354" lon="0.65207">
        <ele>108.8</ele>
        <time>2021-05-17T13:44:18.000Z</time>
      </trkpt>
      <trkpt lat="44.87358" lon="0.65202">
        <ele>109</ele>
        <time>2021-05-17T13:44:19.000Z</time>
      </trkpt>
      <trkpt lat="44.8736" lon="0.652">
        <ele>108.7</ele>
        <time>2021-05-17T13:44:20.000Z</time>
      </trkpt>
      <trkpt lat="44.87362" lon="0.65197">
        <ele>109.1</ele>
        <time>2021-05-17T13:44:21.000Z</time>
      </trkpt>
      <trkpt lat="44.87364" lon="0.65193">
        <ele>109.1</ele>
        <time>2021-05-17T13:44:22.000Z</time>
      </trkpt>
      <trkpt lat="44.87366" lon="0.6519">
        <ele>109.1</ele>
        <time>2021-05-17T13:44:23.000Z</time>
      </trkpt>
      <trkpt lat="44.87368" lon="0.65185">
        <ele>109.3</ele>
        <time>2021-05-17T13:44:24.000Z</time>
      </trkpt>
      <trkpt lat="44.87371" lon="0.6518">
        <ele>109.4</ele>
        <time>2021-05-17T13:44:25.000Z</time>
      </trkpt>
      <trkpt lat="44.87373" lon="0.65177">
        <ele>109.5</ele>
        <time>2021-05-17T13:44:26.000Z</time>
      </trkpt>
      <trkpt lat="44.87375" lon="0.65174">
        <ele>109.4</ele>
        <time>2021-05-17T13:44:27.000Z</time>
      </trkpt>
      <trkpt lat="44.87376" lon="0.65173">
        <ele>109.6</ele>
        <time>2021-05-17T13:44:28.000Z</time>
      </trkpt>
      <trkpt lat="44.87379" lon="0.6517">
        <ele>109.8</ele>
        <time>2021-05-17T13:44:29.000Z</time>
      </trkpt>
      <trkpt lat="44.87381" lon="0.65168">
        <ele>109.8</ele>
        <time>2021-05-17T13:44:30.000Z</time>
      </trkpt>
      <trkpt lat="44.87382" lon="0.65167">
        <ele>109.8</ele>
        <time>2021-05-17T13:44:31.000Z</time>
      </trkpt>
      <trkpt lat="44.87386" lon="0.65164">
        <ele>110.2</ele>
        <time>2021-05-17T13:44:32.000Z</time>
      </trkpt>
      <trkpt lat="44.87388" lon="0.65163">
        <ele>110.4</ele>
        <time>2021-05-17T13:44:33.000Z</time>
      </trkpt>
      <trkpt lat="44.87391" lon="0.6516">
        <ele>110.6</ele>
        <time>2021-05-17T13:44:34.000Z</time>
      </trkpt>
      <trkpt lat="44.87393" lon="0.65157">
        <ele>110.4</ele>
        <time>2021-05-17T13:44:35.000Z</time>
      </trkpt>
      <trkpt lat="44.87396" lon="0.65154">
        <ele>110.6</ele>
        <time>2021-05-17T13:44:36.000Z</time>
      </trkpt>
      <trkpt lat="44.87397" lon="0.65152">
        <ele>110.6</ele>
        <time>2021-05-17T13:44:37.000Z</time>
      </trkpt>
      <trkpt lat="44.87399" lon="0.6515">
        <ele>110.8</ele>
        <time>2021-05-17T13:44:38.000Z</time>
      </trkpt>
      <trkpt lat="44.87404" lon="0.65146">
        <ele>111.3</ele>
        <time>2021-05-17T13:44:39.000Z</time>
      </trkpt>
      <trkpt lat="44.87406" lon="0.6514">
        <ele>111.4</ele>
        <time>2021-05-17T13:44:40.000Z</time>
      </trkpt>
      <trkpt lat="44.8741" lon="0.65137">
        <ele>111.7</ele>
        <time>2021-05-17T13:44:41.000Z</time>
      </trkpt>
      <trkpt lat="44.87411" lon="0.65134">
        <ele>111.7</ele>
        <time>2021-05-17T13:44:42.000Z</time>
      </trkpt>
      <trkpt lat="44.87411" lon="0.65133">
        <ele>111.7</ele>
        <time>2021-05-17T13:44:43.000Z</time>
      </trkpt>
      <trkpt lat="44.87414" lon="0.65129">
        <ele>112</ele>
        <time>2021-05-17T13:44:44.000Z</time>
      </trkpt>
      <trkpt lat="44.87417" lon="0.65126">
        <ele>112.3</ele>
        <time>2021-05-17T13:44:45.000Z</time>
      </trkpt>
      <trkpt lat="44.8742" lon="0.65122">
        <ele>112.6</ele>
        <time>2021-05-17T13:44:46.000Z</time>
      </trkpt>
      <trkpt lat="44.87422" lon="0.6512">
        <ele>113</ele>
        <time>2021-05-17T13:44:47.000Z</time>
      </trkpt>
      <trkpt lat="44.87423" lon="0.65117">
        <ele>112.9</ele>
        <time>2021-05-17T13:44:48.000Z</time>
      </trkpt>
      <trkpt lat="44.87424" lon="0.65115">
        <ele>113.1</ele>
        <time>2021-05-17T13:44:49.000Z</time>
      </trkpt>
      <trkpt lat="44.87425" lon="0.65114">
        <ele>113.1</ele>
        <time>2021-05-17T13:44:50.000Z</time>
      </trkpt>
      <trkpt lat="44.87426" lon="0.6511">
        <ele>113</ele>
        <time>2021-05-17T13:44:51.000Z</time>
      </trkpt>
      <trkpt lat="44.87426" lon="0.65108">
        <ele>113</ele>
        <time>2021-05-17T13:44:52.000Z</time>
      </trkpt>
      <trkpt lat="44.87426" lon="0.65107">
        <ele>112.9</ele>
        <time>2021-05-17T13:44:53.000Z</time>
      </trkpt>
      <trkpt lat="44.87426" lon="0.65104">
        <ele>112.9</ele>
        <time>2021-05-17T13:44:54.000Z</time>
      </trkpt>
      <trkpt lat="44.87424" lon="0.65101">
        <ele>112.8</ele>
        <time>2021-05-17T13:44:55.000Z</time>
      </trkpt>
      <trkpt lat="44.87424" lon="0.65099">
        <ele>112.5</ele>
        <time>2021-05-17T13:44:56.000Z</time>
      </trkpt>
      <trkpt lat="44.87423" lon="0.65096">
        <ele>112.5</ele>
        <time>2021-05-17T13:44:57.000Z</time>
      </trkpt>
      <trkpt lat="44.87423" lon="0.65094">
        <ele>112.5</ele>
        <time>2021-05-17T13:44:58.000Z</time>
      </trkpt>
      <trkpt lat="44.87423" lon="0.65092">
        <ele>112.5</ele>
        <time>2021-05-17T13:44:59.000Z</time>
      </trkpt>
      <trkpt lat="44.87423" lon="0.6509">
        <ele>112.5</ele>
        <time>2021-05-17T13:45:00.000Z</time>
      </trkpt>
      <trkpt lat="44.87422" lon="0.65086">
        <ele>112.5</ele>
        <time>2021-05-17T13:45:01.000Z</time>
      </trkpt>
      <trkpt lat="44.87421" lon="0.65084">
        <ele>112.4</ele>
        <time>2021-05-17T13:45:02.000Z</time>
      </trkpt>
      <trkpt lat="44.87421" lon="0.65078">
        <ele>112.6</ele>
        <time>2021-05-17T13:45:03.000Z</time>
      </trkpt>
      <trkpt lat="44.87422" lon="0.65075">
        <ele>112.6</ele>
        <time>2021-05-17T13:45:04.000Z</time>
      </trkpt>
      <trkpt lat="44.87422" lon="0.65074">
        <ele>112.6</ele>
        <time>2021-05-17T13:45:05.000Z</time>
      </trkpt>
      <trkpt lat="44.87423" lon="0.65072">
        <ele>112.7</ele>
        <time>2021-05-17T13:45:06.000Z</time>
      </trkpt>
      <trkpt lat="44.87425" lon="0.65068">
        <ele>112.8</ele>
        <time>2021-05-17T13:45:07.000Z</time>
      </trkpt>
      <trkpt lat="44.87426" lon="0.65067">
        <ele>112.9</ele>
        <time>2021-05-17T13:45:08.000Z</time>
      </trkpt>
      <trkpt lat="44.87425" lon="0.65065">
        <ele>112.9</ele>
        <time>2021-05-17T13:45:09.000Z</time>
      </trkpt>
      <trkpt lat="44.87426" lon="0.65063">
        <ele>113</ele>
        <time>2021-05-17T13:45:10.000Z</time>
      </trkpt>
      <trkpt lat="44.87427" lon="0.6506">
        <ele>113.1</ele>
        <time>2021-05-17T13:45:11.000Z</time>
      </trkpt>
      <trkpt lat="44.87428" lon="0.65056">
        <ele>113.1</ele>
        <time>2021-05-17T13:45:12.000Z</time>
      </trkpt>
      <trkpt lat="44.87429" lon="0.65055">
        <ele>113.3</ele>
        <time>2021-05-17T13:45:13.000Z</time>
      </trkpt>
      <trkpt lat="44.8743" lon="0.6505">
        <ele>113.4</ele>
        <time>2021-05-17T13:45:14.000Z</time>
      </trkpt>
      <trkpt lat="44.87432" lon="0.65044">
        <ele>113.5</ele>
        <time>2021-05-17T13:45:15.000Z</time>
      </trkpt>
      <trkpt lat="44.87433" lon="0.65042">
        <ele>113.6</ele>
        <time>2021-05-17T13:45:16.000Z</time>
      </trkpt>
      <trkpt lat="44.87435" lon="0.65038">
        <ele>113.7</ele>
        <time>2021-05-17T13:45:17.000Z</time>
      </trkpt>
      <trkpt lat="44.87436" lon="0.65036">
        <ele>113.7</ele>
        <time>2021-05-17T13:45:18.000Z</time>
      </trkpt>
      <trkpt lat="44.87437" lon="0.65032">
        <ele>113.8</ele>
        <time>2021-05-17T13:45:19.000Z</time>
      </trkpt>
      <trkpt lat="44.87438" lon="0.65028">
        <ele>113.9</ele>
        <time>2021-05-17T13:45:20.000Z</time>
      </trkpt>
      <trkpt lat="44.8744" lon="0.65027">
        <ele>113.9</ele>
        <time>2021-05-17T13:45:21.000Z</time>
      </trkpt>
      <trkpt lat="44.87442" lon="0.65024">
        <ele>114</ele>
        <time>2021-05-17T13:45:22.000Z</time>
      </trkpt>
      <trkpt lat="44.87442" lon="0.65018">
        <ele>114</ele>
        <time>2021-05-17T13:45:23.000Z</time>
      </trkpt>
      <trkpt lat="44.87442" lon="0.65014">
        <ele>114.1</ele>
        <time>2021-05-17T13:45:24.000Z</time>
      </trkpt>
      <trkpt lat="44.87443" lon="0.65009">
        <ele>114.1</ele>
        <time>2021-05-17T13:45:25.000Z</time>
      </trkpt>
      <trkpt lat="44.87443" lon="0.65006">
        <ele>114.2</ele>
        <time>2021-05-17T13:45:26.000Z</time>
      </trkpt>
      <trkpt lat="44.87443" lon="0.65">
        <ele>114.3</ele>
        <time>2021-05-17T13:45:27.000Z</time>
      </trkpt>
      <trkpt lat="44.87443" lon="0.64995">
        <ele>114.4</ele>
        <time>2021-05-17T13:45:28.000Z</time>
      </trkpt>
      <trkpt lat="44.87444" lon="0.6499">
        <ele>114.4</ele>
        <time>2021-05-17T13:45:29.000Z</time>
      </trkpt>
      <trkpt lat="44.87445" lon="0.64987">
        <ele>114.4</ele>
        <time>2021-05-17T13:45:30.000Z</time>
      </trkpt>
      <trkpt lat="44.87447" lon="0.64982">
        <ele>114.5</ele>
        <time>2021-05-17T13:45:31.000Z</time>
      </trkpt>
      <trkpt lat="44.87448" lon="0.64979">
        <ele>114.5</ele>
        <time>2021-05-17T13:45:32.000Z</time>
      </trkpt>
      <trkpt lat="44.87449" lon="0.64973">
        <ele>114.5</ele>
        <time>2021-05-17T13:45:33.000Z</time>
      </trkpt>
      <trkpt lat="44.8745" lon="0.64971">
        <ele>114.5</ele>
        <time>2021-05-17T13:45:34.000Z</time>
      </trkpt>
      <trkpt lat="44.8745" lon="0.64965">
        <ele>114.6</ele>
        <time>2021-05-17T13:45:35.000Z</time>
      </trkpt>
      <trkpt lat="44.8745" lon="0.64962">
        <ele>114.6</ele>
        <time>2021-05-17T13:45:36.000Z</time>
      </trkpt>
      <trkpt lat="44.8745" lon="0.64957">
        <ele>114.9</ele>
        <time>2021-05-17T13:45:37.000Z</time>
      </trkpt>
      <trkpt lat="44.87451" lon="0.64952">
        <ele>115</ele>
        <time>2021-05-17T13:45:38.000Z</time>
      </trkpt>
      <trkpt lat="44.8745" lon="0.64947">
        <ele>115.2</ele>
        <time>2021-05-17T13:45:39.000Z</time>
      </trkpt>
      <trkpt lat="44.8745" lon="0.64943">
        <ele>115.4</ele>
        <time>2021-05-17T13:45:40.000Z</time>
      </trkpt>
      <trkpt lat="44.8745" lon="0.64941">
        <ele>115.4</ele>
        <time>2021-05-17T13:45:41.000Z</time>
      </trkpt>
      <trkpt lat="44.87449" lon="0.64937">
        <ele>115.6</ele>
        <time>2021-05-17T13:45:42.000Z</time>
      </trkpt>
      <trkpt lat="44.87448" lon="0.64934">
        <ele>116.1</ele>
        <time>2021-05-17T13:45:43.000Z</time>
      </trkpt>
      <trkpt lat="44.87446" lon="0.6493">
        <ele>116.4</ele>
        <time>2021-05-17T13:45:44.000Z</time>
      </trkpt>
      <trkpt lat="44.87445" lon="0.64925">
        <ele>116.9</ele>
        <time>2021-05-17T13:45:45.000Z</time>
      </trkpt>
      <trkpt lat="44.87443" lon="0.64922">
        <ele>117.2</ele>
        <time>2021-05-17T13:45:46.000Z</time>
      </trkpt>
      <trkpt lat="44.87442" lon="0.64917">
        <ele>117.8</ele>
        <time>2021-05-17T13:45:47.000Z</time>
      </trkpt>
      <trkpt lat="44.87441" lon="0.64915">
        <ele>117.8</ele>
        <time>2021-05-17T13:45:48.000Z</time>
      </trkpt>
      <trkpt lat="44.87441" lon="0.64913">
        <ele>118.1</ele>
        <time>2021-05-17T13:45:49.000Z</time>
      </trkpt>
      <trkpt lat="44.8744" lon="0.6491">
        <ele>118.1</ele>
        <time>2021-05-17T13:45:50.000Z</time>
      </trkpt>
      <trkpt lat="44.87439" lon="0.64906">
        <ele>118.6</ele>
        <time>2021-05-17T13:45:51.000Z</time>
      </trkpt>
      <trkpt lat="44.87439" lon="0.64905">
        <ele>118.9</ele>
        <time>2021-05-17T13:45:52.000Z</time>
      </trkpt>
      <trkpt lat="44.87437" lon="0.64901">
        <ele>118.9</ele>
        <time>2021-05-17T13:45:53.000Z</time>
      </trkpt>
      <trkpt lat="44.87437" lon="0.64897">
        <ele>119.1</ele>
        <time>2021-05-17T13:45:54.000Z</time>
      </trkpt>
      <trkpt lat="44.87436" lon="0.64895">
        <ele>119.6</ele>
        <time>2021-05-17T13:45:55.000Z</time>
      </trkpt>
      <trkpt lat="44.87435" lon="0.64891">
        <ele>119.9</ele>
        <time>2021-05-17T13:45:56.000Z</time>
      </trkpt>
      <trkpt lat="44.87434" lon="0.64889">
        <ele>119.9</ele>
        <time>2021-05-17T13:45:57.000Z</time>
      </trkpt>
      <trkpt lat="44.87432" lon="0.64886">
        <ele>120.4</ele>
        <time>2021-05-17T13:45:58.000Z</time>
      </trkpt>
      <trkpt lat="44.87431" lon="0.64884">
        <ele>120.6</ele>
        <time>2021-05-17T13:45:59.000Z</time>
      </trkpt>
      <trkpt lat="44.87428" lon="0.6488">
        <ele>120.8</ele>
        <time>2021-05-17T13:46:00.000Z</time>
      </trkpt>
      <trkpt lat="44.87426" lon="0.64874">
        <ele>121.4</ele>
        <time>2021-05-17T13:46:01.000Z</time>
      </trkpt>
      <trkpt lat="44.87426" lon="0.64871">
        <ele>121.4</ele>
        <time>2021-05-17T13:46:02.000Z</time>
      </trkpt>
      <trkpt lat="44.87423" lon="0.64868">
        <ele>121.9</ele>
        <time>2021-05-17T13:46:03.000Z</time>
      </trkpt>
      <trkpt lat="44.87424" lon="0.64862">
        <ele>122.3</ele>
        <time>2021-05-17T13:46:04.000Z</time>
      </trkpt>
      <trkpt lat="44.87425" lon="0.6486">
        <ele>122</ele>
        <time>2021-05-17T13:46:05.000Z</time>
      </trkpt>
      <trkpt lat="44.87424" lon="0.64856">
        <ele>122.5</ele>
        <time>2021-05-17T13:46:06.000Z</time>
      </trkpt>
      <trkpt lat="44.87423" lon="0.64853">
        <ele>122.7</ele>
        <time>2021-05-17T13:46:07.000Z</time>
      </trkpt>
      <trkpt lat="44.87423" lon="0.6485">
        <ele>122.7</ele>
        <time>2021-05-17T13:46:09.000Z</time>
      </trkpt>
      <trkpt lat="44.87422" lon="0.64845">
        <ele>123.2</ele>
        <time>2021-05-17T13:46:10.000Z</time>
      </trkpt>
      <trkpt lat="44.87421" lon="0.64843">
        <ele>123.5</ele>
        <time>2021-05-17T13:46:11.000Z</time>
      </trkpt>
      <trkpt lat="44.87421" lon="0.64838">
        <ele>123.4</ele>
        <time>2021-05-17T13:46:12.000Z</time>
      </trkpt>
      <trkpt lat="44.87421" lon="0.64835">
        <ele>123.7</ele>
        <time>2021-05-17T13:46:13.000Z</time>
      </trkpt>
      <trkpt lat="44.8742" lon="0.64831">
        <ele>124.3</ele>
        <time>2021-05-17T13:46:14.000Z</time>
      </trkpt>
      <trkpt lat="44.87419" lon="0.64829">
        <ele>124.3</ele>
        <time>2021-05-17T13:46:15.000Z</time>
      </trkpt>
      <trkpt lat="44.87418" lon="0.64824">
        <ele>124.6</ele>
        <time>2021-05-17T13:46:16.000Z</time>
      </trkpt>
      <trkpt lat="44.87418" lon="0.64822">
        <ele>124.8</ele>
        <time>2021-05-17T13:46:17.000Z</time>
      </trkpt>
      <trkpt lat="44.87416" lon="0.64817">
        <ele>125.6</ele>
        <time>2021-05-17T13:46:18.000Z</time>
      </trkpt>
      <trkpt lat="44.87415" lon="0.64814">
        <ele>125.9</ele>
        <time>2021-05-17T13:46:19.000Z</time>
      </trkpt>
      <trkpt lat="44.87415" lon="0.6481">
        <ele>126.5</ele>
        <time>2021-05-17T13:46:20.000Z</time>
      </trkpt>
      <trkpt lat="44.87414" lon="0.64808">
        <ele>126.5</ele>
        <time>2021-05-17T13:46:21.000Z</time>
      </trkpt>
      <trkpt lat="44.87413" lon="0.64801">
        <ele>127</ele>
        <time>2021-05-17T13:46:22.000Z</time>
      </trkpt>
      <trkpt lat="44.87413" lon="0.64798">
        <ele>127</ele>
        <time>2021-05-17T13:46:23.000Z</time>
      </trkpt>
      <trkpt lat="44.8741" lon="0.64794">
        <ele>127.6</ele>
        <time>2021-05-17T13:46:24.000Z</time>
      </trkpt>
      <trkpt lat="44.87409" lon="0.64788">
        <ele>128.1</ele>
        <time>2021-05-17T13:46:25.000Z</time>
      </trkpt>
      <trkpt lat="44.87408" lon="0.64784">
        <ele>128.6</ele>
        <time>2021-05-17T13:46:26.000Z</time>
      </trkpt>
      <trkpt lat="44.87408" lon="0.6478">
        <ele>128.7</ele>
        <time>2021-05-17T13:46:27.000Z</time>
      </trkpt>
      <trkpt lat="44.87408" lon="0.64774">
        <ele>128.8</ele>
        <time>2021-05-17T13:46:28.000Z</time>
      </trkpt>
      <trkpt lat="44.87408" lon="0.6477">
        <ele>129</ele>
        <time>2021-05-17T13:46:29.000Z</time>
      </trkpt>
      <trkpt lat="44.87406" lon="0.64766">
        <ele>129</ele>
        <time>2021-05-17T13:46:30.000Z</time>
      </trkpt>
      <trkpt lat="44.87407" lon="0.64761">
        <ele>129.1</ele>
        <time>2021-05-17T13:46:31.000Z</time>
      </trkpt>
      <trkpt lat="44.87406" lon="0.64757">
        <ele>129.2</ele>
        <time>2021-05-17T13:46:32.000Z</time>
      </trkpt>
      <trkpt lat="44.87405" lon="0.64751">
        <ele>129.5</ele>
        <time>2021-05-17T13:46:33.000Z</time>
      </trkpt>
      <trkpt lat="44.87402" lon="0.64747">
        <ele>129.9</ele>
        <time>2021-05-17T13:46:34.000Z</time>
      </trkpt>
      <trkpt lat="44.874" lon="0.64743">
        <ele>130.2</ele>
        <time>2021-05-17T13:46:35.000Z</time>
      </trkpt>
      <trkpt lat="44.87398" lon="0.64739">
        <ele>130.3</ele>
        <time>2021-05-17T13:46:36.000Z</time>
      </trkpt>
      <trkpt lat="44.87395" lon="0.64737">
        <ele>130.6</ele>
        <time>2021-05-17T13:46:37.000Z</time>
      </trkpt>
      <trkpt lat="44.87392" lon="0.64733">
        <ele>130.9</ele>
        <time>2021-05-17T13:46:38.000Z</time>
      </trkpt>
      <trkpt lat="44.87391" lon="0.64731">
        <ele>131.2</ele>
        <time>2021-05-17T13:46:39.000Z</time>
      </trkpt>
      <trkpt lat="44.87389" lon="0.64727">
        <ele>131.2</ele>
        <time>2021-05-17T13:46:40.000Z</time>
      </trkpt>
      <trkpt lat="44.87386" lon="0.64723">
        <ele>131.5</ele>
        <time>2021-05-17T13:46:41.000Z</time>
      </trkpt>
      <trkpt lat="44.87384" lon="0.64719">
        <ele>131.8</ele>
        <time>2021-05-17T13:46:42.000Z</time>
      </trkpt>
      <trkpt lat="44.87382" lon="0.64715">
        <ele>131.9</ele>
        <time>2021-05-17T13:46:43.000Z</time>
      </trkpt>
      <trkpt lat="44.87379" lon="0.64711">
        <ele>132.1</ele>
        <time>2021-05-17T13:46:44.000Z</time>
      </trkpt>
      <trkpt lat="44.87374" lon="0.64701">
        <ele>132.6</ele>
        <time>2021-05-17T13:46:45.000Z</time>
      </trkpt>
      <trkpt lat="44.8737" lon="0.64697">
        <ele>132.8</ele>
        <time>2021-05-17T13:46:46.000Z</time>
      </trkpt>
      <trkpt lat="44.87367" lon="0.64694">
        <ele>133</ele>
        <time>2021-05-17T13:46:47.000Z</time>
      </trkpt>
      <trkpt lat="44.87366" lon="0.6469">
        <ele>133</ele>
        <time>2021-05-17T13:46:48.000Z</time>
      </trkpt>
      <trkpt lat="44.87365" lon="0.64684">
        <ele>133.2</ele>
        <time>2021-05-17T13:46:49.000Z</time>
      </trkpt>
      <trkpt lat="44.87361" lon="0.6468">
        <ele>133.4</ele>
        <time>2021-05-17T13:46:50.000Z</time>
      </trkpt>
      <trkpt lat="44.87358" lon="0.64676">
        <ele>133.5</ele>
        <time>2021-05-17T13:46:51.000Z</time>
      </trkpt>
      <trkpt lat="44.87357" lon="0.64673">
        <ele>133.6</ele>
        <time>2021-05-17T13:46:52.000Z</time>
      </trkpt>
      <trkpt lat="44.87355" lon="0.64669">
        <ele>133.5</ele>
        <time>2021-05-17T13:46:53.000Z</time>
      </trkpt>
      <trkpt lat="44.87353" lon="0.64664">
        <ele>133.5</ele>
        <time>2021-05-17T13:46:54.000Z</time>
      </trkpt>
      <trkpt lat="44.87351" lon="0.64659">
        <ele>133.5</ele>
        <time>2021-05-17T13:46:55.000Z</time>
      </trkpt>
      <trkpt lat="44.87349" lon="0.64656">
        <ele>133.5</ele>
        <time>2021-05-17T13:46:56.000Z</time>
      </trkpt>
      <trkpt lat="44.87346" lon="0.64653">
        <ele>133.5</ele>
        <time>2021-05-17T13:46:57.000Z</time>
      </trkpt>
      <trkpt lat="44.87344" lon="0.64647">
        <ele>133.5</ele>
        <time>2021-05-17T13:46:58.000Z</time>
      </trkpt>
      <trkpt lat="44.87341" lon="0.64644">
        <ele>133.5</ele>
        <time>2021-05-17T13:46:59.000Z</time>
      </trkpt>
      <trkpt lat="44.87339" lon="0.64641">
        <ele>133.6</ele>
        <time>2021-05-17T13:47:00.000Z</time>
      </trkpt>
      <trkpt lat="44.87335" lon="0.64638">
        <ele>133.6</ele>
        <time>2021-05-17T13:47:01.000Z</time>
      </trkpt>
      <trkpt lat="44.87331" lon="0.64635">
        <ele>133.7</ele>
        <time>2021-05-17T13:47:02.000Z</time>
      </trkpt>
      <trkpt lat="44.87329" lon="0.64633">
        <ele>133.8</ele>
        <time>2021-05-17T13:47:03.000Z</time>
      </trkpt>
      <trkpt lat="44.87325" lon="0.64631">
        <ele>133.9</ele>
        <time>2021-05-17T13:47:04.000Z</time>
      </trkpt>
      <trkpt lat="44.87321" lon="0.6463">
        <ele>134.1</ele>
        <time>2021-05-17T13:47:05.000Z</time>
      </trkpt>
      <trkpt lat="44.87317" lon="0.64629">
        <ele>134.2</ele>
        <time>2021-05-17T13:47:06.000Z</time>
      </trkpt>
      <trkpt lat="44.87312" lon="0.64627">
        <ele>134.3</ele>
        <time>2021-05-17T13:47:07.000Z</time>
      </trkpt>
      <trkpt lat="44.87307" lon="0.64627">
        <ele>134.3</ele>
        <time>2021-05-17T13:47:08.000Z</time>
      </trkpt>
      <trkpt lat="44.87303" lon="0.64627">
        <ele>134.3</ele>
        <time>2021-05-17T13:47:09.000Z</time>
      </trkpt>
      <trkpt lat="44.87298" lon="0.64625">
        <ele>134.4</ele>
        <time>2021-05-17T13:47:10.000Z</time>
      </trkpt>
      <trkpt lat="44.87292" lon="0.64624">
        <ele>134.4</ele>
        <time>2021-05-17T13:47:11.000Z</time>
      </trkpt>
      <trkpt lat="44.87287" lon="0.64622">
        <ele>134.3</ele>
        <time>2021-05-17T13:47:12.000Z</time>
      </trkpt>
      <trkpt lat="44.87282" lon="0.64617">
        <ele>134.2</ele>
        <time>2021-05-17T13:47:13.000Z</time>
      </trkpt>
      <trkpt lat="44.87277" lon="0.64612">
        <ele>134</ele>
        <time>2021-05-17T13:47:14.000Z</time>
      </trkpt>
      <trkpt lat="44.87272" lon="0.64606">
        <ele>133.8</ele>
        <time>2021-05-17T13:47:15.000Z</time>
      </trkpt>
      <trkpt lat="44.87266" lon="0.64602">
        <ele>133.6</ele>
        <time>2021-05-17T13:47:16.000Z</time>
      </trkpt>
      <trkpt lat="44.87261" lon="0.64594">
        <ele>133.4</ele>
        <time>2021-05-17T13:47:17.000Z</time>
      </trkpt>
      <trkpt lat="44.87259" lon="0.64588">
        <ele>133.3</ele>
        <time>2021-05-17T13:47:18.000Z</time>
      </trkpt>
      <trkpt lat="44.87256" lon="0.64585">
        <ele>133.1</ele>
        <time>2021-05-17T13:47:19.000Z</time>
      </trkpt>
      <trkpt lat="44.87254" lon="0.64576">
        <ele>133</ele>
        <time>2021-05-17T13:47:20.000Z</time>
      </trkpt>
      <trkpt lat="44.87251" lon="0.6457">
        <ele>133</ele>
        <time>2021-05-17T13:47:21.000Z</time>
      </trkpt>
      <trkpt lat="44.87249" lon="0.64567">
        <ele>132.9</ele>
        <time>2021-05-17T13:47:22.000Z</time>
      </trkpt>
      <trkpt lat="44.87248" lon="0.64563">
        <ele>132.9</ele>
        <time>2021-05-17T13:47:23.000Z</time>
      </trkpt>
      <trkpt lat="44.87248" lon="0.64561">
        <ele>132.9</ele>
        <time>2021-05-17T13:47:24.000Z</time>
      </trkpt>
      <trkpt lat="44.87247" lon="0.64554">
        <ele>132.9</ele>
        <time>2021-05-17T13:47:25.000Z</time>
      </trkpt>
      <trkpt lat="44.87245" lon="0.64548">
        <ele>133</ele>
        <time>2021-05-17T13:47:26.000Z</time>
      </trkpt>
      <trkpt lat="44.87244" lon="0.64542">
        <ele>133</ele>
        <time>2021-05-17T13:47:27.000Z</time>
      </trkpt>
      <trkpt lat="44.87242" lon="0.64535">
        <ele>133.1</ele>
        <time>2021-05-17T13:47:28.000Z</time>
      </trkpt>
      <trkpt lat="44.8724" lon="0.64528">
        <ele>133.1</ele>
        <time>2021-05-17T13:47:29.000Z</time>
      </trkpt>
      <trkpt lat="44.87237" lon="0.64524">
        <ele>133.1</ele>
        <time>2021-05-17T13:47:30.000Z</time>
      </trkpt>
      <trkpt lat="44.87234" lon="0.6452">
        <ele>133.1</ele>
        <time>2021-05-17T13:47:31.000Z</time>
      </trkpt>
      <trkpt lat="44.87232" lon="0.64513">
        <ele>133.1</ele>
        <time>2021-05-17T13:47:32.000Z</time>
      </trkpt>
      <trkpt lat="44.87229" lon="0.64506">
        <ele>133</ele>
        <time>2021-05-17T13:47:33.000Z</time>
      </trkpt>
      <trkpt lat="44.87225" lon="0.64501">
        <ele>132.8</ele>
        <time>2021-05-17T13:47:34.000Z</time>
      </trkpt>
      <trkpt lat="44.87223" lon="0.64496">
        <ele>132.7</ele>
        <time>2021-05-17T13:47:35.000Z</time>
      </trkpt>
      <trkpt lat="44.8722" lon="0.64491">
        <ele>132.6</ele>
        <time>2021-05-17T13:47:36.000Z</time>
      </trkpt>
      <trkpt lat="44.87218" lon="0.64485">
        <ele>132.5</ele>
        <time>2021-05-17T13:47:37.000Z</time>
      </trkpt>
      <trkpt lat="44.87218" lon="0.64482">
        <ele>132.4</ele>
        <time>2021-05-17T13:47:38.000Z</time>
      </trkpt>
      <trkpt lat="44.87218" lon="0.6448">
        <ele>132.3</ele>
        <time>2021-05-17T13:47:39.000Z</time>
      </trkpt>
      <trkpt lat="44.87215" lon="0.64473">
        <ele>132.2</ele>
        <time>2021-05-17T13:47:40.000Z</time>
      </trkpt>
      <trkpt lat="44.87212" lon="0.64469">
        <ele>132.1</ele>
        <time>2021-05-17T13:47:41.000Z</time>
      </trkpt>
      <trkpt lat="44.87211" lon="0.64467">
        <ele>132</ele>
        <time>2021-05-17T13:47:42.000Z</time>
      </trkpt>
      <trkpt lat="44.87209" lon="0.64464">
        <ele>132</ele>
        <time>2021-05-17T13:47:43.000Z</time>
      </trkpt>
      <trkpt lat="44.87204" lon="0.64458">
        <ele>131.9</ele>
        <time>2021-05-17T13:47:44.000Z</time>
      </trkpt>
      <trkpt lat="44.87201" lon="0.64451">
        <ele>131.9</ele>
        <time>2021-05-17T13:47:45.000Z</time>
      </trkpt>
      <trkpt lat="44.87198" lon="0.64447">
        <ele>131.9</ele>
        <time>2021-05-17T13:47:46.000Z</time>
      </trkpt>
      <trkpt lat="44.87196" lon="0.64443">
        <ele>131.9</ele>
        <time>2021-05-17T13:47:47.000Z</time>
      </trkpt>
      <trkpt lat="44.87194" lon="0.64438">
        <ele>131.9</ele>
        <time>2021-05-17T13:47:48.000Z</time>
      </trkpt>
      <trkpt lat="44.87193" lon="0.64436">
        <ele>132</ele>
        <time>2021-05-17T13:47:49.000Z</time>
      </trkpt>
      <trkpt lat="44.87191" lon="0.64431">
        <ele>132</ele>
        <time>2021-05-17T13:47:50.000Z</time>
      </trkpt>
      <trkpt lat="44.8719" lon="0.64428">
        <ele>132.1</ele>
        <time>2021-05-17T13:47:51.000Z</time>
      </trkpt>
      <trkpt lat="44.87188" lon="0.64423">
        <ele>132.1</ele>
        <time>2021-05-17T13:47:52.000Z</time>
      </trkpt>
      <trkpt lat="44.87187" lon="0.64421">
        <ele>132.2</ele>
        <time>2021-05-17T13:47:53.000Z</time>
      </trkpt>
      <trkpt lat="44.87185" lon="0.64418">
        <ele>132.2</ele>
        <time>2021-05-17T13:47:54.000Z</time>
      </trkpt>
      <trkpt lat="44.87183" lon="0.64414">
        <ele>132.3</ele>
        <time>2021-05-17T13:47:55.000Z</time>
      </trkpt>
      <trkpt lat="44.87181" lon="0.64408">
        <ele>132.4</ele>
        <time>2021-05-17T13:47:56.000Z</time>
      </trkpt>
      <trkpt lat="44.8718" lon="0.64404">
        <ele>132.5</ele>
        <time>2021-05-17T13:47:57.000Z</time>
      </trkpt>
      <trkpt lat="44.87182" lon="0.644">
        <ele>132.5</ele>
        <time>2021-05-17T13:47:58.000Z</time>
      </trkpt>
      <trkpt lat="44.87183" lon="0.64398">
        <ele>132.5</ele>
        <time>2021-05-17T13:47:59.000Z</time>
      </trkpt>
      <trkpt lat="44.87184" lon="0.64394">
        <ele>132.5</ele>
        <time>2021-05-17T13:48:00.000Z</time>
      </trkpt>
      <trkpt lat="44.87185" lon="0.64393">
        <ele>132.5</ele>
        <time>2021-05-17T13:48:01.000Z</time>
      </trkpt>
      <trkpt lat="44.8718" lon="0.64378">
        <ele>132.7</ele>
        <time>2021-05-17T13:48:02.000Z</time>
      </trkpt>
      <trkpt lat="44.87175" lon="0.64364">
        <ele>132.7</ele>
        <time>2021-05-17T13:48:03.000Z</time>
      </trkpt>
      <trkpt lat="44.87171" lon="0.6435">
        <ele>132.6</ele>
        <time>2021-05-17T13:48:04.000Z</time>
      </trkpt>
      <trkpt lat="44.87166" lon="0.64336">
        <ele>132.4</ele>
        <time>2021-05-17T13:48:05.000Z</time>
      </trkpt>
      <trkpt lat="44.87167" lon="0.64334">
        <ele>132.4</ele>
        <time>2021-05-17T13:48:06.000Z</time>
      </trkpt>
      <trkpt lat="44.87168" lon="0.64333">
        <ele>132.4</ele>
        <time>2021-05-17T13:48:07.000Z</time>
      </trkpt>
      <trkpt lat="44.87168" lon="0.64332">
        <ele>132.4</ele>
        <time>2021-05-17T13:48:08.000Z</time>
      </trkpt>
      <trkpt lat="44.87168" lon="0.64327">
        <ele>132.3</ele>
        <time>2021-05-17T13:48:09.000Z</time>
      </trkpt>
      <trkpt lat="44.87169" lon="0.64323">
        <ele>132.2</ele>
        <time>2021-05-17T13:48:10.000Z</time>
      </trkpt>
      <trkpt lat="44.87172" lon="0.64318">
        <ele>132.1</ele>
        <time>2021-05-17T13:48:11.000Z</time>
      </trkpt>
      <trkpt lat="44.87175" lon="0.64314">
        <ele>131.9</ele>
        <time>2021-05-17T13:48:12.000Z</time>
      </trkpt>
      <trkpt lat="44.87178" lon="0.64306">
        <ele>131.5</ele>
        <time>2021-05-17T13:48:13.000Z</time>
      </trkpt>
      <trkpt lat="44.87183" lon="0.643">
        <ele>131.1</ele>
        <time>2021-05-17T13:48:15.000Z</time>
      </trkpt>
      <trkpt lat="44.87186" lon="0.64296">
        <ele>131</ele>
        <time>2021-05-17T13:48:16.000Z</time>
      </trkpt>
      <trkpt lat="44.87187" lon="0.64293">
        <ele>130.8</ele>
        <time>2021-05-17T13:48:17.000Z</time>
      </trkpt>
      <trkpt lat="44.87191" lon="0.64287">
        <ele>130.4</ele>
        <time>2021-05-17T13:48:18.000Z</time>
      </trkpt>
      <trkpt lat="44.87195" lon="0.64284">
        <ele>130.4</ele>
        <time>2021-05-17T13:48:19.000Z</time>
      </trkpt>
      <trkpt lat="44.87198" lon="0.64275">
        <ele>130.1</ele>
        <time>2021-05-17T13:48:20.000Z</time>
      </trkpt>
      <trkpt lat="44.87198" lon="0.64271">
        <ele>130.1</ele>
        <time>2021-05-17T13:48:21.000Z</time>
      </trkpt>
      <trkpt lat="44.872" lon="0.64264">
        <ele>130.1</ele>
        <time>2021-05-17T13:48:22.000Z</time>
      </trkpt>
      <trkpt lat="44.87202" lon="0.64258">
        <ele>130.2</ele>
        <time>2021-05-17T13:48:23.000Z</time>
      </trkpt>
      <trkpt lat="44.87215" lon="0.64185">
        <ele>132.2</ele>
        <time>2021-05-17T13:48:24.000Z</time>
      </trkpt>
      <trkpt lat="44.87216" lon="0.64187">
        <ele>132.2</ele>
        <time>2021-05-17T13:48:25.000Z</time>
      </trkpt>
      <trkpt lat="44.87216" lon="0.6419">
        <ele>132.1</ele>
        <time>2021-05-17T13:48:26.000Z</time>
      </trkpt>
      <trkpt lat="44.87219" lon="0.64186">
        <ele>132.1</ele>
        <time>2021-05-17T13:48:27.000Z</time>
      </trkpt>
      <trkpt lat="44.8722" lon="0.64185">
        <ele>132.1</ele>
        <time>2021-05-17T13:48:28.000Z</time>
      </trkpt>
      <trkpt lat="44.87222" lon="0.64182">
        <ele>132.1</ele>
        <time>2021-05-17T13:48:29.000Z</time>
      </trkpt>
      <trkpt lat="44.87224" lon="0.6418">
        <ele>132.2</ele>
        <time>2021-05-17T13:48:30.000Z</time>
      </trkpt>
      <trkpt lat="44.87226" lon="0.64175">
        <ele>132.3</ele>
        <time>2021-05-17T13:48:31.000Z</time>
      </trkpt>
      <trkpt lat="44.87227" lon="0.64172">
        <ele>132.2</ele>
        <time>2021-05-17T13:48:32.000Z</time>
      </trkpt>
      <trkpt lat="44.87227" lon="0.64168">
        <ele>132.4</ele>
        <time>2021-05-17T13:48:33.000Z</time>
      </trkpt>
      <trkpt lat="44.87227" lon="0.64167">
        <ele>132.5</ele>
        <time>2021-05-17T13:48:34.000Z</time>
      </trkpt>
      <trkpt lat="44.87228" lon="0.64162">
        <ele>132.7</ele>
        <time>2021-05-17T13:48:35.000Z</time>
      </trkpt>
      <trkpt lat="44.87228" lon="0.6416">
        <ele>132.7</ele>
        <time>2021-05-17T13:48:36.000Z</time>
      </trkpt>
      <trkpt lat="44.8723" lon="0.64157">
        <ele>132.8</ele>
        <time>2021-05-17T13:48:37.000Z</time>
      </trkpt>
      <trkpt lat="44.87232" lon="0.64153">
        <ele>133</ele>
        <time>2021-05-17T13:48:38.000Z</time>
      </trkpt>
      <trkpt lat="44.87232" lon="0.64152">
        <ele>133</ele>
        <time>2021-05-17T13:48:39.000Z</time>
      </trkpt>
      <trkpt lat="44.87234" lon="0.64147">
        <ele>133.1</ele>
        <time>2021-05-17T13:48:40.000Z</time>
      </trkpt>
      <trkpt lat="44.87234" lon="0.64145">
        <ele>133.2</ele>
        <time>2021-05-17T13:48:41.000Z</time>
      </trkpt>
      <trkpt lat="44.87234" lon="0.64141">
        <ele>133.4</ele>
        <time>2021-05-17T13:48:42.000Z</time>
      </trkpt>
      <trkpt lat="44.87234" lon="0.64136">
        <ele>133.6</ele>
        <time>2021-05-17T13:48:43.000Z</time>
      </trkpt>
      <trkpt lat="44.87234" lon="0.64134">
        <ele>133.6</ele>
        <time>2021-05-17T13:48:44.000Z</time>
      </trkpt>
      <trkpt lat="44.87234" lon="0.64129">
        <ele>133.8</ele>
        <time>2021-05-17T13:48:45.000Z</time>
      </trkpt>
      <trkpt lat="44.87234" lon="0.64124">
        <ele>134</ele>
        <time>2021-05-17T13:48:46.000Z</time>
      </trkpt>
      <trkpt lat="44.87234" lon="0.64119">
        <ele>134.3</ele>
        <time>2021-05-17T13:48:47.000Z</time>
      </trkpt>
      <trkpt lat="44.87234" lon="0.64116">
        <ele>134.3</ele>
        <time>2021-05-17T13:48:48.000Z</time>
      </trkpt>
      <trkpt lat="44.87234" lon="0.64112">
        <ele>134.4</ele>
        <time>2021-05-17T13:48:49.000Z</time>
      </trkpt>
      <trkpt lat="44.87234" lon="0.64108">
        <ele>134.6</ele>
        <time>2021-05-17T13:48:50.000Z</time>
      </trkpt>
      <trkpt lat="44.87232" lon="0.641">
        <ele>135</ele>
        <time>2021-05-17T13:48:51.000Z</time>
      </trkpt>
      <trkpt lat="44.87229" lon="0.64096">
        <ele>135.2</ele>
        <time>2021-05-17T13:48:52.000Z</time>
      </trkpt>
      <trkpt lat="44.87226" lon="0.64092">
        <ele>135.5</ele>
        <time>2021-05-17T13:48:53.000Z</time>
      </trkpt>
      <trkpt lat="44.87223" lon="0.6409">
        <ele>135.7</ele>
        <time>2021-05-17T13:48:54.000Z</time>
      </trkpt>
      <trkpt lat="44.87219" lon="0.64087">
        <ele>135.8</ele>
        <time>2021-05-17T13:48:55.000Z</time>
      </trkpt>
      <trkpt lat="44.87215" lon="0.64082">
        <ele>136.1</ele>
        <time>2021-05-17T13:48:56.000Z</time>
      </trkpt>
      <trkpt lat="44.87211" lon="0.64078">
        <ele>136.2</ele>
        <time>2021-05-17T13:48:57.000Z</time>
      </trkpt>
      <trkpt lat="44.87208" lon="0.64074">
        <ele>136.6</ele>
        <time>2021-05-17T13:48:58.000Z</time>
      </trkpt>
      <trkpt lat="44.87204" lon="0.6407">
        <ele>136.7</ele>
        <time>2021-05-17T13:48:59.000Z</time>
      </trkpt>
      <trkpt lat="44.87201" lon="0.64065">
        <ele>136.9</ele>
        <time>2021-05-17T13:49:00.000Z</time>
      </trkpt>
      <trkpt lat="44.87198" lon="0.64061">
        <ele>137.1</ele>
        <time>2021-05-17T13:49:01.000Z</time>
      </trkpt>
      <trkpt lat="44.87195" lon="0.64058">
        <ele>137.3</ele>
        <time>2021-05-17T13:49:02.000Z</time>
      </trkpt>
      <trkpt lat="44.87193" lon="0.64056">
        <ele>137.3</ele>
        <time>2021-05-17T13:49:03.000Z</time>
      </trkpt>
      <trkpt lat="44.8719" lon="0.64053">
        <ele>137.5</ele>
        <time>2021-05-17T13:49:04.000Z</time>
      </trkpt>
      <trkpt lat="44.87189" lon="0.64051">
        <ele>137.7</ele>
        <time>2021-05-17T13:49:05.000Z</time>
      </trkpt>
      <trkpt lat="44.87186" lon="0.64048">
        <ele>137.8</ele>
        <time>2021-05-17T13:49:06.000Z</time>
      </trkpt>
      <trkpt lat="44.87181" lon="0.64047">
        <ele>138</ele>
        <time>2021-05-17T13:49:07.000Z</time>
      </trkpt>
      <trkpt lat="44.87178" lon="0.64044">
        <ele>138.1</ele>
        <time>2021-05-17T13:49:08.000Z</time>
      </trkpt>
      <trkpt lat="44.87175" lon="0.64041">
        <ele>138.2</ele>
        <time>2021-05-17T13:49:09.000Z</time>
      </trkpt>
      <trkpt lat="44.87172" lon="0.64039">
        <ele>138.3</ele>
        <time>2021-05-17T13:49:10.000Z</time>
      </trkpt>
      <trkpt lat="44.8717" lon="0.64038">
        <ele>138.4</ele>
        <time>2021-05-17T13:49:11.000Z</time>
      </trkpt>
      <trkpt lat="44.87166" lon="0.64036">
        <ele>138.5</ele>
        <time>2021-05-17T13:49:12.000Z</time>
      </trkpt>
      <trkpt lat="44.87165" lon="0.64035">
        <ele>138.6</ele>
        <time>2021-05-17T13:49:13.000Z</time>
      </trkpt>
      <trkpt lat="44.8716" lon="0.64035">
        <ele>138.7</ele>
        <time>2021-05-17T13:49:14.000Z</time>
      </trkpt>
      <trkpt lat="44.87158" lon="0.64035">
        <ele>138.8</ele>
        <time>2021-05-17T13:49:15.000Z</time>
      </trkpt>
      <trkpt lat="44.87153" lon="0.64035">
        <ele>138.9</ele>
        <time>2021-05-17T13:49:16.000Z</time>
      </trkpt>
      <trkpt lat="44.87147" lon="0.64033">
        <ele>139</ele>
        <time>2021-05-17T13:49:17.000Z</time>
      </trkpt>
      <trkpt lat="44.87142" lon="0.64033">
        <ele>139.1</ele>
        <time>2021-05-17T13:49:18.000Z</time>
      </trkpt>
      <trkpt lat="44.87138" lon="0.64031">
        <ele>139.2</ele>
        <time>2021-05-17T13:49:19.000Z</time>
      </trkpt>
      <trkpt lat="44.87133" lon="0.64029">
        <ele>139.2</ele>
        <time>2021-05-17T13:49:20.000Z</time>
      </trkpt>
      <trkpt lat="44.87129" lon="0.64028">
        <ele>139.3</ele>
        <time>2021-05-17T13:49:21.000Z</time>
      </trkpt>
      <trkpt lat="44.87125" lon="0.64027">
        <ele>139.3</ele>
        <time>2021-05-17T13:49:22.000Z</time>
      </trkpt>
      <trkpt lat="44.87121" lon="0.64026">
        <ele>139.3</ele>
        <time>2021-05-17T13:49:23.000Z</time>
      </trkpt>
      <trkpt lat="44.87116" lon="0.64025">
        <ele>139.4</ele>
        <time>2021-05-17T13:49:24.000Z</time>
      </trkpt>
      <trkpt lat="44.87112" lon="0.64024">
        <ele>139.4</ele>
        <time>2021-05-17T13:49:25.000Z</time>
      </trkpt>
      <trkpt lat="44.87108" lon="0.64023">
        <ele>139.5</ele>
        <time>2021-05-17T13:49:26.000Z</time>
      </trkpt>
      <trkpt lat="44.87104" lon="0.64022">
        <ele>139.5</ele>
        <time>2021-05-17T13:49:27.000Z</time>
      </trkpt>
      <trkpt lat="44.87102" lon="0.64021">
        <ele>139.6</ele>
        <time>2021-05-17T13:49:28.000Z</time>
      </trkpt>
      <trkpt lat="44.871" lon="0.6402">
        <ele>139.6</ele>
        <time>2021-05-17T13:49:29.000Z</time>
      </trkpt>
      <trkpt lat="44.87096" lon="0.6402">
        <ele>139.6</ele>
        <time>2021-05-17T13:49:30.000Z</time>
      </trkpt>
      <trkpt lat="44.87093" lon="0.64019">
        <ele>139.6</ele>
        <time>2021-05-17T13:49:31.000Z</time>
      </trkpt>
      <trkpt lat="44.87086" lon="0.64016">
        <ele>139.7</ele>
        <time>2021-05-17T13:49:32.000Z</time>
      </trkpt>
      <trkpt lat="44.87082" lon="0.64016">
        <ele>139.7</ele>
        <time>2021-05-17T13:49:33.000Z</time>
      </trkpt>
      <trkpt lat="44.87078" lon="0.64016">
        <ele>139.7</ele>
        <time>2021-05-17T13:49:34.000Z</time>
      </trkpt>
      <trkpt lat="44.87073" lon="0.64017">
        <ele>139.6</ele>
        <time>2021-05-17T13:49:35.000Z</time>
      </trkpt>
      <trkpt lat="44.8707" lon="0.64018">
        <ele>139.6</ele>
        <time>2021-05-17T13:49:36.000Z</time>
      </trkpt>
      <trkpt lat="44.87065" lon="0.64019">
        <ele>139.5</ele>
        <time>2021-05-17T13:49:37.000Z</time>
      </trkpt>
      <trkpt lat="44.87062" lon="0.6402">
        <ele>139.4</ele>
        <time>2021-05-17T13:49:38.000Z</time>
      </trkpt>
      <trkpt lat="44.87056" lon="0.6402">
        <ele>139.2</ele>
        <time>2021-05-17T13:49:39.000Z</time>
      </trkpt>
      <trkpt lat="44.87052" lon="0.64021">
        <ele>139.2</ele>
        <time>2021-05-17T13:49:40.000Z</time>
      </trkpt>
      <trkpt lat="44.87027" lon="0.64025">
        <ele>138.2</ele>
        <time>2021-05-17T13:49:41.000Z</time>
      </trkpt>
      <trkpt lat="44.87024" lon="0.64026">
        <ele>137.9</ele>
        <time>2021-05-17T13:49:42.000Z</time>
      </trkpt>
      <trkpt lat="44.87018" lon="0.64028">
        <ele>137.7</ele>
        <time>2021-05-17T13:49:43.000Z</time>
      </trkpt>
      <trkpt lat="44.87012" lon="0.64031">
        <ele>137.4</ele>
        <time>2021-05-17T13:49:44.000Z</time>
      </trkpt>
      <trkpt lat="44.87007" lon="0.64034">
        <ele>137.1</ele>
        <time>2021-05-17T13:49:45.000Z</time>
      </trkpt>
      <trkpt lat="44.87002" lon="0.64038">
        <ele>136.8</ele>
        <time>2021-05-17T13:49:46.000Z</time>
      </trkpt>
      <trkpt lat="44.86997" lon="0.64042">
        <ele>136.4</ele>
        <time>2021-05-17T13:49:47.000Z</time>
      </trkpt>
      <trkpt lat="44.86992" lon="0.64047">
        <ele>135.9</ele>
        <time>2021-05-17T13:49:48.000Z</time>
      </trkpt>
      <trkpt lat="44.86986" lon="0.6405">
        <ele>135.6</ele>
        <time>2021-05-17T13:49:49.000Z</time>
      </trkpt>
      <trkpt lat="44.86981" lon="0.64056">
        <ele>135</ele>
        <time>2021-05-17T13:49:50.000Z</time>
      </trkpt>
      <trkpt lat="44.86975" lon="0.6406">
        <ele>134.5</ele>
        <time>2021-05-17T13:49:51.000Z</time>
      </trkpt>
      <trkpt lat="44.86968" lon="0.64065">
        <ele>134</ele>
        <time>2021-05-17T13:49:52.000Z</time>
      </trkpt>
      <trkpt lat="44.86962" lon="0.64071">
        <ele>133.5</ele>
        <time>2021-05-17T13:49:53.000Z</time>
      </trkpt>
      <trkpt lat="44.86956" lon="0.64076">
        <ele>133.1</ele>
        <time>2021-05-17T13:49:54.000Z</time>
      </trkpt>
      <trkpt lat="44.8695" lon="0.64081">
        <ele>132.7</ele>
        <time>2021-05-17T13:49:55.000Z</time>
      </trkpt>
      <trkpt lat="44.86944" lon="0.64087">
        <ele>132.3</ele>
        <time>2021-05-17T13:49:56.000Z</time>
      </trkpt>
      <trkpt lat="44.86938" lon="0.64092">
        <ele>132.1</ele>
        <time>2021-05-17T13:49:57.000Z</time>
      </trkpt>
      <trkpt lat="44.8693" lon="0.64098">
        <ele>131.9</ele>
        <time>2021-05-17T13:49:58.000Z</time>
      </trkpt>
      <trkpt lat="44.86925" lon="0.64106">
        <ele>131.8</ele>
        <time>2021-05-17T13:49:59.000Z</time>
      </trkpt>
      <trkpt lat="44.86921" lon="0.64113">
        <ele>131.5</ele>
        <time>2021-05-17T13:50:00.000Z</time>
      </trkpt>
      <trkpt lat="44.86915" lon="0.64119">
        <ele>131.2</ele>
        <time>2021-05-17T13:50:01.000Z</time>
      </trkpt>
      <trkpt lat="44.86907" lon="0.6412">
        <ele>131</ele>
        <time>2021-05-17T13:50:02.000Z</time>
      </trkpt>
      <trkpt lat="44.86899" lon="0.64116">
        <ele>130.7</ele>
        <time>2021-05-17T13:50:03.000Z</time>
      </trkpt>
      <trkpt lat="44.86893" lon="0.64105">
        <ele>130.7</ele>
        <time>2021-05-17T13:50:04.000Z</time>
      </trkpt>
      <trkpt lat="44.86887" lon="0.641">
        <ele>130.3</ele>
        <time>2021-05-17T13:50:05.000Z</time>
      </trkpt>
      <trkpt lat="44.86881" lon="0.64096">
        <ele>129.9</ele>
        <time>2021-05-17T13:50:06.000Z</time>
      </trkpt>
      <trkpt lat="44.86872" lon="0.64094">
        <ele>129.3</ele>
        <time>2021-05-17T13:50:07.000Z</time>
      </trkpt>
      <trkpt lat="44.86866" lon="0.64091">
        <ele>128.8</ele>
        <time>2021-05-17T13:50:08.000Z</time>
      </trkpt>
      <trkpt lat="44.86861" lon="0.64088">
        <ele>128.2</ele>
        <time>2021-05-17T13:50:09.000Z</time>
      </trkpt>
      <trkpt lat="44.86857" lon="0.64086">
        <ele>127.9</ele>
        <time>2021-05-17T13:50:10.000Z</time>
      </trkpt>
      <trkpt lat="44.86852" lon="0.64086">
        <ele>127.2</ele>
        <time>2021-05-17T13:50:11.000Z</time>
      </trkpt>
      <trkpt lat="44.86848" lon="0.64086">
        <ele>126.8</ele>
        <time>2021-05-17T13:50:12.000Z</time>
      </trkpt>
      <trkpt lat="44.86844" lon="0.64087">
        <ele>126.5</ele>
        <time>2021-05-17T13:50:13.000Z</time>
      </trkpt>
      <trkpt lat="44.86839" lon="0.6409">
        <ele>125.7</ele>
        <time>2021-05-17T13:50:14.000Z</time>
      </trkpt>
      <trkpt lat="44.86835" lon="0.6409">
        <ele>125.3</ele>
        <time>2021-05-17T13:50:15.000Z</time>
      </trkpt>
      <trkpt lat="44.86832" lon="0.64089">
        <ele>124.9</ele>
        <time>2021-05-17T13:50:16.000Z</time>
      </trkpt>
      <trkpt lat="44.86828" lon="0.64089">
        <ele>124.2</ele>
        <time>2021-05-17T13:50:17.000Z</time>
      </trkpt>
      <trkpt lat="44.86824" lon="0.64088">
        <ele>123.8</ele>
        <time>2021-05-17T13:50:18.000Z</time>
      </trkpt>
      <trkpt lat="44.86821" lon="0.64087">
        <ele>123.5</ele>
        <time>2021-05-17T13:50:19.000Z</time>
      </trkpt>
      <trkpt lat="44.86816" lon="0.64085">
        <ele>123.5</ele>
        <time>2021-05-17T13:50:21.000Z</time>
      </trkpt>
      <trkpt lat="44.86812" lon="0.64082">
        <ele>122.9</ele>
        <time>2021-05-17T13:50:22.000Z</time>
      </trkpt>
      <trkpt lat="44.86808" lon="0.64081">
        <ele>123</ele>
        <time>2021-05-17T13:50:23.000Z</time>
      </trkpt>
      <trkpt lat="44.86804" lon="0.64081">
        <ele>122.2</ele>
        <time>2021-05-17T13:50:24.000Z</time>
      </trkpt>
      <trkpt lat="44.868" lon="0.6408">
        <ele>122.3</ele>
        <time>2021-05-17T13:50:25.000Z</time>
      </trkpt>
      <trkpt lat="44.86796" lon="0.64082">
        <ele>121.8</ele>
        <time>2021-05-17T13:50:26.000Z</time>
      </trkpt>
      <trkpt lat="44.86792" lon="0.64082">
        <ele>121.7</ele>
        <time>2021-05-17T13:50:27.000Z</time>
      </trkpt>
      <trkpt lat="44.86789" lon="0.64081">
        <ele>121.6</ele>
        <time>2021-05-17T13:50:28.000Z</time>
      </trkpt>
      <trkpt lat="44.86784" lon="0.64079">
        <ele>121.7</ele>
        <time>2021-05-17T13:50:29.000Z</time>
      </trkpt>
      <trkpt lat="44.86782" lon="0.64078">
        <ele>121.6</ele>
        <time>2021-05-17T13:50:30.000Z</time>
      </trkpt>
      <trkpt lat="44.86776" lon="0.64077">
        <ele>121.7</ele>
        <time>2021-05-17T13:50:31.000Z</time>
      </trkpt>
      <trkpt lat="44.8677" lon="0.64074">
        <ele>121.6</ele>
        <time>2021-05-17T13:50:32.000Z</time>
      </trkpt>
      <trkpt lat="44.86766" lon="0.64073">
        <ele>121.5</ele>
        <time>2021-05-17T13:50:33.000Z</time>
      </trkpt>
      <trkpt lat="44.86763" lon="0.64072">
        <ele>121.7</ele>
        <time>2021-05-17T13:50:34.000Z</time>
      </trkpt>
      <trkpt lat="44.86759" lon="0.64073">
        <ele>121.4</ele>
        <time>2021-05-17T13:50:35.000Z</time>
      </trkpt>
      <trkpt lat="44.86756" lon="0.64074">
        <ele>121.4</ele>
        <time>2021-05-17T13:50:36.000Z</time>
      </trkpt>
      <trkpt lat="44.86753" lon="0.64075">
        <ele>121.3</ele>
        <time>2021-05-17T13:50:37.000Z</time>
      </trkpt>
      <trkpt lat="44.86752" lon="0.64076">
        <ele>121.2</ele>
        <time>2021-05-17T13:50:38.000Z</time>
      </trkpt>
      <trkpt lat="44.86747" lon="0.64079">
        <ele>120.9</ele>
        <time>2021-05-17T13:50:39.000Z</time>
      </trkpt>
      <trkpt lat="44.86741" lon="0.6408">
        <ele>120.8</ele>
        <time>2021-05-17T13:50:40.000Z</time>
      </trkpt>
      <trkpt lat="44.86736" lon="0.64083">
        <ele>120.3</ele>
        <time>2021-05-17T13:50:41.000Z</time>
      </trkpt>
      <trkpt lat="44.86733" lon="0.64086">
        <ele>119.9</ele>
        <time>2021-05-17T13:50:42.000Z</time>
      </trkpt>
      <trkpt lat="44.86732" lon="0.64087">
        <ele>119.9</ele>
        <time>2021-05-17T13:50:43.000Z</time>
      </trkpt>
      <trkpt lat="44.86729" lon="0.64091">
        <ele>119.4</ele>
        <time>2021-05-17T13:50:44.000Z</time>
      </trkpt>
      <trkpt lat="44.86725" lon="0.64094">
        <ele>119.4</ele>
        <time>2021-05-17T13:50:45.000Z</time>
      </trkpt>
      <trkpt lat="44.86723" lon="0.64101">
        <ele>118.5</ele>
        <time>2021-05-17T13:50:46.000Z</time>
      </trkpt>
      <trkpt lat="44.86718" lon="0.64103">
        <ele>117.9</ele>
        <time>2021-05-17T13:50:47.000Z</time>
      </trkpt>
      <trkpt lat="44.86716" lon="0.64104">
        <ele>117.9</ele>
        <time>2021-05-17T13:50:48.000Z</time>
      </trkpt>
      <trkpt lat="44.8671" lon="0.64109">
        <ele>117.3</ele>
        <time>2021-05-17T13:50:49.000Z</time>
      </trkpt>
      <trkpt lat="44.86706" lon="0.6411">
        <ele>117.2</ele>
        <time>2021-05-17T13:50:50.000Z</time>
      </trkpt>
      <trkpt lat="44.86704" lon="0.64111">
        <ele>117.2</ele>
        <time>2021-05-17T13:50:51.000Z</time>
      </trkpt>
      <trkpt lat="44.86703" lon="0.6411">
        <ele>117.2</ele>
        <time>2021-05-17T13:50:52.000Z</time>
      </trkpt>
      <trkpt lat="44.867" lon="0.64107">
        <ele>117.1</ele>
        <time>2021-05-17T13:50:53.000Z</time>
      </trkpt>
      <trkpt lat="44.86697" lon="0.64104">
        <ele>117.6</ele>
        <time>2021-05-17T13:50:54.000Z</time>
      </trkpt>
      <trkpt lat="44.86692" lon="0.64102">
        <ele>118</ele>
        <time>2021-05-17T13:50:55.000Z</time>
      </trkpt>
      <trkpt lat="44.86688" lon="0.64099">
        <ele>117.9</ele>
        <time>2021-05-17T13:50:56.000Z</time>
      </trkpt>
      <trkpt lat="44.86683" lon="0.64096">
        <ele>118.2</ele>
        <time>2021-05-17T13:50:57.000Z</time>
      </trkpt>
      <trkpt lat="44.8668" lon="0.64093">
        <ele>118.5</ele>
        <time>2021-05-17T13:50:58.000Z</time>
      </trkpt>
      <trkpt lat="44.86675" lon="0.64087">
        <ele>118.8</ele>
        <time>2021-05-17T13:50:59.000Z</time>
      </trkpt>
      <trkpt lat="44.86673" lon="0.64084">
        <ele>119.1</ele>
        <time>2021-05-17T13:51:00.000Z</time>
      </trkpt>
      <trkpt lat="44.86671" lon="0.64079">
        <ele>119.4</ele>
        <time>2021-05-17T13:51:01.000Z</time>
      </trkpt>
      <trkpt lat="44.8667" lon="0.64078">
        <ele>119.4</ele>
        <time>2021-05-17T13:51:02.000Z</time>
      </trkpt>
      <trkpt lat="44.86667" lon="0.64076">
        <ele>119.7</ele>
        <time>2021-05-17T13:51:03.000Z</time>
      </trkpt>
      <trkpt lat="44.86666" lon="0.64074">
        <ele>119.7</ele>
        <time>2021-05-17T13:51:04.000Z</time>
      </trkpt>
      <trkpt lat="44.86664" lon="0.6407">
        <ele>120</ele>
        <time>2021-05-17T13:51:05.000Z</time>
      </trkpt>
      <trkpt lat="44.86663" lon="0.64068">
        <ele>120.3</ele>
        <time>2021-05-17T13:51:06.000Z</time>
      </trkpt>
      <trkpt lat="44.86661" lon="0.64066">
        <ele>120.3</ele>
        <time>2021-05-17T13:51:07.000Z</time>
      </trkpt>
      <trkpt lat="44.86659" lon="0.64063">
        <ele>120.6</ele>
        <time>2021-05-17T13:51:08.000Z</time>
      </trkpt>
      <trkpt lat="44.86656" lon="0.64059">
        <ele>121</ele>
        <time>2021-05-17T13:51:09.000Z</time>
      </trkpt>
      <trkpt lat="44.86655" lon="0.64057">
        <ele>121</ele>
        <time>2021-05-17T13:51:10.000Z</time>
      </trkpt>
      <trkpt lat="44.86652" lon="0.64055">
        <ele>121.3</ele>
        <time>2021-05-17T13:51:11.000Z</time>
      </trkpt>
      <trkpt lat="44.8665" lon="0.64052">
        <ele>121.3</ele>
        <time>2021-05-17T13:51:12.000Z</time>
      </trkpt>
      <trkpt lat="44.86648" lon="0.64048">
        <ele>121.6</ele>
        <time>2021-05-17T13:51:13.000Z</time>
      </trkpt>
      <trkpt lat="44.86646" lon="0.64047">
        <ele>121.6</ele>
        <time>2021-05-17T13:51:14.000Z</time>
      </trkpt>
      <trkpt lat="44.86644" lon="0.64045">
        <ele>121.9</ele>
        <time>2021-05-17T13:51:15.000Z</time>
      </trkpt>
      <trkpt lat="44.86642" lon="0.64042">
        <ele>122.2</ele>
        <time>2021-05-17T13:51:16.000Z</time>
      </trkpt>
      <trkpt lat="44.86638" lon="0.64038">
        <ele>122.6</ele>
        <time>2021-05-17T13:51:17.000Z</time>
      </trkpt>
      <trkpt lat="44.86636" lon="0.64034">
        <ele>122.9</ele>
        <time>2021-05-17T13:51:18.000Z</time>
      </trkpt>
      <trkpt lat="44.86635" lon="0.64032">
        <ele>122.9</ele>
        <time>2021-05-17T13:51:19.000Z</time>
      </trkpt>
      <trkpt lat="44.86632" lon="0.64028">
        <ele>123.3</ele>
        <time>2021-05-17T13:51:20.000Z</time>
      </trkpt>
      <trkpt lat="44.8663" lon="0.64027">
        <ele>123.3</ele>
        <time>2021-05-17T13:51:21.000Z</time>
      </trkpt>
      <trkpt lat="44.86627" lon="0.64022">
        <ele>123.7</ele>
        <time>2021-05-17T13:51:22.000Z</time>
      </trkpt>
      <trkpt lat="44.86626" lon="0.64018">
        <ele>124</ele>
        <time>2021-05-17T13:51:23.000Z</time>
      </trkpt>
      <trkpt lat="44.86623" lon="0.64014">
        <ele>124.4</ele>
        <time>2021-05-17T13:51:24.000Z</time>
      </trkpt>
      <trkpt lat="44.8662" lon="0.64008">
        <ele>124.9</ele>
        <time>2021-05-17T13:51:25.000Z</time>
      </trkpt>
      <trkpt lat="44.86616" lon="0.64004">
        <ele>125.3</ele>
        <time>2021-05-17T13:51:26.000Z</time>
      </trkpt>
      <trkpt lat="44.86613" lon="0.63999">
        <ele>125.6</ele>
        <time>2021-05-17T13:51:27.000Z</time>
      </trkpt>
      <trkpt lat="44.8661" lon="0.63996">
        <ele>125.6</ele>
        <time>2021-05-17T13:51:28.000Z</time>
      </trkpt>
      <trkpt lat="44.86608" lon="0.63991">
        <ele>125.9</ele>
        <time>2021-05-17T13:51:29.000Z</time>
      </trkpt>
      <trkpt lat="44.86604" lon="0.63987">
        <ele>126.2</ele>
        <time>2021-05-17T13:51:30.000Z</time>
      </trkpt>
      <trkpt lat="44.86601" lon="0.63984">
        <ele>126.4</ele>
        <time>2021-05-17T13:51:31.000Z</time>
      </trkpt>
      <trkpt lat="44.86598" lon="0.6398">
        <ele>126.6</ele>
        <time>2021-05-17T13:51:32.000Z</time>
      </trkpt>
      <trkpt lat="44.86597" lon="0.63978">
        <ele>126.8</ele>
        <time>2021-05-17T13:51:33.000Z</time>
      </trkpt>
      <trkpt lat="44.86594" lon="0.63974">
        <ele>126.8</ele>
        <time>2021-05-17T13:51:34.000Z</time>
      </trkpt>
      <trkpt lat="44.86593" lon="0.63973">
        <ele>127</ele>
        <time>2021-05-17T13:51:35.000Z</time>
      </trkpt>
      <trkpt lat="44.86591" lon="0.63969">
        <ele>127.1</ele>
        <time>2021-05-17T13:51:36.000Z</time>
      </trkpt>
      <trkpt lat="44.8659" lon="0.63968">
        <ele>127.1</ele>
        <time>2021-05-17T13:51:37.000Z</time>
      </trkpt>
      <trkpt lat="44.86588" lon="0.63964">
        <ele>127.3</ele>
        <time>2021-05-17T13:51:38.000Z</time>
      </trkpt>
      <trkpt lat="44.86587" lon="0.63963">
        <ele>127.3</ele>
        <time>2021-05-17T13:51:39.000Z</time>
      </trkpt>
      <trkpt lat="44.86585" lon="0.63959">
        <ele>127.4</ele>
        <time>2021-05-17T13:51:40.000Z</time>
      </trkpt>
      <trkpt lat="44.86585" lon="0.63958">
        <ele>127.4</ele>
        <time>2021-05-17T13:51:41.000Z</time>
      </trkpt>
      <trkpt lat="44.86583" lon="0.63954">
        <ele>127.5</ele>
        <time>2021-05-17T13:51:42.000Z</time>
      </trkpt>
      <trkpt lat="44.86582" lon="0.63953">
        <ele>127.5</ele>
        <time>2021-05-17T13:51:43.000Z</time>
      </trkpt>
      <trkpt lat="44.8658" lon="0.63951">
        <ele>127.7</ele>
        <time>2021-05-17T13:51:44.000Z</time>
      </trkpt>
      <trkpt lat="44.8658" lon="0.6395">
        <ele>127.7</ele>
        <time>2021-05-17T13:51:45.000Z</time>
      </trkpt>
      <trkpt lat="44.8658" lon="0.63949">
        <ele>127.7</ele>
        <time>2021-05-17T13:51:46.000Z</time>
      </trkpt>
      <trkpt lat="44.86579" lon="0.63945">
        <ele>127.8</ele>
        <time>2021-05-17T13:51:47.000Z</time>
      </trkpt>
      <trkpt lat="44.86578" lon="0.63943">
        <ele>128</ele>
        <time>2021-05-17T13:51:48.000Z</time>
      </trkpt>
      <trkpt lat="44.86577" lon="0.6394">
        <ele>128</ele>
        <time>2021-05-17T13:51:49.000Z</time>
      </trkpt>
      <trkpt lat="44.86575" lon="0.63937">
        <ele>128.1</ele>
        <time>2021-05-17T13:51:50.000Z</time>
      </trkpt>
      <trkpt lat="44.86573" lon="0.63933">
        <ele>128.2</ele>
        <time>2021-05-17T13:51:51.000Z</time>
      </trkpt>
      <trkpt lat="44.86572" lon="0.63929">
        <ele>128.2</ele>
        <time>2021-05-17T13:51:52.000Z</time>
      </trkpt>
      <trkpt lat="44.86571" lon="0.63927">
        <ele>128.2</ele>
        <time>2021-05-17T13:51:53.000Z</time>
      </trkpt>
      <trkpt lat="44.86569" lon="0.63922">
        <ele>128.3</ele>
        <time>2021-05-17T13:51:54.000Z</time>
      </trkpt>
      <trkpt lat="44.86566" lon="0.63918">
        <ele>128.3</ele>
        <time>2021-05-17T13:51:55.000Z</time>
      </trkpt>
      <trkpt lat="44.86563" lon="0.63913">
        <ele>128.2</ele>
        <time>2021-05-17T13:51:56.000Z</time>
      </trkpt>
      <trkpt lat="44.86561" lon="0.63907">
        <ele>128.2</ele>
        <time>2021-05-17T13:51:57.000Z</time>
      </trkpt>
      <trkpt lat="44.8656" lon="0.63904">
        <ele>128.1</ele>
        <time>2021-05-17T13:51:58.000Z</time>
      </trkpt>
      <trkpt lat="44.86557" lon="0.63902">
        <ele>127.9</ele>
        <time>2021-05-17T13:51:59.000Z</time>
      </trkpt>
      <trkpt lat="44.86553" lon="0.63899">
        <ele>127.7</ele>
        <time>2021-05-17T13:52:00.000Z</time>
      </trkpt>
      <trkpt lat="44.86549" lon="0.63896">
        <ele>127.5</ele>
        <time>2021-05-17T13:52:01.000Z</time>
      </trkpt>
      <trkpt lat="44.86546" lon="0.63895">
        <ele>127.2</ele>
        <time>2021-05-17T13:52:02.000Z</time>
      </trkpt>
      <trkpt lat="44.86543" lon="0.63891">
        <ele>127</ele>
        <time>2021-05-17T13:52:03.000Z</time>
      </trkpt>
      <trkpt lat="44.8654" lon="0.63889">
        <ele>126.7</ele>
        <time>2021-05-17T13:52:04.000Z</time>
      </trkpt>
      <trkpt lat="44.86533" lon="0.63887">
        <ele>125.9</ele>
        <time>2021-05-17T13:52:05.000Z</time>
      </trkpt>
      <trkpt lat="44.86529" lon="0.63885">
        <ele>125.6</ele>
        <time>2021-05-17T13:52:06.000Z</time>
      </trkpt>
      <trkpt lat="44.86525" lon="0.63882">
        <ele>125.3</ele>
        <time>2021-05-17T13:52:07.000Z</time>
      </trkpt>
      <trkpt lat="44.86522" lon="0.6388">
        <ele>125</ele>
        <time>2021-05-17T13:52:08.000Z</time>
      </trkpt>
      <trkpt lat="44.86518" lon="0.63879">
        <ele>124.8</ele>
        <time>2021-05-17T13:52:09.000Z</time>
      </trkpt>
      <trkpt lat="44.86514" lon="0.63878">
        <ele>124.4</ele>
        <time>2021-05-17T13:52:10.000Z</time>
      </trkpt>
      <trkpt lat="44.86508" lon="0.63877">
        <ele>124</ele>
        <time>2021-05-17T13:52:11.000Z</time>
      </trkpt>
      <trkpt lat="44.86505" lon="0.63875">
        <ele>123.9</ele>
        <time>2021-05-17T13:52:12.000Z</time>
      </trkpt>
      <trkpt lat="44.86499" lon="0.63875">
        <ele>123.5</ele>
        <time>2021-05-17T13:52:13.000Z</time>
      </trkpt>
      <trkpt lat="44.86494" lon="0.63873">
        <ele>123.4</ele>
        <time>2021-05-17T13:52:14.000Z</time>
      </trkpt>
      <trkpt lat="44.86489" lon="0.63873">
        <ele>123.1</ele>
        <time>2021-05-17T13:52:15.000Z</time>
      </trkpt>
      <trkpt lat="44.86483" lon="0.6387">
        <ele>122.8</ele>
        <time>2021-05-17T13:52:16.000Z</time>
      </trkpt>
      <trkpt lat="44.86477" lon="0.63869">
        <ele>122.5</ele>
        <time>2021-05-17T13:52:17.000Z</time>
      </trkpt>
      <trkpt lat="44.86472" lon="0.6387">
        <ele>122.3</ele>
        <time>2021-05-17T13:52:18.000Z</time>
      </trkpt>
      <trkpt lat="44.86467" lon="0.63869">
        <ele>121.9</ele>
        <time>2021-05-17T13:52:19.000Z</time>
      </trkpt>
      <trkpt lat="44.86463" lon="0.63869">
        <ele>121.7</ele>
        <time>2021-05-17T13:52:20.000Z</time>
      </trkpt>
      <trkpt lat="44.86458" lon="0.63867">
        <ele>121.4</ele>
        <time>2021-05-17T13:52:21.000Z</time>
      </trkpt>
      <trkpt lat="44.8645" lon="0.63866">
        <ele>121.1</ele>
        <time>2021-05-17T13:52:22.000Z</time>
      </trkpt>
      <trkpt lat="44.86444" lon="0.63865">
        <ele>120.9</ele>
        <time>2021-05-17T13:52:23.000Z</time>
      </trkpt>
      <trkpt lat="44.86437" lon="0.63862">
        <ele>120.8</ele>
        <time>2021-05-17T13:52:24.000Z</time>
      </trkpt>
      <trkpt lat="44.86431" lon="0.63861">
        <ele>120.9</ele>
        <time>2021-05-17T13:52:25.000Z</time>
      </trkpt>
      <trkpt lat="44.86427" lon="0.63862">
        <ele>120.8</ele>
        <time>2021-05-17T13:52:27.000Z</time>
      </trkpt>
      <trkpt lat="44.86424" lon="0.63864">
        <ele>120.6</ele>
        <time>2021-05-17T13:52:28.000Z</time>
      </trkpt>
      <trkpt lat="44.86421" lon="0.63865">
        <ele>120.6</ele>
        <time>2021-05-17T13:52:29.000Z</time>
      </trkpt>
      <trkpt lat="44.86417" lon="0.63865">
        <ele>120.6</ele>
        <time>2021-05-17T13:52:30.000Z</time>
      </trkpt>
      <trkpt lat="44.86413" lon="0.63863">
        <ele>120.6</ele>
        <time>2021-05-17T13:52:31.000Z</time>
      </trkpt>
      <trkpt lat="44.86409" lon="0.63863">
        <ele>120.6</ele>
        <time>2021-05-17T13:52:32.000Z</time>
      </trkpt>
      <trkpt lat="44.86403" lon="0.63863">
        <ele>120.6</ele>
        <time>2021-05-17T13:52:33.000Z</time>
      </trkpt>
      <trkpt lat="44.86397" lon="0.63863">
        <ele>120.7</ele>
        <time>2021-05-17T13:52:34.000Z</time>
      </trkpt>
      <trkpt lat="44.86392" lon="0.63864">
        <ele>120.8</ele>
        <time>2021-05-17T13:52:35.000Z</time>
      </trkpt>
      <trkpt lat="44.86387" lon="0.63862">
        <ele>121.1</ele>
        <time>2021-05-17T13:52:36.000Z</time>
      </trkpt>
      <trkpt lat="44.86381" lon="0.63862">
        <ele>121.2</ele>
        <time>2021-05-17T13:52:37.000Z</time>
      </trkpt>
      <trkpt lat="44.86377" lon="0.63859">
        <ele>121.4</ele>
        <time>2021-05-17T13:52:38.000Z</time>
      </trkpt>
      <trkpt lat="44.86371" lon="0.63858">
        <ele>121.6</ele>
        <time>2021-05-17T13:52:39.000Z</time>
      </trkpt>
      <trkpt lat="44.86364" lon="0.63858">
        <ele>121.8</ele>
        <time>2021-05-17T13:52:40.000Z</time>
      </trkpt>
      <trkpt lat="44.86359" lon="0.63857">
        <ele>122.2</ele>
        <time>2021-05-17T13:52:41.000Z</time>
      </trkpt>
      <trkpt lat="44.86354" lon="0.63858">
        <ele>122.2</ele>
        <time>2021-05-17T13:52:42.000Z</time>
      </trkpt>
      <trkpt lat="44.86349" lon="0.63857">
        <ele>122.5</ele>
        <time>2021-05-17T13:52:43.000Z</time>
      </trkpt>
      <trkpt lat="44.86344" lon="0.63857">
        <ele>122.7</ele>
        <time>2021-05-17T13:52:44.000Z</time>
      </trkpt>
      <trkpt lat="44.8634" lon="0.63859">
        <ele>122.7</ele>
        <time>2021-05-17T13:52:45.000Z</time>
      </trkpt>
      <trkpt lat="44.86336" lon="0.63859">
        <ele>122.8</ele>
        <time>2021-05-17T13:52:46.000Z</time>
      </trkpt>
      <trkpt lat="44.86332" lon="0.63862">
        <ele>123</ele>
        <time>2021-05-17T13:52:47.000Z</time>
      </trkpt>
      <trkpt lat="44.86326" lon="0.63864">
        <ele>123</ele>
        <time>2021-05-17T13:52:48.000Z</time>
      </trkpt>
      <trkpt lat="44.86322" lon="0.63866">
        <ele>123.1</ele>
        <time>2021-05-17T13:52:49.000Z</time>
      </trkpt>
      <trkpt lat="44.86318" lon="0.63869">
        <ele>123.1</ele>
        <time>2021-05-17T13:52:50.000Z</time>
      </trkpt>
      <trkpt lat="44.86314" lon="0.63868">
        <ele>123.3</ele>
        <time>2021-05-17T13:52:51.000Z</time>
      </trkpt>
      <trkpt lat="44.86309" lon="0.6387">
        <ele>123.3</ele>
        <time>2021-05-17T13:52:52.000Z</time>
      </trkpt>
      <trkpt lat="44.86304" lon="0.63871">
        <ele>123.4</ele>
        <time>2021-05-17T13:52:53.000Z</time>
      </trkpt>
      <trkpt lat="44.86299" lon="0.63873">
        <ele>123.4</ele>
        <time>2021-05-17T13:52:54.000Z</time>
      </trkpt>
      <trkpt lat="44.86293" lon="0.63873">
        <ele>123.5</ele>
        <time>2021-05-17T13:52:55.000Z</time>
      </trkpt>
      <trkpt lat="44.86289" lon="0.63873">
        <ele>123.5</ele>
        <time>2021-05-17T13:52:56.000Z</time>
      </trkpt>
      <trkpt lat="44.86285" lon="0.63874">
        <ele>123.6</ele>
        <time>2021-05-17T13:52:57.000Z</time>
      </trkpt>
      <trkpt lat="44.86279" lon="0.63873">
        <ele>123.6</ele>
        <time>2021-05-17T13:52:58.000Z</time>
      </trkpt>
      <trkpt lat="44.86273" lon="0.63872">
        <ele>123.7</ele>
        <time>2021-05-17T13:52:59.000Z</time>
      </trkpt>
      <trkpt lat="44.86269" lon="0.63874">
        <ele>123.7</ele>
        <time>2021-05-17T13:53:00.000Z</time>
      </trkpt>
      <trkpt lat="44.86264" lon="0.63876">
        <ele>123.9</ele>
        <time>2021-05-17T13:53:01.000Z</time>
      </trkpt>
      <trkpt lat="44.86259" lon="0.63879">
        <ele>123.9</ele>
        <time>2021-05-17T13:53:02.000Z</time>
      </trkpt>
      <trkpt lat="44.86256" lon="0.63882">
        <ele>124.1</ele>
        <time>2021-05-17T13:53:03.000Z</time>
      </trkpt>
      <trkpt lat="44.86251" lon="0.63889">
        <ele>124.8</ele>
        <time>2021-05-17T13:53:04.000Z</time>
      </trkpt>
      <trkpt lat="44.86248" lon="0.63892">
        <ele>124.9</ele>
        <time>2021-05-17T13:53:05.000Z</time>
      </trkpt>
      <trkpt lat="44.86244" lon="0.63895">
        <ele>125.3</ele>
        <time>2021-05-17T13:53:06.000Z</time>
      </trkpt>
      <trkpt lat="44.86243" lon="0.63896">
        <ele>125.4</ele>
        <time>2021-05-17T13:53:07.000Z</time>
      </trkpt>
      <trkpt lat="44.86239" lon="0.63899">
        <ele>125.8</ele>
        <time>2021-05-17T13:53:08.000Z</time>
      </trkpt>
      <trkpt lat="44.86236" lon="0.63897">
        <ele>125.9</ele>
        <time>2021-05-17T13:53:09.000Z</time>
      </trkpt>
      <trkpt lat="44.86232" lon="0.63894">
        <ele>125.6</ele>
        <time>2021-05-17T13:53:10.000Z</time>
      </trkpt>
      <trkpt lat="44.8623" lon="0.63894">
        <ele>125.7</ele>
        <time>2021-05-17T13:53:11.000Z</time>
      </trkpt>
      <trkpt lat="44.86226" lon="0.63894">
        <ele>125.8</ele>
        <time>2021-05-17T13:53:12.000Z</time>
      </trkpt>
      <trkpt lat="44.86222" lon="0.63894">
        <ele>126.1</ele>
        <time>2021-05-17T13:53:13.000Z</time>
      </trkpt>
      <trkpt lat="44.86218" lon="0.63895">
        <ele>126.2</ele>
        <time>2021-05-17T13:53:14.000Z</time>
      </trkpt>
      <trkpt lat="44.86214" lon="0.63895">
        <ele>126.3</ele>
        <time>2021-05-17T13:53:15.000Z</time>
      </trkpt>
      <trkpt lat="44.8621" lon="0.63894">
        <ele>126.5</ele>
        <time>2021-05-17T13:53:16.000Z</time>
      </trkpt>
      <trkpt lat="44.86205" lon="0.63893">
        <ele>126.6</ele>
        <time>2021-05-17T13:53:17.000Z</time>
      </trkpt>
      <trkpt lat="44.86203" lon="0.63894">
        <ele>126.7</ele>
        <time>2021-05-17T13:53:18.000Z</time>
      </trkpt>
      <trkpt lat="44.862" lon="0.63893">
        <ele>126.7</ele>
        <time>2021-05-17T13:53:19.000Z</time>
      </trkpt>
      <trkpt lat="44.86196" lon="0.63895">
        <ele>126.8</ele>
        <time>2021-05-17T13:53:20.000Z</time>
      </trkpt>
      <trkpt lat="44.86192" lon="0.63897">
        <ele>126.9</ele>
        <time>2021-05-17T13:53:21.000Z</time>
      </trkpt>
      <trkpt lat="44.86189" lon="0.63896">
        <ele>127</ele>
        <time>2021-05-17T13:53:22.000Z</time>
      </trkpt>
      <trkpt lat="44.86186" lon="0.63895">
        <ele>127.1</ele>
        <time>2021-05-17T13:53:23.000Z</time>
      </trkpt>
      <trkpt lat="44.86183" lon="0.63896">
        <ele>127.2</ele>
        <time>2021-05-17T13:53:24.000Z</time>
      </trkpt>
      <trkpt lat="44.86182" lon="0.63896">
        <ele>127.2</ele>
        <time>2021-05-17T13:53:25.000Z</time>
      </trkpt>
      <trkpt lat="44.86179" lon="0.63896">
        <ele>127.2</ele>
        <time>2021-05-17T13:53:26.000Z</time>
      </trkpt>
      <trkpt lat="44.86178" lon="0.63896">
        <ele>127.2</ele>
        <time>2021-05-17T13:53:27.000Z</time>
      </trkpt>
      <trkpt lat="44.86177" lon="0.63897">
        <ele>127.2</ele>
        <time>2021-05-17T13:53:28.000Z</time>
      </trkpt>
      <trkpt lat="44.86176" lon="0.63897">
        <ele>128.1</ele>
        <time>2021-05-17T13:53:29.000Z</time>
      </trkpt>
      <trkpt lat="44.86175" lon="0.63897">
        <ele>127.3</ele>
        <time>2021-05-17T13:53:30.000Z</time>
      </trkpt>
      <trkpt lat="44.86174" lon="0.63896">
        <ele>127.4</ele>
        <time>2021-05-17T13:53:31.000Z</time>
      </trkpt>
      <trkpt lat="44.86173" lon="0.63895">
        <ele>127.4</ele>
        <time>2021-05-17T13:53:32.000Z</time>
      </trkpt>
      <trkpt lat="44.86173" lon="0.63894">
        <ele>127.4</ele>
        <time>2021-05-17T13:53:33.000Z</time>
      </trkpt>
      <trkpt lat="44.86172" lon="0.63894">
        <ele>127.4</ele>
        <time>2021-05-17T13:53:34.000Z</time>
      </trkpt>
      <trkpt lat="44.86172" lon="0.63893">
        <ele>127.4</ele>
        <time>2021-05-17T13:53:35.000Z</time>
      </trkpt>
      <trkpt lat="44.86171" lon="0.63893">
        <ele>127.4</ele>
        <time>2021-05-17T13:53:36.000Z</time>
      </trkpt>
      <trkpt lat="44.86171" lon="0.63892">
        <ele>126.8</ele>
        <time>2021-05-17T13:53:37.000Z</time>
      </trkpt>
      <trkpt lat="44.8617" lon="0.63892">
        <ele>126.8</ele>
        <time>2021-05-17T13:53:38.000Z</time>
      </trkpt>
      <trkpt lat="44.8617" lon="0.63891">
        <ele>126.8</ele>
        <time>2021-05-17T13:53:39.000Z</time>
      </trkpt>
      <trkpt lat="44.86169" lon="0.63891">
        <ele>126.8</ele>
        <time>2021-05-17T13:53:40.000Z</time>
      </trkpt>
      <trkpt lat="44.86169" lon="0.6389">
        <ele>126.8</ele>
        <time>2021-05-17T13:53:41.000Z</time>
      </trkpt>
      <trkpt lat="44.86168" lon="0.6389">
        <ele>126.8</ele>
        <time>2021-05-17T13:53:42.000Z</time>
      </trkpt>
      <trkpt lat="44.86167" lon="0.6389">
        <ele>126.8</ele>
        <time>2021-05-17T13:53:43.000Z</time>
      </trkpt>
      <trkpt lat="44.86167" lon="0.6389">
        <ele>126.8</ele>
        <time>2021-05-17T13:53:44.000Z</time>
      </trkpt>
      <trkpt lat="44.86167" lon="0.6389">
        <ele>126.8</ele>
        <time>2021-05-17T13:53:45.000Z</time>
      </trkpt>
      <trkpt lat="44.86167" lon="0.63891">
        <ele>126.8</ele>
        <time>2021-05-17T13:53:46.000Z</time>
      </trkpt>
      <trkpt lat="44.86165" lon="0.63892">
        <ele>126.8</ele>
        <time>2021-05-17T13:53:47.000Z</time>
      </trkpt>
      <trkpt lat="44.86165" lon="0.63892">
        <ele>126.8</ele>
        <time>2021-05-17T13:53:48.000Z</time>
      </trkpt>
      <trkpt lat="44.86163" lon="0.63894">
        <ele>127.7</ele>
        <time>2021-05-17T13:53:49.000Z</time>
      </trkpt>
      <trkpt lat="44.86163" lon="0.63895">
        <ele>127.7</ele>
        <time>2021-05-17T13:53:50.000Z</time>
      </trkpt>
      <trkpt lat="44.86162" lon="0.63896">
        <ele>127.7</ele>
        <time>2021-05-17T13:53:51.000Z</time>
      </trkpt>
      <trkpt lat="44.86161" lon="0.63898">
        <ele>128.6</ele>
        <time>2021-05-17T13:53:52.000Z</time>
      </trkpt>
      <trkpt lat="44.8616" lon="0.639">
        <ele>128.6</ele>
        <time>2021-05-17T13:53:53.000Z</time>
      </trkpt>
      <trkpt lat="44.86158" lon="0.63904">
        <ele>129.5</ele>
        <time>2021-05-17T13:53:54.000Z</time>
      </trkpt>
      <trkpt lat="44.86157" lon="0.63905">
        <ele>130.2</ele>
        <time>2021-05-17T13:53:55.000Z</time>
      </trkpt>
      <trkpt lat="44.86154" lon="0.6391">
        <ele>130.9</ele>
        <time>2021-05-17T13:53:56.000Z</time>
      </trkpt>
      <trkpt lat="44.86152" lon="0.63912">
        <ele>131</ele>
        <time>2021-05-17T13:53:57.000Z</time>
      </trkpt>
      <trkpt lat="44.8615" lon="0.63916">
        <ele>131.6</ele>
        <time>2021-05-17T13:53:58.000Z</time>
      </trkpt>
      <trkpt lat="44.86146" lon="0.63919">
        <ele>132.1</ele>
        <time>2021-05-17T13:53:59.000Z</time>
      </trkpt>
      <trkpt lat="44.86144" lon="0.6392">
        <ele>132.1</ele>
        <time>2021-05-17T13:54:00.000Z</time>
      </trkpt>
      <trkpt lat="44.86141" lon="0.63923">
        <ele>132.5</ele>
        <time>2021-05-17T13:54:01.000Z</time>
      </trkpt>
      <trkpt lat="44.86139" lon="0.63927">
        <ele>132.9</ele>
        <time>2021-05-17T13:54:02.000Z</time>
      </trkpt>
      <trkpt lat="44.86138" lon="0.63928">
        <ele>132.9</ele>
        <time>2021-05-17T13:54:03.000Z</time>
      </trkpt>
      <trkpt lat="44.86135" lon="0.6393">
        <ele>132.8</ele>
        <time>2021-05-17T13:54:04.000Z</time>
      </trkpt>
      <trkpt lat="44.86133" lon="0.63933">
        <ele>133</ele>
        <time>2021-05-17T13:54:05.000Z</time>
      </trkpt>
      <trkpt lat="44.8613" lon="0.63938">
        <ele>133.1</ele>
        <time>2021-05-17T13:54:06.000Z</time>
      </trkpt>
      <trkpt lat="44.86127" lon="0.63941">
        <ele>133.1</ele>
        <time>2021-05-17T13:54:07.000Z</time>
      </trkpt>
      <trkpt lat="44.86124" lon="0.63945">
        <ele>133</ele>
        <time>2021-05-17T13:54:08.000Z</time>
      </trkpt>
      <trkpt lat="44.86121" lon="0.63947">
        <ele>132.9</ele>
        <time>2021-05-17T13:54:09.000Z</time>
      </trkpt>
      <trkpt lat="44.86118" lon="0.6395">
        <ele>132.8</ele>
        <time>2021-05-17T13:54:10.000Z</time>
      </trkpt>
      <trkpt lat="44.86117" lon="0.63951">
        <ele>132.8</ele>
        <time>2021-05-17T13:54:11.000Z</time>
      </trkpt>
      <trkpt lat="44.86113" lon="0.63952">
        <ele>132.6</ele>
        <time>2021-05-17T13:54:12.000Z</time>
      </trkpt>
      <trkpt lat="44.86113" lon="0.63952">
        <ele>132.4</ele>
        <time>2021-05-17T13:54:13.000Z</time>
      </trkpt>
      <trkpt lat="44.86111" lon="0.63952">
        <ele>132.4</ele>
        <time>2021-05-17T13:54:14.000Z</time>
      </trkpt>
      <trkpt lat="44.8611" lon="0.63954">
        <ele>132.3</ele>
        <time>2021-05-17T13:54:15.000Z</time>
      </trkpt>
      <trkpt lat="44.86108" lon="0.63955">
        <ele>132.3</ele>
        <time>2021-05-17T13:54:16.000Z</time>
      </trkpt>
      <trkpt lat="44.86106" lon="0.63955">
        <ele>132.1</ele>
        <time>2021-05-17T13:54:17.000Z</time>
      </trkpt>
      <trkpt lat="44.86105" lon="0.63956">
        <ele>132.1</ele>
        <time>2021-05-17T13:54:18.000Z</time>
      </trkpt>
      <trkpt lat="44.86102" lon="0.63957">
        <ele>131.9</ele>
        <time>2021-05-17T13:54:19.000Z</time>
      </trkpt>
      <trkpt lat="44.86101" lon="0.63957">
        <ele>131.8</ele>
        <time>2021-05-17T13:54:20.000Z</time>
      </trkpt>
      <trkpt lat="44.86098" lon="0.63958">
        <ele>131.8</ele>
        <time>2021-05-17T13:54:21.000Z</time>
      </trkpt>
      <trkpt lat="44.86097" lon="0.63959">
        <ele>131.6</ele>
        <time>2021-05-17T13:54:22.000Z</time>
      </trkpt>
      <trkpt lat="44.86095" lon="0.63961">
        <ele>131.5</ele>
        <time>2021-05-17T13:54:23.000Z</time>
      </trkpt>
      <trkpt lat="44.86094" lon="0.63961">
        <ele>131.5</ele>
        <time>2021-05-17T13:54:24.000Z</time>
      </trkpt>
      <trkpt lat="44.86093" lon="0.63962">
        <ele>131.5</ele>
        <time>2021-05-17T13:54:25.000Z</time>
      </trkpt>
      <trkpt lat="44.86091" lon="0.63963">
        <ele>131.3</ele>
        <time>2021-05-17T13:54:26.000Z</time>
      </trkpt>
      <trkpt lat="44.86089" lon="0.63964">
        <ele>131.1</ele>
        <time>2021-05-17T13:54:27.000Z</time>
      </trkpt>
      <trkpt lat="44.86088" lon="0.63964">
        <ele>131.1</ele>
        <time>2021-05-17T13:54:28.000Z</time>
      </trkpt>
      <trkpt lat="44.86087" lon="0.63964">
        <ele>131.1</ele>
        <time>2021-05-17T13:54:29.000Z</time>
      </trkpt>
      <trkpt lat="44.86085" lon="0.63965">
        <ele>130.8</ele>
        <time>2021-05-17T13:54:30.000Z</time>
      </trkpt>
      <trkpt lat="44.86085" lon="0.63965">
        <ele>130.8</ele>
        <time>2021-05-17T13:54:31.000Z</time>
      </trkpt>
      <trkpt lat="44.86084" lon="0.63966">
        <ele>130.9</ele>
        <time>2021-05-17T13:54:33.000Z</time>
      </trkpt>
      <trkpt lat="44.86082" lon="0.63968">
        <ele>130.7</ele>
        <time>2021-05-17T13:54:34.000Z</time>
      </trkpt>
      <trkpt lat="44.86081" lon="0.63969">
        <ele>130.7</ele>
        <time>2021-05-17T13:54:35.000Z</time>
      </trkpt>
      <trkpt lat="44.8608" lon="0.63969">
        <ele>130.7</ele>
        <time>2021-05-17T13:54:36.000Z</time>
      </trkpt>
      <trkpt lat="44.86078" lon="0.6397">
        <ele>130.5</ele>
        <time>2021-05-17T13:54:37.000Z</time>
      </trkpt>
      <trkpt lat="44.86077" lon="0.6397">
        <ele>130.5</ele>
        <time>2021-05-17T13:54:38.000Z</time>
      </trkpt>
      <trkpt lat="44.86076" lon="0.63971">
        <ele>130.2</ele>
        <time>2021-05-17T13:54:39.000Z</time>
      </trkpt>
      <trkpt lat="44.86074" lon="0.63972">
        <ele>130.2</ele>
        <time>2021-05-17T13:54:40.000Z</time>
      </trkpt>
      <trkpt lat="44.86074" lon="0.63973">
        <ele>130.2</ele>
        <time>2021-05-17T13:54:41.000Z</time>
      </trkpt>
      <trkpt lat="44.86073" lon="0.63973">
        <ele>129.9</ele>
        <time>2021-05-17T13:54:42.000Z</time>
      </trkpt>
      <trkpt lat="44.86073" lon="0.63974">
        <ele>129.9</ele>
        <time>2021-05-17T13:54:43.000Z</time>
      </trkpt>
      <trkpt lat="44.86071" lon="0.63974">
        <ele>129.9</ele>
        <time>2021-05-17T13:54:44.000Z</time>
      </trkpt>
      <trkpt lat="44.8607" lon="0.63974">
        <ele>129.6</ele>
        <time>2021-05-17T13:54:45.000Z</time>
      </trkpt>
      <trkpt lat="44.86067" lon="0.63975">
        <ele>129.4</ele>
        <time>2021-05-17T13:54:46.000Z</time>
      </trkpt>
      <trkpt lat="44.86063" lon="0.63977">
        <ele>129.1</ele>
        <time>2021-05-17T13:54:47.000Z</time>
      </trkpt>
      <trkpt lat="44.86062" lon="0.63978">
        <ele>129.1</ele>
        <time>2021-05-17T13:54:48.000Z</time>
      </trkpt>
      <trkpt lat="44.86058" lon="0.63978">
        <ele>128.3</ele>
        <time>2021-05-17T13:54:49.000Z</time>
      </trkpt>
      <trkpt lat="44.86057" lon="0.63978">
        <ele>128.4</ele>
        <time>2021-05-17T13:54:50.000Z</time>
      </trkpt>
      <trkpt lat="44.86053" lon="0.6398">
        <ele>128</ele>
        <time>2021-05-17T13:54:51.000Z</time>
      </trkpt>
      <trkpt lat="44.86049" lon="0.63979">
        <ele>127.2</ele>
        <time>2021-05-17T13:54:52.000Z</time>
      </trkpt>
      <trkpt lat="44.86047" lon="0.6398">
        <ele>127.2</ele>
        <time>2021-05-17T13:54:53.000Z</time>
      </trkpt>
      <trkpt lat="44.86044" lon="0.63979">
        <ele>126.7</ele>
        <time>2021-05-17T13:54:54.000Z</time>
      </trkpt>
      <trkpt lat="44.86041" lon="0.63977">
        <ele>126.2</ele>
        <time>2021-05-17T13:54:55.000Z</time>
      </trkpt>
      <trkpt lat="44.86039" lon="0.63977">
        <ele>125.8</ele>
        <time>2021-05-17T13:54:56.000Z</time>
      </trkpt>
      <trkpt lat="44.86035" lon="0.63977">
        <ele>125.4</ele>
        <time>2021-05-17T13:54:57.000Z</time>
      </trkpt>
      <trkpt lat="44.86031" lon="0.63978">
        <ele>124.7</ele>
        <time>2021-05-17T13:54:58.000Z</time>
      </trkpt>
      <trkpt lat="44.86027" lon="0.6398">
        <ele>124.3</ele>
        <time>2021-05-17T13:54:59.000Z</time>
      </trkpt>
      <trkpt lat="44.86023" lon="0.63982">
        <ele>123.8</ele>
        <time>2021-05-17T13:55:00.000Z</time>
      </trkpt>
      <trkpt lat="44.8602" lon="0.63983">
        <ele>123.6</ele>
        <time>2021-05-17T13:55:01.000Z</time>
      </trkpt>
      <trkpt lat="44.86016" lon="0.63984">
        <ele>123.2</ele>
        <time>2021-05-17T13:55:02.000Z</time>
      </trkpt>
      <trkpt lat="44.86012" lon="0.63985">
        <ele>122.4</ele>
        <time>2021-05-17T13:55:03.000Z</time>
      </trkpt>
      <trkpt lat="44.86009" lon="0.63986">
        <ele>122</ele>
        <time>2021-05-17T13:55:04.000Z</time>
      </trkpt>
      <trkpt lat="44.86004" lon="0.63987">
        <ele>121.8</ele>
        <time>2021-05-17T13:55:05.000Z</time>
      </trkpt>
      <trkpt lat="44.86" lon="0.6399">
        <ele>120.8</ele>
        <time>2021-05-17T13:55:06.000Z</time>
      </trkpt>
      <trkpt lat="44.85998" lon="0.63992">
        <ele>120.9</ele>
        <time>2021-05-17T13:55:07.000Z</time>
      </trkpt>
      <trkpt lat="44.85989" lon="0.63996">
        <ele>119.8</ele>
        <time>2021-05-17T13:55:08.000Z</time>
      </trkpt>
      <trkpt lat="44.85986" lon="0.63997">
        <ele>119.4</ele>
        <time>2021-05-17T13:55:09.000Z</time>
      </trkpt>
      <trkpt lat="44.85983" lon="0.63999">
        <ele>119.1</ele>
        <time>2021-05-17T13:55:10.000Z</time>
      </trkpt>
      <trkpt lat="44.8598" lon="0.64002">
        <ele>118.8</ele>
        <time>2021-05-17T13:55:11.000Z</time>
      </trkpt>
      <trkpt lat="44.85975" lon="0.64001">
        <ele>118.2</ele>
        <time>2021-05-17T13:55:12.000Z</time>
      </trkpt>
      <trkpt lat="44.8597" lon="0.64003">
        <ele>117.7</ele>
        <time>2021-05-17T13:55:13.000Z</time>
      </trkpt>
      <trkpt lat="44.85967" lon="0.64004">
        <ele>117.5</ele>
        <time>2021-05-17T13:55:14.000Z</time>
      </trkpt>
      <trkpt lat="44.85963" lon="0.64005">
        <ele>117.4</ele>
        <time>2021-05-17T13:55:15.000Z</time>
      </trkpt>
      <trkpt lat="44.85961" lon="0.64005">
        <ele>117.4</ele>
        <time>2021-05-17T13:55:16.000Z</time>
      </trkpt>
      <trkpt lat="44.85958" lon="0.64004">
        <ele>117.2</ele>
        <time>2021-05-17T13:55:17.000Z</time>
      </trkpt>
      <trkpt lat="44.85955" lon="0.64004">
        <ele>116.9</ele>
        <time>2021-05-17T13:55:18.000Z</time>
      </trkpt>
      <trkpt lat="44.85954" lon="0.64004">
        <ele>116.9</ele>
        <time>2021-05-17T13:55:19.000Z</time>
      </trkpt>
      <trkpt lat="44.85951" lon="0.64006">
        <ele>116.7</ele>
        <time>2021-05-17T13:55:20.000Z</time>
      </trkpt>
      <trkpt lat="44.85948" lon="0.64008">
        <ele>116.6</ele>
        <time>2021-05-17T13:55:21.000Z</time>
      </trkpt>
      <trkpt lat="44.85945" lon="0.64009">
        <ele>116.4</ele>
        <time>2021-05-17T13:55:22.000Z</time>
      </trkpt>
      <trkpt lat="44.85943" lon="0.64011">
        <ele>116.4</ele>
        <time>2021-05-17T13:55:23.000Z</time>
      </trkpt>
      <trkpt lat="44.85938" lon="0.64011">
        <ele>116.1</ele>
        <time>2021-05-17T13:55:24.000Z</time>
      </trkpt>
      <trkpt lat="44.85933" lon="0.64013">
        <ele>115.8</ele>
        <time>2021-05-17T13:55:25.000Z</time>
      </trkpt>
      <trkpt lat="44.85928" lon="0.64013">
        <ele>115.6</ele>
        <time>2021-05-17T13:55:26.000Z</time>
      </trkpt>
      <trkpt lat="44.8592" lon="0.64014">
        <ele>115.4</ele>
        <time>2021-05-17T13:55:27.000Z</time>
      </trkpt>
      <trkpt lat="44.85894" lon="0.64019">
        <ele>114.2</ele>
        <time>2021-05-17T13:55:28.000Z</time>
      </trkpt>
      <trkpt lat="44.8589" lon="0.64019">
        <ele>114.1</ele>
        <time>2021-05-17T13:55:29.000Z</time>
      </trkpt>
      <trkpt lat="44.85884" lon="0.6402">
        <ele>113.9</ele>
        <time>2021-05-17T13:55:30.000Z</time>
      </trkpt>
      <trkpt lat="44.85878" lon="0.64018">
        <ele>113.7</ele>
        <time>2021-05-17T13:55:31.000Z</time>
      </trkpt>
      <trkpt lat="44.85871" lon="0.64017">
        <ele>113.5</ele>
        <time>2021-05-17T13:55:32.000Z</time>
      </trkpt>
      <trkpt lat="44.85866" lon="0.64015">
        <ele>113.3</ele>
        <time>2021-05-17T13:55:33.000Z</time>
      </trkpt>
      <trkpt lat="44.85864" lon="0.64019">
        <ele>113.4</ele>
        <time>2021-05-17T13:55:34.000Z</time>
      </trkpt>
      <trkpt lat="44.8586" lon="0.64023">
        <ele>113.2</ele>
        <time>2021-05-17T13:55:35.000Z</time>
      </trkpt>
      <trkpt lat="44.85856" lon="0.64026">
        <ele>113.1</ele>
        <time>2021-05-17T13:55:36.000Z</time>
      </trkpt>
      <trkpt lat="44.85851" lon="0.64026">
        <ele>112.9</ele>
        <time>2021-05-17T13:55:37.000Z</time>
      </trkpt>
      <trkpt lat="44.85846" lon="0.64027">
        <ele>112.8</ele>
        <time>2021-05-17T13:55:38.000Z</time>
      </trkpt>
      <trkpt lat="44.85838" lon="0.64028">
        <ele>112.6</ele>
        <time>2021-05-17T13:55:39.000Z</time>
      </trkpt>
      <trkpt lat="44.8583" lon="0.64026">
        <ele>112.3</ele>
        <time>2021-05-17T13:55:40.000Z</time>
      </trkpt>
      <trkpt lat="44.85824" lon="0.64025">
        <ele>112.3</ele>
        <time>2021-05-17T13:55:41.000Z</time>
      </trkpt>
      <trkpt lat="44.85818" lon="0.64022">
        <ele>112.3</ele>
        <time>2021-05-17T13:55:42.000Z</time>
      </trkpt>
      <trkpt lat="44.85812" lon="0.64017">
        <ele>112.4</ele>
        <time>2021-05-17T13:55:43.000Z</time>
      </trkpt>
      <trkpt lat="44.85807" lon="0.64014">
        <ele>112.6</ele>
        <time>2021-05-17T13:55:44.000Z</time>
      </trkpt>
      <trkpt lat="44.85802" lon="0.6401">
        <ele>112.7</ele>
        <time>2021-05-17T13:55:45.000Z</time>
      </trkpt>
      <trkpt lat="44.85797" lon="0.64007">
        <ele>112.8</ele>
        <time>2021-05-17T13:55:46.000Z</time>
      </trkpt>
      <trkpt lat="44.85793" lon="0.64005">
        <ele>112.9</ele>
        <time>2021-05-17T13:55:47.000Z</time>
      </trkpt>
      <trkpt lat="44.85789" lon="0.64001">
        <ele>112.8</ele>
        <time>2021-05-17T13:55:48.000Z</time>
      </trkpt>
      <trkpt lat="44.85777" lon="0.63999">
        <ele>112.2</ele>
        <time>2021-05-17T13:55:49.000Z</time>
      </trkpt>
      <trkpt lat="44.85774" lon="0.63996">
        <ele>112</ele>
        <time>2021-05-17T13:55:50.000Z</time>
      </trkpt>
      <trkpt lat="44.85774" lon="0.63992">
        <ele>112</ele>
        <time>2021-05-17T13:55:51.000Z</time>
      </trkpt>
      <trkpt lat="44.8577" lon="0.63986">
        <ele>111.7</ele>
        <time>2021-05-17T13:55:52.000Z</time>
      </trkpt>
      <trkpt lat="44.85765" lon="0.63981">
        <ele>111.3</ele>
        <time>2021-05-17T13:55:53.000Z</time>
      </trkpt>
      <trkpt lat="44.85761" lon="0.63978">
        <ele>111.1</ele>
        <time>2021-05-17T13:55:54.000Z</time>
      </trkpt>
      <trkpt lat="44.85758" lon="0.63974">
        <ele>110.8</ele>
        <time>2021-05-17T13:55:55.000Z</time>
      </trkpt>
      <trkpt lat="44.85754" lon="0.63972">
        <ele>110.1</ele>
        <time>2021-05-17T13:55:56.000Z</time>
      </trkpt>
      <trkpt lat="44.8575" lon="0.63969">
        <ele>109.6</ele>
        <time>2021-05-17T13:55:57.000Z</time>
      </trkpt>
      <trkpt lat="44.85748" lon="0.63969">
        <ele>109.6</ele>
        <time>2021-05-17T13:55:58.000Z</time>
      </trkpt>
      <trkpt lat="44.85745" lon="0.63967">
        <ele>108.6</ele>
        <time>2021-05-17T13:55:59.000Z</time>
      </trkpt>
      <trkpt lat="44.85741" lon="0.63963">
        <ele>108</ele>
        <time>2021-05-17T13:56:00.000Z</time>
      </trkpt>
      <trkpt lat="44.85739" lon="0.6396">
        <ele>107.3</ele>
        <time>2021-05-17T13:56:01.000Z</time>
      </trkpt>
      <trkpt lat="44.85738" lon="0.63959">
        <ele>107.3</ele>
        <time>2021-05-17T13:56:02.000Z</time>
      </trkpt>
      <trkpt lat="44.85736" lon="0.63957">
        <ele>107.3</ele>
        <time>2021-05-17T13:56:03.000Z</time>
      </trkpt>
      <trkpt lat="44.85727" lon="0.6395">
        <ele>105.4</ele>
        <time>2021-05-17T13:56:04.000Z</time>
      </trkpt>
      <trkpt lat="44.85722" lon="0.63944">
        <ele>103.8</ele>
        <time>2021-05-17T13:56:05.000Z</time>
      </trkpt>
      <trkpt lat="44.85717" lon="0.63939">
        <ele>102.4</ele>
        <time>2021-05-17T13:56:06.000Z</time>
      </trkpt>
      <trkpt lat="44.85714" lon="0.63932">
        <ele>101.6</ele>
        <time>2021-05-17T13:56:07.000Z</time>
      </trkpt>
      <trkpt lat="44.85712" lon="0.63926">
        <ele>101.1</ele>
        <time>2021-05-17T13:56:08.000Z</time>
      </trkpt>
      <trkpt lat="44.85711" lon="0.63921">
        <ele>100.3</ele>
        <time>2021-05-17T13:56:09.000Z</time>
      </trkpt>
      <trkpt lat="44.85712" lon="0.63917">
        <ele>100.6</ele>
        <time>2021-05-17T13:56:10.000Z</time>
      </trkpt>
      <trkpt lat="44.85712" lon="0.6391">
        <ele>100.2</ele>
        <time>2021-05-17T13:56:11.000Z</time>
      </trkpt>
      <trkpt lat="44.85712" lon="0.63905">
        <ele>99.3</ele>
        <time>2021-05-17T13:56:12.000Z</time>
      </trkpt>
      <trkpt lat="44.85711" lon="0.63899">
        <ele>98.4</ele>
        <time>2021-05-17T13:56:13.000Z</time>
      </trkpt>
      <trkpt lat="44.8571" lon="0.63893">
        <ele>97.8</ele>
        <time>2021-05-17T13:56:14.000Z</time>
      </trkpt>
      <trkpt lat="44.85708" lon="0.63886">
        <ele>96.2</ele>
        <time>2021-05-17T13:56:15.000Z</time>
      </trkpt>
      <trkpt lat="44.85707" lon="0.6388">
        <ele>95.7</ele>
        <time>2021-05-17T13:56:16.000Z</time>
      </trkpt>
      <trkpt lat="44.85705" lon="0.63875">
        <ele>94</ele>
        <time>2021-05-17T13:56:17.000Z</time>
      </trkpt>
      <trkpt lat="44.85704" lon="0.6387">
        <ele>93.4</ele>
        <time>2021-05-17T13:56:18.000Z</time>
      </trkpt>
      <trkpt lat="44.85704" lon="0.63866">
        <ele>92.7</ele>
        <time>2021-05-17T13:56:19.000Z</time>
      </trkpt>
      <trkpt lat="44.85704" lon="0.63864">
        <ele>92.7</ele>
        <time>2021-05-17T13:56:20.000Z</time>
      </trkpt>
      <trkpt lat="44.85702" lon="0.63861">
        <ele>91.6</ele>
        <time>2021-05-17T13:56:21.000Z</time>
      </trkpt>
      <trkpt lat="44.85702" lon="0.6386">
        <ele>91.6</ele>
        <time>2021-05-17T13:56:22.000Z</time>
      </trkpt>
      <trkpt lat="44.85703" lon="0.63857">
        <ele>91.5</ele>
        <time>2021-05-17T13:56:23.000Z</time>
      </trkpt>
      <trkpt lat="44.85705" lon="0.63854">
        <ele>91.5</ele>
        <time>2021-05-17T13:56:24.000Z</time>
      </trkpt>
      <trkpt lat="44.85705" lon="0.63852">
        <ele>90.9</ele>
        <time>2021-05-17T13:56:25.000Z</time>
      </trkpt>
      <trkpt lat="44.85706" lon="0.6385">
        <ele>91.4</ele>
        <time>2021-05-17T13:56:26.000Z</time>
      </trkpt>
      <trkpt lat="44.85707" lon="0.63848">
        <ele>90.8</ele>
        <time>2021-05-17T13:56:27.000Z</time>
      </trkpt>
      <trkpt lat="44.85708" lon="0.63846">
        <ele>90.8</ele>
        <time>2021-05-17T13:56:28.000Z</time>
      </trkpt>
      <trkpt lat="44.8571" lon="0.63845">
        <ele>90.8</ele>
        <time>2021-05-17T13:56:29.000Z</time>
      </trkpt>
      <trkpt lat="44.85711" lon="0.63844">
        <ele>90.8</ele>
        <time>2021-05-17T13:56:30.000Z</time>
      </trkpt>
      <trkpt lat="44.85713" lon="0.63841">
        <ele>91.3</ele>
        <time>2021-05-17T13:56:31.000Z</time>
      </trkpt>
      <trkpt lat="44.85714" lon="0.63841">
        <ele>90.8</ele>
        <time>2021-05-17T13:56:32.000Z</time>
      </trkpt>
      <trkpt lat="44.85716" lon="0.63839">
        <ele>91.3</ele>
        <time>2021-05-17T13:56:33.000Z</time>
      </trkpt>
      <trkpt lat="44.85717" lon="0.63838">
        <ele>91.3</ele>
        <time>2021-05-17T13:56:34.000Z</time>
      </trkpt>
      <trkpt lat="44.85718" lon="0.63837">
        <ele>91.8</ele>
        <time>2021-05-17T13:56:35.000Z</time>
      </trkpt>
      <trkpt lat="44.85718" lon="0.63835">
        <ele>90.8</ele>
        <time>2021-05-17T13:56:36.000Z</time>
      </trkpt>
      <trkpt lat="44.85719" lon="0.63834">
        <ele>91.4</ele>
        <time>2021-05-17T13:56:37.000Z</time>
      </trkpt>
      <trkpt lat="44.8572" lon="0.63833">
        <ele>91.4</ele>
        <time>2021-05-17T13:56:39.000Z</time>
      </trkpt>
      <trkpt lat="44.85723" lon="0.63831">
        <ele>91.4</ele>
        <time>2021-05-17T13:56:40.000Z</time>
      </trkpt>
      <trkpt lat="44.85724" lon="0.6383">
        <ele>91.4</ele>
        <time>2021-05-17T13:56:41.000Z</time>
      </trkpt>
      <trkpt lat="44.85726" lon="0.63828">
        <ele>91.8</ele>
        <time>2021-05-17T13:56:42.000Z</time>
      </trkpt>
      <trkpt lat="44.85727" lon="0.63828">
        <ele>91.4</ele>
        <time>2021-05-17T13:56:43.000Z</time>
      </trkpt>
      <trkpt lat="44.85727" lon="0.63827">
        <ele>91.7</ele>
        <time>2021-05-17T13:56:44.000Z</time>
      </trkpt>
      <trkpt lat="44.85729" lon="0.63825">
        <ele>91.7</ele>
        <time>2021-05-17T13:56:45.000Z</time>
      </trkpt>
      <trkpt lat="44.8573" lon="0.63824">
        <ele>91.5</ele>
        <time>2021-05-17T13:56:46.000Z</time>
      </trkpt>
      <trkpt lat="44.85731" lon="0.63822">
        <ele>91.5</ele>
        <time>2021-05-17T13:56:47.000Z</time>
      </trkpt>
      <trkpt lat="44.85734" lon="0.63819">
        <ele>91.2</ele>
        <time>2021-05-17T13:56:48.000Z</time>
      </trkpt>
      <trkpt lat="44.85738" lon="0.63816">
        <ele>91.4</ele>
        <time>2021-05-17T13:56:49.000Z</time>
      </trkpt>
      <trkpt lat="44.85738" lon="0.63815">
        <ele>91.4</ele>
        <time>2021-05-17T13:56:50.000Z</time>
      </trkpt>
      <trkpt lat="44.85743" lon="0.63813">
        <ele>91.2</ele>
        <time>2021-05-17T13:56:51.000Z</time>
      </trkpt>
      <trkpt lat="44.85745" lon="0.63811">
        <ele>91.2</ele>
        <time>2021-05-17T13:56:52.000Z</time>
      </trkpt>
      <trkpt lat="44.85748" lon="0.6381">
        <ele>91</ele>
        <time>2021-05-17T13:56:53.000Z</time>
      </trkpt>
      <trkpt lat="44.85749" lon="0.63809">
        <ele>91</ele>
        <time>2021-05-17T13:56:54.000Z</time>
      </trkpt>
      <trkpt lat="44.85753" lon="0.63808">
        <ele>91.2</ele>
        <time>2021-05-17T13:56:55.000Z</time>
      </trkpt>
      <trkpt lat="44.85755" lon="0.63807">
        <ele>91.4</ele>
        <time>2021-05-17T13:56:56.000Z</time>
      </trkpt>
      <trkpt lat="44.85757" lon="0.63805">
        <ele>90.8</ele>
        <time>2021-05-17T13:56:57.000Z</time>
      </trkpt>
      <trkpt lat="44.85759" lon="0.63802">
        <ele>90.3</ele>
        <time>2021-05-17T13:56:58.000Z</time>
      </trkpt>
      <trkpt lat="44.85762" lon="0.638">
        <ele>90.4</ele>
        <time>2021-05-17T13:56:59.000Z</time>
      </trkpt>
      <trkpt lat="44.85765" lon="0.63798">
        <ele>90.5</ele>
        <time>2021-05-17T13:57:00.000Z</time>
      </trkpt>
      <trkpt lat="44.85766" lon="0.63797">
        <ele>89.9</ele>
        <time>2021-05-17T13:57:01.000Z</time>
      </trkpt>
      <trkpt lat="44.85768" lon="0.63795">
        <ele>90</ele>
        <time>2021-05-17T13:57:02.000Z</time>
      </trkpt>
      <trkpt lat="44.85771" lon="0.63792">
        <ele>89.5</ele>
        <time>2021-05-17T13:57:03.000Z</time>
      </trkpt>
      <trkpt lat="44.85771" lon="0.63791">
        <ele>89.5</ele>
        <time>2021-05-17T13:57:04.000Z</time>
      </trkpt>
      <trkpt lat="44.85774" lon="0.63788">
        <ele>89.1</ele>
        <time>2021-05-17T13:57:05.000Z</time>
      </trkpt>
      <trkpt lat="44.85775" lon="0.63787">
        <ele>89.1</ele>
        <time>2021-05-17T13:57:06.000Z</time>
      </trkpt>
      <trkpt lat="44.85779" lon="0.63787">
        <ele>89.4</ele>
        <time>2021-05-17T13:57:07.000Z</time>
      </trkpt>
      <trkpt lat="44.85781" lon="0.63787">
        <ele>89.4</ele>
        <time>2021-05-17T13:57:08.000Z</time>
      </trkpt>
      <trkpt lat="44.85783" lon="0.63786">
        <ele>89.5</ele>
        <time>2021-05-17T13:57:09.000Z</time>
      </trkpt>
      <trkpt lat="44.85784" lon="0.63787">
        <ele>89.5</ele>
        <time>2021-05-17T13:57:10.000Z</time>
      </trkpt>
      <trkpt lat="44.85787" lon="0.63785">
        <ele>89.6</ele>
        <time>2021-05-17T13:57:11.000Z</time>
      </trkpt>
      <trkpt lat="44.8579" lon="0.63784">
        <ele>89.4</ele>
        <time>2021-05-17T13:57:12.000Z</time>
      </trkpt>
      <trkpt lat="44.85794" lon="0.63783">
        <ele>89.5</ele>
        <time>2021-05-17T13:57:13.000Z</time>
      </trkpt>
      <trkpt lat="44.85797" lon="0.63782">
        <ele>89.7</ele>
        <time>2021-05-17T13:57:14.000Z</time>
      </trkpt>
      <trkpt lat="44.85801" lon="0.63781">
        <ele>89.7</ele>
        <time>2021-05-17T13:57:15.000Z</time>
      </trkpt>
      <trkpt lat="44.85808" lon="0.63779">
        <ele>90.1</ele>
        <time>2021-05-17T13:57:16.000Z</time>
      </trkpt>
      <trkpt lat="44.8581" lon="0.63777">
        <ele>90.3</ele>
        <time>2021-05-17T13:57:17.000Z</time>
      </trkpt>
      <trkpt lat="44.85816" lon="0.63775">
        <ele>90.1</ele>
        <time>2021-05-17T13:57:18.000Z</time>
      </trkpt>
      <trkpt lat="44.8582" lon="0.63774">
        <ele>90.2</ele>
        <time>2021-05-17T13:57:19.000Z</time>
      </trkpt>
      <trkpt lat="44.85824" lon="0.63772">
        <ele>89.9</ele>
        <time>2021-05-17T13:57:20.000Z</time>
      </trkpt>
      <trkpt lat="44.85827" lon="0.63768">
        <ele>90</ele>
        <time>2021-05-17T13:57:21.000Z</time>
      </trkpt>
      <trkpt lat="44.8583" lon="0.63766">
        <ele>89.6</ele>
        <time>2021-05-17T13:57:22.000Z</time>
      </trkpt>
      <trkpt lat="44.85833" lon="0.63763">
        <ele>89.3</ele>
        <time>2021-05-17T13:57:23.000Z</time>
      </trkpt>
      <trkpt lat="44.85837" lon="0.63761">
        <ele>89.3</ele>
        <time>2021-05-17T13:57:24.000Z</time>
      </trkpt>
      <trkpt lat="44.85838" lon="0.63761">
        <ele>89.3</ele>
        <time>2021-05-17T13:57:25.000Z</time>
      </trkpt>
      <trkpt lat="44.85841" lon="0.63758">
        <ele>88.9</ele>
        <time>2021-05-17T13:57:26.000Z</time>
      </trkpt>
      <trkpt lat="44.85842" lon="0.63756">
        <ele>88.9</ele>
        <time>2021-05-17T13:57:27.000Z</time>
      </trkpt>
      <trkpt lat="44.85845" lon="0.63748">
        <ele>88.2</ele>
        <time>2021-05-17T13:57:28.000Z</time>
      </trkpt>
      <trkpt lat="44.85848" lon="0.63737">
        <ele>87.3</ele>
        <time>2021-05-17T13:57:29.000Z</time>
      </trkpt>
      <trkpt lat="44.85849" lon="0.63727">
        <ele>87.1</ele>
        <time>2021-05-17T13:57:30.000Z</time>
      </trkpt>
      <trkpt lat="44.85852" lon="0.63719">
        <ele>87</ele>
        <time>2021-05-17T13:57:31.000Z</time>
      </trkpt>
      <trkpt lat="44.85856" lon="0.63715">
        <ele>87.1</ele>
        <time>2021-05-17T13:57:32.000Z</time>
      </trkpt>
      <trkpt lat="44.8586" lon="0.63712">
        <ele>87.2</ele>
        <time>2021-05-17T13:57:33.000Z</time>
      </trkpt>
      <trkpt lat="44.85865" lon="0.6371">
        <ele>87.4</ele>
        <time>2021-05-17T13:57:34.000Z</time>
      </trkpt>
      <trkpt lat="44.85869" lon="0.63708">
        <ele>87.5</ele>
        <time>2021-05-17T13:57:35.000Z</time>
      </trkpt>
      <trkpt lat="44.85871" lon="0.63705">
        <ele>87.6</ele>
        <time>2021-05-17T13:57:36.000Z</time>
      </trkpt>
      <trkpt lat="44.85872" lon="0.637">
        <ele>87.6</ele>
        <time>2021-05-17T13:57:37.000Z</time>
      </trkpt>
      <trkpt lat="44.85872" lon="0.63697">
        <ele>87.7</ele>
        <time>2021-05-17T13:57:38.000Z</time>
      </trkpt>
      <trkpt lat="44.85871" lon="0.63696">
        <ele>87.7</ele>
        <time>2021-05-17T13:57:39.000Z</time>
      </trkpt>
      <trkpt lat="44.8587" lon="0.63695">
        <ele>87.7</ele>
        <time>2021-05-17T13:57:40.000Z</time>
      </trkpt>
      <trkpt lat="44.85867" lon="0.63695">
        <ele>87.8</ele>
        <time>2021-05-17T13:57:41.000Z</time>
      </trkpt>
      <trkpt lat="44.85866" lon="0.63695">
        <ele>87.7</ele>
        <time>2021-05-17T13:57:42.000Z</time>
      </trkpt>
      <trkpt lat="44.85862" lon="0.63694">
        <ele>87.6</ele>
        <time>2021-05-17T13:57:43.000Z</time>
      </trkpt>
      <trkpt lat="44.85861" lon="0.63694">
        <ele>87.5</ele>
        <time>2021-05-17T13:57:44.000Z</time>
      </trkpt>
      <trkpt lat="44.85857" lon="0.63693">
        <ele>87.4</ele>
        <time>2021-05-17T13:57:45.000Z</time>
      </trkpt>
      <trkpt lat="44.85854" lon="0.63692">
        <ele>87.3</ele>
        <time>2021-05-17T13:57:46.000Z</time>
      </trkpt>
      <trkpt lat="44.85851" lon="0.63691">
        <ele>87.3</ele>
        <time>2021-05-17T13:57:47.000Z</time>
      </trkpt>
      <trkpt lat="44.85848" lon="0.6369">
        <ele>87.4</ele>
        <time>2021-05-17T13:57:48.000Z</time>
      </trkpt>
      <trkpt lat="44.85845" lon="0.63688">
        <ele>87.3</ele>
        <time>2021-05-17T13:57:49.000Z</time>
      </trkpt>
      <trkpt lat="44.85844" lon="0.63688">
        <ele>87.3</ele>
        <time>2021-05-17T13:57:50.000Z</time>
      </trkpt>
      <trkpt lat="44.85842" lon="0.63687">
        <ele>87.3</ele>
        <time>2021-05-17T13:57:51.000Z</time>
      </trkpt>
      <trkpt lat="44.85839" lon="0.63685">
        <ele>87.5</ele>
        <time>2021-05-17T13:57:52.000Z</time>
      </trkpt>
      <trkpt lat="44.85837" lon="0.63684">
        <ele>87.5</ele>
        <time>2021-05-17T13:57:53.000Z</time>
      </trkpt>
      <trkpt lat="44.85835" lon="0.63685">
        <ele>87.4</ele>
        <time>2021-05-17T13:57:54.000Z</time>
      </trkpt>
      <trkpt lat="44.85833" lon="0.63685">
        <ele>87.4</ele>
        <time>2021-05-17T13:57:55.000Z</time>
      </trkpt>
      <trkpt lat="44.8583" lon="0.63684">
        <ele>87.3</ele>
        <time>2021-05-17T13:57:56.000Z</time>
      </trkpt>
      <trkpt lat="44.85826" lon="0.63683">
        <ele>87.3</ele>
        <time>2021-05-17T13:57:57.000Z</time>
      </trkpt>
      <trkpt lat="44.85825" lon="0.63683">
        <ele>87.3</ele>
        <time>2021-05-17T13:57:58.000Z</time>
      </trkpt>
      <trkpt lat="44.85821" lon="0.63681">
        <ele>87.5</ele>
        <time>2021-05-17T13:57:59.000Z</time>
      </trkpt>
      <trkpt lat="44.85818" lon="0.6368">
        <ele>87.5</ele>
        <time>2021-05-17T13:58:00.000Z</time>
      </trkpt>
      <trkpt lat="44.85817" lon="0.6368">
        <ele>87.5</ele>
        <time>2021-05-17T13:58:01.000Z</time>
      </trkpt>
      <trkpt lat="44.85813" lon="0.63678">
        <ele>87.5</ele>
        <time>2021-05-17T13:58:02.000Z</time>
      </trkpt>
      <trkpt lat="44.85812" lon="0.63678">
        <ele>87.5</ele>
        <time>2021-05-17T13:58:03.000Z</time>
      </trkpt>
      <trkpt lat="44.85808" lon="0.63677">
        <ele>87.7</ele>
        <time>2021-05-17T13:58:04.000Z</time>
      </trkpt>
      <trkpt lat="44.85807" lon="0.63678">
        <ele>87.7</ele>
        <time>2021-05-17T13:58:05.000Z</time>
      </trkpt>
      <trkpt lat="44.85805" lon="0.63678">
        <ele>87.6</ele>
        <time>2021-05-17T13:58:06.000Z</time>
      </trkpt>
      <trkpt lat="44.85803" lon="0.63675">
        <ele>87.4</ele>
        <time>2021-05-17T13:58:07.000Z</time>
      </trkpt>
      <trkpt lat="44.85802" lon="0.63675">
        <ele>87.4</ele>
        <time>2021-05-17T13:58:08.000Z</time>
      </trkpt>
      <trkpt lat="44.858" lon="0.63671">
        <ele>87.8</ele>
        <time>2021-05-17T13:58:09.000Z</time>
      </trkpt>
      <trkpt lat="44.858" lon="0.6367">
        <ele>87.8</ele>
        <time>2021-05-17T13:58:10.000Z</time>
      </trkpt>
      <trkpt lat="44.858" lon="0.63667">
        <ele>88</ele>
        <time>2021-05-17T13:58:11.000Z</time>
      </trkpt>
      <trkpt lat="44.85799" lon="0.63666">
        <ele>88</ele>
        <time>2021-05-17T13:58:12.000Z</time>
      </trkpt>
      <trkpt lat="44.85799" lon="0.63665">
        <ele>88.4</ele>
        <time>2021-05-17T13:58:13.000Z</time>
      </trkpt>
      <trkpt lat="44.85799" lon="0.63664">
        <ele>88.4</ele>
        <time>2021-05-17T13:58:14.000Z</time>
      </trkpt>
      <trkpt lat="44.85798" lon="0.63663">
        <ele>88.4</ele>
        <time>2021-05-17T13:58:15.000Z</time>
      </trkpt>
      <trkpt lat="44.85798" lon="0.63662">
        <ele>88.4</ele>
        <time>2021-05-17T13:58:16.000Z</time>
      </trkpt>
      <trkpt lat="44.85797" lon="0.63662">
        <ele>88.4</ele>
        <time>2021-05-17T13:58:17.000Z</time>
      </trkpt>
      <trkpt lat="44.85797" lon="0.63661">
        <ele>88.4</ele>
        <time>2021-05-17T13:58:18.000Z</time>
      </trkpt>
      <trkpt lat="44.85797" lon="0.63661">
        <ele>88.4</ele>
        <time>2021-05-17T13:58:19.000Z</time>
      </trkpt>
      <trkpt lat="44.85796" lon="0.6366">
        <ele>88.7</ele>
        <time>2021-05-17T13:58:20.000Z</time>
      </trkpt>
      <trkpt lat="44.85796" lon="0.6366">
        <ele>88.7</ele>
        <time>2021-05-17T13:58:21.000Z</time>
      </trkpt>
      <trkpt lat="44.85795" lon="0.6366">
        <ele>88.7</ele>
        <time>2021-05-17T13:58:22.000Z</time>
      </trkpt>
      <trkpt lat="44.85795" lon="0.63659">
        <ele>88.7</ele>
        <time>2021-05-17T13:58:23.000Z</time>
      </trkpt>
      <trkpt lat="44.85794" lon="0.63659">
        <ele>88.7</ele>
        <time>2021-05-17T13:58:24.000Z</time>
      </trkpt>
      <trkpt lat="44.85794" lon="0.63658">
        <ele>88.7</ele>
        <time>2021-05-17T13:58:25.000Z</time>
      </trkpt>
      <trkpt lat="44.85794" lon="0.63658">
        <ele>88.5</ele>
        <time>2021-05-17T13:58:26.000Z</time>
      </trkpt>
      <trkpt lat="44.85793" lon="0.63659">
        <ele>88.5</ele>
        <time>2021-05-17T13:58:27.000Z</time>
      </trkpt>
      <trkpt lat="44.85793" lon="0.63658">
        <ele>88.5</ele>
        <time>2021-05-17T13:58:28.000Z</time>
      </trkpt>
      <trkpt lat="44.85793" lon="0.63658">
        <ele>88.5</ele>
        <time>2021-05-17T13:58:29.000Z</time>
      </trkpt>
      <trkpt lat="44.85793" lon="0.63658">
        <ele>88.5</ele>
        <time>2021-05-17T13:58:30.000Z</time>
      </trkpt>
      <trkpt lat="44.85793" lon="0.63658">
        <ele>88.5</ele>
        <time>2021-05-17T13:58:31.000Z</time>
      </trkpt>
      <trkpt lat="44.85792" lon="0.63659">
        <ele>88.5</ele>
        <time>2021-05-17T13:58:32.000Z</time>
      </trkpt>
      <trkpt lat="44.85792" lon="0.6366">
        <ele>88.5</ele>
        <time>2021-05-17T13:58:33.000Z</time>
      </trkpt>
      <trkpt lat="44.85792" lon="0.6366">
        <ele>88.5</ele>
        <time>2021-05-17T13:58:34.000Z</time>
      </trkpt>
      <trkpt lat="44.85791" lon="0.6366">
        <ele>88.5</ele>
        <time>2021-05-17T13:58:35.000Z</time>
      </trkpt>
      <trkpt lat="44.85791" lon="0.6366">
        <ele>88.5</ele>
        <time>2021-05-17T13:58:36.000Z</time>
      </trkpt>
      <trkpt lat="44.85792" lon="0.63659">
        <ele>88.5</ele>
        <time>2021-05-17T13:58:37.000Z</time>
      </trkpt>
      <trkpt lat="44.85791" lon="0.63658">
        <ele>88.5</ele>
        <time>2021-05-17T13:58:38.000Z</time>
      </trkpt>
      <trkpt lat="44.85791" lon="0.63658">
        <ele>88.3</ele>
        <time>2021-05-17T13:58:39.000Z</time>
      </trkpt>
      <trkpt lat="44.8579" lon="0.63659">
        <ele>88.3</ele>
        <time>2021-05-17T13:58:40.000Z</time>
      </trkpt>
      <trkpt lat="44.8579" lon="0.63658">
        <ele>88.3</ele>
        <time>2021-05-17T13:58:41.000Z</time>
      </trkpt>
      <trkpt lat="44.85789" lon="0.63658">
        <ele>88.3</ele>
        <time>2021-05-17T13:58:42.000Z</time>
      </trkpt>
      <trkpt lat="44.85789" lon="0.63658">
        <ele>88.3</ele>
        <time>2021-05-17T13:58:43.000Z</time>
      </trkpt>
      <trkpt lat="44.85789" lon="0.63657">
        <ele>88.3</ele>
        <time>2021-05-17T13:58:45.000Z</time>
      </trkpt>
      <trkpt lat="44.85789" lon="0.63657">
        <ele>88.3</ele>
        <time>2021-05-17T13:58:46.000Z</time>
      </trkpt>
      <trkpt lat="44.85789" lon="0.63657">
        <ele>88.3</ele>
        <time>2021-05-17T13:58:47.000Z</time>
      </trkpt>
      <trkpt lat="44.85788" lon="0.63657">
        <ele>88.3</ele>
        <time>2021-05-17T13:58:48.000Z</time>
      </trkpt>
      <trkpt lat="44.85789" lon="0.63657">
        <ele>88.3</ele>
        <time>2021-05-17T13:58:49.000Z</time>
      </trkpt>
      <trkpt lat="44.85789" lon="0.63657">
        <ele>88.3</ele>
        <time>2021-05-17T13:58:50.000Z</time>
      </trkpt>
      <trkpt lat="44.85789" lon="0.63657">
        <ele>88.3</ele>
        <time>2021-05-17T13:58:51.000Z</time>
      </trkpt>
      <trkpt lat="44.85789" lon="0.63656">
        <ele>88.7</ele>
        <time>2021-05-17T13:58:52.000Z</time>
      </trkpt>
      <trkpt lat="44.85789" lon="0.63656">
        <ele>88.7</ele>
        <time>2021-05-17T13:58:53.000Z</time>
      </trkpt>
      <trkpt lat="44.8579" lon="0.63655">
        <ele>88.7</ele>
        <time>2021-05-17T13:58:54.000Z</time>
      </trkpt>
      <trkpt lat="44.85789" lon="0.63655">
        <ele>88.7</ele>
        <time>2021-05-17T13:58:55.000Z</time>
      </trkpt>
      <trkpt lat="44.85789" lon="0.63655">
        <ele>88.7</ele>
        <time>2021-05-17T13:58:56.000Z</time>
      </trkpt>
      <trkpt lat="44.85789" lon="0.63654">
        <ele>88.7</ele>
        <time>2021-05-17T13:58:57.000Z</time>
      </trkpt>
      <trkpt lat="44.85789" lon="0.63654">
        <ele>88.7</ele>
        <time>2021-05-17T13:58:58.000Z</time>
      </trkpt>
      <trkpt lat="44.85789" lon="0.63654">
        <ele>88.7</ele>
        <time>2021-05-17T13:58:59.000Z</time>
      </trkpt>
      <trkpt lat="44.85789" lon="0.63654">
        <ele>88.7</ele>
        <time>2021-05-17T13:59:00.000Z</time>
      </trkpt>
      <trkpt lat="44.85789" lon="0.63655">
        <ele>88.7</ele>
        <time>2021-05-17T13:59:01.000Z</time>
      </trkpt>
      <trkpt lat="44.85789" lon="0.63655">
        <ele>88.7</ele>
        <time>2021-05-17T13:59:02.000Z</time>
      </trkpt>
      <trkpt lat="44.8579" lon="0.63655">
        <ele>88.7</ele>
        <time>2021-05-17T13:59:03.000Z</time>
      </trkpt>
      <trkpt lat="44.8579" lon="0.63654">
        <ele>88.7</ele>
        <time>2021-05-17T13:59:04.000Z</time>
      </trkpt>
      <trkpt lat="44.8579" lon="0.63654">
        <ele>88.7</ele>
        <time>2021-05-17T13:59:05.000Z</time>
      </trkpt>
      <trkpt lat="44.8579" lon="0.63653">
        <ele>88.7</ele>
        <time>2021-05-17T13:59:06.000Z</time>
      </trkpt>
      <trkpt lat="44.85789" lon="0.63654">
        <ele>88.7</ele>
        <time>2021-05-17T13:59:07.000Z</time>
      </trkpt>
      <trkpt lat="44.85789" lon="0.63654">
        <ele>88.7</ele>
        <time>2021-05-17T13:59:08.000Z</time>
      </trkpt>
      <trkpt lat="44.85789" lon="0.63655">
        <ele>88.7</ele>
        <time>2021-05-17T13:59:09.000Z</time>
      </trkpt>
      <trkpt lat="44.85789" lon="0.63655">
        <ele>88.7</ele>
        <time>2021-05-17T13:59:10.000Z</time>
      </trkpt>
      <trkpt lat="44.85789" lon="0.63654">
        <ele>88.7</ele>
        <time>2021-05-17T13:59:11.000Z</time>
      </trkpt>
      <trkpt lat="44.85789" lon="0.63653">
        <ele>88.7</ele>
        <time>2021-05-17T13:59:12.000Z</time>
      </trkpt>
      <trkpt lat="44.85788" lon="0.6365">
        <ele>89.1</ele>
        <time>2021-05-17T13:59:13.000Z</time>
      </trkpt>
      <trkpt lat="44.85787" lon="0.63648">
        <ele>88.9</ele>
        <time>2021-05-17T13:59:14.000Z</time>
      </trkpt>
      <trkpt lat="44.85785" lon="0.63647">
        <ele>89.3</ele>
        <time>2021-05-17T13:59:15.000Z</time>
      </trkpt>
      <trkpt lat="44.85784" lon="0.63648">
        <ele>88.6</ele>
        <time>2021-05-17T13:59:16.000Z</time>
      </trkpt>
      <trkpt lat="44.85783" lon="0.63646">
        <ele>89</ele>
        <time>2021-05-17T13:59:17.000Z</time>
      </trkpt>
      <trkpt lat="44.85783" lon="0.63645">
        <ele>89</ele>
        <time>2021-05-17T13:59:18.000Z</time>
      </trkpt>
      <trkpt lat="44.85781" lon="0.63644">
        <ele>88.7</ele>
        <time>2021-05-17T13:59:19.000Z</time>
      </trkpt>
      <trkpt lat="44.85781" lon="0.63642">
        <ele>89.2</ele>
        <time>2021-05-17T13:59:20.000Z</time>
      </trkpt>
      <trkpt lat="44.85779" lon="0.63637">
        <ele>89.7</ele>
        <time>2021-05-17T13:59:21.000Z</time>
      </trkpt>
      <trkpt lat="44.85779" lon="0.63636">
        <ele>89.7</ele>
        <time>2021-05-17T13:59:22.000Z</time>
      </trkpt>
      <trkpt lat="44.85779" lon="0.63636">
        <ele>89.7</ele>
        <time>2021-05-17T13:59:23.000Z</time>
      </trkpt>
      <trkpt lat="44.85778" lon="0.63635">
        <ele>89.9</ele>
        <time>2021-05-17T13:59:24.000Z</time>
      </trkpt>
      <trkpt lat="44.85779" lon="0.63634">
        <ele>90.2</ele>
        <time>2021-05-17T13:59:25.000Z</time>
      </trkpt>
      <trkpt lat="44.85779" lon="0.63635">
        <ele>89.7</ele>
        <time>2021-05-17T13:59:26.000Z</time>
      </trkpt>
      <trkpt lat="44.85779" lon="0.63633">
        <ele>90.2</ele>
        <time>2021-05-17T13:59:27.000Z</time>
      </trkpt>
      <trkpt lat="44.85779" lon="0.63632">
        <ele>89.9</ele>
        <time>2021-05-17T13:59:28.000Z</time>
      </trkpt>
      <trkpt lat="44.85778" lon="0.63632">
        <ele>89.9</ele>
        <time>2021-05-17T13:59:29.000Z</time>
      </trkpt>
      <trkpt lat="44.85778" lon="0.63632">
        <ele>89.9</ele>
        <time>2021-05-17T13:59:30.000Z</time>
      </trkpt>
      <trkpt lat="44.85778" lon="0.63632">
        <ele>89.9</ele>
        <time>2021-05-17T13:59:31.000Z</time>
      </trkpt>
      <trkpt lat="44.85777" lon="0.63632">
        <ele>89.9</ele>
        <time>2021-05-17T13:59:32.000Z</time>
      </trkpt>
      <trkpt lat="44.85778" lon="0.63631">
        <ele>89.9</ele>
        <time>2021-05-17T13:59:33.000Z</time>
      </trkpt>
      <trkpt lat="44.85777" lon="0.63631">
        <ele>89.9</ele>
        <time>2021-05-17T13:59:34.000Z</time>
      </trkpt>
      <trkpt lat="44.85778" lon="0.6363">
        <ele>90.4</ele>
        <time>2021-05-17T13:59:35.000Z</time>
      </trkpt>
      <trkpt lat="44.85778" lon="0.63631">
        <ele>89.9</ele>
        <time>2021-05-17T13:59:36.000Z</time>
      </trkpt>
      <trkpt lat="44.85778" lon="0.63631">
        <ele>89.9</ele>
        <time>2021-05-17T13:59:37.000Z</time>
      </trkpt>
      <trkpt lat="44.85778" lon="0.63631">
        <ele>90.4</ele>
        <time>2021-05-17T13:59:38.000Z</time>
      </trkpt>
      <trkpt lat="44.85778" lon="0.63631">
        <ele>90.4</ele>
        <time>2021-05-17T13:59:39.000Z</time>
      </trkpt>
      <trkpt lat="44.85778" lon="0.63629">
        <ele>90.4</ele>
        <time>2021-05-17T13:59:40.000Z</time>
      </trkpt>
      <trkpt lat="44.85778" lon="0.63628">
        <ele>90.4</ele>
        <time>2021-05-17T13:59:41.000Z</time>
      </trkpt>
      <trkpt lat="44.85777" lon="0.63628">
        <ele>90.4</ele>
        <time>2021-05-17T13:59:42.000Z</time>
      </trkpt>
      <trkpt lat="44.85778" lon="0.63627">
        <ele>90.4</ele>
        <time>2021-05-17T13:59:43.000Z</time>
      </trkpt>
      <trkpt lat="44.85779" lon="0.63626">
        <ele>91.3</ele>
        <time>2021-05-17T13:59:44.000Z</time>
      </trkpt>
      <trkpt lat="44.85779" lon="0.63627">
        <ele>90.8</ele>
        <time>2021-05-17T13:59:45.000Z</time>
      </trkpt>
      <trkpt lat="44.85779" lon="0.63626">
        <ele>91.3</ele>
        <time>2021-05-17T13:59:46.000Z</time>
      </trkpt>
      <trkpt lat="44.85779" lon="0.63626">
        <ele>91.3</ele>
        <time>2021-05-17T13:59:47.000Z</time>
      </trkpt>
      <trkpt lat="44.85779" lon="0.63626">
        <ele>91.3</ele>
        <time>2021-05-17T13:59:48.000Z</time>
      </trkpt>
      <trkpt lat="44.85779" lon="0.63625">
        <ele>91.3</ele>
        <time>2021-05-17T13:59:49.000Z</time>
      </trkpt>
      <trkpt lat="44.85779" lon="0.63624">
        <ele>91.3</ele>
        <time>2021-05-17T13:59:50.000Z</time>
      </trkpt>
      <trkpt lat="44.85779" lon="0.63624">
        <ele>91.3</ele>
        <time>2021-05-17T13:59:51.000Z</time>
      </trkpt>
      <trkpt lat="44.8578" lon="0.63622">
        <ele>91.3</ele>
        <time>2021-05-17T13:59:52.000Z</time>
      </trkpt>
      <trkpt lat="44.8578" lon="0.63621">
        <ele>91.8</ele>
        <time>2021-05-17T13:59:53.000Z</time>
      </trkpt>
      <trkpt lat="44.8578" lon="0.63621">
        <ele>91.8</ele>
        <time>2021-05-17T13:59:54.000Z</time>
      </trkpt>
      <trkpt lat="44.8578" lon="0.63621">
        <ele>91.8</ele>
        <time>2021-05-17T13:59:55.000Z</time>
      </trkpt>
      <trkpt lat="44.8578" lon="0.63621">
        <ele>91.8</ele>
        <time>2021-05-17T13:59:56.000Z</time>
      </trkpt>
      <trkpt lat="44.8578" lon="0.63619">
        <ele>91.8</ele>
        <time>2021-05-17T13:59:57.000Z</time>
      </trkpt>
      <trkpt lat="44.85779" lon="0.6362">
        <ele>91.8</ele>
        <time>2021-05-17T13:59:58.000Z</time>
      </trkpt>
      <trkpt lat="44.85779" lon="0.6362">
        <ele>91.8</ele>
        <time>2021-05-17T13:59:59.000Z</time>
      </trkpt>
      <trkpt lat="44.85779" lon="0.6362">
        <ele>91.8</ele>
        <time>2021-05-17T14:00:00.000Z</time>
      </trkpt>
      <trkpt lat="44.85779" lon="0.63619">
        <ele>91.8</ele>
        <time>2021-05-17T14:00:01.000Z</time>
      </trkpt>
      <trkpt lat="44.85779" lon="0.63619">
        <ele>91.8</ele>
        <time>2021-05-17T14:00:02.000Z</time>
      </trkpt>
      <trkpt lat="44.85779" lon="0.63619">
        <ele>91.5</ele>
        <time>2021-05-17T14:00:03.000Z</time>
      </trkpt>
      <trkpt lat="44.85778" lon="0.63619">
        <ele>91.5</ele>
        <time>2021-05-17T14:00:04.000Z</time>
      </trkpt>
      <trkpt lat="44.85778" lon="0.6362">
        <ele>91.5</ele>
        <time>2021-05-17T14:00:05.000Z</time>
      </trkpt>
      <trkpt lat="44.85777" lon="0.63621">
        <ele>91.5</ele>
        <time>2021-05-17T14:00:06.000Z</time>
      </trkpt>
      <trkpt lat="44.85777" lon="0.63621">
        <ele>91.5</ele>
        <time>2021-05-17T14:00:07.000Z</time>
      </trkpt>
      <trkpt lat="44.85778" lon="0.6362">
        <ele>91.5</ele>
        <time>2021-05-17T14:00:08.000Z</time>
      </trkpt>
      <trkpt lat="44.85778" lon="0.6362">
        <ele>91.5</ele>
        <time>2021-05-17T14:00:09.000Z</time>
      </trkpt>
      <trkpt lat="44.85778" lon="0.6362">
        <ele>91.5</ele>
        <time>2021-05-17T14:00:10.000Z</time>
      </trkpt>
      <trkpt lat="44.85778" lon="0.6362">
        <ele>91.5</ele>
        <time>2021-05-17T14:00:11.000Z</time>
      </trkpt>
      <trkpt lat="44.85778" lon="0.6362">
        <ele>91.5</ele>
        <time>2021-05-17T14:00:12.000Z</time>
      </trkpt>
      <trkpt lat="44.85778" lon="0.63621">
        <ele>91.5</ele>
        <time>2021-05-17T14:00:13.000Z</time>
      </trkpt>
      <trkpt lat="44.85778" lon="0.6362">
        <ele>91.5</ele>
        <time>2021-05-17T14:00:14.000Z</time>
      </trkpt>
      <trkpt lat="44.85779" lon="0.6362">
        <ele>91.8</ele>
        <time>2021-05-17T14:00:15.000Z</time>
      </trkpt>
      <trkpt lat="44.8578" lon="0.6362">
        <ele>91.8</ele>
        <time>2021-05-17T14:00:16.000Z</time>
      </trkpt>
      <trkpt lat="44.8578" lon="0.63621">
        <ele>91.8</ele>
        <time>2021-05-17T14:00:17.000Z</time>
      </trkpt>
      <trkpt lat="44.8578" lon="0.63621">
        <ele>91.8</ele>
        <time>2021-05-17T14:00:18.000Z</time>
      </trkpt>
      <trkpt lat="44.8578" lon="0.63622">
        <ele>91.8</ele>
        <time>2021-05-17T14:00:19.000Z</time>
      </trkpt>
      <trkpt lat="44.8578" lon="0.63622">
        <ele>91.8</ele>
        <time>2021-05-17T14:00:20.000Z</time>
      </trkpt>
      <trkpt lat="44.8578" lon="0.63623">
        <ele>91.3</ele>
        <time>2021-05-17T14:00:21.000Z</time>
      </trkpt>
      <trkpt lat="44.8578" lon="0.63623">
        <ele>91.3</ele>
        <time>2021-05-17T14:00:22.000Z</time>
      </trkpt>
      <trkpt lat="44.8578" lon="0.63624">
        <ele>91.3</ele>
        <time>2021-05-17T14:00:23.000Z</time>
      </trkpt>
      <trkpt lat="44.8578" lon="0.63626">
        <ele>91.3</ele>
        <time>2021-05-17T14:00:24.000Z</time>
      </trkpt>
      <trkpt lat="44.85779" lon="0.63625">
        <ele>91.3</ele>
        <time>2021-05-17T14:00:25.000Z</time>
      </trkpt>
      <trkpt lat="44.85779" lon="0.63626">
        <ele>91.3</ele>
        <time>2021-05-17T14:00:26.000Z</time>
      </trkpt>
      <trkpt lat="44.85779" lon="0.63626">
        <ele>91.3</ele>
        <time>2021-05-17T14:00:27.000Z</time>
      </trkpt>
      <trkpt lat="44.85779" lon="0.63626">
        <ele>91.3</ele>
        <time>2021-05-17T14:00:28.000Z</time>
      </trkpt>
      <trkpt lat="44.85779" lon="0.63627">
        <ele>90.8</ele>
        <time>2021-05-17T14:00:29.000Z</time>
      </trkpt>
      <trkpt lat="44.85779" lon="0.63627">
        <ele>90.4</ele>
        <time>2021-05-17T14:00:30.000Z</time>
      </trkpt>
      <trkpt lat="44.85778" lon="0.63627">
        <ele>90.4</ele>
        <time>2021-05-17T14:00:31.000Z</time>
      </trkpt>
      <trkpt lat="44.85778" lon="0.63627">
        <ele>90.4</ele>
        <time>2021-05-17T14:00:32.000Z</time>
      </trkpt>
      <trkpt lat="44.85779" lon="0.63628">
        <ele>90.8</ele>
        <time>2021-05-17T14:00:33.000Z</time>
      </trkpt>
      <trkpt lat="44.85779" lon="0.63628">
        <ele>90.4</ele>
        <time>2021-05-17T14:00:34.000Z</time>
      </trkpt>
      <trkpt lat="44.85779" lon="0.63627">
        <ele>90.8</ele>
        <time>2021-05-17T14:00:35.000Z</time>
      </trkpt>
      <trkpt lat="44.85779" lon="0.63627">
        <ele>90.8</ele>
        <time>2021-05-17T14:00:36.000Z</time>
      </trkpt>
      <trkpt lat="44.85779" lon="0.63626">
        <ele>90.8</ele>
        <time>2021-05-17T14:00:37.000Z</time>
      </trkpt>
      <trkpt lat="44.85778" lon="0.63626">
        <ele>91</ele>
        <time>2021-05-17T14:00:38.000Z</time>
      </trkpt>
      <trkpt lat="44.85778" lon="0.63626">
        <ele>91</ele>
        <time>2021-05-17T14:00:39.000Z</time>
      </trkpt>
      <trkpt lat="44.85777" lon="0.63626">
        <ele>91</ele>
        <time>2021-05-17T14:00:40.000Z</time>
      </trkpt>
      <trkpt lat="44.85777" lon="0.63626">
        <ele>91</ele>
        <time>2021-05-17T14:00:41.000Z</time>
      </trkpt>
      <trkpt lat="44.85777" lon="0.63626">
        <ele>90.4</ele>
        <time>2021-05-17T14:00:42.000Z</time>
      </trkpt>
      <trkpt lat="44.85777" lon="0.63626">
        <ele>91</ele>
        <time>2021-05-17T14:00:43.000Z</time>
      </trkpt>
      <trkpt lat="44.85778" lon="0.63626">
        <ele>90.4</ele>
        <time>2021-05-17T14:00:44.000Z</time>
      </trkpt>
      <trkpt lat="44.85778" lon="0.63627">
        <ele>90.4</ele>
        <time>2021-05-17T14:00:45.000Z</time>
      </trkpt>
      <trkpt lat="44.85778" lon="0.63627">
        <ele>90.4</ele>
        <time>2021-05-17T14:00:46.000Z</time>
      </trkpt>
      <trkpt lat="44.85778" lon="0.63628">
        <ele>90.4</ele>
        <time>2021-05-17T14:00:47.000Z</time>
      </trkpt>
      <trkpt lat="44.85778" lon="0.63628">
        <ele>90.4</ele>
        <time>2021-05-17T14:00:48.000Z</time>
      </trkpt>
      <trkpt lat="44.85778" lon="0.6363">
        <ele>90.4</ele>
        <time>2021-05-17T14:00:49.000Z</time>
      </trkpt>
      <trkpt lat="44.85778" lon="0.63631">
        <ele>89.9</ele>
        <time>2021-05-17T14:00:50.000Z</time>
      </trkpt>
      <trkpt lat="44.85779" lon="0.63632">
        <ele>90.2</ele>
        <time>2021-05-17T14:00:51.000Z</time>
      </trkpt>
      <trkpt lat="44.8578" lon="0.63633">
        <ele>90.2</ele>
        <time>2021-05-17T14:00:52.000Z</time>
      </trkpt>
      <trkpt lat="44.85781" lon="0.63633">
        <ele>90.2</ele>
        <time>2021-05-17T14:00:53.000Z</time>
      </trkpt>
      <trkpt lat="44.85781" lon="0.63634">
        <ele>90.2</ele>
        <time>2021-05-17T14:00:54.000Z</time>
      </trkpt>
      <trkpt lat="44.85782" lon="0.63635">
        <ele>90.5</ele>
        <time>2021-05-17T14:00:55.000Z</time>
      </trkpt>
      <trkpt lat="44.85782" lon="0.63635">
        <ele>90</ele>
        <time>2021-05-17T14:00:56.000Z</time>
      </trkpt>
      <trkpt lat="44.85783" lon="0.63636">
        <ele>90</ele>
        <time>2021-05-17T14:00:57.000Z</time>
      </trkpt>
      <trkpt lat="44.85782" lon="0.63637">
        <ele>90</ele>
        <time>2021-05-17T14:00:58.000Z</time>
      </trkpt>
      <trkpt lat="44.85782" lon="0.63637">
        <ele>90</ele>
        <time>2021-05-17T14:00:59.000Z</time>
      </trkpt>
      <trkpt lat="44.85783" lon="0.63638">
        <ele>90</ele>
        <time>2021-05-17T14:01:00.000Z</time>
      </trkpt>
      <trkpt lat="44.85782" lon="0.63638">
        <ele>90</ele>
        <time>2021-05-17T14:01:01.000Z</time>
      </trkpt>
      <trkpt lat="44.85783" lon="0.63638">
        <ele>90</ele>
        <time>2021-05-17T14:01:02.000Z</time>
      </trkpt>
      <trkpt lat="44.85782" lon="0.63639">
        <ele>90</ele>
        <time>2021-05-17T14:01:03.000Z</time>
      </trkpt>
      <trkpt lat="44.85781" lon="0.63639">
        <ele>89.2</ele>
        <time>2021-05-17T14:01:04.000Z</time>
      </trkpt>
      <trkpt lat="44.85782" lon="0.63639">
        <ele>89.7</ele>
        <time>2021-05-17T14:01:05.000Z</time>
      </trkpt>
      <trkpt lat="44.85781" lon="0.63638">
        <ele>89.7</ele>
        <time>2021-05-17T14:01:06.000Z</time>
      </trkpt>
      <trkpt lat="44.85781" lon="0.63636">
        <ele>89.7</ele>
        <time>2021-05-17T14:01:07.000Z</time>
      </trkpt>
      <trkpt lat="44.8578" lon="0.63635">
        <ele>89.7</ele>
        <time>2021-05-17T14:01:08.000Z</time>
      </trkpt>
      <trkpt lat="44.85779" lon="0.63633">
        <ele>90.2</ele>
        <time>2021-05-17T14:01:09.000Z</time>
      </trkpt>
      <trkpt lat="44.85779" lon="0.63632">
        <ele>90.2</ele>
        <time>2021-05-17T14:01:10.000Z</time>
      </trkpt>
      <trkpt lat="44.85779" lon="0.63631">
        <ele>90.2</ele>
        <time>2021-05-17T14:01:11.000Z</time>
      </trkpt>
      <trkpt lat="44.85779" lon="0.6363">
        <ele>90.8</ele>
        <time>2021-05-17T14:01:12.000Z</time>
      </trkpt>
      <trkpt lat="44.85778" lon="0.63629">
        <ele>90.4</ele>
        <time>2021-05-17T14:01:13.000Z</time>
      </trkpt>
      <trkpt lat="44.85778" lon="0.63629">
        <ele>90.4</ele>
        <time>2021-05-17T14:01:14.000Z</time>
      </trkpt>
      <trkpt lat="44.85778" lon="0.63628">
        <ele>90.4</ele>
        <time>2021-05-17T14:01:15.000Z</time>
      </trkpt>
      <trkpt lat="44.85777" lon="0.63627">
        <ele>90.4</ele>
        <time>2021-05-17T14:01:16.000Z</time>
      </trkpt>
      <trkpt lat="44.85777" lon="0.63626">
        <ele>90.4</ele>
        <time>2021-05-17T14:01:17.000Z</time>
      </trkpt>
      <trkpt lat="44.85777" lon="0.63625">
        <ele>91</ele>
        <time>2021-05-17T14:01:18.000Z</time>
      </trkpt>
      <trkpt lat="44.85776" lon="0.63624">
        <ele>91</ele>
        <time>2021-05-17T14:01:19.000Z</time>
      </trkpt>
      <trkpt lat="44.85777" lon="0.63623">
        <ele>91</ele>
        <time>2021-05-17T14:01:20.000Z</time>
      </trkpt>
      <trkpt lat="44.85776" lon="0.63623">
        <ele>91</ele>
        <time>2021-05-17T14:01:21.000Z</time>
      </trkpt>
      <trkpt lat="44.85776" lon="0.63622">
        <ele>91</ele>
        <time>2021-05-17T14:01:22.000Z</time>
      </trkpt>
      <trkpt lat="44.85776" lon="0.63623">
        <ele>91</ele>
        <time>2021-05-17T14:01:23.000Z</time>
      </trkpt>
      <trkpt lat="44.85776" lon="0.63622">
        <ele>91</ele>
        <time>2021-05-17T14:01:24.000Z</time>
      </trkpt>
      <trkpt lat="44.85777" lon="0.63621">
        <ele>91.5</ele>
        <time>2021-05-17T14:01:25.000Z</time>
      </trkpt>
      <trkpt lat="44.85776" lon="0.63621">
        <ele>91.5</ele>
        <time>2021-05-17T14:01:26.000Z</time>
      </trkpt>
      <trkpt lat="44.85776" lon="0.63621">
        <ele>91.5</ele>
        <time>2021-05-17T14:01:27.000Z</time>
      </trkpt>
      <trkpt lat="44.85776" lon="0.6362">
        <ele>91.5</ele>
        <time>2021-05-17T14:01:28.000Z</time>
      </trkpt>
      <trkpt lat="44.85775" lon="0.6362">
        <ele>91.1</ele>
        <time>2021-05-17T14:01:29.000Z</time>
      </trkpt>
      <trkpt lat="44.85775" lon="0.63619">
        <ele>91.1</ele>
        <time>2021-05-17T14:01:30.000Z</time>
      </trkpt>
      <trkpt lat="44.85776" lon="0.63618">
        <ele>91.5</ele>
        <time>2021-05-17T14:01:31.000Z</time>
      </trkpt>
      <trkpt lat="44.85775" lon="0.63619">
        <ele>91.1</ele>
        <time>2021-05-17T14:01:32.000Z</time>
      </trkpt>
      <trkpt lat="44.85776" lon="0.63618">
        <ele>91.5</ele>
        <time>2021-05-17T14:01:33.000Z</time>
      </trkpt>
      <trkpt lat="44.85777" lon="0.63617">
        <ele>91.9</ele>
        <time>2021-05-17T14:01:34.000Z</time>
      </trkpt>
      <trkpt lat="44.85775" lon="0.63617">
        <ele>91.6</ele>
        <time>2021-05-17T14:01:35.000Z</time>
      </trkpt>
      <trkpt lat="44.85775" lon="0.63616">
        <ele>91.6</ele>
        <time>2021-05-17T14:01:36.000Z</time>
      </trkpt>
      <trkpt lat="44.85775" lon="0.63614">
        <ele>91.6</ele>
        <time>2021-05-17T14:01:37.000Z</time>
      </trkpt>
      <trkpt lat="44.85775" lon="0.63613">
        <ele>92</ele>
        <time>2021-05-17T14:01:38.000Z</time>
      </trkpt>
      <trkpt lat="44.85774" lon="0.63613">
        <ele>92</ele>
        <time>2021-05-17T14:01:39.000Z</time>
      </trkpt>
      <trkpt lat="44.85774" lon="0.63614">
        <ele>91.6</ele>
        <time>2021-05-17T14:01:40.000Z</time>
      </trkpt>
      <trkpt lat="44.85775" lon="0.63614">
        <ele>91.6</ele>
        <time>2021-05-17T14:01:41.000Z</time>
      </trkpt>
      <trkpt lat="44.85775" lon="0.63613">
        <ele>92</ele>
        <time>2021-05-17T14:01:42.000Z</time>
      </trkpt>
      <trkpt lat="44.85774" lon="0.63612">
        <ele>92</ele>
        <time>2021-05-17T14:01:43.000Z</time>
      </trkpt>
      <trkpt lat="44.85774" lon="0.63611">
        <ele>92</ele>
        <time>2021-05-17T14:01:44.000Z</time>
      </trkpt>
      <trkpt lat="44.85774" lon="0.63611">
        <ele>92</ele>
        <time>2021-05-17T14:01:45.000Z</time>
      </trkpt>
      <trkpt lat="44.85774" lon="0.63611">
        <ele>92</ele>
        <time>2021-05-17T14:01:46.000Z</time>
      </trkpt>
      <trkpt lat="44.85775" lon="0.63611">
        <ele>92</ele>
        <time>2021-05-17T14:01:47.000Z</time>
      </trkpt>
      <trkpt lat="44.85774" lon="0.63611">
        <ele>92</ele>
        <time>2021-05-17T14:01:48.000Z</time>
      </trkpt>
      <trkpt lat="44.85774" lon="0.63611">
        <ele>92</ele>
        <time>2021-05-17T14:01:49.000Z</time>
      </trkpt>
      <trkpt lat="44.85773" lon="0.63611">
        <ele>92</ele>
        <time>2021-05-17T14:01:50.000Z</time>
      </trkpt>
      <trkpt lat="44.85773" lon="0.63611">
        <ele>92</ele>
        <time>2021-05-17T14:01:51.000Z</time>
      </trkpt>
      <trkpt lat="44.85773" lon="0.63611">
        <ele>92</ele>
        <time>2021-05-17T14:01:52.000Z</time>
      </trkpt>
      <trkpt lat="44.85772" lon="0.6361">
        <ele>91.7</ele>
        <time>2021-05-17T14:01:53.000Z</time>
      </trkpt>
      <trkpt lat="44.85772" lon="0.6361">
        <ele>91.7</ele>
        <time>2021-05-17T14:01:54.000Z</time>
      </trkpt>
      <trkpt lat="44.85772" lon="0.6361">
        <ele>91.7</ele>
        <time>2021-05-17T14:01:55.000Z</time>
      </trkpt>
      <trkpt lat="44.85772" lon="0.6361">
        <ele>91.7</ele>
        <time>2021-05-17T14:01:56.000Z</time>
      </trkpt>
      <trkpt lat="44.85772" lon="0.6361">
        <ele>91.7</ele>
        <time>2021-05-17T14:01:57.000Z</time>
      </trkpt>
      <trkpt lat="44.85771" lon="0.6361">
        <ele>91.7</ele>
        <time>2021-05-17T14:01:58.000Z</time>
      </trkpt>
      <trkpt lat="44.85771" lon="0.6361">
        <ele>91.7</ele>
        <time>2021-05-17T14:01:59.000Z</time>
      </trkpt>
      <trkpt lat="44.85771" lon="0.63609">
        <ele>91.7</ele>
        <time>2021-05-17T14:02:00.000Z</time>
      </trkpt>
      <trkpt lat="44.85771" lon="0.63609">
        <ele>92.1</ele>
        <time>2021-05-17T14:02:01.000Z</time>
      </trkpt>
      <trkpt lat="44.85771" lon="0.63609">
        <ele>92.1</ele>
        <time>2021-05-17T14:02:02.000Z</time>
      </trkpt>
      <trkpt lat="44.85771" lon="0.63608">
        <ele>92.1</ele>
        <time>2021-05-17T14:02:03.000Z</time>
      </trkpt>
      <trkpt lat="44.85771" lon="0.63608">
        <ele>92.1</ele>
        <time>2021-05-17T14:02:04.000Z</time>
      </trkpt>
      <trkpt lat="44.85771" lon="0.63608">
        <ele>92.1</ele>
        <time>2021-05-17T14:02:05.000Z</time>
      </trkpt>
      <trkpt lat="44.85771" lon="0.63608">
        <ele>92.1</ele>
        <time>2021-05-17T14:02:06.000Z</time>
      </trkpt>
      <trkpt lat="44.85771" lon="0.63607">
        <ele>92.1</ele>
        <time>2021-05-17T14:02:07.000Z</time>
      </trkpt>
      <trkpt lat="44.85771" lon="0.63607">
        <ele>92.1</ele>
        <time>2021-05-17T14:02:08.000Z</time>
      </trkpt>
      <trkpt lat="44.85771" lon="0.63607">
        <ele>92.1</ele>
        <time>2021-05-17T14:02:09.000Z</time>
      </trkpt>
      <trkpt lat="44.85771" lon="0.63607">
        <ele>92.1</ele>
        <time>2021-05-17T14:02:10.000Z</time>
      </trkpt>
      <trkpt lat="44.85771" lon="0.63606">
        <ele>92.1</ele>
        <time>2021-05-17T14:02:11.000Z</time>
      </trkpt>
      <trkpt lat="44.85771" lon="0.63606">
        <ele>92.1</ele>
        <time>2021-05-17T14:02:12.000Z</time>
      </trkpt>
      <trkpt lat="44.85771" lon="0.63606">
        <ele>92.1</ele>
        <time>2021-05-17T14:02:13.000Z</time>
      </trkpt>
      <trkpt lat="44.85771" lon="0.63605">
        <ele>92.1</ele>
        <time>2021-05-17T14:02:14.000Z</time>
      </trkpt>
      <trkpt lat="44.85771" lon="0.63605">
        <ele>92.1</ele>
        <time>2021-05-17T14:02:15.000Z</time>
      </trkpt>
      <trkpt lat="44.85771" lon="0.63605">
        <ele>92.5</ele>
        <time>2021-05-17T14:02:16.000Z</time>
      </trkpt>
      <trkpt lat="44.85771" lon="0.63605">
        <ele>92.5</ele>
        <time>2021-05-17T14:02:17.000Z</time>
      </trkpt>
      <trkpt lat="44.85771" lon="0.63603">
        <ele>92.5</ele>
        <time>2021-05-17T14:02:18.000Z</time>
      </trkpt>
      <trkpt lat="44.8577" lon="0.63602">
        <ele>92.5</ele>
        <time>2021-05-17T14:02:19.000Z</time>
      </trkpt>
      <trkpt lat="44.8577" lon="0.63601">
        <ele>92.5</ele>
        <time>2021-05-17T14:02:20.000Z</time>
      </trkpt>
      <trkpt lat="44.85769" lon="0.63599">
        <ele>92.5</ele>
        <time>2021-05-17T14:02:21.000Z</time>
      </trkpt>
      <trkpt lat="44.85769" lon="0.63598">
        <ele>92.5</ele>
        <time>2021-05-17T14:02:22.000Z</time>
      </trkpt>
      <trkpt lat="44.85769" lon="0.63596">
        <ele>92.8</ele>
        <time>2021-05-17T14:02:23.000Z</time>
      </trkpt>
      <trkpt lat="44.85769" lon="0.63594">
        <ele>92.8</ele>
        <time>2021-05-17T14:02:24.000Z</time>
      </trkpt>
      <trkpt lat="44.85769" lon="0.63594">
        <ele>92.8</ele>
        <time>2021-05-17T14:02:25.000Z</time>
      </trkpt>
      <trkpt lat="44.85769" lon="0.63592">
        <ele>93.1</ele>
        <time>2021-05-17T14:02:26.000Z</time>
      </trkpt>
      <trkpt lat="44.8577" lon="0.63591">
        <ele>93.4</ele>
        <time>2021-05-17T14:02:27.000Z</time>
      </trkpt>
      <trkpt lat="44.85772" lon="0.63589">
        <ele>93.4</ele>
        <time>2021-05-17T14:02:28.000Z</time>
      </trkpt>
      <trkpt lat="44.85773" lon="0.63588">
        <ele>93.7</ele>
        <time>2021-05-17T14:02:29.000Z</time>
      </trkpt>
      <trkpt lat="44.85774" lon="0.63586">
        <ele>93.9</ele>
        <time>2021-05-17T14:02:30.000Z</time>
      </trkpt>
      <trkpt lat="44.85775" lon="0.63585">
        <ele>93.9</ele>
        <time>2021-05-17T14:02:31.000Z</time>
      </trkpt>
      <trkpt lat="44.85777" lon="0.63584">
        <ele>94.2</ele>
        <time>2021-05-17T14:02:32.000Z</time>
      </trkpt>
      <trkpt lat="44.8578" lon="0.63581">
        <ele>94.8</ele>
        <time>2021-05-17T14:02:33.000Z</time>
      </trkpt>
      <trkpt lat="44.85781" lon="0.6358">
        <ele>94.8</ele>
        <time>2021-05-17T14:02:34.000Z</time>
      </trkpt>
      <trkpt lat="44.85783" lon="0.63579">
        <ele>95.1</ele>
        <time>2021-05-17T14:02:35.000Z</time>
      </trkpt>
      <trkpt lat="44.85784" lon="0.63578">
        <ele>95.3</ele>
        <time>2021-05-17T14:02:36.000Z</time>
      </trkpt>
      <trkpt lat="44.85786" lon="0.63578">
        <ele>95.6</ele>
        <time>2021-05-17T14:02:37.000Z</time>
      </trkpt>
      <trkpt lat="44.85788" lon="0.63578">
        <ele>95.8</ele>
        <time>2021-05-17T14:02:38.000Z</time>
      </trkpt>
      <trkpt lat="44.85789" lon="0.63577">
        <ele>95.8</ele>
        <time>2021-05-17T14:02:39.000Z</time>
      </trkpt>
      <trkpt lat="44.8579" lon="0.63576">
        <ele>95.8</ele>
        <time>2021-05-17T14:02:40.000Z</time>
      </trkpt>
      <trkpt lat="44.85791" lon="0.63576">
        <ele>96</ele>
        <time>2021-05-17T14:02:41.000Z</time>
      </trkpt>
      <trkpt lat="44.85792" lon="0.63575">
        <ele>96</ele>
        <time>2021-05-17T14:02:42.000Z</time>
      </trkpt>
      <trkpt lat="44.85793" lon="0.63573">
        <ele>96.3</ele>
        <time>2021-05-17T14:02:43.000Z</time>
      </trkpt>
      <trkpt lat="44.85793" lon="0.63571">
        <ele>96.3</ele>
        <time>2021-05-17T14:02:44.000Z</time>
      </trkpt>
      <trkpt lat="44.85794" lon="0.63569">
        <ele>96.8</ele>
        <time>2021-05-17T14:02:45.000Z</time>
      </trkpt>
      <trkpt lat="44.85794" lon="0.63567">
        <ele>96.8</ele>
        <time>2021-05-17T14:02:46.000Z</time>
      </trkpt>
      <trkpt lat="44.85795" lon="0.63565">
        <ele>97.1</ele>
        <time>2021-05-17T14:02:47.000Z</time>
      </trkpt>
      <trkpt lat="44.85795" lon="0.63563">
        <ele>97.1</ele>
        <time>2021-05-17T14:02:48.000Z</time>
      </trkpt>
      <trkpt lat="44.85796" lon="0.6356">
        <ele>97.4</ele>
        <time>2021-05-17T14:02:49.000Z</time>
      </trkpt>
      <trkpt lat="44.85796" lon="0.63558">
        <ele>97.7</ele>
        <time>2021-05-17T14:02:50.000Z</time>
      </trkpt>
      <trkpt lat="44.85796" lon="0.63555">
        <ele>97.7</ele>
        <time>2021-05-17T14:02:51.000Z</time>
      </trkpt>
      <trkpt lat="44.85797" lon="0.63552">
        <ele>98.4</ele>
        <time>2021-05-17T14:02:52.000Z</time>
      </trkpt>
      <trkpt lat="44.85798" lon="0.6355">
        <ele>98.4</ele>
        <time>2021-05-17T14:02:53.000Z</time>
      </trkpt>
      <trkpt lat="44.85799" lon="0.63548">
        <ele>98.8</ele>
        <time>2021-05-17T14:02:54.000Z</time>
      </trkpt>
      <trkpt lat="44.85798" lon="0.63545">
        <ele>98.8</ele>
        <time>2021-05-17T14:02:55.000Z</time>
      </trkpt>
      <trkpt lat="44.85798" lon="0.63539">
        <ele>99.6</ele>
        <time>2021-05-17T14:02:56.000Z</time>
      </trkpt>
      <trkpt lat="44.85798" lon="0.63537">
        <ele>99.6</ele>
        <time>2021-05-17T14:02:57.000Z</time>
      </trkpt>
      <trkpt lat="44.858" lon="0.63533">
        <ele>100.3</ele>
        <time>2021-05-17T14:02:58.000Z</time>
      </trkpt>
      <trkpt lat="44.85801" lon="0.63531">
        <ele>100.6</ele>
        <time>2021-05-17T14:02:59.000Z</time>
      </trkpt>
      <trkpt lat="44.85801" lon="0.63526">
        <ele>100.9</ele>
        <time>2021-05-17T14:03:00.000Z</time>
      </trkpt>
      <trkpt lat="44.85801" lon="0.63524">
        <ele>100.9</ele>
        <time>2021-05-17T14:03:01.000Z</time>
      </trkpt>
      <trkpt lat="44.85802" lon="0.63517">
        <ele>101.4</ele>
        <time>2021-05-17T14:03:02.000Z</time>
      </trkpt>
      <trkpt lat="44.85803" lon="0.63513">
        <ele>101.9</ele>
        <time>2021-05-17T14:03:03.000Z</time>
      </trkpt>
      <trkpt lat="44.85804" lon="0.63512">
        <ele>101.9</ele>
        <time>2021-05-17T14:03:04.000Z</time>
      </trkpt>
      <trkpt lat="44.85804" lon="0.63507">
        <ele>101.9</ele>
        <time>2021-05-17T14:03:05.000Z</time>
      </trkpt>
      <trkpt lat="44.85805" lon="0.63505">
        <ele>102</ele>
        <time>2021-05-17T14:03:06.000Z</time>
      </trkpt>
      <trkpt lat="44.85805" lon="0.635">
        <ele>101.9</ele>
        <time>2021-05-17T14:03:07.000Z</time>
      </trkpt>
      <trkpt lat="44.85805" lon="0.63498">
        <ele>101.9</ele>
        <time>2021-05-17T14:03:08.000Z</time>
      </trkpt>
      <trkpt lat="44.85805" lon="0.63493">
        <ele>101.8</ele>
        <time>2021-05-17T14:03:09.000Z</time>
      </trkpt>
      <trkpt lat="44.85806" lon="0.63489">
        <ele>101.6</ele>
        <time>2021-05-17T14:03:10.000Z</time>
      </trkpt>
      <trkpt lat="44.85807" lon="0.63486">
        <ele>102.2</ele>
        <time>2021-05-17T14:03:11.000Z</time>
      </trkpt>
      <trkpt lat="44.8581" lon="0.63482">
        <ele>102.6</ele>
        <time>2021-05-17T14:03:12.000Z</time>
      </trkpt>
      <trkpt lat="44.85812" lon="0.6348">
        <ele>102.4</ele>
        <time>2021-05-17T14:03:13.000Z</time>
      </trkpt>
      <trkpt lat="44.85815" lon="0.63476">
        <ele>103.3</ele>
        <time>2021-05-17T14:03:14.000Z</time>
      </trkpt>
      <trkpt lat="44.85817" lon="0.63472">
        <ele>103.3</ele>
        <time>2021-05-17T14:03:15.000Z</time>
      </trkpt>
      <trkpt lat="44.8582" lon="0.63468">
        <ele>103.6</ele>
        <time>2021-05-17T14:03:16.000Z</time>
      </trkpt>
      <trkpt lat="44.85821" lon="0.63465">
        <ele>103.4</ele>
        <time>2021-05-17T14:03:17.000Z</time>
      </trkpt>
      <trkpt lat="44.85824" lon="0.63462">
        <ele>103.7</ele>
        <time>2021-05-17T14:03:18.000Z</time>
      </trkpt>
      <trkpt lat="44.85826" lon="0.6346">
        <ele>104.2</ele>
        <time>2021-05-17T14:03:19.000Z</time>
      </trkpt>
      <trkpt lat="44.85828" lon="0.63455">
        <ele>104.5</ele>
        <time>2021-05-17T14:03:20.000Z</time>
      </trkpt>
      <trkpt lat="44.85829" lon="0.63454">
        <ele>104.2</ele>
        <time>2021-05-17T14:03:21.000Z</time>
      </trkpt>
      <trkpt lat="44.85831" lon="0.6345">
        <ele>104.4</ele>
        <time>2021-05-17T14:03:22.000Z</time>
      </trkpt>
      <trkpt lat="44.85832" lon="0.63448">
        <ele>104.4</ele>
        <time>2021-05-17T14:03:23.000Z</time>
      </trkpt>
      <trkpt lat="44.85835" lon="0.63446">
        <ele>104.6</ele>
        <time>2021-05-17T14:03:24.000Z</time>
      </trkpt>
      <trkpt lat="44.85837" lon="0.63442">
        <ele>105.1</ele>
        <time>2021-05-17T14:03:25.000Z</time>
      </trkpt>
      <trkpt lat="44.85839" lon="0.63437">
        <ele>104.4</ele>
        <time>2021-05-17T14:03:26.000Z</time>
      </trkpt>
      <trkpt lat="44.85843" lon="0.63433">
        <ele>104.8</ele>
        <time>2021-05-17T14:03:27.000Z</time>
      </trkpt>
      <trkpt lat="44.85846" lon="0.6343">
        <ele>105.2</ele>
        <time>2021-05-17T14:03:28.000Z</time>
      </trkpt>
      <trkpt lat="44.85849" lon="0.63426">
        <ele>105.2</ele>
        <time>2021-05-17T14:03:29.000Z</time>
      </trkpt>
      <trkpt lat="44.85852" lon="0.63424">
        <ele>104.8</ele>
        <time>2021-05-17T14:03:30.000Z</time>
      </trkpt>
      <trkpt lat="44.85853" lon="0.63423">
        <ele>105.2</ele>
        <time>2021-05-17T14:03:31.000Z</time>
      </trkpt>
      <trkpt lat="44.85857" lon="0.63419">
        <ele>105.2</ele>
        <time>2021-05-17T14:03:32.000Z</time>
      </trkpt>
      <trkpt lat="44.85858" lon="0.63417">
        <ele>105.7</ele>
        <time>2021-05-17T14:03:33.000Z</time>
      </trkpt>
      <trkpt lat="44.85861" lon="0.63413">
        <ele>105.8</ele>
        <time>2021-05-17T14:03:34.000Z</time>
      </trkpt>
      <trkpt lat="44.85862" lon="0.63412">
        <ele>105.4</ele>
        <time>2021-05-17T14:03:35.000Z</time>
      </trkpt>
      <trkpt lat="44.85864" lon="0.63409">
        <ele>105.9</ele>
        <time>2021-05-17T14:03:36.000Z</time>
      </trkpt>
      <trkpt lat="44.85867" lon="0.63407">
        <ele>105.5</ele>
        <time>2021-05-17T14:03:37.000Z</time>
      </trkpt>
      <trkpt lat="44.85869" lon="0.63405">
        <ele>105.9</ele>
        <time>2021-05-17T14:03:38.000Z</time>
      </trkpt>
      <trkpt lat="44.85871" lon="0.63401">
        <ele>106.1</ele>
        <time>2021-05-17T14:03:39.000Z</time>
      </trkpt>
      <trkpt lat="44.85874" lon="0.63399">
        <ele>106.1</ele>
        <time>2021-05-17T14:03:40.000Z</time>
      </trkpt>
      <trkpt lat="44.85876" lon="0.63397">
        <ele>106.5</ele>
        <time>2021-05-17T14:03:41.000Z</time>
      </trkpt>
      <trkpt lat="44.85879" lon="0.63394">
        <ele>106</ele>
        <time>2021-05-17T14:03:42.000Z</time>
      </trkpt>
      <trkpt lat="44.85882" lon="0.63391">
        <ele>106.4</ele>
        <time>2021-05-17T14:03:43.000Z</time>
      </trkpt>
      <trkpt lat="44.85883" lon="0.63389">
        <ele>106.5</ele>
        <time>2021-05-17T14:03:44.000Z</time>
      </trkpt>
      <trkpt lat="44.85886" lon="0.63386">
        <ele>106.9</ele>
        <time>2021-05-17T14:03:45.000Z</time>
      </trkpt>
      <trkpt lat="44.85888" lon="0.63383">
        <ele>106.5</ele>
        <time>2021-05-17T14:03:46.000Z</time>
      </trkpt>
      <trkpt lat="44.8589" lon="0.6338">
        <ele>106.7</ele>
        <time>2021-05-17T14:03:47.000Z</time>
      </trkpt>
      <trkpt lat="44.85891" lon="0.63379">
        <ele>107.1</ele>
        <time>2021-05-17T14:03:48.000Z</time>
      </trkpt>
      <trkpt lat="44.85892" lon="0.63378">
        <ele>107</ele>
        <time>2021-05-17T14:03:49.000Z</time>
      </trkpt>
      <trkpt lat="44.85893" lon="0.63377">
        <ele>106.7</ele>
        <time>2021-05-17T14:03:50.000Z</time>
      </trkpt>
      <trkpt lat="44.85893" lon="0.63375">
        <ele>106.7</ele>
        <time>2021-05-17T14:03:51.000Z</time>
      </trkpt>
      <trkpt lat="44.85894" lon="0.63375">
        <ele>106.6</ele>
        <time>2021-05-17T14:03:52.000Z</time>
      </trkpt>
      <trkpt lat="44.85895" lon="0.63374">
        <ele>107</ele>
        <time>2021-05-17T14:03:53.000Z</time>
      </trkpt>
      <trkpt lat="44.85896" lon="0.63373">
        <ele>106.9</ele>
        <time>2021-05-17T14:03:54.000Z</time>
      </trkpt>
      <trkpt lat="44.85897" lon="0.63373">
        <ele>106.6</ele>
        <time>2021-05-17T14:03:55.000Z</time>
      </trkpt>
      <trkpt lat="44.85898" lon="0.63372">
        <ele>106.9</ele>
        <time>2021-05-17T14:03:56.000Z</time>
      </trkpt>
      <trkpt lat="44.85899" lon="0.63371">
        <ele>106.8</ele>
        <time>2021-05-17T14:03:57.000Z</time>
      </trkpt>
      <trkpt lat="44.85901" lon="0.63368">
        <ele>106.9</ele>
        <time>2021-05-17T14:03:58.000Z</time>
      </trkpt>
      <trkpt lat="44.85903" lon="0.63367">
        <ele>106.9</ele>
        <time>2021-05-17T14:03:59.000Z</time>
      </trkpt>
      <trkpt lat="44.85904" lon="0.63366">
        <ele>107.1</ele>
        <time>2021-05-17T14:04:00.000Z</time>
      </trkpt>
      <trkpt lat="44.85906" lon="0.63363">
        <ele>106.8</ele>
        <time>2021-05-17T14:04:01.000Z</time>
      </trkpt>
      <trkpt lat="44.85906" lon="0.63362">
        <ele>106.7</ele>
        <time>2021-05-17T14:04:02.000Z</time>
      </trkpt>
      <trkpt lat="44.85908" lon="0.63361">
        <ele>107</ele>
        <time>2021-05-17T14:04:03.000Z</time>
      </trkpt>
      <trkpt lat="44.85908" lon="0.63359">
        <ele>106.7</ele>
        <time>2021-05-17T14:04:04.000Z</time>
      </trkpt>
      <trkpt lat="44.85909" lon="0.63359">
        <ele>106.6</ele>
        <time>2021-05-17T14:04:05.000Z</time>
      </trkpt>
      <trkpt lat="44.8591" lon="0.63357">
        <ele>106.9</ele>
        <time>2021-05-17T14:04:06.000Z</time>
      </trkpt>
      <trkpt lat="44.8591" lon="0.63356">
        <ele>106.6</ele>
        <time>2021-05-17T14:04:07.000Z</time>
      </trkpt>
      <trkpt lat="44.8591" lon="0.63354">
        <ele>106.5</ele>
        <time>2021-05-17T14:04:08.000Z</time>
      </trkpt>
      <trkpt lat="44.85911" lon="0.63353">
        <ele>106.4</ele>
        <time>2021-05-17T14:04:09.000Z</time>
      </trkpt>
      <trkpt lat="44.85911" lon="0.63352">
        <ele>106.4</ele>
        <time>2021-05-17T14:04:10.000Z</time>
      </trkpt>
      <trkpt lat="44.85912" lon="0.63351">
        <ele>106</ele>
        <time>2021-05-17T14:04:11.000Z</time>
      </trkpt>
      <trkpt lat="44.85913" lon="0.63351">
        <ele>106.4</ele>
        <time>2021-05-17T14:04:12.000Z</time>
      </trkpt>
      <trkpt lat="44.85914" lon="0.63351">
        <ele>106.3</ele>
        <time>2021-05-17T14:04:13.000Z</time>
      </trkpt>
      <trkpt lat="44.85915" lon="0.63351">
        <ele>106.3</ele>
        <time>2021-05-17T14:04:14.000Z</time>
      </trkpt>
      <trkpt lat="44.85916" lon="0.6335">
        <ele>106.7</ele>
        <time>2021-05-17T14:04:15.000Z</time>
      </trkpt>
      <trkpt lat="44.85916" lon="0.6335">
        <ele>106.6</ele>
        <time>2021-05-17T14:04:16.000Z</time>
      </trkpt>
      <trkpt lat="44.85917" lon="0.63349">
        <ele>106.5</ele>
        <time>2021-05-17T14:04:17.000Z</time>
      </trkpt>
      <trkpt lat="44.85917" lon="0.63348">
        <ele>106.5</ele>
        <time>2021-05-17T14:04:18.000Z</time>
      </trkpt>
      <trkpt lat="44.85918" lon="0.63348">
        <ele>106.4</ele>
        <time>2021-05-17T14:04:19.000Z</time>
      </trkpt>
      <trkpt lat="44.85918" lon="0.63347">
        <ele>106.1</ele>
        <time>2021-05-17T14:04:20.000Z</time>
      </trkpt>
      <trkpt lat="44.85919" lon="0.63347">
        <ele>106.5</ele>
        <time>2021-05-17T14:04:21.000Z</time>
      </trkpt>
      <trkpt lat="44.8592" lon="0.63348">
        <ele>106.6</ele>
        <time>2021-05-17T14:04:22.000Z</time>
      </trkpt>
      <trkpt lat="44.85921" lon="0.63348">
        <ele>106.6</ele>
        <time>2021-05-17T14:04:23.000Z</time>
      </trkpt>
      <trkpt lat="44.85922" lon="0.6335">
        <ele>106.9</ele>
        <time>2021-05-17T14:04:24.000Z</time>
      </trkpt>
      <trkpt lat="44.85923" lon="0.6335">
        <ele>106.8</ele>
        <time>2021-05-17T14:04:25.000Z</time>
      </trkpt>
      <trkpt lat="44.85923" lon="0.6335">
        <ele>106.7</ele>
        <time>2021-05-17T14:04:26.000Z</time>
      </trkpt>
      <trkpt lat="44.85924" lon="0.63351">
        <ele>106.7</ele>
        <time>2021-05-17T14:04:27.000Z</time>
      </trkpt>
      <trkpt lat="44.85924" lon="0.63351">
        <ele>106.6</ele>
        <time>2021-05-17T14:04:28.000Z</time>
      </trkpt>
      <trkpt lat="44.85925" lon="0.63351">
        <ele>106.9</ele>
        <time>2021-05-17T14:04:29.000Z</time>
      </trkpt>
      <trkpt lat="44.85925" lon="0.63351">
        <ele>106.8</ele>
        <time>2021-05-17T14:04:30.000Z</time>
      </trkpt>
      <trkpt lat="44.85925" lon="0.63352">
        <ele>106.9</ele>
        <time>2021-05-17T14:04:31.000Z</time>
      </trkpt>
      <trkpt lat="44.85926" lon="0.63352">
        <ele>106.8</ele>
        <time>2021-05-17T14:04:32.000Z</time>
      </trkpt>
      <trkpt lat="44.85926" lon="0.63352">
        <ele>106.8</ele>
        <time>2021-05-17T14:04:33.000Z</time>
      </trkpt>
      <trkpt lat="44.85926" lon="0.63353">
        <ele>106.7</ele>
        <time>2021-05-17T14:04:34.000Z</time>
      </trkpt>
      <trkpt lat="44.85927" lon="0.63353">
        <ele>106.6</ele>
        <time>2021-05-17T14:04:35.000Z</time>
      </trkpt>
      <trkpt lat="44.85927" lon="0.63353">
        <ele>106.5</ele>
        <time>2021-05-17T14:04:36.000Z</time>
      </trkpt>
      <trkpt lat="44.85927" lon="0.63353">
        <ele>106.5</ele>
        <time>2021-05-17T14:04:37.000Z</time>
      </trkpt>
      <trkpt lat="44.85927" lon="0.63354">
        <ele>106.4</ele>
        <time>2021-05-17T14:04:38.000Z</time>
      </trkpt>
      <trkpt lat="44.85929" lon="0.63355">
        <ele>106.6</ele>
        <time>2021-05-17T14:04:39.000Z</time>
      </trkpt>
      <trkpt lat="44.8593" lon="0.63355">
        <ele>106.5</ele>
        <time>2021-05-17T14:04:40.000Z</time>
      </trkpt>
      <trkpt lat="44.8593" lon="0.63355">
        <ele>106.5</ele>
        <time>2021-05-17T14:04:41.000Z</time>
      </trkpt>
      <trkpt lat="44.8593" lon="0.63355">
        <ele>106.4</ele>
        <time>2021-05-17T14:04:42.000Z</time>
      </trkpt>
      <trkpt lat="44.85931" lon="0.63355">
        <ele>106.6</ele>
        <time>2021-05-17T14:04:43.000Z</time>
      </trkpt>
      <trkpt lat="44.85931" lon="0.63355">
        <ele>106.5</ele>
        <time>2021-05-17T14:04:44.000Z</time>
      </trkpt>
      <trkpt lat="44.85932" lon="0.63355">
        <ele>106.4</ele>
        <time>2021-05-17T14:04:45.000Z</time>
      </trkpt>
      <trkpt lat="44.85933" lon="0.63355">
        <ele>106.3</ele>
        <time>2021-05-17T14:04:46.000Z</time>
      </trkpt>
      <trkpt lat="44.85933" lon="0.63355">
        <ele>106.3</ele>
        <time>2021-05-17T14:04:47.000Z</time>
      </trkpt>
      <trkpt lat="44.85933" lon="0.63355">
        <ele>106.2</ele>
        <time>2021-05-17T14:04:48.000Z</time>
      </trkpt>
      <trkpt lat="44.85934" lon="0.63354">
        <ele>106.4</ele>
        <time>2021-05-17T14:04:49.000Z</time>
      </trkpt>
      <trkpt lat="44.85934" lon="0.63354">
        <ele>106.3</ele>
        <time>2021-05-17T14:04:50.000Z</time>
      </trkpt>
      <trkpt lat="44.85934" lon="0.63355">
        <ele>106</ele>
        <time>2021-05-17T14:04:51.000Z</time>
      </trkpt>
      <trkpt lat="44.85935" lon="0.63355">
        <ele>106.2</ele>
        <time>2021-05-17T14:04:52.000Z</time>
      </trkpt>
      <trkpt lat="44.85934" lon="0.63354">
        <ele>105.8</ele>
        <time>2021-05-17T14:04:53.000Z</time>
      </trkpt>
      <trkpt lat="44.85934" lon="0.63354">
        <ele>106</ele>
        <time>2021-05-17T14:04:54.000Z</time>
      </trkpt>
      <trkpt lat="44.85934" lon="0.63353">
        <ele>106</ele>
        <time>2021-05-17T14:04:55.000Z</time>
      </trkpt>
      <trkpt lat="44.85934" lon="0.63354">
        <ele>105.9</ele>
        <time>2021-05-17T14:04:56.000Z</time>
      </trkpt>
      <trkpt lat="44.85935" lon="0.63353">
        <ele>105.8</ele>
        <time>2021-05-17T14:04:57.000Z</time>
      </trkpt>
      <trkpt lat="44.85935" lon="0.63353">
        <ele>105.7</ele>
        <time>2021-05-17T14:04:58.000Z</time>
      </trkpt>
      <trkpt lat="44.85936" lon="0.63352">
        <ele>105.6</ele>
        <time>2021-05-17T14:04:59.000Z</time>
      </trkpt>
      <trkpt lat="44.85936" lon="0.63352">
        <ele>105.6</ele>
        <time>2021-05-17T14:05:00.000Z</time>
      </trkpt>
      <trkpt lat="44.85936" lon="0.63352">
        <ele>105.4</ele>
        <time>2021-05-17T14:05:01.000Z</time>
      </trkpt>
      <trkpt lat="44.85937" lon="0.63351">
        <ele>105.3</ele>
        <time>2021-05-17T14:05:02.000Z</time>
      </trkpt>
      <trkpt lat="44.85937" lon="0.63352">
        <ele>105.6</ele>
        <time>2021-05-17T14:05:03.000Z</time>
      </trkpt>
      <trkpt lat="44.85937" lon="0.63351">
        <ele>105.6</ele>
        <time>2021-05-17T14:05:04.000Z</time>
      </trkpt>
      <trkpt lat="44.85938" lon="0.63351">
        <ele>105.5</ele>
        <time>2021-05-17T14:05:05.000Z</time>
      </trkpt>
      <trkpt lat="44.85938" lon="0.63351">
        <ele>105.4</ele>
        <time>2021-05-17T14:05:06.000Z</time>
      </trkpt>
      <trkpt lat="44.85938" lon="0.63351">
        <ele>105.3</ele>
        <time>2021-05-17T14:05:07.000Z</time>
      </trkpt>
      <trkpt lat="44.85937" lon="0.63351">
        <ele>105.3</ele>
        <time>2021-05-17T14:05:08.000Z</time>
      </trkpt>
      <trkpt lat="44.85937" lon="0.63351">
        <ele>105.2</ele>
        <time>2021-05-17T14:05:09.000Z</time>
      </trkpt>
      <trkpt lat="44.85938" lon="0.63351">
        <ele>105.1</ele>
        <time>2021-05-17T14:05:10.000Z</time>
      </trkpt>
      <trkpt lat="44.85938" lon="0.63351">
        <ele>105</ele>
        <time>2021-05-17T14:05:11.000Z</time>
      </trkpt>
      <trkpt lat="44.85938" lon="0.6335">
        <ele>105</ele>
        <time>2021-05-17T14:05:12.000Z</time>
      </trkpt>
      <trkpt lat="44.85938" lon="0.63351">
        <ele>104.9</ele>
        <time>2021-05-17T14:05:13.000Z</time>
      </trkpt>
      <trkpt lat="44.85938" lon="0.6335">
        <ele>104.8</ele>
        <time>2021-05-17T14:05:14.000Z</time>
      </trkpt>
      <trkpt lat="44.85941" lon="0.63349">
        <ele>105</ele>
        <time>2021-05-17T14:05:15.000Z</time>
      </trkpt>
      <trkpt lat="44.85943" lon="0.6335">
        <ele>105.3</ele>
        <time>2021-05-17T14:05:16.000Z</time>
      </trkpt>
      <trkpt lat="44.85944" lon="0.63351">
        <ele>105.2</ele>
        <time>2021-05-17T14:05:17.000Z</time>
      </trkpt>
      <trkpt lat="44.85945" lon="0.63351">
        <ele>105.2</ele>
        <time>2021-05-17T14:05:18.000Z</time>
      </trkpt>
      <trkpt lat="44.85948" lon="0.63353">
        <ele>105.6</ele>
        <time>2021-05-17T14:05:19.000Z</time>
      </trkpt>
      <trkpt lat="44.85949" lon="0.63353">
        <ele>105.9</ele>
        <time>2021-05-17T14:05:20.000Z</time>
      </trkpt>
      <trkpt lat="44.85952" lon="0.63354">
        <ele>105.9</ele>
        <time>2021-05-17T14:05:21.000Z</time>
      </trkpt>
      <trkpt lat="44.85953" lon="0.63355">
        <ele>106.1</ele>
        <time>2021-05-17T14:05:22.000Z</time>
      </trkpt>
      <trkpt lat="44.85955" lon="0.63355">
        <ele>106.4</ele>
        <time>2021-05-17T14:05:23.000Z</time>
      </trkpt>
      <trkpt lat="44.85958" lon="0.63357">
        <ele>106.4</ele>
        <time>2021-05-17T14:05:24.000Z</time>
      </trkpt>
      <trkpt lat="44.85959" lon="0.63357">
        <ele>106.6</ele>
        <time>2021-05-17T14:05:25.000Z</time>
      </trkpt>
      <trkpt lat="44.85961" lon="0.63356">
        <ele>106.7</ele>
        <time>2021-05-17T14:05:26.000Z</time>
      </trkpt>
      <trkpt lat="44.85962" lon="0.63355">
        <ele>106.9</ele>
        <time>2021-05-17T14:05:27.000Z</time>
      </trkpt>
      <trkpt lat="44.85965" lon="0.63356">
        <ele>107.2</ele>
        <time>2021-05-17T14:05:28.000Z</time>
      </trkpt>
      <trkpt lat="44.85967" lon="0.63356">
        <ele>107.2</ele>
        <time>2021-05-17T14:05:29.000Z</time>
      </trkpt>
      <trkpt lat="44.8597" lon="0.63356">
        <ele>107.5</ele>
        <time>2021-05-17T14:05:30.000Z</time>
      </trkpt>
      <trkpt lat="44.85971" lon="0.63356">
        <ele>107.7</ele>
        <time>2021-05-17T14:05:31.000Z</time>
      </trkpt>
      <trkpt lat="44.85974" lon="0.63357">
        <ele>108</ele>
        <time>2021-05-17T14:05:32.000Z</time>
      </trkpt>
      <trkpt lat="44.85976" lon="0.63357">
        <ele>108</ele>
        <time>2021-05-17T14:05:33.000Z</time>
      </trkpt>
      <trkpt lat="44.85979" lon="0.63358">
        <ele>108.3</ele>
        <time>2021-05-17T14:05:34.000Z</time>
      </trkpt>
      <trkpt lat="44.85981" lon="0.63358">
        <ele>108.6</ele>
        <time>2021-05-17T14:05:35.000Z</time>
      </trkpt>
      <trkpt lat="44.85984" lon="0.63359">
        <ele>108.8</ele>
        <time>2021-05-17T14:05:36.000Z</time>
      </trkpt>
      <trkpt lat="44.85985" lon="0.63358">
        <ele>108.8</ele>
        <time>2021-05-17T14:05:37.000Z</time>
      </trkpt>
      <trkpt lat="44.85986" lon="0.63359">
        <ele>109.1</ele>
        <time>2021-05-17T14:05:38.000Z</time>
      </trkpt>
      <trkpt lat="44.85988" lon="0.63359">
        <ele>109.1</ele>
        <time>2021-05-17T14:05:39.000Z</time>
      </trkpt>
      <trkpt lat="44.85991" lon="0.63359">
        <ele>109.3</ele>
        <time>2021-05-17T14:05:40.000Z</time>
      </trkpt>
      <trkpt lat="44.85992" lon="0.63358">
        <ele>109.6</ele>
        <time>2021-05-17T14:05:41.000Z</time>
      </trkpt>
      <trkpt lat="44.85995" lon="0.63357">
        <ele>109.8</ele>
        <time>2021-05-17T14:05:42.000Z</time>
      </trkpt>
      <trkpt lat="44.85997" lon="0.63356">
        <ele>109.8</ele>
        <time>2021-05-17T14:05:43.000Z</time>
      </trkpt>
      <trkpt lat="44.86" lon="0.63355">
        <ele>110.3</ele>
        <time>2021-05-17T14:05:44.000Z</time>
      </trkpt>
      <trkpt lat="44.86001" lon="0.63355">
        <ele>110.6</ele>
        <time>2021-05-17T14:05:45.000Z</time>
      </trkpt>
      <trkpt lat="44.86003" lon="0.63355">
        <ele>110.6</ele>
        <time>2021-05-17T14:05:46.000Z</time>
      </trkpt>
      <trkpt lat="44.86006" lon="0.63353">
        <ele>110.8</ele>
        <time>2021-05-17T14:05:47.000Z</time>
      </trkpt>
      <trkpt lat="44.86009" lon="0.63352">
        <ele>111</ele>
        <time>2021-05-17T14:05:48.000Z</time>
      </trkpt>
      <trkpt lat="44.8601" lon="0.63352">
        <ele>111.2</ele>
        <time>2021-05-17T14:05:49.000Z</time>
      </trkpt>
      <trkpt lat="44.86013" lon="0.63352">
        <ele>111.3</ele>
        <time>2021-05-17T14:05:50.000Z</time>
      </trkpt>
      <trkpt lat="44.86014" lon="0.63352">
        <ele>111.3</ele>
        <time>2021-05-17T14:05:51.000Z</time>
      </trkpt>
      <trkpt lat="44.86018" lon="0.63351">
        <ele>111.7</ele>
        <time>2021-05-17T14:05:52.000Z</time>
      </trkpt>
      <trkpt lat="44.86019" lon="0.63351">
        <ele>111.7</ele>
        <time>2021-05-17T14:05:53.000Z</time>
      </trkpt>
      <trkpt lat="44.86023" lon="0.63349">
        <ele>112</ele>
        <time>2021-05-17T14:05:54.000Z</time>
      </trkpt>
      <trkpt lat="44.86024" lon="0.63349">
        <ele>112</ele>
        <time>2021-05-17T14:05:55.000Z</time>
      </trkpt>
      <trkpt lat="44.86027" lon="0.63349">
        <ele>112.1</ele>
        <time>2021-05-17T14:05:56.000Z</time>
      </trkpt>
      <trkpt lat="44.8603" lon="0.63348">
        <ele>112.2</ele>
        <time>2021-05-17T14:05:57.000Z</time>
      </trkpt>
      <trkpt lat="44.86034" lon="0.63348">
        <ele>112.3</ele>
        <time>2021-05-17T14:05:58.000Z</time>
      </trkpt>
      <trkpt lat="44.86038" lon="0.63349">
        <ele>112.4</ele>
        <time>2021-05-17T14:05:59.000Z</time>
      </trkpt>
      <trkpt lat="44.86041" lon="0.63349">
        <ele>112.5</ele>
        <time>2021-05-17T14:06:00.000Z</time>
      </trkpt>
      <trkpt lat="44.86042" lon="0.6335">
        <ele>112.5</ele>
        <time>2021-05-17T14:06:01.000Z</time>
      </trkpt>
      <trkpt lat="44.86046" lon="0.63349">
        <ele>112.5</ele>
        <time>2021-05-17T14:06:02.000Z</time>
      </trkpt>
      <trkpt lat="44.8605" lon="0.63351">
        <ele>112.7</ele>
        <time>2021-05-17T14:06:03.000Z</time>
      </trkpt>
      <trkpt lat="44.86051" lon="0.63351">
        <ele>112.7</ele>
        <time>2021-05-17T14:06:04.000Z</time>
      </trkpt>
      <trkpt lat="44.86054" lon="0.63351">
        <ele>112.9</ele>
        <time>2021-05-17T14:06:05.000Z</time>
      </trkpt>
      <trkpt lat="44.86058" lon="0.63352">
        <ele>112.8</ele>
        <time>2021-05-17T14:06:06.000Z</time>
      </trkpt>
      <trkpt lat="44.86062" lon="0.63353">
        <ele>113</ele>
        <time>2021-05-17T14:06:07.000Z</time>
      </trkpt>
      <trkpt lat="44.86065" lon="0.63354">
        <ele>113.1</ele>
        <time>2021-05-17T14:06:08.000Z</time>
      </trkpt>
      <trkpt lat="44.86068" lon="0.63354">
        <ele>113.2</ele>
        <time>2021-05-17T14:06:09.000Z</time>
      </trkpt>
      <trkpt lat="44.8607" lon="0.63353">
        <ele>113.2</ele>
        <time>2021-05-17T14:06:10.000Z</time>
      </trkpt>
      <trkpt lat="44.86074" lon="0.63353">
        <ele>113.4</ele>
        <time>2021-05-17T14:06:11.000Z</time>
      </trkpt>
      <trkpt lat="44.86076" lon="0.63353">
        <ele>113.4</ele>
        <time>2021-05-17T14:06:12.000Z</time>
      </trkpt>
      <trkpt lat="44.86079" lon="0.63353">
        <ele>113.4</ele>
        <time>2021-05-17T14:06:13.000Z</time>
      </trkpt>
      <trkpt lat="44.86082" lon="0.63354">
        <ele>113.5</ele>
        <time>2021-05-17T14:06:14.000Z</time>
      </trkpt>
      <trkpt lat="44.86086" lon="0.63355">
        <ele>113.6</ele>
        <time>2021-05-17T14:06:15.000Z</time>
      </trkpt>
      <trkpt lat="44.86089" lon="0.63354">
        <ele>113.7</ele>
        <time>2021-05-17T14:06:16.000Z</time>
      </trkpt>
      <trkpt lat="44.86092" lon="0.63354">
        <ele>113.8</ele>
        <time>2021-05-17T14:06:17.000Z</time>
      </trkpt>
      <trkpt lat="44.86095" lon="0.63353">
        <ele>113.9</ele>
        <time>2021-05-17T14:06:18.000Z</time>
      </trkpt>
      <trkpt lat="44.86099" lon="0.63352">
        <ele>114.2</ele>
        <time>2021-05-17T14:06:19.000Z</time>
      </trkpt>
      <trkpt lat="44.861" lon="0.63351">
        <ele>114.2</ele>
        <time>2021-05-17T14:06:20.000Z</time>
      </trkpt>
      <trkpt lat="44.86103" lon="0.63349">
        <ele>114.3</ele>
        <time>2021-05-17T14:06:21.000Z</time>
      </trkpt>
      <trkpt lat="44.86104" lon="0.63348">
        <ele>114.4</ele>
        <time>2021-05-17T14:06:22.000Z</time>
      </trkpt>
      <trkpt lat="44.86108" lon="0.63346">
        <ele>114.7</ele>
        <time>2021-05-17T14:06:23.000Z</time>
      </trkpt>
      <trkpt lat="44.8611" lon="0.63346">
        <ele>114.7</ele>
        <time>2021-05-17T14:06:24.000Z</time>
      </trkpt>
      <trkpt lat="44.86113" lon="0.63345">
        <ele>114.8</ele>
        <time>2021-05-17T14:06:25.000Z</time>
      </trkpt>
      <trkpt lat="44.86116" lon="0.63343">
        <ele>115.3</ele>
        <time>2021-05-17T14:06:26.000Z</time>
      </trkpt>
      <trkpt lat="44.86118" lon="0.63343">
        <ele>115.3</ele>
        <time>2021-05-17T14:06:27.000Z</time>
      </trkpt>
      <trkpt lat="44.8612" lon="0.63341">
        <ele>115.4</ele>
        <time>2021-05-17T14:06:28.000Z</time>
      </trkpt>
      <trkpt lat="44.86123" lon="0.63339">
        <ele>115.6</ele>
        <time>2021-05-17T14:06:29.000Z</time>
      </trkpt>
      <trkpt lat="44.86126" lon="0.63339">
        <ele>115.7</ele>
        <time>2021-05-17T14:06:30.000Z</time>
      </trkpt>
      <trkpt lat="44.86128" lon="0.6334">
        <ele>115.7</ele>
        <time>2021-05-17T14:06:31.000Z</time>
      </trkpt>
      <trkpt lat="44.86129" lon="0.6334">
        <ele>115.9</ele>
        <time>2021-05-17T14:06:32.000Z</time>
      </trkpt>
      <trkpt lat="44.86131" lon="0.63342">
        <ele>115.9</ele>
        <time>2021-05-17T14:06:33.000Z</time>
      </trkpt>
      <trkpt lat="44.86134" lon="0.63343">
        <ele>116</ele>
        <time>2021-05-17T14:06:34.000Z</time>
      </trkpt>
      <trkpt lat="44.86136" lon="0.63343">
        <ele>116</ele>
        <time>2021-05-17T14:06:35.000Z</time>
      </trkpt>
      <trkpt lat="44.86136" lon="0.63345">
        <ele>116</ele>
        <time>2021-05-17T14:06:36.000Z</time>
      </trkpt>
      <trkpt lat="44.86138" lon="0.63346">
        <ele>116.2</ele>
        <time>2021-05-17T14:06:37.000Z</time>
      </trkpt>
      <trkpt lat="44.86139" lon="0.6335">
        <ele>116.1</ele>
        <time>2021-05-17T14:06:38.000Z</time>
      </trkpt>
      <trkpt lat="44.86141" lon="0.63355">
        <ele>116.1</ele>
        <time>2021-05-17T14:06:39.000Z</time>
      </trkpt>
      <trkpt lat="44.86142" lon="0.63359">
        <ele>115.9</ele>
        <time>2021-05-17T14:06:40.000Z</time>
      </trkpt>
      <trkpt lat="44.86143" lon="0.63365">
        <ele>115.4</ele>
        <time>2021-05-17T14:06:41.000Z</time>
      </trkpt>
      <trkpt lat="44.86144" lon="0.63369">
        <ele>115.1</ele>
        <time>2021-05-17T14:06:42.000Z</time>
      </trkpt>
      <trkpt lat="44.86145" lon="0.63376">
        <ele>115</ele>
        <time>2021-05-17T14:06:43.000Z</time>
      </trkpt>
      <trkpt lat="44.86145" lon="0.63383">
        <ele>114.5</ele>
        <time>2021-05-17T14:06:44.000Z</time>
      </trkpt>
      <trkpt lat="44.86146" lon="0.6339">
        <ele>114.2</ele>
        <time>2021-05-17T14:06:45.000Z</time>
      </trkpt>
      <trkpt lat="44.86145" lon="0.63397">
        <ele>113.5</ele>
        <time>2021-05-17T14:06:46.000Z</time>
      </trkpt>
      <trkpt lat="44.86144" lon="0.63404">
        <ele>112.9</ele>
        <time>2021-05-17T14:06:47.000Z</time>
      </trkpt>
      <trkpt lat="44.86146" lon="0.63412">
        <ele>112.2</ele>
        <time>2021-05-17T14:06:48.000Z</time>
      </trkpt>
      <trkpt lat="44.86148" lon="0.6342">
        <ele>111.9</ele>
        <time>2021-05-17T14:06:49.000Z</time>
      </trkpt>
      <trkpt lat="44.86151" lon="0.63429">
        <ele>111.3</ele>
        <time>2021-05-17T14:06:50.000Z</time>
      </trkpt>
      <trkpt lat="44.86153" lon="0.63438">
        <ele>110.4</ele>
        <time>2021-05-17T14:06:51.000Z</time>
      </trkpt>
      <trkpt lat="44.86152" lon="0.63445">
        <ele>110.1</ele>
        <time>2021-05-17T14:06:52.000Z</time>
      </trkpt>
      <trkpt lat="44.86152" lon="0.63452">
        <ele>109.4</ele>
        <time>2021-05-17T14:06:53.000Z</time>
      </trkpt>
      <trkpt lat="44.8615" lon="0.63457">
        <ele>109</ele>
        <time>2021-05-17T14:06:54.000Z</time>
      </trkpt>
      <trkpt lat="44.86148" lon="0.63466">
        <ele>108.4</ele>
        <time>2021-05-17T14:06:55.000Z</time>
      </trkpt>
      <trkpt lat="44.86148" lon="0.63476">
        <ele>107.5</ele>
        <time>2021-05-17T14:06:56.000Z</time>
      </trkpt>
      <trkpt lat="44.86149" lon="0.63487">
        <ele>106.8</ele>
        <time>2021-05-17T14:06:57.000Z</time>
      </trkpt>
      <trkpt lat="44.8615" lon="0.63495">
        <ele>106</ele>
        <time>2021-05-17T14:06:58.000Z</time>
      </trkpt>
      <trkpt lat="44.86151" lon="0.63499">
        <ele>105.6</ele>
        <time>2021-05-17T14:06:59.000Z</time>
      </trkpt>
      <trkpt lat="44.86154" lon="0.63503">
        <ele>105.2</ele>
        <time>2021-05-17T14:07:00.000Z</time>
      </trkpt>
      <trkpt lat="44.86158" lon="0.63506">
        <ele>105.2</ele>
        <time>2021-05-17T14:07:01.000Z</time>
      </trkpt>
      <trkpt lat="44.86159" lon="0.63508">
        <ele>104.9</ele>
        <time>2021-05-17T14:07:02.000Z</time>
      </trkpt>
      <trkpt lat="44.86162" lon="0.6351">
        <ele>105</ele>
        <time>2021-05-17T14:07:03.000Z</time>
      </trkpt>
      <trkpt lat="44.86165" lon="0.63511">
        <ele>104.8</ele>
        <time>2021-05-17T14:07:04.000Z</time>
      </trkpt>
      <trkpt lat="44.86169" lon="0.63512">
        <ele>104.9</ele>
        <time>2021-05-17T14:07:05.000Z</time>
      </trkpt>
      <trkpt lat="44.86171" lon="0.63513">
        <ele>104.9</ele>
        <time>2021-05-17T14:07:06.000Z</time>
      </trkpt>
      <trkpt lat="44.86174" lon="0.63512">
        <ele>105.3</ele>
        <time>2021-05-17T14:07:07.000Z</time>
      </trkpt>
      <trkpt lat="44.86177" lon="0.63512">
        <ele>105.4</ele>
        <time>2021-05-17T14:07:08.000Z</time>
      </trkpt>
      <trkpt lat="44.86181" lon="0.63514">
        <ele>105.6</ele>
        <time>2021-05-17T14:07:09.000Z</time>
      </trkpt>
      <trkpt lat="44.86182" lon="0.63515">
        <ele>105.4</ele>
        <time>2021-05-17T14:07:10.000Z</time>
      </trkpt>
      <trkpt lat="44.86185" lon="0.63515">
        <ele>105.5</ele>
        <time>2021-05-17T14:07:11.000Z</time>
      </trkpt>
      <trkpt lat="44.86187" lon="0.63515">
        <ele>105.7</ele>
        <time>2021-05-17T14:07:12.000Z</time>
      </trkpt>
      <trkpt lat="44.86189" lon="0.63516">
        <ele>105.7</ele>
        <time>2021-05-17T14:07:13.000Z</time>
      </trkpt>
      <trkpt lat="44.8619" lon="0.63517">
        <ele>105.9</ele>
        <time>2021-05-17T14:07:14.000Z</time>
      </trkpt>
      <trkpt lat="44.86191" lon="0.63517">
        <ele>105.9</ele>
        <time>2021-05-17T14:07:15.000Z</time>
      </trkpt>
      <trkpt lat="44.86195" lon="0.63517">
        <ele>106.1</ele>
        <time>2021-05-17T14:07:16.000Z</time>
      </trkpt>
      <trkpt lat="44.86196" lon="0.63517">
        <ele>106.4</ele>
        <time>2021-05-17T14:07:17.000Z</time>
      </trkpt>
      <trkpt lat="44.86198" lon="0.63519">
        <ele>106.4</ele>
        <time>2021-05-17T14:07:18.000Z</time>
      </trkpt>
      <trkpt lat="44.86199" lon="0.63519">
        <ele>106.6</ele>
        <time>2021-05-17T14:07:19.000Z</time>
      </trkpt>
      <trkpt lat="44.86203" lon="0.63518">
        <ele>106.7</ele>
        <time>2021-05-17T14:07:20.000Z</time>
      </trkpt>
      <trkpt lat="44.86204" lon="0.63518">
        <ele>106.7</ele>
        <time>2021-05-17T14:07:21.000Z</time>
      </trkpt>
      <trkpt lat="44.86204" lon="0.63517">
        <ele>106.7</ele>
        <time>2021-05-17T14:07:22.000Z</time>
      </trkpt>
      <trkpt lat="44.86206" lon="0.63516">
        <ele>106.9</ele>
        <time>2021-05-17T14:07:23.000Z</time>
      </trkpt>
      <trkpt lat="44.8621" lon="0.63515">
        <ele>107.1</ele>
        <time>2021-05-17T14:07:24.000Z</time>
      </trkpt>
      <trkpt lat="44.86211" lon="0.63515">
        <ele>107.2</ele>
        <time>2021-05-17T14:07:25.000Z</time>
      </trkpt>
      <trkpt lat="44.86214" lon="0.63515">
        <ele>107.4</ele>
        <time>2021-05-17T14:07:26.000Z</time>
      </trkpt>
      <trkpt lat="44.86217" lon="0.63515">
        <ele>107.3</ele>
        <time>2021-05-17T14:07:27.000Z</time>
      </trkpt>
      <trkpt lat="44.8622" lon="0.63515">
        <ele>107.7</ele>
        <time>2021-05-17T14:07:28.000Z</time>
      </trkpt>
      <trkpt lat="44.86221" lon="0.63515">
        <ele>107.7</ele>
        <time>2021-05-17T14:07:29.000Z</time>
      </trkpt>
      <trkpt lat="44.86224" lon="0.63515">
        <ele>108.2</ele>
        <time>2021-05-17T14:07:30.000Z</time>
      </trkpt>
      <trkpt lat="44.86227" lon="0.63515">
        <ele>108.4</ele>
        <time>2021-05-17T14:07:31.000Z</time>
      </trkpt>
      <trkpt lat="44.86228" lon="0.63514">
        <ele>108.4</ele>
        <time>2021-05-17T14:07:32.000Z</time>
      </trkpt>
      <trkpt lat="44.86232" lon="0.63513">
        <ele>108.6</ele>
        <time>2021-05-17T14:07:33.000Z</time>
      </trkpt>
      <trkpt lat="44.86235" lon="0.63511">
        <ele>108.8</ele>
        <time>2021-05-17T14:07:34.000Z</time>
      </trkpt>
      <trkpt lat="44.86237" lon="0.63511">
        <ele>109</ele>
        <time>2021-05-17T14:07:35.000Z</time>
      </trkpt>
      <trkpt lat="44.8624" lon="0.63511">
        <ele>109.3</ele>
        <time>2021-05-17T14:07:36.000Z</time>
      </trkpt>
      <trkpt lat="44.86244" lon="0.6351">
        <ele>110</ele>
        <time>2021-05-17T14:07:37.000Z</time>
      </trkpt>
      <trkpt lat="44.86245" lon="0.63509">
        <ele>110.3</ele>
        <time>2021-05-17T14:07:38.000Z</time>
      </trkpt>
      <trkpt lat="44.86248" lon="0.63509">
        <ele>110.7</ele>
        <time>2021-05-17T14:07:39.000Z</time>
      </trkpt>
      <trkpt lat="44.86249" lon="0.63509">
        <ele>110.7</ele>
        <time>2021-05-17T14:07:40.000Z</time>
      </trkpt>
      <trkpt lat="44.86253" lon="0.63508">
        <ele>111.4</ele>
        <time>2021-05-17T14:07:41.000Z</time>
      </trkpt>
      <trkpt lat="44.86255" lon="0.63507">
        <ele>111.4</ele>
        <time>2021-05-17T14:07:42.000Z</time>
      </trkpt>
      <trkpt lat="44.86258" lon="0.63507">
        <ele>111.8</ele>
        <time>2021-05-17T14:07:43.000Z</time>
      </trkpt>
      <trkpt lat="44.86259" lon="0.63506">
        <ele>112.2</ele>
        <time>2021-05-17T14:07:44.000Z</time>
      </trkpt>
      <trkpt lat="44.86262" lon="0.63506">
        <ele>113</ele>
        <time>2021-05-17T14:07:45.000Z</time>
      </trkpt>
      <trkpt lat="44.86264" lon="0.63506">
        <ele>113</ele>
        <time>2021-05-17T14:07:46.000Z</time>
      </trkpt>
      <trkpt lat="44.86266" lon="0.63505">
        <ele>113.3</ele>
        <time>2021-05-17T14:07:47.000Z</time>
      </trkpt>
      <trkpt lat="44.86268" lon="0.63505">
        <ele>113.3</ele>
        <time>2021-05-17T14:07:48.000Z</time>
      </trkpt>
      <trkpt lat="44.8627" lon="0.63503">
        <ele>113.6</ele>
        <time>2021-05-17T14:07:49.000Z</time>
      </trkpt>
      <trkpt lat="44.86271" lon="0.63502">
        <ele>113.9</ele>
        <time>2021-05-17T14:07:50.000Z</time>
      </trkpt>
      <trkpt lat="44.86275" lon="0.63499">
        <ele>114.4</ele>
        <time>2021-05-17T14:07:51.000Z</time>
      </trkpt>
      <trkpt lat="44.86277" lon="0.63498">
        <ele>114.4</ele>
        <time>2021-05-17T14:07:52.000Z</time>
      </trkpt>
      <trkpt lat="44.8628" lon="0.63497">
        <ele>114.9</ele>
        <time>2021-05-17T14:07:53.000Z</time>
      </trkpt>
      <trkpt lat="44.86283" lon="0.63497">
        <ele>115.1</ele>
        <time>2021-05-17T14:07:54.000Z</time>
      </trkpt>
      <trkpt lat="44.86285" lon="0.63495">
        <ele>115.3</ele>
        <time>2021-05-17T14:07:55.000Z</time>
      </trkpt>
      <trkpt lat="44.86286" lon="0.63494">
        <ele>115.3</ele>
        <time>2021-05-17T14:07:56.000Z</time>
      </trkpt>
      <trkpt lat="44.86288" lon="0.63491">
        <ele>115.6</ele>
        <time>2021-05-17T14:07:57.000Z</time>
      </trkpt>
      <trkpt lat="44.86288" lon="0.63489">
        <ele>115.6</ele>
        <time>2021-05-17T14:07:58.000Z</time>
      </trkpt>
      <trkpt lat="44.8629" lon="0.63486">
        <ele>115.9</ele>
        <time>2021-05-17T14:07:59.000Z</time>
      </trkpt>
      <trkpt lat="44.86291" lon="0.63485">
        <ele>115.9</ele>
        <time>2021-05-17T14:08:00.000Z</time>
      </trkpt>
      <trkpt lat="44.86293" lon="0.63484">
        <ele>116.1</ele>
        <time>2021-05-17T14:08:01.000Z</time>
      </trkpt>
      <trkpt lat="44.86294" lon="0.63483">
        <ele>116.1</ele>
        <time>2021-05-17T14:08:02.000Z</time>
      </trkpt>
      <trkpt lat="44.86298" lon="0.63481">
        <ele>116.2</ele>
        <time>2021-05-17T14:08:03.000Z</time>
      </trkpt>
      <trkpt lat="44.86299" lon="0.6348">
        <ele>116.2</ele>
        <time>2021-05-17T14:08:04.000Z</time>
      </trkpt>
      <trkpt lat="44.86302" lon="0.63479">
        <ele>116.4</ele>
        <time>2021-05-17T14:08:05.000Z</time>
      </trkpt>
      <trkpt lat="44.86302" lon="0.63479">
        <ele>116.6</ele>
        <time>2021-05-17T14:08:06.000Z</time>
      </trkpt>
      <trkpt lat="44.86305" lon="0.63476">
        <ele>116.8</ele>
        <time>2021-05-17T14:08:07.000Z</time>
      </trkpt>
      <trkpt lat="44.86306" lon="0.63476">
        <ele>116.9</ele>
        <time>2021-05-17T14:08:08.000Z</time>
      </trkpt>
      <trkpt lat="44.86309" lon="0.63473">
        <ele>117.1</ele>
        <time>2021-05-17T14:08:09.000Z</time>
      </trkpt>
      <trkpt lat="44.8631" lon="0.63472">
        <ele>117.2</ele>
        <time>2021-05-17T14:08:10.000Z</time>
      </trkpt>
      <trkpt lat="44.86313" lon="0.6347">
        <ele>117.4</ele>
        <time>2021-05-17T14:08:11.000Z</time>
      </trkpt>
      <trkpt lat="44.86314" lon="0.63469">
        <ele>117.4</ele>
        <time>2021-05-17T14:08:12.000Z</time>
      </trkpt>
      <trkpt lat="44.86318" lon="0.63467">
        <ele>117.8</ele>
        <time>2021-05-17T14:08:13.000Z</time>
      </trkpt>
      <trkpt lat="44.86319" lon="0.63466">
        <ele>117.8</ele>
        <time>2021-05-17T14:08:14.000Z</time>
      </trkpt>
      <trkpt lat="44.86323" lon="0.63464">
        <ele>118</ele>
        <time>2021-05-17T14:08:15.000Z</time>
      </trkpt>
      <trkpt lat="44.86324" lon="0.63463">
        <ele>118.3</ele>
        <time>2021-05-17T14:08:16.000Z</time>
      </trkpt>
      <trkpt lat="44.86327" lon="0.63461">
        <ele>118.5</ele>
        <time>2021-05-17T14:08:17.000Z</time>
      </trkpt>
      <trkpt lat="44.86328" lon="0.63461">
        <ele>118.5</ele>
        <time>2021-05-17T14:08:18.000Z</time>
      </trkpt>
      <trkpt lat="44.86331" lon="0.63459">
        <ele>118.7</ele>
        <time>2021-05-17T14:08:19.000Z</time>
      </trkpt>
      <trkpt lat="44.86332" lon="0.63459">
        <ele>119.1</ele>
        <time>2021-05-17T14:08:20.000Z</time>
      </trkpt>
      <trkpt lat="44.86336" lon="0.63458">
        <ele>119.3</ele>
        <time>2021-05-17T14:08:21.000Z</time>
      </trkpt>
      <trkpt lat="44.86337" lon="0.63458">
        <ele>119.3</ele>
        <time>2021-05-17T14:08:22.000Z</time>
      </trkpt>
      <trkpt lat="44.8634" lon="0.63456">
        <ele>119.5</ele>
        <time>2021-05-17T14:08:23.000Z</time>
      </trkpt>
      <trkpt lat="44.86341" lon="0.63456">
        <ele>119.6</ele>
        <time>2021-05-17T14:08:24.000Z</time>
      </trkpt>
      <trkpt lat="44.86345" lon="0.63456">
        <ele>119.8</ele>
        <time>2021-05-17T14:08:25.000Z</time>
      </trkpt>
      <trkpt lat="44.86346" lon="0.63455">
        <ele>119.8</ele>
        <time>2021-05-17T14:08:26.000Z</time>
      </trkpt>
      <trkpt lat="44.86349" lon="0.63455">
        <ele>120</ele>
        <time>2021-05-17T14:08:27.000Z</time>
      </trkpt>
      <trkpt lat="44.8635" lon="0.63455">
        <ele>120</ele>
        <time>2021-05-17T14:08:28.000Z</time>
      </trkpt>
      <trkpt lat="44.86353" lon="0.63452">
        <ele>120.4</ele>
        <time>2021-05-17T14:08:29.000Z</time>
      </trkpt>
      <trkpt lat="44.86353" lon="0.6345">
        <ele>120.7</ele>
        <time>2021-05-17T14:08:30.000Z</time>
      </trkpt>
      <trkpt lat="44.86352" lon="0.63447">
        <ele>120.7</ele>
        <time>2021-05-17T14:08:31.000Z</time>
      </trkpt>
      <trkpt lat="44.86351" lon="0.63446">
        <ele>120.9</ele>
        <time>2021-05-17T14:08:32.000Z</time>
      </trkpt>
      <trkpt lat="44.86351" lon="0.63444">
        <ele>120.9</ele>
        <time>2021-05-17T14:08:33.000Z</time>
      </trkpt>
      <trkpt lat="44.86352" lon="0.63441">
        <ele>121.1</ele>
        <time>2021-05-17T14:08:34.000Z</time>
      </trkpt>
      <trkpt lat="44.86353" lon="0.63439">
        <ele>121.1</ele>
        <time>2021-05-17T14:08:35.000Z</time>
      </trkpt>
      <trkpt lat="44.86354" lon="0.63437">
        <ele>121.3</ele>
        <time>2021-05-17T14:08:36.000Z</time>
      </trkpt>
      <trkpt lat="44.86354" lon="0.63436">
        <ele>121.3</ele>
        <time>2021-05-17T14:08:37.000Z</time>
      </trkpt>
      <trkpt lat="44.86354" lon="0.63437">
        <ele>121.3</ele>
        <time>2021-05-17T14:08:38.000Z</time>
      </trkpt>
      <trkpt lat="44.86354" lon="0.63437">
        <ele>121.3</ele>
        <time>2021-05-17T14:08:39.000Z</time>
      </trkpt>
      <trkpt lat="44.86355" lon="0.63435">
        <ele>121.3</ele>
        <time>2021-05-17T14:08:40.000Z</time>
      </trkpt>
      <trkpt lat="44.86355" lon="0.63433">
        <ele>121.4</ele>
        <time>2021-05-17T14:08:41.000Z</time>
      </trkpt>
      <trkpt lat="44.86355" lon="0.63431">
        <ele>121.4</ele>
        <time>2021-05-17T14:08:42.000Z</time>
      </trkpt>
      <trkpt lat="44.86356" lon="0.63429">
        <ele>121.4</ele>
        <time>2021-05-17T14:08:43.000Z</time>
      </trkpt>
      <trkpt lat="44.86354" lon="0.63425">
        <ele>121.4</ele>
        <time>2021-05-17T14:08:44.000Z</time>
      </trkpt>
      <trkpt lat="44.86354" lon="0.63424">
        <ele>121.3</ele>
        <time>2021-05-17T14:08:45.000Z</time>
      </trkpt>
      <trkpt lat="44.86354" lon="0.63422">
        <ele>121.3</ele>
        <time>2021-05-17T14:08:46.000Z</time>
      </trkpt>
      <trkpt lat="44.86353" lon="0.63421">
        <ele>121.2</ele>
        <time>2021-05-17T14:08:47.000Z</time>
      </trkpt>
      <trkpt lat="44.86353" lon="0.6342">
        <ele>121.2</ele>
        <time>2021-05-17T14:08:48.000Z</time>
      </trkpt>
      <trkpt lat="44.86352" lon="0.6342">
        <ele>121</ele>
        <time>2021-05-17T14:08:49.000Z</time>
      </trkpt>
      <trkpt lat="44.86351" lon="0.63419">
        <ele>121</ele>
        <time>2021-05-17T14:08:50.000Z</time>
      </trkpt>
      <trkpt lat="44.8635" lon="0.63418">
        <ele>121</ele>
        <time>2021-05-17T14:08:51.000Z</time>
      </trkpt>
      <trkpt lat="44.86349" lon="0.63417">
        <ele>121</ele>
        <time>2021-05-17T14:08:52.000Z</time>
      </trkpt>
      <trkpt lat="44.86348" lon="0.63416">
        <ele>121</ele>
        <time>2021-05-17T14:08:53.000Z</time>
      </trkpt>
      <trkpt lat="44.86345" lon="0.63414">
        <ele>120.8</ele>
        <time>2021-05-17T14:08:54.000Z</time>
      </trkpt>
      <trkpt lat="44.86345" lon="0.63413">
        <ele>120.8</ele>
        <time>2021-05-17T14:08:55.000Z</time>
      </trkpt>
      <trkpt lat="44.86345" lon="0.63411">
        <ele>120.6</ele>
        <time>2021-05-17T14:08:56.000Z</time>
      </trkpt>
      <trkpt lat="44.86345" lon="0.63408">
        <ele>120.6</ele>
        <time>2021-05-17T14:08:57.000Z</time>
      </trkpt>
      <trkpt lat="44.86347" lon="0.63406">
        <ele>120.4</ele>
        <time>2021-05-17T14:08:58.000Z</time>
      </trkpt>
      <trkpt lat="44.86348" lon="0.63405">
        <ele>120.4</ele>
        <time>2021-05-17T14:08:59.000Z</time>
      </trkpt>
      <trkpt lat="44.8635" lon="0.63403">
        <ele>120.4</ele>
        <time>2021-05-17T14:09:00.000Z</time>
      </trkpt>
      <trkpt lat="44.86351" lon="0.63403">
        <ele>120.1</ele>
        <time>2021-05-17T14:09:01.000Z</time>
      </trkpt>
      <trkpt lat="44.86353" lon="0.63402">
        <ele>120.1</ele>
        <time>2021-05-17T14:09:02.000Z</time>
      </trkpt>
      <trkpt lat="44.86355" lon="0.63402">
        <ele>120</ele>
        <time>2021-05-17T14:09:03.000Z</time>
      </trkpt>
      <trkpt lat="44.86357" lon="0.63401">
        <ele>120</ele>
        <time>2021-05-17T14:09:04.000Z</time>
      </trkpt>
      <trkpt lat="44.86358" lon="0.634">
        <ele>120</ele>
        <time>2021-05-17T14:09:05.000Z</time>
      </trkpt>
      <trkpt lat="44.8636" lon="0.634">
        <ele>120</ele>
        <time>2021-05-17T14:09:06.000Z</time>
      </trkpt>
      <trkpt lat="44.86362" lon="0.634">
        <ele>120</ele>
        <time>2021-05-17T14:09:07.000Z</time>
      </trkpt>
      <trkpt lat="44.86365" lon="0.634">
        <ele>119.9</ele>
        <time>2021-05-17T14:09:08.000Z</time>
      </trkpt>
      <trkpt lat="44.86366" lon="0.63401">
        <ele>119.8</ele>
        <time>2021-05-17T14:09:09.000Z</time>
      </trkpt>
      <trkpt lat="44.8637" lon="0.63402">
        <ele>119.8</ele>
        <time>2021-05-17T14:09:10.000Z</time>
      </trkpt>
      <trkpt lat="44.86371" lon="0.63403">
        <ele>119.8</ele>
        <time>2021-05-17T14:09:11.000Z</time>
      </trkpt>
      <trkpt lat="44.86372" lon="0.63406">
        <ele>120.2</ele>
        <time>2021-05-17T14:09:12.000Z</time>
      </trkpt>
      <trkpt lat="44.86372" lon="0.63408">
        <ele>120.6</ele>
        <time>2021-05-17T14:09:13.000Z</time>
      </trkpt>
      <trkpt lat="44.86374" lon="0.6341">
        <ele>120.6</ele>
        <time>2021-05-17T14:09:14.000Z</time>
      </trkpt>
      <trkpt lat="44.86377" lon="0.63412">
        <ele>120.6</ele>
        <time>2021-05-17T14:09:15.000Z</time>
      </trkpt>
      <trkpt lat="44.86379" lon="0.63412">
        <ele>120.5</ele>
        <time>2021-05-17T14:09:16.000Z</time>
      </trkpt>
      <trkpt lat="44.8638" lon="0.63411">
        <ele>120.5</ele>
        <time>2021-05-17T14:09:17.000Z</time>
      </trkpt>
      <trkpt lat="44.86383" lon="0.63413">
        <ele>120.9</ele>
        <time>2021-05-17T14:09:18.000Z</time>
      </trkpt>
      <trkpt lat="44.86384" lon="0.63414">
        <ele>120.9</ele>
        <time>2021-05-17T14:09:19.000Z</time>
      </trkpt>
      <trkpt lat="44.86385" lon="0.63414">
        <ele>120.9</ele>
        <time>2021-05-17T14:09:20.000Z</time>
      </trkpt>
      <trkpt lat="44.86387" lon="0.63416">
        <ele>121.3</ele>
        <time>2021-05-17T14:09:21.000Z</time>
      </trkpt>
      <trkpt lat="44.8639" lon="0.63416">
        <ele>121.3</ele>
        <time>2021-05-17T14:09:22.000Z</time>
      </trkpt>
      <trkpt lat="44.8639" lon="0.63418">
        <ele>121.2</ele>
        <time>2021-05-17T14:09:23.000Z</time>
      </trkpt>
      <trkpt lat="44.86391" lon="0.6342">
        <ele>121.2</ele>
        <time>2021-05-17T14:09:24.000Z</time>
      </trkpt>
      <trkpt lat="44.86395" lon="0.63421">
        <ele>121.6</ele>
        <time>2021-05-17T14:09:25.000Z</time>
      </trkpt>
      <trkpt lat="44.86397" lon="0.63421">
        <ele>121.5</ele>
        <time>2021-05-17T14:09:26.000Z</time>
      </trkpt>
      <trkpt lat="44.864" lon="0.63421">
        <ele>121.5</ele>
        <time>2021-05-17T14:09:27.000Z</time>
      </trkpt>
      <trkpt lat="44.86404" lon="0.63421">
        <ele>121.4</ele>
        <time>2021-05-17T14:09:28.000Z</time>
      </trkpt>
      <trkpt lat="44.86407" lon="0.63421">
        <ele>121.3</ele>
        <time>2021-05-17T14:09:29.000Z</time>
      </trkpt>
      <trkpt lat="44.86411" lon="0.63423">
        <ele>121.2</ele>
        <time>2021-05-17T14:09:30.000Z</time>
      </trkpt>
      <trkpt lat="44.86412" lon="0.63424">
        <ele>121.1</ele>
        <time>2021-05-17T14:09:31.000Z</time>
      </trkpt>
      <trkpt lat="44.86416" lon="0.63425">
        <ele>121.4</ele>
        <time>2021-05-17T14:09:32.000Z</time>
      </trkpt>
      <trkpt lat="44.86418" lon="0.63425">
        <ele>121.2</ele>
        <time>2021-05-17T14:09:33.000Z</time>
      </trkpt>
      <trkpt lat="44.86421" lon="0.63426">
        <ele>121.1</ele>
        <time>2021-05-17T14:09:34.000Z</time>
      </trkpt>
      <trkpt lat="44.86422" lon="0.63426">
        <ele>121.1</ele>
        <time>2021-05-17T14:09:35.000Z</time>
      </trkpt>
      <trkpt lat="44.86427" lon="0.63427">
        <ele>120.7</ele>
        <time>2021-05-17T14:09:36.000Z</time>
      </trkpt>
      <trkpt lat="44.86429" lon="0.63428">
        <ele>120.7</ele>
        <time>2021-05-17T14:09:37.000Z</time>
      </trkpt>
      <trkpt lat="44.86432" lon="0.63428">
        <ele>120.4</ele>
        <time>2021-05-17T14:09:38.000Z</time>
      </trkpt>
      <trkpt lat="44.86432" lon="0.63428">
        <ele>120.4</ele>
        <time>2021-05-17T14:09:39.000Z</time>
      </trkpt>
      <trkpt lat="44.86434" lon="0.63428">
        <ele>120.2</ele>
        <time>2021-05-17T14:09:40.000Z</time>
      </trkpt>
      <trkpt lat="44.86436" lon="0.63427">
        <ele>120.2</ele>
        <time>2021-05-17T14:09:41.000Z</time>
      </trkpt>
      <trkpt lat="44.86438" lon="0.63424">
        <ele>119.4</ele>
        <time>2021-05-17T14:09:42.000Z</time>
      </trkpt>
      <trkpt lat="44.86439" lon="0.63422">
        <ele>119.1</ele>
        <time>2021-05-17T14:09:43.000Z</time>
      </trkpt>
      <trkpt lat="44.8644" lon="0.63421">
        <ele>119.1</ele>
        <time>2021-05-17T14:09:44.000Z</time>
      </trkpt>
      <trkpt lat="44.86441" lon="0.63416">
        <ele>118.6</ele>
        <time>2021-05-17T14:09:45.000Z</time>
      </trkpt>
      <trkpt lat="44.86442" lon="0.63413">
        <ele>117.9</ele>
        <time>2021-05-17T14:09:46.000Z</time>
      </trkpt>
      <trkpt lat="44.86445" lon="0.6341">
        <ele>117.3</ele>
        <time>2021-05-17T14:09:47.000Z</time>
      </trkpt>
      <trkpt lat="44.86448" lon="0.63408">
        <ele>117.3</ele>
        <time>2021-05-17T14:09:48.000Z</time>
      </trkpt>
      <trkpt lat="44.86449" lon="0.63404">
        <ele>116.8</ele>
        <time>2021-05-17T14:09:49.000Z</time>
      </trkpt>
      <trkpt lat="44.86449" lon="0.63402">
        <ele>116.6</ele>
        <time>2021-05-17T14:09:50.000Z</time>
      </trkpt>
      <trkpt lat="44.86447" lon="0.63398">
        <ele>116.6</ele>
        <time>2021-05-17T14:09:51.000Z</time>
      </trkpt>
      <trkpt lat="44.86446" lon="0.63396">
        <ele>116.6</ele>
        <time>2021-05-17T14:09:52.000Z</time>
      </trkpt>
      <trkpt lat="44.86445" lon="0.63392">
        <ele>116.7</ele>
        <time>2021-05-17T14:09:53.000Z</time>
      </trkpt>
      <trkpt lat="44.86444" lon="0.6339">
        <ele>116.7</ele>
        <time>2021-05-17T14:09:54.000Z</time>
      </trkpt>
      <trkpt lat="44.86444" lon="0.63386">
        <ele>116.7</ele>
        <time>2021-05-17T14:09:55.000Z</time>
      </trkpt>
      <trkpt lat="44.86443" lon="0.63381">
        <ele>116.7</ele>
        <time>2021-05-17T14:09:56.000Z</time>
      </trkpt>
      <trkpt lat="44.86443" lon="0.63379">
        <ele>116.7</ele>
        <time>2021-05-17T14:09:57.000Z</time>
      </trkpt>
      <trkpt lat="44.86444" lon="0.63373">
        <ele>116.8</ele>
        <time>2021-05-17T14:09:58.000Z</time>
      </trkpt>
      <trkpt lat="44.86445" lon="0.63371">
        <ele>116.8</ele>
        <time>2021-05-17T14:09:59.000Z</time>
      </trkpt>
      <trkpt lat="44.86443" lon="0.63366">
        <ele>116.7</ele>
        <time>2021-05-17T14:10:00.000Z</time>
      </trkpt>
      <trkpt lat="44.86443" lon="0.63364">
        <ele>116.6</ele>
        <time>2021-05-17T14:10:01.000Z</time>
      </trkpt>
      <trkpt lat="44.86443" lon="0.63358">
        <ele>116.5</ele>
        <time>2021-05-17T14:10:02.000Z</time>
      </trkpt>
      <trkpt lat="44.86443" lon="0.63352">
        <ele>116.3</ele>
        <time>2021-05-17T14:10:03.000Z</time>
      </trkpt>
      <trkpt lat="44.86442" lon="0.63348">
        <ele>116.3</ele>
        <time>2021-05-17T14:10:04.000Z</time>
      </trkpt>
      <trkpt lat="44.86439" lon="0.63346">
        <ele>116.2</ele>
        <time>2021-05-17T14:10:05.000Z</time>
      </trkpt>
      <trkpt lat="44.86438" lon="0.63344">
        <ele>116.3</ele>
        <time>2021-05-17T14:10:06.000Z</time>
      </trkpt>
      <trkpt lat="44.86434" lon="0.63341">
        <ele>116.3</ele>
        <time>2021-05-17T14:10:07.000Z</time>
      </trkpt>
      <trkpt lat="44.86431" lon="0.63334">
        <ele>116</ele>
        <time>2021-05-17T14:10:08.000Z</time>
      </trkpt>
      <trkpt lat="44.86429" lon="0.6333">
        <ele>116</ele>
        <time>2021-05-17T14:10:09.000Z</time>
      </trkpt>
      <trkpt lat="44.86427" lon="0.63325">
        <ele>115.6</ele>
        <time>2021-05-17T14:10:10.000Z</time>
      </trkpt>
      <trkpt lat="44.86426" lon="0.63323">
        <ele>115.6</ele>
        <time>2021-05-17T14:10:11.000Z</time>
      </trkpt>
      <trkpt lat="44.86424" lon="0.63321">
        <ele>115.4</ele>
        <time>2021-05-17T14:10:12.000Z</time>
      </trkpt>
      <trkpt lat="44.86424" lon="0.63319">
        <ele>115.4</ele>
        <time>2021-05-17T14:10:13.000Z</time>
      </trkpt>
      <trkpt lat="44.86423" lon="0.63311">
        <ele>114.9</ele>
        <time>2021-05-17T14:10:14.000Z</time>
      </trkpt>
      <trkpt lat="44.86421" lon="0.63307">
        <ele>114.7</ele>
        <time>2021-05-17T14:10:15.000Z</time>
      </trkpt>
      <trkpt lat="44.8642" lon="0.63303">
        <ele>114.5</ele>
        <time>2021-05-17T14:10:16.000Z</time>
      </trkpt>
      <trkpt lat="44.86418" lon="0.63299">
        <ele>114.3</ele>
        <time>2021-05-17T14:10:17.000Z</time>
      </trkpt>
      <trkpt lat="44.86418" lon="0.63298">
        <ele>114.3</ele>
        <time>2021-05-17T14:10:18.000Z</time>
      </trkpt>
      <trkpt lat="44.86415" lon="0.6329">
        <ele>113.8</ele>
        <time>2021-05-17T14:10:19.000Z</time>
      </trkpt>
      <trkpt lat="44.86413" lon="0.63286">
        <ele>113.7</ele>
        <time>2021-05-17T14:10:20.000Z</time>
      </trkpt>
      <trkpt lat="44.86412" lon="0.63284">
        <ele>113.7</ele>
        <time>2021-05-17T14:10:21.000Z</time>
      </trkpt>
      <trkpt lat="44.86411" lon="0.6328">
        <ele>113.5</ele>
        <time>2021-05-17T14:10:22.000Z</time>
      </trkpt>
      <trkpt lat="44.86409" lon="0.63277">
        <ele>113.2</ele>
        <time>2021-05-17T14:10:23.000Z</time>
      </trkpt>
      <trkpt lat="44.86407" lon="0.63272">
        <ele>113</ele>
        <time>2021-05-17T14:10:24.000Z</time>
      </trkpt>
      <trkpt lat="44.86405" lon="0.63266">
        <ele>112.4</ele>
        <time>2021-05-17T14:10:25.000Z</time>
      </trkpt>
      <trkpt lat="44.86403" lon="0.63262">
        <ele>112.4</ele>
        <time>2021-05-17T14:10:26.000Z</time>
      </trkpt>
      <trkpt lat="44.86402" lon="0.63259">
        <ele>112.3</ele>
        <time>2021-05-17T14:10:27.000Z</time>
      </trkpt>
      <trkpt lat="44.86401" lon="0.63258">
        <ele>112.3</ele>
        <time>2021-05-17T14:10:28.000Z</time>
      </trkpt>
      <trkpt lat="44.86398" lon="0.63253">
        <ele>111.8</ele>
        <time>2021-05-17T14:10:29.000Z</time>
      </trkpt>
      <trkpt lat="44.86395" lon="0.63246">
        <ele>111.7</ele>
        <time>2021-05-17T14:10:30.000Z</time>
      </trkpt>
      <trkpt lat="44.86393" lon="0.63242">
        <ele>111.6</ele>
        <time>2021-05-17T14:10:31.000Z</time>
      </trkpt>
      <trkpt lat="44.86391" lon="0.63239">
        <ele>111.3</ele>
        <time>2021-05-17T14:10:32.000Z</time>
      </trkpt>
      <trkpt lat="44.86389" lon="0.63235">
        <ele>111.3</ele>
        <time>2021-05-17T14:10:33.000Z</time>
      </trkpt>
      <trkpt lat="44.86388" lon="0.63232">
        <ele>111.3</ele>
        <time>2021-05-17T14:10:34.000Z</time>
      </trkpt>
      <trkpt lat="44.86387" lon="0.6323">
        <ele>111.2</ele>
        <time>2021-05-17T14:10:35.000Z</time>
      </trkpt>
      <trkpt lat="44.86385" lon="0.63226">
        <ele>110.9</ele>
        <time>2021-05-17T14:10:36.000Z</time>
      </trkpt>
      <trkpt lat="44.86383" lon="0.63222">
        <ele>110.8</ele>
        <time>2021-05-17T14:10:37.000Z</time>
      </trkpt>
      <trkpt lat="44.8638" lon="0.63217">
        <ele>110.7</ele>
        <time>2021-05-17T14:10:38.000Z</time>
      </trkpt>
      <trkpt lat="44.86377" lon="0.63211">
        <ele>110.6</ele>
        <time>2021-05-17T14:10:39.000Z</time>
      </trkpt>
      <trkpt lat="44.86375" lon="0.63208">
        <ele>110.6</ele>
        <time>2021-05-17T14:10:40.000Z</time>
      </trkpt>
      <trkpt lat="44.86372" lon="0.63203">
        <ele>110.6</ele>
        <time>2021-05-17T14:10:41.000Z</time>
      </trkpt>
      <trkpt lat="44.86369" lon="0.632">
        <ele>110.4</ele>
        <time>2021-05-17T14:10:42.000Z</time>
      </trkpt>
      <trkpt lat="44.86367" lon="0.63197">
        <ele>110.4</ele>
        <time>2021-05-17T14:10:43.000Z</time>
      </trkpt>
      <trkpt lat="44.86365" lon="0.63191">
        <ele>110.7</ele>
        <time>2021-05-17T14:10:44.000Z</time>
      </trkpt>
      <trkpt lat="44.86363" lon="0.63189">
        <ele>110.7</ele>
        <time>2021-05-17T14:10:45.000Z</time>
      </trkpt>
      <trkpt lat="44.86361" lon="0.63185">
        <ele>110.8</ele>
        <time>2021-05-17T14:10:46.000Z</time>
      </trkpt>
      <trkpt lat="44.86357" lon="0.63179">
        <ele>110.6</ele>
        <time>2021-05-17T14:10:47.000Z</time>
      </trkpt>
      <trkpt lat="44.86353" lon="0.63172">
        <ele>110.9</ele>
        <time>2021-05-17T14:10:48.000Z</time>
      </trkpt>
      <trkpt lat="44.86349" lon="0.63167">
        <ele>110.6</ele>
        <time>2021-05-17T14:10:49.000Z</time>
      </trkpt>
      <trkpt lat="44.86346" lon="0.63161">
        <ele>110.6</ele>
        <time>2021-05-17T14:10:50.000Z</time>
      </trkpt>
      <trkpt lat="44.86344" lon="0.63158">
        <ele>110.5</ele>
        <time>2021-05-17T14:10:51.000Z</time>
      </trkpt>
      <trkpt lat="44.86342" lon="0.63154">
        <ele>110.1</ele>
        <time>2021-05-17T14:10:52.000Z</time>
      </trkpt>
      <trkpt lat="44.86337" lon="0.63145">
        <ele>109.8</ele>
        <time>2021-05-17T14:10:53.000Z</time>
      </trkpt>
      <trkpt lat="44.8632" lon="0.63114">
        <ele>108.1</ele>
        <time>2021-05-17T14:10:54.000Z</time>
      </trkpt>
      <trkpt lat="44.86319" lon="0.63111">
        <ele>107.8</ele>
        <time>2021-05-17T14:10:55.000Z</time>
      </trkpt>
      <trkpt lat="44.86316" lon="0.63106">
        <ele>107.7</ele>
        <time>2021-05-17T14:10:56.000Z</time>
      </trkpt>
      <trkpt lat="44.86314" lon="0.631">
        <ele>107.6</ele>
        <time>2021-05-17T14:10:57.000Z</time>
      </trkpt>
      <trkpt lat="44.86311" lon="0.63094">
        <ele>107.1</ele>
        <time>2021-05-17T14:10:58.000Z</time>
      </trkpt>
      <trkpt lat="44.86308" lon="0.63087">
        <ele>106.8</ele>
        <time>2021-05-17T14:10:59.000Z</time>
      </trkpt>
      <trkpt lat="44.86305" lon="0.63081">
        <ele>106.3</ele>
        <time>2021-05-17T14:11:00.000Z</time>
      </trkpt>
      <trkpt lat="44.86302" lon="0.63075">
        <ele>106.2</ele>
        <time>2021-05-17T14:11:01.000Z</time>
      </trkpt>
      <trkpt lat="44.86299" lon="0.6307">
        <ele>106.2</ele>
        <time>2021-05-17T14:11:02.000Z</time>
      </trkpt>
      <trkpt lat="44.86295" lon="0.63066">
        <ele>106.1</ele>
        <time>2021-05-17T14:11:03.000Z</time>
      </trkpt>
      <trkpt lat="44.86291" lon="0.63062">
        <ele>106</ele>
        <time>2021-05-17T14:11:04.000Z</time>
      </trkpt>
      <trkpt lat="44.86287" lon="0.63058">
        <ele>105.9</ele>
        <time>2021-05-17T14:11:05.000Z</time>
      </trkpt>
      <trkpt lat="44.86283" lon="0.63055">
        <ele>105.9</ele>
        <time>2021-05-17T14:11:06.000Z</time>
      </trkpt>
      <trkpt lat="44.86279" lon="0.63051">
        <ele>105.7</ele>
        <time>2021-05-17T14:11:07.000Z</time>
      </trkpt>
      <trkpt lat="44.86276" lon="0.63047">
        <ele>105.3</ele>
        <time>2021-05-17T14:11:08.000Z</time>
      </trkpt>
      <trkpt lat="44.86271" lon="0.63043">
        <ele>105.3</ele>
        <time>2021-05-17T14:11:09.000Z</time>
      </trkpt>
      <trkpt lat="44.86267" lon="0.6304">
        <ele>104.8</ele>
        <time>2021-05-17T14:11:10.000Z</time>
      </trkpt>
      <trkpt lat="44.86265" lon="0.63035">
        <ele>104.2</ele>
        <time>2021-05-17T14:11:11.000Z</time>
      </trkpt>
      <trkpt lat="44.86268" lon="0.63033">
        <ele>103.7</ele>
        <time>2021-05-17T14:11:12.000Z</time>
      </trkpt>
      <trkpt lat="44.86271" lon="0.6303">
        <ele>103.3</ele>
        <time>2021-05-17T14:11:13.000Z</time>
      </trkpt>
      <trkpt lat="44.86275" lon="0.63028">
        <ele>103.5</ele>
        <time>2021-05-17T14:11:14.000Z</time>
      </trkpt>
      <trkpt lat="44.86279" lon="0.63026">
        <ele>103.5</ele>
        <time>2021-05-17T14:11:15.000Z</time>
      </trkpt>
      <trkpt lat="44.86283" lon="0.63024">
        <ele>103.1</ele>
        <time>2021-05-17T14:11:16.000Z</time>
      </trkpt>
      <trkpt lat="44.86287" lon="0.63021">
        <ele>102.6</ele>
        <time>2021-05-17T14:11:17.000Z</time>
      </trkpt>
      <trkpt lat="44.86288" lon="0.63017">
        <ele>102.2</ele>
        <time>2021-05-17T14:11:18.000Z</time>
      </trkpt>
      <trkpt lat="44.86285" lon="0.63013">
        <ele>102.2</ele>
        <time>2021-05-17T14:11:19.000Z</time>
      </trkpt>
      <trkpt lat="44.86282" lon="0.63009">
        <ele>101.8</ele>
        <time>2021-05-17T14:11:20.000Z</time>
      </trkpt>
      <trkpt lat="44.86277" lon="0.63006">
        <ele>101.3</ele>
        <time>2021-05-17T14:11:21.000Z</time>
      </trkpt>
      <trkpt lat="44.86273" lon="0.63004">
        <ele>101.2</ele>
        <time>2021-05-17T14:11:22.000Z</time>
      </trkpt>
      <trkpt lat="44.86268" lon="0.63003">
        <ele>100.7</ele>
        <time>2021-05-17T14:11:23.000Z</time>
      </trkpt>
      <trkpt lat="44.86264" lon="0.63001">
        <ele>100.6</ele>
        <time>2021-05-17T14:11:24.000Z</time>
      </trkpt>
      <trkpt lat="44.86264" lon="0.62996">
        <ele>100.2</ele>
        <time>2021-05-17T14:11:25.000Z</time>
      </trkpt>
      <trkpt lat="44.86265" lon="0.62994">
        <ele>99.8</ele>
        <time>2021-05-17T14:11:26.000Z</time>
      </trkpt>
      <trkpt lat="44.86267" lon="0.62991">
        <ele>99.5</ele>
        <time>2021-05-17T14:11:27.000Z</time>
      </trkpt>
      <trkpt lat="44.86271" lon="0.62991">
        <ele>99.6</ele>
        <time>2021-05-17T14:11:28.000Z</time>
      </trkpt>
      <trkpt lat="44.86276" lon="0.62991">
        <ele>99.6</ele>
        <time>2021-05-17T14:11:29.000Z</time>
      </trkpt>
      <trkpt lat="44.86279" lon="0.62989">
        <ele>99.7</ele>
        <time>2021-05-17T14:11:30.000Z</time>
      </trkpt>
      <trkpt lat="44.86282" lon="0.62987">
        <ele>99.7</ele>
        <time>2021-05-17T14:11:31.000Z</time>
      </trkpt>
      <trkpt lat="44.86284" lon="0.62985">
        <ele>99.3</ele>
        <time>2021-05-17T14:11:32.000Z</time>
      </trkpt>
      <trkpt lat="44.86283" lon="0.62982">
        <ele>99</ele>
        <time>2021-05-17T14:11:33.000Z</time>
      </trkpt>
      <trkpt lat="44.86282" lon="0.62981">
        <ele>99</ele>
        <time>2021-05-17T14:11:34.000Z</time>
      </trkpt>
      <trkpt lat="44.86279" lon="0.6298">
        <ele>99</ele>
        <time>2021-05-17T14:11:35.000Z</time>
      </trkpt>
      <trkpt lat="44.86275" lon="0.62979">
        <ele>99</ele>
        <time>2021-05-17T14:11:36.000Z</time>
      </trkpt>
      <trkpt lat="44.86271" lon="0.62977">
        <ele>98.6</ele>
        <time>2021-05-17T14:11:37.000Z</time>
      </trkpt>
      <trkpt lat="44.86268" lon="0.62977">
        <ele>98.6</ele>
        <time>2021-05-17T14:11:38.000Z</time>
      </trkpt>
      <trkpt lat="44.86265" lon="0.62976">
        <ele>98.5</ele>
        <time>2021-05-17T14:11:39.000Z</time>
      </trkpt>
      <trkpt lat="44.86263" lon="0.62973">
        <ele>98.1</ele>
        <time>2021-05-17T14:11:40.000Z</time>
      </trkpt>
      <trkpt lat="44.86259" lon="0.62969">
        <ele>97.7</ele>
        <time>2021-05-17T14:11:41.000Z</time>
      </trkpt>
      <trkpt lat="44.86257" lon="0.62969">
        <ele>97.6</ele>
        <time>2021-05-17T14:11:42.000Z</time>
      </trkpt>
      <trkpt lat="44.86254" lon="0.62969">
        <ele>97.4</ele>
        <time>2021-05-17T14:11:43.000Z</time>
      </trkpt>
      <trkpt lat="44.86251" lon="0.62968">
        <ele>97.3</ele>
        <time>2021-05-17T14:11:44.000Z</time>
      </trkpt>
      <trkpt lat="44.86247" lon="0.62966">
        <ele>97</ele>
        <time>2021-05-17T14:11:45.000Z</time>
      </trkpt>
      <trkpt lat="44.86242" lon="0.62962">
        <ele>96.5</ele>
        <time>2021-05-17T14:11:46.000Z</time>
      </trkpt>
      <trkpt lat="44.86239" lon="0.62957">
        <ele>95.9</ele>
        <time>2021-05-17T14:11:47.000Z</time>
      </trkpt>
      <trkpt lat="44.86238" lon="0.62958">
        <ele>95.9</ele>
        <time>2021-05-17T14:11:48.000Z</time>
      </trkpt>
      <trkpt lat="44.86236" lon="0.62957">
        <ele>95.7</ele>
        <time>2021-05-17T14:11:49.000Z</time>
      </trkpt>
      <trkpt lat="44.86233" lon="0.62957">
        <ele>95.5</ele>
        <time>2021-05-17T14:11:50.000Z</time>
      </trkpt>
      <trkpt lat="44.8623" lon="0.62957">
        <ele>94.9</ele>
        <time>2021-05-17T14:11:51.000Z</time>
      </trkpt>
      <trkpt lat="44.86228" lon="0.62956">
        <ele>94.7</ele>
        <time>2021-05-17T14:11:52.000Z</time>
      </trkpt>
      <trkpt lat="44.86226" lon="0.62954">
        <ele>94.4</ele>
        <time>2021-05-17T14:11:53.000Z</time>
      </trkpt>
      <trkpt lat="44.86225" lon="0.62953">
        <ele>94.4</ele>
        <time>2021-05-17T14:11:54.000Z</time>
      </trkpt>
      <trkpt lat="44.86225" lon="0.62949">
        <ele>93.9</ele>
        <time>2021-05-17T14:11:55.000Z</time>
      </trkpt>
      <trkpt lat="44.86225" lon="0.62948">
        <ele>93.5</ele>
        <time>2021-05-17T14:11:56.000Z</time>
      </trkpt>
      <trkpt lat="44.86228" lon="0.62946">
        <ele>93.8</ele>
        <time>2021-05-17T14:11:57.000Z</time>
      </trkpt>
      <trkpt lat="44.86229" lon="0.62946">
        <ele>94.1</ele>
        <time>2021-05-17T14:11:58.000Z</time>
      </trkpt>
      <trkpt lat="44.86228" lon="0.62943">
        <ele>93.4</ele>
        <time>2021-05-17T14:11:59.000Z</time>
      </trkpt>
      <trkpt lat="44.86227" lon="0.62942">
        <ele>93.4</ele>
        <time>2021-05-17T14:12:00.000Z</time>
      </trkpt>
      <trkpt lat="44.86226" lon="0.62941">
        <ele>93.4</ele>
        <time>2021-05-17T14:12:01.000Z</time>
      </trkpt>
      <trkpt lat="44.86223" lon="0.62941">
        <ele>93.1</ele>
        <time>2021-05-17T14:12:02.000Z</time>
      </trkpt>
      <trkpt lat="44.86222" lon="0.62941">
        <ele>92.7</ele>
        <time>2021-05-17T14:12:03.000Z</time>
      </trkpt>
      <trkpt lat="44.8622" lon="0.62937">
        <ele>92.3</ele>
        <time>2021-05-17T14:12:04.000Z</time>
      </trkpt>
      <trkpt lat="44.8622" lon="0.62935">
        <ele>91.9</ele>
        <time>2021-05-17T14:12:05.000Z</time>
      </trkpt>
      <trkpt lat="44.86218" lon="0.62931">
        <ele>91.5</ele>
        <time>2021-05-17T14:12:06.000Z</time>
      </trkpt>
      <trkpt lat="44.86217" lon="0.6293">
        <ele>91.2</ele>
        <time>2021-05-17T14:12:07.000Z</time>
      </trkpt>
      <trkpt lat="44.86214" lon="0.62929">
        <ele>90.8</ele>
        <time>2021-05-17T14:12:08.000Z</time>
      </trkpt>
      <trkpt lat="44.86213" lon="0.62928">
        <ele>90.4</ele>
        <time>2021-05-17T14:12:09.000Z</time>
      </trkpt>
      <trkpt lat="44.86211" lon="0.62926">
        <ele>90</ele>
        <time>2021-05-17T14:12:10.000Z</time>
      </trkpt>
      <trkpt lat="44.86208" lon="0.62923">
        <ele>89.7</ele>
        <time>2021-05-17T14:12:11.000Z</time>
      </trkpt>
      <trkpt lat="44.86206" lon="0.62921">
        <ele>88.9</ele>
        <time>2021-05-17T14:12:12.000Z</time>
      </trkpt>
      <trkpt lat="44.86202" lon="0.62919">
        <ele>88.5</ele>
        <time>2021-05-17T14:12:13.000Z</time>
      </trkpt>
      <trkpt lat="44.86201" lon="0.62916">
        <ele>87.7</ele>
        <time>2021-05-17T14:12:14.000Z</time>
      </trkpt>
      <trkpt lat="44.862" lon="0.62916">
        <ele>87.7</ele>
        <time>2021-05-17T14:12:15.000Z</time>
      </trkpt>
      <trkpt lat="44.86198" lon="0.62913">
        <ele>86.8</ele>
        <time>2021-05-17T14:12:16.000Z</time>
      </trkpt>
      <trkpt lat="44.86198" lon="0.62911">
        <ele>86.8</ele>
        <time>2021-05-17T14:12:17.000Z</time>
      </trkpt>
      <trkpt lat="44.86197" lon="0.62906">
        <ele>86.3</ele>
        <time>2021-05-17T14:12:18.000Z</time>
      </trkpt>
      <trkpt lat="44.86197" lon="0.62902">
        <ele>85.9</ele>
        <time>2021-05-17T14:12:19.000Z</time>
      </trkpt>
      <trkpt lat="44.86196" lon="0.62897">
        <ele>85.4</ele>
        <time>2021-05-17T14:12:20.000Z</time>
      </trkpt>
      <trkpt lat="44.86194" lon="0.62894">
        <ele>84.5</ele>
        <time>2021-05-17T14:12:21.000Z</time>
      </trkpt>
      <trkpt lat="44.86193" lon="0.62893">
        <ele>84.5</ele>
        <time>2021-05-17T14:12:22.000Z</time>
      </trkpt>
      <trkpt lat="44.86192" lon="0.62891">
        <ele>83.5</ele>
        <time>2021-05-17T14:12:23.000Z</time>
      </trkpt>
      <trkpt lat="44.86191" lon="0.6289">
        <ele>83.5</ele>
        <time>2021-05-17T14:12:24.000Z</time>
      </trkpt>
      <trkpt lat="44.86192" lon="0.62888">
        <ele>83.1</ele>
        <time>2021-05-17T14:12:25.000Z</time>
      </trkpt>
      <trkpt lat="44.86192" lon="0.62887">
        <ele>83.1</ele>
        <time>2021-05-17T14:12:26.000Z</time>
      </trkpt>
      <trkpt lat="44.86193" lon="0.62887">
        <ele>83.6</ele>
        <time>2021-05-17T14:12:27.000Z</time>
      </trkpt>
      <trkpt lat="44.86194" lon="0.62887">
        <ele>83.6</ele>
        <time>2021-05-17T14:12:28.000Z</time>
      </trkpt>
      <trkpt lat="44.86196" lon="0.62885">
        <ele>84.2</ele>
        <time>2021-05-17T14:12:29.000Z</time>
      </trkpt>
      <trkpt lat="44.86197" lon="0.62881">
        <ele>83.8</ele>
        <time>2021-05-17T14:12:30.000Z</time>
      </trkpt>
      <trkpt lat="44.86197" lon="0.62879">
        <ele>83.5</ele>
        <time>2021-05-17T14:12:31.000Z</time>
      </trkpt>
      <trkpt lat="44.86198" lon="0.62874">
        <ele>83.1</ele>
        <time>2021-05-17T14:12:32.000Z</time>
      </trkpt>
      <trkpt lat="44.86198" lon="0.62873">
        <ele>83.1</ele>
        <time>2021-05-17T14:12:33.000Z</time>
      </trkpt>
      <trkpt lat="44.86198" lon="0.62871">
        <ele>82.8</ele>
        <time>2021-05-17T14:12:34.000Z</time>
      </trkpt>
      <trkpt lat="44.86198" lon="0.62869">
        <ele>82.8</ele>
        <time>2021-05-17T14:12:35.000Z</time>
      </trkpt>
      <trkpt lat="44.86199" lon="0.62865">
        <ele>83</ele>
        <time>2021-05-17T14:12:36.000Z</time>
      </trkpt>
      <trkpt lat="44.86199" lon="0.62864">
        <ele>83</ele>
        <time>2021-05-17T14:12:37.000Z</time>
      </trkpt>
      <trkpt lat="44.86202" lon="0.62861">
        <ele>83.2</ele>
        <time>2021-05-17T14:12:38.000Z</time>
      </trkpt>
      <trkpt lat="44.86203" lon="0.6286">
        <ele>83.2</ele>
        <time>2021-05-17T14:12:39.000Z</time>
      </trkpt>
      <trkpt lat="44.86204" lon="0.62859">
        <ele>83.2</ele>
        <time>2021-05-17T14:12:40.000Z</time>
      </trkpt>
      <trkpt lat="44.86206" lon="0.62859">
        <ele>83.6</ele>
        <time>2021-05-17T14:12:41.000Z</time>
      </trkpt>
      <trkpt lat="44.86208" lon="0.62857">
        <ele>83.6</ele>
        <time>2021-05-17T14:12:42.000Z</time>
      </trkpt>
      <trkpt lat="44.86209" lon="0.62856">
        <ele>83.6</ele>
        <time>2021-05-17T14:12:43.000Z</time>
      </trkpt>
      <trkpt lat="44.8621" lon="0.62856">
        <ele>83.7</ele>
        <time>2021-05-17T14:12:44.000Z</time>
      </trkpt>
      <trkpt lat="44.86213" lon="0.62855">
        <ele>83.7</ele>
        <time>2021-05-17T14:12:45.000Z</time>
      </trkpt>
      <trkpt lat="44.86214" lon="0.62854">
        <ele>83.8</ele>
        <time>2021-05-17T14:12:46.000Z</time>
      </trkpt>
      <trkpt lat="44.86215" lon="0.62854">
        <ele>83.8</ele>
        <time>2021-05-17T14:12:47.000Z</time>
      </trkpt>
      <trkpt lat="44.86216" lon="0.62853">
        <ele>83.8</ele>
        <time>2021-05-17T14:12:48.000Z</time>
      </trkpt>
      <trkpt lat="44.8622" lon="0.62853">
        <ele>83.9</ele>
        <time>2021-05-17T14:12:49.000Z</time>
      </trkpt>
      <trkpt lat="44.86221" lon="0.62852">
        <ele>83.9</ele>
        <time>2021-05-17T14:12:50.000Z</time>
      </trkpt>
      <trkpt lat="44.86224" lon="0.62851">
        <ele>83.9</ele>
        <time>2021-05-17T14:12:51.000Z</time>
      </trkpt>
      <trkpt lat="44.86228" lon="0.6285">
        <ele>84</ele>
        <time>2021-05-17T14:12:52.000Z</time>
      </trkpt>
      <trkpt lat="44.86231" lon="0.62849">
        <ele>84</ele>
        <time>2021-05-17T14:12:53.000Z</time>
      </trkpt>
      <trkpt lat="44.86233" lon="0.62849">
        <ele>84</ele>
        <time>2021-05-17T14:12:54.000Z</time>
      </trkpt>
      <trkpt lat="44.86236" lon="0.62848">
        <ele>84.1</ele>
        <time>2021-05-17T14:12:55.000Z</time>
      </trkpt>
      <trkpt lat="44.86237" lon="0.62847">
        <ele>84.1</ele>
        <time>2021-05-17T14:12:56.000Z</time>
      </trkpt>
      <trkpt lat="44.86241" lon="0.62847">
        <ele>84.1</ele>
        <time>2021-05-17T14:12:57.000Z</time>
      </trkpt>
      <trkpt lat="44.86242" lon="0.62846">
        <ele>84.2</ele>
        <time>2021-05-17T14:12:58.000Z</time>
      </trkpt>
      <trkpt lat="44.86246" lon="0.62846">
        <ele>84.2</ele>
        <time>2021-05-17T14:12:59.000Z</time>
      </trkpt>
      <trkpt lat="44.8625" lon="0.62845">
        <ele>84.3</ele>
        <time>2021-05-17T14:13:00.000Z</time>
      </trkpt>
      <trkpt lat="44.86253" lon="0.62844">
        <ele>84.3</ele>
        <time>2021-05-17T14:13:01.000Z</time>
      </trkpt>
      <trkpt lat="44.86256" lon="0.62844">
        <ele>84.4</ele>
        <time>2021-05-17T14:13:02.000Z</time>
      </trkpt>
      <trkpt lat="44.86258" lon="0.62844">
        <ele>84.5</ele>
        <time>2021-05-17T14:13:03.000Z</time>
      </trkpt>
      <trkpt lat="44.86259" lon="0.62845">
        <ele>84.5</ele>
        <time>2021-05-17T14:13:04.000Z</time>
      </trkpt>
      <trkpt lat="44.86261" lon="0.62845">
        <ele>84.5</ele>
        <time>2021-05-17T14:13:05.000Z</time>
      </trkpt>
      <trkpt lat="44.86263" lon="0.62846">
        <ele>84.6</ele>
        <time>2021-05-17T14:13:06.000Z</time>
      </trkpt>
      <trkpt lat="44.86264" lon="0.62847">
        <ele>84.6</ele>
        <time>2021-05-17T14:13:07.000Z</time>
      </trkpt>
      <trkpt lat="44.86267" lon="0.62846">
        <ele>84.7</ele>
        <time>2021-05-17T14:13:08.000Z</time>
      </trkpt>
      <trkpt lat="44.8627" lon="0.62848">
        <ele>84.7</ele>
        <time>2021-05-17T14:13:09.000Z</time>
      </trkpt>
      <trkpt lat="44.86274" lon="0.6285">
        <ele>84.9</ele>
        <time>2021-05-17T14:13:10.000Z</time>
      </trkpt>
      <trkpt lat="44.86277" lon="0.62853">
        <ele>85</ele>
        <time>2021-05-17T14:13:11.000Z</time>
      </trkpt>
      <trkpt lat="44.8628" lon="0.62856">
        <ele>85.1</ele>
        <time>2021-05-17T14:13:12.000Z</time>
      </trkpt>
      <trkpt lat="44.86281" lon="0.62858">
        <ele>85.1</ele>
        <time>2021-05-17T14:13:13.000Z</time>
      </trkpt>
      <trkpt lat="44.86283" lon="0.62859">
        <ele>85.2</ele>
        <time>2021-05-17T14:13:14.000Z</time>
      </trkpt>
      <trkpt lat="44.86288" lon="0.6286">
        <ele>85.3</ele>
        <time>2021-05-17T14:13:15.000Z</time>
      </trkpt>
      <trkpt lat="44.8629" lon="0.62861">
        <ele>85.4</ele>
        <time>2021-05-17T14:13:16.000Z</time>
      </trkpt>
      <trkpt lat="44.86293" lon="0.62864">
        <ele>85.5</ele>
        <time>2021-05-17T14:13:17.000Z</time>
      </trkpt>
      <trkpt lat="44.86296" lon="0.62864">
        <ele>85.6</ele>
        <time>2021-05-17T14:13:18.000Z</time>
      </trkpt>
      <trkpt lat="44.863" lon="0.62866">
        <ele>85.7</ele>
        <time>2021-05-17T14:13:19.000Z</time>
      </trkpt>
      <trkpt lat="44.86304" lon="0.62868">
        <ele>85.8</ele>
        <time>2021-05-17T14:13:20.000Z</time>
      </trkpt>
      <trkpt lat="44.86307" lon="0.6287">
        <ele>85.8</ele>
        <time>2021-05-17T14:13:21.000Z</time>
      </trkpt>
      <trkpt lat="44.86309" lon="0.62871">
        <ele>85.9</ele>
        <time>2021-05-17T14:13:22.000Z</time>
      </trkpt>
      <trkpt lat="44.86313" lon="0.62873">
        <ele>85.9</ele>
        <time>2021-05-17T14:13:23.000Z</time>
      </trkpt>
      <trkpt lat="44.86317" lon="0.62874">
        <ele>86</ele>
        <time>2021-05-17T14:13:24.000Z</time>
      </trkpt>
      <trkpt lat="44.8632" lon="0.62875">
        <ele>86.1</ele>
        <time>2021-05-17T14:13:25.000Z</time>
      </trkpt>
      <trkpt lat="44.86322" lon="0.62876">
        <ele>86.1</ele>
        <time>2021-05-17T14:13:26.000Z</time>
      </trkpt>
      <trkpt lat="44.86326" lon="0.62879">
        <ele>86.2</ele>
        <time>2021-05-17T14:13:27.000Z</time>
      </trkpt>
      <trkpt lat="44.86327" lon="0.6288">
        <ele>86.2</ele>
        <time>2021-05-17T14:13:28.000Z</time>
      </trkpt>
      <trkpt lat="44.86331" lon="0.62882">
        <ele>86.3</ele>
        <time>2021-05-17T14:13:29.000Z</time>
      </trkpt>
      <trkpt lat="44.86335" lon="0.62882">
        <ele>86.4</ele>
        <time>2021-05-17T14:13:30.000Z</time>
      </trkpt>
      <trkpt lat="44.86338" lon="0.62884">
        <ele>86.5</ele>
        <time>2021-05-17T14:13:31.000Z</time>
      </trkpt>
      <trkpt lat="44.86341" lon="0.62885">
        <ele>86.5</ele>
        <time>2021-05-17T14:13:32.000Z</time>
      </trkpt>
      <trkpt lat="44.86343" lon="0.62885">
        <ele>86.5</ele>
        <time>2021-05-17T14:13:33.000Z</time>
      </trkpt>
      <trkpt lat="44.86346" lon="0.62887">
        <ele>86.6</ele>
        <time>2021-05-17T14:13:34.000Z</time>
      </trkpt>
      <trkpt lat="44.8635" lon="0.62889">
        <ele>86.7</ele>
        <time>2021-05-17T14:13:35.000Z</time>
      </trkpt>
      <trkpt lat="44.86352" lon="0.6289">
        <ele>86.7</ele>
        <time>2021-05-17T14:13:36.000Z</time>
      </trkpt>
      <trkpt lat="44.86355" lon="0.62892">
        <ele>86.7</ele>
        <time>2021-05-17T14:13:37.000Z</time>
      </trkpt>
      <trkpt lat="44.86357" lon="0.62893">
        <ele>86.8</ele>
        <time>2021-05-17T14:13:38.000Z</time>
      </trkpt>
      <trkpt lat="44.8636" lon="0.62894">
        <ele>86.8</ele>
        <time>2021-05-17T14:13:39.000Z</time>
      </trkpt>
      <trkpt lat="44.86363" lon="0.62896">
        <ele>86.9</ele>
        <time>2021-05-17T14:13:40.000Z</time>
      </trkpt>
      <trkpt lat="44.86366" lon="0.62896">
        <ele>86.9</ele>
        <time>2021-05-17T14:13:41.000Z</time>
      </trkpt>
      <trkpt lat="44.86369" lon="0.62896">
        <ele>87</ele>
        <time>2021-05-17T14:13:42.000Z</time>
      </trkpt>
      <trkpt lat="44.86372" lon="0.62897">
        <ele>87.1</ele>
        <time>2021-05-17T14:13:43.000Z</time>
      </trkpt>
      <trkpt lat="44.86374" lon="0.62897">
        <ele>87.1</ele>
        <time>2021-05-17T14:13:44.000Z</time>
      </trkpt>
      <trkpt lat="44.86377" lon="0.62898">
        <ele>87.1</ele>
        <time>2021-05-17T14:13:45.000Z</time>
      </trkpt>
      <trkpt lat="44.86379" lon="0.629">
        <ele>87.2</ele>
        <time>2021-05-17T14:13:46.000Z</time>
      </trkpt>
      <trkpt lat="44.86382" lon="0.62902">
        <ele>87.3</ele>
        <time>2021-05-17T14:13:47.000Z</time>
      </trkpt>
      <trkpt lat="44.86385" lon="0.62903">
        <ele>87.3</ele>
        <time>2021-05-17T14:13:48.000Z</time>
      </trkpt>
      <trkpt lat="44.86388" lon="0.62905">
        <ele>87.4</ele>
        <time>2021-05-17T14:13:49.000Z</time>
      </trkpt>
      <trkpt lat="44.86389" lon="0.62905">
        <ele>87.4</ele>
        <time>2021-05-17T14:13:50.000Z</time>
      </trkpt>
      <trkpt lat="44.86393" lon="0.62906">
        <ele>87.5</ele>
        <time>2021-05-17T14:13:51.000Z</time>
      </trkpt>
      <trkpt lat="44.86394" lon="0.62907">
        <ele>87.5</ele>
        <time>2021-05-17T14:13:52.000Z</time>
      </trkpt>
      <trkpt lat="44.86397" lon="0.62909">
        <ele>87.6</ele>
        <time>2021-05-17T14:13:53.000Z</time>
      </trkpt>
      <trkpt lat="44.86399" lon="0.62911">
        <ele>87.6</ele>
        <time>2021-05-17T14:13:54.000Z</time>
      </trkpt>
      <trkpt lat="44.86402" lon="0.62913">
        <ele>87.7</ele>
        <time>2021-05-17T14:13:55.000Z</time>
      </trkpt>
      <trkpt lat="44.86403" lon="0.62914">
        <ele>87.7</ele>
        <time>2021-05-17T14:13:56.000Z</time>
      </trkpt>
      <trkpt lat="44.86406" lon="0.62917">
        <ele>87.8</ele>
        <time>2021-05-17T14:13:57.000Z</time>
      </trkpt>
      <trkpt lat="44.86407" lon="0.62918">
        <ele>87.8</ele>
        <time>2021-05-17T14:13:58.000Z</time>
      </trkpt>
      <trkpt lat="44.86409" lon="0.62921">
        <ele>87.9</ele>
        <time>2021-05-17T14:13:59.000Z</time>
      </trkpt>
      <trkpt lat="44.86411" lon="0.62923">
        <ele>87.9</ele>
        <time>2021-05-17T14:14:00.000Z</time>
      </trkpt>
      <trkpt lat="44.86414" lon="0.62927">
        <ele>88</ele>
        <time>2021-05-17T14:14:01.000Z</time>
      </trkpt>
      <trkpt lat="44.86417" lon="0.62931">
        <ele>88.1</ele>
        <time>2021-05-17T14:14:02.000Z</time>
      </trkpt>
      <trkpt lat="44.86418" lon="0.62933">
        <ele>88.2</ele>
        <time>2021-05-17T14:14:03.000Z</time>
      </trkpt>
      <trkpt lat="44.86421" lon="0.62936">
        <ele>88.3</ele>
        <time>2021-05-17T14:14:04.000Z</time>
      </trkpt>
      <trkpt lat="44.86422" lon="0.62936">
        <ele>88.3</ele>
        <time>2021-05-17T14:14:05.000Z</time>
      </trkpt>
      <trkpt lat="44.86424" lon="0.6294">
        <ele>88.4</ele>
        <time>2021-05-17T14:14:06.000Z</time>
      </trkpt>
      <trkpt lat="44.86425" lon="0.62941">
        <ele>88.4</ele>
        <time>2021-05-17T14:14:07.000Z</time>
      </trkpt>
      <trkpt lat="44.86427" lon="0.62945">
        <ele>88.5</ele>
        <time>2021-05-17T14:14:08.000Z</time>
      </trkpt>
      <trkpt lat="44.86427" lon="0.62945">
        <ele>88.5</ele>
        <time>2021-05-17T14:14:09.000Z</time>
      </trkpt>
      <trkpt lat="44.86429" lon="0.62949">
        <ele>88.6</ele>
        <time>2021-05-17T14:14:10.000Z</time>
      </trkpt>
      <trkpt lat="44.86431" lon="0.62953">
        <ele>88.7</ele>
        <time>2021-05-17T14:14:11.000Z</time>
      </trkpt>
      <trkpt lat="44.86432" lon="0.62955">
        <ele>88.7</ele>
        <time>2021-05-17T14:14:12.000Z</time>
      </trkpt>
      <trkpt lat="44.86434" lon="0.62958">
        <ele>88.8</ele>
        <time>2021-05-17T14:14:13.000Z</time>
      </trkpt>
      <trkpt lat="44.86434" lon="0.6296">
        <ele>88.9</ele>
        <time>2021-05-17T14:14:14.000Z</time>
      </trkpt>
      <trkpt lat="44.86437" lon="0.62964">
        <ele>89</ele>
        <time>2021-05-17T14:14:15.000Z</time>
      </trkpt>
      <trkpt lat="44.86438" lon="0.62965">
        <ele>89</ele>
        <time>2021-05-17T14:14:16.000Z</time>
      </trkpt>
      <trkpt lat="44.86441" lon="0.62969">
        <ele>89.1</ele>
        <time>2021-05-17T14:14:17.000Z</time>
      </trkpt>
      <trkpt lat="44.86442" lon="0.6297">
        <ele>89.2</ele>
        <time>2021-05-17T14:14:18.000Z</time>
      </trkpt>
      <trkpt lat="44.86443" lon="0.62972">
        <ele>89.2</ele>
        <time>2021-05-17T14:14:19.000Z</time>
      </trkpt>
      <trkpt lat="44.86444" lon="0.62973">
        <ele>89.3</ele>
        <time>2021-05-17T14:14:20.000Z</time>
      </trkpt>
      <trkpt lat="44.86444" lon="0.62974">
        <ele>89.3</ele>
        <time>2021-05-17T14:14:21.000Z</time>
      </trkpt>
      <trkpt lat="44.86445" lon="0.62975">
        <ele>89.3</ele>
        <time>2021-05-17T14:14:22.000Z</time>
      </trkpt>
      <trkpt lat="44.86446" lon="0.62977">
        <ele>89.4</ele>
        <time>2021-05-17T14:14:23.000Z</time>
      </trkpt>
      <trkpt lat="44.86446" lon="0.62978">
        <ele>89.4</ele>
        <time>2021-05-17T14:14:24.000Z</time>
      </trkpt>
      <trkpt lat="44.86447" lon="0.62979">
        <ele>89.4</ele>
        <time>2021-05-17T14:14:25.000Z</time>
      </trkpt>
      <trkpt lat="44.86448" lon="0.6298">
        <ele>89.5</ele>
        <time>2021-05-17T14:14:26.000Z</time>
      </trkpt>
      <trkpt lat="44.86449" lon="0.62982">
        <ele>89.5</ele>
        <time>2021-05-17T14:14:27.000Z</time>
      </trkpt>
      <trkpt lat="44.86449" lon="0.62984">
        <ele>89.5</ele>
        <time>2021-05-17T14:14:28.000Z</time>
      </trkpt>
      <trkpt lat="44.86449" lon="0.62985">
        <ele>89.6</ele>
        <time>2021-05-17T14:14:29.000Z</time>
      </trkpt>
      <trkpt lat="44.8645" lon="0.62986">
        <ele>89.6</ele>
        <time>2021-05-17T14:14:30.000Z</time>
      </trkpt>
      <trkpt lat="44.8645" lon="0.62986">
        <ele>89.6</ele>
        <time>2021-05-17T14:14:31.000Z</time>
      </trkpt>
      <trkpt lat="44.8645" lon="0.62986">
        <ele>89.6</ele>
        <time>2021-05-17T14:14:32.000Z</time>
      </trkpt>
      <trkpt lat="44.8645" lon="0.62987">
        <ele>89.6</ele>
        <time>2021-05-17T14:14:33.000Z</time>
      </trkpt>
      <trkpt lat="44.8645" lon="0.62988">
        <ele>89.6</ele>
        <time>2021-05-17T14:14:34.000Z</time>
      </trkpt>
      <trkpt lat="44.8645" lon="0.6299">
        <ele>89.6</ele>
        <time>2021-05-17T14:14:35.000Z</time>
      </trkpt>
      <trkpt lat="44.86451" lon="0.62991">
        <ele>89.7</ele>
        <time>2021-05-17T14:14:36.000Z</time>
      </trkpt>
      <trkpt lat="44.86451" lon="0.62992">
        <ele>89.7</ele>
        <time>2021-05-17T14:14:37.000Z</time>
      </trkpt>
      <trkpt lat="44.86451" lon="0.62992">
        <ele>89.7</ele>
        <time>2021-05-17T14:14:38.000Z</time>
      </trkpt>
      <trkpt lat="44.86451" lon="0.62992">
        <ele>89.7</ele>
        <time>2021-05-17T14:14:39.000Z</time>
      </trkpt>
      <trkpt lat="44.86452" lon="0.62991">
        <ele>89.7</ele>
        <time>2021-05-17T14:14:40.000Z</time>
      </trkpt>
      <trkpt lat="44.86452" lon="0.62991">
        <ele>89.7</ele>
        <time>2021-05-17T14:14:41.000Z</time>
      </trkpt>
      <trkpt lat="44.86452" lon="0.62991">
        <ele>89.7</ele>
        <time>2021-05-17T14:14:42.000Z</time>
      </trkpt>
      <trkpt lat="44.86453" lon="0.6299">
        <ele>89.7</ele>
        <time>2021-05-17T14:14:43.000Z</time>
      </trkpt>
      <trkpt lat="44.86453" lon="0.6299">
        <ele>89.8</ele>
        <time>2021-05-17T14:14:44.000Z</time>
      </trkpt>
      <trkpt lat="44.86454" lon="0.6299">
        <ele>89.8</ele>
        <time>2021-05-17T14:14:45.000Z</time>
      </trkpt>
      <trkpt lat="44.86454" lon="0.6299">
        <ele>89.8</ele>
        <time>2021-05-17T14:14:46.000Z</time>
      </trkpt>
      <trkpt lat="44.86454" lon="0.62991">
        <ele>89.8</ele>
        <time>2021-05-17T14:14:47.000Z</time>
      </trkpt>
      <trkpt lat="44.86455" lon="0.62991">
        <ele>89.8</ele>
        <time>2021-05-17T14:14:48.000Z</time>
      </trkpt>
      <trkpt lat="44.86455" lon="0.62992">
        <ele>89.8</ele>
        <time>2021-05-17T14:14:49.000Z</time>
      </trkpt>
      <trkpt lat="44.86455" lon="0.62992">
        <ele>89.8</ele>
        <time>2021-05-17T14:14:50.000Z</time>
      </trkpt>
      <trkpt lat="44.86455" lon="0.62992">
        <ele>89.8</ele>
        <time>2021-05-17T14:14:51.000Z</time>
      </trkpt>
      <trkpt lat="44.86456" lon="0.62993">
        <ele>89.8</ele>
        <time>2021-05-17T14:14:52.000Z</time>
      </trkpt>
      <trkpt lat="44.86456" lon="0.62993">
        <ele>89.8</ele>
        <time>2021-05-17T14:14:53.000Z</time>
      </trkpt>
      <trkpt lat="44.86456" lon="0.62993">
        <ele>89.8</ele>
        <time>2021-05-17T14:14:54.000Z</time>
      </trkpt>
      <trkpt lat="44.86456" lon="0.62994">
        <ele>89.8</ele>
        <time>2021-05-17T14:14:55.000Z</time>
      </trkpt>
      <trkpt lat="44.86456" lon="0.62993">
        <ele>89.8</ele>
        <time>2021-05-17T14:14:56.000Z</time>
      </trkpt>
      <trkpt lat="44.86456" lon="0.62993">
        <ele>89.8</ele>
        <time>2021-05-17T14:14:57.000Z</time>
      </trkpt>
      <trkpt lat="44.86456" lon="0.62993">
        <ele>89.9</ele>
        <time>2021-05-17T14:14:58.000Z</time>
      </trkpt>
      <trkpt lat="44.86456" lon="0.62992">
        <ele>89.9</ele>
        <time>2021-05-17T14:14:59.000Z</time>
      </trkpt>
      <trkpt lat="44.86456" lon="0.62993">
        <ele>89.9</ele>
        <time>2021-05-17T14:15:00.000Z</time>
      </trkpt>
      <trkpt lat="44.86457" lon="0.62994">
        <ele>89.9</ele>
        <time>2021-05-17T14:15:01.000Z</time>
      </trkpt>
      <trkpt lat="44.86458" lon="0.62996">
        <ele>89.9</ele>
        <time>2021-05-17T14:15:02.000Z</time>
      </trkpt>
      <trkpt lat="44.86458" lon="0.62996">
        <ele>89.9</ele>
        <time>2021-05-17T14:15:03.000Z</time>
      </trkpt>
      <trkpt lat="44.86458" lon="0.62996">
        <ele>89.9</ele>
        <time>2021-05-17T14:15:04.000Z</time>
      </trkpt>
      <trkpt lat="44.86458" lon="0.62996">
        <ele>89.9</ele>
        <time>2021-05-17T14:15:05.000Z</time>
      </trkpt>
      <trkpt lat="44.86458" lon="0.62997">
        <ele>89.9</ele>
        <time>2021-05-17T14:15:06.000Z</time>
      </trkpt>
      <trkpt lat="44.86459" lon="0.62996">
        <ele>89.9</ele>
        <time>2021-05-17T14:15:07.000Z</time>
      </trkpt>
      <trkpt lat="44.86459" lon="0.62996">
        <ele>89.9</ele>
        <time>2021-05-17T14:15:08.000Z</time>
      </trkpt>
      <trkpt lat="44.86459" lon="0.62995">
        <ele>89.9</ele>
        <time>2021-05-17T14:15:09.000Z</time>
      </trkpt>
      <trkpt lat="44.86459" lon="0.62995">
        <ele>90</ele>
        <time>2021-05-17T14:15:10.000Z</time>
      </trkpt>
      <trkpt lat="44.8646" lon="0.62995">
        <ele>90</ele>
        <time>2021-05-17T14:15:11.000Z</time>
      </trkpt>
      <trkpt lat="44.8646" lon="0.62995">
        <ele>90</ele>
        <time>2021-05-17T14:15:12.000Z</time>
      </trkpt>
      <trkpt lat="44.8646" lon="0.62994">
        <ele>90</ele>
        <time>2021-05-17T14:15:13.000Z</time>
      </trkpt>
      <trkpt lat="44.8646" lon="0.62994">
        <ele>90</ele>
        <time>2021-05-17T14:15:14.000Z</time>
      </trkpt>
      <trkpt lat="44.86461" lon="0.62995">
        <ele>90</ele>
        <time>2021-05-17T14:15:15.000Z</time>
      </trkpt>
      <trkpt lat="44.86461" lon="0.62997">
        <ele>90</ele>
        <time>2021-05-17T14:15:16.000Z</time>
      </trkpt>
      <trkpt lat="44.86461" lon="0.62998">
        <ele>90</ele>
        <time>2021-05-17T14:15:17.000Z</time>
      </trkpt>
      <trkpt lat="44.86462" lon="0.62998">
        <ele>90</ele>
        <time>2021-05-17T14:15:18.000Z</time>
      </trkpt>
      <trkpt lat="44.86462" lon="0.62999">
        <ele>90</ele>
        <time>2021-05-17T14:15:19.000Z</time>
      </trkpt>
      <trkpt lat="44.86462" lon="0.63">
        <ele>90</ele>
        <time>2021-05-17T14:15:20.000Z</time>
      </trkpt>
      <trkpt lat="44.86463" lon="0.63">
        <ele>90.1</ele>
        <time>2021-05-17T14:15:21.000Z</time>
      </trkpt>
      <trkpt lat="44.86462" lon="0.63001">
        <ele>90.1</ele>
        <time>2021-05-17T14:15:22.000Z</time>
      </trkpt>
      <trkpt lat="44.86462" lon="0.63001">
        <ele>90.1</ele>
        <time>2021-05-17T14:15:23.000Z</time>
      </trkpt>
      <trkpt lat="44.86462" lon="0.63001">
        <ele>90.1</ele>
        <time>2021-05-17T14:15:24.000Z</time>
      </trkpt>
      <trkpt lat="44.86462" lon="0.63001">
        <ele>90.1</ele>
        <time>2021-05-17T14:15:25.000Z</time>
      </trkpt>
      <trkpt lat="44.86462" lon="0.63002">
        <ele>90.1</ele>
        <time>2021-05-17T14:15:26.000Z</time>
      </trkpt>
      <trkpt lat="44.86462" lon="0.63003">
        <ele>90.1</ele>
        <time>2021-05-17T14:15:27.000Z</time>
      </trkpt>
      <trkpt lat="44.86461" lon="0.63004">
        <ele>90.1</ele>
        <time>2021-05-17T14:15:28.000Z</time>
      </trkpt>
      <trkpt lat="44.86462" lon="0.63005">
        <ele>90.1</ele>
        <time>2021-05-17T14:15:29.000Z</time>
      </trkpt>
      <trkpt lat="44.86461" lon="0.63005">
        <ele>90.2</ele>
        <time>2021-05-17T14:15:30.000Z</time>
      </trkpt>
      <trkpt lat="44.86461" lon="0.63006">
        <ele>90.2</ele>
        <time>2021-05-17T14:15:31.000Z</time>
      </trkpt>
      <trkpt lat="44.8646" lon="0.63006">
        <ele>90.2</ele>
        <time>2021-05-17T14:15:32.000Z</time>
      </trkpt>
      <trkpt lat="44.8646" lon="0.63006">
        <ele>90.2</ele>
        <time>2021-05-17T14:15:33.000Z</time>
      </trkpt>
      <trkpt lat="44.86459" lon="0.63006">
        <ele>90.2</ele>
        <time>2021-05-17T14:15:34.000Z</time>
      </trkpt>
      <trkpt lat="44.86458" lon="0.63007">
        <ele>90.2</ele>
        <time>2021-05-17T14:15:35.000Z</time>
      </trkpt>
      <trkpt lat="44.86456" lon="0.63007">
        <ele>90.3</ele>
        <time>2021-05-17T14:15:36.000Z</time>
      </trkpt>
      <trkpt lat="44.86456" lon="0.63006">
        <ele>90.3</ele>
        <time>2021-05-17T14:15:37.000Z</time>
      </trkpt>
      <trkpt lat="44.86456" lon="0.63005">
        <ele>90.3</ele>
        <time>2021-05-17T14:15:38.000Z</time>
      </trkpt>
      <trkpt lat="44.86455" lon="0.63005">
        <ele>90.3</ele>
        <time>2021-05-17T14:15:39.000Z</time>
      </trkpt>
      <trkpt lat="44.86455" lon="0.63006">
        <ele>90.3</ele>
        <time>2021-05-17T14:15:40.000Z</time>
      </trkpt>
      <trkpt lat="44.86455" lon="0.63006">
        <ele>90.3</ele>
        <time>2021-05-17T14:15:41.000Z</time>
      </trkpt>
      <trkpt lat="44.86454" lon="0.63005">
        <ele>90.4</ele>
        <time>2021-05-17T14:15:42.000Z</time>
      </trkpt>
      <trkpt lat="44.86453" lon="0.63005">
        <ele>90.4</ele>
        <time>2021-05-17T14:15:43.000Z</time>
      </trkpt>
      <trkpt lat="44.86452" lon="0.63005">
        <ele>90.4</ele>
        <time>2021-05-17T14:15:44.000Z</time>
      </trkpt>
      <trkpt lat="44.86451" lon="0.63005">
        <ele>90.4</ele>
        <time>2021-05-17T14:15:45.000Z</time>
      </trkpt>
      <trkpt lat="44.86451" lon="0.63005">
        <ele>90.4</ele>
        <time>2021-05-17T14:15:46.000Z</time>
      </trkpt>
      <trkpt lat="44.86451" lon="0.63004">
        <ele>90.4</ele>
        <time>2021-05-17T14:15:47.000Z</time>
      </trkpt>
      <trkpt lat="44.8645" lon="0.63003">
        <ele>90.5</ele>
        <time>2021-05-17T14:15:48.000Z</time>
      </trkpt>
      <trkpt lat="44.8645" lon="0.63003">
        <ele>90.5</ele>
        <time>2021-05-17T14:15:49.000Z</time>
      </trkpt>
      <trkpt lat="44.8645" lon="0.63003">
        <ele>90.5</ele>
        <time>2021-05-17T14:15:50.000Z</time>
      </trkpt>
      <trkpt lat="44.86451" lon="0.63003">
        <ele>90.5</ele>
        <time>2021-05-17T14:15:51.000Z</time>
      </trkpt>
      <trkpt lat="44.86451" lon="0.63003">
        <ele>90.5</ele>
        <time>2021-05-17T14:15:52.000Z</time>
      </trkpt>
      <trkpt lat="44.86452" lon="0.63003">
        <ele>90.5</ele>
        <time>2021-05-17T14:15:53.000Z</time>
      </trkpt>
      <trkpt lat="44.86451" lon="0.63004">
        <ele>90.5</ele>
        <time>2021-05-17T14:15:54.000Z</time>
      </trkpt>
      <trkpt lat="44.86451" lon="0.63004">
        <ele>90.5</ele>
        <time>2021-05-17T14:15:55.000Z</time>
      </trkpt>
      <trkpt lat="44.86452" lon="0.63004">
        <ele>90.5</ele>
        <time>2021-05-17T14:15:56.000Z</time>
      </trkpt>
      <trkpt lat="44.86452" lon="0.63004">
        <ele>90.5</ele>
        <time>2021-05-17T14:15:57.000Z</time>
      </trkpt>
      <trkpt lat="44.86452" lon="0.63003">
        <ele>90.5</ele>
        <time>2021-05-17T14:15:58.000Z</time>
      </trkpt>
      <trkpt lat="44.86452" lon="0.63003">
        <ele>90.6</ele>
        <time>2021-05-17T14:15:59.000Z</time>
      </trkpt>
      <trkpt lat="44.86452" lon="0.63003">
        <ele>90.6</ele>
        <time>2021-05-17T14:16:00.000Z</time>
      </trkpt>
      <trkpt lat="44.86451" lon="0.63003">
        <ele>90.6</ele>
        <time>2021-05-17T14:16:01.000Z</time>
      </trkpt>
      <trkpt lat="44.86451" lon="0.63004">
        <ele>90.6</ele>
        <time>2021-05-17T14:16:02.000Z</time>
      </trkpt>
      <trkpt lat="44.86451" lon="0.63004">
        <ele>90.6</ele>
        <time>2021-05-17T14:16:03.000Z</time>
      </trkpt>
      <trkpt lat="44.86451" lon="0.63003">
        <ele>90.6</ele>
        <time>2021-05-17T14:16:04.000Z</time>
      </trkpt>
      <trkpt lat="44.86451" lon="0.63003">
        <ele>90.6</ele>
        <time>2021-05-17T14:16:05.000Z</time>
      </trkpt>
      <trkpt lat="44.8645" lon="0.63004">
        <ele>90.6</ele>
        <time>2021-05-17T14:16:06.000Z</time>
      </trkpt>
      <trkpt lat="44.8645" lon="0.63003">
        <ele>90.6</ele>
        <time>2021-05-17T14:16:07.000Z</time>
      </trkpt>
      <trkpt lat="44.8645" lon="0.63003">
        <ele>90.6</ele>
        <time>2021-05-17T14:16:08.000Z</time>
      </trkpt>
      <trkpt lat="44.8645" lon="0.63003">
        <ele>90.6</ele>
        <time>2021-05-17T14:16:09.000Z</time>
      </trkpt>
      <trkpt lat="44.86449" lon="0.63004">
        <ele>90.7</ele>
        <time>2021-05-17T14:16:10.000Z</time>
      </trkpt>
      <trkpt lat="44.86448" lon="0.63004">
        <ele>90.7</ele>
        <time>2021-05-17T14:16:11.000Z</time>
      </trkpt>
      <trkpt lat="44.86447" lon="0.63004">
        <ele>90.7</ele>
        <time>2021-05-17T14:16:12.000Z</time>
      </trkpt>
      <trkpt lat="44.86446" lon="0.63003">
        <ele>90.7</ele>
        <time>2021-05-17T14:16:13.000Z</time>
      </trkpt>
      <trkpt lat="44.86446" lon="0.63002">
        <ele>90.7</ele>
        <time>2021-05-17T14:16:14.000Z</time>
      </trkpt>
      <trkpt lat="44.86445" lon="0.63002">
        <ele>90.7</ele>
        <time>2021-05-17T14:16:15.000Z</time>
      </trkpt>
      <trkpt lat="44.86444" lon="0.63003">
        <ele>90.7</ele>
        <time>2021-05-17T14:16:16.000Z</time>
      </trkpt>
      <trkpt lat="44.86444" lon="0.63003">
        <ele>90.8</ele>
        <time>2021-05-17T14:16:17.000Z</time>
      </trkpt>
      <trkpt lat="44.86443" lon="0.63003">
        <ele>90.8</ele>
        <time>2021-05-17T14:16:18.000Z</time>
      </trkpt>
      <trkpt lat="44.86442" lon="0.63003">
        <ele>90.8</ele>
        <time>2021-05-17T14:16:19.000Z</time>
      </trkpt>
      <trkpt lat="44.86442" lon="0.63003">
        <ele>90.8</ele>
        <time>2021-05-17T14:16:20.000Z</time>
      </trkpt>
      <trkpt lat="44.86442" lon="0.63004">
        <ele>90.8</ele>
        <time>2021-05-17T14:16:21.000Z</time>
      </trkpt>
      <trkpt lat="44.86443" lon="0.63004">
        <ele>90.8</ele>
        <time>2021-05-17T14:16:22.000Z</time>
      </trkpt>
      <trkpt lat="44.86443" lon="0.63004">
        <ele>90.8</ele>
        <time>2021-05-17T14:16:23.000Z</time>
      </trkpt>
      <trkpt lat="44.86444" lon="0.63004">
        <ele>90.8</ele>
        <time>2021-05-17T14:16:24.000Z</time>
      </trkpt>
      <trkpt lat="44.86445" lon="0.63004">
        <ele>90.9</ele>
        <time>2021-05-17T14:16:25.000Z</time>
      </trkpt>
      <trkpt lat="44.86445" lon="0.63004">
        <ele>90.9</ele>
        <time>2021-05-17T14:16:26.000Z</time>
      </trkpt>
      <trkpt lat="44.86446" lon="0.63004">
        <ele>90.9</ele>
        <time>2021-05-17T14:16:27.000Z</time>
      </trkpt>
      <trkpt lat="44.86447" lon="0.63004">
        <ele>90.9</ele>
        <time>2021-05-17T14:16:28.000Z</time>
      </trkpt>
      <trkpt lat="44.86449" lon="0.63004">
        <ele>90.9</ele>
        <time>2021-05-17T14:16:29.000Z</time>
      </trkpt>
      <trkpt lat="44.86452" lon="0.63002">
        <ele>90.9</ele>
        <time>2021-05-17T14:16:30.000Z</time>
      </trkpt>
      <trkpt lat="44.86453" lon="0.63001">
        <ele>90.9</ele>
        <time>2021-05-17T14:16:31.000Z</time>
      </trkpt>
      <trkpt lat="44.86454" lon="0.63001">
        <ele>90.9</ele>
        <time>2021-05-17T14:16:32.000Z</time>
      </trkpt>
      <trkpt lat="44.86456" lon="0.62999">
        <ele>91</ele>
        <time>2021-05-17T14:16:33.000Z</time>
      </trkpt>
      <trkpt lat="44.86456" lon="0.62998">
        <ele>91</ele>
        <time>2021-05-17T14:16:34.000Z</time>
      </trkpt>
      <trkpt lat="44.86457" lon="0.62998">
        <ele>91.2</ele>
        <time>2021-05-17T14:16:35.000Z</time>
      </trkpt>
      <trkpt lat="44.86458" lon="0.62997">
        <ele>91.3</ele>
        <time>2021-05-17T14:16:36.000Z</time>
      </trkpt>
      <trkpt lat="44.8646" lon="0.62996">
        <ele>91.3</ele>
        <time>2021-05-17T14:16:37.000Z</time>
      </trkpt>
      <trkpt lat="44.86461" lon="0.62996">
        <ele>91.6</ele>
        <time>2021-05-17T14:16:38.000Z</time>
      </trkpt>
      <trkpt lat="44.86463" lon="0.62997">
        <ele>91.9</ele>
        <time>2021-05-17T14:16:39.000Z</time>
      </trkpt>
      <trkpt lat="44.86464" lon="0.62998">
        <ele>91.9</ele>
        <time>2021-05-17T14:16:40.000Z</time>
      </trkpt>
      <trkpt lat="44.86467" lon="0.62999">
        <ele>92.3</ele>
        <time>2021-05-17T14:16:41.000Z</time>
      </trkpt>
      <trkpt lat="44.86468" lon="0.63">
        <ele>92.3</ele>
        <time>2021-05-17T14:16:42.000Z</time>
      </trkpt>
      <trkpt lat="44.86471" lon="0.63">
        <ele>92.7</ele>
        <time>2021-05-17T14:16:43.000Z</time>
      </trkpt>
      <trkpt lat="44.86472" lon="0.63">
        <ele>92.7</ele>
        <time>2021-05-17T14:16:44.000Z</time>
      </trkpt>
      <trkpt lat="44.86474" lon="0.63001">
        <ele>93.2</ele>
        <time>2021-05-17T14:16:45.000Z</time>
      </trkpt>
      <trkpt lat="44.86475" lon="0.63001">
        <ele>93.6</ele>
        <time>2021-05-17T14:16:46.000Z</time>
      </trkpt>
      <trkpt lat="44.86477" lon="0.63001">
        <ele>93.6</ele>
        <time>2021-05-17T14:16:47.000Z</time>
      </trkpt>
      <trkpt lat="44.8648" lon="0.63001">
        <ele>94.1</ele>
        <time>2021-05-17T14:16:48.000Z</time>
      </trkpt>
      <trkpt lat="44.86482" lon="0.63002">
        <ele>94.6</ele>
        <time>2021-05-17T14:16:49.000Z</time>
      </trkpt>
      <trkpt lat="44.86484" lon="0.63002">
        <ele>94.6</ele>
        <time>2021-05-17T14:16:50.000Z</time>
      </trkpt>
      <trkpt lat="44.86485" lon="0.63002">
        <ele>95</ele>
        <time>2021-05-17T14:16:51.000Z</time>
      </trkpt>
      <trkpt lat="44.86486" lon="0.63002">
        <ele>95</ele>
        <time>2021-05-17T14:16:52.000Z</time>
      </trkpt>
      <trkpt lat="44.86487" lon="0.63002">
        <ele>95</ele>
        <time>2021-05-17T14:16:53.000Z</time>
      </trkpt>
      <trkpt lat="44.86489" lon="0.63002">
        <ele>95.5</ele>
        <time>2021-05-17T14:16:54.000Z</time>
      </trkpt>
      <trkpt lat="44.8649" lon="0.63">
        <ele>95.5</ele>
        <time>2021-05-17T14:16:55.000Z</time>
      </trkpt>
      <trkpt lat="44.8649" lon="0.63">
        <ele>95.6</ele>
        <time>2021-05-17T14:16:56.000Z</time>
      </trkpt>
      <trkpt lat="44.8649" lon="0.62999">
        <ele>95.6</ele>
        <time>2021-05-17T14:16:57.000Z</time>
      </trkpt>
      <trkpt lat="44.8649" lon="0.62998">
        <ele>95.7</ele>
        <time>2021-05-17T14:16:58.000Z</time>
      </trkpt>
      <trkpt lat="44.8649" lon="0.62997">
        <ele>95.7</ele>
        <time>2021-05-17T14:16:59.000Z</time>
      </trkpt>
      <trkpt lat="44.86491" lon="0.62994">
        <ele>96.3</ele>
        <time>2021-05-17T14:17:00.000Z</time>
      </trkpt>
      <trkpt lat="44.86491" lon="0.62993">
        <ele>96.3</ele>
        <time>2021-05-17T14:17:01.000Z</time>
      </trkpt>
      <trkpt lat="44.86491" lon="0.62991">
        <ele>96.3</ele>
        <time>2021-05-17T14:17:02.000Z</time>
      </trkpt>
      <trkpt lat="44.86491" lon="0.6299">
        <ele>96.5</ele>
        <time>2021-05-17T14:17:03.000Z</time>
      </trkpt>
      <trkpt lat="44.86491" lon="0.62989">
        <ele>96.6</ele>
        <time>2021-05-17T14:17:04.000Z</time>
      </trkpt>
      <trkpt lat="44.86491" lon="0.62987">
        <ele>96.6</ele>
        <time>2021-05-17T14:17:05.000Z</time>
      </trkpt>
      <trkpt lat="44.8649" lon="0.62985">
        <ele>96.8</ele>
        <time>2021-05-17T14:17:06.000Z</time>
      </trkpt>
      <trkpt lat="44.8649" lon="0.62984">
        <ele>96.3</ele>
        <time>2021-05-17T14:17:07.000Z</time>
      </trkpt>
      <trkpt lat="44.8649" lon="0.62983">
        <ele>96.3</ele>
        <time>2021-05-17T14:17:08.000Z</time>
      </trkpt>
      <trkpt lat="44.86489" lon="0.62981">
        <ele>96.6</ele>
        <time>2021-05-17T14:17:09.000Z</time>
      </trkpt>
      <trkpt lat="44.86488" lon="0.62979">
        <ele>96.6</ele>
        <time>2021-05-17T14:17:10.000Z</time>
      </trkpt>
      <trkpt lat="44.86488" lon="0.62975">
        <ele>96.8</ele>
        <time>2021-05-17T14:17:11.000Z</time>
      </trkpt>
      <trkpt lat="44.86487" lon="0.62971">
        <ele>96.6</ele>
        <time>2021-05-17T14:17:12.000Z</time>
      </trkpt>
      <trkpt lat="44.86486" lon="0.6297">
        <ele>96.9</ele>
        <time>2021-05-17T14:17:13.000Z</time>
      </trkpt>
      <trkpt lat="44.86486" lon="0.62965">
        <ele>97.3</ele>
        <time>2021-05-17T14:17:14.000Z</time>
      </trkpt>
      <trkpt lat="44.86486" lon="0.62963">
        <ele>97.3</ele>
        <time>2021-05-17T14:17:15.000Z</time>
      </trkpt>
      <trkpt lat="44.86487" lon="0.6296">
        <ele>97.6</ele>
        <time>2021-05-17T14:17:16.000Z</time>
      </trkpt>
      <trkpt lat="44.86487" lon="0.62959">
        <ele>97.7</ele>
        <time>2021-05-17T14:17:17.000Z</time>
      </trkpt>
      <trkpt lat="44.86489" lon="0.62956">
        <ele>98.5</ele>
        <time>2021-05-17T14:17:18.000Z</time>
      </trkpt>
      <trkpt lat="44.86489" lon="0.62954">
        <ele>98.5</ele>
        <time>2021-05-17T14:17:19.000Z</time>
      </trkpt>
      <trkpt lat="44.8649" lon="0.62952">
        <ele>98.9</ele>
        <time>2021-05-17T14:17:20.000Z</time>
      </trkpt>
      <trkpt lat="44.86491" lon="0.6295">
        <ele>99.4</ele>
        <time>2021-05-17T14:17:21.000Z</time>
      </trkpt>
      <trkpt lat="44.86492" lon="0.62948">
        <ele>99.8</ele>
        <time>2021-05-17T14:17:22.000Z</time>
      </trkpt>
      <trkpt lat="44.86493" lon="0.62946">
        <ele>99.8</ele>
        <time>2021-05-17T14:17:23.000Z</time>
      </trkpt>
      <trkpt lat="44.86494" lon="0.62944">
        <ele>100.7</ele>
        <time>2021-05-17T14:17:24.000Z</time>
      </trkpt>
      <trkpt lat="44.86495" lon="0.62942">
        <ele>100.7</ele>
        <time>2021-05-17T14:17:25.000Z</time>
      </trkpt>
      <trkpt lat="44.86496" lon="0.62941">
        <ele>100.7</ele>
        <time>2021-05-17T14:17:26.000Z</time>
      </trkpt>
      <trkpt lat="44.86497" lon="0.62939">
        <ele>101.7</ele>
        <time>2021-05-17T14:17:27.000Z</time>
      </trkpt>
      <trkpt lat="44.86497" lon="0.62937">
        <ele>101.7</ele>
        <time>2021-05-17T14:17:28.000Z</time>
      </trkpt>
      <trkpt lat="44.86497" lon="0.62935">
        <ele>102.1</ele>
        <time>2021-05-17T14:17:29.000Z</time>
      </trkpt>
      <trkpt lat="44.86498" lon="0.62933">
        <ele>102.2</ele>
        <time>2021-05-17T14:17:30.000Z</time>
      </trkpt>
      <trkpt lat="44.86498" lon="0.62931">
        <ele>102.6</ele>
        <time>2021-05-17T14:17:31.000Z</time>
      </trkpt>
      <trkpt lat="44.86499" lon="0.62927">
        <ele>103</ele>
        <time>2021-05-17T14:17:32.000Z</time>
      </trkpt>
      <trkpt lat="44.865" lon="0.62925">
        <ele>103.6</ele>
        <time>2021-05-17T14:17:33.000Z</time>
      </trkpt>
      <trkpt lat="44.86501" lon="0.62923">
        <ele>103.6</ele>
        <time>2021-05-17T14:17:34.000Z</time>
      </trkpt>
      <trkpt lat="44.86502" lon="0.62922">
        <ele>104.1</ele>
        <time>2021-05-17T14:17:35.000Z</time>
      </trkpt>
      <trkpt lat="44.86502" lon="0.6292">
        <ele>104.1</ele>
        <time>2021-05-17T14:17:36.000Z</time>
      </trkpt>
      <trkpt lat="44.86504" lon="0.62917">
        <ele>105.1</ele>
        <time>2021-05-17T14:17:37.000Z</time>
      </trkpt>
      <trkpt lat="44.86504" lon="0.62916">
        <ele>105.1</ele>
        <time>2021-05-17T14:17:38.000Z</time>
      </trkpt>
      <trkpt lat="44.86504" lon="0.62916">
        <ele>105.1</ele>
        <time>2021-05-17T14:17:39.000Z</time>
      </trkpt>
      <trkpt lat="44.86505" lon="0.62914">
        <ele>105.6</ele>
        <time>2021-05-17T14:17:40.000Z</time>
      </trkpt>
      <trkpt lat="44.86506" lon="0.62913">
        <ele>106.1</ele>
        <time>2021-05-17T14:17:41.000Z</time>
      </trkpt>
      <trkpt lat="44.86507" lon="0.62912">
        <ele>106.1</ele>
        <time>2021-05-17T14:17:42.000Z</time>
      </trkpt>
      <trkpt lat="44.86508" lon="0.6291">
        <ele>106.1</ele>
        <time>2021-05-17T14:17:43.000Z</time>
      </trkpt>
      <trkpt lat="44.86508" lon="0.62909">
        <ele>106.6</ele>
        <time>2021-05-17T14:17:44.000Z</time>
      </trkpt>
      <trkpt lat="44.86508" lon="0.62908">
        <ele>106.6</ele>
        <time>2021-05-17T14:17:45.000Z</time>
      </trkpt>
      <trkpt lat="44.86508" lon="0.62908">
        <ele>106.6</ele>
        <time>2021-05-17T14:17:46.000Z</time>
      </trkpt>
      <trkpt lat="44.86508" lon="0.62908">
        <ele>106.6</ele>
        <time>2021-05-17T14:17:47.000Z</time>
      </trkpt>
      <trkpt lat="44.86508" lon="0.62907">
        <ele>106.7</ele>
        <time>2021-05-17T14:17:48.000Z</time>
      </trkpt>
      <trkpt lat="44.86508" lon="0.62907">
        <ele>106.7</ele>
        <time>2021-05-17T14:17:49.000Z</time>
      </trkpt>
      <trkpt lat="44.86508" lon="0.62907">
        <ele>106.7</ele>
        <time>2021-05-17T14:17:50.000Z</time>
      </trkpt>
      <trkpt lat="44.86508" lon="0.62906">
        <ele>106.7</ele>
        <time>2021-05-17T14:17:51.000Z</time>
      </trkpt>
      <trkpt lat="44.86509" lon="0.62905">
        <ele>107.6</ele>
        <time>2021-05-17T14:17:52.000Z</time>
      </trkpt>
      <trkpt lat="44.86509" lon="0.62904">
        <ele>107.6</ele>
        <time>2021-05-17T14:17:53.000Z</time>
      </trkpt>
      <trkpt lat="44.86508" lon="0.62903">
        <ele>107.2</ele>
        <time>2021-05-17T14:17:54.000Z</time>
      </trkpt>
      <trkpt lat="44.86508" lon="0.62904">
        <ele>107.2</ele>
        <time>2021-05-17T14:17:55.000Z</time>
      </trkpt>
      <trkpt lat="44.86509" lon="0.62904">
        <ele>107.7</ele>
        <time>2021-05-17T14:17:56.000Z</time>
      </trkpt>
      <trkpt lat="44.86509" lon="0.62903">
        <ele>107.7</ele>
        <time>2021-05-17T14:17:57.000Z</time>
      </trkpt>
      <trkpt lat="44.86509" lon="0.62902">
        <ele>107.7</ele>
        <time>2021-05-17T14:17:58.000Z</time>
      </trkpt>
      <trkpt lat="44.86509" lon="0.62901">
        <ele>108.1</ele>
        <time>2021-05-17T14:17:59.000Z</time>
      </trkpt>
      <trkpt lat="44.86509" lon="0.62901">
        <ele>108.1</ele>
        <time>2021-05-17T14:18:00.000Z</time>
      </trkpt>
      <trkpt lat="44.86509" lon="0.62899">
        <ele>107.7</ele>
        <time>2021-05-17T14:18:01.000Z</time>
      </trkpt>
      <trkpt lat="44.86508" lon="0.62898">
        <ele>107.7</ele>
        <time>2021-05-17T14:18:02.000Z</time>
      </trkpt>
      <trkpt lat="44.86507" lon="0.62896">
        <ele>108.1</ele>
        <time>2021-05-17T14:18:03.000Z</time>
      </trkpt>
      <trkpt lat="44.86507" lon="0.62894">
        <ele>108.1</ele>
        <time>2021-05-17T14:18:04.000Z</time>
      </trkpt>
      <trkpt lat="44.86507" lon="0.62893">
        <ele>108.1</ele>
        <time>2021-05-17T14:18:05.000Z</time>
      </trkpt>
      <trkpt lat="44.86507" lon="0.62891">
        <ele>108.5</ele>
        <time>2021-05-17T14:18:06.000Z</time>
      </trkpt>
      <trkpt lat="44.86507" lon="0.62889">
        <ele>108.5</ele>
        <time>2021-05-17T14:18:07.000Z</time>
      </trkpt>
      <trkpt lat="44.86505" lon="0.62887">
        <ele>108.5</ele>
        <time>2021-05-17T14:18:08.000Z</time>
      </trkpt>
      <trkpt lat="44.86504" lon="0.62886">
        <ele>108.5</ele>
        <time>2021-05-17T14:18:09.000Z</time>
      </trkpt>
      <trkpt lat="44.86504" lon="0.62885">
        <ele>108.5</ele>
        <time>2021-05-17T14:18:10.000Z</time>
      </trkpt>
      <trkpt lat="44.86503" lon="0.62883">
        <ele>108.8</ele>
        <time>2021-05-17T14:18:11.000Z</time>
      </trkpt>
      <trkpt lat="44.86502" lon="0.62882">
        <ele>108.4</ele>
        <time>2021-05-17T14:18:12.000Z</time>
      </trkpt>
      <trkpt lat="44.86501" lon="0.62881">
        <ele>108.4</ele>
        <time>2021-05-17T14:18:13.000Z</time>
      </trkpt>
      <trkpt lat="44.86501" lon="0.6288">
        <ele>108.4</ele>
        <time>2021-05-17T14:18:14.000Z</time>
      </trkpt>
      <trkpt lat="44.86501" lon="0.62879">
        <ele>108.8</ele>
        <time>2021-05-17T14:18:15.000Z</time>
      </trkpt>
      <trkpt lat="44.865" lon="0.62878">
        <ele>108.8</ele>
        <time>2021-05-17T14:18:16.000Z</time>
      </trkpt>
      <trkpt lat="44.865" lon="0.62877">
        <ele>108.8</ele>
        <time>2021-05-17T14:18:17.000Z</time>
      </trkpt>
      <trkpt lat="44.865" lon="0.62877">
        <ele>108.8</ele>
        <time>2021-05-17T14:18:18.000Z</time>
      </trkpt>
      <trkpt lat="44.86499" lon="0.62876">
        <ele>108.4</ele>
        <time>2021-05-17T14:18:19.000Z</time>
      </trkpt>
      <trkpt lat="44.86498" lon="0.62874">
        <ele>108.7</ele>
        <time>2021-05-17T14:18:20.000Z</time>
      </trkpt>
      <trkpt lat="44.86498" lon="0.62873">
        <ele>108.7</ele>
        <time>2021-05-17T14:18:21.000Z</time>
      </trkpt>
      <trkpt lat="44.86497" lon="0.62872">
        <ele>108.8</ele>
        <time>2021-05-17T14:18:22.000Z</time>
      </trkpt>
      <trkpt lat="44.86497" lon="0.62872">
        <ele>108.8</ele>
        <time>2021-05-17T14:18:23.000Z</time>
      </trkpt>
      <trkpt lat="44.86497" lon="0.62872">
        <ele>108.8</ele>
        <time>2021-05-17T14:18:24.000Z</time>
      </trkpt>
      <trkpt lat="44.86497" lon="0.62871">
        <ele>108.8</ele>
        <time>2021-05-17T14:18:25.000Z</time>
      </trkpt>
      <trkpt lat="44.86498" lon="0.6287">
        <ele>109.1</ele>
        <time>2021-05-17T14:18:26.000Z</time>
      </trkpt>
      <trkpt lat="44.86498" lon="0.62869">
        <ele>109.2</ele>
        <time>2021-05-17T14:18:27.000Z</time>
      </trkpt>
      <trkpt lat="44.86498" lon="0.62869">
        <ele>109.2</ele>
        <time>2021-05-17T14:18:28.000Z</time>
      </trkpt>
      <trkpt lat="44.86498" lon="0.62867">
        <ele>109.2</ele>
        <time>2021-05-17T14:18:29.000Z</time>
      </trkpt>
      <trkpt lat="44.86497" lon="0.62867">
        <ele>109.2</ele>
        <time>2021-05-17T14:18:30.000Z</time>
      </trkpt>
      <trkpt lat="44.86497" lon="0.62866">
        <ele>109.5</ele>
        <time>2021-05-17T14:18:31.000Z</time>
      </trkpt>
      <trkpt lat="44.86494" lon="0.62864">
        <ele>109.1</ele>
        <time>2021-05-17T14:18:32.000Z</time>
      </trkpt>
      <trkpt lat="44.86493" lon="0.62863">
        <ele>108.7</ele>
        <time>2021-05-17T14:18:33.000Z</time>
      </trkpt>
      <trkpt lat="44.86492" lon="0.62861">
        <ele>109</ele>
        <time>2021-05-17T14:18:34.000Z</time>
      </trkpt>
      <trkpt lat="44.8649" lon="0.62861">
        <ele>108.7</ele>
        <time>2021-05-17T14:18:35.000Z</time>
      </trkpt>
      <trkpt lat="44.86489" lon="0.62859">
        <ele>108.7</ele>
        <time>2021-05-17T14:18:36.000Z</time>
      </trkpt>
      <trkpt lat="44.86488" lon="0.62858">
        <ele>109</ele>
        <time>2021-05-17T14:18:37.000Z</time>
      </trkpt>
      <trkpt lat="44.86487" lon="0.62856">
        <ele>108.7</ele>
        <time>2021-05-17T14:18:38.000Z</time>
      </trkpt>
      <trkpt lat="44.86486" lon="0.62854">
        <ele>108.7</ele>
        <time>2021-05-17T14:18:39.000Z</time>
      </trkpt>
      <trkpt lat="44.86484" lon="0.62854">
        <ele>108.3</ele>
        <time>2021-05-17T14:18:40.000Z</time>
      </trkpt>
      <trkpt lat="44.86483" lon="0.62853">
        <ele>108.6</ele>
        <time>2021-05-17T14:18:41.000Z</time>
      </trkpt>
      <trkpt lat="44.86481" lon="0.62851">
        <ele>108.2</ele>
        <time>2021-05-17T14:18:42.000Z</time>
      </trkpt>
      <trkpt lat="44.8648" lon="0.62851">
        <ele>108.2</ele>
        <time>2021-05-17T14:18:43.000Z</time>
      </trkpt>
      <trkpt lat="44.86478" lon="0.62849">
        <ele>108.1</ele>
        <time>2021-05-17T14:18:44.000Z</time>
      </trkpt>
      <trkpt lat="44.86477" lon="0.62848">
        <ele>108.1</ele>
        <time>2021-05-17T14:18:45.000Z</time>
      </trkpt>
      <trkpt lat="44.86477" lon="0.62848">
        <ele>108.2</ele>
        <time>2021-05-17T14:18:46.000Z</time>
      </trkpt>
      <trkpt lat="44.86474" lon="0.62845">
        <ele>108</ele>
        <time>2021-05-17T14:18:47.000Z</time>
      </trkpt>
      <trkpt lat="44.86473" lon="0.62844">
        <ele>108</ele>
        <time>2021-05-17T14:18:48.000Z</time>
      </trkpt>
      <trkpt lat="44.86471" lon="0.62842">
        <ele>107.5</ele>
        <time>2021-05-17T14:18:49.000Z</time>
      </trkpt>
      <trkpt lat="44.8647" lon="0.62842">
        <ele>107.6</ele>
        <time>2021-05-17T14:18:50.000Z</time>
      </trkpt>
      <trkpt lat="44.86469" lon="0.62841">
        <ele>107.1</ele>
        <time>2021-05-17T14:18:51.000Z</time>
      </trkpt>
      <trkpt lat="44.86467" lon="0.6284">
        <ele>107.4</ele>
        <time>2021-05-17T14:18:52.000Z</time>
      </trkpt>
      <trkpt lat="44.86466" lon="0.62838">
        <ele>107.4</ele>
        <time>2021-05-17T14:18:53.000Z</time>
      </trkpt>
      <trkpt lat="44.86465" lon="0.62836">
        <ele>107.2</ele>
        <time>2021-05-17T14:18:54.000Z</time>
      </trkpt>
      <trkpt lat="44.86464" lon="0.62835">
        <ele>107.3</ele>
        <time>2021-05-17T14:18:55.000Z</time>
      </trkpt>
      <trkpt lat="44.86464" lon="0.62834">
        <ele>107.3</ele>
        <time>2021-05-17T14:18:56.000Z</time>
      </trkpt>
      <trkpt lat="44.86462" lon="0.62833">
        <ele>106.8</ele>
        <time>2021-05-17T14:18:57.000Z</time>
      </trkpt>
      <trkpt lat="44.86461" lon="0.62833">
        <ele>106.8</ele>
        <time>2021-05-17T14:18:58.000Z</time>
      </trkpt>
      <trkpt lat="44.8646" lon="0.62831">
        <ele>107.1</ele>
        <time>2021-05-17T14:18:59.000Z</time>
      </trkpt>
      <trkpt lat="44.86459" lon="0.6283">
        <ele>106.7</ele>
        <time>2021-05-17T14:19:00.000Z</time>
      </trkpt>
      <trkpt lat="44.86457" lon="0.62827">
        <ele>106.9</ele>
        <time>2021-05-17T14:19:01.000Z</time>
      </trkpt>
      <trkpt lat="44.86456" lon="0.62827">
        <ele>106.5</ele>
        <time>2021-05-17T14:19:02.000Z</time>
      </trkpt>
      <trkpt lat="44.86455" lon="0.62826">
        <ele>106.5</ele>
        <time>2021-05-17T14:19:03.000Z</time>
      </trkpt>
      <trkpt lat="44.86454" lon="0.62825">
        <ele>106</ele>
        <time>2021-05-17T14:19:04.000Z</time>
      </trkpt>
      <trkpt lat="44.86452" lon="0.62825">
        <ele>106</ele>
        <time>2021-05-17T14:19:05.000Z</time>
      </trkpt>
      <trkpt lat="44.86451" lon="0.62823">
        <ele>105.8</ele>
        <time>2021-05-17T14:19:06.000Z</time>
      </trkpt>
      <trkpt lat="44.86449" lon="0.62822">
        <ele>105.8</ele>
        <time>2021-05-17T14:19:07.000Z</time>
      </trkpt>
      <trkpt lat="44.86448" lon="0.62821">
        <ele>105.3</ele>
        <time>2021-05-17T14:19:08.000Z</time>
      </trkpt>
      <trkpt lat="44.86445" lon="0.62819">
        <ele>105.5</ele>
        <time>2021-05-17T14:19:09.000Z</time>
      </trkpt>
      <trkpt lat="44.86445" lon="0.62818">
        <ele>104.9</ele>
        <time>2021-05-17T14:19:10.000Z</time>
      </trkpt>
      <trkpt lat="44.86444" lon="0.62817">
        <ele>105</ele>
        <time>2021-05-17T14:19:11.000Z</time>
      </trkpt>
      <trkpt lat="44.86443" lon="0.62817">
        <ele>105</ele>
        <time>2021-05-17T14:19:12.000Z</time>
      </trkpt>
      <trkpt lat="44.86443" lon="0.62816">
        <ele>105</ele>
        <time>2021-05-17T14:19:13.000Z</time>
      </trkpt>
      <trkpt lat="44.86442" lon="0.62816">
        <ele>105</ele>
        <time>2021-05-17T14:19:14.000Z</time>
      </trkpt>
      <trkpt lat="44.86441" lon="0.62815">
        <ele>104.6</ele>
        <time>2021-05-17T14:19:15.000Z</time>
      </trkpt>
      <trkpt lat="44.8644" lon="0.62814">
        <ele>104.6</ele>
        <time>2021-05-17T14:19:16.000Z</time>
      </trkpt>
      <trkpt lat="44.86439" lon="0.62814">
        <ele>104.6</ele>
        <time>2021-05-17T14:19:17.000Z</time>
      </trkpt>
      <trkpt lat="44.86438" lon="0.62813">
        <ele>104.1</ele>
        <time>2021-05-17T14:19:18.000Z</time>
      </trkpt>
      <trkpt lat="44.86437" lon="0.62812">
        <ele>104.1</ele>
        <time>2021-05-17T14:19:19.000Z</time>
      </trkpt>
      <trkpt lat="44.86435" lon="0.62811">
        <ele>103.5</ele>
        <time>2021-05-17T14:19:20.000Z</time>
      </trkpt>
      <trkpt lat="44.86434" lon="0.6281">
        <ele>103.6</ele>
        <time>2021-05-17T14:19:21.000Z</time>
      </trkpt>
      <trkpt lat="44.86433" lon="0.6281">
        <ele>103.6</ele>
        <time>2021-05-17T14:19:22.000Z</time>
      </trkpt>
      <trkpt lat="44.86431" lon="0.62809">
        <ele>103</ele>
        <time>2021-05-17T14:19:23.000Z</time>
      </trkpt>
      <trkpt lat="44.8643" lon="0.62809">
        <ele>102.4</ele>
        <time>2021-05-17T14:19:24.000Z</time>
      </trkpt>
      <trkpt lat="44.86428" lon="0.62809">
        <ele>102.4</ele>
        <time>2021-05-17T14:19:25.000Z</time>
      </trkpt>
      <trkpt lat="44.86427" lon="0.62808">
        <ele>102.4</ele>
        <time>2021-05-17T14:19:26.000Z</time>
      </trkpt>
      <trkpt lat="44.86424" lon="0.62808">
        <ele>101.8</ele>
        <time>2021-05-17T14:19:27.000Z</time>
      </trkpt>
      <trkpt lat="44.86423" lon="0.62808">
        <ele>101.1</ele>
        <time>2021-05-17T14:19:28.000Z</time>
      </trkpt>
      <trkpt lat="44.86423" lon="0.62808">
        <ele>101.1</ele>
        <time>2021-05-17T14:19:29.000Z</time>
      </trkpt>
      <trkpt lat="44.86423" lon="0.62807">
        <ele>101.1</ele>
        <time>2021-05-17T14:19:30.000Z</time>
      </trkpt>
      <trkpt lat="44.86422" lon="0.62807">
        <ele>101.1</ele>
        <time>2021-05-17T14:19:31.000Z</time>
      </trkpt>
      <trkpt lat="44.86422" lon="0.62807">
        <ele>101.2</ele>
        <time>2021-05-17T14:19:32.000Z</time>
      </trkpt>
      <trkpt lat="44.86421" lon="0.62808">
        <ele>101.2</ele>
        <time>2021-05-17T14:19:33.000Z</time>
      </trkpt>
      <trkpt lat="44.86421" lon="0.62808">
        <ele>101.2</ele>
        <time>2021-05-17T14:19:34.000Z</time>
      </trkpt>
      <trkpt lat="44.8642" lon="0.62808">
        <ele>100.5</ele>
        <time>2021-05-17T14:19:35.000Z</time>
      </trkpt>
      <trkpt lat="44.8642" lon="0.62808">
        <ele>100.5</ele>
        <time>2021-05-17T14:19:36.000Z</time>
      </trkpt>
      <trkpt lat="44.86419" lon="0.62809">
        <ele>100.5</ele>
        <time>2021-05-17T14:19:37.000Z</time>
      </trkpt>
      <trkpt lat="44.86417" lon="0.62809">
        <ele>99.8</ele>
        <time>2021-05-17T14:19:38.000Z</time>
      </trkpt>
      <trkpt lat="44.86416" lon="0.62808">
        <ele>99.8</ele>
        <time>2021-05-17T14:19:39.000Z</time>
      </trkpt>
      <trkpt lat="44.86415" lon="0.62808">
        <ele>99.8</ele>
        <time>2021-05-17T14:19:40.000Z</time>
      </trkpt>
      <trkpt lat="44.86413" lon="0.62805">
        <ele>99.1</ele>
        <time>2021-05-17T14:19:41.000Z</time>
      </trkpt>
      <trkpt lat="44.86413" lon="0.62804">
        <ele>99.1</ele>
        <time>2021-05-17T14:19:42.000Z</time>
      </trkpt>
      <trkpt lat="44.86412" lon="0.62803">
        <ele>99.1</ele>
        <time>2021-05-17T14:19:43.000Z</time>
      </trkpt>
      <trkpt lat="44.86411" lon="0.628">
        <ele>98.4</ele>
        <time>2021-05-17T14:19:44.000Z</time>
      </trkpt>
      <trkpt lat="44.8641" lon="0.62799">
        <ele>98.4</ele>
        <time>2021-05-17T14:19:45.000Z</time>
      </trkpt>
      <trkpt lat="44.86408" lon="0.62797">
        <ele>98.4</ele>
        <time>2021-05-17T14:19:46.000Z</time>
      </trkpt>
      <trkpt lat="44.86407" lon="0.62795">
        <ele>97.7</ele>
        <time>2021-05-17T14:19:47.000Z</time>
      </trkpt>
      <trkpt lat="44.86406" lon="0.62794">
        <ele>97.7</ele>
        <time>2021-05-17T14:19:48.000Z</time>
      </trkpt>
      <trkpt lat="44.86405" lon="0.62791">
        <ele>97.1</ele>
        <time>2021-05-17T14:19:49.000Z</time>
      </trkpt>
      <trkpt lat="44.86404" lon="0.6279">
        <ele>97.1</ele>
        <time>2021-05-17T14:19:50.000Z</time>
      </trkpt>
      <trkpt lat="44.86403" lon="0.6279">
        <ele>97.1</ele>
        <time>2021-05-17T14:19:51.000Z</time>
      </trkpt>
      <trkpt lat="44.86401" lon="0.62787">
        <ele>96.4</ele>
        <time>2021-05-17T14:19:52.000Z</time>
      </trkpt>
      <trkpt lat="44.86401" lon="0.62786">
        <ele>96.4</ele>
        <time>2021-05-17T14:19:53.000Z</time>
      </trkpt>
      <trkpt lat="44.86399" lon="0.62783">
        <ele>95.7</ele>
        <time>2021-05-17T14:19:54.000Z</time>
      </trkpt>
      <trkpt lat="44.86398" lon="0.62782">
        <ele>95.7</ele>
        <time>2021-05-17T14:19:55.000Z</time>
      </trkpt>
      <trkpt lat="44.86396" lon="0.62779">
        <ele>95.6</ele>
        <time>2021-05-17T14:19:56.000Z</time>
      </trkpt>
      <trkpt lat="44.86396" lon="0.62778">
        <ele>94.9</ele>
        <time>2021-05-17T14:19:57.000Z</time>
      </trkpt>
      <trkpt lat="44.86395" lon="0.62777">
        <ele>95</ele>
        <time>2021-05-17T14:19:58.000Z</time>
      </trkpt>
      <trkpt lat="44.86393" lon="0.62774">
        <ele>94.8</ele>
        <time>2021-05-17T14:19:59.000Z</time>
      </trkpt>
      <trkpt lat="44.86392" lon="0.62772">
        <ele>93.9</ele>
        <time>2021-05-17T14:20:00.000Z</time>
      </trkpt>
      <trkpt lat="44.86391" lon="0.6277">
        <ele>93.9</ele>
        <time>2021-05-17T14:20:01.000Z</time>
      </trkpt>
      <trkpt lat="44.86391" lon="0.62769">
        <ele>93.9</ele>
        <time>2021-05-17T14:20:02.000Z</time>
      </trkpt>
      <trkpt lat="44.86389" lon="0.62765">
        <ele>92.9</ele>
        <time>2021-05-17T14:20:03.000Z</time>
      </trkpt>
      <trkpt lat="44.86389" lon="0.62764">
        <ele>92.9</ele>
        <time>2021-05-17T14:20:04.000Z</time>
      </trkpt>
      <trkpt lat="44.86388" lon="0.62762">
        <ele>92.7</ele>
        <time>2021-05-17T14:20:05.000Z</time>
      </trkpt>
      <trkpt lat="44.86387" lon="0.62761">
        <ele>92.8</ele>
        <time>2021-05-17T14:20:06.000Z</time>
      </trkpt>
      <trkpt lat="44.86386" lon="0.6276">
        <ele>92</ele>
        <time>2021-05-17T14:20:07.000Z</time>
      </trkpt>
      <trkpt lat="44.86385" lon="0.62755">
        <ele>91.8</ele>
        <time>2021-05-17T14:20:08.000Z</time>
      </trkpt>
      <trkpt lat="44.86385" lon="0.62754">
        <ele>91.6</ele>
        <time>2021-05-17T14:20:09.000Z</time>
      </trkpt>
      <trkpt lat="44.86384" lon="0.62753">
        <ele>91.6</ele>
        <time>2021-05-17T14:20:10.000Z</time>
      </trkpt>
      <trkpt lat="44.86383" lon="0.6275">
        <ele>90.7</ele>
        <time>2021-05-17T14:20:11.000Z</time>
      </trkpt>
      <trkpt lat="44.86383" lon="0.62745">
        <ele>90.5</ele>
        <time>2021-05-17T14:20:12.000Z</time>
      </trkpt>
      <trkpt lat="44.86383" lon="0.62743">
        <ele>90.6</ele>
        <time>2021-05-17T14:20:13.000Z</time>
      </trkpt>
      <trkpt lat="44.86383" lon="0.62739">
        <ele>90.4</ele>
        <time>2021-05-17T14:20:14.000Z</time>
      </trkpt>
      <trkpt lat="44.86384" lon="0.62737">
        <ele>90.8</ele>
        <time>2021-05-17T14:20:15.000Z</time>
      </trkpt>
      <trkpt lat="44.86386" lon="0.62735">
        <ele>90.8</ele>
        <time>2021-05-17T14:20:16.000Z</time>
      </trkpt>
      <trkpt lat="44.86388" lon="0.62731">
        <ele>91.3</ele>
        <time>2021-05-17T14:20:17.000Z</time>
      </trkpt>
      <trkpt lat="44.86388" lon="0.6273">
        <ele>91.3</ele>
        <time>2021-05-17T14:20:18.000Z</time>
      </trkpt>
      <trkpt lat="44.86388" lon="0.62728">
        <ele>91</ele>
        <time>2021-05-17T14:20:19.000Z</time>
      </trkpt>
      <trkpt lat="44.86389" lon="0.62727">
        <ele>91</ele>
        <time>2021-05-17T14:20:20.000Z</time>
      </trkpt>
      <trkpt lat="44.86391" lon="0.62723">
        <ele>91.4</ele>
        <time>2021-05-17T14:20:21.000Z</time>
      </trkpt>
      <trkpt lat="44.86392" lon="0.62716">
        <ele>90.7</ele>
        <time>2021-05-17T14:20:22.000Z</time>
      </trkpt>
      <trkpt lat="44.86393" lon="0.62713">
        <ele>90.8</ele>
        <time>2021-05-17T14:20:23.000Z</time>
      </trkpt>
      <trkpt lat="44.86394" lon="0.62709">
        <ele>91.1</ele>
        <time>2021-05-17T14:20:24.000Z</time>
      </trkpt>
      <trkpt lat="44.86396" lon="0.62705">
        <ele>91.4</ele>
        <time>2021-05-17T14:20:25.000Z</time>
      </trkpt>
      <trkpt lat="44.86397" lon="0.62703">
        <ele>91</ele>
        <time>2021-05-17T14:20:26.000Z</time>
      </trkpt>
      <trkpt lat="44.86399" lon="0.62699">
        <ele>90.7</ele>
        <time>2021-05-17T14:20:27.000Z</time>
      </trkpt>
      <trkpt lat="44.864" lon="0.62698">
        <ele>91.3</ele>
        <time>2021-05-17T14:20:28.000Z</time>
      </trkpt>
      <trkpt lat="44.86402" lon="0.62695">
        <ele>91</ele>
        <time>2021-05-17T14:20:29.000Z</time>
      </trkpt>
      <trkpt lat="44.86402" lon="0.62693">
        <ele>91</ele>
        <time>2021-05-17T14:20:30.000Z</time>
      </trkpt>
      <trkpt lat="44.86402" lon="0.62689">
        <ele>90.6</ele>
        <time>2021-05-17T14:20:31.000Z</time>
      </trkpt>
      <trkpt lat="44.86401" lon="0.62688">
        <ele>90.6</ele>
        <time>2021-05-17T14:20:32.000Z</time>
      </trkpt>
      <trkpt lat="44.864" lon="0.62684">
        <ele>90.3</ele>
        <time>2021-05-17T14:20:33.000Z</time>
      </trkpt>
      <trkpt lat="44.864" lon="0.62682">
        <ele>90.3</ele>
        <time>2021-05-17T14:20:34.000Z</time>
      </trkpt>
      <trkpt lat="44.86401" lon="0.62678">
        <ele>89.9</ele>
        <time>2021-05-17T14:20:35.000Z</time>
      </trkpt>
      <trkpt lat="44.86401" lon="0.62677">
        <ele>89.5</ele>
        <time>2021-05-17T14:20:36.000Z</time>
      </trkpt>
      <trkpt lat="44.864" lon="0.62673">
        <ele>89.2</ele>
        <time>2021-05-17T14:20:37.000Z</time>
      </trkpt>
      <trkpt lat="44.86399" lon="0.62672">
        <ele>89.2</ele>
        <time>2021-05-17T14:20:38.000Z</time>
      </trkpt>
      <trkpt lat="44.86399" lon="0.62669">
        <ele>88.9</ele>
        <time>2021-05-17T14:20:39.000Z</time>
      </trkpt>
      <trkpt lat="44.86399" lon="0.62666">
        <ele>88.9</ele>
        <time>2021-05-17T14:20:40.000Z</time>
      </trkpt>
      <trkpt lat="44.86399" lon="0.62663">
        <ele>88.6</ele>
        <time>2021-05-17T14:20:41.000Z</time>
      </trkpt>
      <trkpt lat="44.86399" lon="0.62661">
        <ele>88</ele>
        <time>2021-05-17T14:20:42.000Z</time>
      </trkpt>
      <trkpt lat="44.86399" lon="0.62657">
        <ele>88.3</ele>
        <time>2021-05-17T14:20:43.000Z</time>
      </trkpt>
      <trkpt lat="44.864" lon="0.62656">
        <ele>88.1</ele>
        <time>2021-05-17T14:20:44.000Z</time>
      </trkpt>
      <trkpt lat="44.86401" lon="0.62651">
        <ele>88</ele>
        <time>2021-05-17T14:20:45.000Z</time>
      </trkpt>
      <trkpt lat="44.86401" lon="0.62649">
        <ele>88</ele>
        <time>2021-05-17T14:20:46.000Z</time>
      </trkpt>
      <trkpt lat="44.86403" lon="0.62645">
        <ele>88.3</ele>
        <time>2021-05-17T14:20:47.000Z</time>
      </trkpt>
      <trkpt lat="44.86403" lon="0.62644">
        <ele>88.3</ele>
        <time>2021-05-17T14:20:48.000Z</time>
      </trkpt>
      <trkpt lat="44.86404" lon="0.62642">
        <ele>88.4</ele>
        <time>2021-05-17T14:20:49.000Z</time>
      </trkpt>
      <trkpt lat="44.86405" lon="0.6264">
        <ele>88.4</ele>
        <time>2021-05-17T14:20:50.000Z</time>
      </trkpt>
      <trkpt lat="44.86407" lon="0.62637">
        <ele>88.5</ele>
        <time>2021-05-17T14:20:51.000Z</time>
      </trkpt>
      <trkpt lat="44.86407" lon="0.62635">
        <ele>88.5</ele>
        <time>2021-05-17T14:20:52.000Z</time>
      </trkpt>
      <trkpt lat="44.86407" lon="0.62634">
        <ele>88.6</ele>
        <time>2021-05-17T14:20:53.000Z</time>
      </trkpt>
      <trkpt lat="44.86407" lon="0.62631">
        <ele>88.6</ele>
        <time>2021-05-17T14:20:54.000Z</time>
      </trkpt>
      <trkpt lat="44.86408" lon="0.62627">
        <ele>88.7</ele>
        <time>2021-05-17T14:20:55.000Z</time>
      </trkpt>
      <trkpt lat="44.86409" lon="0.62625">
        <ele>88.7</ele>
        <time>2021-05-17T14:20:56.000Z</time>
      </trkpt>
      <trkpt lat="44.86411" lon="0.62622">
        <ele>88.8</ele>
        <time>2021-05-17T14:20:57.000Z</time>
      </trkpt>
      <trkpt lat="44.86414" lon="0.62619">
        <ele>88.9</ele>
        <time>2021-05-17T14:20:58.000Z</time>
      </trkpt>
      <trkpt lat="44.86415" lon="0.62616">
        <ele>89</ele>
        <time>2021-05-17T14:20:59.000Z</time>
      </trkpt>
      <trkpt lat="44.86417" lon="0.62611">
        <ele>89.1</ele>
        <time>2021-05-17T14:21:00.000Z</time>
      </trkpt>
      <trkpt lat="44.86417" lon="0.62609">
        <ele>89.1</ele>
        <time>2021-05-17T14:21:01.000Z</time>
      </trkpt>
      <trkpt lat="44.86418" lon="0.62604">
        <ele>89.2</ele>
        <time>2021-05-17T14:21:02.000Z</time>
      </trkpt>
      <trkpt lat="44.86419" lon="0.62601">
        <ele>89.3</ele>
        <time>2021-05-17T14:21:03.000Z</time>
      </trkpt>
      <trkpt lat="44.8642" lon="0.62597">
        <ele>89.4</ele>
        <time>2021-05-17T14:21:04.000Z</time>
      </trkpt>
      <trkpt lat="44.86422" lon="0.62594">
        <ele>89.5</ele>
        <time>2021-05-17T14:21:05.000Z</time>
      </trkpt>
      <trkpt lat="44.86425" lon="0.6259">
        <ele>89.6</ele>
        <time>2021-05-17T14:21:06.000Z</time>
      </trkpt>
      <trkpt lat="44.86425" lon="0.62589">
        <ele>89.7</ele>
        <time>2021-05-17T14:21:07.000Z</time>
      </trkpt>
      <trkpt lat="44.86427" lon="0.62583">
        <ele>89.8</ele>
        <time>2021-05-17T14:21:08.000Z</time>
      </trkpt>
      <trkpt lat="44.86428" lon="0.62582">
        <ele>89.9</ele>
        <time>2021-05-17T14:21:09.000Z</time>
      </trkpt>
      <trkpt lat="44.86429" lon="0.62577">
        <ele>90</ele>
        <time>2021-05-17T14:21:10.000Z</time>
      </trkpt>
      <trkpt lat="44.86431" lon="0.62574">
        <ele>90.1</ele>
        <time>2021-05-17T14:21:11.000Z</time>
      </trkpt>
      <trkpt lat="44.86432" lon="0.6257">
        <ele>90</ele>
        <time>2021-05-17T14:21:12.000Z</time>
      </trkpt>
      <trkpt lat="44.86433" lon="0.62568">
        <ele>89.9</ele>
        <time>2021-05-17T14:21:13.000Z</time>
      </trkpt>
      <trkpt lat="44.86433" lon="0.62566">
        <ele>89.9</ele>
        <time>2021-05-17T14:21:14.000Z</time>
      </trkpt>
      <trkpt lat="44.86433" lon="0.62562">
        <ele>89.8</ele>
        <time>2021-05-17T14:21:15.000Z</time>
      </trkpt>
      <trkpt lat="44.86434" lon="0.62561">
        <ele>89.8</ele>
        <time>2021-05-17T14:21:16.000Z</time>
      </trkpt>
      <trkpt lat="44.86434" lon="0.62561">
        <ele>89.8</ele>
        <time>2021-05-17T14:21:17.000Z</time>
      </trkpt>
      <trkpt lat="44.86433" lon="0.62561">
        <ele>89.7</ele>
        <time>2021-05-17T14:21:18.000Z</time>
      </trkpt>
      <trkpt lat="44.86431" lon="0.62562">
        <ele>89.7</ele>
        <time>2021-05-17T14:21:19.000Z</time>
      </trkpt>
      <trkpt lat="44.86429" lon="0.62561">
        <ele>89.6</ele>
        <time>2021-05-17T14:21:20.000Z</time>
      </trkpt>
      <trkpt lat="44.86428" lon="0.62561">
        <ele>89.6</ele>
        <time>2021-05-17T14:21:21.000Z</time>
      </trkpt>
      <trkpt lat="44.86427" lon="0.62561">
        <ele>89.6</ele>
        <time>2021-05-17T14:21:22.000Z</time>
      </trkpt>
      <trkpt lat="44.86426" lon="0.62562">
        <ele>89.6</ele>
        <time>2021-05-17T14:21:23.000Z</time>
      </trkpt>
      <trkpt lat="44.86425" lon="0.62563">
        <ele>89.5</ele>
        <time>2021-05-17T14:21:24.000Z</time>
      </trkpt>
      <trkpt lat="44.86424" lon="0.62563">
        <ele>89.5</ele>
        <time>2021-05-17T14:21:25.000Z</time>
      </trkpt>
      <trkpt lat="44.86422" lon="0.62565">
        <ele>89.4</ele>
        <time>2021-05-17T14:21:26.000Z</time>
      </trkpt>
      <trkpt lat="44.86422" lon="0.62568">
        <ele>89.4</ele>
        <time>2021-05-17T14:21:27.000Z</time>
      </trkpt>
      <trkpt lat="44.86419" lon="0.62571">
        <ele>89.3</ele>
        <time>2021-05-17T14:21:28.000Z</time>
      </trkpt>
      <trkpt lat="44.86417" lon="0.62572">
        <ele>89.2</ele>
        <time>2021-05-17T14:21:29.000Z</time>
      </trkpt>
      <trkpt lat="44.86415" lon="0.62575">
        <ele>89.1</ele>
        <time>2021-05-17T14:21:30.000Z</time>
      </trkpt>
      <trkpt lat="44.86414" lon="0.62577">
        <ele>89.1</ele>
        <time>2021-05-17T14:21:31.000Z</time>
      </trkpt>
      <trkpt lat="44.86412" lon="0.62582">
        <ele>89</ele>
        <time>2021-05-17T14:21:32.000Z</time>
      </trkpt>
      <trkpt lat="44.86411" lon="0.62585">
        <ele>89</ele>
        <time>2021-05-17T14:21:33.000Z</time>
      </trkpt>
      <trkpt lat="44.86409" lon="0.62586">
        <ele>88.9</ele>
        <time>2021-05-17T14:21:34.000Z</time>
      </trkpt>
      <trkpt lat="44.86407" lon="0.62588">
        <ele>88.9</ele>
        <time>2021-05-17T14:21:35.000Z</time>
      </trkpt>
      <trkpt lat="44.86405" lon="0.62592">
        <ele>88.8</ele>
        <time>2021-05-17T14:21:36.000Z</time>
      </trkpt>
      <trkpt lat="44.86402" lon="0.62599">
        <ele>88.7</ele>
        <time>2021-05-17T14:21:37.000Z</time>
      </trkpt>
      <trkpt lat="44.864" lon="0.62607">
        <ele>88.6</ele>
        <time>2021-05-17T14:21:38.000Z</time>
      </trkpt>
      <trkpt lat="44.86398" lon="0.62613">
        <ele>88.5</ele>
        <time>2021-05-17T14:21:39.000Z</time>
      </trkpt>
      <trkpt lat="44.86394" lon="0.62618">
        <ele>88.3</ele>
        <time>2021-05-17T14:21:40.000Z</time>
      </trkpt>
      <trkpt lat="44.86391" lon="0.6262">
        <ele>88.3</ele>
        <time>2021-05-17T14:21:41.000Z</time>
      </trkpt>
      <trkpt lat="44.86389" lon="0.62624">
        <ele>88.2</ele>
        <time>2021-05-17T14:21:42.000Z</time>
      </trkpt>
      <trkpt lat="44.86386" lon="0.62628">
        <ele>88.1</ele>
        <time>2021-05-17T14:21:43.000Z</time>
      </trkpt>
      <trkpt lat="44.86382" lon="0.62632">
        <ele>88</ele>
        <time>2021-05-17T14:21:44.000Z</time>
      </trkpt>
      <trkpt lat="44.86379" lon="0.62635">
        <ele>87.9</ele>
        <time>2021-05-17T14:21:45.000Z</time>
      </trkpt>
      <trkpt lat="44.86377" lon="0.62637">
        <ele>87.9</ele>
        <time>2021-05-17T14:21:46.000Z</time>
      </trkpt>
      <trkpt lat="44.86373" lon="0.62642">
        <ele>87.8</ele>
        <time>2021-05-17T14:21:47.000Z</time>
      </trkpt>
      <trkpt lat="44.8637" lon="0.62644">
        <ele>87.7</ele>
        <time>2021-05-17T14:21:48.000Z</time>
      </trkpt>
      <trkpt lat="44.86368" lon="0.62647">
        <ele>87.7</ele>
        <time>2021-05-17T14:21:49.000Z</time>
      </trkpt>
      <trkpt lat="44.86366" lon="0.62652">
        <ele>87.6</ele>
        <time>2021-05-17T14:21:50.000Z</time>
      </trkpt>
      <trkpt lat="44.86358" lon="0.62655">
        <ele>87.5</ele>
        <time>2021-05-17T14:21:51.000Z</time>
      </trkpt>
      <trkpt lat="44.86352" lon="0.62658">
        <ele>87.4</ele>
        <time>2021-05-17T14:21:52.000Z</time>
      </trkpt>
      <trkpt lat="44.86348" lon="0.62663">
        <ele>87.3</ele>
        <time>2021-05-17T14:21:53.000Z</time>
      </trkpt>
      <trkpt lat="44.86344" lon="0.62667">
        <ele>87.2</ele>
        <time>2021-05-17T14:21:54.000Z</time>
      </trkpt>
      <trkpt lat="44.86339" lon="0.6267">
        <ele>87.2</ele>
        <time>2021-05-17T14:21:55.000Z</time>
      </trkpt>
      <trkpt lat="44.86333" lon="0.62673">
        <ele>87.1</ele>
        <time>2021-05-17T14:21:56.000Z</time>
      </trkpt>
      <trkpt lat="44.86331" lon="0.62677">
        <ele>87.5</ele>
        <time>2021-05-17T14:21:57.000Z</time>
      </trkpt>
      <trkpt lat="44.86329" lon="0.62678">
        <ele>87.7</ele>
        <time>2021-05-17T14:21:58.000Z</time>
      </trkpt>
      <trkpt lat="44.86327" lon="0.62679">
        <ele>88</ele>
        <time>2021-05-17T14:21:59.000Z</time>
      </trkpt>
      <trkpt lat="44.86325" lon="0.62681">
        <ele>88.2</ele>
        <time>2021-05-17T14:22:00.000Z</time>
      </trkpt>
      <trkpt lat="44.86323" lon="0.62681">
        <ele>88.3</ele>
        <time>2021-05-17T14:22:01.000Z</time>
      </trkpt>
      <trkpt lat="44.8632" lon="0.6268">
        <ele>88.7</ele>
        <time>2021-05-17T14:22:02.000Z</time>
      </trkpt>
      <trkpt lat="44.86318" lon="0.62679">
        <ele>88.9</ele>
        <time>2021-05-17T14:22:03.000Z</time>
      </trkpt>
      <trkpt lat="44.86315" lon="0.6268">
        <ele>89.2</ele>
        <time>2021-05-17T14:22:04.000Z</time>
      </trkpt>
      <trkpt lat="44.86312" lon="0.62681">
        <ele>89.6</ele>
        <time>2021-05-17T14:22:05.000Z</time>
      </trkpt>
      <trkpt lat="44.86308" lon="0.62683">
        <ele>90.1</ele>
        <time>2021-05-17T14:22:06.000Z</time>
      </trkpt>
      <trkpt lat="44.86305" lon="0.62684">
        <ele>90.6</ele>
        <time>2021-05-17T14:22:07.000Z</time>
      </trkpt>
      <trkpt lat="44.86303" lon="0.62684">
        <ele>90.9</ele>
        <time>2021-05-17T14:22:08.000Z</time>
      </trkpt>
      <trkpt lat="44.863" lon="0.62685">
        <ele>91.5</ele>
        <time>2021-05-17T14:22:09.000Z</time>
      </trkpt>
      <trkpt lat="44.86298" lon="0.62686">
        <ele>91.7</ele>
        <time>2021-05-17T14:22:10.000Z</time>
      </trkpt>
      <trkpt lat="44.86294" lon="0.62686">
        <ele>92.4</ele>
        <time>2021-05-17T14:22:11.000Z</time>
      </trkpt>
      <trkpt lat="44.8629" lon="0.62686">
        <ele>93</ele>
        <time>2021-05-17T14:22:12.000Z</time>
      </trkpt>
      <trkpt lat="44.86289" lon="0.62686">
        <ele>93.2</ele>
        <time>2021-05-17T14:22:13.000Z</time>
      </trkpt>
      <trkpt lat="44.86289" lon="0.62686">
        <ele>93.4</ele>
        <time>2021-05-17T14:22:14.000Z</time>
      </trkpt>
      <trkpt lat="44.86287" lon="0.62684">
        <ele>93.7</ele>
        <time>2021-05-17T14:22:15.000Z</time>
      </trkpt>
      <trkpt lat="44.86286" lon="0.62684">
        <ele>94</ele>
        <time>2021-05-17T14:22:16.000Z</time>
      </trkpt>
      <trkpt lat="44.86284" lon="0.62681">
        <ele>94.4</ele>
        <time>2021-05-17T14:22:17.000Z</time>
      </trkpt>
      <trkpt lat="44.86284" lon="0.6268">
        <ele>94.6</ele>
        <time>2021-05-17T14:22:18.000Z</time>
      </trkpt>
      <trkpt lat="44.86283" lon="0.6268">
        <ele>94.8</ele>
        <time>2021-05-17T14:22:19.000Z</time>
      </trkpt>
      <trkpt lat="44.86281" lon="0.62678">
        <ele>95.2</ele>
        <time>2021-05-17T14:22:20.000Z</time>
      </trkpt>
      <trkpt lat="44.8628" lon="0.62678">
        <ele>95.4</ele>
        <time>2021-05-17T14:22:21.000Z</time>
      </trkpt>
      <trkpt lat="44.86279" lon="0.62678">
        <ele>95.5</ele>
        <time>2021-05-17T14:22:22.000Z</time>
      </trkpt>
      <trkpt lat="44.86278" lon="0.62676">
        <ele>95.8</ele>
        <time>2021-05-17T14:22:23.000Z</time>
      </trkpt>
      <trkpt lat="44.86278" lon="0.62674">
        <ele>96</ele>
        <time>2021-05-17T14:22:24.000Z</time>
      </trkpt>
      <trkpt lat="44.86278" lon="0.62672">
        <ele>96.3</ele>
        <time>2021-05-17T14:22:25.000Z</time>
      </trkpt>
      <trkpt lat="44.86278" lon="0.62671">
        <ele>96.5</ele>
        <time>2021-05-17T14:22:26.000Z</time>
      </trkpt>
      <trkpt lat="44.86278" lon="0.62669">
        <ele>96.7</ele>
        <time>2021-05-17T14:22:27.000Z</time>
      </trkpt>
      <trkpt lat="44.86278" lon="0.62667">
        <ele>97</ele>
        <time>2021-05-17T14:22:28.000Z</time>
      </trkpt>
      <trkpt lat="44.86277" lon="0.62665">
        <ele>97.2</ele>
        <time>2021-05-17T14:22:29.000Z</time>
      </trkpt>
      <trkpt lat="44.86276" lon="0.62664">
        <ele>97.4</ele>
        <time>2021-05-17T14:22:30.000Z</time>
      </trkpt>
      <trkpt lat="44.86276" lon="0.62662">
        <ele>97.7</ele>
        <time>2021-05-17T14:22:31.000Z</time>
      </trkpt>
      <trkpt lat="44.86276" lon="0.6266">
        <ele>97.9</ele>
        <time>2021-05-17T14:22:32.000Z</time>
      </trkpt>
      <trkpt lat="44.86278" lon="0.62657">
        <ele>98.5</ele>
        <time>2021-05-17T14:22:33.000Z</time>
      </trkpt>
      <trkpt lat="44.86279" lon="0.62656">
        <ele>98.7</ele>
        <time>2021-05-17T14:22:34.000Z</time>
      </trkpt>
      <trkpt lat="44.8628" lon="0.62654">
        <ele>99</ele>
        <time>2021-05-17T14:22:35.000Z</time>
      </trkpt>
      <trkpt lat="44.8628" lon="0.62653">
        <ele>99.2</ele>
        <time>2021-05-17T14:22:36.000Z</time>
      </trkpt>
      <trkpt lat="44.8628" lon="0.62651">
        <ele>99.3</ele>
        <time>2021-05-17T14:22:37.000Z</time>
      </trkpt>
      <trkpt lat="44.86282" lon="0.62648">
        <ele>99.8</ele>
        <time>2021-05-17T14:22:38.000Z</time>
      </trkpt>
      <trkpt lat="44.86282" lon="0.62646">
        <ele>100</ele>
        <time>2021-05-17T14:22:39.000Z</time>
      </trkpt>
      <trkpt lat="44.86283" lon="0.62644">
        <ele>100.3</ele>
        <time>2021-05-17T14:22:40.000Z</time>
      </trkpt>
      <trkpt lat="44.86284" lon="0.62643">
        <ele>100.5</ele>
        <time>2021-05-17T14:22:41.000Z</time>
      </trkpt>
      <trkpt lat="44.86285" lon="0.62641">
        <ele>100.7</ele>
        <time>2021-05-17T14:22:42.000Z</time>
      </trkpt>
      <trkpt lat="44.86285" lon="0.62638">
        <ele>101.1</ele>
        <time>2021-05-17T14:22:43.000Z</time>
      </trkpt>
      <trkpt lat="44.86283" lon="0.62633">
        <ele>101.7</ele>
        <time>2021-05-17T14:22:44.000Z</time>
      </trkpt>
      <trkpt lat="44.86283" lon="0.6263">
        <ele>101.9</ele>
        <time>2021-05-17T14:22:45.000Z</time>
      </trkpt>
      <trkpt lat="44.86283" lon="0.62625">
        <ele>102.5</ele>
        <time>2021-05-17T14:22:46.000Z</time>
      </trkpt>
      <trkpt lat="44.86284" lon="0.62622">
        <ele>102.7</ele>
        <time>2021-05-17T14:22:47.000Z</time>
      </trkpt>
      <trkpt lat="44.86284" lon="0.62618">
        <ele>103.1</ele>
        <time>2021-05-17T14:22:48.000Z</time>
      </trkpt>
      <trkpt lat="44.86285" lon="0.62614">
        <ele>103.4</ele>
        <time>2021-05-17T14:22:49.000Z</time>
      </trkpt>
      <trkpt lat="44.86287" lon="0.6261">
        <ele>103.8</ele>
        <time>2021-05-17T14:22:50.000Z</time>
      </trkpt>
      <trkpt lat="44.86287" lon="0.62609">
        <ele>103.9</ele>
        <time>2021-05-17T14:22:51.000Z</time>
      </trkpt>
      <trkpt lat="44.86288" lon="0.62607">
        <ele>104.1</ele>
        <time>2021-05-17T14:22:52.000Z</time>
      </trkpt>
      <trkpt lat="44.86288" lon="0.62605">
        <ele>104.2</ele>
        <time>2021-05-17T14:22:53.000Z</time>
      </trkpt>
      <trkpt lat="44.86289" lon="0.62601">
        <ele>104.5</ele>
        <time>2021-05-17T14:22:54.000Z</time>
      </trkpt>
      <trkpt lat="44.86289" lon="0.62595">
        <ele>104.8</ele>
        <time>2021-05-17T14:22:55.000Z</time>
      </trkpt>
      <trkpt lat="44.86288" lon="0.62593">
        <ele>104.9</ele>
        <time>2021-05-17T14:22:56.000Z</time>
      </trkpt>
      <trkpt lat="44.86288" lon="0.62591">
        <ele>105.1</ele>
        <time>2021-05-17T14:22:57.000Z</time>
      </trkpt>
      <trkpt lat="44.86288" lon="0.62589">
        <ele>105.2</ele>
        <time>2021-05-17T14:22:58.000Z</time>
      </trkpt>
      <trkpt lat="44.86288" lon="0.62585">
        <ele>105.4</ele>
        <time>2021-05-17T14:22:59.000Z</time>
      </trkpt>
      <trkpt lat="44.86288" lon="0.62581">
        <ele>105.6</ele>
        <time>2021-05-17T14:23:00.000Z</time>
      </trkpt>
      <trkpt lat="44.86288" lon="0.62579">
        <ele>105.7</ele>
        <time>2021-05-17T14:23:01.000Z</time>
      </trkpt>
      <trkpt lat="44.86287" lon="0.62575">
        <ele>105.9</ele>
        <time>2021-05-17T14:23:02.000Z</time>
      </trkpt>
      <trkpt lat="44.86287" lon="0.62574">
        <ele>105.9</ele>
        <time>2021-05-17T14:23:03.000Z</time>
      </trkpt>
      <trkpt lat="44.86286" lon="0.6257">
        <ele>106.1</ele>
        <time>2021-05-17T14:23:04.000Z</time>
      </trkpt>
      <trkpt lat="44.86286" lon="0.62568">
        <ele>106.2</ele>
        <time>2021-05-17T14:23:05.000Z</time>
      </trkpt>
      <trkpt lat="44.86285" lon="0.62566">
        <ele>106.2</ele>
        <time>2021-05-17T14:23:06.000Z</time>
      </trkpt>
      <trkpt lat="44.86285" lon="0.62566">
        <ele>106.3</ele>
        <time>2021-05-17T14:23:07.000Z</time>
      </trkpt>
      <trkpt lat="44.86284" lon="0.62564">
        <ele>106.4</ele>
        <time>2021-05-17T14:23:08.000Z</time>
      </trkpt>
      <trkpt lat="44.86282" lon="0.62563">
        <ele>106.5</ele>
        <time>2021-05-17T14:23:09.000Z</time>
      </trkpt>
      <trkpt lat="44.86281" lon="0.62561">
        <ele>106.6</ele>
        <time>2021-05-17T14:23:10.000Z</time>
      </trkpt>
      <trkpt lat="44.86281" lon="0.62559">
        <ele>106.7</ele>
        <time>2021-05-17T14:23:11.000Z</time>
      </trkpt>
      <trkpt lat="44.86281" lon="0.62559">
        <ele>106.7</ele>
        <time>2021-05-17T14:23:12.000Z</time>
      </trkpt>
      <trkpt lat="44.86278" lon="0.62562">
        <ele>106.8</ele>
        <time>2021-05-17T14:23:13.000Z</time>
      </trkpt>
      <trkpt lat="44.86277" lon="0.62561">
        <ele>106.9</ele>
        <time>2021-05-17T14:23:14.000Z</time>
      </trkpt>
      <trkpt lat="44.86275" lon="0.62562">
        <ele>107</ele>
        <time>2021-05-17T14:23:15.000Z</time>
      </trkpt>
      <trkpt lat="44.86272" lon="0.62563">
        <ele>107.2</ele>
        <time>2021-05-17T14:23:16.000Z</time>
      </trkpt>
      <trkpt lat="44.8627" lon="0.62563">
        <ele>107.3</ele>
        <time>2021-05-17T14:23:17.000Z</time>
      </trkpt>
      <trkpt lat="44.86266" lon="0.62563">
        <ele>107.4</ele>
        <time>2021-05-17T14:23:18.000Z</time>
      </trkpt>
      <trkpt lat="44.86264" lon="0.6256">
        <ele>107.6</ele>
        <time>2021-05-17T14:23:19.000Z</time>
      </trkpt>
      <trkpt lat="44.86263" lon="0.62559">
        <ele>107.6</ele>
        <time>2021-05-17T14:23:20.000Z</time>
      </trkpt>
      <trkpt lat="44.86258" lon="0.62557">
        <ele>107.8</ele>
        <time>2021-05-17T14:23:21.000Z</time>
      </trkpt>
      <trkpt lat="44.86254" lon="0.62556">
        <ele>108</ele>
        <time>2021-05-17T14:23:22.000Z</time>
      </trkpt>
      <trkpt lat="44.86252" lon="0.62554">
        <ele>108</ele>
        <time>2021-05-17T14:23:23.000Z</time>
      </trkpt>
      <trkpt lat="44.86251" lon="0.62553">
        <ele>108.1</ele>
        <time>2021-05-17T14:23:24.000Z</time>
      </trkpt>
      <trkpt lat="44.8625" lon="0.6255">
        <ele>108.2</ele>
        <time>2021-05-17T14:23:25.000Z</time>
      </trkpt>
      <trkpt lat="44.86246" lon="0.6255">
        <ele>108.3</ele>
        <time>2021-05-17T14:23:26.000Z</time>
      </trkpt>
      <trkpt lat="44.86244" lon="0.62548">
        <ele>108.4</ele>
        <time>2021-05-17T14:23:27.000Z</time>
      </trkpt>
      <trkpt lat="44.86243" lon="0.62547">
        <ele>108.5</ele>
        <time>2021-05-17T14:23:28.000Z</time>
      </trkpt>
      <trkpt lat="44.86243" lon="0.62545">
        <ele>108.5</ele>
        <time>2021-05-17T14:23:29.000Z</time>
      </trkpt>
      <trkpt lat="44.86243" lon="0.62542">
        <ele>108.6</ele>
        <time>2021-05-17T14:23:30.000Z</time>
      </trkpt>
      <trkpt lat="44.86244" lon="0.6254">
        <ele>108.6</ele>
        <time>2021-05-17T14:23:31.000Z</time>
      </trkpt>
      <trkpt lat="44.86243" lon="0.62538">
        <ele>108.7</ele>
        <time>2021-05-17T14:23:32.000Z</time>
      </trkpt>
      <trkpt lat="44.86241" lon="0.62535">
        <ele>108.8</ele>
        <time>2021-05-17T14:23:33.000Z</time>
      </trkpt>
      <trkpt lat="44.86239" lon="0.62532">
        <ele>108.9</ele>
        <time>2021-05-17T14:23:34.000Z</time>
      </trkpt>
      <trkpt lat="44.86236" lon="0.6253">
        <ele>109</ele>
        <time>2021-05-17T14:23:35.000Z</time>
      </trkpt>
      <trkpt lat="44.86235" lon="0.62529">
        <ele>109.1</ele>
        <time>2021-05-17T14:23:36.000Z</time>
      </trkpt>
      <trkpt lat="44.86234" lon="0.62526">
        <ele>109.1</ele>
        <time>2021-05-17T14:23:37.000Z</time>
      </trkpt>
      <trkpt lat="44.86233" lon="0.62524">
        <ele>109.2</ele>
        <time>2021-05-17T14:23:38.000Z</time>
      </trkpt>
      <trkpt lat="44.86232" lon="0.62521">
        <ele>109.3</ele>
        <time>2021-05-17T14:23:39.000Z</time>
      </trkpt>
      <trkpt lat="44.86231" lon="0.62518">
        <ele>109.3</ele>
        <time>2021-05-17T14:23:40.000Z</time>
      </trkpt>
      <trkpt lat="44.8623" lon="0.62517">
        <ele>109.4</ele>
        <time>2021-05-17T14:23:41.000Z</time>
      </trkpt>
      <trkpt lat="44.8623" lon="0.62513">
        <ele>109.5</ele>
        <time>2021-05-17T14:23:42.000Z</time>
      </trkpt>
      <trkpt lat="44.86229" lon="0.62511">
        <ele>109.5</ele>
        <time>2021-05-17T14:23:43.000Z</time>
      </trkpt>
      <trkpt lat="44.86229" lon="0.62505">
        <ele>109.7</ele>
        <time>2021-05-17T14:23:44.000Z</time>
      </trkpt>
      <trkpt lat="44.86229" lon="0.62503">
        <ele>109.7</ele>
        <time>2021-05-17T14:23:45.000Z</time>
      </trkpt>
      <trkpt lat="44.8623" lon="0.62498">
        <ele>109.8</ele>
        <time>2021-05-17T14:23:46.000Z</time>
      </trkpt>
      <trkpt lat="44.86231" lon="0.62497">
        <ele>109.9</ele>
        <time>2021-05-17T14:23:47.000Z</time>
      </trkpt>
      <trkpt lat="44.86231" lon="0.62495">
        <ele>109.9</ele>
        <time>2021-05-17T14:23:48.000Z</time>
      </trkpt>
      <trkpt lat="44.86231" lon="0.62491">
        <ele>110</ele>
        <time>2021-05-17T14:23:49.000Z</time>
      </trkpt>
      <trkpt lat="44.86232" lon="0.62485">
        <ele>110.1</ele>
        <time>2021-05-17T14:23:50.000Z</time>
      </trkpt>
      <trkpt lat="44.86231" lon="0.62483">
        <ele>110.2</ele>
        <time>2021-05-17T14:23:51.000Z</time>
      </trkpt>
      <trkpt lat="44.86233" lon="0.62479">
        <ele>110.3</ele>
        <time>2021-05-17T14:23:52.000Z</time>
      </trkpt>
      <trkpt lat="44.86233" lon="0.62478">
        <ele>110.3</ele>
        <time>2021-05-17T14:23:53.000Z</time>
      </trkpt>
      <trkpt lat="44.86236" lon="0.62474">
        <ele>110.4</ele>
        <time>2021-05-17T14:23:54.000Z</time>
      </trkpt>
      <trkpt lat="44.86236" lon="0.62472">
        <ele>110.5</ele>
        <time>2021-05-17T14:23:55.000Z</time>
      </trkpt>
      <trkpt lat="44.86237" lon="0.62467">
        <ele>110.6</ele>
        <time>2021-05-17T14:23:56.000Z</time>
      </trkpt>
      <trkpt lat="44.86239" lon="0.62461">
        <ele>110.7</ele>
        <time>2021-05-17T14:23:57.000Z</time>
      </trkpt>
      <trkpt lat="44.8624" lon="0.62459">
        <ele>110.7</ele>
        <time>2021-05-17T14:23:58.000Z</time>
      </trkpt>
      <trkpt lat="44.86242" lon="0.62455">
        <ele>110.8</ele>
        <time>2021-05-17T14:23:59.000Z</time>
      </trkpt>
      <trkpt lat="44.86243" lon="0.62451">
        <ele>110.9</ele>
        <time>2021-05-17T14:24:00.000Z</time>
      </trkpt>
      <trkpt lat="44.86244" lon="0.62449">
        <ele>110.9</ele>
        <time>2021-05-17T14:24:01.000Z</time>
      </trkpt>
      <trkpt lat="44.86244" lon="0.62447">
        <ele>110.9</ele>
        <time>2021-05-17T14:24:02.000Z</time>
      </trkpt>
      <trkpt lat="44.86246" lon="0.62446">
        <ele>111</ele>
        <time>2021-05-17T14:24:03.000Z</time>
      </trkpt>
      <trkpt lat="44.86247" lon="0.62445">
        <ele>111</ele>
        <time>2021-05-17T14:24:04.000Z</time>
      </trkpt>
      <trkpt lat="44.86248" lon="0.62445">
        <ele>111</ele>
        <time>2021-05-17T14:24:05.000Z</time>
      </trkpt>
      <trkpt lat="44.8625" lon="0.6244">
        <ele>111</ele>
        <time>2021-05-17T14:24:06.000Z</time>
      </trkpt>
      <trkpt lat="44.8625" lon="0.62439">
        <ele>111</ele>
        <time>2021-05-17T14:24:07.000Z</time>
      </trkpt>
      <trkpt lat="44.86251" lon="0.62435">
        <ele>111.1</ele>
        <time>2021-05-17T14:24:08.000Z</time>
      </trkpt>
      <trkpt lat="44.86252" lon="0.62434">
        <ele>111.1</ele>
        <time>2021-05-17T14:24:09.000Z</time>
      </trkpt>
      <trkpt lat="44.86254" lon="0.62429">
        <ele>111</ele>
        <time>2021-05-17T14:24:10.000Z</time>
      </trkpt>
      <trkpt lat="44.86255" lon="0.62427">
        <ele>111</ele>
        <time>2021-05-17T14:24:11.000Z</time>
      </trkpt>
      <trkpt lat="44.86255" lon="0.62422">
        <ele>111</ele>
        <time>2021-05-17T14:24:12.000Z</time>
      </trkpt>
      <trkpt lat="44.86254" lon="0.62418">
        <ele>111</ele>
        <time>2021-05-17T14:24:13.000Z</time>
      </trkpt>
      <trkpt lat="44.86254" lon="0.62417">
        <ele>111</ele>
        <time>2021-05-17T14:24:14.000Z</time>
      </trkpt>
      <trkpt lat="44.86253" lon="0.62414">
        <ele>110.9</ele>
        <time>2021-05-17T14:24:15.000Z</time>
      </trkpt>
      <trkpt lat="44.86252" lon="0.62409">
        <ele>110.9</ele>
        <time>2021-05-17T14:24:16.000Z</time>
      </trkpt>
      <trkpt lat="44.86251" lon="0.62408">
        <ele>110.9</ele>
        <time>2021-05-17T14:24:17.000Z</time>
      </trkpt>
      <trkpt lat="44.86252" lon="0.62404">
        <ele>110.8</ele>
        <time>2021-05-17T14:24:18.000Z</time>
      </trkpt>
      <trkpt lat="44.86252" lon="0.62399">
        <ele>110.8</ele>
        <time>2021-05-17T14:24:19.000Z</time>
      </trkpt>
      <trkpt lat="44.86252" lon="0.62397">
        <ele>110.7</ele>
        <time>2021-05-17T14:24:20.000Z</time>
      </trkpt>
      <trkpt lat="44.8625" lon="0.62392">
        <ele>110.6</ele>
        <time>2021-05-17T14:24:21.000Z</time>
      </trkpt>
      <trkpt lat="44.86249" lon="0.6239">
        <ele>110.6</ele>
        <time>2021-05-17T14:24:22.000Z</time>
      </trkpt>
      <trkpt lat="44.86249" lon="0.62385">
        <ele>110.5</ele>
        <time>2021-05-17T14:24:23.000Z</time>
      </trkpt>
      <trkpt lat="44.86248" lon="0.62382">
        <ele>110.5</ele>
        <time>2021-05-17T14:24:24.000Z</time>
      </trkpt>
      <trkpt lat="44.86247" lon="0.62377">
        <ele>110.4</ele>
        <time>2021-05-17T14:24:25.000Z</time>
      </trkpt>
      <trkpt lat="44.86246" lon="0.62371">
        <ele>110.2</ele>
        <time>2021-05-17T14:24:26.000Z</time>
      </trkpt>
      <trkpt lat="44.86245" lon="0.62365">
        <ele>110.1</ele>
        <time>2021-05-17T14:24:27.000Z</time>
      </trkpt>
      <trkpt lat="44.86244" lon="0.62358">
        <ele>109.9</ele>
        <time>2021-05-17T14:24:28.000Z</time>
      </trkpt>
      <trkpt lat="44.86242" lon="0.62354">
        <ele>109.8</ele>
        <time>2021-05-17T14:24:29.000Z</time>
      </trkpt>
      <trkpt lat="44.86243" lon="0.62348">
        <ele>109.6</ele>
        <time>2021-05-17T14:24:30.000Z</time>
      </trkpt>
      <trkpt lat="44.86241" lon="0.62343">
        <ele>109.4</ele>
        <time>2021-05-17T14:24:31.000Z</time>
      </trkpt>
      <trkpt lat="44.86239" lon="0.62335">
        <ele>109.3</ele>
        <time>2021-05-17T14:24:32.000Z</time>
      </trkpt>
      <trkpt lat="44.86238" lon="0.6233">
        <ele>109.1</ele>
        <time>2021-05-17T14:24:33.000Z</time>
      </trkpt>
      <trkpt lat="44.86238" lon="0.62324">
        <ele>108.9</ele>
        <time>2021-05-17T14:24:34.000Z</time>
      </trkpt>
      <trkpt lat="44.86238" lon="0.62321">
        <ele>108.9</ele>
        <time>2021-05-17T14:24:35.000Z</time>
      </trkpt>
      <trkpt lat="44.86238" lon="0.62316">
        <ele>108.8</ele>
        <time>2021-05-17T14:24:36.000Z</time>
      </trkpt>
      <trkpt lat="44.86237" lon="0.62314">
        <ele>108.7</ele>
        <time>2021-05-17T14:24:37.000Z</time>
      </trkpt>
      <trkpt lat="44.86237" lon="0.62309">
        <ele>108.6</ele>
        <time>2021-05-17T14:24:38.000Z</time>
      </trkpt>
      <trkpt lat="44.86238" lon="0.62305">
        <ele>108.5</ele>
        <time>2021-05-17T14:24:39.000Z</time>
      </trkpt>
      <trkpt lat="44.86237" lon="0.62299">
        <ele>108.4</ele>
        <time>2021-05-17T14:24:40.000Z</time>
      </trkpt>
      <trkpt lat="44.86237" lon="0.62295">
        <ele>108.2</ele>
        <time>2021-05-17T14:24:41.000Z</time>
      </trkpt>
      <trkpt lat="44.86237" lon="0.6229">
        <ele>108.1</ele>
        <time>2021-05-17T14:24:42.000Z</time>
      </trkpt>
      <trkpt lat="44.86237" lon="0.62286">
        <ele>108</ele>
        <time>2021-05-17T14:24:43.000Z</time>
      </trkpt>
      <trkpt lat="44.86237" lon="0.62284">
        <ele>108</ele>
        <time>2021-05-17T14:24:44.000Z</time>
      </trkpt>
      <trkpt lat="44.86238" lon="0.6228">
        <ele>107.9</ele>
        <time>2021-05-17T14:24:45.000Z</time>
      </trkpt>
      <trkpt lat="44.86237" lon="0.62276">
        <ele>107.8</ele>
        <time>2021-05-17T14:24:46.000Z</time>
      </trkpt>
      <trkpt lat="44.86238" lon="0.62271">
        <ele>107.7</ele>
        <time>2021-05-17T14:24:47.000Z</time>
      </trkpt>
      <trkpt lat="44.86238" lon="0.62268">
        <ele>107.7</ele>
        <time>2021-05-17T14:24:48.000Z</time>
      </trkpt>
      <trkpt lat="44.86239" lon="0.62263">
        <ele>107.5</ele>
        <time>2021-05-17T14:24:49.000Z</time>
      </trkpt>
      <trkpt lat="44.86239" lon="0.6226">
        <ele>107.5</ele>
        <time>2021-05-17T14:24:50.000Z</time>
      </trkpt>
      <trkpt lat="44.8624" lon="0.62256">
        <ele>107.4</ele>
        <time>2021-05-17T14:24:51.000Z</time>
      </trkpt>
      <trkpt lat="44.86242" lon="0.62252">
        <ele>107.4</ele>
        <time>2021-05-17T14:24:52.000Z</time>
      </trkpt>
      <trkpt lat="44.86244" lon="0.62248">
        <ele>107.3</ele>
        <time>2021-05-17T14:24:53.000Z</time>
      </trkpt>
      <trkpt lat="44.86245" lon="0.62246">
        <ele>107.3</ele>
        <time>2021-05-17T14:24:54.000Z</time>
      </trkpt>
      <trkpt lat="44.86247" lon="0.62242">
        <ele>107.2</ele>
        <time>2021-05-17T14:24:55.000Z</time>
      </trkpt>
      <trkpt lat="44.86249" lon="0.62236">
        <ele>107.1</ele>
        <time>2021-05-17T14:24:56.000Z</time>
      </trkpt>
      <trkpt lat="44.86251" lon="0.62231">
        <ele>107.1</ele>
        <time>2021-05-17T14:24:57.000Z</time>
      </trkpt>
      <trkpt lat="44.86253" lon="0.62228">
        <ele>107.1</ele>
        <time>2021-05-17T14:24:58.000Z</time>
      </trkpt>
      <trkpt lat="44.86256" lon="0.62225">
        <ele>107</ele>
        <time>2021-05-17T14:24:59.000Z</time>
      </trkpt>
      <trkpt lat="44.86257" lon="0.6222">
        <ele>107</ele>
        <time>2021-05-17T14:25:00.000Z</time>
      </trkpt>
      <trkpt lat="44.86258" lon="0.62218">
        <ele>107</ele>
        <time>2021-05-17T14:25:01.000Z</time>
      </trkpt>
      <trkpt lat="44.86258" lon="0.62214">
        <ele>107</ele>
        <time>2021-05-17T14:25:02.000Z</time>
      </trkpt>
      <trkpt lat="44.86261" lon="0.6221">
        <ele>107</ele>
        <time>2021-05-17T14:25:03.000Z</time>
      </trkpt>
      <trkpt lat="44.86261" lon="0.62208">
        <ele>107</ele>
        <time>2021-05-17T14:25:04.000Z</time>
      </trkpt>
      <trkpt lat="44.86261" lon="0.62204">
        <ele>107</ele>
        <time>2021-05-17T14:25:05.000Z</time>
      </trkpt>
      <trkpt lat="44.86262" lon="0.62202">
        <ele>107</ele>
        <time>2021-05-17T14:25:06.000Z</time>
      </trkpt>
      <trkpt lat="44.86262" lon="0.62196">
        <ele>107</ele>
        <time>2021-05-17T14:25:07.000Z</time>
      </trkpt>
      <trkpt lat="44.86262" lon="0.62194">
        <ele>107</ele>
        <time>2021-05-17T14:25:08.000Z</time>
      </trkpt>
      <trkpt lat="44.86262" lon="0.62189">
        <ele>107</ele>
        <time>2021-05-17T14:25:09.000Z</time>
      </trkpt>
      <trkpt lat="44.86261" lon="0.62185">
        <ele>107</ele>
        <time>2021-05-17T14:25:10.000Z</time>
      </trkpt>
      <trkpt lat="44.86262" lon="0.62179">
        <ele>107.1</ele>
        <time>2021-05-17T14:25:11.000Z</time>
      </trkpt>
      <trkpt lat="44.86261" lon="0.62175">
        <ele>107</ele>
        <time>2021-05-17T14:25:12.000Z</time>
      </trkpt>
      <trkpt lat="44.8626" lon="0.62173">
        <ele>107.1</ele>
        <time>2021-05-17T14:25:13.000Z</time>
      </trkpt>
      <trkpt lat="44.86259" lon="0.6217">
        <ele>107.1</ele>
        <time>2021-05-17T14:25:14.000Z</time>
      </trkpt>
      <trkpt lat="44.86259" lon="0.62168">
        <ele>106.8</ele>
        <time>2021-05-17T14:25:15.000Z</time>
      </trkpt>
      <trkpt lat="44.86259" lon="0.62167">
        <ele>106.8</ele>
        <time>2021-05-17T14:25:16.000Z</time>
      </trkpt>
      <trkpt lat="44.86258" lon="0.62166">
        <ele>106.8</ele>
        <time>2021-05-17T14:25:17.000Z</time>
      </trkpt>
      <trkpt lat="44.86257" lon="0.62165">
        <ele>106.8</ele>
        <time>2021-05-17T14:25:18.000Z</time>
      </trkpt>
      <trkpt lat="44.86255" lon="0.62164">
        <ele>106.5</ele>
        <time>2021-05-17T14:25:19.000Z</time>
      </trkpt>
      <trkpt lat="44.86254" lon="0.62161">
        <ele>106.5</ele>
        <time>2021-05-17T14:25:20.000Z</time>
      </trkpt>
      <trkpt lat="44.86251" lon="0.62158">
        <ele>106.3</ele>
        <time>2021-05-17T14:25:21.000Z</time>
      </trkpt>
      <trkpt lat="44.86249" lon="0.62151">
        <ele>106.1</ele>
        <time>2021-05-17T14:25:22.000Z</time>
      </trkpt>
      <trkpt lat="44.86248" lon="0.62148">
        <ele>106.1</ele>
        <time>2021-05-17T14:25:23.000Z</time>
      </trkpt>
      <trkpt lat="44.86247" lon="0.62144">
        <ele>106</ele>
        <time>2021-05-17T14:25:24.000Z</time>
      </trkpt>
      <trkpt lat="44.86245" lon="0.62142">
        <ele>106</ele>
        <time>2021-05-17T14:25:25.000Z</time>
      </trkpt>
      <trkpt lat="44.86244" lon="0.62139">
        <ele>105.9</ele>
        <time>2021-05-17T14:25:26.000Z</time>
      </trkpt>
      <trkpt lat="44.86243" lon="0.62137">
        <ele>106</ele>
        <time>2021-05-17T14:25:27.000Z</time>
      </trkpt>
      <trkpt lat="44.86244" lon="0.62132">
        <ele>106.1</ele>
        <time>2021-05-17T14:25:28.000Z</time>
      </trkpt>
      <trkpt lat="44.86244" lon="0.6213">
        <ele>106.4</ele>
        <time>2021-05-17T14:25:29.000Z</time>
      </trkpt>
      <trkpt lat="44.86244" lon="0.62127">
        <ele>106.5</ele>
        <time>2021-05-17T14:25:30.000Z</time>
      </trkpt>
      <trkpt lat="44.86244" lon="0.62126">
        <ele>106.3</ele>
        <time>2021-05-17T14:25:31.000Z</time>
      </trkpt>
      <trkpt lat="44.86244" lon="0.62122">
        <ele>106.5</ele>
        <time>2021-05-17T14:25:32.000Z</time>
      </trkpt>
      <trkpt lat="44.86244" lon="0.6212">
        <ele>106.5</ele>
        <time>2021-05-17T14:25:33.000Z</time>
      </trkpt>
      <trkpt lat="44.86245" lon="0.62116">
        <ele>106.9</ele>
        <time>2021-05-17T14:25:34.000Z</time>
      </trkpt>
      <trkpt lat="44.86245" lon="0.62114">
        <ele>107</ele>
        <time>2021-05-17T14:25:35.000Z</time>
      </trkpt>
      <trkpt lat="44.86244" lon="0.62111">
        <ele>107.1</ele>
        <time>2021-05-17T14:25:36.000Z</time>
      </trkpt>
      <trkpt lat="44.86243" lon="0.62107">
        <ele>107.3</ele>
        <time>2021-05-17T14:25:37.000Z</time>
      </trkpt>
      <trkpt lat="44.86242" lon="0.62103">
        <ele>107.3</ele>
        <time>2021-05-17T14:25:38.000Z</time>
      </trkpt>
      <trkpt lat="44.86242" lon="0.62102">
        <ele>107.5</ele>
        <time>2021-05-17T14:25:39.000Z</time>
      </trkpt>
      <trkpt lat="44.86242" lon="0.62097">
        <ele>107.8</ele>
        <time>2021-05-17T14:25:40.000Z</time>
      </trkpt>
      <trkpt lat="44.86242" lon="0.62094">
        <ele>107.8</ele>
        <time>2021-05-17T14:25:41.000Z</time>
      </trkpt>
      <trkpt lat="44.86242" lon="0.6209">
        <ele>108.3</ele>
        <time>2021-05-17T14:25:42.000Z</time>
      </trkpt>
      <trkpt lat="44.86241" lon="0.62084">
        <ele>108.3</ele>
        <time>2021-05-17T14:25:43.000Z</time>
      </trkpt>
      <trkpt lat="44.86241" lon="0.62082">
        <ele>108.5</ele>
        <time>2021-05-17T14:25:44.000Z</time>
      </trkpt>
      <trkpt lat="44.8624" lon="0.62078">
        <ele>108.6</ele>
        <time>2021-05-17T14:25:45.000Z</time>
      </trkpt>
      <trkpt lat="44.86238" lon="0.62075">
        <ele>108.7</ele>
        <time>2021-05-17T14:25:46.000Z</time>
      </trkpt>
      <trkpt lat="44.86238" lon="0.6207">
        <ele>108.8</ele>
        <time>2021-05-17T14:25:47.000Z</time>
      </trkpt>
      <trkpt lat="44.86238" lon="0.62069">
        <ele>108.9</ele>
        <time>2021-05-17T14:25:48.000Z</time>
      </trkpt>
      <trkpt lat="44.8624" lon="0.62063">
        <ele>109.3</ele>
        <time>2021-05-17T14:25:49.000Z</time>
      </trkpt>
      <trkpt lat="44.86241" lon="0.62061">
        <ele>109.3</ele>
        <time>2021-05-17T14:25:50.000Z</time>
      </trkpt>
      <trkpt lat="44.86243" lon="0.62058">
        <ele>109.5</ele>
        <time>2021-05-17T14:25:51.000Z</time>
      </trkpt>
      <trkpt lat="44.86243" lon="0.62057">
        <ele>109.5</ele>
        <time>2021-05-17T14:25:52.000Z</time>
      </trkpt>
      <trkpt lat="44.86244" lon="0.62052">
        <ele>109.7</ele>
        <time>2021-05-17T14:25:53.000Z</time>
      </trkpt>
      <trkpt lat="44.86244" lon="0.62051">
        <ele>109.8</ele>
        <time>2021-05-17T14:25:54.000Z</time>
      </trkpt>
      <trkpt lat="44.86243" lon="0.62047">
        <ele>109.9</ele>
        <time>2021-05-17T14:25:55.000Z</time>
      </trkpt>
      <trkpt lat="44.86241" lon="0.62042">
        <ele>110.1</ele>
        <time>2021-05-17T14:25:56.000Z</time>
      </trkpt>
      <trkpt lat="44.86241" lon="0.62038">
        <ele>110.1</ele>
        <time>2021-05-17T14:25:57.000Z</time>
      </trkpt>
      <trkpt lat="44.86241" lon="0.62033">
        <ele>110.2</ele>
        <time>2021-05-17T14:25:58.000Z</time>
      </trkpt>
      <trkpt lat="44.86241" lon="0.62032">
        <ele>110.2</ele>
        <time>2021-05-17T14:25:59.000Z</time>
      </trkpt>
      <trkpt lat="44.86242" lon="0.62028">
        <ele>110.5</ele>
        <time>2021-05-17T14:26:00.000Z</time>
      </trkpt>
      <trkpt lat="44.86242" lon="0.62026">
        <ele>110.6</ele>
        <time>2021-05-17T14:26:01.000Z</time>
      </trkpt>
      <trkpt lat="44.86245" lon="0.62023">
        <ele>110.9</ele>
        <time>2021-05-17T14:26:02.000Z</time>
      </trkpt>
      <trkpt lat="44.86245" lon="0.62022">
        <ele>110.9</ele>
        <time>2021-05-17T14:26:03.000Z</time>
      </trkpt>
      <trkpt lat="44.86248" lon="0.6202">
        <ele>111.2</ele>
        <time>2021-05-17T14:26:04.000Z</time>
      </trkpt>
      <trkpt lat="44.86249" lon="0.62019">
        <ele>111.3</ele>
        <time>2021-05-17T14:26:05.000Z</time>
      </trkpt>
      <trkpt lat="44.86249" lon="0.62016">
        <ele>111.5</ele>
        <time>2021-05-17T14:26:06.000Z</time>
      </trkpt>
      <trkpt lat="44.86248" lon="0.62014">
        <ele>111.5</ele>
        <time>2021-05-17T14:26:07.000Z</time>
      </trkpt>
      <trkpt lat="44.86249" lon="0.6201">
        <ele>111.7</ele>
        <time>2021-05-17T14:26:08.000Z</time>
      </trkpt>
      <trkpt lat="44.86249" lon="0.62005">
        <ele>111.9</ele>
        <time>2021-05-17T14:26:09.000Z</time>
      </trkpt>
      <trkpt lat="44.86249" lon="0.62004">
        <ele>112.2</ele>
        <time>2021-05-17T14:26:10.000Z</time>
      </trkpt>
      <trkpt lat="44.86248" lon="0.62">
        <ele>112.2</ele>
        <time>2021-05-17T14:26:11.000Z</time>
      </trkpt>
      <trkpt lat="44.86248" lon="0.61999">
        <ele>112.4</ele>
        <time>2021-05-17T14:26:12.000Z</time>
      </trkpt>
      <trkpt lat="44.86247" lon="0.61995">
        <ele>112.7</ele>
        <time>2021-05-17T14:26:13.000Z</time>
      </trkpt>
      <trkpt lat="44.86248" lon="0.61994">
        <ele>112.7</ele>
        <time>2021-05-17T14:26:14.000Z</time>
      </trkpt>
      <trkpt lat="44.86249" lon="0.6199">
        <ele>112.9</ele>
        <time>2021-05-17T14:26:15.000Z</time>
      </trkpt>
      <trkpt lat="44.86252" lon="0.61987">
        <ele>113</ele>
        <time>2021-05-17T14:26:16.000Z</time>
      </trkpt>
      <trkpt lat="44.86254" lon="0.61985">
        <ele>113.3</ele>
        <time>2021-05-17T14:26:17.000Z</time>
      </trkpt>
      <trkpt lat="44.86255" lon="0.61983">
        <ele>113.3</ele>
        <time>2021-05-17T14:26:18.000Z</time>
      </trkpt>
      <trkpt lat="44.86256" lon="0.61981">
        <ele>113.5</ele>
        <time>2021-05-17T14:26:19.000Z</time>
      </trkpt>
      <trkpt lat="44.86257" lon="0.61977">
        <ele>113.7</ele>
        <time>2021-05-17T14:26:20.000Z</time>
      </trkpt>
      <trkpt lat="44.86258" lon="0.61976">
        <ele>113.7</ele>
        <time>2021-05-17T14:26:21.000Z</time>
      </trkpt>
      <trkpt lat="44.86259" lon="0.61972">
        <ele>113.9</ele>
        <time>2021-05-17T14:26:22.000Z</time>
      </trkpt>
      <trkpt lat="44.8626" lon="0.61971">
        <ele>113.9</ele>
        <time>2021-05-17T14:26:23.000Z</time>
      </trkpt>
      <trkpt lat="44.86263" lon="0.61969">
        <ele>114.1</ele>
        <time>2021-05-17T14:26:24.000Z</time>
      </trkpt>
      <trkpt lat="44.86265" lon="0.61969">
        <ele>114.1</ele>
        <time>2021-05-17T14:26:25.000Z</time>
      </trkpt>
      <trkpt lat="44.86268" lon="0.61968">
        <ele>114.1</ele>
        <time>2021-05-17T14:26:26.000Z</time>
      </trkpt>
      <trkpt lat="44.86269" lon="0.61968">
        <ele>114.1</ele>
        <time>2021-05-17T14:26:27.000Z</time>
      </trkpt>
      <trkpt lat="44.86272" lon="0.61967">
        <ele>114.1</ele>
        <time>2021-05-17T14:26:28.000Z</time>
      </trkpt>
      <trkpt lat="44.86273" lon="0.61968">
        <ele>114.1</ele>
        <time>2021-05-17T14:26:29.000Z</time>
      </trkpt>
      <trkpt lat="44.86277" lon="0.61966">
        <ele>114.1</ele>
        <time>2021-05-17T14:26:30.000Z</time>
      </trkpt>
      <trkpt lat="44.86278" lon="0.61965">
        <ele>114.2</ele>
        <time>2021-05-17T14:26:31.000Z</time>
      </trkpt>
      <trkpt lat="44.86279" lon="0.61965">
        <ele>114.2</ele>
        <time>2021-05-17T14:26:32.000Z</time>
      </trkpt>
      <trkpt lat="44.86281" lon="0.61965">
        <ele>114.1</ele>
        <time>2021-05-17T14:26:33.000Z</time>
      </trkpt>
      <trkpt lat="44.86285" lon="0.61962">
        <ele>114.1</ele>
        <time>2021-05-17T14:26:34.000Z</time>
      </trkpt>
      <trkpt lat="44.86287" lon="0.6196">
        <ele>114.1</ele>
        <time>2021-05-17T14:26:35.000Z</time>
      </trkpt>
      <trkpt lat="44.86291" lon="0.61959">
        <ele>114.1</ele>
        <time>2021-05-17T14:26:36.000Z</time>
      </trkpt>
      <trkpt lat="44.86292" lon="0.6196">
        <ele>114.1</ele>
        <time>2021-05-17T14:26:37.000Z</time>
      </trkpt>
      <trkpt lat="44.86296" lon="0.61962">
        <ele>114</ele>
        <time>2021-05-17T14:26:38.000Z</time>
      </trkpt>
      <trkpt lat="44.86296" lon="0.61963">
        <ele>114</ele>
        <time>2021-05-17T14:26:39.000Z</time>
      </trkpt>
      <trkpt lat="44.86298" lon="0.61965">
        <ele>114</ele>
        <time>2021-05-17T14:26:40.000Z</time>
      </trkpt>
      <trkpt lat="44.86299" lon="0.61966">
        <ele>113.9</ele>
        <time>2021-05-17T14:26:41.000Z</time>
      </trkpt>
      <trkpt lat="44.863" lon="0.61967">
        <ele>113.9</ele>
        <time>2021-05-17T14:26:42.000Z</time>
      </trkpt>
      <trkpt lat="44.863" lon="0.6197">
        <ele>113.9</ele>
        <time>2021-05-17T14:26:43.000Z</time>
      </trkpt>
      <trkpt lat="44.86303" lon="0.61972">
        <ele>113.8</ele>
        <time>2021-05-17T14:26:44.000Z</time>
      </trkpt>
      <trkpt lat="44.86306" lon="0.61976">
        <ele>113.7</ele>
        <time>2021-05-17T14:26:45.000Z</time>
      </trkpt>
      <trkpt lat="44.86307" lon="0.61976">
        <ele>113.8</ele>
        <time>2021-05-17T14:26:46.000Z</time>
      </trkpt>
      <trkpt lat="44.8631" lon="0.61978">
        <ele>113.8</ele>
        <time>2021-05-17T14:26:47.000Z</time>
      </trkpt>
      <trkpt lat="44.86314" lon="0.61978">
        <ele>113.8</ele>
        <time>2021-05-17T14:26:48.000Z</time>
      </trkpt>
      <trkpt lat="44.86316" lon="0.61977">
        <ele>113.8</ele>
        <time>2021-05-17T14:26:49.000Z</time>
      </trkpt>
      <trkpt lat="44.86319" lon="0.61979">
        <ele>113.7</ele>
        <time>2021-05-17T14:26:50.000Z</time>
      </trkpt>
      <trkpt lat="44.86321" lon="0.61978">
        <ele>113.7</ele>
        <time>2021-05-17T14:26:51.000Z</time>
      </trkpt>
      <trkpt lat="44.86324" lon="0.61977">
        <ele>113.8</ele>
        <time>2021-05-17T14:26:52.000Z</time>
      </trkpt>
      <trkpt lat="44.86325" lon="0.61977">
        <ele>113.8</ele>
        <time>2021-05-17T14:26:53.000Z</time>
      </trkpt>
      <trkpt lat="44.86329" lon="0.61978">
        <ele>113.8</ele>
        <time>2021-05-17T14:26:54.000Z</time>
      </trkpt>
      <trkpt lat="44.8633" lon="0.61979">
        <ele>113.8</ele>
        <time>2021-05-17T14:26:55.000Z</time>
      </trkpt>
      <trkpt lat="44.86334" lon="0.61979">
        <ele>113.8</ele>
        <time>2021-05-17T14:26:56.000Z</time>
      </trkpt>
      <trkpt lat="44.86335" lon="0.6198">
        <ele>113.9</ele>
        <time>2021-05-17T14:26:57.000Z</time>
      </trkpt>
      <trkpt lat="44.86339" lon="0.6198">
        <ele>113.9</ele>
        <time>2021-05-17T14:26:58.000Z</time>
      </trkpt>
      <trkpt lat="44.8634" lon="0.6198">
        <ele>113.9</ele>
        <time>2021-05-17T14:26:59.000Z</time>
      </trkpt>
      <trkpt lat="44.86343" lon="0.61979">
        <ele>114</ele>
        <time>2021-05-17T14:27:00.000Z</time>
      </trkpt>
      <trkpt lat="44.86346" lon="0.6198">
        <ele>114</ele>
        <time>2021-05-17T14:27:01.000Z</time>
      </trkpt>
      <trkpt lat="44.86349" lon="0.61979">
        <ele>114</ele>
        <time>2021-05-17T14:27:02.000Z</time>
      </trkpt>
      <trkpt lat="44.86352" lon="0.61982">
        <ele>114.1</ele>
        <time>2021-05-17T14:27:03.000Z</time>
      </trkpt>
      <trkpt lat="44.86355" lon="0.61982">
        <ele>114.1</ele>
        <time>2021-05-17T14:27:04.000Z</time>
      </trkpt>
      <trkpt lat="44.86359" lon="0.61981">
        <ele>114.2</ele>
        <time>2021-05-17T14:27:05.000Z</time>
      </trkpt>
      <trkpt lat="44.8636" lon="0.6198">
        <ele>114.2</ele>
        <time>2021-05-17T14:27:06.000Z</time>
      </trkpt>
      <trkpt lat="44.86364" lon="0.61978">
        <ele>114.3</ele>
        <time>2021-05-17T14:27:07.000Z</time>
      </trkpt>
      <trkpt lat="44.86365" lon="0.61978">
        <ele>114.4</ele>
        <time>2021-05-17T14:27:08.000Z</time>
      </trkpt>
      <trkpt lat="44.86369" lon="0.61976">
        <ele>114.5</ele>
        <time>2021-05-17T14:27:09.000Z</time>
      </trkpt>
      <trkpt lat="44.8637" lon="0.61975">
        <ele>114.5</ele>
        <time>2021-05-17T14:27:10.000Z</time>
      </trkpt>
      <trkpt lat="44.86374" lon="0.61974">
        <ele>114.5</ele>
        <time>2021-05-17T14:27:11.000Z</time>
      </trkpt>
      <trkpt lat="44.86375" lon="0.61973">
        <ele>114.6</ele>
        <time>2021-05-17T14:27:12.000Z</time>
      </trkpt>
      <trkpt lat="44.86378" lon="0.6197">
        <ele>114.6</ele>
        <time>2021-05-17T14:27:13.000Z</time>
      </trkpt>
      <trkpt lat="44.86379" lon="0.61969">
        <ele>114.6</ele>
        <time>2021-05-17T14:27:14.000Z</time>
      </trkpt>
      <trkpt lat="44.86382" lon="0.61967">
        <ele>114.7</ele>
        <time>2021-05-17T14:27:15.000Z</time>
      </trkpt>
      <trkpt lat="44.86385" lon="0.61965">
        <ele>114.7</ele>
        <time>2021-05-17T14:27:16.000Z</time>
      </trkpt>
      <trkpt lat="44.86387" lon="0.61964">
        <ele>114.7</ele>
        <time>2021-05-17T14:27:17.000Z</time>
      </trkpt>
      <trkpt lat="44.86389" lon="0.61963">
        <ele>114.8</ele>
        <time>2021-05-17T14:27:18.000Z</time>
      </trkpt>
      <trkpt lat="44.86393" lon="0.61962">
        <ele>114.8</ele>
        <time>2021-05-17T14:27:19.000Z</time>
      </trkpt>
      <trkpt lat="44.86394" lon="0.61961">
        <ele>114.9</ele>
        <time>2021-05-17T14:27:20.000Z</time>
      </trkpt>
      <trkpt lat="44.86396" lon="0.61958">
        <ele>114.9</ele>
        <time>2021-05-17T14:27:21.000Z</time>
      </trkpt>
      <trkpt lat="44.86397" lon="0.61957">
        <ele>114.9</ele>
        <time>2021-05-17T14:27:22.000Z</time>
      </trkpt>
      <trkpt lat="44.86398" lon="0.61954">
        <ele>115</ele>
        <time>2021-05-17T14:27:23.000Z</time>
      </trkpt>
      <trkpt lat="44.86399" lon="0.61953">
        <ele>115</ele>
        <time>2021-05-17T14:27:24.000Z</time>
      </trkpt>
      <trkpt lat="44.86402" lon="0.61949">
        <ele>115.1</ele>
        <time>2021-05-17T14:27:25.000Z</time>
      </trkpt>
      <trkpt lat="44.86403" lon="0.61948">
        <ele>115.2</ele>
        <time>2021-05-17T14:27:26.000Z</time>
      </trkpt>
      <trkpt lat="44.86404" lon="0.61944">
        <ele>115.3</ele>
        <time>2021-05-17T14:27:27.000Z</time>
      </trkpt>
      <trkpt lat="44.86405" lon="0.61942">
        <ele>115.3</ele>
        <time>2021-05-17T14:27:28.000Z</time>
      </trkpt>
      <trkpt lat="44.86406" lon="0.61937">
        <ele>115.4</ele>
        <time>2021-05-17T14:27:29.000Z</time>
      </trkpt>
      <trkpt lat="44.86407" lon="0.61936">
        <ele>115.5</ele>
        <time>2021-05-17T14:27:30.000Z</time>
      </trkpt>
      <trkpt lat="44.86408" lon="0.61931">
        <ele>115.6</ele>
        <time>2021-05-17T14:27:31.000Z</time>
      </trkpt>
      <trkpt lat="44.86408" lon="0.61929">
        <ele>115.6</ele>
        <time>2021-05-17T14:27:32.000Z</time>
      </trkpt>
      <trkpt lat="44.8641" lon="0.61925">
        <ele>115.8</ele>
        <time>2021-05-17T14:27:33.000Z</time>
      </trkpt>
      <trkpt lat="44.8641" lon="0.61923">
        <ele>115.8</ele>
        <time>2021-05-17T14:27:34.000Z</time>
      </trkpt>
      <trkpt lat="44.86411" lon="0.61918">
        <ele>115.9</ele>
        <time>2021-05-17T14:27:35.000Z</time>
      </trkpt>
      <trkpt lat="44.86412" lon="0.61916">
        <ele>116</ele>
        <time>2021-05-17T14:27:36.000Z</time>
      </trkpt>
      <trkpt lat="44.86412" lon="0.61914">
        <ele>116</ele>
        <time>2021-05-17T14:27:37.000Z</time>
      </trkpt>
      <trkpt lat="44.86413" lon="0.61912">
        <ele>116.1</ele>
        <time>2021-05-17T14:27:38.000Z</time>
      </trkpt>
      <trkpt lat="44.86414" lon="0.61909">
        <ele>116.2</ele>
        <time>2021-05-17T14:27:39.000Z</time>
      </trkpt>
      <trkpt lat="44.86414" lon="0.61907">
        <ele>116.2</ele>
        <time>2021-05-17T14:27:40.000Z</time>
      </trkpt>
      <trkpt lat="44.86415" lon="0.61905">
        <ele>116.3</ele>
        <time>2021-05-17T14:27:41.000Z</time>
      </trkpt>
      <trkpt lat="44.86415" lon="0.61904">
        <ele>116.3</ele>
        <time>2021-05-17T14:27:42.000Z</time>
      </trkpt>
      <trkpt lat="44.86414" lon="0.61902">
        <ele>116.3</ele>
        <time>2021-05-17T14:27:43.000Z</time>
      </trkpt>
      <trkpt lat="44.86414" lon="0.61897">
        <ele>116.4</ele>
        <time>2021-05-17T14:27:44.000Z</time>
      </trkpt>
      <trkpt lat="44.86413" lon="0.61896">
        <ele>116.5</ele>
        <time>2021-05-17T14:27:45.000Z</time>
      </trkpt>
      <trkpt lat="44.86414" lon="0.6189">
        <ele>116.6</ele>
        <time>2021-05-17T14:27:46.000Z</time>
      </trkpt>
      <trkpt lat="44.86412" lon="0.61887">
        <ele>116.6</ele>
        <time>2021-05-17T14:27:47.000Z</time>
      </trkpt>
      <trkpt lat="44.86411" lon="0.61886">
        <ele>116.6</ele>
        <time>2021-05-17T14:27:48.000Z</time>
      </trkpt>
      <trkpt lat="44.86409" lon="0.61883">
        <ele>116.7</ele>
        <time>2021-05-17T14:27:49.000Z</time>
      </trkpt>
      <trkpt lat="44.86406" lon="0.61883">
        <ele>116.7</ele>
        <time>2021-05-17T14:27:50.000Z</time>
      </trkpt>
      <trkpt lat="44.86403" lon="0.61883">
        <ele>116.8</ele>
        <time>2021-05-17T14:27:51.000Z</time>
      </trkpt>
      <trkpt lat="44.864" lon="0.61882">
        <ele>116.8</ele>
        <time>2021-05-17T14:27:52.000Z</time>
      </trkpt>
      <trkpt lat="44.86399" lon="0.61882">
        <ele>116.8</ele>
        <time>2021-05-17T14:27:53.000Z</time>
      </trkpt>
      <trkpt lat="44.86398" lon="0.61883">
        <ele>116.8</ele>
        <time>2021-05-17T14:27:54.000Z</time>
      </trkpt>
      <trkpt lat="44.86396" lon="0.61883">
        <ele>116.8</ele>
        <time>2021-05-17T14:27:55.000Z</time>
      </trkpt>
      <trkpt lat="44.86396" lon="0.61882">
        <ele>116.8</ele>
        <time>2021-05-17T14:27:56.000Z</time>
      </trkpt>
      <trkpt lat="44.86395" lon="0.61882">
        <ele>116.8</ele>
        <time>2021-05-17T14:27:57.000Z</time>
      </trkpt>
      <trkpt lat="44.86395" lon="0.61882">
        <ele>116.8</ele>
        <time>2021-05-17T14:27:58.000Z</time>
      </trkpt>
      <trkpt lat="44.86395" lon="0.61881">
        <ele>116.8</ele>
        <time>2021-05-17T14:27:59.000Z</time>
      </trkpt>
      <trkpt lat="44.86396" lon="0.61879">
        <ele>116.8</ele>
        <time>2021-05-17T14:28:00.000Z</time>
      </trkpt>
      <trkpt lat="44.86396" lon="0.61878">
        <ele>116.8</ele>
        <time>2021-05-17T14:28:01.000Z</time>
      </trkpt>
      <trkpt lat="44.86396" lon="0.61877">
        <ele>116.8</ele>
        <time>2021-05-17T14:28:02.000Z</time>
      </trkpt>
      <trkpt lat="44.86396" lon="0.61876">
        <ele>116.8</ele>
        <time>2021-05-17T14:28:03.000Z</time>
      </trkpt>
      <trkpt lat="44.86399" lon="0.61871">
        <ele>116.8</ele>
        <time>2021-05-17T14:28:04.000Z</time>
      </trkpt>
      <trkpt lat="44.86401" lon="0.61865">
        <ele>116.8</ele>
        <time>2021-05-17T14:28:05.000Z</time>
      </trkpt>
      <trkpt lat="44.86404" lon="0.61859">
        <ele>116.8</ele>
        <time>2021-05-17T14:28:06.000Z</time>
      </trkpt>
      <trkpt lat="44.86409" lon="0.61854">
        <ele>116.8</ele>
        <time>2021-05-17T14:28:07.000Z</time>
      </trkpt>
      <trkpt lat="44.86414" lon="0.6185">
        <ele>116.7</ele>
        <time>2021-05-17T14:28:08.000Z</time>
      </trkpt>
      <trkpt lat="44.86419" lon="0.61848">
        <ele>116.7</ele>
        <time>2021-05-17T14:28:09.000Z</time>
      </trkpt>
      <trkpt lat="44.86423" lon="0.61843">
        <ele>116.6</ele>
        <time>2021-05-17T14:28:10.000Z</time>
      </trkpt>
      <trkpt lat="44.86427" lon="0.6184">
        <ele>116.6</ele>
        <time>2021-05-17T14:28:11.000Z</time>
      </trkpt>
      <trkpt lat="44.86431" lon="0.61835">
        <ele>116.5</ele>
        <time>2021-05-17T14:28:12.000Z</time>
      </trkpt>
      <trkpt lat="44.86435" lon="0.61832">
        <ele>116.4</ele>
        <time>2021-05-17T14:28:13.000Z</time>
      </trkpt>
      <trkpt lat="44.86438" lon="0.61828">
        <ele>116.4</ele>
        <time>2021-05-17T14:28:14.000Z</time>
      </trkpt>
      <trkpt lat="44.8644" lon="0.61825">
        <ele>116.4</ele>
        <time>2021-05-17T14:28:15.000Z</time>
      </trkpt>
      <trkpt lat="44.86443" lon="0.61822">
        <ele>116.4</ele>
        <time>2021-05-17T14:28:16.000Z</time>
      </trkpt>
      <trkpt lat="44.86445" lon="0.61819">
        <ele>116.4</ele>
        <time>2021-05-17T14:28:17.000Z</time>
      </trkpt>
      <trkpt lat="44.86449" lon="0.61816">
        <ele>116.4</ele>
        <time>2021-05-17T14:28:18.000Z</time>
      </trkpt>
      <trkpt lat="44.86454" lon="0.61811">
        <ele>116.4</ele>
        <time>2021-05-17T14:28:19.000Z</time>
      </trkpt>
      <trkpt lat="44.86458" lon="0.61808">
        <ele>116.5</ele>
        <time>2021-05-17T14:28:20.000Z</time>
      </trkpt>
      <trkpt lat="44.86462" lon="0.61805">
        <ele>116.5</ele>
        <time>2021-05-17T14:28:21.000Z</time>
      </trkpt>
      <trkpt lat="44.86465" lon="0.61801">
        <ele>116.5</ele>
        <time>2021-05-17T14:28:22.000Z</time>
      </trkpt>
      <trkpt lat="44.86468" lon="0.61798">
        <ele>116.5</ele>
        <time>2021-05-17T14:28:23.000Z</time>
      </trkpt>
      <trkpt lat="44.86472" lon="0.61794">
        <ele>116.5</ele>
        <time>2021-05-17T14:28:24.000Z</time>
      </trkpt>
      <trkpt lat="44.86475" lon="0.6179">
        <ele>116.5</ele>
        <time>2021-05-17T14:28:25.000Z</time>
      </trkpt>
      <trkpt lat="44.86479" lon="0.61787">
        <ele>116.5</ele>
        <time>2021-05-17T14:28:26.000Z</time>
      </trkpt>
      <trkpt lat="44.86483" lon="0.61783">
        <ele>116.6</ele>
        <time>2021-05-17T14:28:27.000Z</time>
      </trkpt>
      <trkpt lat="44.86487" lon="0.6178">
        <ele>116.6</ele>
        <time>2021-05-17T14:28:28.000Z</time>
      </trkpt>
      <trkpt lat="44.86492" lon="0.61777">
        <ele>116.7</ele>
        <time>2021-05-17T14:28:29.000Z</time>
      </trkpt>
      <trkpt lat="44.86495" lon="0.61774">
        <ele>116.7</ele>
        <time>2021-05-17T14:28:30.000Z</time>
      </trkpt>
      <trkpt lat="44.86499" lon="0.61771">
        <ele>116.8</ele>
        <time>2021-05-17T14:28:31.000Z</time>
      </trkpt>
      <trkpt lat="44.86503" lon="0.61769">
        <ele>116.9</ele>
        <time>2021-05-17T14:28:32.000Z</time>
      </trkpt>
      <trkpt lat="44.86507" lon="0.61767">
        <ele>117</ele>
        <time>2021-05-17T14:28:33.000Z</time>
      </trkpt>
      <trkpt lat="44.86511" lon="0.61765">
        <ele>117.1</ele>
        <time>2021-05-17T14:28:34.000Z</time>
      </trkpt>
      <trkpt lat="44.86515" lon="0.61763">
        <ele>117.1</ele>
        <time>2021-05-17T14:28:35.000Z</time>
      </trkpt>
      <trkpt lat="44.86518" lon="0.61762">
        <ele>117.2</ele>
        <time>2021-05-17T14:28:36.000Z</time>
      </trkpt>
      <trkpt lat="44.86522" lon="0.61759">
        <ele>117.3</ele>
        <time>2021-05-17T14:28:37.000Z</time>
      </trkpt>
      <trkpt lat="44.86525" lon="0.61756">
        <ele>117.4</ele>
        <time>2021-05-17T14:28:38.000Z</time>
      </trkpt>
      <trkpt lat="44.86529" lon="0.61754">
        <ele>117.5</ele>
        <time>2021-05-17T14:28:39.000Z</time>
      </trkpt>
      <trkpt lat="44.86532" lon="0.61752">
        <ele>117.5</ele>
        <time>2021-05-17T14:28:40.000Z</time>
      </trkpt>
      <trkpt lat="44.86537" lon="0.6175">
        <ele>117.6</ele>
        <time>2021-05-17T14:28:41.000Z</time>
      </trkpt>
      <trkpt lat="44.8654" lon="0.61748">
        <ele>117.7</ele>
        <time>2021-05-17T14:28:42.000Z</time>
      </trkpt>
      <trkpt lat="44.86544" lon="0.61746">
        <ele>117.8</ele>
        <time>2021-05-17T14:28:43.000Z</time>
      </trkpt>
      <trkpt lat="44.86547" lon="0.61744">
        <ele>117.9</ele>
        <time>2021-05-17T14:28:44.000Z</time>
      </trkpt>
      <trkpt lat="44.8655" lon="0.61741">
        <ele>118</ele>
        <time>2021-05-17T14:28:45.000Z</time>
      </trkpt>
      <trkpt lat="44.86552" lon="0.61738">
        <ele>118.1</ele>
        <time>2021-05-17T14:28:46.000Z</time>
      </trkpt>
      <trkpt lat="44.86554" lon="0.61734">
        <ele>118.2</ele>
        <time>2021-05-17T14:28:47.000Z</time>
      </trkpt>
      <trkpt lat="44.86554" lon="0.6173">
        <ele>118.3</ele>
        <time>2021-05-17T14:28:48.000Z</time>
      </trkpt>
      <trkpt lat="44.86554" lon="0.61726">
        <ele>118.3</ele>
        <time>2021-05-17T14:28:49.000Z</time>
      </trkpt>
      <trkpt lat="44.86553" lon="0.61724">
        <ele>118.3</ele>
        <time>2021-05-17T14:28:50.000Z</time>
      </trkpt>
      <trkpt lat="44.86553" lon="0.61722">
        <ele>118.4</ele>
        <time>2021-05-17T14:28:51.000Z</time>
      </trkpt>
      <trkpt lat="44.86552" lon="0.6172">
        <ele>118.4</ele>
        <time>2021-05-17T14:28:52.000Z</time>
      </trkpt>
      <trkpt lat="44.8655" lon="0.61716">
        <ele>118.4</ele>
        <time>2021-05-17T14:28:53.000Z</time>
      </trkpt>
      <trkpt lat="44.86549" lon="0.61715">
        <ele>118.4</ele>
        <time>2021-05-17T14:28:54.000Z</time>
      </trkpt>
      <trkpt lat="44.86547" lon="0.6171">
        <ele>118.5</ele>
        <time>2021-05-17T14:28:55.000Z</time>
      </trkpt>
      <trkpt lat="44.86547" lon="0.61709">
        <ele>118.5</ele>
        <time>2021-05-17T14:28:56.000Z</time>
      </trkpt>
      <trkpt lat="44.86546" lon="0.61704">
        <ele>118.5</ele>
        <time>2021-05-17T14:28:57.000Z</time>
      </trkpt>
      <trkpt lat="44.86545" lon="0.617">
        <ele>118.6</ele>
        <time>2021-05-17T14:28:58.000Z</time>
      </trkpt>
      <trkpt lat="44.86543" lon="0.61695">
        <ele>118.6</ele>
        <time>2021-05-17T14:28:59.000Z</time>
      </trkpt>
      <trkpt lat="44.86542" lon="0.61691">
        <ele>118.7</ele>
        <time>2021-05-17T14:29:00.000Z</time>
      </trkpt>
      <trkpt lat="44.86541" lon="0.61688">
        <ele>118.8</ele>
        <time>2021-05-17T14:29:01.000Z</time>
      </trkpt>
      <trkpt lat="44.8654" lon="0.61682">
        <ele>118.9</ele>
        <time>2021-05-17T14:29:02.000Z</time>
      </trkpt>
      <trkpt lat="44.8654" lon="0.6168">
        <ele>118.9</ele>
        <time>2021-05-17T14:29:03.000Z</time>
      </trkpt>
      <trkpt lat="44.8654" lon="0.61674">
        <ele>119</ele>
        <time>2021-05-17T14:29:04.000Z</time>
      </trkpt>
      <trkpt lat="44.8654" lon="0.61672">
        <ele>119.1</ele>
        <time>2021-05-17T14:29:05.000Z</time>
      </trkpt>
      <trkpt lat="44.86538" lon="0.61668">
        <ele>119.2</ele>
        <time>2021-05-17T14:29:06.000Z</time>
      </trkpt>
      <trkpt lat="44.86536" lon="0.61665">
        <ele>119.2</ele>
        <time>2021-05-17T14:29:07.000Z</time>
      </trkpt>
      <trkpt lat="44.86534" lon="0.6166">
        <ele>119.3</ele>
        <time>2021-05-17T14:29:08.000Z</time>
      </trkpt>
      <trkpt lat="44.86534" lon="0.61657">
        <ele>119.4</ele>
        <time>2021-05-17T14:29:09.000Z</time>
      </trkpt>
      <trkpt lat="44.86533" lon="0.61652">
        <ele>119.5</ele>
        <time>2021-05-17T14:29:10.000Z</time>
      </trkpt>
      <trkpt lat="44.86532" lon="0.61647">
        <ele>119.6</ele>
        <time>2021-05-17T14:29:11.000Z</time>
      </trkpt>
      <trkpt lat="44.86531" lon="0.61642">
        <ele>119.7</ele>
        <time>2021-05-17T14:29:12.000Z</time>
      </trkpt>
      <trkpt lat="44.86531" lon="0.6164">
        <ele>119.7</ele>
        <time>2021-05-17T14:29:13.000Z</time>
      </trkpt>
      <trkpt lat="44.8653" lon="0.61636">
        <ele>119.8</ele>
        <time>2021-05-17T14:29:14.000Z</time>
      </trkpt>
      <trkpt lat="44.86529" lon="0.61633">
        <ele>119.9</ele>
        <time>2021-05-17T14:29:15.000Z</time>
      </trkpt>
      <trkpt lat="44.86529" lon="0.61627">
        <ele>120</ele>
        <time>2021-05-17T14:29:16.000Z</time>
      </trkpt>
      <trkpt lat="44.86529" lon="0.61625">
        <ele>120</ele>
        <time>2021-05-17T14:29:17.000Z</time>
      </trkpt>
      <trkpt lat="44.86529" lon="0.6162">
        <ele>120.1</ele>
        <time>2021-05-17T14:29:18.000Z</time>
      </trkpt>
      <trkpt lat="44.86528" lon="0.61615">
        <ele>120.3</ele>
        <time>2021-05-17T14:29:19.000Z</time>
      </trkpt>
      <trkpt lat="44.86527" lon="0.61608">
        <ele>120.4</ele>
        <time>2021-05-17T14:29:20.000Z</time>
      </trkpt>
      <trkpt lat="44.86526" lon="0.61603">
        <ele>120.5</ele>
        <time>2021-05-17T14:29:21.000Z</time>
      </trkpt>
      <trkpt lat="44.86525" lon="0.61598">
        <ele>120.7</ele>
        <time>2021-05-17T14:29:22.000Z</time>
      </trkpt>
      <trkpt lat="44.86524" lon="0.61594">
        <ele>120.8</ele>
        <time>2021-05-17T14:29:23.000Z</time>
      </trkpt>
      <trkpt lat="44.86523" lon="0.61589">
        <ele>121</ele>
        <time>2021-05-17T14:29:24.000Z</time>
      </trkpt>
      <trkpt lat="44.86522" lon="0.61582">
        <ele>121.3</ele>
        <time>2021-05-17T14:29:25.000Z</time>
      </trkpt>
      <trkpt lat="44.86522" lon="0.61574">
        <ele>121.6</ele>
        <time>2021-05-17T14:29:26.000Z</time>
      </trkpt>
      <trkpt lat="44.86521" lon="0.61567">
        <ele>121.9</ele>
        <time>2021-05-17T14:29:27.000Z</time>
      </trkpt>
      <trkpt lat="44.86519" lon="0.61559">
        <ele>122.3</ele>
        <time>2021-05-17T14:29:28.000Z</time>
      </trkpt>
      <trkpt lat="44.86517" lon="0.61553">
        <ele>122.5</ele>
        <time>2021-05-17T14:29:29.000Z</time>
      </trkpt>
      <trkpt lat="44.86515" lon="0.61547">
        <ele>122.8</ele>
        <time>2021-05-17T14:29:30.000Z</time>
      </trkpt>
      <trkpt lat="44.86512" lon="0.61539">
        <ele>123.1</ele>
        <time>2021-05-17T14:29:31.000Z</time>
      </trkpt>
      <trkpt lat="44.86508" lon="0.61533">
        <ele>123.4</ele>
        <time>2021-05-17T14:29:32.000Z</time>
      </trkpt>
      <trkpt lat="44.86505" lon="0.61527">
        <ele>123.7</ele>
        <time>2021-05-17T14:29:33.000Z</time>
      </trkpt>
      <trkpt lat="44.86501" lon="0.61521">
        <ele>124</ele>
        <time>2021-05-17T14:29:34.000Z</time>
      </trkpt>
      <trkpt lat="44.86498" lon="0.61515">
        <ele>124.2</ele>
        <time>2021-05-17T14:29:35.000Z</time>
      </trkpt>
      <trkpt lat="44.86496" lon="0.6151">
        <ele>124.5</ele>
        <time>2021-05-17T14:29:36.000Z</time>
      </trkpt>
      <trkpt lat="44.86494" lon="0.61502">
        <ele>124.9</ele>
        <time>2021-05-17T14:29:37.000Z</time>
      </trkpt>
      <trkpt lat="44.86492" lon="0.61497">
        <ele>125.2</ele>
        <time>2021-05-17T14:29:38.000Z</time>
      </trkpt>
      <trkpt lat="44.8649" lon="0.61493">
        <ele>125.5</ele>
        <time>2021-05-17T14:29:39.000Z</time>
      </trkpt>
      <trkpt lat="44.86488" lon="0.61486">
        <ele>125.9</ele>
        <time>2021-05-17T14:29:40.000Z</time>
      </trkpt>
      <trkpt lat="44.86486" lon="0.6148">
        <ele>126.3</ele>
        <time>2021-05-17T14:29:41.000Z</time>
      </trkpt>
      <trkpt lat="44.86484" lon="0.61474">
        <ele>126.6</ele>
        <time>2021-05-17T14:29:42.000Z</time>
      </trkpt>
      <trkpt lat="44.86482" lon="0.61468">
        <ele>127</ele>
        <time>2021-05-17T14:29:43.000Z</time>
      </trkpt>
      <trkpt lat="44.8648" lon="0.61462">
        <ele>127.3</ele>
        <time>2021-05-17T14:29:44.000Z</time>
      </trkpt>
      <trkpt lat="44.86477" lon="0.61456">
        <ele>127.6</ele>
        <time>2021-05-17T14:29:45.000Z</time>
      </trkpt>
      <trkpt lat="44.86475" lon="0.61451">
        <ele>127.9</ele>
        <time>2021-05-17T14:29:46.000Z</time>
      </trkpt>
      <trkpt lat="44.86473" lon="0.61446">
        <ele>128.2</ele>
        <time>2021-05-17T14:29:47.000Z</time>
      </trkpt>
      <trkpt lat="44.8647" lon="0.61439">
        <ele>128.5</ele>
        <time>2021-05-17T14:29:48.000Z</time>
      </trkpt>
      <trkpt lat="44.86468" lon="0.61434">
        <ele>128.8</ele>
        <time>2021-05-17T14:29:49.000Z</time>
      </trkpt>
      <trkpt lat="44.86466" lon="0.61429">
        <ele>129.1</ele>
        <time>2021-05-17T14:29:50.000Z</time>
      </trkpt>
      <trkpt lat="44.86463" lon="0.61424">
        <ele>129.4</ele>
        <time>2021-05-17T14:29:51.000Z</time>
      </trkpt>
      <trkpt lat="44.86461" lon="0.61419">
        <ele>129.6</ele>
        <time>2021-05-17T14:29:52.000Z</time>
      </trkpt>
      <trkpt lat="44.86462" lon="0.61414">
        <ele>129.9</ele>
        <time>2021-05-17T14:29:53.000Z</time>
      </trkpt>
      <trkpt lat="44.86462" lon="0.6141">
        <ele>130.7</ele>
        <time>2021-05-17T14:29:54.000Z</time>
      </trkpt>
      <trkpt lat="44.86464" lon="0.61408">
        <ele>130.8</ele>
        <time>2021-05-17T14:29:55.000Z</time>
      </trkpt>
      <trkpt lat="44.86465" lon="0.61406">
        <ele>130.8</ele>
        <time>2021-05-17T14:29:56.000Z</time>
      </trkpt>
      <trkpt lat="44.86465" lon="0.61401">
        <ele>130.8</ele>
        <time>2021-05-17T14:29:57.000Z</time>
      </trkpt>
      <trkpt lat="44.86465" lon="0.61399">
        <ele>130.8</ele>
        <time>2021-05-17T14:29:58.000Z</time>
      </trkpt>
      <trkpt lat="44.86467" lon="0.61395">
        <ele>130.9</ele>
        <time>2021-05-17T14:29:59.000Z</time>
      </trkpt>
      <trkpt lat="44.86468" lon="0.61393">
        <ele>130.9</ele>
        <time>2021-05-17T14:30:00.000Z</time>
      </trkpt>
      <trkpt lat="44.86468" lon="0.61389">
        <ele>131</ele>
        <time>2021-05-17T14:30:01.000Z</time>
      </trkpt>
      <trkpt lat="44.86468" lon="0.61384">
        <ele>131</ele>
        <time>2021-05-17T14:30:02.000Z</time>
      </trkpt>
      <trkpt lat="44.86468" lon="0.61382">
        <ele>131</ele>
        <time>2021-05-17T14:30:03.000Z</time>
      </trkpt>
      <trkpt lat="44.86468" lon="0.61378">
        <ele>131.1</ele>
        <time>2021-05-17T14:30:04.000Z</time>
      </trkpt>
      <trkpt lat="44.86468" lon="0.61376">
        <ele>131.1</ele>
        <time>2021-05-17T14:30:05.000Z</time>
      </trkpt>
      <trkpt lat="44.86469" lon="0.61372">
        <ele>131.1</ele>
        <time>2021-05-17T14:30:06.000Z</time>
      </trkpt>
      <trkpt lat="44.8647" lon="0.61367">
        <ele>131.1</ele>
        <time>2021-05-17T14:30:07.000Z</time>
      </trkpt>
      <trkpt lat="44.8647" lon="0.61362">
        <ele>131.2</ele>
        <time>2021-05-17T14:30:08.000Z</time>
      </trkpt>
      <trkpt lat="44.86471" lon="0.61358">
        <ele>131.2</ele>
        <time>2021-05-17T14:30:09.000Z</time>
      </trkpt>
      <trkpt lat="44.86472" lon="0.61354">
        <ele>131.2</ele>
        <time>2021-05-17T14:30:10.000Z</time>
      </trkpt>
      <trkpt lat="44.86472" lon="0.61349">
        <ele>131.3</ele>
        <time>2021-05-17T14:30:11.000Z</time>
      </trkpt>
      <trkpt lat="44.86472" lon="0.61344">
        <ele>131.3</ele>
        <time>2021-05-17T14:30:12.000Z</time>
      </trkpt>
      <trkpt lat="44.86473" lon="0.61339">
        <ele>131.4</ele>
        <time>2021-05-17T14:30:13.000Z</time>
      </trkpt>
      <trkpt lat="44.86474" lon="0.61337">
        <ele>131.4</ele>
        <time>2021-05-17T14:30:14.000Z</time>
      </trkpt>
      <trkpt lat="44.86475" lon="0.61333">
        <ele>131.4</ele>
        <time>2021-05-17T14:30:15.000Z</time>
      </trkpt>
      <trkpt lat="44.86475" lon="0.61327">
        <ele>131.4</ele>
        <time>2021-05-17T14:30:16.000Z</time>
      </trkpt>
      <trkpt lat="44.86475" lon="0.61322">
        <ele>131.5</ele>
        <time>2021-05-17T14:30:17.000Z</time>
      </trkpt>
      <trkpt lat="44.86475" lon="0.61318">
        <ele>131.5</ele>
        <time>2021-05-17T14:30:18.000Z</time>
      </trkpt>
      <trkpt lat="44.86476" lon="0.61314">
        <ele>131.5</ele>
        <time>2021-05-17T14:30:19.000Z</time>
      </trkpt>
      <trkpt lat="44.86477" lon="0.6131">
        <ele>131.6</ele>
        <time>2021-05-17T14:30:20.000Z</time>
      </trkpt>
      <trkpt lat="44.86477" lon="0.61304">
        <ele>131.6</ele>
        <time>2021-05-17T14:30:21.000Z</time>
      </trkpt>
      <trkpt lat="44.86478" lon="0.61302">
        <ele>131.6</ele>
        <time>2021-05-17T14:30:22.000Z</time>
      </trkpt>
      <trkpt lat="44.86479" lon="0.61297">
        <ele>131.7</ele>
        <time>2021-05-17T14:30:23.000Z</time>
      </trkpt>
      <trkpt lat="44.8648" lon="0.61293">
        <ele>131.7</ele>
        <time>2021-05-17T14:30:24.000Z</time>
      </trkpt>
      <trkpt lat="44.86481" lon="0.61289">
        <ele>131.7</ele>
        <time>2021-05-17T14:30:25.000Z</time>
      </trkpt>
      <trkpt lat="44.86482" lon="0.61284">
        <ele>131.7</ele>
        <time>2021-05-17T14:30:26.000Z</time>
      </trkpt>
      <trkpt lat="44.86483" lon="0.6128">
        <ele>131.8</ele>
        <time>2021-05-17T14:30:27.000Z</time>
      </trkpt>
      <trkpt lat="44.86484" lon="0.61275">
        <ele>131.8</ele>
        <time>2021-05-17T14:30:28.000Z</time>
      </trkpt>
      <trkpt lat="44.86484" lon="0.6127">
        <ele>131.8</ele>
        <time>2021-05-17T14:30:29.000Z</time>
      </trkpt>
      <trkpt lat="44.86485" lon="0.61266">
        <ele>131.8</ele>
        <time>2021-05-17T14:30:30.000Z</time>
      </trkpt>
      <trkpt lat="44.86485" lon="0.61261">
        <ele>131.9</ele>
        <time>2021-05-17T14:30:31.000Z</time>
      </trkpt>
      <trkpt lat="44.86486" lon="0.61255">
        <ele>131.9</ele>
        <time>2021-05-17T14:30:32.000Z</time>
      </trkpt>
      <trkpt lat="44.86486" lon="0.61251">
        <ele>131.8</ele>
        <time>2021-05-17T14:30:33.000Z</time>
      </trkpt>
      <trkpt lat="44.86486" lon="0.61249">
        <ele>131.8</ele>
        <time>2021-05-17T14:30:34.000Z</time>
      </trkpt>
      <trkpt lat="44.86487" lon="0.61245">
        <ele>131.8</ele>
        <time>2021-05-17T14:30:35.000Z</time>
      </trkpt>
      <trkpt lat="44.86487" lon="0.61239">
        <ele>131.8</ele>
        <time>2021-05-17T14:30:36.000Z</time>
      </trkpt>
      <trkpt lat="44.86487" lon="0.61237">
        <ele>131.8</ele>
        <time>2021-05-17T14:30:37.000Z</time>
      </trkpt>
      <trkpt lat="44.86488" lon="0.61233">
        <ele>131.8</ele>
        <time>2021-05-17T14:30:38.000Z</time>
      </trkpt>
      <trkpt lat="44.86486" lon="0.61229">
        <ele>131.7</ele>
        <time>2021-05-17T14:30:39.000Z</time>
      </trkpt>
      <trkpt lat="44.86486" lon="0.61224">
        <ele>131.7</ele>
        <time>2021-05-17T14:30:40.000Z</time>
      </trkpt>
      <trkpt lat="44.86484" lon="0.6122">
        <ele>131.7</ele>
        <time>2021-05-17T14:30:41.000Z</time>
      </trkpt>
      <trkpt lat="44.86482" lon="0.61217">
        <ele>131.6</ele>
        <time>2021-05-17T14:30:42.000Z</time>
      </trkpt>
      <trkpt lat="44.86481" lon="0.61213">
        <ele>131.6</ele>
        <time>2021-05-17T14:30:43.000Z</time>
      </trkpt>
      <trkpt lat="44.86481" lon="0.61208">
        <ele>131.6</ele>
        <time>2021-05-17T14:30:44.000Z</time>
      </trkpt>
      <trkpt lat="44.86481" lon="0.61203">
        <ele>131.6</ele>
        <time>2021-05-17T14:30:45.000Z</time>
      </trkpt>
      <trkpt lat="44.86479" lon="0.61199">
        <ele>131.5</ele>
        <time>2021-05-17T14:30:46.000Z</time>
      </trkpt>
      <trkpt lat="44.86478" lon="0.61195">
        <ele>131.5</ele>
        <time>2021-05-17T14:30:47.000Z</time>
      </trkpt>
      <trkpt lat="44.86477" lon="0.61191">
        <ele>131.5</ele>
        <time>2021-05-17T14:30:48.000Z</time>
      </trkpt>
      <trkpt lat="44.86477" lon="0.61186">
        <ele>131.4</ele>
        <time>2021-05-17T14:30:49.000Z</time>
      </trkpt>
      <trkpt lat="44.86477" lon="0.61184">
        <ele>131.4</ele>
        <time>2021-05-17T14:30:50.000Z</time>
      </trkpt>
      <trkpt lat="44.86478" lon="0.61178">
        <ele>131.4</ele>
        <time>2021-05-17T14:30:51.000Z</time>
      </trkpt>
      <trkpt lat="44.86476" lon="0.61175">
        <ele>131.4</ele>
        <time>2021-05-17T14:30:52.000Z</time>
      </trkpt>
      <trkpt lat="44.86474" lon="0.61171">
        <ele>131.4</ele>
        <time>2021-05-17T14:30:53.000Z</time>
      </trkpt>
      <trkpt lat="44.86474" lon="0.61166">
        <ele>131.4</ele>
        <time>2021-05-17T14:30:54.000Z</time>
      </trkpt>
      <trkpt lat="44.86472" lon="0.6116">
        <ele>131.4</ele>
        <time>2021-05-17T14:30:55.000Z</time>
      </trkpt>
      <trkpt lat="44.86472" lon="0.61156">
        <ele>131.4</ele>
        <time>2021-05-17T14:30:56.000Z</time>
      </trkpt>
      <trkpt lat="44.86471" lon="0.61154">
        <ele>131.4</ele>
        <time>2021-05-17T14:30:57.000Z</time>
      </trkpt>
      <trkpt lat="44.8647" lon="0.61149">
        <ele>131.3</ele>
        <time>2021-05-17T14:30:58.000Z</time>
      </trkpt>
      <trkpt lat="44.86469" lon="0.61147">
        <ele>131.3</ele>
        <time>2021-05-17T14:30:59.000Z</time>
      </trkpt>
      <trkpt lat="44.86468" lon="0.61143">
        <ele>131.3</ele>
        <time>2021-05-17T14:31:00.000Z</time>
      </trkpt>
      <trkpt lat="44.86468" lon="0.61138">
        <ele>131.3</ele>
        <time>2021-05-17T14:31:01.000Z</time>
      </trkpt>
      <trkpt lat="44.86468" lon="0.61132">
        <ele>131.3</ele>
        <time>2021-05-17T14:31:02.000Z</time>
      </trkpt>
      <trkpt lat="44.86467" lon="0.61129">
        <ele>131.3</ele>
        <time>2021-05-17T14:31:03.000Z</time>
      </trkpt>
      <trkpt lat="44.86465" lon="0.61125">
        <ele>131.2</ele>
        <time>2021-05-17T14:31:04.000Z</time>
      </trkpt>
      <trkpt lat="44.86463" lon="0.61125">
        <ele>131.2</ele>
        <time>2021-05-17T14:31:05.000Z</time>
      </trkpt>
      <trkpt lat="44.86461" lon="0.61121">
        <ele>131.2</ele>
        <time>2021-05-17T14:31:06.000Z</time>
      </trkpt>
      <trkpt lat="44.86458" lon="0.61116">
        <ele>131.1</ele>
        <time>2021-05-17T14:31:07.000Z</time>
      </trkpt>
      <trkpt lat="44.86458" lon="0.61114">
        <ele>131.1</ele>
        <time>2021-05-17T14:31:08.000Z</time>
      </trkpt>
      <trkpt lat="44.86455" lon="0.61111">
        <ele>131</ele>
        <time>2021-05-17T14:31:09.000Z</time>
      </trkpt>
      <trkpt lat="44.86454" lon="0.61107">
        <ele>131</ele>
        <time>2021-05-17T14:31:10.000Z</time>
      </trkpt>
      <trkpt lat="44.86451" lon="0.61101">
        <ele>130.9</ele>
        <time>2021-05-17T14:31:11.000Z</time>
      </trkpt>
      <trkpt lat="44.86453" lon="0.61095">
        <ele>130.9</ele>
        <time>2021-05-17T14:31:12.000Z</time>
      </trkpt>
      <trkpt lat="44.86452" lon="0.61091">
        <ele>130.9</ele>
        <time>2021-05-17T14:31:13.000Z</time>
      </trkpt>
      <trkpt lat="44.86447" lon="0.61087">
        <ele>130.7</ele>
        <time>2021-05-17T14:31:14.000Z</time>
      </trkpt>
      <trkpt lat="44.86445" lon="0.61083">
        <ele>130.6</ele>
        <time>2021-05-17T14:31:15.000Z</time>
      </trkpt>
      <trkpt lat="44.86441" lon="0.6108">
        <ele>130.5</ele>
        <time>2021-05-17T14:31:16.000Z</time>
      </trkpt>
      <trkpt lat="44.86433" lon="0.61056">
        <ele>130</ele>
        <time>2021-05-17T14:31:17.000Z</time>
      </trkpt>
      <trkpt lat="44.86432" lon="0.61054">
        <ele>129.8</ele>
        <time>2021-05-17T14:31:18.000Z</time>
      </trkpt>
      <trkpt lat="44.8643" lon="0.6105">
        <ele>129.7</ele>
        <time>2021-05-17T14:31:19.000Z</time>
      </trkpt>
      <trkpt lat="44.86429" lon="0.61048">
        <ele>129.6</ele>
        <time>2021-05-17T14:31:20.000Z</time>
      </trkpt>
      <trkpt lat="44.86427" lon="0.61043">
        <ele>129.5</ele>
        <time>2021-05-17T14:31:21.000Z</time>
      </trkpt>
      <trkpt lat="44.86424" lon="0.61041">
        <ele>129.2</ele>
        <time>2021-05-17T14:31:22.000Z</time>
      </trkpt>
      <trkpt lat="44.86422" lon="0.61036">
        <ele>129</ele>
        <time>2021-05-17T14:31:23.000Z</time>
      </trkpt>
      <trkpt lat="44.86421" lon="0.61033">
        <ele>128.8</ele>
        <time>2021-05-17T14:31:24.000Z</time>
      </trkpt>
      <trkpt lat="44.86419" lon="0.61031">
        <ele>128.7</ele>
        <time>2021-05-17T14:31:25.000Z</time>
      </trkpt>
      <trkpt lat="44.86419" lon="0.61029">
        <ele>128.6</ele>
        <time>2021-05-17T14:31:26.000Z</time>
      </trkpt>
      <trkpt lat="44.86418" lon="0.61023">
        <ele>128.5</ele>
        <time>2021-05-17T14:31:27.000Z</time>
      </trkpt>
      <trkpt lat="44.86418" lon="0.61022">
        <ele>128.5</ele>
        <time>2021-05-17T14:31:28.000Z</time>
      </trkpt>
      <trkpt lat="44.86417" lon="0.61017">
        <ele>128.2</ele>
        <time>2021-05-17T14:31:29.000Z</time>
      </trkpt>
      <trkpt lat="44.86417" lon="0.61015">
        <ele>128.2</ele>
        <time>2021-05-17T14:31:30.000Z</time>
      </trkpt>
      <trkpt lat="44.86416" lon="0.61012">
        <ele>128.1</ele>
        <time>2021-05-17T14:31:31.000Z</time>
      </trkpt>
      <trkpt lat="44.86416" lon="0.61011">
        <ele>128.1</ele>
        <time>2021-05-17T14:31:32.000Z</time>
      </trkpt>
      <trkpt lat="44.86393" lon="0.60977">
        <ele>127.5</ele>
        <time>2021-05-17T14:31:33.000Z</time>
      </trkpt>
      <trkpt lat="44.86393" lon="0.60973">
        <ele>127.7</ele>
        <time>2021-05-17T14:31:34.000Z</time>
      </trkpt>
      <trkpt lat="44.86393" lon="0.60966">
        <ele>127.7</ele>
        <time>2021-05-17T14:31:35.000Z</time>
      </trkpt>
      <trkpt lat="44.86395" lon="0.6096">
        <ele>127.9</ele>
        <time>2021-05-17T14:31:36.000Z</time>
      </trkpt>
      <trkpt lat="44.86397" lon="0.60953">
        <ele>128.1</ele>
        <time>2021-05-17T14:31:37.000Z</time>
      </trkpt>
      <trkpt lat="44.864" lon="0.60946">
        <ele>128.3</ele>
        <time>2021-05-17T14:31:38.000Z</time>
      </trkpt>
      <trkpt lat="44.86402" lon="0.60942">
        <ele>128.5</ele>
        <time>2021-05-17T14:31:39.000Z</time>
      </trkpt>
      <trkpt lat="44.86405" lon="0.60937">
        <ele>128.5</ele>
        <time>2021-05-17T14:31:40.000Z</time>
      </trkpt>
      <trkpt lat="44.86431" lon="0.60993">
        <ele>128.8</ele>
        <time>2021-05-17T14:31:41.000Z</time>
      </trkpt>
      <trkpt lat="44.86433" lon="0.60992">
        <ele>128.8</ele>
        <time>2021-05-17T14:31:42.000Z</time>
      </trkpt>
      <trkpt lat="44.86433" lon="0.60988">
        <ele>128.9</ele>
        <time>2021-05-17T14:31:43.000Z</time>
      </trkpt>
      <trkpt lat="44.86433" lon="0.60986">
        <ele>129</ele>
        <time>2021-05-17T14:31:44.000Z</time>
      </trkpt>
      <trkpt lat="44.86434" lon="0.60985">
        <ele>129</ele>
        <time>2021-05-17T14:31:45.000Z</time>
      </trkpt>
      <trkpt lat="44.86434" lon="0.60985">
        <ele>129</ele>
        <time>2021-05-17T14:31:46.000Z</time>
      </trkpt>
      <trkpt lat="44.86434" lon="0.60985">
        <ele>129</ele>
        <time>2021-05-17T14:31:47.000Z</time>
      </trkpt>
      <trkpt lat="44.86435" lon="0.60983">
        <ele>129.1</ele>
        <time>2021-05-17T14:31:48.000Z</time>
      </trkpt>
      <trkpt lat="44.86437" lon="0.60982">
        <ele>129.1</ele>
        <time>2021-05-17T14:31:49.000Z</time>
      </trkpt>
      <trkpt lat="44.86438" lon="0.60981">
        <ele>129.1</ele>
        <time>2021-05-17T14:31:50.000Z</time>
      </trkpt>
      <trkpt lat="44.86438" lon="0.60976">
        <ele>129.2</ele>
        <time>2021-05-17T14:31:51.000Z</time>
      </trkpt>
      <trkpt lat="44.86437" lon="0.60972">
        <ele>129.3</ele>
        <time>2021-05-17T14:31:52.000Z</time>
      </trkpt>
      <trkpt lat="44.86437" lon="0.60968">
        <ele>129.3</ele>
        <time>2021-05-17T14:31:53.000Z</time>
      </trkpt>
      <trkpt lat="44.86437" lon="0.60962">
        <ele>129.4</ele>
        <time>2021-05-17T14:31:54.000Z</time>
      </trkpt>
      <trkpt lat="44.86436" lon="0.60956">
        <ele>129.4</ele>
        <time>2021-05-17T14:31:55.000Z</time>
      </trkpt>
      <trkpt lat="44.86434" lon="0.60951">
        <ele>129.4</ele>
        <time>2021-05-17T14:31:56.000Z</time>
      </trkpt>
      <trkpt lat="44.86433" lon="0.60944">
        <ele>129.4</ele>
        <time>2021-05-17T14:31:57.000Z</time>
      </trkpt>
      <trkpt lat="44.86432" lon="0.60939">
        <ele>129.3</ele>
        <time>2021-05-17T14:31:58.000Z</time>
      </trkpt>
      <trkpt lat="44.8643" lon="0.60935">
        <ele>129.3</ele>
        <time>2021-05-17T14:31:59.000Z</time>
      </trkpt>
      <trkpt lat="44.8643" lon="0.6093">
        <ele>129.3</ele>
        <time>2021-05-17T14:32:00.000Z</time>
      </trkpt>
      <trkpt lat="44.86429" lon="0.60928">
        <ele>129.3</ele>
        <time>2021-05-17T14:32:01.000Z</time>
      </trkpt>
      <trkpt lat="44.86429" lon="0.60923">
        <ele>129.3</ele>
        <time>2021-05-17T14:32:02.000Z</time>
      </trkpt>
      <trkpt lat="44.86429" lon="0.60921">
        <ele>129.3</ele>
        <time>2021-05-17T14:32:03.000Z</time>
      </trkpt>
      <trkpt lat="44.86428" lon="0.60917">
        <ele>129.3</ele>
        <time>2021-05-17T14:32:04.000Z</time>
      </trkpt>
      <trkpt lat="44.86426" lon="0.60913">
        <ele>129.2</ele>
        <time>2021-05-17T14:32:05.000Z</time>
      </trkpt>
      <trkpt lat="44.86424" lon="0.60908">
        <ele>129.2</ele>
        <time>2021-05-17T14:32:06.000Z</time>
      </trkpt>
      <trkpt lat="44.86425" lon="0.60904">
        <ele>129.2</ele>
        <time>2021-05-17T14:32:07.000Z</time>
      </trkpt>
      <trkpt lat="44.86424" lon="0.609">
        <ele>129.2</ele>
        <time>2021-05-17T14:32:08.000Z</time>
      </trkpt>
      <trkpt lat="44.86423" lon="0.60895">
        <ele>129.1</ele>
        <time>2021-05-17T14:32:09.000Z</time>
      </trkpt>
      <trkpt lat="44.86422" lon="0.60891">
        <ele>129</ele>
        <time>2021-05-17T14:32:10.000Z</time>
      </trkpt>
      <trkpt lat="44.86422" lon="0.6089">
        <ele>129</ele>
        <time>2021-05-17T14:32:11.000Z</time>
      </trkpt>
      <trkpt lat="44.8642" lon="0.60885">
        <ele>128.9</ele>
        <time>2021-05-17T14:32:12.000Z</time>
      </trkpt>
      <trkpt lat="44.86419" lon="0.60884">
        <ele>128.9</ele>
        <time>2021-05-17T14:32:13.000Z</time>
      </trkpt>
      <trkpt lat="44.86417" lon="0.60881">
        <ele>128.8</ele>
        <time>2021-05-17T14:32:14.000Z</time>
      </trkpt>
      <trkpt lat="44.86417" lon="0.60877">
        <ele>128.7</ele>
        <time>2021-05-17T14:32:15.000Z</time>
      </trkpt>
      <trkpt lat="44.86417" lon="0.60876">
        <ele>128.7</ele>
        <time>2021-05-17T14:32:16.000Z</time>
      </trkpt>
      <trkpt lat="44.86417" lon="0.60875">
        <ele>128.7</ele>
        <time>2021-05-17T14:32:17.000Z</time>
      </trkpt>
      <trkpt lat="44.86416" lon="0.60875">
        <ele>128.7</ele>
        <time>2021-05-17T14:32:18.000Z</time>
      </trkpt>
      <trkpt lat="44.86414" lon="0.60877">
        <ele>128.6</ele>
        <time>2021-05-17T14:32:19.000Z</time>
      </trkpt>
      <trkpt lat="44.86413" lon="0.60876">
        <ele>128.6</ele>
        <time>2021-05-17T14:32:20.000Z</time>
      </trkpt>
      <trkpt lat="44.86412" lon="0.60877">
        <ele>128.6</ele>
        <time>2021-05-17T14:32:21.000Z</time>
      </trkpt>
      <trkpt lat="44.86411" lon="0.60877">
        <ele>128.4</ele>
        <time>2021-05-17T14:32:22.000Z</time>
      </trkpt>
      <trkpt lat="44.8641" lon="0.60878">
        <ele>128.4</ele>
        <time>2021-05-17T14:32:23.000Z</time>
      </trkpt>
      <trkpt lat="44.86409" lon="0.6088">
        <ele>128.5</ele>
        <time>2021-05-17T14:32:24.000Z</time>
      </trkpt>
      <trkpt lat="44.86408" lon="0.60881">
        <ele>128.3</ele>
        <time>2021-05-17T14:32:25.000Z</time>
      </trkpt>
      <trkpt lat="44.86405" lon="0.60882">
        <ele>128.3</ele>
        <time>2021-05-17T14:32:26.000Z</time>
      </trkpt>
      <trkpt lat="44.86402" lon="0.60882">
        <ele>128.1</ele>
        <time>2021-05-17T14:32:27.000Z</time>
      </trkpt>
      <trkpt lat="44.86399" lon="0.60881">
        <ele>128.1</ele>
        <time>2021-05-17T14:32:28.000Z</time>
      </trkpt>
      <trkpt lat="44.86396" lon="0.60882">
        <ele>127.9</ele>
        <time>2021-05-17T14:32:29.000Z</time>
      </trkpt>
      <trkpt lat="44.86394" lon="0.60884">
        <ele>127.7</ele>
        <time>2021-05-17T14:32:30.000Z</time>
      </trkpt>
      <trkpt lat="44.86391" lon="0.60886">
        <ele>127.6</ele>
        <time>2021-05-17T14:32:31.000Z</time>
      </trkpt>
      <trkpt lat="44.86387" lon="0.60885">
        <ele>127.4</ele>
        <time>2021-05-17T14:32:32.000Z</time>
      </trkpt>
      <trkpt lat="44.86385" lon="0.60885">
        <ele>127.2</ele>
        <time>2021-05-17T14:32:33.000Z</time>
      </trkpt>
      <trkpt lat="44.86382" lon="0.60888">
        <ele>127</ele>
        <time>2021-05-17T14:32:34.000Z</time>
      </trkpt>
      <trkpt lat="44.8638" lon="0.6089">
        <ele>126.9</ele>
        <time>2021-05-17T14:32:35.000Z</time>
      </trkpt>
      <trkpt lat="44.86374" lon="0.60895">
        <ele>126.5</ele>
        <time>2021-05-17T14:32:36.000Z</time>
      </trkpt>
      <trkpt lat="44.86369" lon="0.60901">
        <ele>126.3</ele>
        <time>2021-05-17T14:32:37.000Z</time>
      </trkpt>
      <trkpt lat="44.86364" lon="0.60907">
        <ele>126</ele>
        <time>2021-05-17T14:32:38.000Z</time>
      </trkpt>
      <trkpt lat="44.86357" lon="0.60913">
        <ele>125.7</ele>
        <time>2021-05-17T14:32:39.000Z</time>
      </trkpt>
      <trkpt lat="44.8635" lon="0.60918">
        <ele>125.1</ele>
        <time>2021-05-17T14:32:40.000Z</time>
      </trkpt>
      <trkpt lat="44.86347" lon="0.60921">
        <ele>125</ele>
        <time>2021-05-17T14:32:41.000Z</time>
      </trkpt>
      <trkpt lat="44.86344" lon="0.60922">
        <ele>124.7</ele>
        <time>2021-05-17T14:32:42.000Z</time>
      </trkpt>
      <trkpt lat="44.86343" lon="0.6092">
        <ele>124.7</ele>
        <time>2021-05-17T14:32:43.000Z</time>
      </trkpt>
      <trkpt lat="44.8634" lon="0.60922">
        <ele>124.5</ele>
        <time>2021-05-17T14:32:44.000Z</time>
      </trkpt>
      <trkpt lat="44.86337" lon="0.60923">
        <ele>124.4</ele>
        <time>2021-05-17T14:32:45.000Z</time>
      </trkpt>
      <trkpt lat="44.86332" lon="0.60926">
        <ele>123.8</ele>
        <time>2021-05-17T14:32:46.000Z</time>
      </trkpt>
      <trkpt lat="44.86327" lon="0.60929">
        <ele>123.7</ele>
        <time>2021-05-17T14:32:47.000Z</time>
      </trkpt>
      <trkpt lat="44.86324" lon="0.60931">
        <ele>123.4</ele>
        <time>2021-05-17T14:32:48.000Z</time>
      </trkpt>
      <trkpt lat="44.8632" lon="0.60934">
        <ele>123.3</ele>
        <time>2021-05-17T14:32:49.000Z</time>
      </trkpt>
      <trkpt lat="44.86318" lon="0.60936">
        <ele>123.2</ele>
        <time>2021-05-17T14:32:50.000Z</time>
      </trkpt>
      <trkpt lat="44.86315" lon="0.6094">
        <ele>123.1</ele>
        <time>2021-05-17T14:32:51.000Z</time>
      </trkpt>
      <trkpt lat="44.86311" lon="0.60944">
        <ele>122.7</ele>
        <time>2021-05-17T14:32:52.000Z</time>
      </trkpt>
      <trkpt lat="44.86307" lon="0.60944">
        <ele>122.4</ele>
        <time>2021-05-17T14:32:53.000Z</time>
      </trkpt>
      <trkpt lat="44.86301" lon="0.60942">
        <ele>122</ele>
        <time>2021-05-17T14:32:54.000Z</time>
      </trkpt>
      <trkpt lat="44.86297" lon="0.60941">
        <ele>121.8</ele>
        <time>2021-05-17T14:32:55.000Z</time>
      </trkpt>
      <trkpt lat="44.86292" lon="0.60941">
        <ele>121.5</ele>
        <time>2021-05-17T14:32:56.000Z</time>
      </trkpt>
      <trkpt lat="44.8629" lon="0.60942">
        <ele>121.5</ele>
        <time>2021-05-17T14:32:57.000Z</time>
      </trkpt>
      <trkpt lat="44.86285" lon="0.60943">
        <ele>121.2</ele>
        <time>2021-05-17T14:32:58.000Z</time>
      </trkpt>
      <trkpt lat="44.86281" lon="0.60944">
        <ele>121</ele>
        <time>2021-05-17T14:32:59.000Z</time>
      </trkpt>
      <trkpt lat="44.8628" lon="0.60944">
        <ele>120.8</ele>
        <time>2021-05-17T14:33:00.000Z</time>
      </trkpt>
      <trkpt lat="44.86277" lon="0.60943">
        <ele>120.6</ele>
        <time>2021-05-17T14:33:01.000Z</time>
      </trkpt>
      <trkpt lat="44.86274" lon="0.60943">
        <ele>120.5</ele>
        <time>2021-05-17T14:33:02.000Z</time>
      </trkpt>
      <trkpt lat="44.8627" lon="0.60941">
        <ele>120.4</ele>
        <time>2021-05-17T14:33:03.000Z</time>
      </trkpt>
      <trkpt lat="44.86268" lon="0.6094">
        <ele>120.3</ele>
        <time>2021-05-17T14:33:04.000Z</time>
      </trkpt>
      <trkpt lat="44.86267" lon="0.6094">
        <ele>120.3</ele>
        <time>2021-05-17T14:33:05.000Z</time>
      </trkpt>
      <trkpt lat="44.86266" lon="0.60937">
        <ele>120.2</ele>
        <time>2021-05-17T14:33:06.000Z</time>
      </trkpt>
      <trkpt lat="44.86263" lon="0.60936">
        <ele>120.1</ele>
        <time>2021-05-17T14:33:07.000Z</time>
      </trkpt>
      <trkpt lat="44.86262" lon="0.60935">
        <ele>120</ele>
        <time>2021-05-17T14:33:08.000Z</time>
      </trkpt>
      <trkpt lat="44.8626" lon="0.60932">
        <ele>119.9</ele>
        <time>2021-05-17T14:33:09.000Z</time>
      </trkpt>
      <trkpt lat="44.86257" lon="0.60929">
        <ele>119.8</ele>
        <time>2021-05-17T14:33:10.000Z</time>
      </trkpt>
      <trkpt lat="44.86256" lon="0.60928">
        <ele>119.8</ele>
        <time>2021-05-17T14:33:11.000Z</time>
      </trkpt>
      <trkpt lat="44.86255" lon="0.60927">
        <ele>119.6</ele>
        <time>2021-05-17T14:33:12.000Z</time>
      </trkpt>
      <trkpt lat="44.86254" lon="0.60926">
        <ele>119.6</ele>
        <time>2021-05-17T14:33:13.000Z</time>
      </trkpt>
      <trkpt lat="44.86251" lon="0.60925">
        <ele>119.5</ele>
        <time>2021-05-17T14:33:14.000Z</time>
      </trkpt>
      <trkpt lat="44.8625" lon="0.60924">
        <ele>119.4</ele>
        <time>2021-05-17T14:33:15.000Z</time>
      </trkpt>
      <trkpt lat="44.86248" lon="0.60923">
        <ele>119.4</ele>
        <time>2021-05-17T14:33:16.000Z</time>
      </trkpt>
      <trkpt lat="44.86247" lon="0.60922">
        <ele>119.4</ele>
        <time>2021-05-17T14:33:17.000Z</time>
      </trkpt>
      <trkpt lat="44.86245" lon="0.60918">
        <ele>119.2</ele>
        <time>2021-05-17T14:33:18.000Z</time>
      </trkpt>
      <trkpt lat="44.86244" lon="0.60916">
        <ele>119.1</ele>
        <time>2021-05-17T14:33:19.000Z</time>
      </trkpt>
      <trkpt lat="44.86241" lon="0.60913">
        <ele>119.1</ele>
        <time>2021-05-17T14:33:20.000Z</time>
      </trkpt>
      <trkpt lat="44.8624" lon="0.60912">
        <ele>118.9</ele>
        <time>2021-05-17T14:33:21.000Z</time>
      </trkpt>
      <trkpt lat="44.86237" lon="0.60909">
        <ele>118.7</ele>
        <time>2021-05-17T14:33:22.000Z</time>
      </trkpt>
      <trkpt lat="44.86235" lon="0.60906">
        <ele>118.5</ele>
        <time>2021-05-17T14:33:23.000Z</time>
      </trkpt>
      <trkpt lat="44.86232" lon="0.60903">
        <ele>118.4</ele>
        <time>2021-05-17T14:33:24.000Z</time>
      </trkpt>
      <trkpt lat="44.8623" lon="0.609">
        <ele>118.2</ele>
        <time>2021-05-17T14:33:25.000Z</time>
      </trkpt>
      <trkpt lat="44.86227" lon="0.60897">
        <ele>117.9</ele>
        <time>2021-05-17T14:33:26.000Z</time>
      </trkpt>
      <trkpt lat="44.86224" lon="0.60895">
        <ele>117.6</ele>
        <time>2021-05-17T14:33:27.000Z</time>
      </trkpt>
      <trkpt lat="44.8622" lon="0.60893">
        <ele>117.2</ele>
        <time>2021-05-17T14:33:28.000Z</time>
      </trkpt>
      <trkpt lat="44.86216" lon="0.60895">
        <ele>116.6</ele>
        <time>2021-05-17T14:33:29.000Z</time>
      </trkpt>
      <trkpt lat="44.86214" lon="0.60896">
        <ele>116.6</ele>
        <time>2021-05-17T14:33:30.000Z</time>
      </trkpt>
      <trkpt lat="44.86212" lon="0.609">
        <ele>116.3</ele>
        <time>2021-05-17T14:33:31.000Z</time>
      </trkpt>
      <trkpt lat="44.8621" lon="0.60902">
        <ele>116</ele>
        <time>2021-05-17T14:33:32.000Z</time>
      </trkpt>
      <trkpt lat="44.86207" lon="0.60905">
        <ele>115.7</ele>
        <time>2021-05-17T14:33:33.000Z</time>
      </trkpt>
      <trkpt lat="44.86203" lon="0.60907">
        <ele>115.3</ele>
        <time>2021-05-17T14:33:34.000Z</time>
      </trkpt>
      <trkpt lat="44.86202" lon="0.60909">
        <ele>115.3</ele>
        <time>2021-05-17T14:33:35.000Z</time>
      </trkpt>
      <trkpt lat="44.86201" lon="0.60912">
        <ele>114.9</ele>
        <time>2021-05-17T14:33:36.000Z</time>
      </trkpt>
      <trkpt lat="44.862" lon="0.60914">
        <ele>114.9</ele>
        <time>2021-05-17T14:33:37.000Z</time>
      </trkpt>
      <trkpt lat="44.86199" lon="0.60918">
        <ele>114.9</ele>
        <time>2021-05-17T14:33:38.000Z</time>
      </trkpt>
      <trkpt lat="44.86199" lon="0.6092">
        <ele>114.8</ele>
        <time>2021-05-17T14:33:39.000Z</time>
      </trkpt>
      <trkpt lat="44.86197" lon="0.60926">
        <ele>114.3</ele>
        <time>2021-05-17T14:33:40.000Z</time>
      </trkpt>
      <trkpt lat="44.86195" lon="0.60936">
        <ele>113.5</ele>
        <time>2021-05-17T14:33:41.000Z</time>
      </trkpt>
      <trkpt lat="44.86192" lon="0.60943">
        <ele>113</ele>
        <time>2021-05-17T14:33:42.000Z</time>
      </trkpt>
      <trkpt lat="44.86188" lon="0.6095">
        <ele>112.6</ele>
        <time>2021-05-17T14:33:43.000Z</time>
      </trkpt>
      <trkpt lat="44.86183" lon="0.60959">
        <ele>111.7</ele>
        <time>2021-05-17T14:33:44.000Z</time>
      </trkpt>
      <trkpt lat="44.8618" lon="0.60969">
        <ele>111.6</ele>
        <time>2021-05-17T14:33:45.000Z</time>
      </trkpt>
      <trkpt lat="44.86177" lon="0.60984">
        <ele>110.9</ele>
        <time>2021-05-17T14:33:46.000Z</time>
      </trkpt>
      <trkpt lat="44.86172" lon="0.60997">
        <ele>109.9</ele>
        <time>2021-05-17T14:33:47.000Z</time>
      </trkpt>
      <trkpt lat="44.86166" lon="0.61004">
        <ele>109.1</ele>
        <time>2021-05-17T14:33:48.000Z</time>
      </trkpt>
      <trkpt lat="44.86163" lon="0.61008">
        <ele>108.7</ele>
        <time>2021-05-17T14:33:49.000Z</time>
      </trkpt>
      <trkpt lat="44.8616" lon="0.61013">
        <ele>108.4</ele>
        <time>2021-05-17T14:33:50.000Z</time>
      </trkpt>
      <trkpt lat="44.86158" lon="0.6102">
        <ele>108.2</ele>
        <time>2021-05-17T14:33:51.000Z</time>
      </trkpt>
      <trkpt lat="44.86157" lon="0.61026">
        <ele>108.3</ele>
        <time>2021-05-17T14:33:52.000Z</time>
      </trkpt>
      <trkpt lat="44.86155" lon="0.61032">
        <ele>108.2</ele>
        <time>2021-05-17T14:33:53.000Z</time>
      </trkpt>
      <trkpt lat="44.86154" lon="0.61035">
        <ele>108.4</ele>
        <time>2021-05-17T14:33:54.000Z</time>
      </trkpt>
      <trkpt lat="44.86152" lon="0.61041">
        <ele>108.3</ele>
        <time>2021-05-17T14:33:55.000Z</time>
      </trkpt>
      <trkpt lat="44.86152" lon="0.61046">
        <ele>108.4</ele>
        <time>2021-05-17T14:33:56.000Z</time>
      </trkpt>
      <trkpt lat="44.86151" lon="0.6105">
        <ele>108.6</ele>
        <time>2021-05-17T14:33:57.000Z</time>
      </trkpt>
      <trkpt lat="44.86149" lon="0.61054">
        <ele>108.6</ele>
        <time>2021-05-17T14:33:58.000Z</time>
      </trkpt>
      <trkpt lat="44.86149" lon="0.61059">
        <ele>108.8</ele>
        <time>2021-05-17T14:33:59.000Z</time>
      </trkpt>
      <trkpt lat="44.8615" lon="0.61064">
        <ele>109.4</ele>
        <time>2021-05-17T14:34:00.000Z</time>
      </trkpt>
      <trkpt lat="44.8615" lon="0.61069">
        <ele>109.5</ele>
        <time>2021-05-17T14:34:01.000Z</time>
      </trkpt>
      <trkpt lat="44.8615" lon="0.61074">
        <ele>109.7</ele>
        <time>2021-05-17T14:34:02.000Z</time>
      </trkpt>
      <trkpt lat="44.86151" lon="0.6108">
        <ele>109.9</ele>
        <time>2021-05-17T14:34:03.000Z</time>
      </trkpt>
      <trkpt lat="44.86151" lon="0.61086">
        <ele>110.1</ele>
        <time>2021-05-17T14:34:04.000Z</time>
      </trkpt>
      <trkpt lat="44.86151" lon="0.61091">
        <ele>110.5</ele>
        <time>2021-05-17T14:34:05.000Z</time>
      </trkpt>
      <trkpt lat="44.86151" lon="0.61092">
        <ele>110.5</ele>
        <time>2021-05-17T14:34:06.000Z</time>
      </trkpt>
      <trkpt lat="44.86152" lon="0.61096">
        <ele>110.6</ele>
        <time>2021-05-17T14:34:07.000Z</time>
      </trkpt>
      <trkpt lat="44.86152" lon="0.61101">
        <ele>110.9</ele>
        <time>2021-05-17T14:34:08.000Z</time>
      </trkpt>
      <trkpt lat="44.86153" lon="0.61106">
        <ele>111.1</ele>
        <time>2021-05-17T14:34:09.000Z</time>
      </trkpt>
      <trkpt lat="44.86153" lon="0.61108">
        <ele>111.5</ele>
        <time>2021-05-17T14:34:10.000Z</time>
      </trkpt>
      <trkpt lat="44.86152" lon="0.61114">
        <ele>111.7</ele>
        <time>2021-05-17T14:34:11.000Z</time>
      </trkpt>
      <trkpt lat="44.86151" lon="0.6112">
        <ele>112</ele>
        <time>2021-05-17T14:34:12.000Z</time>
      </trkpt>
      <trkpt lat="44.86151" lon="0.61125">
        <ele>112.7</ele>
        <time>2021-05-17T14:34:13.000Z</time>
      </trkpt>
      <trkpt lat="44.8615" lon="0.61127">
        <ele>112.7</ele>
        <time>2021-05-17T14:34:14.000Z</time>
      </trkpt>
      <trkpt lat="44.86149" lon="0.61132">
        <ele>113</ele>
        <time>2021-05-17T14:34:15.000Z</time>
      </trkpt>
      <trkpt lat="44.86149" lon="0.61134">
        <ele>113.4</ele>
        <time>2021-05-17T14:34:16.000Z</time>
      </trkpt>
      <trkpt lat="44.86149" lon="0.61136">
        <ele>113.4</ele>
        <time>2021-05-17T14:34:17.000Z</time>
      </trkpt>
      <trkpt lat="44.86148" lon="0.61139">
        <ele>113.9</ele>
        <time>2021-05-17T14:34:18.000Z</time>
      </trkpt>
      <trkpt lat="44.86147" lon="0.61144">
        <ele>114.3</ele>
        <time>2021-05-17T14:34:19.000Z</time>
      </trkpt>
      <trkpt lat="44.86147" lon="0.61145">
        <ele>114.3</ele>
        <time>2021-05-17T14:34:20.000Z</time>
      </trkpt>
      <trkpt lat="44.86146" lon="0.6115">
        <ele>115.3</ele>
        <time>2021-05-17T14:34:21.000Z</time>
      </trkpt>
      <trkpt lat="44.86146" lon="0.61153">
        <ele>115.3</ele>
        <time>2021-05-17T14:34:22.000Z</time>
      </trkpt>
      <trkpt lat="44.86145" lon="0.61158">
        <ele>115.8</ele>
        <time>2021-05-17T14:34:23.000Z</time>
      </trkpt>
      <trkpt lat="44.86145" lon="0.61161">
        <ele>116.2</ele>
        <time>2021-05-17T14:34:24.000Z</time>
      </trkpt>
      <trkpt lat="44.86145" lon="0.61166">
        <ele>116.7</ele>
        <time>2021-05-17T14:34:25.000Z</time>
      </trkpt>
      <trkpt lat="44.86144" lon="0.61167">
        <ele>116.7</ele>
        <time>2021-05-17T14:34:26.000Z</time>
      </trkpt>
      <trkpt lat="44.86143" lon="0.61171">
        <ele>117.1</ele>
        <time>2021-05-17T14:34:27.000Z</time>
      </trkpt>
      <trkpt lat="44.86142" lon="0.61172">
        <ele>117.5</ele>
        <time>2021-05-17T14:34:28.000Z</time>
      </trkpt>
      <trkpt lat="44.8614" lon="0.61177">
        <ele>117.8</ele>
        <time>2021-05-17T14:34:29.000Z</time>
      </trkpt>
      <trkpt lat="44.8614" lon="0.61178">
        <ele>117.8</ele>
        <time>2021-05-17T14:34:30.000Z</time>
      </trkpt>
      <trkpt lat="44.86139" lon="0.61182">
        <ele>118.1</ele>
        <time>2021-05-17T14:34:31.000Z</time>
      </trkpt>
      <trkpt lat="44.86138" lon="0.61183">
        <ele>118.1</ele>
        <time>2021-05-17T14:34:32.000Z</time>
      </trkpt>
      <trkpt lat="44.86138" lon="0.61189">
        <ele>118.4</ele>
        <time>2021-05-17T14:34:33.000Z</time>
      </trkpt>
      <trkpt lat="44.86138" lon="0.6119">
        <ele>118.6</ele>
        <time>2021-05-17T14:34:34.000Z</time>
      </trkpt>
      <trkpt lat="44.86136" lon="0.61193">
        <ele>118.8</ele>
        <time>2021-05-17T14:34:35.000Z</time>
      </trkpt>
      <trkpt lat="44.86135" lon="0.61194">
        <ele>118.8</ele>
        <time>2021-05-17T14:34:36.000Z</time>
      </trkpt>
      <trkpt lat="44.86133" lon="0.61197">
        <ele>118.8</ele>
        <time>2021-05-17T14:34:37.000Z</time>
      </trkpt>
      <trkpt lat="44.86131" lon="0.612">
        <ele>118.9</ele>
        <time>2021-05-17T14:34:38.000Z</time>
      </trkpt>
      <trkpt lat="44.8613" lon="0.61202">
        <ele>118.9</ele>
        <time>2021-05-17T14:34:39.000Z</time>
      </trkpt>
      <trkpt lat="44.86129" lon="0.61203">
        <ele>119.1</ele>
        <time>2021-05-17T14:34:40.000Z</time>
      </trkpt>
      <trkpt lat="44.86129" lon="0.61206">
        <ele>119.3</ele>
        <time>2021-05-17T14:34:41.000Z</time>
      </trkpt>
      <trkpt lat="44.8613" lon="0.6121">
        <ele>119.4</ele>
        <time>2021-05-17T14:34:42.000Z</time>
      </trkpt>
      <trkpt lat="44.8613" lon="0.61211">
        <ele>119.4</ele>
        <time>2021-05-17T14:34:43.000Z</time>
      </trkpt>
      <trkpt lat="44.8613" lon="0.61216">
        <ele>119.6</ele>
        <time>2021-05-17T14:34:44.000Z</time>
      </trkpt>
      <trkpt lat="44.8613" lon="0.61217">
        <ele>119.6</ele>
        <time>2021-05-17T14:34:45.000Z</time>
      </trkpt>
      <trkpt lat="44.86129" lon="0.61221">
        <ele>119.7</ele>
        <time>2021-05-17T14:34:46.000Z</time>
      </trkpt>
      <trkpt lat="44.86128" lon="0.61226">
        <ele>119.7</ele>
        <time>2021-05-17T14:34:47.000Z</time>
      </trkpt>
      <trkpt lat="44.86128" lon="0.61228">
        <ele>119.7</ele>
        <time>2021-05-17T14:34:48.000Z</time>
      </trkpt>
      <trkpt lat="44.86127" lon="0.61233">
        <ele>119.8</ele>
        <time>2021-05-17T14:34:49.000Z</time>
      </trkpt>
      <trkpt lat="44.86127" lon="0.61235">
        <ele>119.8</ele>
        <time>2021-05-17T14:34:50.000Z</time>
      </trkpt>
      <trkpt lat="44.86125" lon="0.6124">
        <ele>119.7</ele>
        <time>2021-05-17T14:34:51.000Z</time>
      </trkpt>
      <trkpt lat="44.86126" lon="0.61243">
        <ele>119.9</ele>
        <time>2021-05-17T14:34:52.000Z</time>
      </trkpt>
      <trkpt lat="44.86127" lon="0.61245">
        <ele>120</ele>
        <time>2021-05-17T14:34:53.000Z</time>
      </trkpt>
      <trkpt lat="44.86129" lon="0.61245">
        <ele>120.1</ele>
        <time>2021-05-17T14:34:54.000Z</time>
      </trkpt>
      <trkpt lat="44.8613" lon="0.61248">
        <ele>120.1</ele>
        <time>2021-05-17T14:34:55.000Z</time>
      </trkpt>
      <trkpt lat="44.86132" lon="0.61251">
        <ele>120.4</ele>
        <time>2021-05-17T14:34:56.000Z</time>
      </trkpt>
      <trkpt lat="44.86133" lon="0.61253">
        <ele>120.4</ele>
        <time>2021-05-17T14:34:57.000Z</time>
      </trkpt>
      <trkpt lat="44.86135" lon="0.61255">
        <ele>120.6</ele>
        <time>2021-05-17T14:34:58.000Z</time>
      </trkpt>
      <trkpt lat="44.86137" lon="0.6126">
        <ele>120.6</ele>
        <time>2021-05-17T14:34:59.000Z</time>
      </trkpt>
      <trkpt lat="44.86138" lon="0.61262">
        <ele>120.9</ele>
        <time>2021-05-17T14:35:00.000Z</time>
      </trkpt>
      <trkpt lat="44.8614" lon="0.61266">
        <ele>120.9</ele>
        <time>2021-05-17T14:35:01.000Z</time>
      </trkpt>
      <trkpt lat="44.86141" lon="0.61267">
        <ele>120.9</ele>
        <time>2021-05-17T14:35:02.000Z</time>
      </trkpt>
      <trkpt lat="44.86143" lon="0.6127">
        <ele>121.1</ele>
        <time>2021-05-17T14:35:03.000Z</time>
      </trkpt>
      <trkpt lat="44.86144" lon="0.61271">
        <ele>121.2</ele>
        <time>2021-05-17T14:35:04.000Z</time>
      </trkpt>
      <trkpt lat="44.86146" lon="0.61275">
        <ele>121.4</ele>
        <time>2021-05-17T14:35:05.000Z</time>
      </trkpt>
      <trkpt lat="44.86147" lon="0.61277">
        <ele>121.6</ele>
        <time>2021-05-17T14:35:06.000Z</time>
      </trkpt>
      <trkpt lat="44.86148" lon="0.61281">
        <ele>121.6</ele>
        <time>2021-05-17T14:35:07.000Z</time>
      </trkpt>
      <trkpt lat="44.86149" lon="0.61282">
        <ele>121.6</ele>
        <time>2021-05-17T14:35:08.000Z</time>
      </trkpt>
      <trkpt lat="44.86151" lon="0.61286">
        <ele>121.8</ele>
        <time>2021-05-17T14:35:09.000Z</time>
      </trkpt>
      <trkpt lat="44.86152" lon="0.61287">
        <ele>121.8</ele>
        <time>2021-05-17T14:35:10.000Z</time>
      </trkpt>
      <trkpt lat="44.86154" lon="0.61291">
        <ele>122.1</ele>
        <time>2021-05-17T14:35:11.000Z</time>
      </trkpt>
      <trkpt lat="44.86156" lon="0.61294">
        <ele>122.3</ele>
        <time>2021-05-17T14:35:12.000Z</time>
      </trkpt>
      <trkpt lat="44.86157" lon="0.61295">
        <ele>122.3</ele>
        <time>2021-05-17T14:35:13.000Z</time>
      </trkpt>
      <trkpt lat="44.86159" lon="0.61298">
        <ele>122.5</ele>
        <time>2021-05-17T14:35:14.000Z</time>
      </trkpt>
      <trkpt lat="44.86161" lon="0.61299">
        <ele>122.5</ele>
        <time>2021-05-17T14:35:15.000Z</time>
      </trkpt>
      <trkpt lat="44.86163" lon="0.61303">
        <ele>122.7</ele>
        <time>2021-05-17T14:35:16.000Z</time>
      </trkpt>
      <trkpt lat="44.86165" lon="0.61304">
        <ele>122.7</ele>
        <time>2021-05-17T14:35:17.000Z</time>
      </trkpt>
      <trkpt lat="44.86168" lon="0.61305">
        <ele>122.8</ele>
        <time>2021-05-17T14:35:18.000Z</time>
      </trkpt>
      <trkpt lat="44.86169" lon="0.61306">
        <ele>123</ele>
        <time>2021-05-17T14:35:19.000Z</time>
      </trkpt>
      <trkpt lat="44.86171" lon="0.61308">
        <ele>123.1</ele>
        <time>2021-05-17T14:35:20.000Z</time>
      </trkpt>
      <trkpt lat="44.86175" lon="0.61311">
        <ele>123.2</ele>
        <time>2021-05-17T14:35:21.000Z</time>
      </trkpt>
      <trkpt lat="44.86176" lon="0.61311">
        <ele>123.2</ele>
        <time>2021-05-17T14:35:22.000Z</time>
      </trkpt>
      <trkpt lat="44.86179" lon="0.61314">
        <ele>123.3</ele>
        <time>2021-05-17T14:35:23.000Z</time>
      </trkpt>
      <trkpt lat="44.86183" lon="0.61317">
        <ele>123.4</ele>
        <time>2021-05-17T14:35:24.000Z</time>
      </trkpt>
      <trkpt lat="44.86184" lon="0.61318">
        <ele>123.5</ele>
        <time>2021-05-17T14:35:25.000Z</time>
      </trkpt>
      <trkpt lat="44.86187" lon="0.61321">
        <ele>123.5</ele>
        <time>2021-05-17T14:35:26.000Z</time>
      </trkpt>
      <trkpt lat="44.86189" lon="0.61325">
        <ele>123.5</ele>
        <time>2021-05-17T14:35:27.000Z</time>
      </trkpt>
      <trkpt lat="44.86193" lon="0.61328">
        <ele>123.5</ele>
        <time>2021-05-17T14:35:28.000Z</time>
      </trkpt>
      <trkpt lat="44.86194" lon="0.61329">
        <ele>123.5</ele>
        <time>2021-05-17T14:35:29.000Z</time>
      </trkpt>
      <trkpt lat="44.86197" lon="0.61331">
        <ele>123.4</ele>
        <time>2021-05-17T14:35:30.000Z</time>
      </trkpt>
      <trkpt lat="44.862" lon="0.61333">
        <ele>123.4</ele>
        <time>2021-05-17T14:35:31.000Z</time>
      </trkpt>
      <trkpt lat="44.86203" lon="0.61335">
        <ele>123.2</ele>
        <time>2021-05-17T14:35:32.000Z</time>
      </trkpt>
      <trkpt lat="44.86206" lon="0.61338">
        <ele>123.2</ele>
        <time>2021-05-17T14:35:33.000Z</time>
      </trkpt>
      <trkpt lat="44.86209" lon="0.61339">
        <ele>122.9</ele>
        <time>2021-05-17T14:35:34.000Z</time>
      </trkpt>
      <trkpt lat="44.86212" lon="0.61339">
        <ele>122.9</ele>
        <time>2021-05-17T14:35:35.000Z</time>
      </trkpt>
      <trkpt lat="44.86215" lon="0.6134">
        <ele>122.9</ele>
        <time>2021-05-17T14:35:36.000Z</time>
      </trkpt>
      <trkpt lat="44.86219" lon="0.61341">
        <ele>122.8</ele>
        <time>2021-05-17T14:35:37.000Z</time>
      </trkpt>
      <trkpt lat="44.86221" lon="0.61343">
        <ele>122.8</ele>
        <time>2021-05-17T14:35:38.000Z</time>
      </trkpt>
      <trkpt lat="44.86224" lon="0.61344">
        <ele>122.6</ele>
        <time>2021-05-17T14:35:39.000Z</time>
      </trkpt>
      <trkpt lat="44.86227" lon="0.61345">
        <ele>122.6</ele>
        <time>2021-05-17T14:35:40.000Z</time>
      </trkpt>
      <trkpt lat="44.86231" lon="0.61344">
        <ele>122.6</ele>
        <time>2021-05-17T14:35:41.000Z</time>
      </trkpt>
      <trkpt lat="44.86233" lon="0.61343">
        <ele>122.6</ele>
        <time>2021-05-17T14:35:42.000Z</time>
      </trkpt>
      <trkpt lat="44.86237" lon="0.61343">
        <ele>122.7</ele>
        <time>2021-05-17T14:35:43.000Z</time>
      </trkpt>
      <trkpt lat="44.8624" lon="0.61344">
        <ele>122.5</ele>
        <time>2021-05-17T14:35:44.000Z</time>
      </trkpt>
      <trkpt lat="44.86241" lon="0.61344">
        <ele>122.5</ele>
        <time>2021-05-17T14:35:45.000Z</time>
      </trkpt>
      <trkpt lat="44.86242" lon="0.61348">
        <ele>122.4</ele>
        <time>2021-05-17T14:35:46.000Z</time>
      </trkpt>
      <trkpt lat="44.86242" lon="0.6135">
        <ele>122.4</ele>
        <time>2021-05-17T14:35:47.000Z</time>
      </trkpt>
      <trkpt lat="44.86242" lon="0.61354">
        <ele>122.2</ele>
        <time>2021-05-17T14:35:48.000Z</time>
      </trkpt>
      <trkpt lat="44.86242" lon="0.61355">
        <ele>122.2</ele>
        <time>2021-05-17T14:35:49.000Z</time>
      </trkpt>
      <trkpt lat="44.86242" lon="0.61358">
        <ele>122</ele>
        <time>2021-05-17T14:35:50.000Z</time>
      </trkpt>
      <trkpt lat="44.86243" lon="0.6136">
        <ele>122</ele>
        <time>2021-05-17T14:35:51.000Z</time>
      </trkpt>
      <trkpt lat="44.86245" lon="0.61364">
        <ele>121.9</ele>
        <time>2021-05-17T14:35:52.000Z</time>
      </trkpt>
      <trkpt lat="44.86244" lon="0.61366">
        <ele>121.7</ele>
        <time>2021-05-17T14:35:53.000Z</time>
      </trkpt>
      <trkpt lat="44.86244" lon="0.61367">
        <ele>121.7</ele>
        <time>2021-05-17T14:35:54.000Z</time>
      </trkpt>
      <trkpt lat="44.86243" lon="0.61367">
        <ele>121.7</ele>
        <time>2021-05-17T14:35:55.000Z</time>
      </trkpt>
      <trkpt lat="44.86243" lon="0.61367">
        <ele>121.7</ele>
        <time>2021-05-17T14:35:56.000Z</time>
      </trkpt>
      <trkpt lat="44.86242" lon="0.61367">
        <ele>121.7</ele>
        <time>2021-05-17T14:35:57.000Z</time>
      </trkpt>
      <trkpt lat="44.86242" lon="0.61368">
        <ele>121.7</ele>
        <time>2021-05-17T14:35:58.000Z</time>
      </trkpt>
      <trkpt lat="44.86242" lon="0.61368">
        <ele>121.7</ele>
        <time>2021-05-17T14:35:59.000Z</time>
      </trkpt>
      <trkpt lat="44.86241" lon="0.6137">
        <ele>121.5</ele>
        <time>2021-05-17T14:36:00.000Z</time>
      </trkpt>
      <trkpt lat="44.86239" lon="0.61372">
        <ele>121.5</ele>
        <time>2021-05-17T14:36:01.000Z</time>
      </trkpt>
      <trkpt lat="44.86239" lon="0.61372">
        <ele>121.5</ele>
        <time>2021-05-17T14:36:02.000Z</time>
      </trkpt>
      <trkpt lat="44.86238" lon="0.61373">
        <ele>121.5</ele>
        <time>2021-05-17T14:36:03.000Z</time>
      </trkpt>
      <trkpt lat="44.86236" lon="0.61376">
        <ele>121.3</ele>
        <time>2021-05-17T14:36:04.000Z</time>
      </trkpt>
      <trkpt lat="44.86237" lon="0.61377">
        <ele>121.3</ele>
        <time>2021-05-17T14:36:05.000Z</time>
      </trkpt>
      <trkpt lat="44.86235" lon="0.6138">
        <ele>121.1</ele>
        <time>2021-05-17T14:36:06.000Z</time>
      </trkpt>
      <trkpt lat="44.86233" lon="0.61383">
        <ele>120.9</ele>
        <time>2021-05-17T14:36:07.000Z</time>
      </trkpt>
      <trkpt lat="44.86233" lon="0.61385">
        <ele>120.9</ele>
        <time>2021-05-17T14:36:08.000Z</time>
      </trkpt>
      <trkpt lat="44.86232" lon="0.61389">
        <ele>120.8</ele>
        <time>2021-05-17T14:36:09.000Z</time>
      </trkpt>
      <trkpt lat="44.86231" lon="0.61391">
        <ele>120.6</ele>
        <time>2021-05-17T14:36:10.000Z</time>
      </trkpt>
      <trkpt lat="44.8623" lon="0.61394">
        <ele>120.6</ele>
        <time>2021-05-17T14:36:11.000Z</time>
      </trkpt>
      <trkpt lat="44.86229" lon="0.61396">
        <ele>120.5</ele>
        <time>2021-05-17T14:36:12.000Z</time>
      </trkpt>
      <trkpt lat="44.86226" lon="0.61398">
        <ele>120.5</ele>
        <time>2021-05-17T14:36:13.000Z</time>
      </trkpt>
      <trkpt lat="44.86224" lon="0.61399">
        <ele>120.3</ele>
        <time>2021-05-17T14:36:14.000Z</time>
      </trkpt>
      <trkpt lat="44.86221" lon="0.614">
        <ele>120.3</ele>
        <time>2021-05-17T14:36:15.000Z</time>
      </trkpt>
      <trkpt lat="44.86219" lon="0.61398">
        <ele>120.5</ele>
        <time>2021-05-17T14:36:16.000Z</time>
      </trkpt>
      <trkpt lat="44.86218" lon="0.61397">
        <ele>120.5</ele>
        <time>2021-05-17T14:36:17.000Z</time>
      </trkpt>
      <trkpt lat="44.86215" lon="0.61397">
        <ele>120.5</ele>
        <time>2021-05-17T14:36:18.000Z</time>
      </trkpt>
      <trkpt lat="44.86214" lon="0.61397">
        <ele>120.5</ele>
        <time>2021-05-17T14:36:19.000Z</time>
      </trkpt>
      <trkpt lat="44.86211" lon="0.61397">
        <ele>120.5</ele>
        <time>2021-05-17T14:36:20.000Z</time>
      </trkpt>
      <trkpt lat="44.8621" lon="0.61396">
        <ele>120.6</ele>
        <time>2021-05-17T14:36:21.000Z</time>
      </trkpt>
      <trkpt lat="44.86209" lon="0.61397">
        <ele>120.6</ele>
        <time>2021-05-17T14:36:22.000Z</time>
      </trkpt>
      <trkpt lat="44.86207" lon="0.61396">
        <ele>120.6</ele>
        <time>2021-05-17T14:36:23.000Z</time>
      </trkpt>
      <trkpt lat="44.86203" lon="0.61397">
        <ele>120.6</ele>
        <time>2021-05-17T14:36:24.000Z</time>
      </trkpt>
      <trkpt lat="44.86202" lon="0.61397">
        <ele>120.6</ele>
        <time>2021-05-17T14:36:25.000Z</time>
      </trkpt>
      <trkpt lat="44.86198" lon="0.61399">
        <ele>120.7</ele>
        <time>2021-05-17T14:36:26.000Z</time>
      </trkpt>
      <trkpt lat="44.86197" lon="0.61399">
        <ele>120.5</ele>
        <time>2021-05-17T14:36:27.000Z</time>
      </trkpt>
      <trkpt lat="44.86194" lon="0.61401">
        <ele>120.5</ele>
        <time>2021-05-17T14:36:28.000Z</time>
      </trkpt>
      <trkpt lat="44.8619" lon="0.61404">
        <ele>120.4</ele>
        <time>2021-05-17T14:36:29.000Z</time>
      </trkpt>
      <trkpt lat="44.86188" lon="0.61405">
        <ele>120.4</ele>
        <time>2021-05-17T14:36:30.000Z</time>
      </trkpt>
      <trkpt lat="44.86183" lon="0.6141">
        <ele>120.3</ele>
        <time>2021-05-17T14:36:31.000Z</time>
      </trkpt>
      <trkpt lat="44.8618" lon="0.61414">
        <ele>120.2</ele>
        <time>2021-05-17T14:36:32.000Z</time>
      </trkpt>
      <trkpt lat="44.86177" lon="0.61414">
        <ele>120.3</ele>
        <time>2021-05-17T14:36:33.000Z</time>
      </trkpt>
      <trkpt lat="44.86176" lon="0.61413">
        <ele>120.3</ele>
        <time>2021-05-17T14:36:34.000Z</time>
      </trkpt>
      <trkpt lat="44.86173" lon="0.6141">
        <ele>120.4</ele>
        <time>2021-05-17T14:36:35.000Z</time>
      </trkpt>
      <trkpt lat="44.86172" lon="0.61409">
        <ele>120.4</ele>
        <time>2021-05-17T14:36:36.000Z</time>
      </trkpt>
      <trkpt lat="44.86171" lon="0.61408">
        <ele>120.4</ele>
        <time>2021-05-17T14:36:37.000Z</time>
      </trkpt>
      <trkpt lat="44.86169" lon="0.61406">
        <ele>120.6</ele>
        <time>2021-05-17T14:36:38.000Z</time>
      </trkpt>
      <trkpt lat="44.86166" lon="0.61405">
        <ele>120.6</ele>
        <time>2021-05-17T14:36:39.000Z</time>
      </trkpt>
      <trkpt lat="44.86166" lon="0.61404">
        <ele>120.6</ele>
        <time>2021-05-17T14:36:40.000Z</time>
      </trkpt>
      <trkpt lat="44.86162" lon="0.61403">
        <ele>120.7</ele>
        <time>2021-05-17T14:36:41.000Z</time>
      </trkpt>
      <trkpt lat="44.86161" lon="0.61403">
        <ele>120.7</ele>
        <time>2021-05-17T14:36:42.000Z</time>
      </trkpt>
      <trkpt lat="44.86158" lon="0.61402">
        <ele>120.6</ele>
        <time>2021-05-17T14:36:43.000Z</time>
      </trkpt>
      <trkpt lat="44.86155" lon="0.61401">
        <ele>120.6</ele>
        <time>2021-05-17T14:36:44.000Z</time>
      </trkpt>
      <trkpt lat="44.86154" lon="0.614">
        <ele>120.6</ele>
        <time>2021-05-17T14:36:45.000Z</time>
      </trkpt>
      <trkpt lat="44.8615" lon="0.61399">
        <ele>120.6</ele>
        <time>2021-05-17T14:36:46.000Z</time>
      </trkpt>
      <trkpt lat="44.86148" lon="0.61397">
        <ele>120.6</ele>
        <time>2021-05-17T14:36:47.000Z</time>
      </trkpt>
      <trkpt lat="44.86147" lon="0.61395">
        <ele>120.6</ele>
        <time>2021-05-17T14:36:48.000Z</time>
      </trkpt>
      <trkpt lat="44.86145" lon="0.61395">
        <ele>120.5</ele>
        <time>2021-05-17T14:36:49.000Z</time>
      </trkpt>
      <trkpt lat="44.86142" lon="0.61396">
        <ele>120.4</ele>
        <time>2021-05-17T14:36:50.000Z</time>
      </trkpt>
      <trkpt lat="44.86141" lon="0.61397">
        <ele>120.4</ele>
        <time>2021-05-17T14:36:51.000Z</time>
      </trkpt>
      <trkpt lat="44.86138" lon="0.61399">
        <ele>120.3</ele>
        <time>2021-05-17T14:36:52.000Z</time>
      </trkpt>
      <trkpt lat="44.86136" lon="0.614">
        <ele>120.1</ele>
        <time>2021-05-17T14:36:53.000Z</time>
      </trkpt>
      <trkpt lat="44.86134" lon="0.61401">
        <ele>120</ele>
        <time>2021-05-17T14:36:54.000Z</time>
      </trkpt>
      <trkpt lat="44.86131" lon="0.61399">
        <ele>119.8</ele>
        <time>2021-05-17T14:36:55.000Z</time>
      </trkpt>
      <trkpt lat="44.86128" lon="0.61398">
        <ele>119.9</ele>
        <time>2021-05-17T14:36:56.000Z</time>
      </trkpt>
      <trkpt lat="44.86125" lon="0.61394">
        <ele>119.9</ele>
        <time>2021-05-17T14:36:57.000Z</time>
      </trkpt>
      <trkpt lat="44.86125" lon="0.61393">
        <ele>119.7</ele>
        <time>2021-05-17T14:36:58.000Z</time>
      </trkpt>
      <trkpt lat="44.86122" lon="0.6139">
        <ele>119.8</ele>
        <time>2021-05-17T14:36:59.000Z</time>
      </trkpt>
      <trkpt lat="44.86121" lon="0.61388">
        <ele>119.6</ele>
        <time>2021-05-17T14:37:00.000Z</time>
      </trkpt>
      <trkpt lat="44.86118" lon="0.61386">
        <ele>119.5</ele>
        <time>2021-05-17T14:37:01.000Z</time>
      </trkpt>
      <trkpt lat="44.86117" lon="0.61385">
        <ele>119.5</ele>
        <time>2021-05-17T14:37:02.000Z</time>
      </trkpt>
      <trkpt lat="44.86114" lon="0.61384">
        <ele>119.3</ele>
        <time>2021-05-17T14:37:03.000Z</time>
      </trkpt>
      <trkpt lat="44.86111" lon="0.61384">
        <ele>119.1</ele>
        <time>2021-05-17T14:37:04.000Z</time>
      </trkpt>
      <trkpt lat="44.86107" lon="0.61383">
        <ele>118.6</ele>
        <time>2021-05-17T14:37:05.000Z</time>
      </trkpt>
      <trkpt lat="44.86103" lon="0.61383">
        <ele>118.4</ele>
        <time>2021-05-17T14:37:06.000Z</time>
      </trkpt>
      <trkpt lat="44.861" lon="0.61381">
        <ele>118.2</ele>
        <time>2021-05-17T14:37:07.000Z</time>
      </trkpt>
      <trkpt lat="44.86096" lon="0.6138">
        <ele>117.9</ele>
        <time>2021-05-17T14:37:08.000Z</time>
      </trkpt>
      <trkpt lat="44.86095" lon="0.6138">
        <ele>117.7</ele>
        <time>2021-05-17T14:37:09.000Z</time>
      </trkpt>
      <trkpt lat="44.86091" lon="0.61378">
        <ele>117.4</ele>
        <time>2021-05-17T14:37:10.000Z</time>
      </trkpt>
      <trkpt lat="44.86088" lon="0.61376">
        <ele>117.1</ele>
        <time>2021-05-17T14:37:11.000Z</time>
      </trkpt>
      <trkpt lat="44.86087" lon="0.61375">
        <ele>117.1</ele>
        <time>2021-05-17T14:37:12.000Z</time>
      </trkpt>
      <trkpt lat="44.86084" lon="0.61373">
        <ele>116.7</ele>
        <time>2021-05-17T14:37:13.000Z</time>
      </trkpt>
      <trkpt lat="44.86083" lon="0.61372">
        <ele>116.4</ele>
        <time>2021-05-17T14:37:14.000Z</time>
      </trkpt>
      <trkpt lat="44.86081" lon="0.61369">
        <ele>116.3</ele>
        <time>2021-05-17T14:37:15.000Z</time>
      </trkpt>
      <trkpt lat="44.86079" lon="0.61366">
        <ele>116</ele>
        <time>2021-05-17T14:37:16.000Z</time>
      </trkpt>
      <trkpt lat="44.86077" lon="0.61365">
        <ele>115.9</ele>
        <time>2021-05-17T14:37:17.000Z</time>
      </trkpt>
      <trkpt lat="44.86074" lon="0.61364">
        <ele>115.5</ele>
        <time>2021-05-17T14:37:18.000Z</time>
      </trkpt>
      <trkpt lat="44.8607" lon="0.61363">
        <ele>114.9</ele>
        <time>2021-05-17T14:37:19.000Z</time>
      </trkpt>
      <trkpt lat="44.86067" lon="0.61363">
        <ele>114.6</ele>
        <time>2021-05-17T14:37:20.000Z</time>
      </trkpt>
      <trkpt lat="44.86063" lon="0.61362">
        <ele>114.3</ele>
        <time>2021-05-17T14:37:21.000Z</time>
      </trkpt>
      <trkpt lat="44.8606" lon="0.61359">
        <ele>113.9</ele>
        <time>2021-05-17T14:37:22.000Z</time>
      </trkpt>
      <trkpt lat="44.86059" lon="0.61358">
        <ele>113.9</ele>
        <time>2021-05-17T14:37:23.000Z</time>
      </trkpt>
      <trkpt lat="44.86057" lon="0.61355">
        <ele>113.6</ele>
        <time>2021-05-17T14:37:24.000Z</time>
      </trkpt>
      <trkpt lat="44.86057" lon="0.61353">
        <ele>113.6</ele>
        <time>2021-05-17T14:37:25.000Z</time>
      </trkpt>
      <trkpt lat="44.86055" lon="0.61349">
        <ele>113.2</ele>
        <time>2021-05-17T14:37:26.000Z</time>
      </trkpt>
      <trkpt lat="44.86054" lon="0.61347">
        <ele>113.2</ele>
        <time>2021-05-17T14:37:27.000Z</time>
      </trkpt>
      <trkpt lat="44.86052" lon="0.61344">
        <ele>112.9</ele>
        <time>2021-05-17T14:37:28.000Z</time>
      </trkpt>
      <trkpt lat="44.8605" lon="0.61344">
        <ele>112.9</ele>
        <time>2021-05-17T14:37:29.000Z</time>
      </trkpt>
      <trkpt lat="44.86047" lon="0.61341">
        <ele>112.6</ele>
        <time>2021-05-17T14:37:30.000Z</time>
      </trkpt>
      <trkpt lat="44.86046" lon="0.6134">
        <ele>112.4</ele>
        <time>2021-05-17T14:37:31.000Z</time>
      </trkpt>
      <trkpt lat="44.86044" lon="0.61338">
        <ele>112.4</ele>
        <time>2021-05-17T14:37:32.000Z</time>
      </trkpt>
      <trkpt lat="44.86044" lon="0.61337">
        <ele>112.4</ele>
        <time>2021-05-17T14:37:33.000Z</time>
      </trkpt>
      <trkpt lat="44.86042" lon="0.61334">
        <ele>112.1</ele>
        <time>2021-05-17T14:37:34.000Z</time>
      </trkpt>
      <trkpt lat="44.86042" lon="0.61333">
        <ele>112.1</ele>
        <time>2021-05-17T14:37:35.000Z</time>
      </trkpt>
      <trkpt lat="44.86041" lon="0.61329">
        <ele>112.1</ele>
        <time>2021-05-17T14:37:36.000Z</time>
      </trkpt>
      <trkpt lat="44.86042" lon="0.61327">
        <ele>112.1</ele>
        <time>2021-05-17T14:37:37.000Z</time>
      </trkpt>
      <trkpt lat="44.86042" lon="0.61324">
        <ele>112</ele>
        <time>2021-05-17T14:37:38.000Z</time>
      </trkpt>
      <trkpt lat="44.86043" lon="0.61322">
        <ele>112</ele>
        <time>2021-05-17T14:37:39.000Z</time>
      </trkpt>
      <trkpt lat="44.86043" lon="0.6132">
        <ele>112.2</ele>
        <time>2021-05-17T14:37:40.000Z</time>
      </trkpt>
      <trkpt lat="44.86043" lon="0.61316">
        <ele>111.9</ele>
        <time>2021-05-17T14:37:41.000Z</time>
      </trkpt>
      <trkpt lat="44.86044" lon="0.61314">
        <ele>112.1</ele>
        <time>2021-05-17T14:37:42.000Z</time>
      </trkpt>
      <trkpt lat="44.86043" lon="0.61312">
        <ele>111.8</ele>
        <time>2021-05-17T14:37:43.000Z</time>
      </trkpt>
      <trkpt lat="44.86041" lon="0.61307">
        <ele>111.7</ele>
        <time>2021-05-17T14:37:44.000Z</time>
      </trkpt>
      <trkpt lat="44.8604" lon="0.61303">
        <ele>111.4</ele>
        <time>2021-05-17T14:37:45.000Z</time>
      </trkpt>
      <trkpt lat="44.86037" lon="0.61299">
        <ele>111.3</ele>
        <time>2021-05-17T14:37:46.000Z</time>
      </trkpt>
      <trkpt lat="44.86036" lon="0.61296">
        <ele>111.1</ele>
        <time>2021-05-17T14:37:47.000Z</time>
      </trkpt>
      <trkpt lat="44.86033" lon="0.61294">
        <ele>110.9</ele>
        <time>2021-05-17T14:37:48.000Z</time>
      </trkpt>
      <trkpt lat="44.8603" lon="0.61292">
        <ele>110.6</ele>
        <time>2021-05-17T14:37:49.000Z</time>
      </trkpt>
      <trkpt lat="44.86029" lon="0.61291">
        <ele>110.6</ele>
        <time>2021-05-17T14:37:50.000Z</time>
      </trkpt>
      <trkpt lat="44.86027" lon="0.61292">
        <ele>110.5</ele>
        <time>2021-05-17T14:37:51.000Z</time>
      </trkpt>
      <trkpt lat="44.86025" lon="0.61293">
        <ele>110.4</ele>
        <time>2021-05-17T14:37:52.000Z</time>
      </trkpt>
      <trkpt lat="44.86024" lon="0.61293">
        <ele>110.4</ele>
        <time>2021-05-17T14:37:53.000Z</time>
      </trkpt>
      <trkpt lat="44.86023" lon="0.61294">
        <ele>110.4</ele>
        <time>2021-05-17T14:37:54.000Z</time>
      </trkpt>
      <trkpt lat="44.86022" lon="0.61294">
        <ele>110.2</ele>
        <time>2021-05-17T14:37:55.000Z</time>
      </trkpt>
      <trkpt lat="44.86018" lon="0.61294">
        <ele>110.1</ele>
        <time>2021-05-17T14:37:56.000Z</time>
      </trkpt>
      <trkpt lat="44.86017" lon="0.61294">
        <ele>110.1</ele>
        <time>2021-05-17T14:37:57.000Z</time>
      </trkpt>
      <trkpt lat="44.86014" lon="0.61292">
        <ele>109.9</ele>
        <time>2021-05-17T14:37:58.000Z</time>
      </trkpt>
      <trkpt lat="44.86011" lon="0.61289">
        <ele>109.7</ele>
        <time>2021-05-17T14:37:59.000Z</time>
      </trkpt>
      <trkpt lat="44.86009" lon="0.61289">
        <ele>109.6</ele>
        <time>2021-05-17T14:38:00.000Z</time>
      </trkpt>
      <trkpt lat="44.86006" lon="0.61287">
        <ele>109.3</ele>
        <time>2021-05-17T14:38:01.000Z</time>
      </trkpt>
      <trkpt lat="44.86004" lon="0.61283">
        <ele>109.2</ele>
        <time>2021-05-17T14:38:02.000Z</time>
      </trkpt>
      <trkpt lat="44.86003" lon="0.61282">
        <ele>109</ele>
        <time>2021-05-17T14:38:03.000Z</time>
      </trkpt>
      <trkpt lat="44.86" lon="0.6128">
        <ele>108.8</ele>
        <time>2021-05-17T14:38:04.000Z</time>
      </trkpt>
      <trkpt lat="44.85998" lon="0.61279">
        <ele>108.7</ele>
        <time>2021-05-17T14:38:05.000Z</time>
      </trkpt>
      <trkpt lat="44.85997" lon="0.61275">
        <ele>108.5</ele>
        <time>2021-05-17T14:38:06.000Z</time>
      </trkpt>
      <trkpt lat="44.85995" lon="0.61271">
        <ele>108.5</ele>
        <time>2021-05-17T14:38:07.000Z</time>
      </trkpt>
      <trkpt lat="44.85995" lon="0.61269">
        <ele>108.4</ele>
        <time>2021-05-17T14:38:08.000Z</time>
      </trkpt>
      <trkpt lat="44.85991" lon="0.61266">
        <ele>108.1</ele>
        <time>2021-05-17T14:38:09.000Z</time>
      </trkpt>
      <trkpt lat="44.8599" lon="0.61265">
        <ele>108.1</ele>
        <time>2021-05-17T14:38:10.000Z</time>
      </trkpt>
      <trkpt lat="44.85987" lon="0.61263">
        <ele>107.9</ele>
        <time>2021-05-17T14:38:11.000Z</time>
      </trkpt>
      <trkpt lat="44.85986" lon="0.61262">
        <ele>107.9</ele>
        <time>2021-05-17T14:38:12.000Z</time>
      </trkpt>
      <trkpt lat="44.85983" lon="0.6126">
        <ele>107.7</ele>
        <time>2021-05-17T14:38:13.000Z</time>
      </trkpt>
      <trkpt lat="44.85982" lon="0.6126">
        <ele>107.5</ele>
        <time>2021-05-17T14:38:14.000Z</time>
      </trkpt>
      <trkpt lat="44.85981" lon="0.61254">
        <ele>107.5</ele>
        <time>2021-05-17T14:38:15.000Z</time>
      </trkpt>
      <trkpt lat="44.85981" lon="0.61253">
        <ele>107.4</ele>
        <time>2021-05-17T14:38:16.000Z</time>
      </trkpt>
      <trkpt lat="44.8598" lon="0.61252">
        <ele>107.4</ele>
        <time>2021-05-17T14:38:17.000Z</time>
      </trkpt>
      <trkpt lat="44.85979" lon="0.61248">
        <ele>107.2</ele>
        <time>2021-05-17T14:38:18.000Z</time>
      </trkpt>
      <trkpt lat="44.85977" lon="0.61245">
        <ele>107.2</ele>
        <time>2021-05-17T14:38:19.000Z</time>
      </trkpt>
      <trkpt lat="44.85975" lon="0.61241">
        <ele>106.9</ele>
        <time>2021-05-17T14:38:20.000Z</time>
      </trkpt>
      <trkpt lat="44.85974" lon="0.61239">
        <ele>106.8</ele>
        <time>2021-05-17T14:38:21.000Z</time>
      </trkpt>
      <trkpt lat="44.85973" lon="0.61235">
        <ele>106.7</ele>
        <time>2021-05-17T14:38:22.000Z</time>
      </trkpt>
      <trkpt lat="44.85972" lon="0.61231">
        <ele>106.4</ele>
        <time>2021-05-17T14:38:23.000Z</time>
      </trkpt>
      <trkpt lat="44.85972" lon="0.61229">
        <ele>106.4</ele>
        <time>2021-05-17T14:38:24.000Z</time>
      </trkpt>
      <trkpt lat="44.85971" lon="0.61225">
        <ele>106.3</ele>
        <time>2021-05-17T14:38:25.000Z</time>
      </trkpt>
      <trkpt lat="44.85971" lon="0.61223">
        <ele>106.3</ele>
        <time>2021-05-17T14:38:26.000Z</time>
      </trkpt>
      <trkpt lat="44.8597" lon="0.61219">
        <ele>106.1</ele>
        <time>2021-05-17T14:38:27.000Z</time>
      </trkpt>
      <trkpt lat="44.85969" lon="0.61214">
        <ele>105.9</ele>
        <time>2021-05-17T14:38:28.000Z</time>
      </trkpt>
      <trkpt lat="44.85968" lon="0.61213">
        <ele>105.9</ele>
        <time>2021-05-17T14:38:29.000Z</time>
      </trkpt>
      <trkpt lat="44.85967" lon="0.61208">
        <ele>105.9</ele>
        <time>2021-05-17T14:38:30.000Z</time>
      </trkpt>
      <trkpt lat="44.85967" lon="0.61206">
        <ele>105.7</ele>
        <time>2021-05-17T14:38:31.000Z</time>
      </trkpt>
      <trkpt lat="44.85966" lon="0.61203">
        <ele>105.6</ele>
        <time>2021-05-17T14:38:32.000Z</time>
      </trkpt>
      <trkpt lat="44.85966" lon="0.61201">
        <ele>105.5</ele>
        <time>2021-05-17T14:38:33.000Z</time>
      </trkpt>
      <trkpt lat="44.85965" lon="0.61196">
        <ele>105.5</ele>
        <time>2021-05-17T14:38:34.000Z</time>
      </trkpt>
      <trkpt lat="44.85965" lon="0.61195">
        <ele>105.5</ele>
        <time>2021-05-17T14:38:35.000Z</time>
      </trkpt>
      <trkpt lat="44.85966" lon="0.61189">
        <ele>105.4</ele>
        <time>2021-05-17T14:38:36.000Z</time>
      </trkpt>
      <trkpt lat="44.85965" lon="0.61183">
        <ele>105.3</ele>
        <time>2021-05-17T14:38:37.000Z</time>
      </trkpt>
      <trkpt lat="44.85965" lon="0.61181">
        <ele>105.3</ele>
        <time>2021-05-17T14:38:38.000Z</time>
      </trkpt>
      <trkpt lat="44.85965" lon="0.61175">
        <ele>105.2</ele>
        <time>2021-05-17T14:38:39.000Z</time>
      </trkpt>
      <trkpt lat="44.85964" lon="0.61173">
        <ele>104.9</ele>
        <time>2021-05-17T14:38:40.000Z</time>
      </trkpt>
      <trkpt lat="44.85964" lon="0.61167">
        <ele>104.7</ele>
        <time>2021-05-17T14:38:41.000Z</time>
      </trkpt>
      <trkpt lat="44.85964" lon="0.61165">
        <ele>104.7</ele>
        <time>2021-05-17T14:38:42.000Z</time>
      </trkpt>
      <trkpt lat="44.85964" lon="0.6116">
        <ele>104.7</ele>
        <time>2021-05-17T14:38:43.000Z</time>
      </trkpt>
      <trkpt lat="44.85964" lon="0.61159">
        <ele>104.6</ele>
        <time>2021-05-17T14:38:44.000Z</time>
      </trkpt>
      <trkpt lat="44.85964" lon="0.61153">
        <ele>104.5</ele>
        <time>2021-05-17T14:38:45.000Z</time>
      </trkpt>
      <trkpt lat="44.85964" lon="0.6115">
        <ele>104.4</ele>
        <time>2021-05-17T14:38:46.000Z</time>
      </trkpt>
      <trkpt lat="44.85962" lon="0.61145">
        <ele>104.2</ele>
        <time>2021-05-17T14:38:47.000Z</time>
      </trkpt>
      <trkpt lat="44.85962" lon="0.61142">
        <ele>104.2</ele>
        <time>2021-05-17T14:38:48.000Z</time>
      </trkpt>
      <trkpt lat="44.85961" lon="0.61138">
        <ele>103.9</ele>
        <time>2021-05-17T14:38:49.000Z</time>
      </trkpt>
      <trkpt lat="44.85961" lon="0.61136">
        <ele>103.8</ele>
        <time>2021-05-17T14:38:50.000Z</time>
      </trkpt>
      <trkpt lat="44.85959" lon="0.61133">
        <ele>103.7</ele>
        <time>2021-05-17T14:38:51.000Z</time>
      </trkpt>
      <trkpt lat="44.85958" lon="0.61131">
        <ele>103.7</ele>
        <time>2021-05-17T14:38:52.000Z</time>
      </trkpt>
      <trkpt lat="44.85957" lon="0.61127">
        <ele>103.5</ele>
        <time>2021-05-17T14:38:53.000Z</time>
      </trkpt>
      <trkpt lat="44.85957" lon="0.61126">
        <ele>103.5</ele>
        <time>2021-05-17T14:38:54.000Z</time>
      </trkpt>
      <trkpt lat="44.85956" lon="0.61124">
        <ele>103.4</ele>
        <time>2021-05-17T14:38:55.000Z</time>
      </trkpt>
      <trkpt lat="44.85955" lon="0.61122">
        <ele>103.4</ele>
        <time>2021-05-17T14:38:56.000Z</time>
      </trkpt>
      <trkpt lat="44.85954" lon="0.6112">
        <ele>103.3</ele>
        <time>2021-05-17T14:38:57.000Z</time>
      </trkpt>
      <trkpt lat="44.85954" lon="0.61117">
        <ele>103.3</ele>
        <time>2021-05-17T14:38:58.000Z</time>
      </trkpt>
      <trkpt lat="44.85952" lon="0.61114">
        <ele>103.2</ele>
        <time>2021-05-17T14:38:59.000Z</time>
      </trkpt>
      <trkpt lat="44.85952" lon="0.61113">
        <ele>103.1</ele>
        <time>2021-05-17T14:39:00.000Z</time>
      </trkpt>
      <trkpt lat="44.8595" lon="0.6111">
        <ele>103.1</ele>
        <time>2021-05-17T14:39:01.000Z</time>
      </trkpt>
      <trkpt lat="44.8595" lon="0.61109">
        <ele>103.1</ele>
        <time>2021-05-17T14:39:02.000Z</time>
      </trkpt>
      <trkpt lat="44.8595" lon="0.61105">
        <ele>103</ele>
        <time>2021-05-17T14:39:03.000Z</time>
      </trkpt>
      <trkpt lat="44.8595" lon="0.61103">
        <ele>103</ele>
        <time>2021-05-17T14:39:04.000Z</time>
      </trkpt>
      <trkpt lat="44.8595" lon="0.61099">
        <ele>102.9</ele>
        <time>2021-05-17T14:39:05.000Z</time>
      </trkpt>
      <trkpt lat="44.85949" lon="0.61098">
        <ele>102.8</ele>
        <time>2021-05-17T14:39:06.000Z</time>
      </trkpt>
      <trkpt lat="44.85949" lon="0.61096">
        <ele>102.8</ele>
        <time>2021-05-17T14:39:07.000Z</time>
      </trkpt>
      <trkpt lat="44.85948" lon="0.61094">
        <ele>102.7</ele>
        <time>2021-05-17T14:39:08.000Z</time>
      </trkpt>
      <trkpt lat="44.85949" lon="0.6109">
        <ele>102.7</ele>
        <time>2021-05-17T14:39:09.000Z</time>
      </trkpt>
      <trkpt lat="44.85949" lon="0.61089">
        <ele>102.6</ele>
        <time>2021-05-17T14:39:10.000Z</time>
      </trkpt>
      <trkpt lat="44.85949" lon="0.61085">
        <ele>102.5</ele>
        <time>2021-05-17T14:39:11.000Z</time>
      </trkpt>
      <trkpt lat="44.85949" lon="0.61083">
        <ele>102.5</ele>
        <time>2021-05-17T14:39:12.000Z</time>
      </trkpt>
      <trkpt lat="44.85948" lon="0.6108">
        <ele>102.4</ele>
        <time>2021-05-17T14:39:13.000Z</time>
      </trkpt>
      <trkpt lat="44.85948" lon="0.61079">
        <ele>102.4</ele>
        <time>2021-05-17T14:39:14.000Z</time>
      </trkpt>
      <trkpt lat="44.85947" lon="0.61078">
        <ele>102.4</ele>
        <time>2021-05-17T14:39:15.000Z</time>
      </trkpt>
      <trkpt lat="44.85947" lon="0.61078">
        <ele>102.4</ele>
        <time>2021-05-17T14:39:16.000Z</time>
      </trkpt>
      <trkpt lat="44.85946" lon="0.61076">
        <ele>102.2</ele>
        <time>2021-05-17T14:39:17.000Z</time>
      </trkpt>
      <trkpt lat="44.85945" lon="0.61075">
        <ele>102.3</ele>
        <time>2021-05-17T14:39:18.000Z</time>
      </trkpt>
      <trkpt lat="44.85944" lon="0.61073">
        <ele>102.3</ele>
        <time>2021-05-17T14:39:19.000Z</time>
      </trkpt>
      <trkpt lat="44.85944" lon="0.6107">
        <ele>102.1</ele>
        <time>2021-05-17T14:39:20.000Z</time>
      </trkpt>
      <trkpt lat="44.85945" lon="0.61066">
        <ele>102</ele>
        <time>2021-05-17T14:39:21.000Z</time>
      </trkpt>
      <trkpt lat="44.85944" lon="0.61062">
        <ele>101.9</ele>
        <time>2021-05-17T14:39:22.000Z</time>
      </trkpt>
      <trkpt lat="44.85943" lon="0.61061">
        <ele>101.9</ele>
        <time>2021-05-17T14:39:23.000Z</time>
      </trkpt>
      <trkpt lat="44.85942" lon="0.61057">
        <ele>101.8</ele>
        <time>2021-05-17T14:39:24.000Z</time>
      </trkpt>
      <trkpt lat="44.85941" lon="0.61055">
        <ele>101.7</ele>
        <time>2021-05-17T14:39:25.000Z</time>
      </trkpt>
      <trkpt lat="44.8594" lon="0.61052">
        <ele>101.7</ele>
        <time>2021-05-17T14:39:26.000Z</time>
      </trkpt>
      <trkpt lat="44.85939" lon="0.61051">
        <ele>101.7</ele>
        <time>2021-05-17T14:39:27.000Z</time>
      </trkpt>
      <trkpt lat="44.85939" lon="0.61047">
        <ele>101.6</ele>
        <time>2021-05-17T14:39:28.000Z</time>
      </trkpt>
      <trkpt lat="44.85939" lon="0.61044">
        <ele>101.6</ele>
        <time>2021-05-17T14:39:29.000Z</time>
      </trkpt>
      <trkpt lat="44.85938" lon="0.61042">
        <ele>101.5</ele>
        <time>2021-05-17T14:39:30.000Z</time>
      </trkpt>
      <trkpt lat="44.85937" lon="0.6104">
        <ele>101.5</ele>
        <time>2021-05-17T14:39:31.000Z</time>
      </trkpt>
      <trkpt lat="44.85936" lon="0.61038">
        <ele>101.5</ele>
        <time>2021-05-17T14:39:32.000Z</time>
      </trkpt>
      <trkpt lat="44.85935" lon="0.61034">
        <ele>101.5</ele>
        <time>2021-05-17T14:39:33.000Z</time>
      </trkpt>
      <trkpt lat="44.85934" lon="0.6103">
        <ele>101.3</ele>
        <time>2021-05-17T14:39:34.000Z</time>
      </trkpt>
      <trkpt lat="44.85934" lon="0.61029">
        <ele>101.2</ele>
        <time>2021-05-17T14:39:35.000Z</time>
      </trkpt>
      <trkpt lat="44.85934" lon="0.61024">
        <ele>101.1</ele>
        <time>2021-05-17T14:39:36.000Z</time>
      </trkpt>
      <trkpt lat="44.85932" lon="0.6102">
        <ele>101</ele>
        <time>2021-05-17T14:39:37.000Z</time>
      </trkpt>
      <trkpt lat="44.85929" lon="0.61017">
        <ele>101</ele>
        <time>2021-05-17T14:39:38.000Z</time>
      </trkpt>
      <trkpt lat="44.85927" lon="0.61012">
        <ele>101</ele>
        <time>2021-05-17T14:39:39.000Z</time>
      </trkpt>
      <trkpt lat="44.85926" lon="0.61011">
        <ele>101</ele>
        <time>2021-05-17T14:39:40.000Z</time>
      </trkpt>
      <trkpt lat="44.85924" lon="0.61006">
        <ele>101</ele>
        <time>2021-05-17T14:39:41.000Z</time>
      </trkpt>
      <trkpt lat="44.85923" lon="0.61005">
        <ele>101</ele>
        <time>2021-05-17T14:39:42.000Z</time>
      </trkpt>
      <trkpt lat="44.85922" lon="0.60999">
        <ele>100.9</ele>
        <time>2021-05-17T14:39:43.000Z</time>
      </trkpt>
      <trkpt lat="44.85921" lon="0.60992">
        <ele>100.8</ele>
        <time>2021-05-17T14:39:44.000Z</time>
      </trkpt>
      <trkpt lat="44.85919" lon="0.60986">
        <ele>100.5</ele>
        <time>2021-05-17T14:39:45.000Z</time>
      </trkpt>
      <trkpt lat="44.85917" lon="0.60981">
        <ele>100.4</ele>
        <time>2021-05-17T14:39:46.000Z</time>
      </trkpt>
      <trkpt lat="44.85915" lon="0.60979">
        <ele>100.6</ele>
        <time>2021-05-17T14:39:47.000Z</time>
      </trkpt>
      <trkpt lat="44.85912" lon="0.60977">
        <ele>100.4</ele>
        <time>2021-05-17T14:39:48.000Z</time>
      </trkpt>
      <trkpt lat="44.85911" lon="0.60977">
        <ele>100.4</ele>
        <time>2021-05-17T14:39:49.000Z</time>
      </trkpt>
      <trkpt lat="44.85908" lon="0.60973">
        <ele>100.2</ele>
        <time>2021-05-17T14:39:50.000Z</time>
      </trkpt>
      <trkpt lat="44.85906" lon="0.60969">
        <ele>99.9</ele>
        <time>2021-05-17T14:39:51.000Z</time>
      </trkpt>
      <trkpt lat="44.85907" lon="0.60962">
        <ele>99.5</ele>
        <time>2021-05-17T14:39:52.000Z</time>
      </trkpt>
      <trkpt lat="44.85908" lon="0.60955">
        <ele>98.7</ele>
        <time>2021-05-17T14:39:53.000Z</time>
      </trkpt>
      <trkpt lat="44.85907" lon="0.60949">
        <ele>98.4</ele>
        <time>2021-05-17T14:39:54.000Z</time>
      </trkpt>
      <trkpt lat="44.85906" lon="0.60945">
        <ele>98</ele>
        <time>2021-05-17T14:39:55.000Z</time>
      </trkpt>
      <trkpt lat="44.85903" lon="0.60941">
        <ele>97.6</ele>
        <time>2021-05-17T14:39:56.000Z</time>
      </trkpt>
      <trkpt lat="44.85902" lon="0.6094">
        <ele>97.6</ele>
        <time>2021-05-17T14:39:57.000Z</time>
      </trkpt>
      <trkpt lat="44.859" lon="0.60937">
        <ele>97.3</ele>
        <time>2021-05-17T14:39:58.000Z</time>
      </trkpt>
      <trkpt lat="44.859" lon="0.60935">
        <ele>96.9</ele>
        <time>2021-05-17T14:39:59.000Z</time>
      </trkpt>
      <trkpt lat="44.85898" lon="0.60933">
        <ele>96.9</ele>
        <time>2021-05-17T14:40:00.000Z</time>
      </trkpt>
      <trkpt lat="44.859" lon="0.60929">
        <ele>96.6</ele>
        <time>2021-05-17T14:40:01.000Z</time>
      </trkpt>
      <trkpt lat="44.85901" lon="0.60927">
        <ele>96.4</ele>
        <time>2021-05-17T14:40:02.000Z</time>
      </trkpt>
      <trkpt lat="44.85902" lon="0.60925">
        <ele>96.4</ele>
        <time>2021-05-17T14:40:03.000Z</time>
      </trkpt>
      <trkpt lat="44.85903" lon="0.60924">
        <ele>96.4</ele>
        <time>2021-05-17T14:40:04.000Z</time>
      </trkpt>
      <trkpt lat="44.85904" lon="0.60924">
        <ele>96.5</ele>
        <time>2021-05-17T14:40:05.000Z</time>
      </trkpt>
      <trkpt lat="44.85905" lon="0.60924">
        <ele>96.5</ele>
        <time>2021-05-17T14:40:06.000Z</time>
      </trkpt>
      <trkpt lat="44.85905" lon="0.60923">
        <ele>96.5</ele>
        <time>2021-05-17T14:40:07.000Z</time>
      </trkpt>
      <trkpt lat="44.85906" lon="0.60923">
        <ele>96.5</ele>
        <time>2021-05-17T14:40:08.000Z</time>
      </trkpt>
      <trkpt lat="44.85906" lon="0.60923">
        <ele>96.6</ele>
        <time>2021-05-17T14:40:09.000Z</time>
      </trkpt>
      <trkpt lat="44.85905" lon="0.60921">
        <ele>96.3</ele>
        <time>2021-05-17T14:40:10.000Z</time>
      </trkpt>
      <trkpt lat="44.85906" lon="0.6092">
        <ele>96.3</ele>
        <time>2021-05-17T14:40:11.000Z</time>
      </trkpt>
      <trkpt lat="44.85907" lon="0.60918">
        <ele>96.5</ele>
        <time>2021-05-17T14:40:12.000Z</time>
      </trkpt>
      <trkpt lat="44.85907" lon="0.60916">
        <ele>96.4</ele>
        <time>2021-05-17T14:40:13.000Z</time>
      </trkpt>
      <trkpt lat="44.85908" lon="0.60914">
        <ele>96.4</ele>
        <time>2021-05-17T14:40:14.000Z</time>
      </trkpt>
      <trkpt lat="44.85909" lon="0.60912">
        <ele>96.4</ele>
        <time>2021-05-17T14:40:15.000Z</time>
      </trkpt>
      <trkpt lat="44.8591" lon="0.60911">
        <ele>96.6</ele>
        <time>2021-05-17T14:40:16.000Z</time>
      </trkpt>
      <trkpt lat="44.85911" lon="0.60911">
        <ele>96.6</ele>
        <time>2021-05-17T14:40:17.000Z</time>
      </trkpt>
      <trkpt lat="44.85915" lon="0.60911">
        <ele>96.9</ele>
        <time>2021-05-17T14:40:18.000Z</time>
      </trkpt>
      <trkpt lat="44.85915" lon="0.60912">
        <ele>96.9</ele>
        <time>2021-05-17T14:40:19.000Z</time>
      </trkpt>
      <trkpt lat="44.85918" lon="0.60916">
        <ele>97.2</ele>
        <time>2021-05-17T14:40:20.000Z</time>
      </trkpt>
      <trkpt lat="44.85919" lon="0.60919">
        <ele>97.5</ele>
        <time>2021-05-17T14:40:21.000Z</time>
      </trkpt>
      <trkpt lat="44.85919" lon="0.6092">
        <ele>97.5</ele>
        <time>2021-05-17T14:40:22.000Z</time>
      </trkpt>
      <trkpt lat="44.85921" lon="0.60924">
        <ele>97.5</ele>
        <time>2021-05-17T14:40:23.000Z</time>
      </trkpt>
      <trkpt lat="44.85921" lon="0.60925">
        <ele>97.5</ele>
        <time>2021-05-17T14:40:24.000Z</time>
      </trkpt>
      <trkpt lat="44.85922" lon="0.60925">
        <ele>97.7</ele>
        <time>2021-05-17T14:40:25.000Z</time>
      </trkpt>
      <trkpt lat="44.85924" lon="0.60926">
        <ele>97.7</ele>
        <time>2021-05-17T14:40:26.000Z</time>
      </trkpt>
      <trkpt lat="44.85928" lon="0.60928">
        <ele>98.2</ele>
        <time>2021-05-17T14:40:27.000Z</time>
      </trkpt>
      <trkpt lat="44.85929" lon="0.60929">
        <ele>98.2</ele>
        <time>2021-05-17T14:40:28.000Z</time>
      </trkpt>
      <trkpt lat="44.85932" lon="0.60932">
        <ele>98.4</ele>
        <time>2021-05-17T14:40:29.000Z</time>
      </trkpt>
      <trkpt lat="44.85934" lon="0.60937">
        <ele>98.6</ele>
        <time>2021-05-17T14:40:30.000Z</time>
      </trkpt>
      <trkpt lat="44.85935" lon="0.60939">
        <ele>98.6</ele>
        <time>2021-05-17T14:40:31.000Z</time>
      </trkpt>
      <trkpt lat="44.85938" lon="0.60942">
        <ele>98.7</ele>
        <time>2021-05-17T14:40:32.000Z</time>
      </trkpt>
      <trkpt lat="44.85939" lon="0.60943">
        <ele>98.7</ele>
        <time>2021-05-17T14:40:33.000Z</time>
      </trkpt>
      <trkpt lat="44.85941" lon="0.60947">
        <ele>98.9</ele>
        <time>2021-05-17T14:40:34.000Z</time>
      </trkpt>
      <trkpt lat="44.85944" lon="0.60949">
        <ele>99</ele>
        <time>2021-05-17T14:40:35.000Z</time>
      </trkpt>
      <trkpt lat="44.85946" lon="0.60953">
        <ele>99</ele>
        <time>2021-05-17T14:40:36.000Z</time>
      </trkpt>
      <trkpt lat="44.85947" lon="0.60955">
        <ele>99</ele>
        <time>2021-05-17T14:40:37.000Z</time>
      </trkpt>
      <trkpt lat="44.8595" lon="0.60955">
        <ele>99.1</ele>
        <time>2021-05-17T14:40:38.000Z</time>
      </trkpt>
      <trkpt lat="44.85951" lon="0.60953">
        <ele>99.1</ele>
        <time>2021-05-17T14:40:39.000Z</time>
      </trkpt>
      <trkpt lat="44.85951" lon="0.60952">
        <ele>99.1</ele>
        <time>2021-05-17T14:40:40.000Z</time>
      </trkpt>
      <trkpt lat="44.85952" lon="0.60953">
        <ele>99.1</ele>
        <time>2021-05-17T14:40:41.000Z</time>
      </trkpt>
      <trkpt lat="44.85952" lon="0.60953">
        <ele>99.2</ele>
        <time>2021-05-17T14:40:42.000Z</time>
      </trkpt>
      <trkpt lat="44.85953" lon="0.60953">
        <ele>99.2</ele>
        <time>2021-05-17T14:40:43.000Z</time>
      </trkpt>
      <trkpt lat="44.85954" lon="0.60953">
        <ele>99.2</ele>
        <time>2021-05-17T14:40:44.000Z</time>
      </trkpt>
      <trkpt lat="44.85955" lon="0.60953">
        <ele>99.2</ele>
        <time>2021-05-17T14:40:45.000Z</time>
      </trkpt>
      <trkpt lat="44.85956" lon="0.60954">
        <ele>99.2</ele>
        <time>2021-05-17T14:40:46.000Z</time>
      </trkpt>
      <trkpt lat="44.85956" lon="0.60954">
        <ele>99.2</ele>
        <time>2021-05-17T14:40:47.000Z</time>
      </trkpt>
      <trkpt lat="44.85959" lon="0.60955">
        <ele>99.3</ele>
        <time>2021-05-17T14:40:48.000Z</time>
      </trkpt>
      <trkpt lat="44.85963" lon="0.60955">
        <ele>99.4</ele>
        <time>2021-05-17T14:40:49.000Z</time>
      </trkpt>
      <trkpt lat="44.85963" lon="0.60955">
        <ele>99.4</ele>
        <time>2021-05-17T14:40:50.000Z</time>
      </trkpt>
      <trkpt lat="44.85966" lon="0.60956">
        <ele>99.4</ele>
        <time>2021-05-17T14:40:51.000Z</time>
      </trkpt>
      <trkpt lat="44.85967" lon="0.60956">
        <ele>99.4</ele>
        <time>2021-05-17T14:40:52.000Z</time>
      </trkpt>
      <trkpt lat="44.85968" lon="0.60956">
        <ele>99.5</ele>
        <time>2021-05-17T14:40:53.000Z</time>
      </trkpt>
      <trkpt lat="44.8597" lon="0.60955">
        <ele>99.6</ele>
        <time>2021-05-17T14:40:54.000Z</time>
      </trkpt>
      <trkpt lat="44.85971" lon="0.60956">
        <ele>99.6</ele>
        <time>2021-05-17T14:40:55.000Z</time>
      </trkpt>
      <trkpt lat="44.85971" lon="0.60956">
        <ele>99.6</ele>
        <time>2021-05-17T14:40:56.000Z</time>
      </trkpt>
      <trkpt lat="44.85972" lon="0.60955">
        <ele>99.6</ele>
        <time>2021-05-17T14:40:57.000Z</time>
      </trkpt>
      <trkpt lat="44.85973" lon="0.60953">
        <ele>99.6</ele>
        <time>2021-05-17T14:40:58.000Z</time>
      </trkpt>
      <trkpt lat="44.85974" lon="0.60952">
        <ele>99.7</ele>
        <time>2021-05-17T14:40:59.000Z</time>
      </trkpt>
      <trkpt lat="44.85976" lon="0.60951">
        <ele>99.7</ele>
        <time>2021-05-17T14:41:00.000Z</time>
      </trkpt>
      <trkpt lat="44.85977" lon="0.60948">
        <ele>99.8</ele>
        <time>2021-05-17T14:41:01.000Z</time>
      </trkpt>
      <trkpt lat="44.85978" lon="0.60947">
        <ele>99.8</ele>
        <time>2021-05-17T14:41:02.000Z</time>
      </trkpt>
      <trkpt lat="44.8598" lon="0.60944">
        <ele>99.9</ele>
        <time>2021-05-17T14:41:03.000Z</time>
      </trkpt>
      <trkpt lat="44.8598" lon="0.60943">
        <ele>100</ele>
        <time>2021-05-17T14:41:04.000Z</time>
      </trkpt>
      <trkpt lat="44.85981" lon="0.60942">
        <ele>100</ele>
        <time>2021-05-17T14:41:05.000Z</time>
      </trkpt>
      <trkpt lat="44.85982" lon="0.60941">
        <ele>100</ele>
        <time>2021-05-17T14:41:06.000Z</time>
      </trkpt>
      <trkpt lat="44.85981" lon="0.6094">
        <ele>100</ele>
        <time>2021-05-17T14:41:07.000Z</time>
      </trkpt>
      <trkpt lat="44.85982" lon="0.60938">
        <ele>100</ele>
        <time>2021-05-17T14:41:08.000Z</time>
      </trkpt>
      <trkpt lat="44.85982" lon="0.60937">
        <ele>100</ele>
        <time>2021-05-17T14:41:09.000Z</time>
      </trkpt>
      <trkpt lat="44.85982" lon="0.60935">
        <ele>100.1</ele>
        <time>2021-05-17T14:41:10.000Z</time>
      </trkpt>
      <trkpt lat="44.85982" lon="0.60934">
        <ele>100.1</ele>
        <time>2021-05-17T14:41:11.000Z</time>
      </trkpt>
      <trkpt lat="44.85982" lon="0.60934">
        <ele>100.1</ele>
        <time>2021-05-17T14:41:12.000Z</time>
      </trkpt>
      <trkpt lat="44.85982" lon="0.60933">
        <ele>100.1</ele>
        <time>2021-05-17T14:41:13.000Z</time>
      </trkpt>
      <trkpt lat="44.85981" lon="0.60931">
        <ele>100.1</ele>
        <time>2021-05-17T14:41:14.000Z</time>
      </trkpt>
      <trkpt lat="44.85981" lon="0.60929">
        <ele>100.1</ele>
        <time>2021-05-17T14:41:15.000Z</time>
      </trkpt>
      <trkpt lat="44.85981" lon="0.60928">
        <ele>100.1</ele>
        <time>2021-05-17T14:41:16.000Z</time>
      </trkpt>
      <trkpt lat="44.85981" lon="0.60925">
        <ele>100.2</ele>
        <time>2021-05-17T14:41:17.000Z</time>
      </trkpt>
      <trkpt lat="44.85981" lon="0.60923">
        <ele>100.2</ele>
        <time>2021-05-17T14:41:18.000Z</time>
      </trkpt>
      <trkpt lat="44.8598" lon="0.60922">
        <ele>100.2</ele>
        <time>2021-05-17T14:41:19.000Z</time>
      </trkpt>
      <trkpt lat="44.8598" lon="0.60921">
        <ele>100.2</ele>
        <time>2021-05-17T14:41:20.000Z</time>
      </trkpt>
      <trkpt lat="44.85979" lon="0.6092">
        <ele>100.1</ele>
        <time>2021-05-17T14:41:21.000Z</time>
      </trkpt>
      <trkpt lat="44.85979" lon="0.60918">
        <ele>100.1</ele>
        <time>2021-05-17T14:41:22.000Z</time>
      </trkpt>
      <trkpt lat="44.85979" lon="0.60918">
        <ele>100.1</ele>
        <time>2021-05-17T14:41:23.000Z</time>
      </trkpt>
      <trkpt lat="44.85979" lon="0.60916">
        <ele>100.1</ele>
        <time>2021-05-17T14:41:24.000Z</time>
      </trkpt>
      <trkpt lat="44.85979" lon="0.60914">
        <ele>100.1</ele>
        <time>2021-05-17T14:41:25.000Z</time>
      </trkpt>
      <trkpt lat="44.85979" lon="0.60912">
        <ele>100.1</ele>
        <time>2021-05-17T14:41:26.000Z</time>
      </trkpt>
      <trkpt lat="44.85979" lon="0.60909">
        <ele>100.1</ele>
        <time>2021-05-17T14:41:27.000Z</time>
      </trkpt>
      <trkpt lat="44.85979" lon="0.60906">
        <ele>100.1</ele>
        <time>2021-05-17T14:41:28.000Z</time>
      </trkpt>
      <trkpt lat="44.85979" lon="0.60905">
        <ele>100.1</ele>
        <time>2021-05-17T14:41:29.000Z</time>
      </trkpt>
      <trkpt lat="44.85979" lon="0.60903">
        <ele>100.1</ele>
        <time>2021-05-17T14:41:30.000Z</time>
      </trkpt>
      <trkpt lat="44.8598" lon="0.609">
        <ele>100.1</ele>
        <time>2021-05-17T14:41:31.000Z</time>
      </trkpt>
      <trkpt lat="44.8598" lon="0.60899">
        <ele>100.1</ele>
        <time>2021-05-17T14:41:32.000Z</time>
      </trkpt>
      <trkpt lat="44.8598" lon="0.60898">
        <ele>100.1</ele>
        <time>2021-05-17T14:41:33.000Z</time>
      </trkpt>
      <trkpt lat="44.8598" lon="0.60895">
        <ele>100.1</ele>
        <time>2021-05-17T14:41:34.000Z</time>
      </trkpt>
      <trkpt lat="44.8598" lon="0.60893">
        <ele>100.1</ele>
        <time>2021-05-17T14:41:35.000Z</time>
      </trkpt>
      <trkpt lat="44.8598" lon="0.60892">
        <ele>100.2</ele>
        <time>2021-05-17T14:41:36.000Z</time>
      </trkpt>
      <trkpt lat="44.85981" lon="0.6089">
        <ele>100.2</ele>
        <time>2021-05-17T14:41:37.000Z</time>
      </trkpt>
      <trkpt lat="44.85982" lon="0.60889">
        <ele>100.2</ele>
        <time>2021-05-17T14:41:38.000Z</time>
      </trkpt>
      <trkpt lat="44.85982" lon="0.60886">
        <ele>100.2</ele>
        <time>2021-05-17T14:41:39.000Z</time>
      </trkpt>
      <trkpt lat="44.85982" lon="0.60884">
        <ele>100.3</ele>
        <time>2021-05-17T14:41:40.000Z</time>
      </trkpt>
      <trkpt lat="44.85983" lon="0.60882">
        <ele>100.3</ele>
        <time>2021-05-17T14:41:41.000Z</time>
      </trkpt>
      <trkpt lat="44.85983" lon="0.6088">
        <ele>100.3</ele>
        <time>2021-05-17T14:41:42.000Z</time>
      </trkpt>
      <trkpt lat="44.85983" lon="0.60878">
        <ele>100.4</ele>
        <time>2021-05-17T14:41:43.000Z</time>
      </trkpt>
      <trkpt lat="44.85983" lon="0.60876">
        <ele>100.4</ele>
        <time>2021-05-17T14:41:44.000Z</time>
      </trkpt>
      <trkpt lat="44.85984" lon="0.60874">
        <ele>100.5</ele>
        <time>2021-05-17T14:41:45.000Z</time>
      </trkpt>
      <trkpt lat="44.85983" lon="0.60872">
        <ele>100.5</ele>
        <time>2021-05-17T14:41:46.000Z</time>
      </trkpt>
      <trkpt lat="44.85984" lon="0.60869">
        <ele>100.6</ele>
        <time>2021-05-17T14:41:47.000Z</time>
      </trkpt>
      <trkpt lat="44.85984" lon="0.60867">
        <ele>100.6</ele>
        <time>2021-05-17T14:41:48.000Z</time>
      </trkpt>
      <trkpt lat="44.85984" lon="0.60865">
        <ele>100.8</ele>
        <time>2021-05-17T14:41:49.000Z</time>
      </trkpt>
      <trkpt lat="44.85984" lon="0.60863">
        <ele>100.8</ele>
        <time>2021-05-17T14:41:50.000Z</time>
      </trkpt>
      <trkpt lat="44.85984" lon="0.6086">
        <ele>101</ele>
        <time>2021-05-17T14:41:51.000Z</time>
      </trkpt>
      <trkpt lat="44.85984" lon="0.60858">
        <ele>101.2</ele>
        <time>2021-05-17T14:41:52.000Z</time>
      </trkpt>
      <trkpt lat="44.85985" lon="0.60856">
        <ele>101.2</ele>
        <time>2021-05-17T14:41:53.000Z</time>
      </trkpt>
      <trkpt lat="44.85985" lon="0.60853">
        <ele>101.5</ele>
        <time>2021-05-17T14:41:54.000Z</time>
      </trkpt>
      <trkpt lat="44.85985" lon="0.60851">
        <ele>101.5</ele>
        <time>2021-05-17T14:41:55.000Z</time>
      </trkpt>
      <trkpt lat="44.85985" lon="0.60849">
        <ele>101.7</ele>
        <time>2021-05-17T14:41:56.000Z</time>
      </trkpt>
      <trkpt lat="44.85986" lon="0.60844">
        <ele>102.2</ele>
        <time>2021-05-17T14:41:57.000Z</time>
      </trkpt>
      <trkpt lat="44.85986" lon="0.60843">
        <ele>102.2</ele>
        <time>2021-05-17T14:41:58.000Z</time>
      </trkpt>
      <trkpt lat="44.85985" lon="0.60838">
        <ele>102.5</ele>
        <time>2021-05-17T14:41:59.000Z</time>
      </trkpt>
      <trkpt lat="44.85985" lon="0.60837">
        <ele>102.6</ele>
        <time>2021-05-17T14:42:00.000Z</time>
      </trkpt>
      <trkpt lat="44.85985" lon="0.60832">
        <ele>102.9</ele>
        <time>2021-05-17T14:42:01.000Z</time>
      </trkpt>
      <trkpt lat="44.85984" lon="0.60831">
        <ele>102.9</ele>
        <time>2021-05-17T14:42:02.000Z</time>
      </trkpt>
      <trkpt lat="44.85983" lon="0.60827">
        <ele>103.2</ele>
        <time>2021-05-17T14:42:03.000Z</time>
      </trkpt>
      <trkpt lat="44.85983" lon="0.60825">
        <ele>103.2</ele>
        <time>2021-05-17T14:42:04.000Z</time>
      </trkpt>
      <trkpt lat="44.85982" lon="0.60821">
        <ele>103.2</ele>
        <time>2021-05-17T14:42:05.000Z</time>
      </trkpt>
      <trkpt lat="44.85982" lon="0.6082">
        <ele>103.2</ele>
        <time>2021-05-17T14:42:06.000Z</time>
      </trkpt>
      <trkpt lat="44.8598" lon="0.60816">
        <ele>103.5</ele>
        <time>2021-05-17T14:42:07.000Z</time>
      </trkpt>
      <trkpt lat="44.8598" lon="0.60815">
        <ele>103.6</ele>
        <time>2021-05-17T14:42:08.000Z</time>
      </trkpt>
      <trkpt lat="44.8598" lon="0.60812">
        <ele>103.6</ele>
        <time>2021-05-17T14:42:09.000Z</time>
      </trkpt>
      <trkpt lat="44.8598" lon="0.6081">
        <ele>103.8</ele>
        <time>2021-05-17T14:42:10.000Z</time>
      </trkpt>
      <trkpt lat="44.85979" lon="0.60808">
        <ele>103.8</ele>
        <time>2021-05-17T14:42:11.000Z</time>
      </trkpt>
      <trkpt lat="44.8598" lon="0.60805">
        <ele>104</ele>
        <time>2021-05-17T14:42:12.000Z</time>
      </trkpt>
      <trkpt lat="44.8598" lon="0.60802">
        <ele>104.1</ele>
        <time>2021-05-17T14:42:13.000Z</time>
      </trkpt>
      <trkpt lat="44.85979" lon="0.608">
        <ele>104</ele>
        <time>2021-05-17T14:42:14.000Z</time>
      </trkpt>
      <trkpt lat="44.85978" lon="0.60798">
        <ele>104</ele>
        <time>2021-05-17T14:42:15.000Z</time>
      </trkpt>
      <trkpt lat="44.85978" lon="0.60794">
        <ele>104.1</ele>
        <time>2021-05-17T14:42:16.000Z</time>
      </trkpt>
      <trkpt lat="44.85976" lon="0.60791">
        <ele>104.2</ele>
        <time>2021-05-17T14:42:17.000Z</time>
      </trkpt>
      <trkpt lat="44.85974" lon="0.60788">
        <ele>104.3</ele>
        <time>2021-05-17T14:42:18.000Z</time>
      </trkpt>
      <trkpt lat="44.85972" lon="0.60783">
        <ele>104.4</ele>
        <time>2021-05-17T14:42:19.000Z</time>
      </trkpt>
      <trkpt lat="44.8597" lon="0.60783">
        <ele>104.4</ele>
        <time>2021-05-17T14:42:20.000Z</time>
      </trkpt>
      <trkpt lat="44.85969" lon="0.60779">
        <ele>104.4</ele>
        <time>2021-05-17T14:42:21.000Z</time>
      </trkpt>
      <trkpt lat="44.85967" lon="0.60775">
        <ele>104.5</ele>
        <time>2021-05-17T14:42:22.000Z</time>
      </trkpt>
      <trkpt lat="44.85967" lon="0.60771">
        <ele>104.5</ele>
        <time>2021-05-17T14:42:23.000Z</time>
      </trkpt>
      <trkpt lat="44.85967" lon="0.6077">
        <ele>104.5</ele>
        <time>2021-05-17T14:42:24.000Z</time>
      </trkpt>
      <trkpt lat="44.85964" lon="0.60767">
        <ele>104.5</ele>
        <time>2021-05-17T14:42:25.000Z</time>
      </trkpt>
      <trkpt lat="44.85963" lon="0.60767">
        <ele>104.5</ele>
        <time>2021-05-17T14:42:26.000Z</time>
      </trkpt>
      <trkpt lat="44.85962" lon="0.60763">
        <ele>104.6</ele>
        <time>2021-05-17T14:42:27.000Z</time>
      </trkpt>
      <trkpt lat="44.85959" lon="0.60761">
        <ele>104.5</ele>
        <time>2021-05-17T14:42:28.000Z</time>
      </trkpt>
      <trkpt lat="44.85958" lon="0.60757">
        <ele>104.4</ele>
        <time>2021-05-17T14:42:29.000Z</time>
      </trkpt>
      <trkpt lat="44.85958" lon="0.60755">
        <ele>104.4</ele>
        <time>2021-05-17T14:42:30.000Z</time>
      </trkpt>
      <trkpt lat="44.85955" lon="0.60754">
        <ele>104.6</ele>
        <time>2021-05-17T14:42:31.000Z</time>
      </trkpt>
      <trkpt lat="44.85952" lon="0.60749">
        <ele>104.6</ele>
        <time>2021-05-17T14:42:32.000Z</time>
      </trkpt>
      <trkpt lat="44.85951" lon="0.60747">
        <ele>104.4</ele>
        <time>2021-05-17T14:42:33.000Z</time>
      </trkpt>
      <trkpt lat="44.85952" lon="0.60744">
        <ele>104.5</ele>
        <time>2021-05-17T14:42:34.000Z</time>
      </trkpt>
      <trkpt lat="44.85952" lon="0.60742">
        <ele>104.7</ele>
        <time>2021-05-17T14:42:35.000Z</time>
      </trkpt>
      <trkpt lat="44.8595" lon="0.60738">
        <ele>104.7</ele>
        <time>2021-05-17T14:42:36.000Z</time>
      </trkpt>
      <trkpt lat="44.85949" lon="0.60734">
        <ele>104.6</ele>
        <time>2021-05-17T14:42:37.000Z</time>
      </trkpt>
      <trkpt lat="44.85948" lon="0.60733">
        <ele>104.7</ele>
        <time>2021-05-17T14:42:38.000Z</time>
      </trkpt>
      <trkpt lat="44.85946" lon="0.6073">
        <ele>104.7</ele>
        <time>2021-05-17T14:42:39.000Z</time>
      </trkpt>
      <trkpt lat="44.85946" lon="0.6073">
        <ele>104.5</ele>
        <time>2021-05-17T14:42:40.000Z</time>
      </trkpt>
      <trkpt lat="44.85945" lon="0.60727">
        <ele>104.5</ele>
        <time>2021-05-17T14:42:41.000Z</time>
      </trkpt>
      <trkpt lat="44.85944" lon="0.60726">
        <ele>104.5</ele>
        <time>2021-05-17T14:42:42.000Z</time>
      </trkpt>
      <trkpt lat="44.85942" lon="0.60722">
        <ele>104.3</ele>
        <time>2021-05-17T14:42:43.000Z</time>
      </trkpt>
      <trkpt lat="44.85942" lon="0.60721">
        <ele>104.3</ele>
        <time>2021-05-17T14:42:44.000Z</time>
      </trkpt>
      <trkpt lat="44.85941" lon="0.6072">
        <ele>104.3</ele>
        <time>2021-05-17T14:42:45.000Z</time>
      </trkpt>
      <trkpt lat="44.8594" lon="0.60719">
        <ele>103.9</ele>
        <time>2021-05-17T14:42:46.000Z</time>
      </trkpt>
      <trkpt lat="44.85939" lon="0.60718">
        <ele>103.9</ele>
        <time>2021-05-17T14:42:47.000Z</time>
      </trkpt>
      <trkpt lat="44.85937" lon="0.60716">
        <ele>103.6</ele>
        <time>2021-05-17T14:42:48.000Z</time>
      </trkpt>
      <trkpt lat="44.85935" lon="0.60715">
        <ele>103.6</ele>
        <time>2021-05-17T14:42:49.000Z</time>
      </trkpt>
      <trkpt lat="44.85934" lon="0.60712">
        <ele>103.7</ele>
        <time>2021-05-17T14:42:50.000Z</time>
      </trkpt>
      <trkpt lat="44.85934" lon="0.6071">
        <ele>103.7</ele>
        <time>2021-05-17T14:42:51.000Z</time>
      </trkpt>
      <trkpt lat="44.85932" lon="0.60709">
        <ele>103.3</ele>
        <time>2021-05-17T14:42:52.000Z</time>
      </trkpt>
      <trkpt lat="44.8593" lon="0.60706">
        <ele>103</ele>
        <time>2021-05-17T14:42:53.000Z</time>
      </trkpt>
      <trkpt lat="44.85931" lon="0.60705">
        <ele>103</ele>
        <time>2021-05-17T14:42:54.000Z</time>
      </trkpt>
      <trkpt lat="44.85929" lon="0.60703">
        <ele>103.1</ele>
        <time>2021-05-17T14:42:55.000Z</time>
      </trkpt>
      <trkpt lat="44.85929" lon="0.60701">
        <ele>103.1</ele>
        <time>2021-05-17T14:42:56.000Z</time>
      </trkpt>
      <trkpt lat="44.85926" lon="0.60698">
        <ele>102.8</ele>
        <time>2021-05-17T14:42:57.000Z</time>
      </trkpt>
      <trkpt lat="44.85925" lon="0.60697">
        <ele>102.8</ele>
        <time>2021-05-17T14:42:58.000Z</time>
      </trkpt>
      <trkpt lat="44.85924" lon="0.60696">
        <ele>102.4</ele>
        <time>2021-05-17T14:42:59.000Z</time>
      </trkpt>
      <trkpt lat="44.85923" lon="0.60694">
        <ele>102.6</ele>
        <time>2021-05-17T14:43:00.000Z</time>
      </trkpt>
      <trkpt lat="44.85921" lon="0.60691">
        <ele>102.1</ele>
        <time>2021-05-17T14:43:01.000Z</time>
      </trkpt>
      <trkpt lat="44.85921" lon="0.6069">
        <ele>102.2</ele>
        <time>2021-05-17T14:43:02.000Z</time>
      </trkpt>
      <trkpt lat="44.8592" lon="0.60689">
        <ele>102.2</ele>
        <time>2021-05-17T14:43:03.000Z</time>
      </trkpt>
      <trkpt lat="44.85918" lon="0.60686">
        <ele>101.9</ele>
        <time>2021-05-17T14:43:04.000Z</time>
      </trkpt>
      <trkpt lat="44.85917" lon="0.60685">
        <ele>101.9</ele>
        <time>2021-05-17T14:43:05.000Z</time>
      </trkpt>
      <trkpt lat="44.85915" lon="0.60682">
        <ele>101.5</ele>
        <time>2021-05-17T14:43:06.000Z</time>
      </trkpt>
      <trkpt lat="44.85913" lon="0.6068">
        <ele>101.5</ele>
        <time>2021-05-17T14:43:07.000Z</time>
      </trkpt>
      <trkpt lat="44.8591" lon="0.60676">
        <ele>101.1</ele>
        <time>2021-05-17T14:43:08.000Z</time>
      </trkpt>
      <trkpt lat="44.85909" lon="0.60673">
        <ele>100.7</ele>
        <time>2021-05-17T14:43:09.000Z</time>
      </trkpt>
      <trkpt lat="44.85907" lon="0.60671">
        <ele>100.7</ele>
        <time>2021-05-17T14:43:10.000Z</time>
      </trkpt>
      <trkpt lat="44.85906" lon="0.60669">
        <ele>100.4</ele>
        <time>2021-05-17T14:43:11.000Z</time>
      </trkpt>
      <trkpt lat="44.85904" lon="0.60667">
        <ele>100.4</ele>
        <time>2021-05-17T14:43:12.000Z</time>
      </trkpt>
      <trkpt lat="44.85902" lon="0.60663">
        <ele>100.2</ele>
        <time>2021-05-17T14:43:13.000Z</time>
      </trkpt>
      <trkpt lat="44.85899" lon="0.60659">
        <ele>99.9</ele>
        <time>2021-05-17T14:43:14.000Z</time>
      </trkpt>
      <trkpt lat="44.85898" lon="0.60657">
        <ele>99.9</ele>
        <time>2021-05-17T14:43:15.000Z</time>
      </trkpt>
      <trkpt lat="44.85897" lon="0.60653">
        <ele>99.6</ele>
        <time>2021-05-17T14:43:16.000Z</time>
      </trkpt>
      <trkpt lat="44.85897" lon="0.60651">
        <ele>99.7</ele>
        <time>2021-05-17T14:43:17.000Z</time>
      </trkpt>
      <trkpt lat="44.85896" lon="0.60649">
        <ele>99.7</ele>
        <time>2021-05-17T14:43:18.000Z</time>
      </trkpt>
      <trkpt lat="44.85895" lon="0.60647">
        <ele>99.8</ele>
        <time>2021-05-17T14:43:19.000Z</time>
      </trkpt>
      <trkpt lat="44.85893" lon="0.60643">
        <ele>99.4</ele>
        <time>2021-05-17T14:43:20.000Z</time>
      </trkpt>
      <trkpt lat="44.85892" lon="0.60641">
        <ele>99.4</ele>
        <time>2021-05-17T14:43:21.000Z</time>
      </trkpt>
      <trkpt lat="44.85892" lon="0.60639">
        <ele>99.5</ele>
        <time>2021-05-17T14:43:22.000Z</time>
      </trkpt>
      <trkpt lat="44.8589" lon="0.60637">
        <ele>99</ele>
        <time>2021-05-17T14:43:23.000Z</time>
      </trkpt>
      <trkpt lat="44.85889" lon="0.60636">
        <ele>99</ele>
        <time>2021-05-17T14:43:24.000Z</time>
      </trkpt>
      <trkpt lat="44.85889" lon="0.60635">
        <ele>99</ele>
        <time>2021-05-17T14:43:25.000Z</time>
      </trkpt>
      <trkpt lat="44.85887" lon="0.60633">
        <ele>98.6</ele>
        <time>2021-05-17T14:43:26.000Z</time>
      </trkpt>
      <trkpt lat="44.85887" lon="0.60632">
        <ele>98.6</ele>
        <time>2021-05-17T14:43:27.000Z</time>
      </trkpt>
      <trkpt lat="44.85886" lon="0.60631">
        <ele>98.6</ele>
        <time>2021-05-17T14:43:28.000Z</time>
      </trkpt>
      <trkpt lat="44.85885" lon="0.6063">
        <ele>98.6</ele>
        <time>2021-05-17T14:43:29.000Z</time>
      </trkpt>
      <trkpt lat="44.85884" lon="0.60628">
        <ele>98.1</ele>
        <time>2021-05-17T14:43:30.000Z</time>
      </trkpt>
      <trkpt lat="44.85883" lon="0.60627">
        <ele>98.2</ele>
        <time>2021-05-17T14:43:31.000Z</time>
      </trkpt>
      <trkpt lat="44.85882" lon="0.60624">
        <ele>98.2</ele>
        <time>2021-05-17T14:43:32.000Z</time>
      </trkpt>
      <trkpt lat="44.85882" lon="0.60623">
        <ele>98.2</ele>
        <time>2021-05-17T14:43:33.000Z</time>
      </trkpt>
      <trkpt lat="44.85882" lon="0.6062">
        <ele>97.7</ele>
        <time>2021-05-17T14:43:34.000Z</time>
      </trkpt>
      <trkpt lat="44.85881" lon="0.6062">
        <ele>97.7</ele>
        <time>2021-05-17T14:43:35.000Z</time>
      </trkpt>
      <trkpt lat="44.85879" lon="0.60617">
        <ele>97.8</ele>
        <time>2021-05-17T14:43:36.000Z</time>
      </trkpt>
      <trkpt lat="44.85878" lon="0.60616">
        <ele>97.3</ele>
        <time>2021-05-17T14:43:37.000Z</time>
      </trkpt>
      <trkpt lat="44.85878" lon="0.60615">
        <ele>97.3</ele>
        <time>2021-05-17T14:43:38.000Z</time>
      </trkpt>
      <trkpt lat="44.85876" lon="0.60613">
        <ele>97.3</ele>
        <time>2021-05-17T14:43:39.000Z</time>
      </trkpt>
      <trkpt lat="44.85875" lon="0.60612">
        <ele>96.8</ele>
        <time>2021-05-17T14:43:40.000Z</time>
      </trkpt>
      <trkpt lat="44.85874" lon="0.60609">
        <ele>96.8</ele>
        <time>2021-05-17T14:43:41.000Z</time>
      </trkpt>
      <trkpt lat="44.85872" lon="0.60606">
        <ele>96.4</ele>
        <time>2021-05-17T14:43:42.000Z</time>
      </trkpt>
      <trkpt lat="44.85871" lon="0.60605">
        <ele>96.4</ele>
        <time>2021-05-17T14:43:43.000Z</time>
      </trkpt>
      <trkpt lat="44.8587" lon="0.60602">
        <ele>96.4</ele>
        <time>2021-05-17T14:43:44.000Z</time>
      </trkpt>
      <trkpt lat="44.8587" lon="0.60601">
        <ele>95.8</ele>
        <time>2021-05-17T14:43:45.000Z</time>
      </trkpt>
      <trkpt lat="44.85869" lon="0.606">
        <ele>95.9</ele>
        <time>2021-05-17T14:43:46.000Z</time>
      </trkpt>
      <trkpt lat="44.85868" lon="0.60598">
        <ele>95.9</ele>
        <time>2021-05-17T14:43:47.000Z</time>
      </trkpt>
      <trkpt lat="44.85867" lon="0.60598">
        <ele>95.9</ele>
        <time>2021-05-17T14:43:48.000Z</time>
      </trkpt>
      <trkpt lat="44.85865" lon="0.60595">
        <ele>95.5</ele>
        <time>2021-05-17T14:43:49.000Z</time>
      </trkpt>
      <trkpt lat="44.85864" lon="0.60594">
        <ele>95.5</ele>
        <time>2021-05-17T14:43:50.000Z</time>
      </trkpt>
      <trkpt lat="44.85863" lon="0.60592">
        <ele>94.9</ele>
        <time>2021-05-17T14:43:51.000Z</time>
      </trkpt>
      <trkpt lat="44.85862" lon="0.60591">
        <ele>95.1</ele>
        <time>2021-05-17T14:43:52.000Z</time>
      </trkpt>
      <trkpt lat="44.8586" lon="0.60588">
        <ele>94.7</ele>
        <time>2021-05-17T14:43:53.000Z</time>
      </trkpt>
      <trkpt lat="44.85859" lon="0.60587">
        <ele>94.7</ele>
        <time>2021-05-17T14:43:54.000Z</time>
      </trkpt>
      <trkpt lat="44.85858" lon="0.60586">
        <ele>94.7</ele>
        <time>2021-05-17T14:43:55.000Z</time>
      </trkpt>
      <trkpt lat="44.85858" lon="0.60585">
        <ele>94.2</ele>
        <time>2021-05-17T14:43:56.000Z</time>
      </trkpt>
      <trkpt lat="44.85857" lon="0.60583">
        <ele>94.5</ele>
        <time>2021-05-17T14:43:57.000Z</time>
      </trkpt>
      <trkpt lat="44.85857" lon="0.60581">
        <ele>94.5</ele>
        <time>2021-05-17T14:43:58.000Z</time>
      </trkpt>
      <trkpt lat="44.85855" lon="0.60579">
        <ele>94.8</ele>
        <time>2021-05-17T14:43:59.000Z</time>
      </trkpt>
      <trkpt lat="44.85855" lon="0.60576">
        <ele>94.8</ele>
        <time>2021-05-17T14:44:00.000Z</time>
      </trkpt>
      <trkpt lat="44.85854" lon="0.60574">
        <ele>94.6</ele>
        <time>2021-05-17T14:44:01.000Z</time>
      </trkpt>
      <trkpt lat="44.85853" lon="0.60574">
        <ele>94.6</ele>
        <time>2021-05-17T14:44:02.000Z</time>
      </trkpt>
      <trkpt lat="44.85852" lon="0.60572">
        <ele>94.6</ele>
        <time>2021-05-17T14:44:03.000Z</time>
      </trkpt>
      <trkpt lat="44.85851" lon="0.60571">
        <ele>94.2</ele>
        <time>2021-05-17T14:44:04.000Z</time>
      </trkpt>
      <trkpt lat="44.85851" lon="0.6057">
        <ele>94.5</ele>
        <time>2021-05-17T14:44:05.000Z</time>
      </trkpt>
      <trkpt lat="44.85851" lon="0.60567">
        <ele>94.5</ele>
        <time>2021-05-17T14:44:06.000Z</time>
      </trkpt>
      <trkpt lat="44.8585" lon="0.60564">
        <ele>94.8</ele>
        <time>2021-05-17T14:44:07.000Z</time>
      </trkpt>
      <trkpt lat="44.8585" lon="0.60562">
        <ele>94.8</ele>
        <time>2021-05-17T14:44:08.000Z</time>
      </trkpt>
      <trkpt lat="44.85849" lon="0.6056">
        <ele>95.1</ele>
        <time>2021-05-17T14:44:09.000Z</time>
      </trkpt>
      <trkpt lat="44.85849" lon="0.60558">
        <ele>94.7</ele>
        <time>2021-05-17T14:44:10.000Z</time>
      </trkpt>
      <trkpt lat="44.85847" lon="0.60557">
        <ele>95</ele>
        <time>2021-05-17T14:44:11.000Z</time>
      </trkpt>
      <trkpt lat="44.85847" lon="0.60555">
        <ele>95</ele>
        <time>2021-05-17T14:44:12.000Z</time>
      </trkpt>
      <trkpt lat="44.85845" lon="0.60551">
        <ele>94.8</ele>
        <time>2021-05-17T14:44:13.000Z</time>
      </trkpt>
      <trkpt lat="44.85844" lon="0.6055">
        <ele>94.8</ele>
        <time>2021-05-17T14:44:14.000Z</time>
      </trkpt>
      <trkpt lat="44.85841" lon="0.60547">
        <ele>94.6</ele>
        <time>2021-05-17T14:44:15.000Z</time>
      </trkpt>
      <trkpt lat="44.85841" lon="0.60547">
        <ele>94.6</ele>
        <time>2021-05-17T14:44:16.000Z</time>
      </trkpt>
      <trkpt lat="44.85838" lon="0.60544">
        <ele>94.4</ele>
        <time>2021-05-17T14:44:17.000Z</time>
      </trkpt>
      <trkpt lat="44.85838" lon="0.60543">
        <ele>94.4</ele>
        <time>2021-05-17T14:44:18.000Z</time>
      </trkpt>
      <trkpt lat="44.85837" lon="0.60541">
        <ele>94.4</ele>
        <time>2021-05-17T14:44:19.000Z</time>
      </trkpt>
      <trkpt lat="44.85835" lon="0.6054">
        <ele>94.1</ele>
        <time>2021-05-17T14:44:20.000Z</time>
      </trkpt>
      <trkpt lat="44.85832" lon="0.6054">
        <ele>93.5</ele>
        <time>2021-05-17T14:44:21.000Z</time>
      </trkpt>
      <trkpt lat="44.85832" lon="0.60538">
        <ele>93.5</ele>
        <time>2021-05-17T14:44:22.000Z</time>
      </trkpt>
      <trkpt lat="44.85831" lon="0.60536">
        <ele>93.5</ele>
        <time>2021-05-17T14:44:23.000Z</time>
      </trkpt>
      <trkpt lat="44.8583" lon="0.60536">
        <ele>93.1</ele>
        <time>2021-05-17T14:44:24.000Z</time>
      </trkpt>
      <trkpt lat="44.85828" lon="0.60536">
        <ele>93.1</ele>
        <time>2021-05-17T14:44:25.000Z</time>
      </trkpt>
      <trkpt lat="44.85827" lon="0.60535">
        <ele>92.5</ele>
        <time>2021-05-17T14:44:26.000Z</time>
      </trkpt>
      <trkpt lat="44.85826" lon="0.60535">
        <ele>92.5</ele>
        <time>2021-05-17T14:44:27.000Z</time>
      </trkpt>
      <trkpt lat="44.85825" lon="0.60535">
        <ele>92.5</ele>
        <time>2021-05-17T14:44:28.000Z</time>
      </trkpt>
      <trkpt lat="44.85823" lon="0.60533">
        <ele>91.8</ele>
        <time>2021-05-17T14:44:29.000Z</time>
      </trkpt>
      <trkpt lat="44.85822" lon="0.60533">
        <ele>91.8</ele>
        <time>2021-05-17T14:44:30.000Z</time>
      </trkpt>
      <trkpt lat="44.8582" lon="0.60531">
        <ele>91.5</ele>
        <time>2021-05-17T14:44:31.000Z</time>
      </trkpt>
      <trkpt lat="44.85819" lon="0.6053">
        <ele>91.5</ele>
        <time>2021-05-17T14:44:32.000Z</time>
      </trkpt>
      <trkpt lat="44.85818" lon="0.60529">
        <ele>91</ele>
        <time>2021-05-17T14:44:33.000Z</time>
      </trkpt>
      <trkpt lat="44.85816" lon="0.60528">
        <ele>91</ele>
        <time>2021-05-17T14:44:34.000Z</time>
      </trkpt>
      <trkpt lat="44.85815" lon="0.60527">
        <ele>90.7</ele>
        <time>2021-05-17T14:44:35.000Z</time>
      </trkpt>
      <trkpt lat="44.85813" lon="0.60526">
        <ele>90.7</ele>
        <time>2021-05-17T14:44:36.000Z</time>
      </trkpt>
      <trkpt lat="44.85813" lon="0.60526">
        <ele>90.7</ele>
        <time>2021-05-17T14:44:37.000Z</time>
      </trkpt>
      <trkpt lat="44.85811" lon="0.60528">
        <ele>90.1</ele>
        <time>2021-05-17T14:44:38.000Z</time>
      </trkpt>
      <trkpt lat="44.85807" lon="0.60529">
        <ele>89.2</ele>
        <time>2021-05-17T14:44:39.000Z</time>
      </trkpt>
      <trkpt lat="44.85806" lon="0.6053">
        <ele>88.6</ele>
        <time>2021-05-17T14:44:40.000Z</time>
      </trkpt>
      <trkpt lat="44.85803" lon="0.60531">
        <ele>88.6</ele>
        <time>2021-05-17T14:44:41.000Z</time>
      </trkpt>
      <trkpt lat="44.85802" lon="0.60531">
        <ele>88</ele>
        <time>2021-05-17T14:44:42.000Z</time>
      </trkpt>
      <trkpt lat="44.85799" lon="0.60533">
        <ele>87.1</ele>
        <time>2021-05-17T14:44:43.000Z</time>
      </trkpt>
      <trkpt lat="44.85798" lon="0.60533">
        <ele>87.1</ele>
        <time>2021-05-17T14:44:44.000Z</time>
      </trkpt>
      <trkpt lat="44.85795" lon="0.60534">
        <ele>86.6</ele>
        <time>2021-05-17T14:44:45.000Z</time>
      </trkpt>
      <trkpt lat="44.85794" lon="0.60534">
        <ele>86.6</ele>
        <time>2021-05-17T14:44:46.000Z</time>
      </trkpt>
      <trkpt lat="44.85791" lon="0.60536">
        <ele>86.1</ele>
        <time>2021-05-17T14:44:47.000Z</time>
      </trkpt>
      <trkpt lat="44.85791" lon="0.60537">
        <ele>85.4</ele>
        <time>2021-05-17T14:44:48.000Z</time>
      </trkpt>
      <trkpt lat="44.85788" lon="0.60539">
        <ele>85.4</ele>
        <time>2021-05-17T14:44:49.000Z</time>
      </trkpt>
      <trkpt lat="44.85787" lon="0.60539">
        <ele>85</ele>
        <time>2021-05-17T14:44:50.000Z</time>
      </trkpt>
      <trkpt lat="44.85784" lon="0.60542">
        <ele>84.3</ele>
        <time>2021-05-17T14:44:51.000Z</time>
      </trkpt>
      <trkpt lat="44.85783" lon="0.60544">
        <ele>84.3</ele>
        <time>2021-05-17T14:44:52.000Z</time>
      </trkpt>
      <trkpt lat="44.8578" lon="0.60547">
        <ele>83.6</ele>
        <time>2021-05-17T14:44:53.000Z</time>
      </trkpt>
      <trkpt lat="44.85779" lon="0.60548">
        <ele>83.7</ele>
        <time>2021-05-17T14:44:54.000Z</time>
      </trkpt>
      <trkpt lat="44.85776" lon="0.60551">
        <ele>83</ele>
        <time>2021-05-17T14:44:55.000Z</time>
      </trkpt>
      <trkpt lat="44.85775" lon="0.60551">
        <ele>82.5</ele>
        <time>2021-05-17T14:44:56.000Z</time>
      </trkpt>
      <trkpt lat="44.85773" lon="0.60555">
        <ele>82.3</ele>
        <time>2021-05-17T14:44:57.000Z</time>
      </trkpt>
      <trkpt lat="44.85772" lon="0.60556">
        <ele>81.9</ele>
        <time>2021-05-17T14:44:58.000Z</time>
      </trkpt>
      <trkpt lat="44.8577" lon="0.60557">
        <ele>82</ele>
        <time>2021-05-17T14:44:59.000Z</time>
      </trkpt>
      <trkpt lat="44.85769" lon="0.60558">
        <ele>81.4</ele>
        <time>2021-05-17T14:45:00.000Z</time>
      </trkpt>
      <trkpt lat="44.85767" lon="0.6056">
        <ele>81.4</ele>
        <time>2021-05-17T14:45:01.000Z</time>
      </trkpt>
      <trkpt lat="44.85766" lon="0.60561">
        <ele>80.9</ele>
        <time>2021-05-17T14:45:02.000Z</time>
      </trkpt>
      <trkpt lat="44.85764" lon="0.60563">
        <ele>80.9</ele>
        <time>2021-05-17T14:45:03.000Z</time>
      </trkpt>
      <trkpt lat="44.85763" lon="0.60564">
        <ele>80.5</ele>
        <time>2021-05-17T14:45:04.000Z</time>
      </trkpt>
      <trkpt lat="44.85761" lon="0.60564">
        <ele>80.5</ele>
        <time>2021-05-17T14:45:05.000Z</time>
      </trkpt>
      <trkpt lat="44.8576" lon="0.60564">
        <ele>80</ele>
        <time>2021-05-17T14:45:06.000Z</time>
      </trkpt>
      <trkpt lat="44.85759" lon="0.60564">
        <ele>80.1</ele>
        <time>2021-05-17T14:45:07.000Z</time>
      </trkpt>
      <trkpt lat="44.85755" lon="0.60566">
        <ele>79.7</ele>
        <time>2021-05-17T14:45:08.000Z</time>
      </trkpt>
      <trkpt lat="44.85752" lon="0.60569">
        <ele>79.1</ele>
        <time>2021-05-17T14:45:09.000Z</time>
      </trkpt>
      <trkpt lat="44.8575" lon="0.60572">
        <ele>78.5</ele>
        <time>2021-05-17T14:45:10.000Z</time>
      </trkpt>
      <trkpt lat="44.85748" lon="0.60576">
        <ele>78.1</ele>
        <time>2021-05-17T14:45:11.000Z</time>
      </trkpt>
      <trkpt lat="44.85747" lon="0.60577">
        <ele>78.1</ele>
        <time>2021-05-17T14:45:12.000Z</time>
      </trkpt>
      <trkpt lat="44.85746" lon="0.60578">
        <ele>78.1</ele>
        <time>2021-05-17T14:45:13.000Z</time>
      </trkpt>
      <trkpt lat="44.85745" lon="0.60579">
        <ele>77.7</ele>
        <time>2021-05-17T14:45:14.000Z</time>
      </trkpt>
      <trkpt lat="44.85745" lon="0.60579">
        <ele>77.7</ele>
        <time>2021-05-17T14:45:15.000Z</time>
      </trkpt>
      <trkpt lat="44.85744" lon="0.60578">
        <ele>77.7</ele>
        <time>2021-05-17T14:45:16.000Z</time>
      </trkpt>
      <trkpt lat="44.85743" lon="0.60576">
        <ele>77.8</ele>
        <time>2021-05-17T14:45:17.000Z</time>
      </trkpt>
      <trkpt lat="44.8574" lon="0.60576">
        <ele>77.4</ele>
        <time>2021-05-17T14:45:18.000Z</time>
      </trkpt>
      <trkpt lat="44.8574" lon="0.60576">
        <ele>77.4</ele>
        <time>2021-05-17T14:45:19.000Z</time>
      </trkpt>
      <trkpt lat="44.85739" lon="0.60575">
        <ele>77</ele>
        <time>2021-05-17T14:45:20.000Z</time>
      </trkpt>
      <trkpt lat="44.85739" lon="0.60573">
        <ele>77.1</ele>
        <time>2021-05-17T14:45:21.000Z</time>
      </trkpt>
      <trkpt lat="44.85736" lon="0.60572">
        <ele>76.7</ele>
        <time>2021-05-17T14:45:22.000Z</time>
      </trkpt>
      <trkpt lat="44.85733" lon="0.6057">
        <ele>76.5</ele>
        <time>2021-05-17T14:45:23.000Z</time>
      </trkpt>
      <trkpt lat="44.85732" lon="0.6057">
        <ele>76.5</ele>
        <time>2021-05-17T14:45:24.000Z</time>
      </trkpt>
      <trkpt lat="44.85728" lon="0.60568">
        <ele>76.2</ele>
        <time>2021-05-17T14:45:25.000Z</time>
      </trkpt>
      <trkpt lat="44.85725" lon="0.60565">
        <ele>76</ele>
        <time>2021-05-17T14:45:26.000Z</time>
      </trkpt>
      <trkpt lat="44.85722" lon="0.60564">
        <ele>75.7</ele>
        <time>2021-05-17T14:45:27.000Z</time>
      </trkpt>
      <trkpt lat="44.8572" lon="0.60562">
        <ele>75.4</ele>
        <time>2021-05-17T14:45:28.000Z</time>
      </trkpt>
      <trkpt lat="44.85715" lon="0.60559">
        <ele>75.2</ele>
        <time>2021-05-17T14:45:29.000Z</time>
      </trkpt>
      <trkpt lat="44.85713" lon="0.60558">
        <ele>75</ele>
        <time>2021-05-17T14:45:30.000Z</time>
      </trkpt>
      <trkpt lat="44.85709" lon="0.60557">
        <ele>75</ele>
        <time>2021-05-17T14:45:31.000Z</time>
      </trkpt>
      <trkpt lat="44.85706" lon="0.60554">
        <ele>74.8</ele>
        <time>2021-05-17T14:45:32.000Z</time>
      </trkpt>
      <trkpt lat="44.85704" lon="0.60554">
        <ele>74.8</ele>
        <time>2021-05-17T14:45:33.000Z</time>
      </trkpt>
      <trkpt lat="44.857" lon="0.60555">
        <ele>74.7</ele>
        <time>2021-05-17T14:45:34.000Z</time>
      </trkpt>
      <trkpt lat="44.85697" lon="0.60558">
        <ele>74.6</ele>
        <time>2021-05-17T14:45:35.000Z</time>
      </trkpt>
      <trkpt lat="44.85694" lon="0.60561">
        <ele>74.6</ele>
        <time>2021-05-17T14:45:36.000Z</time>
      </trkpt>
      <trkpt lat="44.85693" lon="0.60561">
        <ele>74.6</ele>
        <time>2021-05-17T14:45:37.000Z</time>
      </trkpt>
      <trkpt lat="44.85691" lon="0.60564">
        <ele>74.7</ele>
        <time>2021-05-17T14:45:38.000Z</time>
      </trkpt>
      <trkpt lat="44.85689" lon="0.60568">
        <ele>74.7</ele>
        <time>2021-05-17T14:45:39.000Z</time>
      </trkpt>
      <trkpt lat="44.85688" lon="0.6057">
        <ele>74.8</ele>
        <time>2021-05-17T14:45:40.000Z</time>
      </trkpt>
      <trkpt lat="44.85685" lon="0.60573">
        <ele>74.9</ele>
        <time>2021-05-17T14:45:41.000Z</time>
      </trkpt>
      <trkpt lat="44.85684" lon="0.60573">
        <ele>74.9</ele>
        <time>2021-05-17T14:45:42.000Z</time>
      </trkpt>
      <trkpt lat="44.8568" lon="0.60576">
        <ele>75</ele>
        <time>2021-05-17T14:45:43.000Z</time>
      </trkpt>
      <trkpt lat="44.85678" lon="0.6058">
        <ele>75.1</ele>
        <time>2021-05-17T14:45:44.000Z</time>
      </trkpt>
      <trkpt lat="44.85676" lon="0.60583">
        <ele>75.1</ele>
        <time>2021-05-17T14:45:45.000Z</time>
      </trkpt>
      <trkpt lat="44.85673" lon="0.60586">
        <ele>75.2</ele>
        <time>2021-05-17T14:45:46.000Z</time>
      </trkpt>
      <trkpt lat="44.85672" lon="0.60588">
        <ele>75.2</ele>
        <time>2021-05-17T14:45:47.000Z</time>
      </trkpt>
      <trkpt lat="44.85671" lon="0.60592">
        <ele>75.2</ele>
        <time>2021-05-17T14:45:48.000Z</time>
      </trkpt>
      <trkpt lat="44.85671" lon="0.60593">
        <ele>75.3</ele>
        <time>2021-05-17T14:45:49.000Z</time>
      </trkpt>
      <trkpt lat="44.85669" lon="0.60597">
        <ele>75.4</ele>
        <time>2021-05-17T14:45:50.000Z</time>
      </trkpt>
      <trkpt lat="44.85669" lon="0.60598">
        <ele>75.4</ele>
        <time>2021-05-17T14:45:51.000Z</time>
      </trkpt>
      <trkpt lat="44.85667" lon="0.60602">
        <ele>75.5</ele>
        <time>2021-05-17T14:45:52.000Z</time>
      </trkpt>
      <trkpt lat="44.85666" lon="0.60607">
        <ele>75.7</ele>
        <time>2021-05-17T14:45:53.000Z</time>
      </trkpt>
      <trkpt lat="44.85664" lon="0.6061">
        <ele>75.9</ele>
        <time>2021-05-17T14:45:54.000Z</time>
      </trkpt>
      <trkpt lat="44.85662" lon="0.60613">
        <ele>76</ele>
        <time>2021-05-17T14:45:55.000Z</time>
      </trkpt>
      <trkpt lat="44.85661" lon="0.60617">
        <ele>76.2</ele>
        <time>2021-05-17T14:45:56.000Z</time>
      </trkpt>
      <trkpt lat="44.85659" lon="0.60622">
        <ele>76.4</ele>
        <time>2021-05-17T14:45:57.000Z</time>
      </trkpt>
      <trkpt lat="44.85659" lon="0.60623">
        <ele>76.6</ele>
        <time>2021-05-17T14:45:58.000Z</time>
      </trkpt>
      <trkpt lat="44.85658" lon="0.60628">
        <ele>76.8</ele>
        <time>2021-05-17T14:45:59.000Z</time>
      </trkpt>
      <trkpt lat="44.85657" lon="0.6063">
        <ele>76.8</ele>
        <time>2021-05-17T14:46:00.000Z</time>
      </trkpt>
      <trkpt lat="44.85657" lon="0.60634">
        <ele>77</ele>
        <time>2021-05-17T14:46:01.000Z</time>
      </trkpt>
      <trkpt lat="44.85656" lon="0.60639">
        <ele>77.2</ele>
        <time>2021-05-17T14:46:02.000Z</time>
      </trkpt>
      <trkpt lat="44.85656" lon="0.60641">
        <ele>77.4</ele>
        <time>2021-05-17T14:46:03.000Z</time>
      </trkpt>
      <trkpt lat="44.85654" lon="0.60646">
        <ele>77.6</ele>
        <time>2021-05-17T14:46:04.000Z</time>
      </trkpt>
      <trkpt lat="44.85654" lon="0.60651">
        <ele>77.8</ele>
        <time>2021-05-17T14:46:05.000Z</time>
      </trkpt>
      <trkpt lat="44.85654" lon="0.60653">
        <ele>78.1</ele>
        <time>2021-05-17T14:46:06.000Z</time>
      </trkpt>
      <trkpt lat="44.85653" lon="0.60657">
        <ele>78.4</ele>
        <time>2021-05-17T14:46:07.000Z</time>
      </trkpt>
      <trkpt lat="44.85653" lon="0.60658">
        <ele>78.5</ele>
        <time>2021-05-17T14:46:08.000Z</time>
      </trkpt>
      <trkpt lat="44.85652" lon="0.60663">
        <ele>78.8</ele>
        <time>2021-05-17T14:46:09.000Z</time>
      </trkpt>
      <trkpt lat="44.85652" lon="0.60665">
        <ele>78.8</ele>
        <time>2021-05-17T14:46:10.000Z</time>
      </trkpt>
      <trkpt lat="44.85651" lon="0.6067">
        <ele>79.4</ele>
        <time>2021-05-17T14:46:11.000Z</time>
      </trkpt>
      <trkpt lat="44.85651" lon="0.60672">
        <ele>79.5</ele>
        <time>2021-05-17T14:46:12.000Z</time>
      </trkpt>
      <trkpt lat="44.8565" lon="0.60677">
        <ele>79.8</ele>
        <time>2021-05-17T14:46:13.000Z</time>
      </trkpt>
      <trkpt lat="44.8565" lon="0.60679">
        <ele>80.1</ele>
        <time>2021-05-17T14:46:14.000Z</time>
      </trkpt>
      <trkpt lat="44.85649" lon="0.60684">
        <ele>80.4</ele>
        <time>2021-05-17T14:46:15.000Z</time>
      </trkpt>
      <trkpt lat="44.85649" lon="0.60686">
        <ele>80.4</ele>
        <time>2021-05-17T14:46:16.000Z</time>
      </trkpt>
      <trkpt lat="44.85648" lon="0.6069">
        <ele>80.8</ele>
        <time>2021-05-17T14:46:17.000Z</time>
      </trkpt>
      <trkpt lat="44.85647" lon="0.60695">
        <ele>81.1</ele>
        <time>2021-05-17T14:46:18.000Z</time>
      </trkpt>
      <trkpt lat="44.85647" lon="0.60697">
        <ele>81.3</ele>
        <time>2021-05-17T14:46:19.000Z</time>
      </trkpt>
      <trkpt lat="44.85646" lon="0.60701">
        <ele>81.6</ele>
        <time>2021-05-17T14:46:20.000Z</time>
      </trkpt>
      <trkpt lat="44.85646" lon="0.60703">
        <ele>81.7</ele>
        <time>2021-05-17T14:46:21.000Z</time>
      </trkpt>
      <trkpt lat="44.85645" lon="0.60707">
        <ele>82</ele>
        <time>2021-05-17T14:46:22.000Z</time>
      </trkpt>
      <trkpt lat="44.85645" lon="0.60709">
        <ele>82.2</ele>
        <time>2021-05-17T14:46:23.000Z</time>
      </trkpt>
      <trkpt lat="44.85643" lon="0.60713">
        <ele>82.5</ele>
        <time>2021-05-17T14:46:24.000Z</time>
      </trkpt>
      <trkpt lat="44.85643" lon="0.60715">
        <ele>82.6</ele>
        <time>2021-05-17T14:46:25.000Z</time>
      </trkpt>
      <trkpt lat="44.85642" lon="0.60719">
        <ele>82.8</ele>
        <time>2021-05-17T14:46:26.000Z</time>
      </trkpt>
      <trkpt lat="44.85641" lon="0.60721">
        <ele>82.8</ele>
        <time>2021-05-17T14:46:27.000Z</time>
      </trkpt>
      <trkpt lat="44.8564" lon="0.60725">
        <ele>83</ele>
        <time>2021-05-17T14:46:28.000Z</time>
      </trkpt>
      <trkpt lat="44.85639" lon="0.60727">
        <ele>83.3</ele>
        <time>2021-05-17T14:46:29.000Z</time>
      </trkpt>
      <trkpt lat="44.85638" lon="0.60732">
        <ele>83.5</ele>
        <time>2021-05-17T14:46:30.000Z</time>
      </trkpt>
      <trkpt lat="44.85638" lon="0.60733">
        <ele>83.5</ele>
        <time>2021-05-17T14:46:31.000Z</time>
      </trkpt>
      <trkpt lat="44.85636" lon="0.60738">
        <ele>83.7</ele>
        <time>2021-05-17T14:46:32.000Z</time>
      </trkpt>
      <trkpt lat="44.85635" lon="0.60739">
        <ele>83.9</ele>
        <time>2021-05-17T14:46:33.000Z</time>
      </trkpt>
      <trkpt lat="44.85634" lon="0.60744">
        <ele>84.2</ele>
        <time>2021-05-17T14:46:34.000Z</time>
      </trkpt>
      <trkpt lat="44.85633" lon="0.60746">
        <ele>84.2</ele>
        <time>2021-05-17T14:46:35.000Z</time>
      </trkpt>
      <trkpt lat="44.85632" lon="0.60752">
        <ele>84.7</ele>
        <time>2021-05-17T14:46:36.000Z</time>
      </trkpt>
      <trkpt lat="44.85631" lon="0.60755">
        <ele>84.7</ele>
        <time>2021-05-17T14:46:37.000Z</time>
      </trkpt>
      <trkpt lat="44.85631" lon="0.60761">
        <ele>85.3</ele>
        <time>2021-05-17T14:46:38.000Z</time>
      </trkpt>
      <trkpt lat="44.8563" lon="0.60766">
        <ele>85.6</ele>
        <time>2021-05-17T14:46:39.000Z</time>
      </trkpt>
      <trkpt lat="44.8563" lon="0.60771">
        <ele>85.8</ele>
        <time>2021-05-17T14:46:40.000Z</time>
      </trkpt>
      <trkpt lat="44.8563" lon="0.60776">
        <ele>86</ele>
        <time>2021-05-17T14:46:41.000Z</time>
      </trkpt>
      <trkpt lat="44.85629" lon="0.60781">
        <ele>86.4</ele>
        <time>2021-05-17T14:46:42.000Z</time>
      </trkpt>
      <trkpt lat="44.85628" lon="0.60786">
        <ele>86.6</ele>
        <time>2021-05-17T14:46:43.000Z</time>
      </trkpt>
      <trkpt lat="44.85628" lon="0.60792">
        <ele>86.8</ele>
        <time>2021-05-17T14:46:44.000Z</time>
      </trkpt>
      <trkpt lat="44.85627" lon="0.60797">
        <ele>87</ele>
        <time>2021-05-17T14:46:45.000Z</time>
      </trkpt>
      <trkpt lat="44.85626" lon="0.60802">
        <ele>87.1</ele>
        <time>2021-05-17T14:46:46.000Z</time>
      </trkpt>
      <trkpt lat="44.85626" lon="0.60808">
        <ele>87.4</ele>
        <time>2021-05-17T14:46:47.000Z</time>
      </trkpt>
      <trkpt lat="44.85625" lon="0.60813">
        <ele>87.6</ele>
        <time>2021-05-17T14:46:48.000Z</time>
      </trkpt>
      <trkpt lat="44.85625" lon="0.60818">
        <ele>87.7</ele>
        <time>2021-05-17T14:46:49.000Z</time>
      </trkpt>
      <trkpt lat="44.85625" lon="0.60822">
        <ele>87.8</ele>
        <time>2021-05-17T14:46:50.000Z</time>
      </trkpt>
      <trkpt lat="44.85625" lon="0.60826">
        <ele>87.9</ele>
        <time>2021-05-17T14:46:51.000Z</time>
      </trkpt>
      <trkpt lat="44.85625" lon="0.60831">
        <ele>88</ele>
        <time>2021-05-17T14:46:52.000Z</time>
      </trkpt>
      <trkpt lat="44.85626" lon="0.60836">
        <ele>88.1</ele>
        <time>2021-05-17T14:46:53.000Z</time>
      </trkpt>
      <trkpt lat="44.85626" lon="0.60841">
        <ele>88.1</ele>
        <time>2021-05-17T14:46:54.000Z</time>
      </trkpt>
      <trkpt lat="44.85626" lon="0.60843">
        <ele>88.2</ele>
        <time>2021-05-17T14:46:55.000Z</time>
      </trkpt>
      <trkpt lat="44.85628" lon="0.60846">
        <ele>88.4</ele>
        <time>2021-05-17T14:46:56.000Z</time>
      </trkpt>
      <trkpt lat="44.8563" lon="0.6085">
        <ele>88.6</ele>
        <time>2021-05-17T14:46:57.000Z</time>
      </trkpt>
      <trkpt lat="44.85633" lon="0.60853">
        <ele>88.8</ele>
        <time>2021-05-17T14:46:58.000Z</time>
      </trkpt>
      <trkpt lat="44.85636" lon="0.60853">
        <ele>88.9</ele>
        <time>2021-05-17T14:46:59.000Z</time>
      </trkpt>
      <trkpt lat="44.85637" lon="0.60853">
        <ele>88.9</ele>
        <time>2021-05-17T14:47:00.000Z</time>
      </trkpt>
      <trkpt lat="44.85641" lon="0.60853">
        <ele>89.1</ele>
        <time>2021-05-17T14:47:01.000Z</time>
      </trkpt>
      <trkpt lat="44.85642" lon="0.60853">
        <ele>89.2</ele>
        <time>2021-05-17T14:47:02.000Z</time>
      </trkpt>
      <trkpt lat="44.85645" lon="0.60855">
        <ele>89.6</ele>
        <time>2021-05-17T14:47:03.000Z</time>
      </trkpt>
      <trkpt lat="44.85647" lon="0.60855">
        <ele>89.6</ele>
        <time>2021-05-17T14:47:04.000Z</time>
      </trkpt>
      <trkpt lat="44.85651" lon="0.60855">
        <ele>89.9</ele>
        <time>2021-05-17T14:47:05.000Z</time>
      </trkpt>
      <trkpt lat="44.85656" lon="0.60856">
        <ele>90.2</ele>
        <time>2021-05-17T14:47:06.000Z</time>
      </trkpt>
      <trkpt lat="44.8566" lon="0.60858">
        <ele>90.4</ele>
        <time>2021-05-17T14:47:07.000Z</time>
      </trkpt>
      <trkpt lat="44.85663" lon="0.60859">
        <ele>90.8</ele>
        <time>2021-05-17T14:47:08.000Z</time>
      </trkpt>
      <trkpt lat="44.85667" lon="0.60861">
        <ele>91.3</ele>
        <time>2021-05-17T14:47:09.000Z</time>
      </trkpt>
      <trkpt lat="44.85669" lon="0.60862">
        <ele>91.6</ele>
        <time>2021-05-17T14:47:10.000Z</time>
      </trkpt>
      <trkpt lat="44.85672" lon="0.60862">
        <ele>91.9</ele>
        <time>2021-05-17T14:47:11.000Z</time>
      </trkpt>
      <trkpt lat="44.85676" lon="0.60863">
        <ele>92.3</ele>
        <time>2021-05-17T14:47:12.000Z</time>
      </trkpt>
      <trkpt lat="44.85679" lon="0.60864">
        <ele>92.6</ele>
        <time>2021-05-17T14:47:13.000Z</time>
      </trkpt>
      <trkpt lat="44.85682" lon="0.60865">
        <ele>92.9</ele>
        <time>2021-05-17T14:47:14.000Z</time>
      </trkpt>
      <trkpt lat="44.85685" lon="0.60866">
        <ele>93.1</ele>
        <time>2021-05-17T14:47:15.000Z</time>
      </trkpt>
      <trkpt lat="44.85687" lon="0.6087">
        <ele>93.3</ele>
        <time>2021-05-17T14:47:16.000Z</time>
      </trkpt>
      <trkpt lat="44.85687" lon="0.60871">
        <ele>93.7</ele>
        <time>2021-05-17T14:47:17.000Z</time>
      </trkpt>
      <trkpt lat="44.85689" lon="0.60875">
        <ele>93.7</ele>
        <time>2021-05-17T14:47:18.000Z</time>
      </trkpt>
      <trkpt lat="44.85689" lon="0.60877">
        <ele>93.8</ele>
        <time>2021-05-17T14:47:19.000Z</time>
      </trkpt>
      <trkpt lat="44.8569" lon="0.60879">
        <ele>93.8</ele>
        <time>2021-05-17T14:47:20.000Z</time>
      </trkpt>
      <trkpt lat="44.8569" lon="0.60881">
        <ele>93.9</ele>
        <time>2021-05-17T14:47:21.000Z</time>
      </trkpt>
      <trkpt lat="44.85691" lon="0.60886">
        <ele>94.4</ele>
        <time>2021-05-17T14:47:22.000Z</time>
      </trkpt>
      <trkpt lat="44.85692" lon="0.60887">
        <ele>94.4</ele>
        <time>2021-05-17T14:47:23.000Z</time>
      </trkpt>
      <trkpt lat="44.85695" lon="0.6089">
        <ele>94.8</ele>
        <time>2021-05-17T14:47:24.000Z</time>
      </trkpt>
      <trkpt lat="44.85696" lon="0.60891">
        <ele>94.8</ele>
        <time>2021-05-17T14:47:25.000Z</time>
      </trkpt>
      <trkpt lat="44.85698" lon="0.60892">
        <ele>95</ele>
        <time>2021-05-17T14:47:26.000Z</time>
      </trkpt>
      <trkpt lat="44.85701" lon="0.60895">
        <ele>95.4</ele>
        <time>2021-05-17T14:47:27.000Z</time>
      </trkpt>
      <trkpt lat="44.85702" lon="0.60895">
        <ele>95.4</ele>
        <time>2021-05-17T14:47:28.000Z</time>
      </trkpt>
      <trkpt lat="44.85705" lon="0.60898">
        <ele>95.8</ele>
        <time>2021-05-17T14:47:29.000Z</time>
      </trkpt>
      <trkpt lat="44.85705" lon="0.609">
        <ele>95.8</ele>
        <time>2021-05-17T14:47:30.000Z</time>
      </trkpt>
      <trkpt lat="44.85706" lon="0.60903">
        <ele>96.1</ele>
        <time>2021-05-17T14:47:31.000Z</time>
      </trkpt>
      <trkpt lat="44.85709" lon="0.60905">
        <ele>96.3</ele>
        <time>2021-05-17T14:47:32.000Z</time>
      </trkpt>
      <trkpt lat="44.85712" lon="0.60907">
        <ele>96.6</ele>
        <time>2021-05-17T14:47:33.000Z</time>
      </trkpt>
      <trkpt lat="44.85715" lon="0.60908">
        <ele>96.6</ele>
        <time>2021-05-17T14:47:34.000Z</time>
      </trkpt>
      <trkpt lat="44.85718" lon="0.6091">
        <ele>96.9</ele>
        <time>2021-05-17T14:47:35.000Z</time>
      </trkpt>
      <trkpt lat="44.85719" lon="0.60911">
        <ele>97.1</ele>
        <time>2021-05-17T14:47:36.000Z</time>
      </trkpt>
      <trkpt lat="44.85722" lon="0.60915">
        <ele>97.4</ele>
        <time>2021-05-17T14:47:37.000Z</time>
      </trkpt>
      <trkpt lat="44.85725" lon="0.60918">
        <ele>97.6</ele>
        <time>2021-05-17T14:47:38.000Z</time>
      </trkpt>
      <trkpt lat="44.85728" lon="0.60921">
        <ele>97.9</ele>
        <time>2021-05-17T14:47:39.000Z</time>
      </trkpt>
      <trkpt lat="44.85731" lon="0.60924">
        <ele>98.2</ele>
        <time>2021-05-17T14:47:40.000Z</time>
      </trkpt>
      <trkpt lat="44.85734" lon="0.60925">
        <ele>98.4</ele>
        <time>2021-05-17T14:47:41.000Z</time>
      </trkpt>
      <trkpt lat="44.85737" lon="0.60926">
        <ele>98.5</ele>
        <time>2021-05-17T14:47:42.000Z</time>
      </trkpt>
      <trkpt lat="44.8574" lon="0.60929">
        <ele>98.9</ele>
        <time>2021-05-17T14:47:43.000Z</time>
      </trkpt>
      <trkpt lat="44.85741" lon="0.60931">
        <ele>98.9</ele>
        <time>2021-05-17T14:47:44.000Z</time>
      </trkpt>
      <trkpt lat="44.85743" lon="0.60936">
        <ele>99.6</ele>
        <time>2021-05-17T14:47:45.000Z</time>
      </trkpt>
      <trkpt lat="44.85743" lon="0.60938">
        <ele>99.6</ele>
        <time>2021-05-17T14:47:46.000Z</time>
      </trkpt>
      <trkpt lat="44.85745" lon="0.60943">
        <ele>99.8</ele>
        <time>2021-05-17T14:47:47.000Z</time>
      </trkpt>
      <trkpt lat="44.85748" lon="0.60947">
        <ele>100.2</ele>
        <time>2021-05-17T14:47:48.000Z</time>
      </trkpt>
      <trkpt lat="44.8575" lon="0.60951">
        <ele>100.6</ele>
        <time>2021-05-17T14:47:49.000Z</time>
      </trkpt>
      <trkpt lat="44.85751" lon="0.60952">
        <ele>100.8</ele>
        <time>2021-05-17T14:47:50.000Z</time>
      </trkpt>
      <trkpt lat="44.85754" lon="0.60955">
        <ele>101</ele>
        <time>2021-05-17T14:47:51.000Z</time>
      </trkpt>
      <trkpt lat="44.85755" lon="0.60959">
        <ele>101.3</ele>
        <time>2021-05-17T14:47:52.000Z</time>
      </trkpt>
      <trkpt lat="44.85757" lon="0.60962">
        <ele>101.6</ele>
        <time>2021-05-17T14:47:53.000Z</time>
      </trkpt>
      <trkpt lat="44.85758" lon="0.60967">
        <ele>101.6</ele>
        <time>2021-05-17T14:47:54.000Z</time>
      </trkpt>
      <trkpt lat="44.85759" lon="0.60968">
        <ele>101.6</ele>
        <time>2021-05-17T14:47:55.000Z</time>
      </trkpt>
      <trkpt lat="44.8576" lon="0.60973">
        <ele>101.7</ele>
        <time>2021-05-17T14:47:56.000Z</time>
      </trkpt>
      <trkpt lat="44.8576" lon="0.60977">
        <ele>101.7</ele>
        <time>2021-05-17T14:47:57.000Z</time>
      </trkpt>
      <trkpt lat="44.85759" lon="0.60981">
        <ele>101.7</ele>
        <time>2021-05-17T14:47:58.000Z</time>
      </trkpt>
      <trkpt lat="44.85759" lon="0.60986">
        <ele>101.6</ele>
        <time>2021-05-17T14:47:59.000Z</time>
      </trkpt>
      <trkpt lat="44.8576" lon="0.60991">
        <ele>101.6</ele>
        <time>2021-05-17T14:48:00.000Z</time>
      </trkpt>
      <trkpt lat="44.8576" lon="0.60992">
        <ele>101.5</ele>
        <time>2021-05-17T14:48:01.000Z</time>
      </trkpt>
      <trkpt lat="44.8576" lon="0.60997">
        <ele>101.4</ele>
        <time>2021-05-17T14:48:02.000Z</time>
      </trkpt>
      <trkpt lat="44.85761" lon="0.61003">
        <ele>101.5</ele>
        <time>2021-05-17T14:48:03.000Z</time>
      </trkpt>
      <trkpt lat="44.85761" lon="0.61005">
        <ele>101.4</ele>
        <time>2021-05-17T14:48:04.000Z</time>
      </trkpt>
      <trkpt lat="44.85762" lon="0.61009">
        <ele>101.3</ele>
        <time>2021-05-17T14:48:05.000Z</time>
      </trkpt>
      <trkpt lat="44.85762" lon="0.61015">
        <ele>101.2</ele>
        <time>2021-05-17T14:48:06.000Z</time>
      </trkpt>
      <trkpt lat="44.85762" lon="0.61019">
        <ele>101.1</ele>
        <time>2021-05-17T14:48:07.000Z</time>
      </trkpt>
      <trkpt lat="44.85762" lon="0.61025">
        <ele>100.9</ele>
        <time>2021-05-17T14:48:08.000Z</time>
      </trkpt>
      <trkpt lat="44.85761" lon="0.61031">
        <ele>100.6</ele>
        <time>2021-05-17T14:48:09.000Z</time>
      </trkpt>
      <trkpt lat="44.85761" lon="0.61034">
        <ele>100.6</ele>
        <time>2021-05-17T14:48:10.000Z</time>
      </trkpt>
      <trkpt lat="44.85762" lon="0.61038">
        <ele>100.4</ele>
        <time>2021-05-17T14:48:11.000Z</time>
      </trkpt>
      <trkpt lat="44.85762" lon="0.61041">
        <ele>100.2</ele>
        <time>2021-05-17T14:48:12.000Z</time>
      </trkpt>
      <trkpt lat="44.85764" lon="0.61045">
        <ele>100.3</ele>
        <time>2021-05-17T14:48:13.000Z</time>
      </trkpt>
      <trkpt lat="44.85764" lon="0.61046">
        <ele>100.3</ele>
        <time>2021-05-17T14:48:14.000Z</time>
      </trkpt>
      <trkpt lat="44.85764" lon="0.61052">
        <ele>99.8</ele>
        <time>2021-05-17T14:48:15.000Z</time>
      </trkpt>
      <trkpt lat="44.85764" lon="0.61055">
        <ele>99.8</ele>
        <time>2021-05-17T14:48:16.000Z</time>
      </trkpt>
      <trkpt lat="44.85764" lon="0.61059">
        <ele>99.6</ele>
        <time>2021-05-17T14:48:17.000Z</time>
      </trkpt>
      <trkpt lat="44.85764" lon="0.61061">
        <ele>99.4</ele>
        <time>2021-05-17T14:48:18.000Z</time>
      </trkpt>
      <trkpt lat="44.85763" lon="0.61066">
        <ele>99.2</ele>
        <time>2021-05-17T14:48:19.000Z</time>
      </trkpt>
      <trkpt lat="44.85763" lon="0.61068">
        <ele>99</ele>
        <time>2021-05-17T14:48:20.000Z</time>
      </trkpt>
      <trkpt lat="44.85764" lon="0.61072">
        <ele>99.1</ele>
        <time>2021-05-17T14:48:21.000Z</time>
      </trkpt>
      <trkpt lat="44.85765" lon="0.61074">
        <ele>98.9</ele>
        <time>2021-05-17T14:48:22.000Z</time>
      </trkpt>
      <trkpt lat="44.85768" lon="0.61078">
        <ele>99</ele>
        <time>2021-05-17T14:48:23.000Z</time>
      </trkpt>
      <trkpt lat="44.85769" lon="0.61079">
        <ele>99</ele>
        <time>2021-05-17T14:48:24.000Z</time>
      </trkpt>
      <trkpt lat="44.85771" lon="0.61083">
        <ele>99.2</ele>
        <time>2021-05-17T14:48:25.000Z</time>
      </trkpt>
      <trkpt lat="44.85771" lon="0.61084">
        <ele>99.2</ele>
        <time>2021-05-17T14:48:26.000Z</time>
      </trkpt>
      <trkpt lat="44.85773" lon="0.61084">
        <ele>99.5</ele>
        <time>2021-05-17T14:48:27.000Z</time>
      </trkpt>
      <trkpt lat="44.85774" lon="0.61087">
        <ele>99.4</ele>
        <time>2021-05-17T14:48:28.000Z</time>
      </trkpt>
      <trkpt lat="44.85776" lon="0.6109">
        <ele>99.8</ele>
        <time>2021-05-17T14:48:29.000Z</time>
      </trkpt>
      <trkpt lat="44.85777" lon="0.6109">
        <ele>99.8</ele>
        <time>2021-05-17T14:48:30.000Z</time>
      </trkpt>
      <trkpt lat="44.8578" lon="0.61093">
        <ele>100.2</ele>
        <time>2021-05-17T14:48:31.000Z</time>
      </trkpt>
      <trkpt lat="44.85781" lon="0.61093">
        <ele>100.2</ele>
        <time>2021-05-17T14:48:32.000Z</time>
      </trkpt>
      <trkpt lat="44.85781" lon="0.61096">
        <ele>100.2</ele>
        <time>2021-05-17T14:48:33.000Z</time>
      </trkpt>
      <trkpt lat="44.85781" lon="0.61097">
        <ele>100.2</ele>
        <time>2021-05-17T14:48:34.000Z</time>
      </trkpt>
      <trkpt lat="44.8578" lon="0.61099">
        <ele>100.1</ele>
        <time>2021-05-17T14:48:35.000Z</time>
      </trkpt>
      <trkpt lat="44.8578" lon="0.611">
        <ele>100.1</ele>
        <time>2021-05-17T14:48:36.000Z</time>
      </trkpt>
      <trkpt lat="44.8578" lon="0.61103">
        <ele>100.1</ele>
        <time>2021-05-17T14:48:37.000Z</time>
      </trkpt>
      <trkpt lat="44.85779" lon="0.61104">
        <ele>100.2</ele>
        <time>2021-05-17T14:48:38.000Z</time>
      </trkpt>
      <trkpt lat="44.85778" lon="0.61107">
        <ele>99.8</ele>
        <time>2021-05-17T14:48:39.000Z</time>
      </trkpt>
      <trkpt lat="44.85777" lon="0.61109">
        <ele>99.8</ele>
        <time>2021-05-17T14:48:40.000Z</time>
      </trkpt>
      <trkpt lat="44.85777" lon="0.61111">
        <ele>99.8</ele>
        <time>2021-05-17T14:48:41.000Z</time>
      </trkpt>
      <trkpt lat="44.85775" lon="0.61112">
        <ele>99.6</ele>
        <time>2021-05-17T14:48:42.000Z</time>
      </trkpt>
      <trkpt lat="44.85774" lon="0.61111">
        <ele>99.5</ele>
        <time>2021-05-17T14:48:43.000Z</time>
      </trkpt>
      <trkpt lat="44.85772" lon="0.61111">
        <ele>99.2</ele>
        <time>2021-05-17T14:48:44.000Z</time>
      </trkpt>
      <trkpt lat="44.85772" lon="0.6111">
        <ele>99.2</ele>
        <time>2021-05-17T14:48:45.000Z</time>
      </trkpt>
      <trkpt lat="44.85771" lon="0.6111">
        <ele>99.2</ele>
        <time>2021-05-17T14:48:46.000Z</time>
      </trkpt>
      <trkpt lat="44.8577" lon="0.6111">
        <ele>99.2</ele>
        <time>2021-05-17T14:48:47.000Z</time>
      </trkpt>
      <trkpt lat="44.85768" lon="0.61112">
        <ele>99</ele>
        <time>2021-05-17T14:48:48.000Z</time>
      </trkpt>
      <trkpt lat="44.85768" lon="0.61114">
        <ele>99</ele>
        <time>2021-05-17T14:48:49.000Z</time>
      </trkpt>
      <trkpt lat="44.85766" lon="0.61119">
        <ele>98.9</ele>
        <time>2021-05-17T14:48:50.000Z</time>
      </trkpt>
      <trkpt lat="44.85764" lon="0.61122">
        <ele>99</ele>
        <time>2021-05-17T14:48:51.000Z</time>
      </trkpt>
      <trkpt lat="44.85764" lon="0.61127">
        <ele>99.1</ele>
        <time>2021-05-17T14:48:52.000Z</time>
      </trkpt>
      <trkpt lat="44.85763" lon="0.61131">
        <ele>99</ele>
        <time>2021-05-17T14:48:53.000Z</time>
      </trkpt>
      <trkpt lat="44.85764" lon="0.61135">
        <ele>99.2</ele>
        <time>2021-05-17T14:48:54.000Z</time>
      </trkpt>
      <trkpt lat="44.85764" lon="0.61139">
        <ele>99.3</ele>
        <time>2021-05-17T14:48:55.000Z</time>
      </trkpt>
      <trkpt lat="44.85765" lon="0.61141">
        <ele>99.3</ele>
        <time>2021-05-17T14:48:56.000Z</time>
      </trkpt>
      <trkpt lat="44.85765" lon="0.61145">
        <ele>99.4</ele>
        <time>2021-05-17T14:48:57.000Z</time>
      </trkpt>
      <trkpt lat="44.85766" lon="0.61147">
        <ele>99.4</ele>
        <time>2021-05-17T14:48:58.000Z</time>
      </trkpt>
      <trkpt lat="44.85766" lon="0.61151">
        <ele>99.4</ele>
        <time>2021-05-17T14:48:59.000Z</time>
      </trkpt>
      <trkpt lat="44.85768" lon="0.61155">
        <ele>99.7</ele>
        <time>2021-05-17T14:49:00.000Z</time>
      </trkpt>
      <trkpt lat="44.85769" lon="0.61157">
        <ele>99.7</ele>
        <time>2021-05-17T14:49:01.000Z</time>
      </trkpt>
      <trkpt lat="44.8577" lon="0.61161">
        <ele>100.1</ele>
        <time>2021-05-17T14:49:02.000Z</time>
      </trkpt>
      <trkpt lat="44.85771" lon="0.61165">
        <ele>100.2</ele>
        <time>2021-05-17T14:49:03.000Z</time>
      </trkpt>
      <trkpt lat="44.85772" lon="0.61169">
        <ele>100.3</ele>
        <time>2021-05-17T14:49:04.000Z</time>
      </trkpt>
      <trkpt lat="44.85772" lon="0.61171">
        <ele>100.3</ele>
        <time>2021-05-17T14:49:05.000Z</time>
      </trkpt>
      <trkpt lat="44.85771" lon="0.61177">
        <ele>100.5</ele>
        <time>2021-05-17T14:49:06.000Z</time>
      </trkpt>
      <trkpt lat="44.8577" lon="0.61179">
        <ele>100.5</ele>
        <time>2021-05-17T14:49:07.000Z</time>
      </trkpt>
      <trkpt lat="44.8577" lon="0.61184">
        <ele>100.7</ele>
        <time>2021-05-17T14:49:08.000Z</time>
      </trkpt>
      <trkpt lat="44.8577" lon="0.61186">
        <ele>100.9</ele>
        <time>2021-05-17T14:49:09.000Z</time>
      </trkpt>
      <trkpt lat="44.8577" lon="0.6119">
        <ele>101.1</ele>
        <time>2021-05-17T14:49:10.000Z</time>
      </trkpt>
      <trkpt lat="44.85769" lon="0.61195">
        <ele>101.1</ele>
        <time>2021-05-17T14:49:11.000Z</time>
      </trkpt>
      <trkpt lat="44.85769" lon="0.61196">
        <ele>101.1</ele>
        <time>2021-05-17T14:49:12.000Z</time>
      </trkpt>
      <trkpt lat="44.85768" lon="0.61201">
        <ele>101.3</ele>
        <time>2021-05-17T14:49:13.000Z</time>
      </trkpt>
      <trkpt lat="44.85768" lon="0.61203">
        <ele>101.7</ele>
        <time>2021-05-17T14:49:14.000Z</time>
      </trkpt>
      <trkpt lat="44.85768" lon="0.61208">
        <ele>102</ele>
        <time>2021-05-17T14:49:15.000Z</time>
      </trkpt>
      <trkpt lat="44.85768" lon="0.6121">
        <ele>102</ele>
        <time>2021-05-17T14:49:16.000Z</time>
      </trkpt>
      <trkpt lat="44.85768" lon="0.61214">
        <ele>102.3</ele>
        <time>2021-05-17T14:49:17.000Z</time>
      </trkpt>
      <trkpt lat="44.85768" lon="0.61218">
        <ele>102.6</ele>
        <time>2021-05-17T14:49:18.000Z</time>
      </trkpt>
      <trkpt lat="44.85769" lon="0.61223">
        <ele>102.9</ele>
        <time>2021-05-17T14:49:19.000Z</time>
      </trkpt>
      <trkpt lat="44.85769" lon="0.61224">
        <ele>103.2</ele>
        <time>2021-05-17T14:49:20.000Z</time>
      </trkpt>
      <trkpt lat="44.85769" lon="0.61228">
        <ele>103.5</ele>
        <time>2021-05-17T14:49:21.000Z</time>
      </trkpt>
      <trkpt lat="44.85769" lon="0.6123">
        <ele>103.5</ele>
        <time>2021-05-17T14:49:22.000Z</time>
      </trkpt>
      <trkpt lat="44.85769" lon="0.61234">
        <ele>103.9</ele>
        <time>2021-05-17T14:49:23.000Z</time>
      </trkpt>
      <trkpt lat="44.85768" lon="0.61239">
        <ele>104.2</ele>
        <time>2021-05-17T14:49:24.000Z</time>
      </trkpt>
      <trkpt lat="44.85769" lon="0.61241">
        <ele>104.5</ele>
        <time>2021-05-17T14:49:25.000Z</time>
      </trkpt>
      <trkpt lat="44.85769" lon="0.61246">
        <ele>104.9</ele>
        <time>2021-05-17T14:49:26.000Z</time>
      </trkpt>
      <trkpt lat="44.85767" lon="0.6125">
        <ele>105.2</ele>
        <time>2021-05-17T14:49:27.000Z</time>
      </trkpt>
      <trkpt lat="44.85767" lon="0.61252">
        <ele>105.2</ele>
        <time>2021-05-17T14:49:28.000Z</time>
      </trkpt>
      <trkpt lat="44.85766" lon="0.61254">
        <ele>105.4</ele>
        <time>2021-05-17T14:49:29.000Z</time>
      </trkpt>
      <trkpt lat="44.85765" lon="0.61256">
        <ele>105.4</ele>
        <time>2021-05-17T14:49:30.000Z</time>
      </trkpt>
      <trkpt lat="44.85763" lon="0.6126">
        <ele>105.5</ele>
        <time>2021-05-17T14:49:31.000Z</time>
      </trkpt>
      <trkpt lat="44.85762" lon="0.61261">
        <ele>105.5</ele>
        <time>2021-05-17T14:49:32.000Z</time>
      </trkpt>
      <trkpt lat="44.85761" lon="0.61266">
        <ele>105.8</ele>
        <time>2021-05-17T14:49:33.000Z</time>
      </trkpt>
      <trkpt lat="44.85761" lon="0.61268">
        <ele>106.1</ele>
        <time>2021-05-17T14:49:34.000Z</time>
      </trkpt>
      <trkpt lat="44.85759" lon="0.61272">
        <ele>106.2</ele>
        <time>2021-05-17T14:49:35.000Z</time>
      </trkpt>
      <trkpt lat="44.85759" lon="0.61273">
        <ele>106.2</ele>
        <time>2021-05-17T14:49:36.000Z</time>
      </trkpt>
      <trkpt lat="44.85757" lon="0.61277">
        <ele>106.3</ele>
        <time>2021-05-17T14:49:37.000Z</time>
      </trkpt>
      <trkpt lat="44.85755" lon="0.61279">
        <ele>106.3</ele>
        <time>2021-05-17T14:49:38.000Z</time>
      </trkpt>
      <trkpt lat="44.85755" lon="0.61283">
        <ele>106.6</ele>
        <time>2021-05-17T14:49:39.000Z</time>
      </trkpt>
      <trkpt lat="44.85755" lon="0.61288">
        <ele>107.2</ele>
        <time>2021-05-17T14:49:40.000Z</time>
      </trkpt>
      <trkpt lat="44.85755" lon="0.6129">
        <ele>107.2</ele>
        <time>2021-05-17T14:49:41.000Z</time>
      </trkpt>
      <trkpt lat="44.85755" lon="0.61295">
        <ele>107.4</ele>
        <time>2021-05-17T14:49:42.000Z</time>
      </trkpt>
      <trkpt lat="44.85755" lon="0.61296">
        <ele>107.4</ele>
        <time>2021-05-17T14:49:43.000Z</time>
      </trkpt>
      <trkpt lat="44.85756" lon="0.613">
        <ele>107.9</ele>
        <time>2021-05-17T14:49:44.000Z</time>
      </trkpt>
      <trkpt lat="44.85756" lon="0.61302">
        <ele>107.9</ele>
        <time>2021-05-17T14:49:45.000Z</time>
      </trkpt>
      <trkpt lat="44.85755" lon="0.61303">
        <ele>107.9</ele>
        <time>2021-05-17T14:49:46.000Z</time>
      </trkpt>
      <trkpt lat="44.85754" lon="0.61305">
        <ele>107.8</ele>
        <time>2021-05-17T14:49:47.000Z</time>
      </trkpt>
      <trkpt lat="44.85754" lon="0.61308">
        <ele>107.8</ele>
        <time>2021-05-17T14:49:48.000Z</time>
      </trkpt>
      <trkpt lat="44.85753" lon="0.61309">
        <ele>107.9</ele>
        <time>2021-05-17T14:49:49.000Z</time>
      </trkpt>
      <trkpt lat="44.85753" lon="0.61315">
        <ele>108.1</ele>
        <time>2021-05-17T14:49:50.000Z</time>
      </trkpt>
      <trkpt lat="44.85752" lon="0.61321">
        <ele>108.2</ele>
        <time>2021-05-17T14:49:51.000Z</time>
      </trkpt>
      <trkpt lat="44.85751" lon="0.61324">
        <ele>108.1</ele>
        <time>2021-05-17T14:49:52.000Z</time>
      </trkpt>
      <trkpt lat="44.8575" lon="0.61328">
        <ele>108.3</ele>
        <time>2021-05-17T14:49:53.000Z</time>
      </trkpt>
      <trkpt lat="44.8575" lon="0.6133">
        <ele>108.3</ele>
        <time>2021-05-17T14:49:54.000Z</time>
      </trkpt>
      <trkpt lat="44.85751" lon="0.61334">
        <ele>108.5</ele>
        <time>2021-05-17T14:49:55.000Z</time>
      </trkpt>
      <trkpt lat="44.85751" lon="0.61335">
        <ele>108.7</ele>
        <time>2021-05-17T14:49:56.000Z</time>
      </trkpt>
      <trkpt lat="44.85752" lon="0.61339">
        <ele>109.2</ele>
        <time>2021-05-17T14:49:57.000Z</time>
      </trkpt>
      <trkpt lat="44.85753" lon="0.6134">
        <ele>109.2</ele>
        <time>2021-05-17T14:49:58.000Z</time>
      </trkpt>
      <trkpt lat="44.85753" lon="0.61343">
        <ele>109.2</ele>
        <time>2021-05-17T14:49:59.000Z</time>
      </trkpt>
      <trkpt lat="44.85753" lon="0.61346">
        <ele>109.4</ele>
        <time>2021-05-17T14:50:00.000Z</time>
      </trkpt>
      <trkpt lat="44.85754" lon="0.61348">
        <ele>109.5</ele>
        <time>2021-05-17T14:50:01.000Z</time>
      </trkpt>
      <trkpt lat="44.85754" lon="0.6135">
        <ele>109.8</ele>
        <time>2021-05-17T14:50:02.000Z</time>
      </trkpt>
      <trkpt lat="44.85755" lon="0.61352">
        <ele>110</ele>
        <time>2021-05-17T14:50:03.000Z</time>
      </trkpt>
      <trkpt lat="44.85755" lon="0.61355">
        <ele>110</ele>
        <time>2021-05-17T14:50:04.000Z</time>
      </trkpt>
      <trkpt lat="44.85755" lon="0.61356">
        <ele>110.1</ele>
        <time>2021-05-17T14:50:05.000Z</time>
      </trkpt>
      <trkpt lat="44.85755" lon="0.61357">
        <ele>110.1</ele>
        <time>2021-05-17T14:50:06.000Z</time>
      </trkpt>
      <trkpt lat="44.85757" lon="0.61361">
        <ele>110.2</ele>
        <time>2021-05-17T14:50:07.000Z</time>
      </trkpt>
      <trkpt lat="44.85757" lon="0.61362">
        <ele>110.2</ele>
        <time>2021-05-17T14:50:08.000Z</time>
      </trkpt>
      <trkpt lat="44.85758" lon="0.61364">
        <ele>110.5</ele>
        <time>2021-05-17T14:50:09.000Z</time>
      </trkpt>
      <trkpt lat="44.85758" lon="0.61366">
        <ele>110.6</ele>
        <time>2021-05-17T14:50:10.000Z</time>
      </trkpt>
      <trkpt lat="44.85759" lon="0.61369">
        <ele>110.6</ele>
        <time>2021-05-17T14:50:11.000Z</time>
      </trkpt>
      <trkpt lat="44.85759" lon="0.61371">
        <ele>110.7</ele>
        <time>2021-05-17T14:50:12.000Z</time>
      </trkpt>
      <trkpt lat="44.85759" lon="0.61373">
        <ele>110.8</ele>
        <time>2021-05-17T14:50:13.000Z</time>
      </trkpt>
      <trkpt lat="44.8576" lon="0.61375">
        <ele>110.8</ele>
        <time>2021-05-17T14:50:14.000Z</time>
      </trkpt>
      <trkpt lat="44.8576" lon="0.61376">
        <ele>111.1</ele>
        <time>2021-05-17T14:50:15.000Z</time>
      </trkpt>
      <trkpt lat="44.85763" lon="0.61381">
        <ele>111.2</ele>
        <time>2021-05-17T14:50:16.000Z</time>
      </trkpt>
      <trkpt lat="44.85764" lon="0.61384">
        <ele>111.5</ele>
        <time>2021-05-17T14:50:17.000Z</time>
      </trkpt>
      <trkpt lat="44.85765" lon="0.61386">
        <ele>111.6</ele>
        <time>2021-05-17T14:50:18.000Z</time>
      </trkpt>
      <trkpt lat="44.85765" lon="0.61389">
        <ele>111.6</ele>
        <time>2021-05-17T14:50:19.000Z</time>
      </trkpt>
      <trkpt lat="44.85766" lon="0.61391">
        <ele>111.6</ele>
        <time>2021-05-17T14:50:20.000Z</time>
      </trkpt>
      <trkpt lat="44.85767" lon="0.61394">
        <ele>111.9</ele>
        <time>2021-05-17T14:50:21.000Z</time>
      </trkpt>
      <trkpt lat="44.8577" lon="0.61401">
        <ele>112.3</ele>
        <time>2021-05-17T14:50:22.000Z</time>
      </trkpt>
      <trkpt lat="44.85771" lon="0.61405">
        <ele>112.2</ele>
        <time>2021-05-17T14:50:23.000Z</time>
      </trkpt>
      <trkpt lat="44.85772" lon="0.61407">
        <ele>112.2</ele>
        <time>2021-05-17T14:50:24.000Z</time>
      </trkpt>
      <trkpt lat="44.85774" lon="0.61412">
        <ele>112.5</ele>
        <time>2021-05-17T14:50:25.000Z</time>
      </trkpt>
      <trkpt lat="44.85774" lon="0.61413">
        <ele>112.5</ele>
        <time>2021-05-17T14:50:26.000Z</time>
      </trkpt>
      <trkpt lat="44.85775" lon="0.61417">
        <ele>112.4</ele>
        <time>2021-05-17T14:50:27.000Z</time>
      </trkpt>
      <trkpt lat="44.85777" lon="0.61421">
        <ele>112.7</ele>
        <time>2021-05-17T14:50:28.000Z</time>
      </trkpt>
      <trkpt lat="44.85779" lon="0.61424">
        <ele>113.1</ele>
        <time>2021-05-17T14:50:29.000Z</time>
      </trkpt>
      <trkpt lat="44.8578" lon="0.61426">
        <ele>113.1</ele>
        <time>2021-05-17T14:50:30.000Z</time>
      </trkpt>
      <trkpt lat="44.85782" lon="0.61431">
        <ele>113.5</ele>
        <time>2021-05-17T14:50:31.000Z</time>
      </trkpt>
      <trkpt lat="44.85782" lon="0.61432">
        <ele>113.5</ele>
        <time>2021-05-17T14:50:32.000Z</time>
      </trkpt>
      <trkpt lat="44.85784" lon="0.61436">
        <ele>113.5</ele>
        <time>2021-05-17T14:50:33.000Z</time>
      </trkpt>
      <trkpt lat="44.85785" lon="0.61437">
        <ele>113.5</ele>
        <time>2021-05-17T14:50:34.000Z</time>
      </trkpt>
      <trkpt lat="44.85786" lon="0.61439">
        <ele>113.9</ele>
        <time>2021-05-17T14:50:35.000Z</time>
      </trkpt>
      <trkpt lat="44.85786" lon="0.6144">
        <ele>113.9</ele>
        <time>2021-05-17T14:50:36.000Z</time>
      </trkpt>
      <trkpt lat="44.85788" lon="0.61444">
        <ele>113.9</ele>
        <time>2021-05-17T14:50:37.000Z</time>
      </trkpt>
      <trkpt lat="44.85788" lon="0.61445">
        <ele>114.3</ele>
        <time>2021-05-17T14:50:38.000Z</time>
      </trkpt>
      <trkpt lat="44.85789" lon="0.61447">
        <ele>114.3</ele>
        <time>2021-05-17T14:50:39.000Z</time>
      </trkpt>
      <trkpt lat="44.8579" lon="0.61449">
        <ele>114.3</ele>
        <time>2021-05-17T14:50:40.000Z</time>
      </trkpt>
      <trkpt lat="44.85791" lon="0.61452">
        <ele>114.7</ele>
        <time>2021-05-17T14:50:41.000Z</time>
      </trkpt>
      <trkpt lat="44.85792" lon="0.61453">
        <ele>114.7</ele>
        <time>2021-05-17T14:50:42.000Z</time>
      </trkpt>
      <trkpt lat="44.85792" lon="0.61457">
        <ele>114.7</ele>
        <time>2021-05-17T14:50:43.000Z</time>
      </trkpt>
      <trkpt lat="44.85793" lon="0.61459">
        <ele>114.7</ele>
        <time>2021-05-17T14:50:44.000Z</time>
      </trkpt>
      <trkpt lat="44.85793" lon="0.61463">
        <ele>114.8</ele>
        <time>2021-05-17T14:50:45.000Z</time>
      </trkpt>
      <trkpt lat="44.85795" lon="0.61467">
        <ele>115.2</ele>
        <time>2021-05-17T14:50:46.000Z</time>
      </trkpt>
      <trkpt lat="44.85795" lon="0.61469">
        <ele>115.2</ele>
        <time>2021-05-17T14:50:47.000Z</time>
      </trkpt>
      <trkpt lat="44.85796" lon="0.6147">
        <ele>115.2</ele>
        <time>2021-05-17T14:50:48.000Z</time>
      </trkpt>
      <trkpt lat="44.85796" lon="0.61474">
        <ele>115.3</ele>
        <time>2021-05-17T14:50:49.000Z</time>
      </trkpt>
      <trkpt lat="44.85796" lon="0.61477">
        <ele>115.3</ele>
        <time>2021-05-17T14:50:50.000Z</time>
      </trkpt>
      <trkpt lat="44.85796" lon="0.61478">
        <ele>115.3</ele>
        <time>2021-05-17T14:50:51.000Z</time>
      </trkpt>
      <trkpt lat="44.85796" lon="0.61479">
        <ele>115.3</ele>
        <time>2021-05-17T14:50:52.000Z</time>
      </trkpt>
      <trkpt lat="44.85796" lon="0.61483">
        <ele>115.3</ele>
        <time>2021-05-17T14:50:53.000Z</time>
      </trkpt>
      <trkpt lat="44.85796" lon="0.61485">
        <ele>115.3</ele>
        <time>2021-05-17T14:50:54.000Z</time>
      </trkpt>
      <trkpt lat="44.85796" lon="0.61486">
        <ele>115.3</ele>
        <time>2021-05-17T14:50:55.000Z</time>
      </trkpt>
      <trkpt lat="44.85796" lon="0.61488">
        <ele>115.3</ele>
        <time>2021-05-17T14:50:56.000Z</time>
      </trkpt>
      <trkpt lat="44.85796" lon="0.6149">
        <ele>115.3</ele>
        <time>2021-05-17T14:50:57.000Z</time>
      </trkpt>
      <trkpt lat="44.85795" lon="0.61494">
        <ele>115.3</ele>
        <time>2021-05-17T14:50:58.000Z</time>
      </trkpt>
      <trkpt lat="44.85795" lon="0.61495">
        <ele>115.3</ele>
        <time>2021-05-17T14:50:59.000Z</time>
      </trkpt>
      <trkpt lat="44.85796" lon="0.61499">
        <ele>115.2</ele>
        <time>2021-05-17T14:51:00.000Z</time>
      </trkpt>
      <trkpt lat="44.85796" lon="0.61501">
        <ele>115.2</ele>
        <time>2021-05-17T14:51:01.000Z</time>
      </trkpt>
      <trkpt lat="44.85797" lon="0.61504">
        <ele>115.1</ele>
        <time>2021-05-17T14:51:02.000Z</time>
      </trkpt>
      <trkpt lat="44.85797" lon="0.61506">
        <ele>115.6</ele>
        <time>2021-05-17T14:51:03.000Z</time>
      </trkpt>
      <trkpt lat="44.85797" lon="0.61508">
        <ele>115.5</ele>
        <time>2021-05-17T14:51:04.000Z</time>
      </trkpt>
      <trkpt lat="44.85798" lon="0.6151">
        <ele>115.5</ele>
        <time>2021-05-17T14:51:05.000Z</time>
      </trkpt>
      <trkpt lat="44.85798" lon="0.61512">
        <ele>115.4</ele>
        <time>2021-05-17T14:51:06.000Z</time>
      </trkpt>
      <trkpt lat="44.85798" lon="0.61515">
        <ele>115.4</ele>
        <time>2021-05-17T14:51:07.000Z</time>
      </trkpt>
      <trkpt lat="44.858" lon="0.61519">
        <ele>115.8</ele>
        <time>2021-05-17T14:51:08.000Z</time>
      </trkpt>
      <trkpt lat="44.85801" lon="0.61521">
        <ele>115.8</ele>
        <time>2021-05-17T14:51:09.000Z</time>
      </trkpt>
      <trkpt lat="44.85803" lon="0.61524">
        <ele>116.2</ele>
        <time>2021-05-17T14:51:10.000Z</time>
      </trkpt>
      <trkpt lat="44.85804" lon="0.61526">
        <ele>116.2</ele>
        <time>2021-05-17T14:51:11.000Z</time>
      </trkpt>
      <trkpt lat="44.85804" lon="0.61528">
        <ele>116.2</ele>
        <time>2021-05-17T14:51:12.000Z</time>
      </trkpt>
      <trkpt lat="44.85803" lon="0.61531">
        <ele>115.6</ele>
        <time>2021-05-17T14:51:13.000Z</time>
      </trkpt>
      <trkpt lat="44.85802" lon="0.61534">
        <ele>115.6</ele>
        <time>2021-05-17T14:51:14.000Z</time>
      </trkpt>
      <trkpt lat="44.85802" lon="0.61536">
        <ele>115.6</ele>
        <time>2021-05-17T14:51:15.000Z</time>
      </trkpt>
      <trkpt lat="44.85804" lon="0.6154">
        <ele>116.1</ele>
        <time>2021-05-17T14:51:16.000Z</time>
      </trkpt>
      <trkpt lat="44.85806" lon="0.61545">
        <ele>116.8</ele>
        <time>2021-05-17T14:51:17.000Z</time>
      </trkpt>
      <trkpt lat="44.85807" lon="0.61546">
        <ele>116.8</ele>
        <time>2021-05-17T14:51:18.000Z</time>
      </trkpt>
      <trkpt lat="44.85809" lon="0.61551">
        <ele>116.9</ele>
        <time>2021-05-17T14:51:19.000Z</time>
      </trkpt>
      <trkpt lat="44.8581" lon="0.61552">
        <ele>117.5</ele>
        <time>2021-05-17T14:51:20.000Z</time>
      </trkpt>
      <trkpt lat="44.85811" lon="0.61555">
        <ele>117.6</ele>
        <time>2021-05-17T14:51:21.000Z</time>
      </trkpt>
      <trkpt lat="44.85812" lon="0.61556">
        <ele>117.6</ele>
        <time>2021-05-17T14:51:22.000Z</time>
      </trkpt>
      <trkpt lat="44.85813" lon="0.6156">
        <ele>118.2</ele>
        <time>2021-05-17T14:51:23.000Z</time>
      </trkpt>
      <trkpt lat="44.85814" lon="0.61562">
        <ele>118.2</ele>
        <time>2021-05-17T14:51:24.000Z</time>
      </trkpt>
      <trkpt lat="44.85814" lon="0.61564">
        <ele>118.3</ele>
        <time>2021-05-17T14:51:25.000Z</time>
      </trkpt>
      <trkpt lat="44.85815" lon="0.61566">
        <ele>118.8</ele>
        <time>2021-05-17T14:51:26.000Z</time>
      </trkpt>
      <trkpt lat="44.85817" lon="0.6157">
        <ele>118.9</ele>
        <time>2021-05-17T14:51:27.000Z</time>
      </trkpt>
      <trkpt lat="44.85819" lon="0.61574">
        <ele>119.3</ele>
        <time>2021-05-17T14:51:28.000Z</time>
      </trkpt>
      <trkpt lat="44.8582" lon="0.61578">
        <ele>119.4</ele>
        <time>2021-05-17T14:51:29.000Z</time>
      </trkpt>
      <trkpt lat="44.85821" lon="0.61583">
        <ele>119.5</ele>
        <time>2021-05-17T14:51:30.000Z</time>
      </trkpt>
      <trkpt lat="44.85821" lon="0.61585">
        <ele>119.5</ele>
        <time>2021-05-17T14:51:31.000Z</time>
      </trkpt>
      <trkpt lat="44.85821" lon="0.61589">
        <ele>119.6</ele>
        <time>2021-05-17T14:51:32.000Z</time>
      </trkpt>
      <trkpt lat="44.8582" lon="0.6159">
        <ele>119.6</ele>
        <time>2021-05-17T14:51:33.000Z</time>
      </trkpt>
      <trkpt lat="44.85819" lon="0.61591">
        <ele>119.6</ele>
        <time>2021-05-17T14:51:34.000Z</time>
      </trkpt>
      <trkpt lat="44.85817" lon="0.61591">
        <ele>119.2</ele>
        <time>2021-05-17T14:51:35.000Z</time>
      </trkpt>
      <trkpt lat="44.85816" lon="0.61591">
        <ele>119.2</ele>
        <time>2021-05-17T14:51:36.000Z</time>
      </trkpt>
      <trkpt lat="44.85814" lon="0.61592">
        <ele>118.8</ele>
        <time>2021-05-17T14:51:37.000Z</time>
      </trkpt>
      <trkpt lat="44.85812" lon="0.61597">
        <ele>118.3</ele>
        <time>2021-05-17T14:51:38.000Z</time>
      </trkpt>
      <trkpt lat="44.8581" lon="0.61598">
        <ele>118.3</ele>
        <time>2021-05-17T14:51:39.000Z</time>
      </trkpt>
      <trkpt lat="44.85809" lon="0.61603">
        <ele>118.3</ele>
        <time>2021-05-17T14:51:40.000Z</time>
      </trkpt>
      <trkpt lat="44.85809" lon="0.61604">
        <ele>118.3</ele>
        <time>2021-05-17T14:51:41.000Z</time>
      </trkpt>
      <trkpt lat="44.85808" lon="0.61608">
        <ele>117.8</ele>
        <time>2021-05-17T14:51:42.000Z</time>
      </trkpt>
      <trkpt lat="44.85807" lon="0.6161">
        <ele>117.9</ele>
        <time>2021-05-17T14:51:43.000Z</time>
      </trkpt>
      <trkpt lat="44.85805" lon="0.61613">
        <ele>117.3</ele>
        <time>2021-05-17T14:51:44.000Z</time>
      </trkpt>
      <trkpt lat="44.85803" lon="0.61618">
        <ele>117.4</ele>
        <time>2021-05-17T14:51:45.000Z</time>
      </trkpt>
      <trkpt lat="44.85801" lon="0.61621">
        <ele>116.9</ele>
        <time>2021-05-17T14:51:46.000Z</time>
      </trkpt>
      <trkpt lat="44.85798" lon="0.61625">
        <ele>116.5</ele>
        <time>2021-05-17T14:51:47.000Z</time>
      </trkpt>
      <trkpt lat="44.85808" lon="0.61659">
        <ele>118.2</ele>
        <time>2021-05-17T14:51:48.000Z</time>
      </trkpt>
      <trkpt lat="44.85808" lon="0.61659">
        <ele>118.2</ele>
        <time>2021-05-17T14:51:49.000Z</time>
      </trkpt>
      <trkpt lat="44.85807" lon="0.61659">
        <ele>118.2</ele>
        <time>2021-05-17T14:51:50.000Z</time>
      </trkpt>
      <trkpt lat="44.85807" lon="0.6166">
        <ele>118.2</ele>
        <time>2021-05-17T14:51:51.000Z</time>
      </trkpt>
      <trkpt lat="44.85806" lon="0.6166">
        <ele>118.2</ele>
        <time>2021-05-17T14:51:52.000Z</time>
      </trkpt>
      <trkpt lat="44.85805" lon="0.61661">
        <ele>117.7</ele>
        <time>2021-05-17T14:51:53.000Z</time>
      </trkpt>
      <trkpt lat="44.85805" lon="0.61661">
        <ele>117.7</ele>
        <time>2021-05-17T14:51:54.000Z</time>
      </trkpt>
      <trkpt lat="44.85804" lon="0.61662">
        <ele>117.7</ele>
        <time>2021-05-17T14:51:55.000Z</time>
      </trkpt>
      <trkpt lat="44.85804" lon="0.61662">
        <ele>117.7</ele>
        <time>2021-05-17T14:51:56.000Z</time>
      </trkpt>
      <trkpt lat="44.85803" lon="0.61662">
        <ele>117.7</ele>
        <time>2021-05-17T14:51:57.000Z</time>
      </trkpt>
      <trkpt lat="44.85802" lon="0.61663">
        <ele>117.3</ele>
        <time>2021-05-17T14:51:58.000Z</time>
      </trkpt>
      <trkpt lat="44.85802" lon="0.61663">
        <ele>117.3</ele>
        <time>2021-05-17T14:51:59.000Z</time>
      </trkpt>
      <trkpt lat="44.85801" lon="0.61664">
        <ele>117.3</ele>
        <time>2021-05-17T14:52:00.000Z</time>
      </trkpt>
      <trkpt lat="44.85801" lon="0.61664">
        <ele>117.3</ele>
        <time>2021-05-17T14:52:01.000Z</time>
      </trkpt>
      <trkpt lat="44.858" lon="0.61664">
        <ele>117.3</ele>
        <time>2021-05-17T14:52:02.000Z</time>
      </trkpt>
      <trkpt lat="44.858" lon="0.61665">
        <ele>116.8</ele>
        <time>2021-05-17T14:52:03.000Z</time>
      </trkpt>
      <trkpt lat="44.85799" lon="0.61665">
        <ele>116.8</ele>
        <time>2021-05-17T14:52:04.000Z</time>
      </trkpt>
      <trkpt lat="44.85798" lon="0.61666">
        <ele>116.8</ele>
        <time>2021-05-17T14:52:05.000Z</time>
      </trkpt>
      <trkpt lat="44.85798" lon="0.61666">
        <ele>116.8</ele>
        <time>2021-05-17T14:52:06.000Z</time>
      </trkpt>
      <trkpt lat="44.85797" lon="0.61667">
        <ele>116.8</ele>
        <time>2021-05-17T14:52:07.000Z</time>
      </trkpt>
      <trkpt lat="44.85797" lon="0.61667">
        <ele>116.3</ele>
        <time>2021-05-17T14:52:08.000Z</time>
      </trkpt>
      <trkpt lat="44.85796" lon="0.61667">
        <ele>116.3</ele>
        <time>2021-05-17T14:52:09.000Z</time>
      </trkpt>
      <trkpt lat="44.85795" lon="0.61668">
        <ele>116.3</ele>
        <time>2021-05-17T14:52:10.000Z</time>
      </trkpt>
      <trkpt lat="44.85795" lon="0.61668">
        <ele>116.3</ele>
        <time>2021-05-17T14:52:11.000Z</time>
      </trkpt>
      <trkpt lat="44.85794" lon="0.61669">
        <ele>116.3</ele>
        <time>2021-05-17T14:52:12.000Z</time>
      </trkpt>
      <trkpt lat="44.85794" lon="0.61668">
        <ele>116.3</ele>
        <time>2021-05-17T14:52:13.000Z</time>
      </trkpt>
      <trkpt lat="44.85793" lon="0.61668">
        <ele>115.8</ele>
        <time>2021-05-17T14:52:14.000Z</time>
      </trkpt>
      <trkpt lat="44.85793" lon="0.61669">
        <ele>115.8</ele>
        <time>2021-05-17T14:52:15.000Z</time>
      </trkpt>
      <trkpt lat="44.85791" lon="0.61669">
        <ele>115.8</ele>
        <time>2021-05-17T14:52:16.000Z</time>
      </trkpt>
      <trkpt lat="44.8579" lon="0.61669">
        <ele>115.3</ele>
        <time>2021-05-17T14:52:17.000Z</time>
      </trkpt>
      <trkpt lat="44.8579" lon="0.61669">
        <ele>115.3</ele>
        <time>2021-05-17T14:52:18.000Z</time>
      </trkpt>
      <trkpt lat="44.8579" lon="0.6167">
        <ele>115.3</ele>
        <time>2021-05-17T14:52:19.000Z</time>
      </trkpt>
      <trkpt lat="44.8579" lon="0.6167">
        <ele>115.3</ele>
        <time>2021-05-17T14:52:20.000Z</time>
      </trkpt>
      <trkpt lat="44.8579" lon="0.61671">
        <ele>115.3</ele>
        <time>2021-05-17T14:52:21.000Z</time>
      </trkpt>
      <trkpt lat="44.8579" lon="0.61671">
        <ele>115.3</ele>
        <time>2021-05-17T14:52:22.000Z</time>
      </trkpt>
      <trkpt lat="44.8579" lon="0.61671">
        <ele>115.3</ele>
        <time>2021-05-17T14:52:23.000Z</time>
      </trkpt>
      <trkpt lat="44.8579" lon="0.61672">
        <ele>115.3</ele>
        <time>2021-05-17T14:52:24.000Z</time>
      </trkpt>
      <trkpt lat="44.85789" lon="0.61671">
        <ele>115.3</ele>
        <time>2021-05-17T14:52:25.000Z</time>
      </trkpt>
      <trkpt lat="44.85789" lon="0.61672">
        <ele>115.3</ele>
        <time>2021-05-17T14:52:26.000Z</time>
      </trkpt>
      <trkpt lat="44.8579" lon="0.61673">
        <ele>115.3</ele>
        <time>2021-05-17T14:52:27.000Z</time>
      </trkpt>
      <trkpt lat="44.8579" lon="0.61673">
        <ele>115.3</ele>
        <time>2021-05-17T14:52:28.000Z</time>
      </trkpt>
      <trkpt lat="44.85789" lon="0.61672">
        <ele>115.3</ele>
        <time>2021-05-17T14:52:29.000Z</time>
      </trkpt>
      <trkpt lat="44.85789" lon="0.61673">
        <ele>115.3</ele>
        <time>2021-05-17T14:52:30.000Z</time>
      </trkpt>
      <trkpt lat="44.85789" lon="0.61673">
        <ele>115.3</ele>
        <time>2021-05-17T14:52:31.000Z</time>
      </trkpt>
      <trkpt lat="44.85789" lon="0.61674">
        <ele>115.2</ele>
        <time>2021-05-17T14:52:32.000Z</time>
      </trkpt>
      <trkpt lat="44.8579" lon="0.61674">
        <ele>115.3</ele>
        <time>2021-05-17T14:52:33.000Z</time>
      </trkpt>
      <trkpt lat="44.85789" lon="0.61673">
        <ele>115.3</ele>
        <time>2021-05-17T14:52:34.000Z</time>
      </trkpt>
      <trkpt lat="44.85789" lon="0.61673">
        <ele>115.3</ele>
        <time>2021-05-17T14:52:35.000Z</time>
      </trkpt>
      <trkpt lat="44.85788" lon="0.61672">
        <ele>115.3</ele>
        <time>2021-05-17T14:52:36.000Z</time>
      </trkpt>
      <trkpt lat="44.85788" lon="0.61672">
        <ele>115.3</ele>
        <time>2021-05-17T14:52:37.000Z</time>
      </trkpt>
      <trkpt lat="44.85787" lon="0.61673">
        <ele>114.7</ele>
        <time>2021-05-17T14:52:38.000Z</time>
      </trkpt>
      <trkpt lat="44.85788" lon="0.61674">
        <ele>115.3</ele>
        <time>2021-05-17T14:52:39.000Z</time>
      </trkpt>
      <trkpt lat="44.85789" lon="0.61674">
        <ele>115.3</ele>
        <time>2021-05-17T14:52:40.000Z</time>
      </trkpt>
      <trkpt lat="44.85789" lon="0.61674">
        <ele>115.2</ele>
        <time>2021-05-17T14:52:41.000Z</time>
      </trkpt>
      <trkpt lat="44.85788" lon="0.61674">
        <ele>115.2</ele>
        <time>2021-05-17T14:52:42.000Z</time>
      </trkpt>
      <trkpt lat="44.85788" lon="0.61674">
        <ele>115.2</ele>
        <time>2021-05-17T14:52:43.000Z</time>
      </trkpt>
      <trkpt lat="44.85788" lon="0.61674">
        <ele>115.2</ele>
        <time>2021-05-17T14:52:44.000Z</time>
      </trkpt>
      <trkpt lat="44.85788" lon="0.61675">
        <ele>115.2</ele>
        <time>2021-05-17T14:52:45.000Z</time>
      </trkpt>
      <trkpt lat="44.85788" lon="0.61676">
        <ele>115.2</ele>
        <time>2021-05-17T14:52:46.000Z</time>
      </trkpt>
      <trkpt lat="44.85788" lon="0.61676">
        <ele>115.2</ele>
        <time>2021-05-17T14:52:47.000Z</time>
      </trkpt>
      <trkpt lat="44.85788" lon="0.61676">
        <ele>115.2</ele>
        <time>2021-05-17T14:52:48.000Z</time>
      </trkpt>
      <trkpt lat="44.85788" lon="0.61676">
        <ele>115.2</ele>
        <time>2021-05-17T14:52:49.000Z</time>
      </trkpt>
      <trkpt lat="44.85789" lon="0.61676">
        <ele>115.2</ele>
        <time>2021-05-17T14:52:50.000Z</time>
      </trkpt>
      <trkpt lat="44.85789" lon="0.61675">
        <ele>115.2</ele>
        <time>2021-05-17T14:52:51.000Z</time>
      </trkpt>
      <trkpt lat="44.85789" lon="0.61675">
        <ele>115.2</ele>
        <time>2021-05-17T14:52:52.000Z</time>
      </trkpt>
      <trkpt lat="44.85789" lon="0.61673">
        <ele>115.3</ele>
        <time>2021-05-17T14:52:53.000Z</time>
      </trkpt>
      <trkpt lat="44.85789" lon="0.61673">
        <ele>115.3</ele>
        <time>2021-05-17T14:52:54.000Z</time>
      </trkpt>
      <trkpt lat="44.85789" lon="0.61673">
        <ele>115.3</ele>
        <time>2021-05-17T14:52:55.000Z</time>
      </trkpt>
      <trkpt lat="44.8579" lon="0.61672">
        <ele>115.3</ele>
        <time>2021-05-17T14:52:56.000Z</time>
      </trkpt>
      <trkpt lat="44.8579" lon="0.61672">
        <ele>115.3</ele>
        <time>2021-05-17T14:52:57.000Z</time>
      </trkpt>
      <trkpt lat="44.8579" lon="0.61671">
        <ele>115.3</ele>
        <time>2021-05-17T14:52:58.000Z</time>
      </trkpt>
      <trkpt lat="44.85791" lon="0.61671">
        <ele>115.3</ele>
        <time>2021-05-17T14:52:59.000Z</time>
      </trkpt>
      <trkpt lat="44.85791" lon="0.61671">
        <ele>115.3</ele>
        <time>2021-05-17T14:53:00.000Z</time>
      </trkpt>
      <trkpt lat="44.8579" lon="0.61671">
        <ele>115.3</ele>
        <time>2021-05-17T14:53:01.000Z</time>
      </trkpt>
      <trkpt lat="44.85789" lon="0.61672">
        <ele>115.3</ele>
        <time>2021-05-17T14:53:02.000Z</time>
      </trkpt>
      <trkpt lat="44.85789" lon="0.61673">
        <ele>115.3</ele>
        <time>2021-05-17T14:53:03.000Z</time>
      </trkpt>
      <trkpt lat="44.85788" lon="0.61672">
        <ele>115.3</ele>
        <time>2021-05-17T14:53:04.000Z</time>
      </trkpt>
      <trkpt lat="44.85788" lon="0.61671">
        <ele>115.3</ele>
        <time>2021-05-17T14:53:05.000Z</time>
      </trkpt>
      <trkpt lat="44.85788" lon="0.6167">
        <ele>115.3</ele>
        <time>2021-05-17T14:53:06.000Z</time>
      </trkpt>
      <trkpt lat="44.85788" lon="0.61669">
        <ele>115.3</ele>
        <time>2021-05-17T14:53:07.000Z</time>
      </trkpt>
      <trkpt lat="44.85788" lon="0.61669">
        <ele>115.3</ele>
        <time>2021-05-17T14:53:08.000Z</time>
      </trkpt>
      <trkpt lat="44.85788" lon="0.61669">
        <ele>115.3</ele>
        <time>2021-05-17T14:53:09.000Z</time>
      </trkpt>
      <trkpt lat="44.85788" lon="0.61669">
        <ele>115.3</ele>
        <time>2021-05-17T14:53:10.000Z</time>
      </trkpt>
      <trkpt lat="44.85788" lon="0.61668">
        <ele>114.7</ele>
        <time>2021-05-17T14:53:11.000Z</time>
      </trkpt>
      <trkpt lat="44.85788" lon="0.61667">
        <ele>114.7</ele>
        <time>2021-05-17T14:53:12.000Z</time>
      </trkpt>
      <trkpt lat="44.85787" lon="0.61666">
        <ele>114.7</ele>
        <time>2021-05-17T14:53:13.000Z</time>
      </trkpt>
      <trkpt lat="44.85787" lon="0.61666">
        <ele>114.7</ele>
        <time>2021-05-17T14:53:14.000Z</time>
      </trkpt>
      <trkpt lat="44.85787" lon="0.61666">
        <ele>114.7</ele>
        <time>2021-05-17T14:53:15.000Z</time>
      </trkpt>
      <trkpt lat="44.85787" lon="0.61666">
        <ele>114.7</ele>
        <time>2021-05-17T14:53:16.000Z</time>
      </trkpt>
      <trkpt lat="44.85786" lon="0.61667">
        <ele>114.7</ele>
        <time>2021-05-17T14:53:17.000Z</time>
      </trkpt>
      <trkpt lat="44.85786" lon="0.61667">
        <ele>114.7</ele>
        <time>2021-05-17T14:53:18.000Z</time>
      </trkpt>
      <trkpt lat="44.85786" lon="0.61667">
        <ele>114.7</ele>
        <time>2021-05-17T14:53:19.000Z</time>
      </trkpt>
      <trkpt lat="44.85785" lon="0.61667">
        <ele>114.7</ele>
        <time>2021-05-17T14:53:20.000Z</time>
      </trkpt>
      <trkpt lat="44.85785" lon="0.61667">
        <ele>114.7</ele>
        <time>2021-05-17T14:53:21.000Z</time>
      </trkpt>
      <trkpt lat="44.85785" lon="0.61666">
        <ele>114.7</ele>
        <time>2021-05-17T14:53:22.000Z</time>
      </trkpt>
      <trkpt lat="44.85786" lon="0.61666">
        <ele>114.7</ele>
        <time>2021-05-17T14:53:23.000Z</time>
      </trkpt>
      <trkpt lat="44.85786" lon="0.61667">
        <ele>114.7</ele>
        <time>2021-05-17T14:53:24.000Z</time>
      </trkpt>
      <trkpt lat="44.85786" lon="0.61667">
        <ele>114.7</ele>
        <time>2021-05-17T14:53:25.000Z</time>
      </trkpt>
      <trkpt lat="44.85787" lon="0.61667">
        <ele>114.7</ele>
        <time>2021-05-17T14:53:26.000Z</time>
      </trkpt>
      <trkpt lat="44.85787" lon="0.61668">
        <ele>114.7</ele>
        <time>2021-05-17T14:53:27.000Z</time>
      </trkpt>
      <trkpt lat="44.85788" lon="0.61668">
        <ele>114.7</ele>
        <time>2021-05-17T14:53:28.000Z</time>
      </trkpt>
      <trkpt lat="44.85788" lon="0.61668">
        <ele>115.3</ele>
        <time>2021-05-17T14:53:29.000Z</time>
      </trkpt>
      <trkpt lat="44.85788" lon="0.61669">
        <ele>115.3</ele>
        <time>2021-05-17T14:53:30.000Z</time>
      </trkpt>
      <trkpt lat="44.85789" lon="0.61669">
        <ele>115.3</ele>
        <time>2021-05-17T14:53:31.000Z</time>
      </trkpt>
      <trkpt lat="44.85788" lon="0.61669">
        <ele>115.3</ele>
        <time>2021-05-17T14:53:32.000Z</time>
      </trkpt>
      <trkpt lat="44.85788" lon="0.61669">
        <ele>115.3</ele>
        <time>2021-05-17T14:53:33.000Z</time>
      </trkpt>
      <trkpt lat="44.85788" lon="0.61669">
        <ele>115.3</ele>
        <time>2021-05-17T14:53:34.000Z</time>
      </trkpt>
      <trkpt lat="44.85788" lon="0.6167">
        <ele>114.7</ele>
        <time>2021-05-17T14:53:35.000Z</time>
      </trkpt>
      <trkpt lat="44.85788" lon="0.61669">
        <ele>115.3</ele>
        <time>2021-05-17T14:53:36.000Z</time>
      </trkpt>
      <trkpt lat="44.85788" lon="0.61669">
        <ele>115.3</ele>
        <time>2021-05-17T14:53:37.000Z</time>
      </trkpt>
      <trkpt lat="44.85788" lon="0.61669">
        <ele>115.3</ele>
        <time>2021-05-17T14:53:38.000Z</time>
      </trkpt>
      <trkpt lat="44.85788" lon="0.6167">
        <ele>115.3</ele>
        <time>2021-05-17T14:53:39.000Z</time>
      </trkpt>
      <trkpt lat="44.85789" lon="0.61669">
        <ele>115.3</ele>
        <time>2021-05-17T14:53:40.000Z</time>
      </trkpt>
      <trkpt lat="44.85789" lon="0.6167">
        <ele>115.3</ele>
        <time>2021-05-17T14:53:41.000Z</time>
      </trkpt>
      <trkpt lat="44.85789" lon="0.61669">
        <ele>115.3</ele>
        <time>2021-05-17T14:53:42.000Z</time>
      </trkpt>
      <trkpt lat="44.85789" lon="0.61669">
        <ele>115.3</ele>
        <time>2021-05-17T14:53:43.000Z</time>
      </trkpt>
      <trkpt lat="44.85789" lon="0.61669">
        <ele>115.3</ele>
        <time>2021-05-17T14:53:44.000Z</time>
      </trkpt>
      <trkpt lat="44.85789" lon="0.61669">
        <ele>115.3</ele>
        <time>2021-05-17T14:53:45.000Z</time>
      </trkpt>
      <trkpt lat="44.85789" lon="0.6167">
        <ele>115.3</ele>
        <time>2021-05-17T14:53:46.000Z</time>
      </trkpt>
      <trkpt lat="44.85789" lon="0.6167">
        <ele>115.3</ele>
        <time>2021-05-17T14:53:47.000Z</time>
      </trkpt>
      <trkpt lat="44.85789" lon="0.6167">
        <ele>115.3</ele>
        <time>2021-05-17T14:53:48.000Z</time>
      </trkpt>
      <trkpt lat="44.85788" lon="0.6167">
        <ele>115.3</ele>
        <time>2021-05-17T14:53:49.000Z</time>
      </trkpt>
      <trkpt lat="44.85787" lon="0.61669">
        <ele>114.7</ele>
        <time>2021-05-17T14:53:50.000Z</time>
      </trkpt>
      <trkpt lat="44.85788" lon="0.61669">
        <ele>114.7</ele>
        <time>2021-05-17T14:53:51.000Z</time>
      </trkpt>
      <trkpt lat="44.85788" lon="0.61669">
        <ele>115.3</ele>
        <time>2021-05-17T14:53:52.000Z</time>
      </trkpt>
      <trkpt lat="44.85789" lon="0.6167">
        <ele>115.3</ele>
        <time>2021-05-17T14:53:53.000Z</time>
      </trkpt>
      <trkpt lat="44.85789" lon="0.61671">
        <ele>115.3</ele>
        <time>2021-05-17T14:53:54.000Z</time>
      </trkpt>
      <trkpt lat="44.8579" lon="0.61671">
        <ele>115.3</ele>
        <time>2021-05-17T14:53:55.000Z</time>
      </trkpt>
      <trkpt lat="44.8579" lon="0.61671">
        <ele>115.3</ele>
        <time>2021-05-17T14:53:56.000Z</time>
      </trkpt>
      <trkpt lat="44.85789" lon="0.61672">
        <ele>115.3</ele>
        <time>2021-05-17T14:53:57.000Z</time>
      </trkpt>
      <trkpt lat="44.85789" lon="0.61672">
        <ele>115.3</ele>
        <time>2021-05-17T14:53:58.000Z</time>
      </trkpt>
      <trkpt lat="44.8579" lon="0.61671">
        <ele>115.3</ele>
        <time>2021-05-17T14:53:59.000Z</time>
      </trkpt>
      <trkpt lat="44.8579" lon="0.61671">
        <ele>115.3</ele>
        <time>2021-05-17T14:54:00.000Z</time>
      </trkpt>
      <trkpt lat="44.8579" lon="0.61671">
        <ele>115.3</ele>
        <time>2021-05-17T14:54:01.000Z</time>
      </trkpt>
      <trkpt lat="44.8579" lon="0.61671">
        <ele>115.3</ele>
        <time>2021-05-17T14:54:02.000Z</time>
      </trkpt>
      <trkpt lat="44.8579" lon="0.6167">
        <ele>115.3</ele>
        <time>2021-05-17T14:54:03.000Z</time>
      </trkpt>
      <trkpt lat="44.8579" lon="0.61671">
        <ele>115.3</ele>
        <time>2021-05-17T14:54:04.000Z</time>
      </trkpt>
      <trkpt lat="44.8579" lon="0.61671">
        <ele>115.3</ele>
        <time>2021-05-17T14:54:05.000Z</time>
      </trkpt>
      <trkpt lat="44.85789" lon="0.6167">
        <ele>115.3</ele>
        <time>2021-05-17T14:54:06.000Z</time>
      </trkpt>
      <trkpt lat="44.85789" lon="0.61669">
        <ele>115.3</ele>
        <time>2021-05-17T14:54:07.000Z</time>
      </trkpt>
      <trkpt lat="44.85788" lon="0.6167">
        <ele>115.3</ele>
        <time>2021-05-17T14:54:08.000Z</time>
      </trkpt>
      <trkpt lat="44.85788" lon="0.61669">
        <ele>115.3</ele>
        <time>2021-05-17T14:54:09.000Z</time>
      </trkpt>
      <trkpt lat="44.85788" lon="0.6167">
        <ele>114.7</ele>
        <time>2021-05-17T14:54:10.000Z</time>
      </trkpt>
      <trkpt lat="44.85788" lon="0.61669">
        <ele>115.3</ele>
        <time>2021-05-17T14:54:11.000Z</time>
      </trkpt>
      <trkpt lat="44.85788" lon="0.6167">
        <ele>114.7</ele>
        <time>2021-05-17T14:54:12.000Z</time>
      </trkpt>
      <trkpt lat="44.85788" lon="0.6167">
        <ele>115.3</ele>
        <time>2021-05-17T14:54:13.000Z</time>
      </trkpt>
      <trkpt lat="44.85788" lon="0.61669">
        <ele>115.3</ele>
        <time>2021-05-17T14:54:14.000Z</time>
      </trkpt>
      <trkpt lat="44.85788" lon="0.6167">
        <ele>115.3</ele>
        <time>2021-05-17T14:54:15.000Z</time>
      </trkpt>
      <trkpt lat="44.85788" lon="0.6167">
        <ele>115.3</ele>
        <time>2021-05-17T14:54:16.000Z</time>
      </trkpt>
      <trkpt lat="44.85788" lon="0.6167">
        <ele>115.3</ele>
        <time>2021-05-17T14:54:17.000Z</time>
      </trkpt>
      <trkpt lat="44.85788" lon="0.6167">
        <ele>114.7</ele>
        <time>2021-05-17T14:54:18.000Z</time>
      </trkpt>
      <trkpt lat="44.85788" lon="0.6167">
        <ele>115.3</ele>
        <time>2021-05-17T14:54:19.000Z</time>
      </trkpt>
      <trkpt lat="44.85787" lon="0.61671">
        <ele>114.7</ele>
        <time>2021-05-17T14:54:20.000Z</time>
      </trkpt>
      <trkpt lat="44.85787" lon="0.61671">
        <ele>114.7</ele>
        <time>2021-05-17T14:54:21.000Z</time>
      </trkpt>
      <trkpt lat="44.85786" lon="0.61671">
        <ele>114.7</ele>
        <time>2021-05-17T14:54:22.000Z</time>
      </trkpt>
      <trkpt lat="44.85786" lon="0.61671">
        <ele>114.7</ele>
        <time>2021-05-17T14:54:23.000Z</time>
      </trkpt>
      <trkpt lat="44.85786" lon="0.61671">
        <ele>114.7</ele>
        <time>2021-05-17T14:54:24.000Z</time>
      </trkpt>
      <trkpt lat="44.85786" lon="0.61671">
        <ele>114.7</ele>
        <time>2021-05-17T14:54:25.000Z</time>
      </trkpt>
      <trkpt lat="44.85786" lon="0.61672">
        <ele>114.7</ele>
        <time>2021-05-17T14:54:26.000Z</time>
      </trkpt>
      <trkpt lat="44.85786" lon="0.61672">
        <ele>114.7</ele>
        <time>2021-05-17T14:54:27.000Z</time>
      </trkpt>
      <trkpt lat="44.85786" lon="0.61672">
        <ele>114.7</ele>
        <time>2021-05-17T14:54:28.000Z</time>
      </trkpt>
      <trkpt lat="44.85787" lon="0.61672">
        <ele>114.7</ele>
        <time>2021-05-17T14:54:29.000Z</time>
      </trkpt>
      <trkpt lat="44.85787" lon="0.61671">
        <ele>114.7</ele>
        <time>2021-05-17T14:54:30.000Z</time>
      </trkpt>
      <trkpt lat="44.85787" lon="0.6167">
        <ele>114.7</ele>
        <time>2021-05-17T14:54:31.000Z</time>
      </trkpt>
      <trkpt lat="44.85789" lon="0.6167">
        <ele>115.3</ele>
        <time>2021-05-17T14:54:32.000Z</time>
      </trkpt>
      <trkpt lat="44.85788" lon="0.61671">
        <ele>115.3</ele>
        <time>2021-05-17T14:54:33.000Z</time>
      </trkpt>
      <trkpt lat="44.85789" lon="0.61672">
        <ele>115.3</ele>
        <time>2021-05-17T14:54:34.000Z</time>
      </trkpt>
      <trkpt lat="44.85789" lon="0.61673">
        <ele>115.3</ele>
        <time>2021-05-17T14:54:35.000Z</time>
      </trkpt>
      <trkpt lat="44.85789" lon="0.61673">
        <ele>115.3</ele>
        <time>2021-05-17T14:54:36.000Z</time>
      </trkpt>
      <trkpt lat="44.8579" lon="0.61673">
        <ele>115.3</ele>
        <time>2021-05-17T14:54:37.000Z</time>
      </trkpt>
      <trkpt lat="44.85791" lon="0.61673">
        <ele>115.3</ele>
        <time>2021-05-17T14:54:38.000Z</time>
      </trkpt>
      <trkpt lat="44.85791" lon="0.61673">
        <ele>115.8</ele>
        <time>2021-05-17T14:54:39.000Z</time>
      </trkpt>
      <trkpt lat="44.85792" lon="0.61673">
        <ele>115.8</ele>
        <time>2021-05-17T14:54:40.000Z</time>
      </trkpt>
      <trkpt lat="44.85793" lon="0.61674">
        <ele>115.8</ele>
        <time>2021-05-17T14:54:41.000Z</time>
      </trkpt>
      <trkpt lat="44.85793" lon="0.61674">
        <ele>115.8</ele>
        <time>2021-05-17T14:54:42.000Z</time>
      </trkpt>
      <trkpt lat="44.85794" lon="0.61675">
        <ele>116.2</ele>
        <time>2021-05-17T14:54:43.000Z</time>
      </trkpt>
      <trkpt lat="44.85794" lon="0.61674">
        <ele>116.3</ele>
        <time>2021-05-17T14:54:44.000Z</time>
      </trkpt>
      <trkpt lat="44.85796" lon="0.61672">
        <ele>116.3</ele>
        <time>2021-05-17T14:54:45.000Z</time>
      </trkpt>
      <trkpt lat="44.85795" lon="0.61671">
        <ele>116.3</ele>
        <time>2021-05-17T14:54:46.000Z</time>
      </trkpt>
      <trkpt lat="44.85795" lon="0.6167">
        <ele>116.3</ele>
        <time>2021-05-17T14:54:47.000Z</time>
      </trkpt>
      <trkpt lat="44.85795" lon="0.61669">
        <ele>116.3</ele>
        <time>2021-05-17T14:54:48.000Z</time>
      </trkpt>
      <trkpt lat="44.85794" lon="0.61669">
        <ele>116.3</ele>
        <time>2021-05-17T14:54:49.000Z</time>
      </trkpt>
      <trkpt lat="44.85794" lon="0.6167">
        <ele>115.8</ele>
        <time>2021-05-17T14:54:50.000Z</time>
      </trkpt>
      <trkpt lat="44.85793" lon="0.6167">
        <ele>115.8</ele>
        <time>2021-05-17T14:54:51.000Z</time>
      </trkpt>
      <trkpt lat="44.85793" lon="0.6167">
        <ele>115.8</ele>
        <time>2021-05-17T14:54:52.000Z</time>
      </trkpt>
      <trkpt lat="44.85794" lon="0.6167">
        <ele>115.8</ele>
        <time>2021-05-17T14:54:53.000Z</time>
      </trkpt>
      <trkpt lat="44.85794" lon="0.61671">
        <ele>116.3</ele>
        <time>2021-05-17T14:54:54.000Z</time>
      </trkpt>
      <trkpt lat="44.85794" lon="0.61671">
        <ele>116.3</ele>
        <time>2021-05-17T14:54:55.000Z</time>
      </trkpt>
      <trkpt lat="44.85793" lon="0.61671">
        <ele>115.8</ele>
        <time>2021-05-17T14:54:56.000Z</time>
      </trkpt>
      <trkpt lat="44.85793" lon="0.61671">
        <ele>115.8</ele>
        <time>2021-05-17T14:54:57.000Z</time>
      </trkpt>
      <trkpt lat="44.85793" lon="0.61671">
        <ele>115.8</ele>
        <time>2021-05-17T14:54:58.000Z</time>
      </trkpt>
      <trkpt lat="44.85793" lon="0.61671">
        <ele>115.8</ele>
        <time>2021-05-17T14:54:59.000Z</time>
      </trkpt>
      <trkpt lat="44.85792" lon="0.61671">
        <ele>115.8</ele>
        <time>2021-05-17T14:55:00.000Z</time>
      </trkpt>
      <trkpt lat="44.85792" lon="0.61671">
        <ele>115.8</ele>
        <time>2021-05-17T14:55:01.000Z</time>
      </trkpt>
      <trkpt lat="44.85792" lon="0.61672">
        <ele>115.8</ele>
        <time>2021-05-17T14:55:02.000Z</time>
      </trkpt>
      <trkpt lat="44.85792" lon="0.61671">
        <ele>115.8</ele>
        <time>2021-05-17T14:55:03.000Z</time>
      </trkpt>
      <trkpt lat="44.85792" lon="0.6167">
        <ele>115.8</ele>
        <time>2021-05-17T14:55:04.000Z</time>
      </trkpt>
      <trkpt lat="44.85791" lon="0.61671">
        <ele>115.8</ele>
        <time>2021-05-17T14:55:05.000Z</time>
      </trkpt>
      <trkpt lat="44.85791" lon="0.61671">
        <ele>115.8</ele>
        <time>2021-05-17T14:55:06.000Z</time>
      </trkpt>
      <trkpt lat="44.85792" lon="0.6167">
        <ele>115.8</ele>
        <time>2021-05-17T14:55:07.000Z</time>
      </trkpt>
      <trkpt lat="44.85793" lon="0.6167">
        <ele>115.8</ele>
        <time>2021-05-17T14:55:08.000Z</time>
      </trkpt>
      <trkpt lat="44.85794" lon="0.61669">
        <ele>116.3</ele>
        <time>2021-05-17T14:55:09.000Z</time>
      </trkpt>
      <trkpt lat="44.85794" lon="0.6167">
        <ele>116.3</ele>
        <time>2021-05-17T14:55:10.000Z</time>
      </trkpt>
      <trkpt lat="44.85795" lon="0.61669">
        <ele>116.3</ele>
        <time>2021-05-17T14:55:11.000Z</time>
      </trkpt>
      <trkpt lat="44.85796" lon="0.6167">
        <ele>116.3</ele>
        <time>2021-05-17T14:55:12.000Z</time>
      </trkpt>
      <trkpt lat="44.85796" lon="0.61671">
        <ele>116.3</ele>
        <time>2021-05-17T14:55:13.000Z</time>
      </trkpt>
      <trkpt lat="44.85796" lon="0.61671">
        <ele>116.3</ele>
        <time>2021-05-17T14:55:14.000Z</time>
      </trkpt>
      <trkpt lat="44.85795" lon="0.61671">
        <ele>116.3</ele>
        <time>2021-05-17T14:55:15.000Z</time>
      </trkpt>
      <trkpt lat="44.85796" lon="0.61672">
        <ele>116.3</ele>
        <time>2021-05-17T14:55:16.000Z</time>
      </trkpt>
      <trkpt lat="44.85797" lon="0.61671">
        <ele>116.3</ele>
        <time>2021-05-17T14:55:17.000Z</time>
      </trkpt>
      <trkpt lat="44.85797" lon="0.61672">
        <ele>116.8</ele>
        <time>2021-05-17T14:55:18.000Z</time>
      </trkpt>
      <trkpt lat="44.85796" lon="0.61672">
        <ele>116.3</ele>
        <time>2021-05-17T14:55:19.000Z</time>
      </trkpt>
      <trkpt lat="44.85795" lon="0.61673">
        <ele>116.3</ele>
        <time>2021-05-17T14:55:20.000Z</time>
      </trkpt>
      <trkpt lat="44.85793" lon="0.61673">
        <ele>115.8</ele>
        <time>2021-05-17T14:55:21.000Z</time>
      </trkpt>
      <trkpt lat="44.85792" lon="0.61673">
        <ele>115.8</ele>
        <time>2021-05-17T14:55:22.000Z</time>
      </trkpt>
      <trkpt lat="44.85792" lon="0.61673">
        <ele>115.8</ele>
        <time>2021-05-17T14:55:23.000Z</time>
      </trkpt>
      <trkpt lat="44.85792" lon="0.61673">
        <ele>115.8</ele>
        <time>2021-05-17T14:55:24.000Z</time>
      </trkpt>
      <trkpt lat="44.85792" lon="0.61675">
        <ele>115.8</ele>
        <time>2021-05-17T14:55:25.000Z</time>
      </trkpt>
      <trkpt lat="44.85791" lon="0.61675">
        <ele>115.8</ele>
        <time>2021-05-17T14:55:26.000Z</time>
      </trkpt>
      <trkpt lat="44.85791" lon="0.61674">
        <ele>115.8</ele>
        <time>2021-05-17T14:55:27.000Z</time>
      </trkpt>
      <trkpt lat="44.8579" lon="0.61674">
        <ele>115.2</ele>
        <time>2021-05-17T14:55:28.000Z</time>
      </trkpt>
      <trkpt lat="44.8579" lon="0.61674">
        <ele>115.2</ele>
        <time>2021-05-17T14:55:29.000Z</time>
      </trkpt>
      <trkpt lat="44.85789" lon="0.61673">
        <ele>115.3</ele>
        <time>2021-05-17T14:55:30.000Z</time>
      </trkpt>
      <trkpt lat="44.85788" lon="0.61673">
        <ele>115.3</ele>
        <time>2021-05-17T14:55:31.000Z</time>
      </trkpt>
      <trkpt lat="44.85788" lon="0.61673">
        <ele>115.3</ele>
        <time>2021-05-17T14:55:32.000Z</time>
      </trkpt>
      <trkpt lat="44.85787" lon="0.61672">
        <ele>114.7</ele>
        <time>2021-05-17T14:55:33.000Z</time>
      </trkpt>
      <trkpt lat="44.85787" lon="0.61672">
        <ele>114.7</ele>
        <time>2021-05-17T14:55:34.000Z</time>
      </trkpt>
      <trkpt lat="44.85787" lon="0.61673">
        <ele>114.7</ele>
        <time>2021-05-17T14:55:35.000Z</time>
      </trkpt>
      <trkpt lat="44.85787" lon="0.61673">
        <ele>114.7</ele>
        <time>2021-05-17T14:55:36.000Z</time>
      </trkpt>
      <trkpt lat="44.85787" lon="0.61672">
        <ele>114.7</ele>
        <time>2021-05-17T14:55:37.000Z</time>
      </trkpt>
      <trkpt lat="44.85787" lon="0.61672">
        <ele>114.7</ele>
        <time>2021-05-17T14:55:38.000Z</time>
      </trkpt>
      <trkpt lat="44.85787" lon="0.61672">
        <ele>114.7</ele>
        <time>2021-05-17T14:55:39.000Z</time>
      </trkpt>
      <trkpt lat="44.85787" lon="0.61672">
        <ele>114.7</ele>
        <time>2021-05-17T14:55:40.000Z</time>
      </trkpt>
      <trkpt lat="44.85787" lon="0.61672">
        <ele>114.7</ele>
        <time>2021-05-17T14:55:41.000Z</time>
      </trkpt>
      <trkpt lat="44.85787" lon="0.61672">
        <ele>114.7</ele>
        <time>2021-05-17T14:55:42.000Z</time>
      </trkpt>
      <trkpt lat="44.85785" lon="0.61672">
        <ele>114.7</ele>
        <time>2021-05-17T14:55:43.000Z</time>
      </trkpt>
      <trkpt lat="44.85785" lon="0.61672">
        <ele>114.7</ele>
        <time>2021-05-17T14:55:44.000Z</time>
      </trkpt>
      <trkpt lat="44.85785" lon="0.61672">
        <ele>114.7</ele>
        <time>2021-05-17T14:55:45.000Z</time>
      </trkpt>
      <trkpt lat="44.85785" lon="0.61672">
        <ele>114.7</ele>
        <time>2021-05-17T14:55:46.000Z</time>
      </trkpt>
      <trkpt lat="44.85785" lon="0.61672">
        <ele>114.7</ele>
        <time>2021-05-17T14:55:47.000Z</time>
      </trkpt>
      <trkpt lat="44.85785" lon="0.61673">
        <ele>114.7</ele>
        <time>2021-05-17T14:55:48.000Z</time>
      </trkpt>
      <trkpt lat="44.85786" lon="0.61674">
        <ele>114.7</ele>
        <time>2021-05-17T14:55:49.000Z</time>
      </trkpt>
      <trkpt lat="44.85786" lon="0.61675">
        <ele>114.7</ele>
        <time>2021-05-17T14:55:50.000Z</time>
      </trkpt>
      <trkpt lat="44.85786" lon="0.61675">
        <ele>114.7</ele>
        <time>2021-05-17T14:55:51.000Z</time>
      </trkpt>
      <trkpt lat="44.85787" lon="0.61674">
        <ele>114.7</ele>
        <time>2021-05-17T14:55:52.000Z</time>
      </trkpt>
      <trkpt lat="44.85787" lon="0.61673">
        <ele>114.7</ele>
        <time>2021-05-17T14:55:53.000Z</time>
      </trkpt>
      <trkpt lat="44.85786" lon="0.61674">
        <ele>114.7</ele>
        <time>2021-05-17T14:55:54.000Z</time>
      </trkpt>
      <trkpt lat="44.85786" lon="0.61675">
        <ele>114.7</ele>
        <time>2021-05-17T14:55:55.000Z</time>
      </trkpt>
      <trkpt lat="44.85786" lon="0.61674">
        <ele>114.7</ele>
        <time>2021-05-17T14:55:56.000Z</time>
      </trkpt>
      <trkpt lat="44.85787" lon="0.61674">
        <ele>114.7</ele>
        <time>2021-05-17T14:55:57.000Z</time>
      </trkpt>
      <trkpt lat="44.85787" lon="0.61673">
        <ele>114.7</ele>
        <time>2021-05-17T14:55:58.000Z</time>
      </trkpt>
      <trkpt lat="44.85788" lon="0.61673">
        <ele>115.3</ele>
        <time>2021-05-17T14:55:59.000Z</time>
      </trkpt>
      <trkpt lat="44.85787" lon="0.61672">
        <ele>114.7</ele>
        <time>2021-05-17T14:56:00.000Z</time>
      </trkpt>
      <trkpt lat="44.85787" lon="0.61672">
        <ele>114.7</ele>
        <time>2021-05-17T14:56:01.000Z</time>
      </trkpt>
      <trkpt lat="44.85788" lon="0.61672">
        <ele>115.3</ele>
        <time>2021-05-17T14:56:02.000Z</time>
      </trkpt>
      <trkpt lat="44.85788" lon="0.61672">
        <ele>115.3</ele>
        <time>2021-05-17T14:56:03.000Z</time>
      </trkpt>
      <trkpt lat="44.85788" lon="0.61672">
        <ele>115.3</ele>
        <time>2021-05-17T14:56:04.000Z</time>
      </trkpt>
      <trkpt lat="44.85788" lon="0.61672">
        <ele>115.3</ele>
        <time>2021-05-17T14:56:05.000Z</time>
      </trkpt>
      <trkpt lat="44.85787" lon="0.61672">
        <ele>114.7</ele>
        <time>2021-05-17T14:56:06.000Z</time>
      </trkpt>
      <trkpt lat="44.85786" lon="0.61672">
        <ele>114.7</ele>
        <time>2021-05-17T14:56:07.000Z</time>
      </trkpt>
      <trkpt lat="44.85786" lon="0.61673">
        <ele>114.7</ele>
        <time>2021-05-17T14:56:08.000Z</time>
      </trkpt>
      <trkpt lat="44.85787" lon="0.61673">
        <ele>114.7</ele>
        <time>2021-05-17T14:56:09.000Z</time>
      </trkpt>
      <trkpt lat="44.85788" lon="0.61674">
        <ele>114.7</ele>
        <time>2021-05-17T14:56:10.000Z</time>
      </trkpt>
      <trkpt lat="44.85788" lon="0.61674">
        <ele>115.2</ele>
        <time>2021-05-17T14:56:11.000Z</time>
      </trkpt>
      <trkpt lat="44.85788" lon="0.61674">
        <ele>115.2</ele>
        <time>2021-05-17T14:56:12.000Z</time>
      </trkpt>
      <trkpt lat="44.8579" lon="0.61675">
        <ele>115.2</ele>
        <time>2021-05-17T14:56:13.000Z</time>
      </trkpt>
      <trkpt lat="44.8579" lon="0.61675">
        <ele>115.2</ele>
        <time>2021-05-17T14:56:14.000Z</time>
      </trkpt>
      <trkpt lat="44.85789" lon="0.61675">
        <ele>115.2</ele>
        <time>2021-05-17T14:56:15.000Z</time>
      </trkpt>
      <trkpt lat="44.85788" lon="0.61675">
        <ele>115.2</ele>
        <time>2021-05-17T14:56:16.000Z</time>
      </trkpt>
      <trkpt lat="44.85789" lon="0.61675">
        <ele>115.2</ele>
        <time>2021-05-17T14:56:17.000Z</time>
      </trkpt>
      <trkpt lat="44.8579" lon="0.61675">
        <ele>115.2</ele>
        <time>2021-05-17T14:56:18.000Z</time>
      </trkpt>
      <trkpt lat="44.85791" lon="0.61675">
        <ele>115.8</ele>
        <time>2021-05-17T14:56:19.000Z</time>
      </trkpt>
      <trkpt lat="44.85792" lon="0.61675">
        <ele>115.8</ele>
        <time>2021-05-17T14:56:20.000Z</time>
      </trkpt>
      <trkpt lat="44.85792" lon="0.61675">
        <ele>115.8</ele>
        <time>2021-05-17T14:56:21.000Z</time>
      </trkpt>
      <trkpt lat="44.85793" lon="0.61675">
        <ele>115.8</ele>
        <time>2021-05-17T14:56:22.000Z</time>
      </trkpt>
      <trkpt lat="44.85794" lon="0.61674">
        <ele>115.8</ele>
        <time>2021-05-17T14:56:23.000Z</time>
      </trkpt>
      <trkpt lat="44.85795" lon="0.61673">
        <ele>116.3</ele>
        <time>2021-05-17T14:56:24.000Z</time>
      </trkpt>
      <trkpt lat="44.85795" lon="0.61673">
        <ele>116.3</ele>
        <time>2021-05-17T14:56:25.000Z</time>
      </trkpt>
      <trkpt lat="44.85795" lon="0.61673">
        <ele>116.3</ele>
        <time>2021-05-17T14:56:26.000Z</time>
      </trkpt>
      <trkpt lat="44.85796" lon="0.61672">
        <ele>116.3</ele>
        <time>2021-05-17T14:56:27.000Z</time>
      </trkpt>
      <trkpt lat="44.85797" lon="0.61673">
        <ele>116.8</ele>
        <time>2021-05-17T14:56:28.000Z</time>
      </trkpt>
      <trkpt lat="44.85797" lon="0.61672">
        <ele>116.8</ele>
        <time>2021-05-17T14:56:29.000Z</time>
      </trkpt>
      <trkpt lat="44.85797" lon="0.61672">
        <ele>116.8</ele>
        <time>2021-05-17T14:56:30.000Z</time>
      </trkpt>
      <trkpt lat="44.85797" lon="0.61673">
        <ele>116.8</ele>
        <time>2021-05-17T14:56:31.000Z</time>
      </trkpt>
      <trkpt lat="44.85797" lon="0.61673">
        <ele>116.8</ele>
        <time>2021-05-17T14:56:32.000Z</time>
      </trkpt>
      <trkpt lat="44.85798" lon="0.61673">
        <ele>116.8</ele>
        <time>2021-05-17T14:56:33.000Z</time>
      </trkpt>
      <trkpt lat="44.85799" lon="0.61673">
        <ele>116.8</ele>
        <time>2021-05-17T14:56:34.000Z</time>
      </trkpt>
      <trkpt lat="44.85799" lon="0.61674">
        <ele>116.7</ele>
        <time>2021-05-17T14:56:35.000Z</time>
      </trkpt>
      <trkpt lat="44.858" lon="0.61674">
        <ele>116.8</ele>
        <time>2021-05-17T14:56:36.000Z</time>
      </trkpt>
      <trkpt lat="44.858" lon="0.61673">
        <ele>116.8</ele>
        <time>2021-05-17T14:56:37.000Z</time>
      </trkpt>
      <trkpt lat="44.858" lon="0.61673">
        <ele>117.2</ele>
        <time>2021-05-17T14:56:38.000Z</time>
      </trkpt>
      <trkpt lat="44.858" lon="0.61673">
        <ele>117.2</ele>
        <time>2021-05-17T14:56:39.000Z</time>
      </trkpt>
      <trkpt lat="44.85801" lon="0.61673">
        <ele>117.2</ele>
        <time>2021-05-17T14:56:40.000Z</time>
      </trkpt>
      <trkpt lat="44.858" lon="0.61673">
        <ele>117.2</ele>
        <time>2021-05-17T14:56:41.000Z</time>
      </trkpt>
      <trkpt lat="44.858" lon="0.61672">
        <ele>117.2</ele>
        <time>2021-05-17T14:56:42.000Z</time>
      </trkpt>
      <trkpt lat="44.85799" lon="0.61671">
        <ele>116.8</ele>
        <time>2021-05-17T14:56:43.000Z</time>
      </trkpt>
      <trkpt lat="44.85799" lon="0.61671">
        <ele>116.8</ele>
        <time>2021-05-17T14:56:44.000Z</time>
      </trkpt>
      <trkpt lat="44.858" lon="0.6167">
        <ele>117.2</ele>
        <time>2021-05-17T14:56:45.000Z</time>
      </trkpt>
      <trkpt lat="44.85801" lon="0.6167">
        <ele>117.2</ele>
        <time>2021-05-17T14:56:46.000Z</time>
      </trkpt>
      <trkpt lat="44.858" lon="0.6167">
        <ele>117.2</ele>
        <time>2021-05-17T14:56:47.000Z</time>
      </trkpt>
      <trkpt lat="44.858" lon="0.6167">
        <ele>116.8</ele>
        <time>2021-05-17T14:56:48.000Z</time>
      </trkpt>
      <trkpt lat="44.85799" lon="0.61669">
        <ele>116.8</ele>
        <time>2021-05-17T14:56:49.000Z</time>
      </trkpt>
      <trkpt lat="44.85797" lon="0.6167">
        <ele>116.8</ele>
        <time>2021-05-17T14:56:50.000Z</time>
      </trkpt>
      <trkpt lat="44.85797" lon="0.6167">
        <ele>116.8</ele>
        <time>2021-05-17T14:56:51.000Z</time>
      </trkpt>
      <trkpt lat="44.85797" lon="0.61671">
        <ele>116.8</ele>
        <time>2021-05-17T14:56:52.000Z</time>
      </trkpt>
      <trkpt lat="44.85797" lon="0.61671">
        <ele>116.3</ele>
        <time>2021-05-17T14:56:53.000Z</time>
      </trkpt>
      <trkpt lat="44.85797" lon="0.61671">
        <ele>116.3</ele>
        <time>2021-05-17T14:56:54.000Z</time>
      </trkpt>
      <trkpt lat="44.85797" lon="0.61672">
        <ele>116.8</ele>
        <time>2021-05-17T14:56:55.000Z</time>
      </trkpt>
      <trkpt lat="44.85797" lon="0.61672">
        <ele>116.8</ele>
        <time>2021-05-17T14:56:56.000Z</time>
      </trkpt>
      <trkpt lat="44.85797" lon="0.61672">
        <ele>116.8</ele>
        <time>2021-05-17T14:56:57.000Z</time>
      </trkpt>
      <trkpt lat="44.85797" lon="0.61672">
        <ele>116.3</ele>
        <time>2021-05-17T14:56:58.000Z</time>
      </trkpt>
      <trkpt lat="44.85797" lon="0.61672">
        <ele>116.8</ele>
        <time>2021-05-17T14:56:59.000Z</time>
      </trkpt>
      <trkpt lat="44.85796" lon="0.61674">
        <ele>116.2</ele>
        <time>2021-05-17T14:57:00.000Z</time>
      </trkpt>
      <trkpt lat="44.85795" lon="0.61672">
        <ele>116.3</ele>
        <time>2021-05-17T14:57:01.000Z</time>
      </trkpt>
      <trkpt lat="44.85795" lon="0.61673">
        <ele>116.3</ele>
        <time>2021-05-17T14:57:02.000Z</time>
      </trkpt>
      <trkpt lat="44.85794" lon="0.61673">
        <ele>115.8</ele>
        <time>2021-05-17T14:57:03.000Z</time>
      </trkpt>
      <trkpt lat="44.85794" lon="0.61673">
        <ele>116.3</ele>
        <time>2021-05-17T14:57:04.000Z</time>
      </trkpt>
      <trkpt lat="44.85794" lon="0.61674">
        <ele>116.2</ele>
        <time>2021-05-17T14:57:05.000Z</time>
      </trkpt>
      <trkpt lat="44.85794" lon="0.61674">
        <ele>115.8</ele>
        <time>2021-05-17T14:57:06.000Z</time>
      </trkpt>
      <trkpt lat="44.85794" lon="0.61675">
        <ele>116.2</ele>
        <time>2021-05-17T14:57:07.000Z</time>
      </trkpt>
      <trkpt lat="44.85793" lon="0.61674">
        <ele>115.8</ele>
        <time>2021-05-17T14:57:08.000Z</time>
      </trkpt>
      <trkpt lat="44.85792" lon="0.61674">
        <ele>115.8</ele>
        <time>2021-05-17T14:57:09.000Z</time>
      </trkpt>
      <trkpt lat="44.85793" lon="0.61675">
        <ele>115.8</ele>
        <time>2021-05-17T14:57:10.000Z</time>
      </trkpt>
      <trkpt lat="44.85793" lon="0.61675">
        <ele>115.8</ele>
        <time>2021-05-17T14:57:11.000Z</time>
      </trkpt>
      <trkpt lat="44.85794" lon="0.61674">
        <ele>116.2</ele>
        <time>2021-05-17T14:57:12.000Z</time>
      </trkpt>
      <trkpt lat="44.85795" lon="0.61674">
        <ele>116.2</ele>
        <time>2021-05-17T14:57:13.000Z</time>
      </trkpt>
      <trkpt lat="44.85796" lon="0.61675">
        <ele>116.2</ele>
        <time>2021-05-17T14:57:14.000Z</time>
      </trkpt>
      <trkpt lat="44.85796" lon="0.61673">
        <ele>116.3</ele>
        <time>2021-05-17T14:57:15.000Z</time>
      </trkpt>
      <trkpt lat="44.85796" lon="0.61674">
        <ele>116.2</ele>
        <time>2021-05-17T14:57:16.000Z</time>
      </trkpt>
      <trkpt lat="44.85795" lon="0.61674">
        <ele>116.2</ele>
        <time>2021-05-17T14:57:17.000Z</time>
      </trkpt>
      <trkpt lat="44.85795" lon="0.61674">
        <ele>116.2</ele>
        <time>2021-05-17T14:57:18.000Z</time>
      </trkpt>
      <trkpt lat="44.85794" lon="0.61674">
        <ele>116.3</ele>
        <time>2021-05-17T14:57:19.000Z</time>
      </trkpt>
      <trkpt lat="44.85794" lon="0.61673">
        <ele>116.3</ele>
        <time>2021-05-17T14:57:20.000Z</time>
      </trkpt>
      <trkpt lat="44.85794" lon="0.61674">
        <ele>115.8</ele>
        <time>2021-05-17T14:57:21.000Z</time>
      </trkpt>
      <trkpt lat="44.85794" lon="0.61674">
        <ele>115.8</ele>
        <time>2021-05-17T14:57:22.000Z</time>
      </trkpt>
      <trkpt lat="44.85793" lon="0.61675">
        <ele>115.8</ele>
        <time>2021-05-17T14:57:23.000Z</time>
      </trkpt>
      <trkpt lat="44.85793" lon="0.61675">
        <ele>115.8</ele>
        <time>2021-05-17T14:57:24.000Z</time>
      </trkpt>
      <trkpt lat="44.85793" lon="0.61673">
        <ele>115.8</ele>
        <time>2021-05-17T14:57:25.000Z</time>
      </trkpt>
      <trkpt lat="44.85793" lon="0.61672">
        <ele>115.8</ele>
        <time>2021-05-17T14:57:26.000Z</time>
      </trkpt>
      <trkpt lat="44.85794" lon="0.61673">
        <ele>116.3</ele>
        <time>2021-05-17T14:57:27.000Z</time>
      </trkpt>
      <trkpt lat="44.85795" lon="0.61673">
        <ele>116.3</ele>
        <time>2021-05-17T14:57:28.000Z</time>
      </trkpt>
      <trkpt lat="44.85795" lon="0.61673">
        <ele>116.3</ele>
        <time>2021-05-17T14:57:29.000Z</time>
      </trkpt>
      <trkpt lat="44.85795" lon="0.61675">
        <ele>116.2</ele>
        <time>2021-05-17T14:57:30.000Z</time>
      </trkpt>
      <trkpt lat="44.85795" lon="0.61675">
        <ele>116.2</ele>
        <time>2021-05-17T14:57:31.000Z</time>
      </trkpt>
      <trkpt lat="44.85795" lon="0.61674">
        <ele>116.2</ele>
        <time>2021-05-17T14:57:33.000Z</time>
      </trkpt>
      <trkpt lat="44.85795" lon="0.61672">
        <ele>116.3</ele>
        <time>2021-05-17T14:57:34.000Z</time>
      </trkpt>
      <trkpt lat="44.85796" lon="0.61672">
        <ele>116.3</ele>
        <time>2021-05-17T14:57:35.000Z</time>
      </trkpt>
      <trkpt lat="44.85797" lon="0.61672">
        <ele>116.8</ele>
        <time>2021-05-17T14:57:36.000Z</time>
      </trkpt>
      <trkpt lat="44.85798" lon="0.61671">
        <ele>116.8</ele>
        <time>2021-05-17T14:57:37.000Z</time>
      </trkpt>
      <trkpt lat="44.85797" lon="0.61671">
        <ele>116.8</ele>
        <time>2021-05-17T14:57:38.000Z</time>
      </trkpt>
      <trkpt lat="44.85798" lon="0.61671">
        <ele>116.8</ele>
        <time>2021-05-17T14:57:39.000Z</time>
      </trkpt>
      <trkpt lat="44.85798" lon="0.61674">
        <ele>116.7</ele>
        <time>2021-05-17T14:57:40.000Z</time>
      </trkpt>
      <trkpt lat="44.85798" lon="0.61675">
        <ele>116.7</ele>
        <time>2021-05-17T14:57:41.000Z</time>
      </trkpt>
      <trkpt lat="44.85798" lon="0.61676">
        <ele>116.7</ele>
        <time>2021-05-17T14:57:42.000Z</time>
      </trkpt>
      <trkpt lat="44.85799" lon="0.61676">
        <ele>116.7</ele>
        <time>2021-05-17T14:57:43.000Z</time>
      </trkpt>
      <trkpt lat="44.858" lon="0.61677">
        <ele>116.7</ele>
        <time>2021-05-17T14:57:44.000Z</time>
      </trkpt>
      <trkpt lat="44.858" lon="0.61677">
        <ele>116.7</ele>
        <time>2021-05-17T14:57:45.000Z</time>
      </trkpt>
      <trkpt lat="44.858" lon="0.61678">
        <ele>117.2</ele>
        <time>2021-05-17T14:57:46.000Z</time>
      </trkpt>
      <trkpt lat="44.858" lon="0.61678">
        <ele>117.2</ele>
        <time>2021-05-17T14:57:47.000Z</time>
      </trkpt>
      <trkpt lat="44.85799" lon="0.61678">
        <ele>116.7</ele>
        <time>2021-05-17T14:57:48.000Z</time>
      </trkpt>
      <trkpt lat="44.85797" lon="0.61678">
        <ele>116.7</ele>
        <time>2021-05-17T14:57:49.000Z</time>
      </trkpt>
      <trkpt lat="44.85796" lon="0.61678">
        <ele>116.2</ele>
        <time>2021-05-17T14:57:50.000Z</time>
      </trkpt>
      <trkpt lat="44.85795" lon="0.61678">
        <ele>116.2</ele>
        <time>2021-05-17T14:57:51.000Z</time>
      </trkpt>
      <trkpt lat="44.85794" lon="0.61676">
        <ele>116.2</ele>
        <time>2021-05-17T14:57:52.000Z</time>
      </trkpt>
      <trkpt lat="44.85795" lon="0.61676">
        <ele>116.2</ele>
        <time>2021-05-17T14:57:53.000Z</time>
      </trkpt>
      <trkpt lat="44.85795" lon="0.61675">
        <ele>116.2</ele>
        <time>2021-05-17T14:57:54.000Z</time>
      </trkpt>
      <trkpt lat="44.85796" lon="0.61675">
        <ele>116.2</ele>
        <time>2021-05-17T14:57:55.000Z</time>
      </trkpt>
      <trkpt lat="44.85797" lon="0.61674">
        <ele>116.2</ele>
        <time>2021-05-17T14:57:56.000Z</time>
      </trkpt>
      <trkpt lat="44.85797" lon="0.61674">
        <ele>116.7</ele>
        <time>2021-05-17T14:57:57.000Z</time>
      </trkpt>
      <trkpt lat="44.85798" lon="0.61674">
        <ele>116.8</ele>
        <time>2021-05-17T14:57:58.000Z</time>
      </trkpt>
      <trkpt lat="44.85795" lon="0.61672">
        <ele>116.3</ele>
        <time>2021-05-17T14:57:59.000Z</time>
      </trkpt>
      <trkpt lat="44.85793" lon="0.61672">
        <ele>115.8</ele>
        <time>2021-05-17T14:58:00.000Z</time>
      </trkpt>
      <trkpt lat="44.85793" lon="0.61673">
        <ele>115.8</ele>
        <time>2021-05-17T14:58:01.000Z</time>
      </trkpt>
      <trkpt lat="44.85792" lon="0.61674">
        <ele>115.8</ele>
        <time>2021-05-17T14:58:02.000Z</time>
      </trkpt>
      <trkpt lat="44.85791" lon="0.61676">
        <ele>115.2</ele>
        <time>2021-05-17T14:58:03.000Z</time>
      </trkpt>
      <trkpt lat="44.8579" lon="0.61676">
        <ele>115.2</ele>
        <time>2021-05-17T14:58:04.000Z</time>
      </trkpt>
      <trkpt lat="44.85791" lon="0.61675">
        <ele>115.8</ele>
        <time>2021-05-17T14:58:05.000Z</time>
      </trkpt>
      <trkpt lat="44.85793" lon="0.61674">
        <ele>115.8</ele>
        <time>2021-05-17T14:58:06.000Z</time>
      </trkpt>
      <trkpt lat="44.85795" lon="0.61674">
        <ele>116.2</ele>
        <time>2021-05-17T14:58:07.000Z</time>
      </trkpt>
      <trkpt lat="44.85795" lon="0.61673">
        <ele>116.3</ele>
        <time>2021-05-17T14:58:08.000Z</time>
      </trkpt>
      <trkpt lat="44.85794" lon="0.61672">
        <ele>116.3</ele>
        <time>2021-05-17T14:58:09.000Z</time>
      </trkpt>
      <trkpt lat="44.85795" lon="0.61671">
        <ele>116.3</ele>
        <time>2021-05-17T14:58:10.000Z</time>
      </trkpt>
      <trkpt lat="44.85796" lon="0.6167">
        <ele>116.3</ele>
        <time>2021-05-17T14:58:11.000Z</time>
      </trkpt>
      <trkpt lat="44.85795" lon="0.6167">
        <ele>116.3</ele>
        <time>2021-05-17T14:58:12.000Z</time>
      </trkpt>
      <trkpt lat="44.85794" lon="0.6167">
        <ele>116.3</ele>
        <time>2021-05-17T14:58:13.000Z</time>
      </trkpt>
      <trkpt lat="44.85793" lon="0.6167">
        <ele>115.8</ele>
        <time>2021-05-17T14:58:14.000Z</time>
      </trkpt>
      <trkpt lat="44.85793" lon="0.6167">
        <ele>115.8</ele>
        <time>2021-05-17T14:58:15.000Z</time>
      </trkpt>
      <trkpt lat="44.85792" lon="0.61671">
        <ele>115.8</ele>
        <time>2021-05-17T14:58:16.000Z</time>
      </trkpt>
      <trkpt lat="44.85791" lon="0.6167">
        <ele>115.8</ele>
        <time>2021-05-17T14:58:17.000Z</time>
      </trkpt>
      <trkpt lat="44.85791" lon="0.61669">
        <ele>115.3</ele>
        <time>2021-05-17T14:58:18.000Z</time>
      </trkpt>
      <trkpt lat="44.8579" lon="0.61668">
        <ele>115.3</ele>
        <time>2021-05-17T14:58:19.000Z</time>
      </trkpt>
      <trkpt lat="44.85789" lon="0.61667">
        <ele>115.3</ele>
        <time>2021-05-17T14:58:20.000Z</time>
      </trkpt>
      <trkpt lat="44.85788" lon="0.61667">
        <ele>115.3</ele>
        <time>2021-05-17T14:58:21.000Z</time>
      </trkpt>
      <trkpt lat="44.85789" lon="0.61665">
        <ele>115.3</ele>
        <time>2021-05-17T14:58:22.000Z</time>
      </trkpt>
      <trkpt lat="44.8579" lon="0.61663">
        <ele>115.3</ele>
        <time>2021-05-17T14:58:23.000Z</time>
      </trkpt>
      <trkpt lat="44.8579" lon="0.61663">
        <ele>115.3</ele>
        <time>2021-05-17T14:58:24.000Z</time>
      </trkpt>
      <trkpt lat="44.8579" lon="0.61664">
        <ele>115.3</ele>
        <time>2021-05-17T14:58:25.000Z</time>
      </trkpt>
      <trkpt lat="44.85789" lon="0.61665">
        <ele>115.3</ele>
        <time>2021-05-17T14:58:26.000Z</time>
      </trkpt>
      <trkpt lat="44.85788" lon="0.61665">
        <ele>115.3</ele>
        <time>2021-05-17T14:58:27.000Z</time>
      </trkpt>
      <trkpt lat="44.85788" lon="0.61666">
        <ele>115.3</ele>
        <time>2021-05-17T14:58:28.000Z</time>
      </trkpt>
      <trkpt lat="44.85787" lon="0.61666">
        <ele>114.7</ele>
        <time>2021-05-17T14:58:29.000Z</time>
      </trkpt>
      <trkpt lat="44.85784" lon="0.61667">
        <ele>114.1</ele>
        <time>2021-05-17T14:58:30.000Z</time>
      </trkpt>
      <trkpt lat="44.85782" lon="0.61666">
        <ele>114.1</ele>
        <time>2021-05-17T14:58:31.000Z</time>
      </trkpt>
      <trkpt lat="44.85783" lon="0.61665">
        <ele>114.1</ele>
        <time>2021-05-17T14:58:32.000Z</time>
      </trkpt>
      <trkpt lat="44.85783" lon="0.61666">
        <ele>114.1</ele>
        <time>2021-05-17T14:58:33.000Z</time>
      </trkpt>
      <trkpt lat="44.85784" lon="0.61666">
        <ele>114.1</ele>
        <time>2021-05-17T14:58:34.000Z</time>
      </trkpt>
      <trkpt lat="44.85786" lon="0.61666">
        <ele>114.7</ele>
        <time>2021-05-17T14:58:35.000Z</time>
      </trkpt>
      <trkpt lat="44.85785" lon="0.61666">
        <ele>114.7</ele>
        <time>2021-05-17T14:58:36.000Z</time>
      </trkpt>
      <trkpt lat="44.85784" lon="0.61666">
        <ele>114.1</ele>
        <time>2021-05-17T14:58:37.000Z</time>
      </trkpt>
      <trkpt lat="44.85783" lon="0.61665">
        <ele>114.1</ele>
        <time>2021-05-17T14:58:38.000Z</time>
      </trkpt>
      <trkpt lat="44.85785" lon="0.61668">
        <ele>114.1</ele>
        <time>2021-05-17T14:58:39.000Z</time>
      </trkpt>
      <trkpt lat="44.85785" lon="0.6167">
        <ele>114.7</ele>
        <time>2021-05-17T14:58:40.000Z</time>
      </trkpt>
      <trkpt lat="44.85786" lon="0.61672">
        <ele>114.7</ele>
        <time>2021-05-17T14:58:41.000Z</time>
      </trkpt>
      <trkpt lat="44.85789" lon="0.61672">
        <ele>115.3</ele>
        <time>2021-05-17T14:58:42.000Z</time>
      </trkpt>
      <trkpt lat="44.85789" lon="0.61674">
        <ele>115.2</ele>
        <time>2021-05-17T14:58:43.000Z</time>
      </trkpt>
      <trkpt lat="44.8579" lon="0.61676">
        <ele>115.2</ele>
        <time>2021-05-17T14:58:44.000Z</time>
      </trkpt>
      <trkpt lat="44.8579" lon="0.61677">
        <ele>115.2</ele>
        <time>2021-05-17T14:58:45.000Z</time>
      </trkpt>
      <trkpt lat="44.85794" lon="0.61679">
        <ele>115.7</ele>
        <time>2021-05-17T14:58:46.000Z</time>
      </trkpt>
      <trkpt lat="44.85797" lon="0.6168">
        <ele>116.2</ele>
        <time>2021-05-17T14:58:47.000Z</time>
      </trkpt>
      <trkpt lat="44.85798" lon="0.61679">
        <ele>116.7</ele>
        <time>2021-05-17T14:58:48.000Z</time>
      </trkpt>
      <trkpt lat="44.85797" lon="0.61678">
        <ele>116.7</ele>
        <time>2021-05-17T14:58:49.000Z</time>
      </trkpt>
      <trkpt lat="44.85796" lon="0.61676">
        <ele>116.2</ele>
        <time>2021-05-17T14:58:50.000Z</time>
      </trkpt>
      <trkpt lat="44.85795" lon="0.61674">
        <ele>116.2</ele>
        <time>2021-05-17T14:58:51.000Z</time>
      </trkpt>
      <trkpt lat="44.85794" lon="0.61673">
        <ele>116.3</ele>
        <time>2021-05-17T14:58:52.000Z</time>
      </trkpt>
      <trkpt lat="44.85794" lon="0.61673">
        <ele>116.3</ele>
        <time>2021-05-17T14:58:53.000Z</time>
      </trkpt>
      <trkpt lat="44.85794" lon="0.61673">
        <ele>115.8</ele>
        <time>2021-05-17T14:58:54.000Z</time>
      </trkpt>
      <trkpt lat="44.85793" lon="0.61673">
        <ele>115.8</ele>
        <time>2021-05-17T14:58:55.000Z</time>
      </trkpt>
      <trkpt lat="44.85793" lon="0.61673">
        <ele>115.8</ele>
        <time>2021-05-17T14:58:56.000Z</time>
      </trkpt>
      <trkpt lat="44.85792" lon="0.61673">
        <ele>115.8</ele>
        <time>2021-05-17T14:58:57.000Z</time>
      </trkpt>
      <trkpt lat="44.85792" lon="0.61673">
        <ele>115.8</ele>
        <time>2021-05-17T14:58:58.000Z</time>
      </trkpt>
      <trkpt lat="44.85792" lon="0.61673">
        <ele>115.8</ele>
        <time>2021-05-17T14:58:59.000Z</time>
      </trkpt>
      <trkpt lat="44.85791" lon="0.61673">
        <ele>115.8</ele>
        <time>2021-05-17T14:59:00.000Z</time>
      </trkpt>
      <trkpt lat="44.8579" lon="0.61673">
        <ele>115.3</ele>
        <time>2021-05-17T14:59:01.000Z</time>
      </trkpt>
      <trkpt lat="44.85788" lon="0.61675">
        <ele>115.2</ele>
        <time>2021-05-17T14:59:02.000Z</time>
      </trkpt>
      <trkpt lat="44.85788" lon="0.61675">
        <ele>115.2</ele>
        <time>2021-05-17T14:59:03.000Z</time>
      </trkpt>
      <trkpt lat="44.85788" lon="0.61674">
        <ele>115.2</ele>
        <time>2021-05-17T14:59:04.000Z</time>
      </trkpt>
      <trkpt lat="44.85789" lon="0.61671">
        <ele>115.3</ele>
        <time>2021-05-17T14:59:05.000Z</time>
      </trkpt>
      <trkpt lat="44.8579" lon="0.61672">
        <ele>115.3</ele>
        <time>2021-05-17T14:59:06.000Z</time>
      </trkpt>
      <trkpt lat="44.85791" lon="0.61673">
        <ele>115.8</ele>
        <time>2021-05-17T14:59:07.000Z</time>
      </trkpt>
      <trkpt lat="44.85792" lon="0.61674">
        <ele>115.8</ele>
        <time>2021-05-17T14:59:08.000Z</time>
      </trkpt>
      <trkpt lat="44.85793" lon="0.61674">
        <ele>115.8</ele>
        <time>2021-05-17T14:59:09.000Z</time>
      </trkpt>
      <trkpt lat="44.85791" lon="0.61675">
        <ele>115.8</ele>
        <time>2021-05-17T14:59:10.000Z</time>
      </trkpt>
      <trkpt lat="44.85791" lon="0.61675">
        <ele>115.8</ele>
        <time>2021-05-17T14:59:11.000Z</time>
      </trkpt>
      <trkpt lat="44.85792" lon="0.61676">
        <ele>115.8</ele>
        <time>2021-05-17T14:59:12.000Z</time>
      </trkpt>
      <trkpt lat="44.85793" lon="0.61674">
        <ele>115.8</ele>
        <time>2021-05-17T14:59:13.000Z</time>
      </trkpt>
      <trkpt lat="44.85793" lon="0.61675">
        <ele>115.8</ele>
        <time>2021-05-17T14:59:14.000Z</time>
      </trkpt>
      <trkpt lat="44.85793" lon="0.61677">
        <ele>115.8</ele>
        <time>2021-05-17T14:59:15.000Z</time>
      </trkpt>
      <trkpt lat="44.85794" lon="0.61676">
        <ele>115.8</ele>
        <time>2021-05-17T14:59:16.000Z</time>
      </trkpt>
      <trkpt lat="44.85794" lon="0.61676">
        <ele>116.2</ele>
        <time>2021-05-17T14:59:17.000Z</time>
      </trkpt>
      <trkpt lat="44.85792" lon="0.61677">
        <ele>115.8</ele>
        <time>2021-05-17T14:59:18.000Z</time>
      </trkpt>
      <trkpt lat="44.85789" lon="0.61678">
        <ele>115.2</ele>
        <time>2021-05-17T14:59:19.000Z</time>
      </trkpt>
      <trkpt lat="44.85787" lon="0.61679">
        <ele>114.7</ele>
        <time>2021-05-17T14:59:20.000Z</time>
      </trkpt>
      <trkpt lat="44.85786" lon="0.61678">
        <ele>114.7</ele>
        <time>2021-05-17T14:59:21.000Z</time>
      </trkpt>
      <trkpt lat="44.85786" lon="0.61677">
        <ele>114.7</ele>
        <time>2021-05-17T14:59:22.000Z</time>
      </trkpt>
      <trkpt lat="44.85787" lon="0.61676">
        <ele>114.7</ele>
        <time>2021-05-17T14:59:23.000Z</time>
      </trkpt>
      <trkpt lat="44.85787" lon="0.61675">
        <ele>114.7</ele>
        <time>2021-05-17T14:59:24.000Z</time>
      </trkpt>
      <trkpt lat="44.85787" lon="0.61673">
        <ele>114.7</ele>
        <time>2021-05-17T14:59:25.000Z</time>
      </trkpt>
      <trkpt lat="44.85789" lon="0.61677">
        <ele>115.2</ele>
        <time>2021-05-17T14:59:26.000Z</time>
      </trkpt>
      <trkpt lat="44.8579" lon="0.61678">
        <ele>115.2</ele>
        <time>2021-05-17T14:59:27.000Z</time>
      </trkpt>
      <trkpt lat="44.85795" lon="0.61674">
        <ele>116.2</ele>
        <time>2021-05-17T14:59:28.000Z</time>
      </trkpt>
      <trkpt lat="44.85796" lon="0.61671">
        <ele>116.3</ele>
        <time>2021-05-17T14:59:29.000Z</time>
      </trkpt>
      <trkpt lat="44.85794" lon="0.61676">
        <ele>116.2</ele>
        <time>2021-05-17T14:59:30.000Z</time>
      </trkpt>
      <trkpt lat="44.85794" lon="0.61678">
        <ele>115.7</ele>
        <time>2021-05-17T14:59:31.000Z</time>
      </trkpt>
      <trkpt lat="44.85795" lon="0.61679">
        <ele>116.2</ele>
        <time>2021-05-17T14:59:32.000Z</time>
      </trkpt>
      <trkpt lat="44.85795" lon="0.61679">
        <ele>116.2</ele>
        <time>2021-05-17T14:59:33.000Z</time>
      </trkpt>
      <trkpt lat="44.85795" lon="0.61679">
        <ele>116.2</ele>
        <time>2021-05-17T14:59:34.000Z</time>
      </trkpt>
      <trkpt lat="44.85795" lon="0.6168">
        <ele>116.2</ele>
        <time>2021-05-17T14:59:35.000Z</time>
      </trkpt>
      <trkpt lat="44.85793" lon="0.6168">
        <ele>115.7</ele>
        <time>2021-05-17T14:59:36.000Z</time>
      </trkpt>
      <trkpt lat="44.85793" lon="0.61679">
        <ele>115.7</ele>
        <time>2021-05-17T14:59:37.000Z</time>
      </trkpt>
      <trkpt lat="44.85794" lon="0.61678">
        <ele>115.7</ele>
        <time>2021-05-17T14:59:39.000Z</time>
      </trkpt>
      <trkpt lat="44.85793" lon="0.61679">
        <ele>115.7</ele>
        <time>2021-05-17T14:59:40.000Z</time>
      </trkpt>
      <trkpt lat="44.85794" lon="0.61679">
        <ele>116.2</ele>
        <time>2021-05-17T14:59:41.000Z</time>
      </trkpt>
      <trkpt lat="44.85794" lon="0.61679">
        <ele>116.2</ele>
        <time>2021-05-17T14:59:42.000Z</time>
      </trkpt>
      <trkpt lat="44.85794" lon="0.61679">
        <ele>116.2</ele>
        <time>2021-05-17T14:59:43.000Z</time>
      </trkpt>
      <trkpt lat="44.85795" lon="0.61677">
        <ele>116.2</ele>
        <time>2021-05-17T14:59:44.000Z</time>
      </trkpt>
      <trkpt lat="44.85795" lon="0.61678">
        <ele>116.2</ele>
        <time>2021-05-17T14:59:45.000Z</time>
      </trkpt>
      <trkpt lat="44.85795" lon="0.61678">
        <ele>116.2</ele>
        <time>2021-05-17T14:59:46.000Z</time>
      </trkpt>
      <trkpt lat="44.85794" lon="0.61676">
        <ele>116.2</ele>
        <time>2021-05-17T14:59:47.000Z</time>
      </trkpt>
      <trkpt lat="44.85794" lon="0.61676">
        <ele>116.2</ele>
        <time>2021-05-17T14:59:48.000Z</time>
      </trkpt>
      <trkpt lat="44.85792" lon="0.61676">
        <ele>115.8</ele>
        <time>2021-05-17T14:59:49.000Z</time>
      </trkpt>
      <trkpt lat="44.85791" lon="0.61675">
        <ele>115.8</ele>
        <time>2021-05-17T14:59:50.000Z</time>
      </trkpt>
      <trkpt lat="44.85791" lon="0.61673">
        <ele>115.3</ele>
        <time>2021-05-17T14:59:51.000Z</time>
      </trkpt>
      <trkpt lat="44.8579" lon="0.61672">
        <ele>115.3</ele>
        <time>2021-05-17T14:59:52.000Z</time>
      </trkpt>
      <trkpt lat="44.8579" lon="0.61672">
        <ele>115.3</ele>
        <time>2021-05-17T14:59:53.000Z</time>
      </trkpt>
      <trkpt lat="44.8579" lon="0.61672">
        <ele>115.3</ele>
        <time>2021-05-17T14:59:54.000Z</time>
      </trkpt>
      <trkpt lat="44.8579" lon="0.61672">
        <ele>115.3</ele>
        <time>2021-05-17T14:59:55.000Z</time>
      </trkpt>
      <trkpt lat="44.8579" lon="0.61671">
        <ele>115.3</ele>
        <time>2021-05-17T14:59:56.000Z</time>
      </trkpt>
      <trkpt lat="44.8579" lon="0.61671">
        <ele>115.3</ele>
        <time>2021-05-17T14:59:57.000Z</time>
      </trkpt>
      <trkpt lat="44.8579" lon="0.61671">
        <ele>115.3</ele>
        <time>2021-05-17T14:59:58.000Z</time>
      </trkpt>
      <trkpt lat="44.8579" lon="0.61671">
        <ele>115.3</ele>
        <time>2021-05-17T14:59:59.000Z</time>
      </trkpt>
      <trkpt lat="44.85789" lon="0.61671">
        <ele>115.3</ele>
        <time>2021-05-17T15:00:00.000Z</time>
      </trkpt>
      <trkpt lat="44.85789" lon="0.61671">
        <ele>115.3</ele>
        <time>2021-05-17T15:00:01.000Z</time>
      </trkpt>
      <trkpt lat="44.8579" lon="0.61671">
        <ele>115.3</ele>
        <time>2021-05-17T15:00:02.000Z</time>
      </trkpt>
      <trkpt lat="44.8579" lon="0.6167">
        <ele>115.3</ele>
        <time>2021-05-17T15:00:03.000Z</time>
      </trkpt>
      <trkpt lat="44.8579" lon="0.6167">
        <ele>115.3</ele>
        <time>2021-05-17T15:00:04.000Z</time>
      </trkpt>
      <trkpt lat="44.85789" lon="0.6167">
        <ele>115.3</ele>
        <time>2021-05-17T15:00:05.000Z</time>
      </trkpt>
      <trkpt lat="44.85789" lon="0.6167">
        <ele>115.3</ele>
        <time>2021-05-17T15:00:06.000Z</time>
      </trkpt>
      <trkpt lat="44.85789" lon="0.61671">
        <ele>115.3</ele>
        <time>2021-05-17T15:00:07.000Z</time>
      </trkpt>
      <trkpt lat="44.85788" lon="0.61671">
        <ele>115.3</ele>
        <time>2021-05-17T15:00:08.000Z</time>
      </trkpt>
      <trkpt lat="44.85788" lon="0.61671">
        <ele>115.3</ele>
        <time>2021-05-17T15:00:09.000Z</time>
      </trkpt>
      <trkpt lat="44.85788" lon="0.61671">
        <ele>115.3</ele>
        <time>2021-05-17T15:00:10.000Z</time>
      </trkpt>
      <trkpt lat="44.85789" lon="0.61671">
        <ele>115.3</ele>
        <time>2021-05-17T15:00:11.000Z</time>
      </trkpt>
      <trkpt lat="44.85789" lon="0.61671">
        <ele>115.3</ele>
        <time>2021-05-17T15:00:12.000Z</time>
      </trkpt>
      <trkpt lat="44.85789" lon="0.61671">
        <ele>115.3</ele>
        <time>2021-05-17T15:00:13.000Z</time>
      </trkpt>
      <trkpt lat="44.8579" lon="0.61672">
        <ele>115.3</ele>
        <time>2021-05-17T15:00:14.000Z</time>
      </trkpt>
      <trkpt lat="44.8579" lon="0.61673">
        <ele>115.3</ele>
        <time>2021-05-17T15:00:15.000Z</time>
      </trkpt>
      <trkpt lat="44.8579" lon="0.61673">
        <ele>115.3</ele>
        <time>2021-05-17T15:00:16.000Z</time>
      </trkpt>
      <trkpt lat="44.8579" lon="0.61672">
        <ele>115.3</ele>
        <time>2021-05-17T15:00:17.000Z</time>
      </trkpt>
      <trkpt lat="44.85789" lon="0.61672">
        <ele>115.3</ele>
        <time>2021-05-17T15:00:18.000Z</time>
      </trkpt>
      <trkpt lat="44.85789" lon="0.61672">
        <ele>115.3</ele>
        <time>2021-05-17T15:00:19.000Z</time>
      </trkpt>
      <trkpt lat="44.85788" lon="0.61672">
        <ele>115.3</ele>
        <time>2021-05-17T15:00:20.000Z</time>
      </trkpt>
      <trkpt lat="44.85788" lon="0.61672">
        <ele>115.3</ele>
        <time>2021-05-17T15:00:21.000Z</time>
      </trkpt>
      <trkpt lat="44.85788" lon="0.61671">
        <ele>115.3</ele>
        <time>2021-05-17T15:00:22.000Z</time>
      </trkpt>
      <trkpt lat="44.85787" lon="0.61671">
        <ele>114.7</ele>
        <time>2021-05-17T15:00:23.000Z</time>
      </trkpt>
      <trkpt lat="44.85787" lon="0.61671">
        <ele>114.7</ele>
        <time>2021-05-17T15:00:24.000Z</time>
      </trkpt>
      <trkpt lat="44.85786" lon="0.61671">
        <ele>114.7</ele>
        <time>2021-05-17T15:00:25.000Z</time>
      </trkpt>
      <trkpt lat="44.85787" lon="0.61671">
        <ele>114.7</ele>
        <time>2021-05-17T15:00:26.000Z</time>
      </trkpt>
      <trkpt lat="44.85788" lon="0.61672">
        <ele>115.3</ele>
        <time>2021-05-17T15:00:27.000Z</time>
      </trkpt>
      <trkpt lat="44.85789" lon="0.61673">
        <ele>115.3</ele>
        <time>2021-05-17T15:00:28.000Z</time>
      </trkpt>
      <trkpt lat="44.8579" lon="0.61673">
        <ele>115.3</ele>
        <time>2021-05-17T15:00:29.000Z</time>
      </trkpt>
      <trkpt lat="44.8579" lon="0.61673">
        <ele>115.3</ele>
        <time>2021-05-17T15:00:30.000Z</time>
      </trkpt>
      <trkpt lat="44.85791" lon="0.61672">
        <ele>115.3</ele>
        <time>2021-05-17T15:00:31.000Z</time>
      </trkpt>
      <trkpt lat="44.85792" lon="0.61672">
        <ele>115.8</ele>
        <time>2021-05-17T15:00:32.000Z</time>
      </trkpt>
      <trkpt lat="44.85792" lon="0.61672">
        <ele>115.8</ele>
        <time>2021-05-17T15:00:33.000Z</time>
      </trkpt>
      <trkpt lat="44.85792" lon="0.61673">
        <ele>115.8</ele>
        <time>2021-05-17T15:00:34.000Z</time>
      </trkpt>
      <trkpt lat="44.85792" lon="0.61675">
        <ele>115.8</ele>
        <time>2021-05-17T15:00:35.000Z</time>
      </trkpt>
      <trkpt lat="44.85793" lon="0.61676">
        <ele>115.8</ele>
        <time>2021-05-17T15:00:36.000Z</time>
      </trkpt>
      <trkpt lat="44.85793" lon="0.61676">
        <ele>115.8</ele>
        <time>2021-05-17T15:00:37.000Z</time>
      </trkpt>
      <trkpt lat="44.85794" lon="0.61676">
        <ele>116.2</ele>
        <time>2021-05-17T15:00:38.000Z</time>
      </trkpt>
      <trkpt lat="44.85796" lon="0.61677">
        <ele>116.2</ele>
        <time>2021-05-17T15:00:39.000Z</time>
      </trkpt>
      <trkpt lat="44.85796" lon="0.61679">
        <ele>116.2</ele>
        <time>2021-05-17T15:00:40.000Z</time>
      </trkpt>
      <trkpt lat="44.85796" lon="0.61682">
        <ele>116.2</ele>
        <time>2021-05-17T15:00:41.000Z</time>
      </trkpt>
      <trkpt lat="44.85796" lon="0.61686">
        <ele>116.1</ele>
        <time>2021-05-17T15:00:42.000Z</time>
      </trkpt>
      <trkpt lat="44.85797" lon="0.61687">
        <ele>116.1</ele>
        <time>2021-05-17T15:00:43.000Z</time>
      </trkpt>
      <trkpt lat="44.85798" lon="0.61689">
        <ele>116.6</ele>
        <time>2021-05-17T15:00:44.000Z</time>
      </trkpt>
      <trkpt lat="44.858" lon="0.61689">
        <ele>116.6</ele>
        <time>2021-05-17T15:00:45.000Z</time>
      </trkpt>
      <trkpt lat="44.85801" lon="0.6169">
        <ele>117.1</ele>
        <time>2021-05-17T15:00:46.000Z</time>
      </trkpt>
      <trkpt lat="44.85802" lon="0.61692">
        <ele>117</ele>
        <time>2021-05-17T15:00:47.000Z</time>
      </trkpt>
      <trkpt lat="44.85804" lon="0.61693">
        <ele>117.5</ele>
        <time>2021-05-17T15:00:48.000Z</time>
      </trkpt>
      <trkpt lat="44.85805" lon="0.61692">
        <ele>117.5</ele>
        <time>2021-05-17T15:00:49.000Z</time>
      </trkpt>
      <trkpt lat="44.85807" lon="0.61694">
        <ele>118</ele>
        <time>2021-05-17T15:00:50.000Z</time>
      </trkpt>
      <trkpt lat="44.85809" lon="0.61694">
        <ele>118</ele>
        <time>2021-05-17T15:00:51.000Z</time>
      </trkpt>
      <trkpt lat="44.85811" lon="0.61695">
        <ele>118.4</ele>
        <time>2021-05-17T15:00:52.000Z</time>
      </trkpt>
      <trkpt lat="44.85812" lon="0.61696">
        <ele>118.7</ele>
        <time>2021-05-17T15:00:53.000Z</time>
      </trkpt>
      <trkpt lat="44.85813" lon="0.61696">
        <ele>118.7</ele>
        <time>2021-05-17T15:00:54.000Z</time>
      </trkpt>
      <trkpt lat="44.85815" lon="0.61696">
        <ele>119.1</ele>
        <time>2021-05-17T15:00:55.000Z</time>
      </trkpt>
      <trkpt lat="44.85817" lon="0.61698">
        <ele>119.1</ele>
        <time>2021-05-17T15:00:56.000Z</time>
      </trkpt>
      <trkpt lat="44.85818" lon="0.61698">
        <ele>119.3</ele>
        <time>2021-05-17T15:00:57.000Z</time>
      </trkpt>
      <trkpt lat="44.85818" lon="0.617">
        <ele>119.3</ele>
        <time>2021-05-17T15:00:58.000Z</time>
      </trkpt>
      <trkpt lat="44.85821" lon="0.617">
        <ele>119.3</ele>
        <time>2021-05-17T15:00:59.000Z</time>
      </trkpt>
      <trkpt lat="44.85823" lon="0.617">
        <ele>119.5</ele>
        <time>2021-05-17T15:01:00.000Z</time>
      </trkpt>
      <trkpt lat="44.85824" lon="0.617">
        <ele>119.8</ele>
        <time>2021-05-17T15:01:01.000Z</time>
      </trkpt>
      <trkpt lat="44.85826" lon="0.617">
        <ele>119.8</ele>
        <time>2021-05-17T15:01:02.000Z</time>
      </trkpt>
      <trkpt lat="44.85828" lon="0.61701">
        <ele>120</ele>
        <time>2021-05-17T15:01:03.000Z</time>
      </trkpt>
      <trkpt lat="44.85831" lon="0.61703">
        <ele>120.2</ele>
        <time>2021-05-17T15:01:04.000Z</time>
      </trkpt>
      <trkpt lat="44.85832" lon="0.61704">
        <ele>120.1</ele>
        <time>2021-05-17T15:01:05.000Z</time>
      </trkpt>
      <trkpt lat="44.85833" lon="0.61706">
        <ele>120.1</ele>
        <time>2021-05-17T15:01:06.000Z</time>
      </trkpt>
      <trkpt lat="44.85834" lon="0.61707">
        <ele>120.3</ele>
        <time>2021-05-17T15:01:07.000Z</time>
      </trkpt>
      <trkpt lat="44.85835" lon="0.61708">
        <ele>120.2</ele>
        <time>2021-05-17T15:01:08.000Z</time>
      </trkpt>
      <trkpt lat="44.85835" lon="0.61712">
        <ele>120.2</ele>
        <time>2021-05-17T15:01:09.000Z</time>
      </trkpt>
      <trkpt lat="44.85836" lon="0.61712">
        <ele>120.1</ele>
        <time>2021-05-17T15:01:10.000Z</time>
      </trkpt>
      <trkpt lat="44.85838" lon="0.61715">
        <ele>120.3</ele>
        <time>2021-05-17T15:01:11.000Z</time>
      </trkpt>
      <trkpt lat="44.85837" lon="0.61716">
        <ele>120.3</ele>
        <time>2021-05-17T15:01:12.000Z</time>
      </trkpt>
      <trkpt lat="44.85838" lon="0.61716">
        <ele>120.3</ele>
        <time>2021-05-17T15:01:13.000Z</time>
      </trkpt>
      <trkpt lat="44.8584" lon="0.61719">
        <ele>120.2</ele>
        <time>2021-05-17T15:01:14.000Z</time>
      </trkpt>
      <trkpt lat="44.85841" lon="0.61723">
        <ele>120.1</ele>
        <time>2021-05-17T15:01:15.000Z</time>
      </trkpt>
      <trkpt lat="44.85842" lon="0.61725">
        <ele>120.1</ele>
        <time>2021-05-17T15:01:16.000Z</time>
      </trkpt>
      <trkpt lat="44.85842" lon="0.61726">
        <ele>120</ele>
        <time>2021-05-17T15:01:17.000Z</time>
      </trkpt>
      <trkpt lat="44.85843" lon="0.61728">
        <ele>120</ele>
        <time>2021-05-17T15:01:18.000Z</time>
      </trkpt>
      <trkpt lat="44.85843" lon="0.61732">
        <ele>119.9</ele>
        <time>2021-05-17T15:01:19.000Z</time>
      </trkpt>
      <trkpt lat="44.85844" lon="0.61733">
        <ele>119.9</ele>
        <time>2021-05-17T15:01:20.000Z</time>
      </trkpt>
      <trkpt lat="44.85844" lon="0.61736">
        <ele>119.8</ele>
        <time>2021-05-17T15:01:21.000Z</time>
      </trkpt>
      <trkpt lat="44.85844" lon="0.61738">
        <ele>119.8</ele>
        <time>2021-05-17T15:01:22.000Z</time>
      </trkpt>
      <trkpt lat="44.85844" lon="0.61739">
        <ele>119.6</ele>
        <time>2021-05-17T15:01:23.000Z</time>
      </trkpt>
      <trkpt lat="44.85844" lon="0.61741">
        <ele>119.6</ele>
        <time>2021-05-17T15:01:24.000Z</time>
      </trkpt>
      <trkpt lat="44.85844" lon="0.61741">
        <ele>119.6</ele>
        <time>2021-05-17T15:01:25.000Z</time>
      </trkpt>
      <trkpt lat="44.85845" lon="0.61741">
        <ele>119.6</ele>
        <time>2021-05-17T15:01:26.000Z</time>
      </trkpt>
      <trkpt lat="44.85845" lon="0.61742">
        <ele>119.6</ele>
        <time>2021-05-17T15:01:27.000Z</time>
      </trkpt>
      <trkpt lat="44.85848" lon="0.61742">
        <ele>119.6</ele>
        <time>2021-05-17T15:01:28.000Z</time>
      </trkpt>
      <trkpt lat="44.85849" lon="0.61742">
        <ele>119.5</ele>
        <time>2021-05-17T15:01:29.000Z</time>
      </trkpt>
      <trkpt lat="44.8585" lon="0.61745">
        <ele>119.5</ele>
        <time>2021-05-17T15:01:30.000Z</time>
      </trkpt>
      <trkpt lat="44.85849" lon="0.61746">
        <ele>119.5</ele>
        <time>2021-05-17T15:01:31.000Z</time>
      </trkpt>
      <trkpt lat="44.85849" lon="0.61747">
        <ele>119.3</ele>
        <time>2021-05-17T15:01:32.000Z</time>
      </trkpt>
      <trkpt lat="44.85849" lon="0.6175">
        <ele>119.3</ele>
        <time>2021-05-17T15:01:33.000Z</time>
      </trkpt>
      <trkpt lat="44.85849" lon="0.61753">
        <ele>119.2</ele>
        <time>2021-05-17T15:01:34.000Z</time>
      </trkpt>
      <trkpt lat="44.85849" lon="0.61754">
        <ele>119.2</ele>
        <time>2021-05-17T15:01:35.000Z</time>
      </trkpt>
      <trkpt lat="44.85849" lon="0.61756">
        <ele>119.1</ele>
        <time>2021-05-17T15:01:36.000Z</time>
      </trkpt>
      <trkpt lat="44.85848" lon="0.61759">
        <ele>119</ele>
        <time>2021-05-17T15:01:37.000Z</time>
      </trkpt>
      <trkpt lat="44.85848" lon="0.61761">
        <ele>118.9</ele>
        <time>2021-05-17T15:01:38.000Z</time>
      </trkpt>
      <trkpt lat="44.85848" lon="0.61762">
        <ele>118.9</ele>
        <time>2021-05-17T15:01:39.000Z</time>
      </trkpt>
      <trkpt lat="44.85846" lon="0.61765">
        <ele>118.8</ele>
        <time>2021-05-17T15:01:40.000Z</time>
      </trkpt>
      <trkpt lat="44.85845" lon="0.61767">
        <ele>118.8</ele>
        <time>2021-05-17T15:01:41.000Z</time>
      </trkpt>
      <trkpt lat="44.85845" lon="0.61769">
        <ele>118.8</ele>
        <time>2021-05-17T15:01:42.000Z</time>
      </trkpt>
      <trkpt lat="44.85845" lon="0.61771">
        <ele>118.8</ele>
        <time>2021-05-17T15:01:43.000Z</time>
      </trkpt>
      <trkpt lat="44.85846" lon="0.61774">
        <ele>118.7</ele>
        <time>2021-05-17T15:01:45.000Z</time>
      </trkpt>
      <trkpt lat="44.85846" lon="0.61775">
        <ele>118.7</ele>
        <time>2021-05-17T15:01:46.000Z</time>
      </trkpt>
      <trkpt lat="44.85847" lon="0.61776">
        <ele>118.7</ele>
        <time>2021-05-17T15:01:47.000Z</time>
      </trkpt>
      <trkpt lat="44.85847" lon="0.61778">
        <ele>118.7</ele>
        <time>2021-05-17T15:01:48.000Z</time>
      </trkpt>
      <trkpt lat="44.85848" lon="0.6178">
        <ele>118.7</ele>
        <time>2021-05-17T15:01:49.000Z</time>
      </trkpt>
      <trkpt lat="44.85848" lon="0.61783">
        <ele>118.7</ele>
        <time>2021-05-17T15:01:50.000Z</time>
      </trkpt>
      <trkpt lat="44.85848" lon="0.61784">
        <ele>118.7</ele>
        <time>2021-05-17T15:01:51.000Z</time>
      </trkpt>
      <trkpt lat="44.85849" lon="0.61788">
        <ele>118.7</ele>
        <time>2021-05-17T15:01:52.000Z</time>
      </trkpt>
      <trkpt lat="44.85849" lon="0.6179">
        <ele>118.7</ele>
        <time>2021-05-17T15:01:53.000Z</time>
      </trkpt>
      <trkpt lat="44.8585" lon="0.61791">
        <ele>118.7</ele>
        <time>2021-05-17T15:01:54.000Z</time>
      </trkpt>
      <trkpt lat="44.85851" lon="0.61792">
        <ele>118.7</ele>
        <time>2021-05-17T15:01:55.000Z</time>
      </trkpt>
      <trkpt lat="44.85852" lon="0.61794">
        <ele>118.7</ele>
        <time>2021-05-17T15:01:56.000Z</time>
      </trkpt>
      <trkpt lat="44.85853" lon="0.61796">
        <ele>118.7</ele>
        <time>2021-05-17T15:01:57.000Z</time>
      </trkpt>
      <trkpt lat="44.85852" lon="0.61798">
        <ele>118.7</ele>
        <time>2021-05-17T15:01:58.000Z</time>
      </trkpt>
      <trkpt lat="44.85853" lon="0.61801">
        <ele>118.8</ele>
        <time>2021-05-17T15:01:59.000Z</time>
      </trkpt>
      <trkpt lat="44.85853" lon="0.61802">
        <ele>118.8</ele>
        <time>2021-05-17T15:02:00.000Z</time>
      </trkpt>
      <trkpt lat="44.85853" lon="0.61804">
        <ele>118.9</ele>
        <time>2021-05-17T15:02:01.000Z</time>
      </trkpt>
      <trkpt lat="44.85854" lon="0.61808">
        <ele>118.9</ele>
        <time>2021-05-17T15:02:02.000Z</time>
      </trkpt>
      <trkpt lat="44.85854" lon="0.61813">
        <ele>119</ele>
        <time>2021-05-17T15:02:03.000Z</time>
      </trkpt>
      <trkpt lat="44.85854" lon="0.61816">
        <ele>119</ele>
        <time>2021-05-17T15:02:04.000Z</time>
      </trkpt>
      <trkpt lat="44.85855" lon="0.61824">
        <ele>119.1</ele>
        <time>2021-05-17T15:02:05.000Z</time>
      </trkpt>
      <trkpt lat="44.85855" lon="0.61828">
        <ele>119.1</ele>
        <time>2021-05-17T15:02:06.000Z</time>
      </trkpt>
      <trkpt lat="44.85856" lon="0.61833">
        <ele>119.2</ele>
        <time>2021-05-17T15:02:07.000Z</time>
      </trkpt>
      <trkpt lat="44.85856" lon="0.61836">
        <ele>119.2</ele>
        <time>2021-05-17T15:02:08.000Z</time>
      </trkpt>
      <trkpt lat="44.85856" lon="0.61837">
        <ele>119.3</ele>
        <time>2021-05-17T15:02:09.000Z</time>
      </trkpt>
      <trkpt lat="44.85856" lon="0.61841">
        <ele>119.3</ele>
        <time>2021-05-17T15:02:10.000Z</time>
      </trkpt>
      <trkpt lat="44.85855" lon="0.61846">
        <ele>119.3</ele>
        <time>2021-05-17T15:02:11.000Z</time>
      </trkpt>
      <trkpt lat="44.85855" lon="0.61848">
        <ele>119.3</ele>
        <time>2021-05-17T15:02:12.000Z</time>
      </trkpt>
      <trkpt lat="44.85855" lon="0.61851">
        <ele>119.4</ele>
        <time>2021-05-17T15:02:13.000Z</time>
      </trkpt>
      <trkpt lat="44.85855" lon="0.61856">
        <ele>119.4</ele>
        <time>2021-05-17T15:02:14.000Z</time>
      </trkpt>
      <trkpt lat="44.85855" lon="0.61858">
        <ele>119.5</ele>
        <time>2021-05-17T15:02:15.000Z</time>
      </trkpt>
      <trkpt lat="44.85856" lon="0.61863">
        <ele>119.6</ele>
        <time>2021-05-17T15:02:16.000Z</time>
      </trkpt>
      <trkpt lat="44.85856" lon="0.61864">
        <ele>119.6</ele>
        <time>2021-05-17T15:02:17.000Z</time>
      </trkpt>
      <trkpt lat="44.85855" lon="0.61869">
        <ele>119.6</ele>
        <time>2021-05-17T15:02:18.000Z</time>
      </trkpt>
      <trkpt lat="44.85854" lon="0.61874">
        <ele>119.7</ele>
        <time>2021-05-17T15:02:19.000Z</time>
      </trkpt>
      <trkpt lat="44.85854" lon="0.61876">
        <ele>119.7</ele>
        <time>2021-05-17T15:02:20.000Z</time>
      </trkpt>
      <trkpt lat="44.85854" lon="0.61881">
        <ele>119.8</ele>
        <time>2021-05-17T15:02:21.000Z</time>
      </trkpt>
      <trkpt lat="44.85854" lon="0.61883">
        <ele>119.8</ele>
        <time>2021-05-17T15:02:22.000Z</time>
      </trkpt>
      <trkpt lat="44.85854" lon="0.61889">
        <ele>119.9</ele>
        <time>2021-05-17T15:02:23.000Z</time>
      </trkpt>
      <trkpt lat="44.85853" lon="0.61891">
        <ele>119.9</ele>
        <time>2021-05-17T15:02:24.000Z</time>
      </trkpt>
      <trkpt lat="44.85853" lon="0.61896">
        <ele>119.9</ele>
        <time>2021-05-17T15:02:25.000Z</time>
      </trkpt>
      <trkpt lat="44.85853" lon="0.61899">
        <ele>119.9</ele>
        <time>2021-05-17T15:02:26.000Z</time>
      </trkpt>
      <trkpt lat="44.85853" lon="0.61903">
        <ele>120</ele>
        <time>2021-05-17T15:02:27.000Z</time>
      </trkpt>
      <trkpt lat="44.85853" lon="0.61905">
        <ele>120</ele>
        <time>2021-05-17T15:02:28.000Z</time>
      </trkpt>
      <trkpt lat="44.85852" lon="0.6191">
        <ele>120.1</ele>
        <time>2021-05-17T15:02:29.000Z</time>
      </trkpt>
      <trkpt lat="44.85852" lon="0.61914">
        <ele>120.1</ele>
        <time>2021-05-17T15:02:30.000Z</time>
      </trkpt>
      <trkpt lat="44.85851" lon="0.61918">
        <ele>120.2</ele>
        <time>2021-05-17T15:02:31.000Z</time>
      </trkpt>
      <trkpt lat="44.8585" lon="0.61923">
        <ele>120.3</ele>
        <time>2021-05-17T15:02:32.000Z</time>
      </trkpt>
      <trkpt lat="44.8585" lon="0.61927">
        <ele>120.4</ele>
        <time>2021-05-17T15:02:33.000Z</time>
      </trkpt>
      <trkpt lat="44.85848" lon="0.61933">
        <ele>120.4</ele>
        <time>2021-05-17T15:02:34.000Z</time>
      </trkpt>
      <trkpt lat="44.85847" lon="0.61938">
        <ele>120.5</ele>
        <time>2021-05-17T15:02:35.000Z</time>
      </trkpt>
      <trkpt lat="44.85846" lon="0.6194">
        <ele>120.5</ele>
        <time>2021-05-17T15:02:36.000Z</time>
      </trkpt>
      <trkpt lat="44.85844" lon="0.61948">
        <ele>120.5</ele>
        <time>2021-05-17T15:02:37.000Z</time>
      </trkpt>
      <trkpt lat="44.85842" lon="0.61955">
        <ele>120.5</ele>
        <time>2021-05-17T15:02:38.000Z</time>
      </trkpt>
      <trkpt lat="44.8584" lon="0.61961">
        <ele>120.5</ele>
        <time>2021-05-17T15:02:39.000Z</time>
      </trkpt>
      <trkpt lat="44.8584" lon="0.61966">
        <ele>120.5</ele>
        <time>2021-05-17T15:02:40.000Z</time>
      </trkpt>
      <trkpt lat="44.8584" lon="0.61968">
        <ele>120.5</ele>
        <time>2021-05-17T15:02:41.000Z</time>
      </trkpt>
      <trkpt lat="44.85839" lon="0.61972">
        <ele>120.5</ele>
        <time>2021-05-17T15:02:42.000Z</time>
      </trkpt>
      <trkpt lat="44.85838" lon="0.61978">
        <ele>120.5</ele>
        <time>2021-05-17T15:02:43.000Z</time>
      </trkpt>
      <trkpt lat="44.85838" lon="0.61983">
        <ele>120.5</ele>
        <time>2021-05-17T15:02:44.000Z</time>
      </trkpt>
      <trkpt lat="44.85838" lon="0.61985">
        <ele>120.5</ele>
        <time>2021-05-17T15:02:45.000Z</time>
      </trkpt>
      <trkpt lat="44.85837" lon="0.61989">
        <ele>120.4</ele>
        <time>2021-05-17T15:02:46.000Z</time>
      </trkpt>
      <trkpt lat="44.85836" lon="0.61993">
        <ele>120.5</ele>
        <time>2021-05-17T15:02:47.000Z</time>
      </trkpt>
      <trkpt lat="44.85835" lon="0.61998">
        <ele>120.5</ele>
        <time>2021-05-17T15:02:48.000Z</time>
      </trkpt>
      <trkpt lat="44.85834" lon="0.62003">
        <ele>120.5</ele>
        <time>2021-05-17T15:02:49.000Z</time>
      </trkpt>
      <trkpt lat="44.85833" lon="0.62006">
        <ele>120.5</ele>
        <time>2021-05-17T15:02:50.000Z</time>
      </trkpt>
      <trkpt lat="44.85832" lon="0.6201">
        <ele>120.5</ele>
        <time>2021-05-17T15:02:51.000Z</time>
      </trkpt>
      <trkpt lat="44.85831" lon="0.62014">
        <ele>120.5</ele>
        <time>2021-05-17T15:02:52.000Z</time>
      </trkpt>
      <trkpt lat="44.8583" lon="0.62019">
        <ele>120.6</ele>
        <time>2021-05-17T15:02:53.000Z</time>
      </trkpt>
      <trkpt lat="44.85829" lon="0.62023">
        <ele>120.6</ele>
        <time>2021-05-17T15:02:54.000Z</time>
      </trkpt>
      <trkpt lat="44.85826" lon="0.62032">
        <ele>120.6</ele>
        <time>2021-05-17T15:02:55.000Z</time>
      </trkpt>
      <trkpt lat="44.85824" lon="0.62038">
        <ele>120.7</ele>
        <time>2021-05-17T15:02:56.000Z</time>
      </trkpt>
      <trkpt lat="44.85823" lon="0.62043">
        <ele>120.8</ele>
        <time>2021-05-17T15:02:57.000Z</time>
      </trkpt>
      <trkpt lat="44.85821" lon="0.62049">
        <ele>120.8</ele>
        <time>2021-05-17T15:02:58.000Z</time>
      </trkpt>
      <trkpt lat="44.8582" lon="0.62054">
        <ele>120.9</ele>
        <time>2021-05-17T15:02:59.000Z</time>
      </trkpt>
      <trkpt lat="44.85818" lon="0.62059">
        <ele>120.9</ele>
        <time>2021-05-17T15:03:00.000Z</time>
      </trkpt>
      <trkpt lat="44.85817" lon="0.62064">
        <ele>121</ele>
        <time>2021-05-17T15:03:01.000Z</time>
      </trkpt>
      <trkpt lat="44.85815" lon="0.6207">
        <ele>121.1</ele>
        <time>2021-05-17T15:03:02.000Z</time>
      </trkpt>
      <trkpt lat="44.85814" lon="0.62076">
        <ele>121.1</ele>
        <time>2021-05-17T15:03:03.000Z</time>
      </trkpt>
      <trkpt lat="44.85812" lon="0.62083">
        <ele>121.1</ele>
        <time>2021-05-17T15:03:04.000Z</time>
      </trkpt>
      <trkpt lat="44.85811" lon="0.62089">
        <ele>121.1</ele>
        <time>2021-05-17T15:03:05.000Z</time>
      </trkpt>
      <trkpt lat="44.85809" lon="0.62096">
        <ele>121.2</ele>
        <time>2021-05-17T15:03:06.000Z</time>
      </trkpt>
      <trkpt lat="44.85808" lon="0.62102">
        <ele>121.1</ele>
        <time>2021-05-17T15:03:07.000Z</time>
      </trkpt>
      <trkpt lat="44.85808" lon="0.62108">
        <ele>121.1</ele>
        <time>2021-05-17T15:03:08.000Z</time>
      </trkpt>
      <trkpt lat="44.85808" lon="0.62114">
        <ele>121.1</ele>
        <time>2021-05-17T15:03:09.000Z</time>
      </trkpt>
      <trkpt lat="44.85807" lon="0.6212">
        <ele>121.1</ele>
        <time>2021-05-17T15:03:10.000Z</time>
      </trkpt>
      <trkpt lat="44.85806" lon="0.62126">
        <ele>121.1</ele>
        <time>2021-05-17T15:03:11.000Z</time>
      </trkpt>
      <trkpt lat="44.85806" lon="0.62131">
        <ele>121</ele>
        <time>2021-05-17T15:03:12.000Z</time>
      </trkpt>
      <trkpt lat="44.85805" lon="0.62138">
        <ele>120.9</ele>
        <time>2021-05-17T15:03:13.000Z</time>
      </trkpt>
      <trkpt lat="44.85805" lon="0.62143">
        <ele>120.8</ele>
        <time>2021-05-17T15:03:14.000Z</time>
      </trkpt>
      <trkpt lat="44.85804" lon="0.62149">
        <ele>120.6</ele>
        <time>2021-05-17T15:03:15.000Z</time>
      </trkpt>
      <trkpt lat="44.85804" lon="0.62154">
        <ele>120.5</ele>
        <time>2021-05-17T15:03:16.000Z</time>
      </trkpt>
      <trkpt lat="44.85803" lon="0.62159">
        <ele>120.3</ele>
        <time>2021-05-17T15:03:17.000Z</time>
      </trkpt>
      <trkpt lat="44.85801" lon="0.62165">
        <ele>120.1</ele>
        <time>2021-05-17T15:03:18.000Z</time>
      </trkpt>
      <trkpt lat="44.85801" lon="0.62169">
        <ele>120</ele>
        <time>2021-05-17T15:03:19.000Z</time>
      </trkpt>
      <trkpt lat="44.85801" lon="0.6217">
        <ele>120</ele>
        <time>2021-05-17T15:03:20.000Z</time>
      </trkpt>
      <trkpt lat="44.858" lon="0.62175">
        <ele>119.9</ele>
        <time>2021-05-17T15:03:21.000Z</time>
      </trkpt>
      <trkpt lat="44.858" lon="0.62177">
        <ele>119.7</ele>
        <time>2021-05-17T15:03:22.000Z</time>
      </trkpt>
      <trkpt lat="44.85799" lon="0.62182">
        <ele>119.6</ele>
        <time>2021-05-17T15:03:23.000Z</time>
      </trkpt>
      <trkpt lat="44.85798" lon="0.62187">
        <ele>119.4</ele>
        <time>2021-05-17T15:03:24.000Z</time>
      </trkpt>
      <trkpt lat="44.85796" lon="0.62192">
        <ele>119.2</ele>
        <time>2021-05-17T15:03:25.000Z</time>
      </trkpt>
      <trkpt lat="44.85792" lon="0.62195">
        <ele>119</ele>
        <time>2021-05-17T15:03:26.000Z</time>
      </trkpt>
      <trkpt lat="44.85785" lon="0.62198">
        <ele>118.7</ele>
        <time>2021-05-17T15:03:27.000Z</time>
      </trkpt>
      <trkpt lat="44.85778" lon="0.62201">
        <ele>118.5</ele>
        <time>2021-05-17T15:03:28.000Z</time>
      </trkpt>
      <trkpt lat="44.85771" lon="0.62204">
        <ele>118.1</ele>
        <time>2021-05-17T15:03:29.000Z</time>
      </trkpt>
      <trkpt lat="44.85762" lon="0.62206">
        <ele>117.7</ele>
        <time>2021-05-17T15:03:30.000Z</time>
      </trkpt>
      <trkpt lat="44.85753" lon="0.62209">
        <ele>117.1</ele>
        <time>2021-05-17T15:03:31.000Z</time>
      </trkpt>
      <trkpt lat="44.85744" lon="0.62212">
        <ele>116.4</ele>
        <time>2021-05-17T15:03:32.000Z</time>
      </trkpt>
      <trkpt lat="44.85736" lon="0.62217">
        <ele>115.8</ele>
        <time>2021-05-17T15:03:33.000Z</time>
      </trkpt>
      <trkpt lat="44.85728" lon="0.62219">
        <ele>115.1</ele>
        <time>2021-05-17T15:03:34.000Z</time>
      </trkpt>
      <trkpt lat="44.85721" lon="0.62222">
        <ele>114.7</ele>
        <time>2021-05-17T15:03:35.000Z</time>
      </trkpt>
      <trkpt lat="44.85714" lon="0.62223">
        <ele>113.8</ele>
        <time>2021-05-17T15:03:36.000Z</time>
      </trkpt>
      <trkpt lat="44.85707" lon="0.62225">
        <ele>113.4</ele>
        <time>2021-05-17T15:03:37.000Z</time>
      </trkpt>
      <trkpt lat="44.85699" lon="0.62228">
        <ele>112.5</ele>
        <time>2021-05-17T15:03:38.000Z</time>
      </trkpt>
      <trkpt lat="44.8569" lon="0.6223">
        <ele>111.8</ele>
        <time>2021-05-17T15:03:39.000Z</time>
      </trkpt>
      <trkpt lat="44.85683" lon="0.62232">
        <ele>111.2</ele>
        <time>2021-05-17T15:03:40.000Z</time>
      </trkpt>
      <trkpt lat="44.85675" lon="0.62234">
        <ele>110.6</ele>
        <time>2021-05-17T15:03:41.000Z</time>
      </trkpt>
      <trkpt lat="44.85668" lon="0.62236">
        <ele>110.3</ele>
        <time>2021-05-17T15:03:42.000Z</time>
      </trkpt>
      <trkpt lat="44.85662" lon="0.62237">
        <ele>109.9</ele>
        <time>2021-05-17T15:03:43.000Z</time>
      </trkpt>
      <trkpt lat="44.85656" lon="0.62239">
        <ele>109.5</ele>
        <time>2021-05-17T15:03:44.000Z</time>
      </trkpt>
      <trkpt lat="44.85651" lon="0.6224">
        <ele>109.4</ele>
        <time>2021-05-17T15:03:45.000Z</time>
      </trkpt>
      <trkpt lat="44.85644" lon="0.62242">
        <ele>108.7</ele>
        <time>2021-05-17T15:03:46.000Z</time>
      </trkpt>
      <trkpt lat="44.85639" lon="0.62243">
        <ele>108.5</ele>
        <time>2021-05-17T15:03:47.000Z</time>
      </trkpt>
      <trkpt lat="44.85635" lon="0.62243">
        <ele>108</ele>
        <time>2021-05-17T15:03:48.000Z</time>
      </trkpt>
      <trkpt lat="44.8563" lon="0.62244">
        <ele>107.8</ele>
        <time>2021-05-17T15:03:49.000Z</time>
      </trkpt>
      <trkpt lat="44.85625" lon="0.62244">
        <ele>107.3</ele>
        <time>2021-05-17T15:03:51.000Z</time>
      </trkpt>
      <trkpt lat="44.85621" lon="0.62245">
        <ele>107</ele>
        <time>2021-05-17T15:03:52.000Z</time>
      </trkpt>
      <trkpt lat="44.85617" lon="0.62246">
        <ele>106.6</ele>
        <time>2021-05-17T15:03:53.000Z</time>
      </trkpt>
      <trkpt lat="44.85612" lon="0.62247">
        <ele>106.4</ele>
        <time>2021-05-17T15:03:54.000Z</time>
      </trkpt>
      <trkpt lat="44.85608" lon="0.62249">
        <ele>106.1</ele>
        <time>2021-05-17T15:03:55.000Z</time>
      </trkpt>
      <trkpt lat="44.85605" lon="0.6225">
        <ele>105.5</ele>
        <time>2021-05-17T15:03:56.000Z</time>
      </trkpt>
      <trkpt lat="44.85602" lon="0.62251">
        <ele>105.3</ele>
        <time>2021-05-17T15:03:57.000Z</time>
      </trkpt>
      <trkpt lat="44.85598" lon="0.62253">
        <ele>105.1</ele>
        <time>2021-05-17T15:03:58.000Z</time>
      </trkpt>
      <trkpt lat="44.85594" lon="0.62254">
        <ele>104.7</ele>
        <time>2021-05-17T15:03:59.000Z</time>
      </trkpt>
      <trkpt lat="44.85593" lon="0.62255">
        <ele>104.7</ele>
        <time>2021-05-17T15:04:00.000Z</time>
      </trkpt>
      <trkpt lat="44.8559" lon="0.62255">
        <ele>104.5</ele>
        <time>2021-05-17T15:04:01.000Z</time>
      </trkpt>
      <trkpt lat="44.85587" lon="0.62256">
        <ele>104.3</ele>
        <time>2021-05-17T15:04:02.000Z</time>
      </trkpt>
      <trkpt lat="44.85586" lon="0.62256">
        <ele>103.8</ele>
        <time>2021-05-17T15:04:03.000Z</time>
      </trkpt>
      <trkpt lat="44.85585" lon="0.62258">
        <ele>103.6</ele>
        <time>2021-05-17T15:04:04.000Z</time>
      </trkpt>
      <trkpt lat="44.85584" lon="0.6226">
        <ele>103.4</ele>
        <time>2021-05-17T15:04:05.000Z</time>
      </trkpt>
      <trkpt lat="44.85585" lon="0.62264">
        <ele>103.5</ele>
        <time>2021-05-17T15:04:06.000Z</time>
      </trkpt>
      <trkpt lat="44.85585" lon="0.62266">
        <ele>103.5</ele>
        <time>2021-05-17T15:04:07.000Z</time>
      </trkpt>
      <trkpt lat="44.85585" lon="0.62271">
        <ele>103.1</ele>
        <time>2021-05-17T15:04:08.000Z</time>
      </trkpt>
      <trkpt lat="44.85585" lon="0.62272">
        <ele>103.1</ele>
        <time>2021-05-17T15:04:09.000Z</time>
      </trkpt>
      <trkpt lat="44.85585" lon="0.62278">
        <ele>102.8</ele>
        <time>2021-05-17T15:04:10.000Z</time>
      </trkpt>
      <trkpt lat="44.85585" lon="0.62282">
        <ele>102.6</ele>
        <time>2021-05-17T15:04:11.000Z</time>
      </trkpt>
      <trkpt lat="44.85585" lon="0.62286">
        <ele>102.3</ele>
        <time>2021-05-17T15:04:12.000Z</time>
      </trkpt>
      <trkpt lat="44.85585" lon="0.62291">
        <ele>102.1</ele>
        <time>2021-05-17T15:04:13.000Z</time>
      </trkpt>
      <trkpt lat="44.85586" lon="0.62295">
        <ele>101.8</ele>
        <time>2021-05-17T15:04:14.000Z</time>
      </trkpt>
      <trkpt lat="44.85586" lon="0.623">
        <ele>101.5</ele>
        <time>2021-05-17T15:04:15.000Z</time>
      </trkpt>
      <trkpt lat="44.85587" lon="0.62304">
        <ele>101.7</ele>
        <time>2021-05-17T15:04:16.000Z</time>
      </trkpt>
      <trkpt lat="44.85588" lon="0.6231">
        <ele>101.1</ele>
        <time>2021-05-17T15:04:17.000Z</time>
      </trkpt>
      <trkpt lat="44.85589" lon="0.62311">
        <ele>101.1</ele>
        <time>2021-05-17T15:04:18.000Z</time>
      </trkpt>
      <trkpt lat="44.85591" lon="0.62316">
        <ele>101</ele>
        <time>2021-05-17T15:04:19.000Z</time>
      </trkpt>
      <trkpt lat="44.85591" lon="0.62321">
        <ele>100.7</ele>
        <time>2021-05-17T15:04:20.000Z</time>
      </trkpt>
      <trkpt lat="44.85591" lon="0.62326">
        <ele>100.1</ele>
        <time>2021-05-17T15:04:21.000Z</time>
      </trkpt>
      <trkpt lat="44.85592" lon="0.62331">
        <ele>99.9</ele>
        <time>2021-05-17T15:04:22.000Z</time>
      </trkpt>
      <trkpt lat="44.85593" lon="0.62336">
        <ele>99.9</ele>
        <time>2021-05-17T15:04:23.000Z</time>
      </trkpt>
      <trkpt lat="44.85594" lon="0.62342">
        <ele>99.7</ele>
        <time>2021-05-17T15:04:24.000Z</time>
      </trkpt>
      <trkpt lat="44.85595" lon="0.62349">
        <ele>99.4</ele>
        <time>2021-05-17T15:04:25.000Z</time>
      </trkpt>
      <trkpt lat="44.85595" lon="0.62355">
        <ele>99.2</ele>
        <time>2021-05-17T15:04:26.000Z</time>
      </trkpt>
      <trkpt lat="44.85596" lon="0.62361">
        <ele>99.2</ele>
        <time>2021-05-17T15:04:27.000Z</time>
      </trkpt>
      <trkpt lat="44.85598" lon="0.62368">
        <ele>99.1</ele>
        <time>2021-05-17T15:04:28.000Z</time>
      </trkpt>
      <trkpt lat="44.85599" lon="0.62375">
        <ele>99</ele>
        <time>2021-05-17T15:04:29.000Z</time>
      </trkpt>
      <trkpt lat="44.856" lon="0.62382">
        <ele>98.8</ele>
        <time>2021-05-17T15:04:30.000Z</time>
      </trkpt>
      <trkpt lat="44.85602" lon="0.62389">
        <ele>98.6</ele>
        <time>2021-05-17T15:04:31.000Z</time>
      </trkpt>
      <trkpt lat="44.85603" lon="0.62396">
        <ele>98.6</ele>
        <time>2021-05-17T15:04:32.000Z</time>
      </trkpt>
      <trkpt lat="44.85603" lon="0.62402">
        <ele>98.5</ele>
        <time>2021-05-17T15:04:33.000Z</time>
      </trkpt>
      <trkpt lat="44.85604" lon="0.62408">
        <ele>98.3</ele>
        <time>2021-05-17T15:04:34.000Z</time>
      </trkpt>
      <trkpt lat="44.85605" lon="0.62415">
        <ele>98.5</ele>
        <time>2021-05-17T15:04:35.000Z</time>
      </trkpt>
      <trkpt lat="44.85606" lon="0.62422">
        <ele>98.5</ele>
        <time>2021-05-17T15:04:36.000Z</time>
      </trkpt>
      <trkpt lat="44.85607" lon="0.62428">
        <ele>98.5</ele>
        <time>2021-05-17T15:04:37.000Z</time>
      </trkpt>
      <trkpt lat="44.85608" lon="0.62435">
        <ele>98.5</ele>
        <time>2021-05-17T15:04:38.000Z</time>
      </trkpt>
      <trkpt lat="44.85609" lon="0.62441">
        <ele>98.9</ele>
        <time>2021-05-17T15:04:39.000Z</time>
      </trkpt>
      <trkpt lat="44.85609" lon="0.62446">
        <ele>98.9</ele>
        <time>2021-05-17T15:04:40.000Z</time>
      </trkpt>
      <trkpt lat="44.8561" lon="0.62453">
        <ele>99</ele>
        <time>2021-05-17T15:04:41.000Z</time>
      </trkpt>
      <trkpt lat="44.85611" lon="0.62459">
        <ele>99.3</ele>
        <time>2021-05-17T15:04:42.000Z</time>
      </trkpt>
      <trkpt lat="44.85612" lon="0.62465">
        <ele>99.3</ele>
        <time>2021-05-17T15:04:43.000Z</time>
      </trkpt>
      <trkpt lat="44.85613" lon="0.62471">
        <ele>99.3</ele>
        <time>2021-05-17T15:04:44.000Z</time>
      </trkpt>
      <trkpt lat="44.85614" lon="0.62478">
        <ele>99.3</ele>
        <time>2021-05-17T15:04:45.000Z</time>
      </trkpt>
      <trkpt lat="44.85615" lon="0.62484">
        <ele>99.5</ele>
        <time>2021-05-17T15:04:46.000Z</time>
      </trkpt>
      <trkpt lat="44.85617" lon="0.6249">
        <ele>99.4</ele>
        <time>2021-05-17T15:04:47.000Z</time>
      </trkpt>
      <trkpt lat="44.85618" lon="0.62497">
        <ele>99.5</ele>
        <time>2021-05-17T15:04:48.000Z</time>
      </trkpt>
      <trkpt lat="44.85619" lon="0.62505">
        <ele>99.3</ele>
        <time>2021-05-17T15:04:49.000Z</time>
      </trkpt>
      <trkpt lat="44.8562" lon="0.62512">
        <ele>99.1</ele>
        <time>2021-05-17T15:04:50.000Z</time>
      </trkpt>
      <trkpt lat="44.85621" lon="0.62519">
        <ele>99.1</ele>
        <time>2021-05-17T15:04:51.000Z</time>
      </trkpt>
      <trkpt lat="44.85623" lon="0.62527">
        <ele>98.9</ele>
        <time>2021-05-17T15:04:52.000Z</time>
      </trkpt>
      <trkpt lat="44.85624" lon="0.62536">
        <ele>98.8</ele>
        <time>2021-05-17T15:04:53.000Z</time>
      </trkpt>
      <trkpt lat="44.85625" lon="0.62544">
        <ele>98.5</ele>
        <time>2021-05-17T15:04:54.000Z</time>
      </trkpt>
      <trkpt lat="44.85627" lon="0.62553">
        <ele>98.3</ele>
        <time>2021-05-17T15:04:55.000Z</time>
      </trkpt>
      <trkpt lat="44.85628" lon="0.62561">
        <ele>97.9</ele>
        <time>2021-05-17T15:04:56.000Z</time>
      </trkpt>
      <trkpt lat="44.85631" lon="0.6257">
        <ele>97.6</ele>
        <time>2021-05-17T15:04:57.000Z</time>
      </trkpt>
      <trkpt lat="44.85634" lon="0.62579">
        <ele>97.2</ele>
        <time>2021-05-17T15:04:58.000Z</time>
      </trkpt>
      <trkpt lat="44.85636" lon="0.62587">
        <ele>97</ele>
        <time>2021-05-17T15:04:59.000Z</time>
      </trkpt>
      <trkpt lat="44.85638" lon="0.62597">
        <ele>96.5</ele>
        <time>2021-05-17T15:05:00.000Z</time>
      </trkpt>
      <trkpt lat="44.85639" lon="0.62606">
        <ele>96.1</ele>
        <time>2021-05-17T15:05:01.000Z</time>
      </trkpt>
      <trkpt lat="44.85641" lon="0.62614">
        <ele>95.8</ele>
        <time>2021-05-17T15:05:02.000Z</time>
      </trkpt>
      <trkpt lat="44.85642" lon="0.62622">
        <ele>95.5</ele>
        <time>2021-05-17T15:05:03.000Z</time>
      </trkpt>
      <trkpt lat="44.85642" lon="0.62628">
        <ele>95</ele>
        <time>2021-05-17T15:05:04.000Z</time>
      </trkpt>
      <trkpt lat="44.85641" lon="0.62633">
        <ele>94.8</ele>
        <time>2021-05-17T15:05:05.000Z</time>
      </trkpt>
      <trkpt lat="44.85639" lon="0.62636">
        <ele>94.7</ele>
        <time>2021-05-17T15:05:06.000Z</time>
      </trkpt>
      <trkpt lat="44.85634" lon="0.62638">
        <ele>94.4</ele>
        <time>2021-05-17T15:05:07.000Z</time>
      </trkpt>
      <trkpt lat="44.85628" lon="0.62639">
        <ele>94.1</ele>
        <time>2021-05-17T15:05:08.000Z</time>
      </trkpt>
      <trkpt lat="44.85623" lon="0.62641">
        <ele>93.7</ele>
        <time>2021-05-17T15:05:09.000Z</time>
      </trkpt>
      <trkpt lat="44.85617" lon="0.62643">
        <ele>93.2</ele>
        <time>2021-05-17T15:05:10.000Z</time>
      </trkpt>
      <trkpt lat="44.85611" lon="0.62646">
        <ele>92.7</ele>
        <time>2021-05-17T15:05:11.000Z</time>
      </trkpt>
      <trkpt lat="44.85605" lon="0.62648">
        <ele>92.2</ele>
        <time>2021-05-17T15:05:12.000Z</time>
      </trkpt>
      <trkpt lat="44.85599" lon="0.62651">
        <ele>91.7</ele>
        <time>2021-05-17T15:05:13.000Z</time>
      </trkpt>
      <trkpt lat="44.85593" lon="0.62653">
        <ele>91.3</ele>
        <time>2021-05-17T15:05:14.000Z</time>
      </trkpt>
      <trkpt lat="44.85586" lon="0.62657">
        <ele>90.8</ele>
        <time>2021-05-17T15:05:15.000Z</time>
      </trkpt>
      <trkpt lat="44.8558" lon="0.6266">
        <ele>90.3</ele>
        <time>2021-05-17T15:05:16.000Z</time>
      </trkpt>
      <trkpt lat="44.85573" lon="0.62663">
        <ele>89.7</ele>
        <time>2021-05-17T15:05:17.000Z</time>
      </trkpt>
      <trkpt lat="44.85567" lon="0.62666">
        <ele>89.2</ele>
        <time>2021-05-17T15:05:18.000Z</time>
      </trkpt>
      <trkpt lat="44.8556" lon="0.62669">
        <ele>88.6</ele>
        <time>2021-05-17T15:05:19.000Z</time>
      </trkpt>
      <trkpt lat="44.85554" lon="0.62673">
        <ele>88.2</ele>
        <time>2021-05-17T15:05:20.000Z</time>
      </trkpt>
      <trkpt lat="44.8555" lon="0.62678">
        <ele>87.8</ele>
        <time>2021-05-17T15:05:21.000Z</time>
      </trkpt>
      <trkpt lat="44.85544" lon="0.62683">
        <ele>87.4</ele>
        <time>2021-05-17T15:05:22.000Z</time>
      </trkpt>
      <trkpt lat="44.85541" lon="0.62686">
        <ele>87.1</ele>
        <time>2021-05-17T15:05:23.000Z</time>
      </trkpt>
      <trkpt lat="44.85539" lon="0.62691">
        <ele>86.9</ele>
        <time>2021-05-17T15:05:24.000Z</time>
      </trkpt>
      <trkpt lat="44.85538" lon="0.62696">
        <ele>86.7</ele>
        <time>2021-05-17T15:05:25.000Z</time>
      </trkpt>
      <trkpt lat="44.85537" lon="0.62702">
        <ele>86.4</ele>
        <time>2021-05-17T15:05:26.000Z</time>
      </trkpt>
      <trkpt lat="44.85537" lon="0.62709">
        <ele>86.1</ele>
        <time>2021-05-17T15:05:27.000Z</time>
      </trkpt>
      <trkpt lat="44.85537" lon="0.62715">
        <ele>85.8</ele>
        <time>2021-05-17T15:05:28.000Z</time>
      </trkpt>
      <trkpt lat="44.85537" lon="0.62721">
        <ele>85.5</ele>
        <time>2021-05-17T15:05:29.000Z</time>
      </trkpt>
      <trkpt lat="44.85535" lon="0.62727">
        <ele>85.2</ele>
        <time>2021-05-17T15:05:30.000Z</time>
      </trkpt>
      <trkpt lat="44.85534" lon="0.62734">
        <ele>84.8</ele>
        <time>2021-05-17T15:05:31.000Z</time>
      </trkpt>
      <trkpt lat="44.85532" lon="0.62741">
        <ele>84.5</ele>
        <time>2021-05-17T15:05:32.000Z</time>
      </trkpt>
      <trkpt lat="44.8553" lon="0.62747">
        <ele>84.1</ele>
        <time>2021-05-17T15:05:33.000Z</time>
      </trkpt>
      <trkpt lat="44.85529" lon="0.62755">
        <ele>83.7</ele>
        <time>2021-05-17T15:05:34.000Z</time>
      </trkpt>
      <trkpt lat="44.85528" lon="0.62761">
        <ele>83.5</ele>
        <time>2021-05-17T15:05:35.000Z</time>
      </trkpt>
      <trkpt lat="44.85528" lon="0.62768">
        <ele>83.2</ele>
        <time>2021-05-17T15:05:36.000Z</time>
      </trkpt>
      <trkpt lat="44.85528" lon="0.62775">
        <ele>82.9</ele>
        <time>2021-05-17T15:05:37.000Z</time>
      </trkpt>
      <trkpt lat="44.85527" lon="0.62781">
        <ele>82.6</ele>
        <time>2021-05-17T15:05:38.000Z</time>
      </trkpt>
      <trkpt lat="44.85525" lon="0.62786">
        <ele>82.4</ele>
        <time>2021-05-17T15:05:39.000Z</time>
      </trkpt>
      <trkpt lat="44.85521" lon="0.62789">
        <ele>82.1</ele>
        <time>2021-05-17T15:05:40.000Z</time>
      </trkpt>
      <trkpt lat="44.85518" lon="0.62791">
        <ele>81.8</ele>
        <time>2021-05-17T15:05:41.000Z</time>
      </trkpt>
      <trkpt lat="44.85513" lon="0.62792">
        <ele>81.5</ele>
        <time>2021-05-17T15:05:42.000Z</time>
      </trkpt>
      <trkpt lat="44.85508" lon="0.62794">
        <ele>81.1</ele>
        <time>2021-05-17T15:05:43.000Z</time>
      </trkpt>
      <trkpt lat="44.85504" lon="0.62798">
        <ele>80.7</ele>
        <time>2021-05-17T15:05:44.000Z</time>
      </trkpt>
      <trkpt lat="44.85501" lon="0.62804">
        <ele>80.2</ele>
        <time>2021-05-17T15:05:45.000Z</time>
      </trkpt>
      <trkpt lat="44.855" lon="0.62809">
        <ele>79.7</ele>
        <time>2021-05-17T15:05:46.000Z</time>
      </trkpt>
      <trkpt lat="44.855" lon="0.62816">
        <ele>79.3</ele>
        <time>2021-05-17T15:05:47.000Z</time>
      </trkpt>
      <trkpt lat="44.855" lon="0.62822">
        <ele>78.7</ele>
        <time>2021-05-17T15:05:48.000Z</time>
      </trkpt>
      <trkpt lat="44.855" lon="0.62829">
        <ele>78.2</ele>
        <time>2021-05-17T15:05:49.000Z</time>
      </trkpt>
      <trkpt lat="44.85498" lon="0.62834">
        <ele>77.8</ele>
        <time>2021-05-17T15:05:50.000Z</time>
      </trkpt>
      <trkpt lat="44.85495" lon="0.62839">
        <ele>77.3</ele>
        <time>2021-05-17T15:05:51.000Z</time>
      </trkpt>
      <trkpt lat="44.85491" lon="0.62842">
        <ele>76.8</ele>
        <time>2021-05-17T15:05:52.000Z</time>
      </trkpt>
      <trkpt lat="44.85485" lon="0.62844">
        <ele>76.2</ele>
        <time>2021-05-17T15:05:53.000Z</time>
      </trkpt>
      <trkpt lat="44.8548" lon="0.62846">
        <ele>75.7</ele>
        <time>2021-05-17T15:05:54.000Z</time>
      </trkpt>
      <trkpt lat="44.85476" lon="0.62847">
        <ele>75.2</ele>
        <time>2021-05-17T15:05:55.000Z</time>
      </trkpt>
      <trkpt lat="44.85467" lon="0.62855">
        <ele>74.1</ele>
        <time>2021-05-17T15:05:57.000Z</time>
      </trkpt>
      <trkpt lat="44.85463" lon="0.62873">
        <ele>72.4</ele>
        <time>2021-05-17T15:05:59.000Z</time>
      </trkpt>
      <trkpt lat="44.85462" lon="0.62883">
        <ele>71.6</ele>
        <time>2021-05-17T15:06:01.000Z</time>
      </trkpt>
      <trkpt lat="44.85461" lon="0.62893">
        <ele>70.9</ele>
        <time>2021-05-17T15:06:02.000Z</time>
      </trkpt>
      <trkpt lat="44.8546" lon="0.62903">
        <ele>70.3</ele>
        <time>2021-05-17T15:06:03.000Z</time>
      </trkpt>
      <trkpt lat="44.85458" lon="0.62911">
        <ele>69.8</ele>
        <time>2021-05-17T15:06:04.000Z</time>
      </trkpt>
      <trkpt lat="44.85456" lon="0.62917">
        <ele>69.6</ele>
        <time>2021-05-17T15:06:05.000Z</time>
      </trkpt>
      <trkpt lat="44.85455" lon="0.62923">
        <ele>69.3</ele>
        <time>2021-05-17T15:06:06.000Z</time>
      </trkpt>
      <trkpt lat="44.85453" lon="0.62928">
        <ele>69.1</ele>
        <time>2021-05-17T15:06:07.000Z</time>
      </trkpt>
      <trkpt lat="44.8545" lon="0.62931">
        <ele>68.8</ele>
        <time>2021-05-17T15:06:08.000Z</time>
      </trkpt>
      <trkpt lat="44.85447" lon="0.62932">
        <ele>68.6</ele>
        <time>2021-05-17T15:06:09.000Z</time>
      </trkpt>
      <trkpt lat="44.85441" lon="0.62932">
        <ele>68.6</ele>
        <time>2021-05-17T15:06:10.000Z</time>
      </trkpt>
      <trkpt lat="44.85437" lon="0.62929">
        <ele>68.3</ele>
        <time>2021-05-17T15:06:11.000Z</time>
      </trkpt>
      <trkpt lat="44.85432" lon="0.62925">
        <ele>68</ele>
        <time>2021-05-17T15:06:12.000Z</time>
      </trkpt>
      <trkpt lat="44.85426" lon="0.62923">
        <ele>67.6</ele>
        <time>2021-05-17T15:06:13.000Z</time>
      </trkpt>
      <trkpt lat="44.85421" lon="0.62919">
        <ele>67.2</ele>
        <time>2021-05-17T15:06:14.000Z</time>
      </trkpt>
      <trkpt lat="44.85408" lon="0.62912">
        <ele>66.3</ele>
        <time>2021-05-17T15:06:15.000Z</time>
      </trkpt>
      <trkpt lat="44.85402" lon="0.62907">
        <ele>65.9</ele>
        <time>2021-05-17T15:06:16.000Z</time>
      </trkpt>
      <trkpt lat="44.85396" lon="0.62901">
        <ele>65.4</ele>
        <time>2021-05-17T15:06:17.000Z</time>
      </trkpt>
      <trkpt lat="44.8539" lon="0.62895">
        <ele>64.9</ele>
        <time>2021-05-17T15:06:18.000Z</time>
      </trkpt>
      <trkpt lat="44.85384" lon="0.62887">
        <ele>64.4</ele>
        <time>2021-05-17T15:06:19.000Z</time>
      </trkpt>
      <trkpt lat="44.85379" lon="0.62879">
        <ele>63.9</ele>
        <time>2021-05-17T15:06:20.000Z</time>
      </trkpt>
      <trkpt lat="44.85374" lon="0.62871">
        <ele>63.4</ele>
        <time>2021-05-17T15:06:21.000Z</time>
      </trkpt>
      <trkpt lat="44.85369" lon="0.62862">
        <ele>62.8</ele>
        <time>2021-05-17T15:06:22.000Z</time>
      </trkpt>
      <trkpt lat="44.85364" lon="0.62853">
        <ele>62.3</ele>
        <time>2021-05-17T15:06:23.000Z</time>
      </trkpt>
      <trkpt lat="44.85358" lon="0.62845">
        <ele>61.9</ele>
        <time>2021-05-17T15:06:24.000Z</time>
      </trkpt>
      <trkpt lat="44.85353" lon="0.62836">
        <ele>61.4</ele>
        <time>2021-05-17T15:06:25.000Z</time>
      </trkpt>
      <trkpt lat="44.85347" lon="0.62826">
        <ele>60.9</ele>
        <time>2021-05-17T15:06:26.000Z</time>
      </trkpt>
      <trkpt lat="44.85342" lon="0.62817">
        <ele>60.3</ele>
        <time>2021-05-17T15:06:27.000Z</time>
      </trkpt>
      <trkpt lat="44.85336" lon="0.62808">
        <ele>59.8</ele>
        <time>2021-05-17T15:06:28.000Z</time>
      </trkpt>
      <trkpt lat="44.85329" lon="0.628">
        <ele>59.3</ele>
        <time>2021-05-17T15:06:29.000Z</time>
      </trkpt>
      <trkpt lat="44.85324" lon="0.6279">
        <ele>58.8</ele>
        <time>2021-05-17T15:06:30.000Z</time>
      </trkpt>
      <trkpt lat="44.8532" lon="0.62778">
        <ele>58.3</ele>
        <time>2021-05-17T15:06:31.000Z</time>
      </trkpt>
      <trkpt lat="44.85318" lon="0.62768">
        <ele>58</ele>
        <time>2021-05-17T15:06:32.000Z</time>
      </trkpt>
      <trkpt lat="44.85317" lon="0.62757">
        <ele>58.1</ele>
        <time>2021-05-17T15:06:33.000Z</time>
      </trkpt>
      <trkpt lat="44.85316" lon="0.62747">
        <ele>58.2</ele>
        <time>2021-05-17T15:06:34.000Z</time>
      </trkpt>
      <trkpt lat="44.85316" lon="0.62737">
        <ele>58.3</ele>
        <time>2021-05-17T15:06:35.000Z</time>
      </trkpt>
      <trkpt lat="44.85314" lon="0.62729">
        <ele>58.3</ele>
        <time>2021-05-17T15:06:36.000Z</time>
      </trkpt>
      <trkpt lat="44.85312" lon="0.6272">
        <ele>58.4</ele>
        <time>2021-05-17T15:06:37.000Z</time>
      </trkpt>
      <trkpt lat="44.8531" lon="0.62711">
        <ele>58.4</ele>
        <time>2021-05-17T15:06:38.000Z</time>
      </trkpt>
      <trkpt lat="44.85308" lon="0.62705">
        <ele>58.4</ele>
        <time>2021-05-17T15:06:39.000Z</time>
      </trkpt>
      <trkpt lat="44.85306" lon="0.62696">
        <ele>58.4</ele>
        <time>2021-05-17T15:06:40.000Z</time>
      </trkpt>
      <trkpt lat="44.85304" lon="0.62688">
        <ele>58.4</ele>
        <time>2021-05-17T15:06:41.000Z</time>
      </trkpt>
      <trkpt lat="44.85302" lon="0.6268">
        <ele>58.4</ele>
        <time>2021-05-17T15:06:42.000Z</time>
      </trkpt>
      <trkpt lat="44.853" lon="0.62671">
        <ele>58.4</ele>
        <time>2021-05-17T15:06:43.000Z</time>
      </trkpt>
      <trkpt lat="44.85299" lon="0.62663">
        <ele>58.4</ele>
        <time>2021-05-17T15:06:44.000Z</time>
      </trkpt>
      <trkpt lat="44.85297" lon="0.62655">
        <ele>58.5</ele>
        <time>2021-05-17T15:06:45.000Z</time>
      </trkpt>
      <trkpt lat="44.85296" lon="0.62647">
        <ele>58.5</ele>
        <time>2021-05-17T15:06:46.000Z</time>
      </trkpt>
      <trkpt lat="44.85294" lon="0.62639">
        <ele>58.6</ele>
        <time>2021-05-17T15:06:47.000Z</time>
      </trkpt>
      <trkpt lat="44.85293" lon="0.6263">
        <ele>58.7</ele>
        <time>2021-05-17T15:06:48.000Z</time>
      </trkpt>
      <trkpt lat="44.85293" lon="0.62622">
        <ele>58.8</ele>
        <time>2021-05-17T15:06:49.000Z</time>
      </trkpt>
      <trkpt lat="44.85292" lon="0.62614">
        <ele>58.9</ele>
        <time>2021-05-17T15:06:50.000Z</time>
      </trkpt>
      <trkpt lat="44.85291" lon="0.62607">
        <ele>59</ele>
        <time>2021-05-17T15:06:51.000Z</time>
      </trkpt>
      <trkpt lat="44.85291" lon="0.62599">
        <ele>59.1</ele>
        <time>2021-05-17T15:06:52.000Z</time>
      </trkpt>
      <trkpt lat="44.8529" lon="0.62592">
        <ele>59.2</ele>
        <time>2021-05-17T15:06:53.000Z</time>
      </trkpt>
      <trkpt lat="44.8529" lon="0.62585">
        <ele>59.4</ele>
        <time>2021-05-17T15:06:54.000Z</time>
      </trkpt>
      <trkpt lat="44.8529" lon="0.62578">
        <ele>59.5</ele>
        <time>2021-05-17T15:06:55.000Z</time>
      </trkpt>
      <trkpt lat="44.85289" lon="0.62571">
        <ele>59.6</ele>
        <time>2021-05-17T15:06:56.000Z</time>
      </trkpt>
      <trkpt lat="44.85289" lon="0.62564">
        <ele>59.7</ele>
        <time>2021-05-17T15:06:57.000Z</time>
      </trkpt>
      <trkpt lat="44.85288" lon="0.62558">
        <ele>59.8</ele>
        <time>2021-05-17T15:06:58.000Z</time>
      </trkpt>
      <trkpt lat="44.85288" lon="0.62552">
        <ele>59.9</ele>
        <time>2021-05-17T15:06:59.000Z</time>
      </trkpt>
      <trkpt lat="44.85288" lon="0.62546">
        <ele>60</ele>
        <time>2021-05-17T15:07:00.000Z</time>
      </trkpt>
      <trkpt lat="44.85287" lon="0.6254">
        <ele>60.1</ele>
        <time>2021-05-17T15:07:01.000Z</time>
      </trkpt>
      <trkpt lat="44.85287" lon="0.62534">
        <ele>60.1</ele>
        <time>2021-05-17T15:07:02.000Z</time>
      </trkpt>
      <trkpt lat="44.85286" lon="0.62528">
        <ele>60.2</ele>
        <time>2021-05-17T15:07:03.000Z</time>
      </trkpt>
      <trkpt lat="44.85286" lon="0.62522">
        <ele>60.2</ele>
        <time>2021-05-17T15:07:04.000Z</time>
      </trkpt>
      <trkpt lat="44.85285" lon="0.62516">
        <ele>60.2</ele>
        <time>2021-05-17T15:07:05.000Z</time>
      </trkpt>
      <trkpt lat="44.85285" lon="0.62511">
        <ele>60.2</ele>
        <time>2021-05-17T15:07:06.000Z</time>
      </trkpt>
      <trkpt lat="44.85283" lon="0.62504">
        <ele>60.1</ele>
        <time>2021-05-17T15:07:07.000Z</time>
      </trkpt>
      <trkpt lat="44.85281" lon="0.62497">
        <ele>60</ele>
        <time>2021-05-17T15:07:08.000Z</time>
      </trkpt>
      <trkpt lat="44.85279" lon="0.62492">
        <ele>59.9</ele>
        <time>2021-05-17T15:07:09.000Z</time>
      </trkpt>
      <trkpt lat="44.85276" lon="0.62487">
        <ele>59.8</ele>
        <time>2021-05-17T15:07:10.000Z</time>
      </trkpt>
      <trkpt lat="44.85272" lon="0.62481">
        <ele>59.6</ele>
        <time>2021-05-17T15:07:11.000Z</time>
      </trkpt>
      <trkpt lat="44.85269" lon="0.62474">
        <ele>59.4</ele>
        <time>2021-05-17T15:07:12.000Z</time>
      </trkpt>
      <trkpt lat="44.85265" lon="0.62468">
        <ele>59.2</ele>
        <time>2021-05-17T15:07:13.000Z</time>
      </trkpt>
      <trkpt lat="44.85262" lon="0.62461">
        <ele>58.9</ele>
        <time>2021-05-17T15:07:14.000Z</time>
      </trkpt>
      <trkpt lat="44.85259" lon="0.62455">
        <ele>58.7</ele>
        <time>2021-05-17T15:07:15.000Z</time>
      </trkpt>
      <trkpt lat="44.85255" lon="0.62449">
        <ele>58.4</ele>
        <time>2021-05-17T15:07:16.000Z</time>
      </trkpt>
      <trkpt lat="44.85252" lon="0.62442">
        <ele>58.2</ele>
        <time>2021-05-17T15:07:17.000Z</time>
      </trkpt>
      <trkpt lat="44.85248" lon="0.62436">
        <ele>58</ele>
        <time>2021-05-17T15:07:18.000Z</time>
      </trkpt>
      <trkpt lat="44.85245" lon="0.62431">
        <ele>57.9</ele>
        <time>2021-05-17T15:07:19.000Z</time>
      </trkpt>
      <trkpt lat="44.85241" lon="0.62423">
        <ele>57.7</ele>
        <time>2021-05-17T15:07:20.000Z</time>
      </trkpt>
      <trkpt lat="44.85237" lon="0.62416">
        <ele>57.5</ele>
        <time>2021-05-17T15:07:21.000Z</time>
      </trkpt>
      <trkpt lat="44.85234" lon="0.62409">
        <ele>57.4</ele>
        <time>2021-05-17T15:07:22.000Z</time>
      </trkpt>
      <trkpt lat="44.8523" lon="0.62403">
        <ele>57.3</ele>
        <time>2021-05-17T15:07:23.000Z</time>
      </trkpt>
      <trkpt lat="44.85227" lon="0.62396">
        <ele>57.3</ele>
        <time>2021-05-17T15:07:24.000Z</time>
      </trkpt>
      <trkpt lat="44.85224" lon="0.62388">
        <ele>57.2</ele>
        <time>2021-05-17T15:07:25.000Z</time>
      </trkpt>
      <trkpt lat="44.8522" lon="0.62381">
        <ele>57.1</ele>
        <time>2021-05-17T15:07:26.000Z</time>
      </trkpt>
      <trkpt lat="44.85217" lon="0.62373">
        <ele>57.1</ele>
        <time>2021-05-17T15:07:27.000Z</time>
      </trkpt>
      <trkpt lat="44.85214" lon="0.62365">
        <ele>57.1</ele>
        <time>2021-05-17T15:07:28.000Z</time>
      </trkpt>
      <trkpt lat="44.85211" lon="0.62358">
        <ele>57.1</ele>
        <time>2021-05-17T15:07:29.000Z</time>
      </trkpt>
      <trkpt lat="44.85208" lon="0.62351">
        <ele>57.2</ele>
        <time>2021-05-17T15:07:30.000Z</time>
      </trkpt>
      <trkpt lat="44.85206" lon="0.62343">
        <ele>57.1</ele>
        <time>2021-05-17T15:07:31.000Z</time>
      </trkpt>
      <trkpt lat="44.85203" lon="0.62335">
        <ele>57.1</ele>
        <time>2021-05-17T15:07:32.000Z</time>
      </trkpt>
      <trkpt lat="44.852" lon="0.62328">
        <ele>57</ele>
        <time>2021-05-17T15:07:33.000Z</time>
      </trkpt>
      <trkpt lat="44.85197" lon="0.62322">
        <ele>57</ele>
        <time>2021-05-17T15:07:34.000Z</time>
      </trkpt>
      <trkpt lat="44.85195" lon="0.62315">
        <ele>56.9</ele>
        <time>2021-05-17T15:07:35.000Z</time>
      </trkpt>
      <trkpt lat="44.85192" lon="0.62307">
        <ele>56.8</ele>
        <time>2021-05-17T15:07:36.000Z</time>
      </trkpt>
      <trkpt lat="44.8519" lon="0.623">
        <ele>56.8</ele>
        <time>2021-05-17T15:07:37.000Z</time>
      </trkpt>
      <trkpt lat="44.85187" lon="0.62293">
        <ele>56.7</ele>
        <time>2021-05-17T15:07:38.000Z</time>
      </trkpt>
      <trkpt lat="44.85184" lon="0.62286">
        <ele>56.6</ele>
        <time>2021-05-17T15:07:39.000Z</time>
      </trkpt>
      <trkpt lat="44.85181" lon="0.62278">
        <ele>56.5</ele>
        <time>2021-05-17T15:07:40.000Z</time>
      </trkpt>
      <trkpt lat="44.85178" lon="0.62271">
        <ele>56.4</ele>
        <time>2021-05-17T15:07:41.000Z</time>
      </trkpt>
      <trkpt lat="44.85175" lon="0.62263">
        <ele>56.3</ele>
        <time>2021-05-17T15:07:42.000Z</time>
      </trkpt>
      <trkpt lat="44.85173" lon="0.62256">
        <ele>56.2</ele>
        <time>2021-05-17T15:07:43.000Z</time>
      </trkpt>
      <trkpt lat="44.8517" lon="0.62249">
        <ele>56.1</ele>
        <time>2021-05-17T15:07:44.000Z</time>
      </trkpt>
      <trkpt lat="44.85167" lon="0.62242">
        <ele>56</ele>
        <time>2021-05-17T15:07:45.000Z</time>
      </trkpt>
      <trkpt lat="44.85164" lon="0.62235">
        <ele>55.9</ele>
        <time>2021-05-17T15:07:46.000Z</time>
      </trkpt>
      <trkpt lat="44.85161" lon="0.62227">
        <ele>55.8</ele>
        <time>2021-05-17T15:07:47.000Z</time>
      </trkpt>
      <trkpt lat="44.85159" lon="0.62221">
        <ele>55.8</ele>
        <time>2021-05-17T15:07:48.000Z</time>
      </trkpt>
      <trkpt lat="44.85156" lon="0.62213">
        <ele>55.9</ele>
        <time>2021-05-17T15:07:49.000Z</time>
      </trkpt>
      <trkpt lat="44.85154" lon="0.62208">
        <ele>55.9</ele>
        <time>2021-05-17T15:07:50.000Z</time>
      </trkpt>
      <trkpt lat="44.85153" lon="0.622">
        <ele>56</ele>
        <time>2021-05-17T15:07:51.000Z</time>
      </trkpt>
      <trkpt lat="44.85152" lon="0.62194">
        <ele>56.2</ele>
        <time>2021-05-17T15:07:52.000Z</time>
      </trkpt>
      <trkpt lat="44.85151" lon="0.62189">
        <ele>56</ele>
        <time>2021-05-17T15:07:53.000Z</time>
      </trkpt>
      <trkpt lat="44.8515" lon="0.62185">
        <ele>55.8</ele>
        <time>2021-05-17T15:07:54.000Z</time>
      </trkpt>
      <trkpt lat="44.85148" lon="0.62181">
        <ele>55.7</ele>
        <time>2021-05-17T15:07:55.000Z</time>
      </trkpt>
      <trkpt lat="44.85147" lon="0.62176">
        <ele>55.5</ele>
        <time>2021-05-17T15:07:56.000Z</time>
      </trkpt>
      <trkpt lat="44.85146" lon="0.62171">
        <ele>55.3</ele>
        <time>2021-05-17T15:07:57.000Z</time>
      </trkpt>
      <trkpt lat="44.85145" lon="0.62166">
        <ele>55.1</ele>
        <time>2021-05-17T15:07:58.000Z</time>
      </trkpt>
      <trkpt lat="44.85144" lon="0.6216">
        <ele>54.8</ele>
        <time>2021-05-17T15:07:59.000Z</time>
      </trkpt>
      <trkpt lat="44.85143" lon="0.62155">
        <ele>54.6</ele>
        <time>2021-05-17T15:08:00.000Z</time>
      </trkpt>
      <trkpt lat="44.85142" lon="0.6215">
        <ele>54.4</ele>
        <time>2021-05-17T15:08:01.000Z</time>
      </trkpt>
      <trkpt lat="44.85141" lon="0.62144">
        <ele>54.1</ele>
        <time>2021-05-17T15:08:02.000Z</time>
      </trkpt>
      <trkpt lat="44.8514" lon="0.62139">
        <ele>53.9</ele>
        <time>2021-05-17T15:08:03.000Z</time>
      </trkpt>
      <trkpt lat="44.85139" lon="0.62135">
        <ele>53.7</ele>
        <time>2021-05-17T15:08:04.000Z</time>
      </trkpt>
      <trkpt lat="44.85137" lon="0.62131">
        <ele>53.5</ele>
        <time>2021-05-17T15:08:05.000Z</time>
      </trkpt>
      <trkpt lat="44.85136" lon="0.62126">
        <ele>53.3</ele>
        <time>2021-05-17T15:08:06.000Z</time>
      </trkpt>
      <trkpt lat="44.85135" lon="0.6212">
        <ele>53.1</ele>
        <time>2021-05-17T15:08:07.000Z</time>
      </trkpt>
      <trkpt lat="44.85133" lon="0.62115">
        <ele>52.9</ele>
        <time>2021-05-17T15:08:08.000Z</time>
      </trkpt>
      <trkpt lat="44.85132" lon="0.62109">
        <ele>52.7</ele>
        <time>2021-05-17T15:08:09.000Z</time>
      </trkpt>
      <trkpt lat="44.85131" lon="0.62104">
        <ele>52.5</ele>
        <time>2021-05-17T15:08:10.000Z</time>
      </trkpt>
      <trkpt lat="44.8513" lon="0.62098">
        <ele>52.3</ele>
        <time>2021-05-17T15:08:11.000Z</time>
      </trkpt>
      <trkpt lat="44.85128" lon="0.62092">
        <ele>52.1</ele>
        <time>2021-05-17T15:08:12.000Z</time>
      </trkpt>
      <trkpt lat="44.85127" lon="0.62087">
        <ele>51.9</ele>
        <time>2021-05-17T15:08:13.000Z</time>
      </trkpt>
      <trkpt lat="44.85127" lon="0.6208">
        <ele>51.6</ele>
        <time>2021-05-17T15:08:14.000Z</time>
      </trkpt>
      <trkpt lat="44.85126" lon="0.62073">
        <ele>51.3</ele>
        <time>2021-05-17T15:08:15.000Z</time>
      </trkpt>
      <trkpt lat="44.85125" lon="0.62068">
        <ele>51.1</ele>
        <time>2021-05-17T15:08:16.000Z</time>
      </trkpt>
      <trkpt lat="44.85124" lon="0.62061">
        <ele>50.8</ele>
        <time>2021-05-17T15:08:17.000Z</time>
      </trkpt>
      <trkpt lat="44.85123" lon="0.62054">
        <ele>50.5</ele>
        <time>2021-05-17T15:08:18.000Z</time>
      </trkpt>
      <trkpt lat="44.85122" lon="0.62048">
        <ele>50.3</ele>
        <time>2021-05-17T15:08:19.000Z</time>
      </trkpt>
      <trkpt lat="44.85121" lon="0.62042">
        <ele>50</ele>
        <time>2021-05-17T15:08:20.000Z</time>
      </trkpt>
      <trkpt lat="44.8512" lon="0.62036">
        <ele>49.7</ele>
        <time>2021-05-17T15:08:21.000Z</time>
      </trkpt>
      <trkpt lat="44.85118" lon="0.6203">
        <ele>49.4</ele>
        <time>2021-05-17T15:08:22.000Z</time>
      </trkpt>
      <trkpt lat="44.85117" lon="0.62024">
        <ele>49.1</ele>
        <time>2021-05-17T15:08:23.000Z</time>
      </trkpt>
      <trkpt lat="44.85116" lon="0.62016">
        <ele>48.7</ele>
        <time>2021-05-17T15:08:24.000Z</time>
      </trkpt>
      <trkpt lat="44.85116" lon="0.62009">
        <ele>48.3</ele>
        <time>2021-05-17T15:08:25.000Z</time>
      </trkpt>
      <trkpt lat="44.85115" lon="0.62001">
        <ele>47.8</ele>
        <time>2021-05-17T15:08:26.000Z</time>
      </trkpt>
      <trkpt lat="44.85115" lon="0.61994">
        <ele>47.4</ele>
        <time>2021-05-17T15:08:27.000Z</time>
      </trkpt>
      <trkpt lat="44.85115" lon="0.61986">
        <ele>46.9</ele>
        <time>2021-05-17T15:08:28.000Z</time>
      </trkpt>
      <trkpt lat="44.85115" lon="0.61978">
        <ele>46.4</ele>
        <time>2021-05-17T15:08:29.000Z</time>
      </trkpt>
      <trkpt lat="44.85117" lon="0.61969">
        <ele>45.9</ele>
        <time>2021-05-17T15:08:30.000Z</time>
      </trkpt>
      <trkpt lat="44.85118" lon="0.61959">
        <ele>45.3</ele>
        <time>2021-05-17T15:08:31.000Z</time>
      </trkpt>
      <trkpt lat="44.85121" lon="0.61949">
        <ele>45</ele>
        <time>2021-05-17T15:08:32.000Z</time>
      </trkpt>
      <trkpt lat="44.85122" lon="0.6194">
        <ele>44.8</ele>
        <time>2021-05-17T15:08:33.000Z</time>
      </trkpt>
      <trkpt lat="44.85124" lon="0.61931">
        <ele>44.7</ele>
        <time>2021-05-17T15:08:34.000Z</time>
      </trkpt>
      <trkpt lat="44.85126" lon="0.61922">
        <ele>44.5</ele>
        <time>2021-05-17T15:08:35.000Z</time>
      </trkpt>
      <trkpt lat="44.85128" lon="0.61914">
        <ele>44.4</ele>
        <time>2021-05-17T15:08:36.000Z</time>
      </trkpt>
      <trkpt lat="44.8513" lon="0.61906">
        <ele>44.2</ele>
        <time>2021-05-17T15:08:37.000Z</time>
      </trkpt>
      <trkpt lat="44.85131" lon="0.61897">
        <ele>44.1</ele>
        <time>2021-05-17T15:08:38.000Z</time>
      </trkpt>
      <trkpt lat="44.85132" lon="0.61889">
        <ele>43.9</ele>
        <time>2021-05-17T15:08:39.000Z</time>
      </trkpt>
      <trkpt lat="44.85134" lon="0.6188">
        <ele>43.8</ele>
        <time>2021-05-17T15:08:40.000Z</time>
      </trkpt>
      <trkpt lat="44.85135" lon="0.61871">
        <ele>43.6</ele>
        <time>2021-05-17T15:08:41.000Z</time>
      </trkpt>
      <trkpt lat="44.85137" lon="0.61863">
        <ele>43.5</ele>
        <time>2021-05-17T15:08:42.000Z</time>
      </trkpt>
      <trkpt lat="44.85139" lon="0.61855">
        <ele>43.4</ele>
        <time>2021-05-17T15:08:43.000Z</time>
      </trkpt>
      <trkpt lat="44.8514" lon="0.61847">
        <ele>43.2</ele>
        <time>2021-05-17T15:08:44.000Z</time>
      </trkpt>
      <trkpt lat="44.85141" lon="0.61838">
        <ele>43.1</ele>
        <time>2021-05-17T15:08:45.000Z</time>
      </trkpt>
      <trkpt lat="44.85142" lon="0.6183">
        <ele>42.8</ele>
        <time>2021-05-17T15:08:46.000Z</time>
      </trkpt>
      <trkpt lat="44.85143" lon="0.61823">
        <ele>42.8</ele>
        <time>2021-05-17T15:08:47.000Z</time>
      </trkpt>
      <trkpt lat="44.85145" lon="0.61814">
        <ele>41.3</ele>
        <time>2021-05-17T15:08:48.000Z</time>
      </trkpt>
      <trkpt lat="44.85146" lon="0.61806">
        <ele>41.2</ele>
        <time>2021-05-17T15:08:49.000Z</time>
      </trkpt>
      <trkpt lat="44.85148" lon="0.61799">
        <ele>41.2</ele>
        <time>2021-05-17T15:08:50.000Z</time>
      </trkpt>
      <trkpt lat="44.85149" lon="0.61792">
        <ele>41.2</ele>
        <time>2021-05-17T15:08:51.000Z</time>
      </trkpt>
      <trkpt lat="44.85151" lon="0.61785">
        <ele>41.2</ele>
        <time>2021-05-17T15:08:52.000Z</time>
      </trkpt>
      <trkpt lat="44.85153" lon="0.61778">
        <ele>41.1</ele>
        <time>2021-05-17T15:08:53.000Z</time>
      </trkpt>
      <trkpt lat="44.85154" lon="0.61771">
        <ele>41.1</ele>
        <time>2021-05-17T15:08:54.000Z</time>
      </trkpt>
      <trkpt lat="44.85155" lon="0.61763">
        <ele>41.1</ele>
        <time>2021-05-17T15:08:55.000Z</time>
      </trkpt>
      <trkpt lat="44.85155" lon="0.61756">
        <ele>41.1</ele>
        <time>2021-05-17T15:08:56.000Z</time>
      </trkpt>
      <trkpt lat="44.85157" lon="0.61748">
        <ele>41</ele>
        <time>2021-05-17T15:08:57.000Z</time>
      </trkpt>
      <trkpt lat="44.85158" lon="0.6174">
        <ele>41</ele>
        <time>2021-05-17T15:08:58.000Z</time>
      </trkpt>
      <trkpt lat="44.85161" lon="0.61733">
        <ele>41</ele>
        <time>2021-05-17T15:08:59.000Z</time>
      </trkpt>
      <trkpt lat="44.85162" lon="0.61726">
        <ele>40.9</ele>
        <time>2021-05-17T15:09:00.000Z</time>
      </trkpt>
      <trkpt lat="44.85164" lon="0.61719">
        <ele>40.9</ele>
        <time>2021-05-17T15:09:01.000Z</time>
      </trkpt>
      <trkpt lat="44.85166" lon="0.61713">
        <ele>40.9</ele>
        <time>2021-05-17T15:09:02.000Z</time>
      </trkpt>
      <trkpt lat="44.85168" lon="0.61705">
        <ele>40.8</ele>
        <time>2021-05-17T15:09:03.000Z</time>
      </trkpt>
      <trkpt lat="44.8517" lon="0.61699">
        <ele>40.8</ele>
        <time>2021-05-17T15:09:04.000Z</time>
      </trkpt>
      <trkpt lat="44.85171" lon="0.61693">
        <ele>40.8</ele>
        <time>2021-05-17T15:09:05.000Z</time>
      </trkpt>
      <trkpt lat="44.85173" lon="0.61687">
        <ele>40.7</ele>
        <time>2021-05-17T15:09:06.000Z</time>
      </trkpt>
      <trkpt lat="44.85174" lon="0.6168">
        <ele>40.7</ele>
        <time>2021-05-17T15:09:07.000Z</time>
      </trkpt>
      <trkpt lat="44.85175" lon="0.61674">
        <ele>40.7</ele>
        <time>2021-05-17T15:09:08.000Z</time>
      </trkpt>
      <trkpt lat="44.85176" lon="0.61667">
        <ele>40.7</ele>
        <time>2021-05-17T15:09:09.000Z</time>
      </trkpt>
      <trkpt lat="44.85178" lon="0.6166">
        <ele>40.6</ele>
        <time>2021-05-17T15:09:10.000Z</time>
      </trkpt>
      <trkpt lat="44.8518" lon="0.61654">
        <ele>40.6</ele>
        <time>2021-05-17T15:09:11.000Z</time>
      </trkpt>
      <trkpt lat="44.85182" lon="0.61649">
        <ele>40.6</ele>
        <time>2021-05-17T15:09:12.000Z</time>
      </trkpt>
      <trkpt lat="44.85183" lon="0.61643">
        <ele>40.6</ele>
        <time>2021-05-17T15:09:13.000Z</time>
      </trkpt>
      <trkpt lat="44.85185" lon="0.61636">
        <ele>40.6</ele>
        <time>2021-05-17T15:09:14.000Z</time>
      </trkpt>
      <trkpt lat="44.85187" lon="0.61629">
        <ele>40.6</ele>
        <time>2021-05-17T15:09:15.000Z</time>
      </trkpt>
      <trkpt lat="44.85189" lon="0.61622">
        <ele>40.6</ele>
        <time>2021-05-17T15:09:16.000Z</time>
      </trkpt>
      <trkpt lat="44.8519" lon="0.61615">
        <ele>40.5</ele>
        <time>2021-05-17T15:09:17.000Z</time>
      </trkpt>
      <trkpt lat="44.85192" lon="0.61608">
        <ele>40.5</ele>
        <time>2021-05-17T15:09:18.000Z</time>
      </trkpt>
      <trkpt lat="44.85193" lon="0.61602">
        <ele>40.5</ele>
        <time>2021-05-17T15:09:19.000Z</time>
      </trkpt>
      <trkpt lat="44.85195" lon="0.61596">
        <ele>40.5</ele>
        <time>2021-05-17T15:09:20.000Z</time>
      </trkpt>
      <trkpt lat="44.85197" lon="0.61589">
        <ele>40.4</ele>
        <time>2021-05-17T15:09:21.000Z</time>
      </trkpt>
      <trkpt lat="44.85199" lon="0.61582">
        <ele>40.4</ele>
        <time>2021-05-17T15:09:22.000Z</time>
      </trkpt>
      <trkpt lat="44.85201" lon="0.61575">
        <ele>40.4</ele>
        <time>2021-05-17T15:09:23.000Z</time>
      </trkpt>
      <trkpt lat="44.85203" lon="0.61568">
        <ele>40.4</ele>
        <time>2021-05-17T15:09:24.000Z</time>
      </trkpt>
      <trkpt lat="44.85204" lon="0.61561">
        <ele>40.4</ele>
        <time>2021-05-17T15:09:25.000Z</time>
      </trkpt>
      <trkpt lat="44.85205" lon="0.61555">
        <ele>40.4</ele>
        <time>2021-05-17T15:09:26.000Z</time>
      </trkpt>
      <trkpt lat="44.85208" lon="0.61549">
        <ele>40.4</ele>
        <time>2021-05-17T15:09:27.000Z</time>
      </trkpt>
      <trkpt lat="44.85209" lon="0.61544">
        <ele>40.4</ele>
        <time>2021-05-17T15:09:28.000Z</time>
      </trkpt>
      <trkpt lat="44.8521" lon="0.61539">
        <ele>40.4</ele>
        <time>2021-05-17T15:09:29.000Z</time>
      </trkpt>
      <trkpt lat="44.85212" lon="0.61533">
        <ele>40.4</ele>
        <time>2021-05-17T15:09:30.000Z</time>
      </trkpt>
      <trkpt lat="44.85214" lon="0.61526">
        <ele>40.3</ele>
        <time>2021-05-17T15:09:31.000Z</time>
      </trkpt>
      <trkpt lat="44.85216" lon="0.6152">
        <ele>40.3</ele>
        <time>2021-05-17T15:09:32.000Z</time>
      </trkpt>
      <trkpt lat="44.85218" lon="0.61513">
        <ele>40.3</ele>
        <time>2021-05-17T15:09:33.000Z</time>
      </trkpt>
      <trkpt lat="44.8522" lon="0.61506">
        <ele>40.3</ele>
        <time>2021-05-17T15:09:34.000Z</time>
      </trkpt>
      <trkpt lat="44.85221" lon="0.61502">
        <ele>40.3</ele>
        <time>2021-05-17T15:09:35.000Z</time>
      </trkpt>
      <trkpt lat="44.85223" lon="0.61496">
        <ele>40.3</ele>
        <time>2021-05-17T15:09:36.000Z</time>
      </trkpt>
      <trkpt lat="44.85224" lon="0.6149">
        <ele>40.3</ele>
        <time>2021-05-17T15:09:37.000Z</time>
      </trkpt>
      <trkpt lat="44.85226" lon="0.61484">
        <ele>40.3</ele>
        <time>2021-05-17T15:09:38.000Z</time>
      </trkpt>
      <trkpt lat="44.85228" lon="0.61479">
        <ele>40.3</ele>
        <time>2021-05-17T15:09:39.000Z</time>
      </trkpt>
      <trkpt lat="44.85229" lon="0.61473">
        <ele>40.3</ele>
        <time>2021-05-17T15:09:40.000Z</time>
      </trkpt>
      <trkpt lat="44.85231" lon="0.61467">
        <ele>40.3</ele>
        <time>2021-05-17T15:09:41.000Z</time>
      </trkpt>
      <trkpt lat="44.85233" lon="0.61461">
        <ele>40.3</ele>
        <time>2021-05-17T15:09:42.000Z</time>
      </trkpt>
      <trkpt lat="44.85234" lon="0.61454">
        <ele>40.3</ele>
        <time>2021-05-17T15:09:43.000Z</time>
      </trkpt>
      <trkpt lat="44.85237" lon="0.61449">
        <ele>40.2</ele>
        <time>2021-05-17T15:09:44.000Z</time>
      </trkpt>
      <trkpt lat="44.85237" lon="0.61444">
        <ele>40.2</ele>
        <time>2021-05-17T15:09:45.000Z</time>
      </trkpt>
      <trkpt lat="44.85239" lon="0.61438">
        <ele>40.2</ele>
        <time>2021-05-17T15:09:46.000Z</time>
      </trkpt>
      <trkpt lat="44.8524" lon="0.61431">
        <ele>40.2</ele>
        <time>2021-05-17T15:09:47.000Z</time>
      </trkpt>
      <trkpt lat="44.85242" lon="0.61424">
        <ele>40.2</ele>
        <time>2021-05-17T15:09:48.000Z</time>
      </trkpt>
      <trkpt lat="44.85245" lon="0.61417">
        <ele>40.2</ele>
        <time>2021-05-17T15:09:49.000Z</time>
      </trkpt>
      <trkpt lat="44.85247" lon="0.6141">
        <ele>40.1</ele>
        <time>2021-05-17T15:09:50.000Z</time>
      </trkpt>
      <trkpt lat="44.85249" lon="0.61404">
        <ele>40.1</ele>
        <time>2021-05-17T15:09:51.000Z</time>
      </trkpt>
      <trkpt lat="44.8525" lon="0.61399">
        <ele>40.1</ele>
        <time>2021-05-17T15:09:52.000Z</time>
      </trkpt>
      <trkpt lat="44.85251" lon="0.61394">
        <ele>40.1</ele>
        <time>2021-05-17T15:09:53.000Z</time>
      </trkpt>
      <trkpt lat="44.85252" lon="0.61389">
        <ele>40.1</ele>
        <time>2021-05-17T15:09:54.000Z</time>
      </trkpt>
      <trkpt lat="44.85254" lon="0.61383">
        <ele>40.1</ele>
        <time>2021-05-17T15:09:55.000Z</time>
      </trkpt>
      <trkpt lat="44.85255" lon="0.61377">
        <ele>40.1</ele>
        <time>2021-05-17T15:09:56.000Z</time>
      </trkpt>
      <trkpt lat="44.85257" lon="0.61372">
        <ele>40.1</ele>
        <time>2021-05-17T15:09:57.000Z</time>
      </trkpt>
      <trkpt lat="44.85258" lon="0.61368">
        <ele>40.1</ele>
        <time>2021-05-17T15:09:58.000Z</time>
      </trkpt>
      <trkpt lat="44.8526" lon="0.61362">
        <ele>40</ele>
        <time>2021-05-17T15:09:59.000Z</time>
      </trkpt>
      <trkpt lat="44.85261" lon="0.61357">
        <ele>40</ele>
        <time>2021-05-17T15:10:00.000Z</time>
      </trkpt>
      <trkpt lat="44.85262" lon="0.61351">
        <ele>40</ele>
        <time>2021-05-17T15:10:01.000Z</time>
      </trkpt>
      <trkpt lat="44.85263" lon="0.61347">
        <ele>40</ele>
        <time>2021-05-17T15:10:02.000Z</time>
      </trkpt>
      <trkpt lat="44.85265" lon="0.61342">
        <ele>40</ele>
        <time>2021-05-17T15:10:03.000Z</time>
      </trkpt>
      <trkpt lat="44.85267" lon="0.61335">
        <ele>40</ele>
        <time>2021-05-17T15:10:04.000Z</time>
      </trkpt>
      <trkpt lat="44.85268" lon="0.61331">
        <ele>39.9</ele>
        <time>2021-05-17T15:10:05.000Z</time>
      </trkpt>
      <trkpt lat="44.8527" lon="0.61326">
        <ele>39.9</ele>
        <time>2021-05-17T15:10:06.000Z</time>
      </trkpt>
      <trkpt lat="44.85271" lon="0.61321">
        <ele>39.9</ele>
        <time>2021-05-17T15:10:07.000Z</time>
      </trkpt>
      <trkpt lat="44.85273" lon="0.61316">
        <ele>39.9</ele>
        <time>2021-05-17T15:10:08.000Z</time>
      </trkpt>
      <trkpt lat="44.85274" lon="0.61311">
        <ele>39.9</ele>
        <time>2021-05-17T15:10:09.000Z</time>
      </trkpt>
      <trkpt lat="44.85276" lon="0.61304">
        <ele>39.9</ele>
        <time>2021-05-17T15:10:10.000Z</time>
      </trkpt>
      <trkpt lat="44.85277" lon="0.61297">
        <ele>39.9</ele>
        <time>2021-05-17T15:10:11.000Z</time>
      </trkpt>
      <trkpt lat="44.85278" lon="0.61291">
        <ele>39.9</ele>
        <time>2021-05-17T15:10:12.000Z</time>
      </trkpt>
      <trkpt lat="44.8528" lon="0.61284">
        <ele>39.9</ele>
        <time>2021-05-17T15:10:13.000Z</time>
      </trkpt>
      <trkpt lat="44.85283" lon="0.61277">
        <ele>39.8</ele>
        <time>2021-05-17T15:10:14.000Z</time>
      </trkpt>
      <trkpt lat="44.85284" lon="0.61272">
        <ele>39.8</ele>
        <time>2021-05-17T15:10:15.000Z</time>
      </trkpt>
      <trkpt lat="44.85286" lon="0.61267">
        <ele>39.8</ele>
        <time>2021-05-17T15:10:16.000Z</time>
      </trkpt>
      <trkpt lat="44.85286" lon="0.6126">
        <ele>39.8</ele>
        <time>2021-05-17T15:10:17.000Z</time>
      </trkpt>
      <trkpt lat="44.85288" lon="0.61256">
        <ele>39.8</ele>
        <time>2021-05-17T15:10:18.000Z</time>
      </trkpt>
      <trkpt lat="44.8529" lon="0.61249">
        <ele>39.8</ele>
        <time>2021-05-17T15:10:19.000Z</time>
      </trkpt>
      <trkpt lat="44.85293" lon="0.61242">
        <ele>39.8</ele>
        <time>2021-05-17T15:10:20.000Z</time>
      </trkpt>
      <trkpt lat="44.85295" lon="0.61235">
        <ele>39.7</ele>
        <time>2021-05-17T15:10:21.000Z</time>
      </trkpt>
      <trkpt lat="44.85296" lon="0.61229">
        <ele>39.7</ele>
        <time>2021-05-17T15:10:22.000Z</time>
      </trkpt>
      <trkpt lat="44.85297" lon="0.61222">
        <ele>39.7</ele>
        <time>2021-05-17T15:10:23.000Z</time>
      </trkpt>
      <trkpt lat="44.85298" lon="0.61218">
        <ele>39.6</ele>
        <time>2021-05-17T15:10:24.000Z</time>
      </trkpt>
      <trkpt lat="44.853" lon="0.61209">
        <ele>39.6</ele>
        <time>2021-05-17T15:10:25.000Z</time>
      </trkpt>
      <trkpt lat="44.85303" lon="0.61201">
        <ele>39.6</ele>
        <time>2021-05-17T15:10:26.000Z</time>
      </trkpt>
      <trkpt lat="44.85305" lon="0.61195">
        <ele>39.5</ele>
        <time>2021-05-17T15:10:27.000Z</time>
      </trkpt>
      <trkpt lat="44.85306" lon="0.61191">
        <ele>39.5</ele>
        <time>2021-05-17T15:10:28.000Z</time>
      </trkpt>
      <trkpt lat="44.85307" lon="0.61186">
        <ele>39.5</ele>
        <time>2021-05-17T15:10:29.000Z</time>
      </trkpt>
      <trkpt lat="44.85309" lon="0.6118">
        <ele>39.4</ele>
        <time>2021-05-17T15:10:30.000Z</time>
      </trkpt>
      <trkpt lat="44.85312" lon="0.61173">
        <ele>39.4</ele>
        <time>2021-05-17T15:10:31.000Z</time>
      </trkpt>
      <trkpt lat="44.85313" lon="0.61168">
        <ele>39.4</ele>
        <time>2021-05-17T15:10:32.000Z</time>
      </trkpt>
      <trkpt lat="44.85315" lon="0.61162">
        <ele>39.3</ele>
        <time>2021-05-17T15:10:33.000Z</time>
      </trkpt>
      <trkpt lat="44.85316" lon="0.61156">
        <ele>39.3</ele>
        <time>2021-05-17T15:10:34.000Z</time>
      </trkpt>
      <trkpt lat="44.85318" lon="0.61149">
        <ele>39.3</ele>
        <time>2021-05-17T15:10:35.000Z</time>
      </trkpt>
      <trkpt lat="44.85319" lon="0.61142">
        <ele>39.3</ele>
        <time>2021-05-17T15:10:36.000Z</time>
      </trkpt>
      <trkpt lat="44.85321" lon="0.61137">
        <ele>39.2</ele>
        <time>2021-05-17T15:10:37.000Z</time>
      </trkpt>
      <trkpt lat="44.85323" lon="0.61134">
        <ele>39.2</ele>
        <time>2021-05-17T15:10:38.000Z</time>
      </trkpt>
      <trkpt lat="44.85325" lon="0.61128">
        <ele>39.2</ele>
        <time>2021-05-17T15:10:39.000Z</time>
      </trkpt>
      <trkpt lat="44.85327" lon="0.61122">
        <ele>39.2</ele>
        <time>2021-05-17T15:10:40.000Z</time>
      </trkpt>
      <trkpt lat="44.85328" lon="0.61118">
        <ele>39.2</ele>
        <time>2021-05-17T15:10:41.000Z</time>
      </trkpt>
      <trkpt lat="44.8533" lon="0.61112">
        <ele>39.1</ele>
        <time>2021-05-17T15:10:42.000Z</time>
      </trkpt>
      <trkpt lat="44.85332" lon="0.61105">
        <ele>39.1</ele>
        <time>2021-05-17T15:10:43.000Z</time>
      </trkpt>
      <trkpt lat="44.85334" lon="0.61096">
        <ele>39.1</ele>
        <time>2021-05-17T15:10:44.000Z</time>
      </trkpt>
      <trkpt lat="44.85335" lon="0.6109">
        <ele>39.1</ele>
        <time>2021-05-17T15:10:45.000Z</time>
      </trkpt>
      <trkpt lat="44.85337" lon="0.61083">
        <ele>39.1</ele>
        <time>2021-05-17T15:10:46.000Z</time>
      </trkpt>
      <trkpt lat="44.85338" lon="0.61076">
        <ele>39.1</ele>
        <time>2021-05-17T15:10:47.000Z</time>
      </trkpt>
      <trkpt lat="44.85339" lon="0.6107">
        <ele>39.1</ele>
        <time>2021-05-17T15:10:48.000Z</time>
      </trkpt>
      <trkpt lat="44.85341" lon="0.61063">
        <ele>39.1</ele>
        <time>2021-05-17T15:10:49.000Z</time>
      </trkpt>
      <trkpt lat="44.85343" lon="0.61059">
        <ele>39</ele>
        <time>2021-05-17T15:10:50.000Z</time>
      </trkpt>
      <trkpt lat="44.85344" lon="0.61053">
        <ele>39</ele>
        <time>2021-05-17T15:10:51.000Z</time>
      </trkpt>
      <trkpt lat="44.85346" lon="0.61048">
        <ele>39</ele>
        <time>2021-05-17T15:10:52.000Z</time>
      </trkpt>
      <trkpt lat="44.85348" lon="0.61042">
        <ele>39</ele>
        <time>2021-05-17T15:10:53.000Z</time>
      </trkpt>
      <trkpt lat="44.8535" lon="0.61036">
        <ele>39</ele>
        <time>2021-05-17T15:10:54.000Z</time>
      </trkpt>
      <trkpt lat="44.85351" lon="0.6103">
        <ele>39</ele>
        <time>2021-05-17T15:10:55.000Z</time>
      </trkpt>
      <trkpt lat="44.85353" lon="0.61023">
        <ele>39</ele>
        <time>2021-05-17T15:10:56.000Z</time>
      </trkpt>
      <trkpt lat="44.85354" lon="0.61019">
        <ele>39</ele>
        <time>2021-05-17T15:10:57.000Z</time>
      </trkpt>
      <trkpt lat="44.85355" lon="0.61015">
        <ele>38.9</ele>
        <time>2021-05-17T15:10:58.000Z</time>
      </trkpt>
      <trkpt lat="44.85356" lon="0.61011">
        <ele>38.9</ele>
        <time>2021-05-17T15:10:59.000Z</time>
      </trkpt>
      <trkpt lat="44.85357" lon="0.61006">
        <ele>38.9</ele>
        <time>2021-05-17T15:11:00.000Z</time>
      </trkpt>
      <trkpt lat="44.85357" lon="0.61004">
        <ele>38.9</ele>
        <time>2021-05-17T15:11:01.000Z</time>
      </trkpt>
      <trkpt lat="44.85359" lon="0.60999">
        <ele>38.9</ele>
        <time>2021-05-17T15:11:02.000Z</time>
      </trkpt>
      <trkpt lat="44.85359" lon="0.60996">
        <ele>38.9</ele>
        <time>2021-05-17T15:11:03.000Z</time>
      </trkpt>
      <trkpt lat="44.8536" lon="0.60991">
        <ele>38.9</ele>
        <time>2021-05-17T15:11:04.000Z</time>
      </trkpt>
      <trkpt lat="44.85361" lon="0.60987">
        <ele>38.9</ele>
        <time>2021-05-17T15:11:05.000Z</time>
      </trkpt>
      <trkpt lat="44.85362" lon="0.60982">
        <ele>38.9</ele>
        <time>2021-05-17T15:11:06.000Z</time>
      </trkpt>
      <trkpt lat="44.85362" lon="0.60977">
        <ele>38.9</ele>
        <time>2021-05-17T15:11:07.000Z</time>
      </trkpt>
      <trkpt lat="44.85364" lon="0.60973">
        <ele>38.9</ele>
        <time>2021-05-17T15:11:08.000Z</time>
      </trkpt>
      <trkpt lat="44.85366" lon="0.60967">
        <ele>38.9</ele>
        <time>2021-05-17T15:11:09.000Z</time>
      </trkpt>
      <trkpt lat="44.85369" lon="0.60962">
        <ele>38.9</ele>
        <time>2021-05-17T15:11:10.000Z</time>
      </trkpt>
      <trkpt lat="44.85369" lon="0.60956">
        <ele>38.9</ele>
        <time>2021-05-17T15:11:11.000Z</time>
      </trkpt>
      <trkpt lat="44.8537" lon="0.6095">
        <ele>38.9</ele>
        <time>2021-05-17T15:11:12.000Z</time>
      </trkpt>
      <trkpt lat="44.85368" lon="0.60946">
        <ele>38.9</ele>
        <time>2021-05-17T15:11:13.000Z</time>
      </trkpt>
      <trkpt lat="44.85368" lon="0.6094">
        <ele>38.9</ele>
        <time>2021-05-17T15:11:14.000Z</time>
      </trkpt>
      <trkpt lat="44.85367" lon="0.60939">
        <ele>38.9</ele>
        <time>2021-05-17T15:11:15.000Z</time>
      </trkpt>
      <trkpt lat="44.85367" lon="0.60933">
        <ele>38.9</ele>
        <time>2021-05-17T15:11:16.000Z</time>
      </trkpt>
      <trkpt lat="44.85367" lon="0.60931">
        <ele>38.9</ele>
        <time>2021-05-17T15:11:17.000Z</time>
      </trkpt>
      <trkpt lat="44.85368" lon="0.60926">
        <ele>38.8</ele>
        <time>2021-05-17T15:11:18.000Z</time>
      </trkpt>
      <trkpt lat="44.85367" lon="0.60921">
        <ele>38.8</ele>
        <time>2021-05-17T15:11:19.000Z</time>
      </trkpt>
      <trkpt lat="44.85367" lon="0.6092">
        <ele>38.8</ele>
        <time>2021-05-17T15:11:20.000Z</time>
      </trkpt>
      <trkpt lat="44.85367" lon="0.60917">
        <ele>38.8</ele>
        <time>2021-05-17T15:11:21.000Z</time>
      </trkpt>
      <trkpt lat="44.85367" lon="0.60916">
        <ele>38.8</ele>
        <time>2021-05-17T15:11:22.000Z</time>
      </trkpt>
      <trkpt lat="44.85367" lon="0.60915">
        <ele>38.8</ele>
        <time>2021-05-17T15:11:23.000Z</time>
      </trkpt>
      <trkpt lat="44.85368" lon="0.60913">
        <ele>38.8</ele>
        <time>2021-05-17T15:11:24.000Z</time>
      </trkpt>
      <trkpt lat="44.85366" lon="0.60912">
        <ele>38.8</ele>
        <time>2021-05-17T15:11:25.000Z</time>
      </trkpt>
      <trkpt lat="44.85365" lon="0.6091">
        <ele>38.8</ele>
        <time>2021-05-17T15:11:26.000Z</time>
      </trkpt>
      <trkpt lat="44.85365" lon="0.60907">
        <ele>38.8</ele>
        <time>2021-05-17T15:11:27.000Z</time>
      </trkpt>
      <trkpt lat="44.85365" lon="0.60905">
        <ele>38.8</ele>
        <time>2021-05-17T15:11:28.000Z</time>
      </trkpt>
      <trkpt lat="44.85365" lon="0.60905">
        <ele>38.8</ele>
        <time>2021-05-17T15:11:29.000Z</time>
      </trkpt>
      <trkpt lat="44.85365" lon="0.60905">
        <ele>38.8</ele>
        <time>2021-05-17T15:11:30.000Z</time>
      </trkpt>
      <trkpt lat="44.85364" lon="0.60903">
        <ele>38.8</ele>
        <time>2021-05-17T15:11:31.000Z</time>
      </trkpt>
      <trkpt lat="44.85361" lon="0.60904">
        <ele>38.8</ele>
        <time>2021-05-17T15:11:32.000Z</time>
      </trkpt>
      <trkpt lat="44.85359" lon="0.60904">
        <ele>38.8</ele>
        <time>2021-05-17T15:11:33.000Z</time>
      </trkpt>
      <trkpt lat="44.85356" lon="0.60904">
        <ele>38.8</ele>
        <time>2021-05-17T15:11:34.000Z</time>
      </trkpt>
      <trkpt lat="44.85353" lon="0.60904">
        <ele>38.8</ele>
        <time>2021-05-17T15:11:35.000Z</time>
      </trkpt>
      <trkpt lat="44.8535" lon="0.60905">
        <ele>38.8</ele>
        <time>2021-05-17T15:11:36.000Z</time>
      </trkpt>
      <trkpt lat="44.85348" lon="0.60905">
        <ele>38.8</ele>
        <time>2021-05-17T15:11:37.000Z</time>
      </trkpt>
      <trkpt lat="44.85345" lon="0.60906">
        <ele>38.8</ele>
        <time>2021-05-17T15:11:38.000Z</time>
      </trkpt>
      <trkpt lat="44.85341" lon="0.60907">
        <ele>38.8</ele>
        <time>2021-05-17T15:11:39.000Z</time>
      </trkpt>
      <trkpt lat="44.85337" lon="0.60907">
        <ele>38.8</ele>
        <time>2021-05-17T15:11:40.000Z</time>
      </trkpt>
      <trkpt lat="44.85334" lon="0.60908">
        <ele>38.8</ele>
        <time>2021-05-17T15:11:41.000Z</time>
      </trkpt>
      <trkpt lat="44.85331" lon="0.60909">
        <ele>38.8</ele>
        <time>2021-05-17T15:11:42.000Z</time>
      </trkpt>
      <trkpt lat="44.85327" lon="0.6091">
        <ele>38.8</ele>
        <time>2021-05-17T15:11:43.000Z</time>
      </trkpt>
      <trkpt lat="44.85327" lon="0.6091">
        <ele>38.8</ele>
        <time>2021-05-17T15:11:44.000Z</time>
      </trkpt>
      <trkpt lat="44.85326" lon="0.60911">
        <ele>38.8</ele>
        <time>2021-05-17T15:11:45.000Z</time>
      </trkpt>
      <trkpt lat="44.85324" lon="0.60912">
        <ele>38.8</ele>
        <time>2021-05-17T15:11:46.000Z</time>
      </trkpt>
      <trkpt lat="44.8532" lon="0.60912">
        <ele>38.8</ele>
        <time>2021-05-17T15:11:47.000Z</time>
      </trkpt>
      <trkpt lat="44.85319" lon="0.60912">
        <ele>38.8</ele>
        <time>2021-05-17T15:11:48.000Z</time>
      </trkpt>
      <trkpt lat="44.85314" lon="0.60913">
        <ele>38.8</ele>
        <time>2021-05-17T15:11:49.000Z</time>
      </trkpt>
      <trkpt lat="44.85313" lon="0.60913">
        <ele>38.8</ele>
        <time>2021-05-17T15:11:50.000Z</time>
      </trkpt>
      <trkpt lat="44.85312" lon="0.60914">
        <ele>38.8</ele>
        <time>2021-05-17T15:11:51.000Z</time>
      </trkpt>
      <trkpt lat="44.85311" lon="0.60915">
        <ele>38.8</ele>
        <time>2021-05-17T15:11:52.000Z</time>
      </trkpt>
      <trkpt lat="44.8531" lon="0.60915">
        <ele>38.8</ele>
        <time>2021-05-17T15:11:53.000Z</time>
      </trkpt>
      <trkpt lat="44.8531" lon="0.60915">
        <ele>38.8</ele>
        <time>2021-05-17T15:11:54.000Z</time>
      </trkpt>
      <trkpt lat="44.8531" lon="0.60915">
        <ele>38.8</ele>
        <time>2021-05-17T15:11:55.000Z</time>
      </trkpt>
      <trkpt lat="44.85308" lon="0.60915">
        <ele>38.8</ele>
        <time>2021-05-17T15:11:56.000Z</time>
      </trkpt>
      <trkpt lat="44.85307" lon="0.60914">
        <ele>38.8</ele>
        <time>2021-05-17T15:11:57.000Z</time>
      </trkpt>
      <trkpt lat="44.85306" lon="0.60912">
        <ele>38.8</ele>
        <time>2021-05-17T15:11:58.000Z</time>
      </trkpt>
      <trkpt lat="44.85305" lon="0.6091">
        <ele>38.8</ele>
        <time>2021-05-17T15:11:59.000Z</time>
      </trkpt>
      <trkpt lat="44.85303" lon="0.60907">
        <ele>38.8</ele>
        <time>2021-05-17T15:12:00.000Z</time>
      </trkpt>
      <trkpt lat="44.85302" lon="0.60906">
        <ele>38.8</ele>
        <time>2021-05-17T15:12:01.000Z</time>
      </trkpt>
      <trkpt lat="44.853" lon="0.60904">
        <ele>38.8</ele>
        <time>2021-05-17T15:12:02.000Z</time>
      </trkpt>
      <trkpt lat="44.85299" lon="0.60904">
        <ele>38.8</ele>
        <time>2021-05-17T15:12:03.000Z</time>
      </trkpt>
      <trkpt lat="44.85296" lon="0.60902">
        <ele>38.8</ele>
        <time>2021-05-17T15:12:04.000Z</time>
      </trkpt>
      <trkpt lat="44.85295" lon="0.60902">
        <ele>38.8</ele>
        <time>2021-05-17T15:12:05.000Z</time>
      </trkpt>
      <trkpt lat="44.85291" lon="0.60904">
        <ele>38.9</ele>
        <time>2021-05-17T15:12:06.000Z</time>
      </trkpt>
      <trkpt lat="44.85288" lon="0.60907">
        <ele>38.9</ele>
        <time>2021-05-17T15:12:07.000Z</time>
      </trkpt>
      <trkpt lat="44.85286" lon="0.60911">
        <ele>38.9</ele>
        <time>2021-05-17T15:12:08.000Z</time>
      </trkpt>
      <trkpt lat="44.85283" lon="0.60914">
        <ele>38.9</ele>
        <time>2021-05-17T15:12:09.000Z</time>
      </trkpt>
      <trkpt lat="44.85281" lon="0.60919">
        <ele>38.9</ele>
        <time>2021-05-17T15:12:10.000Z</time>
      </trkpt>
      <trkpt lat="44.85279" lon="0.60922">
        <ele>38.9</ele>
        <time>2021-05-17T15:12:11.000Z</time>
      </trkpt>
      <trkpt lat="44.85277" lon="0.60926">
        <ele>38.9</ele>
        <time>2021-05-17T15:12:12.000Z</time>
      </trkpt>
      <trkpt lat="44.85276" lon="0.6093">
        <ele>38.9</ele>
        <time>2021-05-17T15:12:13.000Z</time>
      </trkpt>
      <trkpt lat="44.85274" lon="0.60935">
        <ele>38.9</ele>
        <time>2021-05-17T15:12:14.000Z</time>
      </trkpt>
      <trkpt lat="44.85274" lon="0.60937">
        <ele>38.9</ele>
        <time>2021-05-17T15:12:15.000Z</time>
      </trkpt>
      <trkpt lat="44.85272" lon="0.60941">
        <ele>38.9</ele>
        <time>2021-05-17T15:12:16.000Z</time>
      </trkpt>
      <trkpt lat="44.85271" lon="0.60945">
        <ele>38.9</ele>
        <time>2021-05-17T15:12:17.000Z</time>
      </trkpt>
      <trkpt lat="44.85268" lon="0.60949">
        <ele>38.9</ele>
        <time>2021-05-17T15:12:18.000Z</time>
      </trkpt>
      <trkpt lat="44.85267" lon="0.6095">
        <ele>38.8</ele>
        <time>2021-05-17T15:12:19.000Z</time>
      </trkpt>
      <trkpt lat="44.85265" lon="0.60953">
        <ele>38.9</ele>
        <time>2021-05-17T15:12:20.000Z</time>
      </trkpt>
      <trkpt lat="44.85263" lon="0.60954">
        <ele>38.8</ele>
        <time>2021-05-17T15:12:21.000Z</time>
      </trkpt>
      <trkpt lat="44.8526" lon="0.60953">
        <ele>38.8</ele>
        <time>2021-05-17T15:12:22.000Z</time>
      </trkpt>
      <trkpt lat="44.85257" lon="0.60955">
        <ele>38.8</ele>
        <time>2021-05-17T15:12:23.000Z</time>
      </trkpt>
      <trkpt lat="44.85256" lon="0.60955">
        <ele>38.7</ele>
        <time>2021-05-17T15:12:24.000Z</time>
      </trkpt>
      <trkpt lat="44.85254" lon="0.60959">
        <ele>38.8</ele>
        <time>2021-05-17T15:12:25.000Z</time>
      </trkpt>
      <trkpt lat="44.85253" lon="0.60964">
        <ele>38.9</ele>
        <time>2021-05-17T15:12:26.000Z</time>
      </trkpt>
      <trkpt lat="44.85251" lon="0.60969">
        <ele>38.9</ele>
        <time>2021-05-17T15:12:27.000Z</time>
      </trkpt>
      <trkpt lat="44.85249" lon="0.60974">
        <ele>39</ele>
        <time>2021-05-17T15:12:28.000Z</time>
      </trkpt>
      <trkpt lat="44.85248" lon="0.60979">
        <ele>39</ele>
        <time>2021-05-17T15:12:29.000Z</time>
      </trkpt>
      <trkpt lat="44.85247" lon="0.60983">
        <ele>39.1</ele>
        <time>2021-05-17T15:12:30.000Z</time>
      </trkpt>
      <trkpt lat="44.85245" lon="0.60987">
        <ele>39</ele>
        <time>2021-05-17T15:12:31.000Z</time>
      </trkpt>
      <trkpt lat="44.85242" lon="0.60991">
        <ele>39</ele>
        <time>2021-05-17T15:12:32.000Z</time>
      </trkpt>
      <trkpt lat="44.85239" lon="0.60992">
        <ele>38.9</ele>
        <time>2021-05-17T15:12:33.000Z</time>
      </trkpt>
      <trkpt lat="44.85234" lon="0.60992">
        <ele>38.9</ele>
        <time>2021-05-17T15:12:34.000Z</time>
      </trkpt>
      <trkpt lat="44.85233" lon="0.60992">
        <ele>38.8</ele>
        <time>2021-05-17T15:12:35.000Z</time>
      </trkpt>
      <trkpt lat="44.85228" lon="0.60994">
        <ele>38.8</ele>
        <time>2021-05-17T15:12:36.000Z</time>
      </trkpt>
      <trkpt lat="44.85226" lon="0.60995">
        <ele>38.7</ele>
        <time>2021-05-17T15:12:37.000Z</time>
      </trkpt>
      <trkpt lat="44.85222" lon="0.60998">
        <ele>38.7</ele>
        <time>2021-05-17T15:12:38.000Z</time>
      </trkpt>
      <trkpt lat="44.8522" lon="0.60999">
        <ele>38.6</ele>
        <time>2021-05-17T15:12:39.000Z</time>
      </trkpt>
      <trkpt lat="44.85216" lon="0.60999">
        <ele>38.5</ele>
        <time>2021-05-17T15:12:40.000Z</time>
      </trkpt>
      <trkpt lat="44.85212" lon="0.61001">
        <ele>38.4</ele>
        <time>2021-05-17T15:12:41.000Z</time>
      </trkpt>
      <trkpt lat="44.85209" lon="0.61002">
        <ele>38.3</ele>
        <time>2021-05-17T15:12:42.000Z</time>
      </trkpt>
      <trkpt lat="44.85206" lon="0.61003">
        <ele>38.2</ele>
        <time>2021-05-17T15:12:43.000Z</time>
      </trkpt>
      <trkpt lat="44.85203" lon="0.61004">
        <ele>38.1</ele>
        <time>2021-05-17T15:12:44.000Z</time>
      </trkpt>
      <trkpt lat="44.852" lon="0.61005">
        <ele>37.9</ele>
        <time>2021-05-17T15:12:45.000Z</time>
      </trkpt>
      <trkpt lat="44.85196" lon="0.61007">
        <ele>37.8</ele>
        <time>2021-05-17T15:12:46.000Z</time>
      </trkpt>
      <trkpt lat="44.85192" lon="0.6101">
        <ele>37.6</ele>
        <time>2021-05-17T15:12:47.000Z</time>
      </trkpt>
      <trkpt lat="44.8519" lon="0.61013">
        <ele>37.5</ele>
        <time>2021-05-17T15:12:48.000Z</time>
      </trkpt>
      <trkpt lat="44.85189" lon="0.61014">
        <ele>37.5</ele>
        <time>2021-05-17T15:12:49.000Z</time>
      </trkpt>
      <trkpt lat="44.85187" lon="0.61019">
        <ele>37.4</ele>
        <time>2021-05-17T15:12:50.000Z</time>
      </trkpt>
      <trkpt lat="44.85185" lon="0.61023">
        <ele>37.2</ele>
        <time>2021-05-17T15:12:51.000Z</time>
      </trkpt>
      <trkpt lat="44.85182" lon="0.61027">
        <ele>37.1</ele>
        <time>2021-05-17T15:12:52.000Z</time>
      </trkpt>
      <trkpt lat="44.85181" lon="0.61031">
        <ele>37.1</ele>
        <time>2021-05-17T15:12:53.000Z</time>
      </trkpt>
      <trkpt lat="44.85179" lon="0.61034">
        <ele>37</ele>
        <time>2021-05-17T15:12:54.000Z</time>
      </trkpt>
      <trkpt lat="44.85178" lon="0.61037">
        <ele>36.9</ele>
        <time>2021-05-17T15:12:55.000Z</time>
      </trkpt>
      <trkpt lat="44.85177" lon="0.61041">
        <ele>36.9</ele>
        <time>2021-05-17T15:12:56.000Z</time>
      </trkpt>
      <trkpt lat="44.85175" lon="0.61045">
        <ele>36.7</ele>
        <time>2021-05-17T15:12:57.000Z</time>
      </trkpt>
      <trkpt lat="44.85171" lon="0.61047">
        <ele>36.5</ele>
        <time>2021-05-17T15:12:58.000Z</time>
      </trkpt>
      <trkpt lat="44.85169" lon="0.61051">
        <ele>36.4</ele>
        <time>2021-05-17T15:12:59.000Z</time>
      </trkpt>
      <trkpt lat="44.85165" lon="0.61056">
        <ele>36.2</ele>
        <time>2021-05-17T15:13:00.000Z</time>
      </trkpt>
      <trkpt lat="44.85164" lon="0.61058">
        <ele>36.1</ele>
        <time>2021-05-17T15:13:01.000Z</time>
      </trkpt>
      <trkpt lat="44.85162" lon="0.61062">
        <ele>36.1</ele>
        <time>2021-05-17T15:13:02.000Z</time>
      </trkpt>
      <trkpt lat="44.8516" lon="0.61066">
        <ele>36</ele>
        <time>2021-05-17T15:13:03.000Z</time>
      </trkpt>
      <trkpt lat="44.85158" lon="0.6107">
        <ele>35.8</ele>
        <time>2021-05-17T15:13:04.000Z</time>
      </trkpt>
      <trkpt lat="44.85157" lon="0.61075">
        <ele>35.9</ele>
        <time>2021-05-17T15:13:05.000Z</time>
      </trkpt>
      <trkpt lat="44.85155" lon="0.61079">
        <ele>35.9</ele>
        <time>2021-05-17T15:13:06.000Z</time>
      </trkpt>
      <trkpt lat="44.85154" lon="0.61083">
        <ele>35.7</ele>
        <time>2021-05-17T15:13:07.000Z</time>
      </trkpt>
      <trkpt lat="44.85153" lon="0.61088">
        <ele>35.8</ele>
        <time>2021-05-17T15:13:08.000Z</time>
      </trkpt>
      <trkpt lat="44.85151" lon="0.61092">
        <ele>35.6</ele>
        <time>2021-05-17T15:13:09.000Z</time>
      </trkpt>
      <trkpt lat="44.85149" lon="0.61097">
        <ele>35.6</ele>
        <time>2021-05-17T15:13:10.000Z</time>
      </trkpt>
      <trkpt lat="44.85149" lon="0.61099">
        <ele>35.4</ele>
        <time>2021-05-17T15:13:11.000Z</time>
      </trkpt>
      <trkpt lat="44.85147" lon="0.61103">
        <ele>35.4</ele>
        <time>2021-05-17T15:13:12.000Z</time>
      </trkpt>
      <trkpt lat="44.85146" lon="0.61106">
        <ele>35.2</ele>
        <time>2021-05-17T15:13:13.000Z</time>
      </trkpt>
      <trkpt lat="44.85145" lon="0.61107">
        <ele>35.2</ele>
        <time>2021-05-17T15:13:14.000Z</time>
      </trkpt>
      <trkpt lat="44.85144" lon="0.61109">
        <ele>35.2</ele>
        <time>2021-05-17T15:13:15.000Z</time>
      </trkpt>
      <trkpt lat="44.85143" lon="0.6111">
        <ele>35.2</ele>
        <time>2021-05-17T15:13:16.000Z</time>
      </trkpt>
      <trkpt lat="44.85139" lon="0.61108">
        <ele>34.7</ele>
        <time>2021-05-17T15:13:17.000Z</time>
      </trkpt>
      <trkpt lat="44.85137" lon="0.61108">
        <ele>34.7</ele>
        <time>2021-05-17T15:13:18.000Z</time>
      </trkpt>
      <trkpt lat="44.85134" lon="0.61107">
        <ele>34.3</ele>
        <time>2021-05-17T15:13:19.000Z</time>
      </trkpt>
      <trkpt lat="44.8513" lon="0.61108">
        <ele>33.8</ele>
        <time>2021-05-17T15:13:20.000Z</time>
      </trkpt>
      <trkpt lat="44.85129" lon="0.6111">
        <ele>33.8</ele>
        <time>2021-05-17T15:13:21.000Z</time>
      </trkpt>
      <trkpt lat="44.85127" lon="0.61111">
        <ele>33.5</ele>
        <time>2021-05-17T15:13:22.000Z</time>
      </trkpt>
      <trkpt lat="44.85125" lon="0.61112">
        <ele>33.5</ele>
        <time>2021-05-17T15:13:23.000Z</time>
      </trkpt>
      <trkpt lat="44.85124" lon="0.61111">
        <ele>33.3</ele>
        <time>2021-05-17T15:13:24.000Z</time>
      </trkpt>
      <trkpt lat="44.85122" lon="0.61112">
        <ele>33.3</ele>
        <time>2021-05-17T15:13:25.000Z</time>
      </trkpt>
      <trkpt lat="44.85121" lon="0.61112">
        <ele>33</ele>
        <time>2021-05-17T15:13:26.000Z</time>
      </trkpt>
      <trkpt lat="44.85121" lon="0.61112">
        <ele>33</ele>
        <time>2021-05-17T15:13:27.000Z</time>
      </trkpt>
      <trkpt lat="44.85119" lon="0.61113">
        <ele>33</ele>
        <time>2021-05-17T15:13:28.000Z</time>
      </trkpt>
      <trkpt lat="44.85118" lon="0.61114">
        <ele>32.7</ele>
        <time>2021-05-17T15:13:29.000Z</time>
      </trkpt>
      <trkpt lat="44.85115" lon="0.61116">
        <ele>32.4</ele>
        <time>2021-05-17T15:13:30.000Z</time>
      </trkpt>
      <trkpt lat="44.85113" lon="0.61117">
        <ele>32.4</ele>
        <time>2021-05-17T15:13:31.000Z</time>
      </trkpt>
      <trkpt lat="44.8511" lon="0.61119">
        <ele>32.2</ele>
        <time>2021-05-17T15:13:32.000Z</time>
      </trkpt>
      <trkpt lat="44.85107" lon="0.61119">
        <ele>31.9</ele>
        <time>2021-05-17T15:13:33.000Z</time>
      </trkpt>
      <trkpt lat="44.85106" lon="0.61119">
        <ele>31.6</ele>
        <time>2021-05-17T15:13:34.000Z</time>
      </trkpt>
      <trkpt lat="44.85104" lon="0.61116">
        <ele>31.6</ele>
        <time>2021-05-17T15:13:35.000Z</time>
      </trkpt>
      <trkpt lat="44.85102" lon="0.61111">
        <ele>31.3</ele>
        <time>2021-05-17T15:13:36.000Z</time>
      </trkpt>
      <trkpt lat="44.85101" lon="0.61106">
        <ele>31.3</ele>
        <time>2021-05-17T15:13:37.000Z</time>
      </trkpt>
      <trkpt lat="44.851" lon="0.61102">
        <ele>31.1</ele>
        <time>2021-05-17T15:13:38.000Z</time>
      </trkpt>
      <trkpt lat="44.851" lon="0.61095">
        <ele>31.6</ele>
        <time>2021-05-17T15:13:39.000Z</time>
      </trkpt>
      <trkpt lat="44.85099" lon="0.61089">
        <ele>31.7</ele>
        <time>2021-05-17T15:13:40.000Z</time>
      </trkpt>
      <trkpt lat="44.85098" lon="0.61085">
        <ele>31.9</ele>
        <time>2021-05-17T15:13:41.000Z</time>
      </trkpt>
      <trkpt lat="44.85096" lon="0.6108">
        <ele>31.5</ele>
        <time>2021-05-17T15:13:42.000Z</time>
      </trkpt>
      <trkpt lat="44.85096" lon="0.61074">
        <ele>31.4</ele>
        <time>2021-05-17T15:13:43.000Z</time>
      </trkpt>
      <trkpt lat="44.85097" lon="0.61069">
        <ele>31.1</ele>
        <time>2021-05-17T15:13:44.000Z</time>
      </trkpt>
      <trkpt lat="44.85098" lon="0.61064">
        <ele>31.1</ele>
        <time>2021-05-17T15:13:45.000Z</time>
      </trkpt>
      <trkpt lat="44.85098" lon="0.6106">
        <ele>31.1</ele>
        <time>2021-05-17T15:13:46.000Z</time>
      </trkpt>
      <trkpt lat="44.85099" lon="0.61053">
        <ele>31.1</ele>
        <time>2021-05-17T15:13:47.000Z</time>
      </trkpt>
      <trkpt lat="44.851" lon="0.6105">
        <ele>31.1</ele>
        <time>2021-05-17T15:13:48.000Z</time>
      </trkpt>
      <trkpt lat="44.85103" lon="0.61043">
        <ele>31.1</ele>
        <time>2021-05-17T15:13:49.000Z</time>
      </trkpt>
      <trkpt lat="44.85105" lon="0.61036">
        <ele>31.1</ele>
        <time>2021-05-17T15:13:50.000Z</time>
      </trkpt>
      <trkpt lat="44.85106" lon="0.61028">
        <ele>31.1</ele>
        <time>2021-05-17T15:13:51.000Z</time>
      </trkpt>
      <trkpt lat="44.85107" lon="0.61021">
        <ele>31.2</ele>
        <time>2021-05-17T15:13:52.000Z</time>
      </trkpt>
      <trkpt lat="44.85109" lon="0.61014">
        <ele>31.2</ele>
        <time>2021-05-17T15:13:53.000Z</time>
      </trkpt>
      <trkpt lat="44.85111" lon="0.61007">
        <ele>31.2</ele>
        <time>2021-05-17T15:13:54.000Z</time>
      </trkpt>
      <trkpt lat="44.85114" lon="0.60999">
        <ele>31.2</ele>
        <time>2021-05-17T15:13:55.000Z</time>
      </trkpt>
      <trkpt lat="44.85116" lon="0.60992">
        <ele>31.2</ele>
        <time>2021-05-17T15:13:56.000Z</time>
      </trkpt>
      <trkpt lat="44.85118" lon="0.60986">
        <ele>31.2</ele>
        <time>2021-05-17T15:13:57.000Z</time>
      </trkpt>
      <trkpt lat="44.8512" lon="0.60978">
        <ele>31.3</ele>
        <time>2021-05-17T15:13:58.000Z</time>
      </trkpt>
      <trkpt lat="44.85122" lon="0.6097">
        <ele>31.3</ele>
        <time>2021-05-17T15:13:59.000Z</time>
      </trkpt>
      <trkpt lat="44.85124" lon="0.60965">
        <ele>31.4</ele>
        <time>2021-05-17T15:14:00.000Z</time>
      </trkpt>
      <trkpt lat="44.85126" lon="0.60959">
        <ele>31.4</ele>
        <time>2021-05-17T15:14:01.000Z</time>
      </trkpt>
      <trkpt lat="44.85129" lon="0.60954">
        <ele>31.5</ele>
        <time>2021-05-17T15:14:02.000Z</time>
      </trkpt>
      <trkpt lat="44.8513" lon="0.60947">
        <ele>31.5</ele>
        <time>2021-05-17T15:14:03.000Z</time>
      </trkpt>
      <trkpt lat="44.85132" lon="0.60942">
        <ele>31.6</ele>
        <time>2021-05-17T15:14:04.000Z</time>
      </trkpt>
      <trkpt lat="44.85134" lon="0.60936">
        <ele>31.6</ele>
        <time>2021-05-17T15:14:05.000Z</time>
      </trkpt>
      <trkpt lat="44.85136" lon="0.60929">
        <ele>31.7</ele>
        <time>2021-05-17T15:14:06.000Z</time>
      </trkpt>
      <trkpt lat="44.85138" lon="0.60922">
        <ele>31.8</ele>
        <time>2021-05-17T15:14:07.000Z</time>
      </trkpt>
      <trkpt lat="44.8514" lon="0.60916">
        <ele>31.8</ele>
        <time>2021-05-17T15:14:08.000Z</time>
      </trkpt>
      <trkpt lat="44.85142" lon="0.60909">
        <ele>31.9</ele>
        <time>2021-05-17T15:14:09.000Z</time>
      </trkpt>
      <trkpt lat="44.85145" lon="0.60902">
        <ele>32</ele>
        <time>2021-05-17T15:14:10.000Z</time>
      </trkpt>
      <trkpt lat="44.85147" lon="0.60895">
        <ele>32</ele>
        <time>2021-05-17T15:14:11.000Z</time>
      </trkpt>
      <trkpt lat="44.85149" lon="0.60887">
        <ele>32</ele>
        <time>2021-05-17T15:14:12.000Z</time>
      </trkpt>
      <trkpt lat="44.85151" lon="0.60881">
        <ele>32</ele>
        <time>2021-05-17T15:14:13.000Z</time>
      </trkpt>
      <trkpt lat="44.85152" lon="0.60875">
        <ele>32</ele>
        <time>2021-05-17T15:14:14.000Z</time>
      </trkpt>
      <trkpt lat="44.85154" lon="0.60868">
        <ele>32</ele>
        <time>2021-05-17T15:14:15.000Z</time>
      </trkpt>
      <trkpt lat="44.85155" lon="0.60861">
        <ele>32</ele>
        <time>2021-05-17T15:14:16.000Z</time>
      </trkpt>
      <trkpt lat="44.85158" lon="0.60853">
        <ele>31.9</ele>
        <time>2021-05-17T15:14:17.000Z</time>
      </trkpt>
      <trkpt lat="44.85158" lon="0.60847">
        <ele>31.9</ele>
        <time>2021-05-17T15:14:18.000Z</time>
      </trkpt>
      <trkpt lat="44.8516" lon="0.60842">
        <ele>31.8</ele>
        <time>2021-05-17T15:14:19.000Z</time>
      </trkpt>
      <trkpt lat="44.85162" lon="0.60837">
        <ele>31.8</ele>
        <time>2021-05-17T15:14:20.000Z</time>
      </trkpt>
      <trkpt lat="44.85164" lon="0.60831">
        <ele>31.7</ele>
        <time>2021-05-17T15:14:21.000Z</time>
      </trkpt>
      <trkpt lat="44.85167" lon="0.60823">
        <ele>31.6</ele>
        <time>2021-05-17T15:14:22.000Z</time>
      </trkpt>
      <trkpt lat="44.85169" lon="0.60816">
        <ele>31.5</ele>
        <time>2021-05-17T15:14:23.000Z</time>
      </trkpt>
      <trkpt lat="44.85171" lon="0.60808">
        <ele>31.4</ele>
        <time>2021-05-17T15:14:24.000Z</time>
      </trkpt>
      <trkpt lat="44.85174" lon="0.60799">
        <ele>31.2</ele>
        <time>2021-05-17T15:14:25.000Z</time>
      </trkpt>
      <trkpt lat="44.85177" lon="0.60793">
        <ele>31.1</ele>
        <time>2021-05-17T15:14:26.000Z</time>
      </trkpt>
      <trkpt lat="44.85179" lon="0.60785">
        <ele>31</ele>
        <time>2021-05-17T15:14:27.000Z</time>
      </trkpt>
      <trkpt lat="44.85182" lon="0.60779">
        <ele>30.9</ele>
        <time>2021-05-17T15:14:28.000Z</time>
      </trkpt>
      <trkpt lat="44.85186" lon="0.60775">
        <ele>30.8</ele>
        <time>2021-05-17T15:14:29.000Z</time>
      </trkpt>
      <trkpt lat="44.85191" lon="0.6077">
        <ele>30.7</ele>
        <time>2021-05-17T15:14:30.000Z</time>
      </trkpt>
      <trkpt lat="44.85196" lon="0.60763">
        <ele>30.5</ele>
        <time>2021-05-17T15:14:31.000Z</time>
      </trkpt>
      <trkpt lat="44.852" lon="0.60756">
        <ele>30.4</ele>
        <time>2021-05-17T15:14:32.000Z</time>
      </trkpt>
      <trkpt lat="44.85203" lon="0.60749">
        <ele>30.2</ele>
        <time>2021-05-17T15:14:33.000Z</time>
      </trkpt>
      <trkpt lat="44.85206" lon="0.60743">
        <ele>30.2</ele>
        <time>2021-05-17T15:14:34.000Z</time>
      </trkpt>
      <trkpt lat="44.85207" lon="0.60737">
        <ele>30.1</ele>
        <time>2021-05-17T15:14:35.000Z</time>
      </trkpt>
      <trkpt lat="44.85209" lon="0.60729">
        <ele>30.1</ele>
        <time>2021-05-17T15:14:36.000Z</time>
      </trkpt>
      <trkpt lat="44.85212" lon="0.60722">
        <ele>30.1</ele>
        <time>2021-05-17T15:14:37.000Z</time>
      </trkpt>
      <trkpt lat="44.85213" lon="0.60714">
        <ele>30.1</ele>
        <time>2021-05-17T15:14:38.000Z</time>
      </trkpt>
      <trkpt lat="44.85214" lon="0.60706">
        <ele>30.1</ele>
        <time>2021-05-17T15:14:39.000Z</time>
      </trkpt>
      <trkpt lat="44.85215" lon="0.60698">
        <ele>30.1</ele>
        <time>2021-05-17T15:14:40.000Z</time>
      </trkpt>
      <trkpt lat="44.85217" lon="0.60688">
        <ele>30.2</ele>
        <time>2021-05-17T15:14:41.000Z</time>
      </trkpt>
      <trkpt lat="44.85219" lon="0.6068">
        <ele>30.2</ele>
        <time>2021-05-17T15:14:42.000Z</time>
      </trkpt>
      <trkpt lat="44.8522" lon="0.60671">
        <ele>30.2</ele>
        <time>2021-05-17T15:14:43.000Z</time>
      </trkpt>
      <trkpt lat="44.85222" lon="0.60662">
        <ele>30.3</ele>
        <time>2021-05-17T15:14:44.000Z</time>
      </trkpt>
      <trkpt lat="44.85223" lon="0.60655">
        <ele>30.3</ele>
        <time>2021-05-17T15:14:45.000Z</time>
      </trkpt>
      <trkpt lat="44.85224" lon="0.60647">
        <ele>30.3</ele>
        <time>2021-05-17T15:14:46.000Z</time>
      </trkpt>
      <trkpt lat="44.85227" lon="0.60642">
        <ele>30.3</ele>
        <time>2021-05-17T15:14:47.000Z</time>
      </trkpt>
      <trkpt lat="44.85229" lon="0.60635">
        <ele>30.4</ele>
        <time>2021-05-17T15:14:48.000Z</time>
      </trkpt>
      <trkpt lat="44.85231" lon="0.6063">
        <ele>30.4</ele>
        <time>2021-05-17T15:14:49.000Z</time>
      </trkpt>
      <trkpt lat="44.85232" lon="0.60623">
        <ele>30.4</ele>
        <time>2021-05-17T15:14:50.000Z</time>
      </trkpt>
      <trkpt lat="44.85235" lon="0.60617">
        <ele>30.4</ele>
        <time>2021-05-17T15:14:51.000Z</time>
      </trkpt>
      <trkpt lat="44.85238" lon="0.6061">
        <ele>30.4</ele>
        <time>2021-05-17T15:14:52.000Z</time>
      </trkpt>
      <trkpt lat="44.85241" lon="0.60602">
        <ele>30.4</ele>
        <time>2021-05-17T15:14:53.000Z</time>
      </trkpt>
      <trkpt lat="44.85243" lon="0.60593">
        <ele>30.4</ele>
        <time>2021-05-17T15:14:54.000Z</time>
      </trkpt>
      <trkpt lat="44.85246" lon="0.60584">
        <ele>30.5</ele>
        <time>2021-05-17T15:14:55.000Z</time>
      </trkpt>
      <trkpt lat="44.85249" lon="0.60576">
        <ele>30.5</ele>
        <time>2021-05-17T15:14:56.000Z</time>
      </trkpt>
      <trkpt lat="44.85251" lon="0.60569">
        <ele>30.5</ele>
        <time>2021-05-17T15:14:57.000Z</time>
      </trkpt>
      <trkpt lat="44.85253" lon="0.60562">
        <ele>30.6</ele>
        <time>2021-05-17T15:14:58.000Z</time>
      </trkpt>
      <trkpt lat="44.85256" lon="0.60555">
        <ele>30.6</ele>
        <time>2021-05-17T15:14:59.000Z</time>
      </trkpt>
      <trkpt lat="44.85258" lon="0.60547">
        <ele>30.6</ele>
        <time>2021-05-17T15:15:00.000Z</time>
      </trkpt>
      <trkpt lat="44.8526" lon="0.6054">
        <ele>30.6</ele>
        <time>2021-05-17T15:15:01.000Z</time>
      </trkpt>
      <trkpt lat="44.85263" lon="0.60534">
        <ele>30.6</ele>
        <time>2021-05-17T15:15:02.000Z</time>
      </trkpt>
      <trkpt lat="44.85265" lon="0.60528">
        <ele>30.6</ele>
        <time>2021-05-17T15:15:03.000Z</time>
      </trkpt>
      <trkpt lat="44.85267" lon="0.6052">
        <ele>30.6</ele>
        <time>2021-05-17T15:15:04.000Z</time>
      </trkpt>
      <trkpt lat="44.85269" lon="0.60513">
        <ele>30.6</ele>
        <time>2021-05-17T15:15:05.000Z</time>
      </trkpt>
      <trkpt lat="44.85272" lon="0.60505">
        <ele>30.6</ele>
        <time>2021-05-17T15:15:06.000Z</time>
      </trkpt>
      <trkpt lat="44.85274" lon="0.60498">
        <ele>30.6</ele>
        <time>2021-05-17T15:15:07.000Z</time>
      </trkpt>
      <trkpt lat="44.85276" lon="0.60492">
        <ele>30.6</ele>
        <time>2021-05-17T15:15:08.000Z</time>
      </trkpt>
      <trkpt lat="44.85278" lon="0.60487">
        <ele>30.6</ele>
        <time>2021-05-17T15:15:09.000Z</time>
      </trkpt>
      <trkpt lat="44.8528" lon="0.6048">
        <ele>30.6</ele>
        <time>2021-05-17T15:15:10.000Z</time>
      </trkpt>
      <trkpt lat="44.85281" lon="0.60474">
        <ele>30.6</ele>
        <time>2021-05-17T15:15:11.000Z</time>
      </trkpt>
      <trkpt lat="44.85284" lon="0.60466">
        <ele>30.5</ele>
        <time>2021-05-17T15:15:12.000Z</time>
      </trkpt>
      <trkpt lat="44.85288" lon="0.60458">
        <ele>30.4</ele>
        <time>2021-05-17T15:15:13.000Z</time>
      </trkpt>
      <trkpt lat="44.8529" lon="0.60452">
        <ele>30.4</ele>
        <time>2021-05-17T15:15:14.000Z</time>
      </trkpt>
      <trkpt lat="44.85293" lon="0.60444">
        <ele>30.3</ele>
        <time>2021-05-17T15:15:15.000Z</time>
      </trkpt>
      <trkpt lat="44.85296" lon="0.60436">
        <ele>30.2</ele>
        <time>2021-05-17T15:15:16.000Z</time>
      </trkpt>
      <trkpt lat="44.85299" lon="0.60429">
        <ele>30.2</ele>
        <time>2021-05-17T15:15:17.000Z</time>
      </trkpt>
      <trkpt lat="44.85302" lon="0.60422">
        <ele>30.1</ele>
        <time>2021-05-17T15:15:18.000Z</time>
      </trkpt>
      <trkpt lat="44.85305" lon="0.60415">
        <ele>30</ele>
        <time>2021-05-17T15:15:19.000Z</time>
      </trkpt>
      <trkpt lat="44.85307" lon="0.60407">
        <ele>30</ele>
        <time>2021-05-17T15:15:20.000Z</time>
      </trkpt>
      <trkpt lat="44.85309" lon="0.60401">
        <ele>29.9</ele>
        <time>2021-05-17T15:15:21.000Z</time>
      </trkpt>
      <trkpt lat="44.85312" lon="0.60395">
        <ele>29.8</ele>
        <time>2021-05-17T15:15:22.000Z</time>
      </trkpt>
      <trkpt lat="44.85315" lon="0.60387">
        <ele>29.7</ele>
        <time>2021-05-17T15:15:23.000Z</time>
      </trkpt>
      <trkpt lat="44.85317" lon="0.6038">
        <ele>29.6</ele>
        <time>2021-05-17T15:15:24.000Z</time>
      </trkpt>
      <trkpt lat="44.85319" lon="0.60374">
        <ele>29.5</ele>
        <time>2021-05-17T15:15:25.000Z</time>
      </trkpt>
      <trkpt lat="44.85321" lon="0.60367">
        <ele>29.4</ele>
        <time>2021-05-17T15:15:26.000Z</time>
      </trkpt>
      <trkpt lat="44.85323" lon="0.6036">
        <ele>29.3</ele>
        <time>2021-05-17T15:15:27.000Z</time>
      </trkpt>
      <trkpt lat="44.85326" lon="0.60355">
        <ele>29.2</ele>
        <time>2021-05-17T15:15:28.000Z</time>
      </trkpt>
      <trkpt lat="44.85329" lon="0.6035">
        <ele>29.1</ele>
        <time>2021-05-17T15:15:29.000Z</time>
      </trkpt>
      <trkpt lat="44.85332" lon="0.60342">
        <ele>29</ele>
        <time>2021-05-17T15:15:30.000Z</time>
      </trkpt>
      <trkpt lat="44.85334" lon="0.60336">
        <ele>28.9</ele>
        <time>2021-05-17T15:15:31.000Z</time>
      </trkpt>
      <trkpt lat="44.85336" lon="0.6033">
        <ele>28.8</ele>
        <time>2021-05-17T15:15:32.000Z</time>
      </trkpt>
      <trkpt lat="44.85338" lon="0.60325">
        <ele>28.7</ele>
        <time>2021-05-17T15:15:33.000Z</time>
      </trkpt>
      <trkpt lat="44.85342" lon="0.60318">
        <ele>28.6</ele>
        <time>2021-05-17T15:15:34.000Z</time>
      </trkpt>
      <trkpt lat="44.85343" lon="0.60312">
        <ele>28.5</ele>
        <time>2021-05-17T15:15:35.000Z</time>
      </trkpt>
      <trkpt lat="44.85345" lon="0.60306">
        <ele>28.4</ele>
        <time>2021-05-17T15:15:36.000Z</time>
      </trkpt>
      <trkpt lat="44.85347" lon="0.603">
        <ele>28.4</ele>
        <time>2021-05-17T15:15:37.000Z</time>
      </trkpt>
      <trkpt lat="44.85349" lon="0.60293">
        <ele>28.3</ele>
        <time>2021-05-17T15:15:38.000Z</time>
      </trkpt>
      <trkpt lat="44.85353" lon="0.60287">
        <ele>28.3</ele>
        <time>2021-05-17T15:15:39.000Z</time>
      </trkpt>
      <trkpt lat="44.85355" lon="0.60282">
        <ele>28.3</ele>
        <time>2021-05-17T15:15:40.000Z</time>
      </trkpt>
      <trkpt lat="44.85357" lon="0.60275">
        <ele>28.3</ele>
        <time>2021-05-17T15:15:41.000Z</time>
      </trkpt>
      <trkpt lat="44.8536" lon="0.60268">
        <ele>28.3</ele>
        <time>2021-05-17T15:15:42.000Z</time>
      </trkpt>
      <trkpt lat="44.85363" lon="0.60262">
        <ele>28.3</ele>
        <time>2021-05-17T15:15:43.000Z</time>
      </trkpt>
      <trkpt lat="44.85367" lon="0.60257">
        <ele>28.3</ele>
        <time>2021-05-17T15:15:44.000Z</time>
      </trkpt>
      <trkpt lat="44.8537" lon="0.60251">
        <ele>28.3</ele>
        <time>2021-05-17T15:15:45.000Z</time>
      </trkpt>
      <trkpt lat="44.85373" lon="0.60246">
        <ele>28.3</ele>
        <time>2021-05-17T15:15:46.000Z</time>
      </trkpt>
      <trkpt lat="44.85375" lon="0.60239">
        <ele>28.3</ele>
        <time>2021-05-17T15:15:47.000Z</time>
      </trkpt>
      <trkpt lat="44.85377" lon="0.60233">
        <ele>28.3</ele>
        <time>2021-05-17T15:15:48.000Z</time>
      </trkpt>
      <trkpt lat="44.85379" lon="0.60225">
        <ele>28.2</ele>
        <time>2021-05-17T15:15:49.000Z</time>
      </trkpt>
      <trkpt lat="44.8538" lon="0.60216">
        <ele>28.2</ele>
        <time>2021-05-17T15:15:50.000Z</time>
      </trkpt>
      <trkpt lat="44.85381" lon="0.60206">
        <ele>28.1</ele>
        <time>2021-05-17T15:15:51.000Z</time>
      </trkpt>
      <trkpt lat="44.85382" lon="0.60196">
        <ele>28</ele>
        <time>2021-05-17T15:15:52.000Z</time>
      </trkpt>
      <trkpt lat="44.85383" lon="0.60187">
        <ele>27.9</ele>
        <time>2021-05-17T15:15:53.000Z</time>
      </trkpt>
      <trkpt lat="44.85385" lon="0.60178">
        <ele>27.8</ele>
        <time>2021-05-17T15:15:54.000Z</time>
      </trkpt>
      <trkpt lat="44.85386" lon="0.60169">
        <ele>27.8</ele>
        <time>2021-05-17T15:15:55.000Z</time>
      </trkpt>
      <trkpt lat="44.85387" lon="0.60162">
        <ele>27.7</ele>
        <time>2021-05-17T15:15:56.000Z</time>
      </trkpt>
      <trkpt lat="44.85389" lon="0.60153">
        <ele>27.7</ele>
        <time>2021-05-17T15:15:57.000Z</time>
      </trkpt>
      <trkpt lat="44.8539" lon="0.60145">
        <ele>27.7</ele>
        <time>2021-05-17T15:15:58.000Z</time>
      </trkpt>
      <trkpt lat="44.85391" lon="0.60138">
        <ele>27.7</ele>
        <time>2021-05-17T15:15:59.000Z</time>
      </trkpt>
      <trkpt lat="44.85392" lon="0.60129">
        <ele>27.7</ele>
        <time>2021-05-17T15:16:00.000Z</time>
      </trkpt>
      <trkpt lat="44.85394" lon="0.60122">
        <ele>27.6</ele>
        <time>2021-05-17T15:16:01.000Z</time>
      </trkpt>
      <trkpt lat="44.85395" lon="0.60118">
        <ele>27.6</ele>
        <time>2021-05-17T15:16:02.000Z</time>
      </trkpt>
      <trkpt lat="44.85396" lon="0.60111">
        <ele>27.6</ele>
        <time>2021-05-17T15:16:03.000Z</time>
      </trkpt>
      <trkpt lat="44.85397" lon="0.60103">
        <ele>27.6</ele>
        <time>2021-05-17T15:16:04.000Z</time>
      </trkpt>
      <trkpt lat="44.85399" lon="0.60094">
        <ele>27.5</ele>
        <time>2021-05-17T15:16:05.000Z</time>
      </trkpt>
      <trkpt lat="44.854" lon="0.60087">
        <ele>27.5</ele>
        <time>2021-05-17T15:16:06.000Z</time>
      </trkpt>
      <trkpt lat="44.85402" lon="0.60078">
        <ele>27.4</ele>
        <time>2021-05-17T15:16:07.000Z</time>
      </trkpt>
      <trkpt lat="44.85404" lon="0.60068">
        <ele>27.4</ele>
        <time>2021-05-17T15:16:08.000Z</time>
      </trkpt>
      <trkpt lat="44.85405" lon="0.6006">
        <ele>27.4</ele>
        <time>2021-05-17T15:16:09.000Z</time>
      </trkpt>
      <trkpt lat="44.85406" lon="0.60051">
        <ele>27.3</ele>
        <time>2021-05-17T15:16:10.000Z</time>
      </trkpt>
      <trkpt lat="44.85407" lon="0.60044">
        <ele>27.3</ele>
        <time>2021-05-17T15:16:11.000Z</time>
      </trkpt>
      <trkpt lat="44.85409" lon="0.60036">
        <ele>27.3</ele>
        <time>2021-05-17T15:16:12.000Z</time>
      </trkpt>
      <trkpt lat="44.85411" lon="0.60028">
        <ele>27.2</ele>
        <time>2021-05-17T15:16:13.000Z</time>
      </trkpt>
      <trkpt lat="44.85412" lon="0.6002">
        <ele>27.2</ele>
        <time>2021-05-17T15:16:14.000Z</time>
      </trkpt>
      <trkpt lat="44.85414" lon="0.60011">
        <ele>27.2</ele>
        <time>2021-05-17T15:16:15.000Z</time>
      </trkpt>
      <trkpt lat="44.85415" lon="0.60003">
        <ele>27.2</ele>
        <time>2021-05-17T15:16:16.000Z</time>
      </trkpt>
      <trkpt lat="44.85418" lon="0.59994">
        <ele>27.2</ele>
        <time>2021-05-17T15:16:17.000Z</time>
      </trkpt>
      <trkpt lat="44.85419" lon="0.59985">
        <ele>27.1</ele>
        <time>2021-05-17T15:16:18.000Z</time>
      </trkpt>
      <trkpt lat="44.8542" lon="0.59978">
        <ele>27.1</ele>
        <time>2021-05-17T15:16:19.000Z</time>
      </trkpt>
      <trkpt lat="44.85422" lon="0.59971">
        <ele>27.1</ele>
        <time>2021-05-17T15:16:20.000Z</time>
      </trkpt>
      <trkpt lat="44.85423" lon="0.59962">
        <ele>27.1</ele>
        <time>2021-05-17T15:16:21.000Z</time>
      </trkpt>
      <trkpt lat="44.85424" lon="0.59955">
        <ele>27.1</ele>
        <time>2021-05-17T15:16:22.000Z</time>
      </trkpt>
      <trkpt lat="44.85426" lon="0.59947">
        <ele>27.1</ele>
        <time>2021-05-17T15:16:23.000Z</time>
      </trkpt>
      <trkpt lat="44.85426" lon="0.59937">
        <ele>27.1</ele>
        <time>2021-05-17T15:16:24.000Z</time>
      </trkpt>
      <trkpt lat="44.85428" lon="0.5993">
        <ele>27.1</ele>
        <time>2021-05-17T15:16:25.000Z</time>
      </trkpt>
      <trkpt lat="44.85429" lon="0.59922">
        <ele>27.1</ele>
        <time>2021-05-17T15:16:26.000Z</time>
      </trkpt>
      <trkpt lat="44.8543" lon="0.59915">
        <ele>27.2</ele>
        <time>2021-05-17T15:16:27.000Z</time>
      </trkpt>
      <trkpt lat="44.85432" lon="0.59907">
        <ele>27.2</ele>
        <time>2021-05-17T15:16:28.000Z</time>
      </trkpt>
      <trkpt lat="44.85433" lon="0.59901">
        <ele>27.2</ele>
        <time>2021-05-17T15:16:29.000Z</time>
      </trkpt>
      <trkpt lat="44.85432" lon="0.59894">
        <ele>27.2</ele>
        <time>2021-05-17T15:16:30.000Z</time>
      </trkpt>
      <trkpt lat="44.85433" lon="0.59887">
        <ele>27.2</ele>
        <time>2021-05-17T15:16:31.000Z</time>
      </trkpt>
      <trkpt lat="44.85433" lon="0.59881">
        <ele>27.2</ele>
        <time>2021-05-17T15:16:32.000Z</time>
      </trkpt>
      <trkpt lat="44.85433" lon="0.59875">
        <ele>27.2</ele>
        <time>2021-05-17T15:16:33.000Z</time>
      </trkpt>
      <trkpt lat="44.85434" lon="0.59868">
        <ele>27.1</ele>
        <time>2021-05-17T15:16:34.000Z</time>
      </trkpt>
      <trkpt lat="44.85435" lon="0.5986">
        <ele>27.1</ele>
        <time>2021-05-17T15:16:35.000Z</time>
      </trkpt>
      <trkpt lat="44.85433" lon="0.59855">
        <ele>27</ele>
        <time>2021-05-17T15:16:36.000Z</time>
      </trkpt>
      <trkpt lat="44.85432" lon="0.59848">
        <ele>27</ele>
        <time>2021-05-17T15:16:37.000Z</time>
      </trkpt>
      <trkpt lat="44.85433" lon="0.5984">
        <ele>27</ele>
        <time>2021-05-17T15:16:38.000Z</time>
      </trkpt>
      <trkpt lat="44.85433" lon="0.59832">
        <ele>26.9</ele>
        <time>2021-05-17T15:16:39.000Z</time>
      </trkpt>
      <trkpt lat="44.85433" lon="0.59824">
        <ele>26.9</ele>
        <time>2021-05-17T15:16:40.000Z</time>
      </trkpt>
      <trkpt lat="44.85434" lon="0.59815">
        <ele>26.9</ele>
        <time>2021-05-17T15:16:41.000Z</time>
      </trkpt>
      <trkpt lat="44.85434" lon="0.59805">
        <ele>26.9</ele>
        <time>2021-05-17T15:16:42.000Z</time>
      </trkpt>
      <trkpt lat="44.85434" lon="0.59797">
        <ele>26.9</ele>
        <time>2021-05-17T15:16:43.000Z</time>
      </trkpt>
      <trkpt lat="44.85434" lon="0.59788">
        <ele>26.8</ele>
        <time>2021-05-17T15:16:44.000Z</time>
      </trkpt>
      <trkpt lat="44.85434" lon="0.59781">
        <ele>26.8</ele>
        <time>2021-05-17T15:16:45.000Z</time>
      </trkpt>
      <trkpt lat="44.85434" lon="0.59773">
        <ele>26.8</ele>
        <time>2021-05-17T15:16:46.000Z</time>
      </trkpt>
      <trkpt lat="44.85434" lon="0.59764">
        <ele>26.8</ele>
        <time>2021-05-17T15:16:47.000Z</time>
      </trkpt>
      <trkpt lat="44.85433" lon="0.59756">
        <ele>26.8</ele>
        <time>2021-05-17T15:16:48.000Z</time>
      </trkpt>
      <trkpt lat="44.85432" lon="0.59747">
        <ele>26.8</ele>
        <time>2021-05-17T15:16:49.000Z</time>
      </trkpt>
      <trkpt lat="44.85433" lon="0.59738">
        <ele>26.8</ele>
        <time>2021-05-17T15:16:50.000Z</time>
      </trkpt>
      <trkpt lat="44.85434" lon="0.59729">
        <ele>26.8</ele>
        <time>2021-05-17T15:16:51.000Z</time>
      </trkpt>
      <trkpt lat="44.85434" lon="0.59722">
        <ele>26.9</ele>
        <time>2021-05-17T15:16:52.000Z</time>
      </trkpt>
      <trkpt lat="44.85434" lon="0.59713">
        <ele>26.9</ele>
        <time>2021-05-17T15:16:53.000Z</time>
      </trkpt>
      <trkpt lat="44.85434" lon="0.59706">
        <ele>27</ele>
        <time>2021-05-17T15:16:54.000Z</time>
      </trkpt>
      <trkpt lat="44.85435" lon="0.59699">
        <ele>27.1</ele>
        <time>2021-05-17T15:16:55.000Z</time>
      </trkpt>
      <trkpt lat="44.85435" lon="0.59692">
        <ele>27.2</ele>
        <time>2021-05-17T15:16:56.000Z</time>
      </trkpt>
      <trkpt lat="44.85436" lon="0.59685">
        <ele>27.4</ele>
        <time>2021-05-17T15:16:57.000Z</time>
      </trkpt>
      <trkpt lat="44.85435" lon="0.59679">
        <ele>27.5</ele>
        <time>2021-05-17T15:16:58.000Z</time>
      </trkpt>
      <trkpt lat="44.85436" lon="0.59671">
        <ele>27.6</ele>
        <time>2021-05-17T15:16:59.000Z</time>
      </trkpt>
      <trkpt lat="44.85435" lon="0.59666">
        <ele>27.7</ele>
        <time>2021-05-17T15:17:00.000Z</time>
      </trkpt>
      <trkpt lat="44.85435" lon="0.59659">
        <ele>27.8</ele>
        <time>2021-05-17T15:17:01.000Z</time>
      </trkpt>
      <trkpt lat="44.85436" lon="0.59654">
        <ele>27.8</ele>
        <time>2021-05-17T15:17:02.000Z</time>
      </trkpt>
      <trkpt lat="44.85435" lon="0.59649">
        <ele>27.9</ele>
        <time>2021-05-17T15:17:03.000Z</time>
      </trkpt>
      <trkpt lat="44.85434" lon="0.59643">
        <ele>28</ele>
        <time>2021-05-17T15:17:04.000Z</time>
      </trkpt>
      <trkpt lat="44.85435" lon="0.59635">
        <ele>28</ele>
        <time>2021-05-17T15:17:05.000Z</time>
      </trkpt>
      <trkpt lat="44.85435" lon="0.59626">
        <ele>28.1</ele>
        <time>2021-05-17T15:17:06.000Z</time>
      </trkpt>
      <trkpt lat="44.85435" lon="0.5962">
        <ele>28.1</ele>
        <time>2021-05-17T15:17:07.000Z</time>
      </trkpt>
      <trkpt lat="44.85434" lon="0.59613">
        <ele>28.1</ele>
        <time>2021-05-17T15:17:08.000Z</time>
      </trkpt>
      <trkpt lat="44.85433" lon="0.59607">
        <ele>28.1</ele>
        <time>2021-05-17T15:17:09.000Z</time>
      </trkpt>
      <trkpt lat="44.85435" lon="0.596">
        <ele>28.1</ele>
        <time>2021-05-17T15:17:10.000Z</time>
      </trkpt>
      <trkpt lat="44.85435" lon="0.59595">
        <ele>28.1</ele>
        <time>2021-05-17T15:17:11.000Z</time>
      </trkpt>
      <trkpt lat="44.85435" lon="0.59588">
        <ele>28.1</ele>
        <time>2021-05-17T15:17:12.000Z</time>
      </trkpt>
      <trkpt lat="44.85434" lon="0.59581">
        <ele>28</ele>
        <time>2021-05-17T15:17:13.000Z</time>
      </trkpt>
      <trkpt lat="44.85434" lon="0.59575">
        <ele>28</ele>
        <time>2021-05-17T15:17:14.000Z</time>
      </trkpt>
      <trkpt lat="44.85434" lon="0.59569">
        <ele>28</ele>
        <time>2021-05-17T15:17:15.000Z</time>
      </trkpt>
      <trkpt lat="44.85434" lon="0.59564">
        <ele>28</ele>
        <time>2021-05-17T15:17:16.000Z</time>
      </trkpt>
      <trkpt lat="44.85433" lon="0.59558">
        <ele>28</ele>
        <time>2021-05-17T15:17:17.000Z</time>
      </trkpt>
      <trkpt lat="44.85434" lon="0.59553">
        <ele>27.9</ele>
        <time>2021-05-17T15:17:18.000Z</time>
      </trkpt>
      <trkpt lat="44.85433" lon="0.59548">
        <ele>27.8</ele>
        <time>2021-05-17T15:17:19.000Z</time>
      </trkpt>
      <trkpt lat="44.85432" lon="0.59543">
        <ele>27.7</ele>
        <time>2021-05-17T15:17:20.000Z</time>
      </trkpt>
      <trkpt lat="44.85432" lon="0.59537">
        <ele>27.6</ele>
        <time>2021-05-17T15:17:21.000Z</time>
      </trkpt>
      <trkpt lat="44.85431" lon="0.59531">
        <ele>27.3</ele>
        <time>2021-05-17T15:17:22.000Z</time>
      </trkpt>
      <trkpt lat="44.85431" lon="0.59522">
        <ele>27.1</ele>
        <time>2021-05-17T15:17:23.000Z</time>
      </trkpt>
      <trkpt lat="44.85431" lon="0.59514">
        <ele>26.8</ele>
        <time>2021-05-17T15:17:24.000Z</time>
      </trkpt>
      <trkpt lat="44.85431" lon="0.59508">
        <ele>26.7</ele>
        <time>2021-05-17T15:17:25.000Z</time>
      </trkpt>
      <trkpt lat="44.85431" lon="0.59504">
        <ele>26.5</ele>
        <time>2021-05-17T15:17:26.000Z</time>
      </trkpt>
      <trkpt lat="44.85429" lon="0.59499">
        <ele>26.4</ele>
        <time>2021-05-17T15:17:27.000Z</time>
      </trkpt>
      <trkpt lat="44.85428" lon="0.59494">
        <ele>26.3</ele>
        <time>2021-05-17T15:17:28.000Z</time>
      </trkpt>
      <trkpt lat="44.85428" lon="0.5949">
        <ele>26.3</ele>
        <time>2021-05-17T15:17:29.000Z</time>
      </trkpt>
      <trkpt lat="44.85429" lon="0.59487">
        <ele>26.3</ele>
        <time>2021-05-17T15:17:30.000Z</time>
      </trkpt>
      <trkpt lat="44.85428" lon="0.59485">
        <ele>26.2</ele>
        <time>2021-05-17T15:17:31.000Z</time>
      </trkpt>
      <trkpt lat="44.85426" lon="0.59482">
        <ele>26.2</ele>
        <time>2021-05-17T15:17:32.000Z</time>
      </trkpt>
      <trkpt lat="44.85426" lon="0.5948">
        <ele>26.2</ele>
        <time>2021-05-17T15:17:33.000Z</time>
      </trkpt>
      <trkpt lat="44.85425" lon="0.59476">
        <ele>26.2</ele>
        <time>2021-05-17T15:17:34.000Z</time>
      </trkpt>
      <trkpt lat="44.85425" lon="0.59472">
        <ele>26.2</ele>
        <time>2021-05-17T15:17:35.000Z</time>
      </trkpt>
      <trkpt lat="44.85424" lon="0.59467">
        <ele>26.2</ele>
        <time>2021-05-17T15:17:36.000Z</time>
      </trkpt>
      <trkpt lat="44.85423" lon="0.59461">
        <ele>26.3</ele>
        <time>2021-05-17T15:17:37.000Z</time>
      </trkpt>
      <trkpt lat="44.85423" lon="0.59456">
        <ele>26.3</ele>
        <time>2021-05-17T15:17:38.000Z</time>
      </trkpt>
      <trkpt lat="44.85423" lon="0.59452">
        <ele>26.4</ele>
        <time>2021-05-17T15:17:39.000Z</time>
      </trkpt>
      <trkpt lat="44.85423" lon="0.59447">
        <ele>26.4</ele>
        <time>2021-05-17T15:17:40.000Z</time>
      </trkpt>
      <trkpt lat="44.85423" lon="0.59443">
        <ele>26.4</ele>
        <time>2021-05-17T15:17:41.000Z</time>
      </trkpt>
      <trkpt lat="44.85422" lon="0.59439">
        <ele>26.5</ele>
        <time>2021-05-17T15:17:42.000Z</time>
      </trkpt>
      <trkpt lat="44.85421" lon="0.59437">
        <ele>26.5</ele>
        <time>2021-05-17T15:17:43.000Z</time>
      </trkpt>
      <trkpt lat="44.85421" lon="0.59432">
        <ele>26.5</ele>
        <time>2021-05-17T15:17:44.000Z</time>
      </trkpt>
      <trkpt lat="44.8542" lon="0.59426">
        <ele>26.5</ele>
        <time>2021-05-17T15:17:45.000Z</time>
      </trkpt>
      <trkpt lat="44.8542" lon="0.59421">
        <ele>26.5</ele>
        <time>2021-05-17T15:17:46.000Z</time>
      </trkpt>
      <trkpt lat="44.85419" lon="0.59417">
        <ele>26.4</ele>
        <time>2021-05-17T15:17:47.000Z</time>
      </trkpt>
      <trkpt lat="44.85417" lon="0.59412">
        <ele>26.4</ele>
        <time>2021-05-17T15:17:48.000Z</time>
      </trkpt>
      <trkpt lat="44.85417" lon="0.59406">
        <ele>26.4</ele>
        <time>2021-05-17T15:17:49.000Z</time>
      </trkpt>
      <trkpt lat="44.85416" lon="0.59399">
        <ele>26.3</ele>
        <time>2021-05-17T15:17:50.000Z</time>
      </trkpt>
      <trkpt lat="44.85416" lon="0.59393">
        <ele>26.2</ele>
        <time>2021-05-17T15:17:51.000Z</time>
      </trkpt>
      <trkpt lat="44.85415" lon="0.59387">
        <ele>26.2</ele>
        <time>2021-05-17T15:17:52.000Z</time>
      </trkpt>
      <trkpt lat="44.85415" lon="0.5938">
        <ele>26.2</ele>
        <time>2021-05-17T15:17:53.000Z</time>
      </trkpt>
      <trkpt lat="44.85414" lon="0.59374">
        <ele>26.1</ele>
        <time>2021-05-17T15:17:54.000Z</time>
      </trkpt>
      <trkpt lat="44.85413" lon="0.59372">
        <ele>26.1</ele>
        <time>2021-05-17T15:17:55.000Z</time>
      </trkpt>
      <trkpt lat="44.85413" lon="0.59364">
        <ele>26.1</ele>
        <time>2021-05-17T15:17:56.000Z</time>
      </trkpt>
      <trkpt lat="44.85412" lon="0.59356">
        <ele>26.1</ele>
        <time>2021-05-17T15:17:57.000Z</time>
      </trkpt>
      <trkpt lat="44.85412" lon="0.5935">
        <ele>26.1</ele>
        <time>2021-05-17T15:17:58.000Z</time>
      </trkpt>
      <trkpt lat="44.85411" lon="0.59344">
        <ele>26.1</ele>
        <time>2021-05-17T15:17:59.000Z</time>
      </trkpt>
      <trkpt lat="44.85411" lon="0.59337">
        <ele>26.1</ele>
        <time>2021-05-17T15:18:00.000Z</time>
      </trkpt>
      <trkpt lat="44.85411" lon="0.59331">
        <ele>26.1</ele>
        <time>2021-05-17T15:18:01.000Z</time>
      </trkpt>
      <trkpt lat="44.8541" lon="0.59325">
        <ele>26.1</ele>
        <time>2021-05-17T15:18:02.000Z</time>
      </trkpt>
      <trkpt lat="44.85409" lon="0.59319">
        <ele>26.2</ele>
        <time>2021-05-17T15:18:03.000Z</time>
      </trkpt>
      <trkpt lat="44.85408" lon="0.59313">
        <ele>26.2</ele>
        <time>2021-05-17T15:18:04.000Z</time>
      </trkpt>
      <trkpt lat="44.85407" lon="0.59309">
        <ele>26.2</ele>
        <time>2021-05-17T15:18:05.000Z</time>
      </trkpt>
      <trkpt lat="44.85406" lon="0.59303">
        <ele>26.2</ele>
        <time>2021-05-17T15:18:06.000Z</time>
      </trkpt>
      <trkpt lat="44.85406" lon="0.59298">
        <ele>26.2</ele>
        <time>2021-05-17T15:18:07.000Z</time>
      </trkpt>
      <trkpt lat="44.85405" lon="0.59293">
        <ele>26.3</ele>
        <time>2021-05-17T15:18:08.000Z</time>
      </trkpt>
      <trkpt lat="44.85405" lon="0.59288">
        <ele>26.3</ele>
        <time>2021-05-17T15:18:09.000Z</time>
      </trkpt>
      <trkpt lat="44.85405" lon="0.59284">
        <ele>26.3</ele>
        <time>2021-05-17T15:18:10.000Z</time>
      </trkpt>
      <trkpt lat="44.85405" lon="0.5928">
        <ele>26.3</ele>
        <time>2021-05-17T15:18:11.000Z</time>
      </trkpt>
      <trkpt lat="44.85406" lon="0.59275">
        <ele>26.4</ele>
        <time>2021-05-17T15:18:12.000Z</time>
      </trkpt>
      <trkpt lat="44.85407" lon="0.5927">
        <ele>26.4</ele>
        <time>2021-05-17T15:18:13.000Z</time>
      </trkpt>
      <trkpt lat="44.85409" lon="0.59267">
        <ele>26.4</ele>
        <time>2021-05-17T15:18:14.000Z</time>
      </trkpt>
      <trkpt lat="44.85412" lon="0.59266">
        <ele>27.6</ele>
        <time>2021-05-17T15:18:15.000Z</time>
      </trkpt>
      <trkpt lat="44.85414" lon="0.59272">
        <ele>28</ele>
        <time>2021-05-17T15:18:16.000Z</time>
      </trkpt>
      <trkpt lat="44.85415" lon="0.59274">
        <ele>28.2</ele>
        <time>2021-05-17T15:18:17.000Z</time>
      </trkpt>
      <trkpt lat="44.85415" lon="0.59279">
        <ele>28.6</ele>
        <time>2021-05-17T15:18:18.000Z</time>
      </trkpt>
      <trkpt lat="44.85417" lon="0.59284">
        <ele>29</ele>
        <time>2021-05-17T15:18:19.000Z</time>
      </trkpt>
      <trkpt lat="44.85418" lon="0.59288">
        <ele>29.3</ele>
        <time>2021-05-17T15:18:20.000Z</time>
      </trkpt>
      <trkpt lat="44.85419" lon="0.59293">
        <ele>29.8</ele>
        <time>2021-05-17T15:18:21.000Z</time>
      </trkpt>
      <trkpt lat="44.85421" lon="0.59297">
        <ele>30.2</ele>
        <time>2021-05-17T15:18:22.000Z</time>
      </trkpt>
      <trkpt lat="44.85422" lon="0.59301">
        <ele>30.5</ele>
        <time>2021-05-17T15:18:23.000Z</time>
      </trkpt>
      <trkpt lat="44.85423" lon="0.59305">
        <ele>30.9</ele>
        <time>2021-05-17T15:18:24.000Z</time>
      </trkpt>
      <trkpt lat="44.85424" lon="0.5931">
        <ele>31.3</ele>
        <time>2021-05-17T15:18:25.000Z</time>
      </trkpt>
      <trkpt lat="44.85425" lon="0.59314">
        <ele>31.6</ele>
        <time>2021-05-17T15:18:26.000Z</time>
      </trkpt>
      <trkpt lat="44.85427" lon="0.59319">
        <ele>32.1</ele>
        <time>2021-05-17T15:18:27.000Z</time>
      </trkpt>
      <trkpt lat="44.85426" lon="0.59325">
        <ele>32.5</ele>
        <time>2021-05-17T15:18:28.000Z</time>
      </trkpt>
      <trkpt lat="44.85426" lon="0.59327">
        <ele>32.7</ele>
        <time>2021-05-17T15:18:29.000Z</time>
      </trkpt>
      <trkpt lat="44.85428" lon="0.59331">
        <ele>33.1</ele>
        <time>2021-05-17T15:18:30.000Z</time>
      </trkpt>
      <trkpt lat="44.85429" lon="0.59335">
        <ele>33.4</ele>
        <time>2021-05-17T15:18:31.000Z</time>
      </trkpt>
      <trkpt lat="44.85431" lon="0.59343">
        <ele>34.1</ele>
        <time>2021-05-17T15:18:33.000Z</time>
      </trkpt>
      <trkpt lat="44.85432" lon="0.59352">
        <ele>34.5</ele>
        <time>2021-05-17T15:18:35.000Z</time>
      </trkpt>
      <trkpt lat="44.85434" lon="0.59357">
        <ele>34.8</ele>
        <time>2021-05-17T15:18:36.000Z</time>
      </trkpt>
      <trkpt lat="44.85436" lon="0.59361">
        <ele>35.2</ele>
        <time>2021-05-17T15:18:37.000Z</time>
      </trkpt>
      <trkpt lat="44.85438" lon="0.59365">
        <ele>35.5</ele>
        <time>2021-05-17T15:18:38.000Z</time>
      </trkpt>
      <trkpt lat="44.85439" lon="0.5937">
        <ele>35.8</ele>
        <time>2021-05-17T15:18:39.000Z</time>
      </trkpt>
      <trkpt lat="44.85441" lon="0.59374">
        <ele>36.1</ele>
        <time>2021-05-17T15:18:40.000Z</time>
      </trkpt>
      <trkpt lat="44.85443" lon="0.59378">
        <ele>36.4</ele>
        <time>2021-05-17T15:18:41.000Z</time>
      </trkpt>
      <trkpt lat="44.85445" lon="0.59382">
        <ele>36.7</ele>
        <time>2021-05-17T15:18:42.000Z</time>
      </trkpt>
      <trkpt lat="44.85444" lon="0.59382">
        <ele>36.7</ele>
        <time>2021-05-17T15:18:43.000Z</time>
      </trkpt>
      <trkpt lat="44.85445" lon="0.59386">
        <ele>37</ele>
        <time>2021-05-17T15:18:44.000Z</time>
      </trkpt>
      <trkpt lat="44.85447" lon="0.5939">
        <ele>37.2</ele>
        <time>2021-05-17T15:18:45.000Z</time>
      </trkpt>
      <trkpt lat="44.85448" lon="0.59392">
        <ele>37.3</ele>
        <time>2021-05-17T15:18:46.000Z</time>
      </trkpt>
      <trkpt lat="44.85451" lon="0.59397">
        <ele>37.6</ele>
        <time>2021-05-17T15:18:47.000Z</time>
      </trkpt>
      <trkpt lat="44.85454" lon="0.59402">
        <ele>37.8</ele>
        <time>2021-05-17T15:18:48.000Z</time>
      </trkpt>
      <trkpt lat="44.85455" lon="0.59406">
        <ele>38</ele>
        <time>2021-05-17T15:18:49.000Z</time>
      </trkpt>
      <trkpt lat="44.85456" lon="0.5941">
        <ele>38.2</ele>
        <time>2021-05-17T15:18:50.000Z</time>
      </trkpt>
      <trkpt lat="44.85455" lon="0.59412">
        <ele>38.3</ele>
        <time>2021-05-17T15:18:51.000Z</time>
      </trkpt>
      <trkpt lat="44.85455" lon="0.59414">
        <ele>38.4</ele>
        <time>2021-05-17T15:18:52.000Z</time>
      </trkpt>
      <trkpt lat="44.85455" lon="0.59416">
        <ele>38.5</ele>
        <time>2021-05-17T15:18:53.000Z</time>
      </trkpt>
      <trkpt lat="44.85456" lon="0.59418">
        <ele>38.6</ele>
        <time>2021-05-17T15:18:54.000Z</time>
      </trkpt>
      <trkpt lat="44.85455" lon="0.5942">
        <ele>38.7</ele>
        <time>2021-05-17T15:18:55.000Z</time>
      </trkpt>
      <trkpt lat="44.85453" lon="0.59424">
        <ele>38.9</ele>
        <time>2021-05-17T15:18:56.000Z</time>
      </trkpt>
      <trkpt lat="44.85452" lon="0.59425">
        <ele>38.9</ele>
        <time>2021-05-17T15:18:57.000Z</time>
      </trkpt>
      <trkpt lat="44.85452" lon="0.59428">
        <ele>39</ele>
        <time>2021-05-17T15:18:58.000Z</time>
      </trkpt>
      <trkpt lat="44.85453" lon="0.5943">
        <ele>39.1</ele>
        <time>2021-05-17T15:18:59.000Z</time>
      </trkpt>
      <trkpt lat="44.85453" lon="0.59435">
        <ele>39.3</ele>
        <time>2021-05-17T15:19:00.000Z</time>
      </trkpt>
      <trkpt lat="44.85453" lon="0.59437">
        <ele>39.3</ele>
        <time>2021-05-17T15:19:01.000Z</time>
      </trkpt>
      <trkpt lat="44.85453" lon="0.59439">
        <ele>39.4</ele>
        <time>2021-05-17T15:19:02.000Z</time>
      </trkpt>
      <trkpt lat="44.85453" lon="0.59441">
        <ele>39.5</ele>
        <time>2021-05-17T15:19:03.000Z</time>
      </trkpt>
      <trkpt lat="44.85453" lon="0.59444">
        <ele>39.6</ele>
        <time>2021-05-17T15:19:04.000Z</time>
      </trkpt>
      <trkpt lat="44.85453" lon="0.59446">
        <ele>39.7</ele>
        <time>2021-05-17T15:19:05.000Z</time>
      </trkpt>
      <trkpt lat="44.85453" lon="0.59448">
        <ele>39.7</ele>
        <time>2021-05-17T15:19:06.000Z</time>
      </trkpt>
      <trkpt lat="44.85453" lon="0.59449">
        <ele>39.7</ele>
        <time>2021-05-17T15:19:07.000Z</time>
      </trkpt>
      <trkpt lat="44.85453" lon="0.59449">
        <ele>39.7</ele>
        <time>2021-05-17T15:19:08.000Z</time>
      </trkpt>
      <trkpt lat="44.85453" lon="0.5945">
        <ele>39.7</ele>
        <time>2021-05-17T15:19:09.000Z</time>
      </trkpt>
      <trkpt lat="44.85454" lon="0.59452">
        <ele>39.7</ele>
        <time>2021-05-17T15:19:10.000Z</time>
      </trkpt>
      <trkpt lat="44.85455" lon="0.59453">
        <ele>39.7</ele>
        <time>2021-05-17T15:19:11.000Z</time>
      </trkpt>
      <trkpt lat="44.85456" lon="0.59453">
        <ele>39.7</ele>
        <time>2021-05-17T15:19:12.000Z</time>
      </trkpt>
      <trkpt lat="44.85456" lon="0.59454">
        <ele>39.7</ele>
        <time>2021-05-17T15:19:13.000Z</time>
      </trkpt>
      <trkpt lat="44.85456" lon="0.59454">
        <ele>39.7</ele>
        <time>2021-05-17T15:19:14.000Z</time>
      </trkpt>
      <trkpt lat="44.85456" lon="0.59455">
        <ele>39.7</ele>
        <time>2021-05-17T15:19:15.000Z</time>
      </trkpt>
      <trkpt lat="44.85456" lon="0.59456">
        <ele>39.7</ele>
        <time>2021-05-17T15:19:16.000Z</time>
      </trkpt>
      <trkpt lat="44.85456" lon="0.59456">
        <ele>39.7</ele>
        <time>2021-05-17T15:19:17.000Z</time>
      </trkpt>
      <trkpt lat="44.85456" lon="0.59456">
        <ele>39.7</ele>
        <time>2021-05-17T15:19:18.000Z</time>
      </trkpt>
      <trkpt lat="44.85456" lon="0.59456">
        <ele>39.7</ele>
        <time>2021-05-17T15:19:19.000Z</time>
      </trkpt>
      <trkpt lat="44.85456" lon="0.59456">
        <ele>39.7</ele>
        <time>2021-05-17T15:19:20.000Z</time>
      </trkpt>
      <trkpt lat="44.85456" lon="0.59457">
        <ele>39.7</ele>
        <time>2021-05-17T15:19:21.000Z</time>
      </trkpt>
      <trkpt lat="44.85456" lon="0.59457">
        <ele>39.7</ele>
        <time>2021-05-17T15:19:22.000Z</time>
      </trkpt>
      <trkpt lat="44.85456" lon="0.59457">
        <ele>39.7</ele>
        <time>2021-05-17T15:19:23.000Z</time>
      </trkpt>
      <trkpt lat="44.85456" lon="0.59458">
        <ele>39.7</ele>
        <time>2021-05-17T15:19:24.000Z</time>
      </trkpt>
      <trkpt lat="44.85456" lon="0.59458">
        <ele>39.7</ele>
        <time>2021-05-17T15:19:25.000Z</time>
      </trkpt>
      <trkpt lat="44.85456" lon="0.59458">
        <ele>39.7</ele>
        <time>2021-05-17T15:19:26.000Z</time>
      </trkpt>
      <trkpt lat="44.85456" lon="0.59458">
        <ele>39.7</ele>
        <time>2021-05-17T15:19:27.000Z</time>
      </trkpt>
      <trkpt lat="44.85455" lon="0.59458">
        <ele>39.7</ele>
        <time>2021-05-17T15:19:28.000Z</time>
      </trkpt>
      <trkpt lat="44.85455" lon="0.59459">
        <ele>39.7</ele>
        <time>2021-05-17T15:19:29.000Z</time>
      </trkpt>
      <trkpt lat="44.85455" lon="0.59459">
        <ele>39.7</ele>
        <time>2021-05-17T15:19:30.000Z</time>
      </trkpt>
      <trkpt lat="44.85454" lon="0.5946">
        <ele>39.7</ele>
        <time>2021-05-17T15:19:31.000Z</time>
      </trkpt>
      <trkpt lat="44.85454" lon="0.5946">
        <ele>39.7</ele>
        <time>2021-05-17T15:19:32.000Z</time>
      </trkpt>
      <trkpt lat="44.85454" lon="0.5946">
        <ele>39.7</ele>
        <time>2021-05-17T15:19:33.000Z</time>
      </trkpt>
      <trkpt lat="44.85454" lon="0.59461">
        <ele>39.7</ele>
        <time>2021-05-17T15:19:34.000Z</time>
      </trkpt>
      <trkpt lat="44.85453" lon="0.59461">
        <ele>39.7</ele>
        <time>2021-05-17T15:19:35.000Z</time>
      </trkpt>
      <trkpt lat="44.85453" lon="0.59461">
        <ele>39.7</ele>
        <time>2021-05-17T15:19:36.000Z</time>
      </trkpt>
      <trkpt lat="44.85453" lon="0.59461">
        <ele>39.7</ele>
        <time>2021-05-17T15:19:37.000Z</time>
      </trkpt>
      <trkpt lat="44.85454" lon="0.59461">
        <ele>39.7</ele>
        <time>2021-05-17T15:19:38.000Z</time>
      </trkpt>
      <trkpt lat="44.85454" lon="0.59461">
        <ele>39.7</ele>
        <time>2021-05-17T15:19:39.000Z</time>
      </trkpt>
      <trkpt lat="44.85454" lon="0.5946">
        <ele>39.7</ele>
        <time>2021-05-17T15:19:40.000Z</time>
      </trkpt>
      <trkpt lat="44.85454" lon="0.5946">
        <ele>39.7</ele>
        <time>2021-05-17T15:19:41.000Z</time>
      </trkpt>
      <trkpt lat="44.85454" lon="0.5946">
        <ele>39.7</ele>
        <time>2021-05-17T15:19:42.000Z</time>
      </trkpt>
      <trkpt lat="44.85454" lon="0.5946">
        <ele>39.7</ele>
        <time>2021-05-17T15:19:43.000Z</time>
      </trkpt>
      <trkpt lat="44.85454" lon="0.5946">
        <ele>39.7</ele>
        <time>2021-05-17T15:19:44.000Z</time>
      </trkpt>
      <trkpt lat="44.85454" lon="0.5946">
        <ele>39.7</ele>
        <time>2021-05-17T15:19:45.000Z</time>
      </trkpt>
      <trkpt lat="44.85454" lon="0.5946">
        <ele>39.7</ele>
        <time>2021-05-17T15:19:46.000Z</time>
      </trkpt>
      <trkpt lat="44.85455" lon="0.5946">
        <ele>39.7</ele>
        <time>2021-05-17T15:19:47.000Z</time>
      </trkpt>
      <trkpt lat="44.85455" lon="0.5946">
        <ele>39.7</ele>
        <time>2021-05-17T15:19:48.000Z</time>
      </trkpt>
      <trkpt lat="44.85455" lon="0.59459">
        <ele>39.7</ele>
        <time>2021-05-17T15:19:49.000Z</time>
      </trkpt>
      <trkpt lat="44.85455" lon="0.59459">
        <ele>39.7</ele>
        <time>2021-05-17T15:19:50.000Z</time>
      </trkpt>
      <trkpt lat="44.85456" lon="0.59459">
        <ele>39.7</ele>
        <time>2021-05-17T15:19:51.000Z</time>
      </trkpt>
      <trkpt lat="44.85456" lon="0.59458">
        <ele>39.7</ele>
        <time>2021-05-17T15:19:52.000Z</time>
      </trkpt>
      <trkpt lat="44.85456" lon="0.59458">
        <ele>39.7</ele>
        <time>2021-05-17T15:19:53.000Z</time>
      </trkpt>
      <trkpt lat="44.85456" lon="0.59458">
        <ele>39.7</ele>
        <time>2021-05-17T15:19:54.000Z</time>
      </trkpt>
      <trkpt lat="44.85456" lon="0.59458">
        <ele>39.7</ele>
        <time>2021-05-17T15:19:55.000Z</time>
      </trkpt>
      <trkpt lat="44.85456" lon="0.59458">
        <ele>39.7</ele>
        <time>2021-05-17T15:19:56.000Z</time>
      </trkpt>
      <trkpt lat="44.85456" lon="0.59457">
        <ele>39.7</ele>
        <time>2021-05-17T15:19:57.000Z</time>
      </trkpt>
      <trkpt lat="44.85457" lon="0.59457">
        <ele>39.7</ele>
        <time>2021-05-17T15:19:58.000Z</time>
      </trkpt>
      <trkpt lat="44.85456" lon="0.59457">
        <ele>39.7</ele>
        <time>2021-05-17T15:19:59.000Z</time>
      </trkpt>
      <trkpt lat="44.85456" lon="0.59457">
        <ele>39.7</ele>
        <time>2021-05-17T15:20:00.000Z</time>
      </trkpt>
      <trkpt lat="44.85456" lon="0.59457">
        <ele>39.7</ele>
        <time>2021-05-17T15:20:01.000Z</time>
      </trkpt>
      <trkpt lat="44.85456" lon="0.59457">
        <ele>39.7</ele>
        <time>2021-05-17T15:20:02.000Z</time>
      </trkpt>
      <trkpt lat="44.85456" lon="0.59457">
        <ele>39.7</ele>
        <time>2021-05-17T15:20:03.000Z</time>
      </trkpt>
      <trkpt lat="44.85456" lon="0.59457">
        <ele>39.7</ele>
        <time>2021-05-17T15:20:04.000Z</time>
      </trkpt>
      <trkpt lat="44.85456" lon="0.59457">
        <ele>39.7</ele>
        <time>2021-05-17T15:20:05.000Z</time>
      </trkpt>
      <trkpt lat="44.85456" lon="0.59455">
        <ele>39.8</ele>
        <time>2021-05-17T15:20:06.000Z</time>
      </trkpt>
      <trkpt lat="44.85456" lon="0.59455">
        <ele>39.8</ele>
        <time>2021-05-17T15:20:07.000Z</time>
      </trkpt>
      <trkpt lat="44.85456" lon="0.59455">
        <ele>39.8</ele>
        <time>2021-05-17T15:20:08.000Z</time>
      </trkpt>
      <trkpt lat="44.85456" lon="0.59455">
        <ele>39.8</ele>
        <time>2021-05-17T15:20:09.000Z</time>
      </trkpt>
      <trkpt lat="44.85456" lon="0.59454">
        <ele>39.8</ele>
        <time>2021-05-17T15:20:10.000Z</time>
      </trkpt>
      <trkpt lat="44.85456" lon="0.59453">
        <ele>39.8</ele>
        <time>2021-05-17T15:20:11.000Z</time>
      </trkpt>
      <trkpt lat="44.85457" lon="0.59453">
        <ele>39.8</ele>
        <time>2021-05-17T15:20:12.000Z</time>
      </trkpt>
      <trkpt lat="44.85457" lon="0.59453">
        <ele>39.8</ele>
        <time>2021-05-17T15:20:13.000Z</time>
      </trkpt>
      <trkpt lat="44.85456" lon="0.59453">
        <ele>39.8</ele>
        <time>2021-05-17T15:20:14.000Z</time>
      </trkpt>
      <trkpt lat="44.85457" lon="0.59452">
        <ele>39.8</ele>
        <time>2021-05-17T15:20:15.000Z</time>
      </trkpt>
      <trkpt lat="44.85457" lon="0.59452">
        <ele>39.8</ele>
        <time>2021-05-17T15:20:16.000Z</time>
      </trkpt>
      <trkpt lat="44.85457" lon="0.59453">
        <ele>39.8</ele>
        <time>2021-05-17T15:20:17.000Z</time>
      </trkpt>
      <trkpt lat="44.85457" lon="0.59453">
        <ele>39.8</ele>
        <time>2021-05-17T15:20:18.000Z</time>
      </trkpt>
      <trkpt lat="44.85457" lon="0.59453">
        <ele>39.8</ele>
        <time>2021-05-17T15:20:19.000Z</time>
      </trkpt>
      <trkpt lat="44.85456" lon="0.59454">
        <ele>39.8</ele>
        <time>2021-05-17T15:20:20.000Z</time>
      </trkpt>
      <trkpt lat="44.85456" lon="0.59454">
        <ele>39.8</ele>
        <time>2021-05-17T15:20:21.000Z</time>
      </trkpt>
      <trkpt lat="44.85456" lon="0.59453">
        <ele>39.8</ele>
        <time>2021-05-17T15:20:22.000Z</time>
      </trkpt>
      <trkpt lat="44.85456" lon="0.59454">
        <ele>39.8</ele>
        <time>2021-05-17T15:20:23.000Z</time>
      </trkpt>
      <trkpt lat="44.85456" lon="0.59454">
        <ele>39.8</ele>
        <time>2021-05-17T15:20:24.000Z</time>
      </trkpt>
      <trkpt lat="44.85455" lon="0.59454">
        <ele>39.8</ele>
        <time>2021-05-17T15:20:25.000Z</time>
      </trkpt>
      <trkpt lat="44.85455" lon="0.59454">
        <ele>39.8</ele>
        <time>2021-05-17T15:20:26.000Z</time>
      </trkpt>
      <trkpt lat="44.85455" lon="0.59454">
        <ele>39.8</ele>
        <time>2021-05-17T15:20:27.000Z</time>
      </trkpt>
      <trkpt lat="44.85455" lon="0.59454">
        <ele>39.8</ele>
        <time>2021-05-17T15:20:28.000Z</time>
      </trkpt>
      <trkpt lat="44.85455" lon="0.59454">
        <ele>39.8</ele>
        <time>2021-05-17T15:20:29.000Z</time>
      </trkpt>
      <trkpt lat="44.85455" lon="0.59454">
        <ele>39.8</ele>
        <time>2021-05-17T15:20:30.000Z</time>
      </trkpt>
      <trkpt lat="44.85455" lon="0.59454">
        <ele>39.8</ele>
        <time>2021-05-17T15:20:31.000Z</time>
      </trkpt>
      <trkpt lat="44.85455" lon="0.59454">
        <ele>39.8</ele>
        <time>2021-05-17T15:20:32.000Z</time>
      </trkpt>
      <trkpt lat="44.85455" lon="0.59453">
        <ele>39.8</ele>
        <time>2021-05-17T15:20:33.000Z</time>
      </trkpt>
      <trkpt lat="44.85454" lon="0.59453">
        <ele>39.8</ele>
        <time>2021-05-17T15:20:34.000Z</time>
      </trkpt>
      <trkpt lat="44.85454" lon="0.59453">
        <ele>39.8</ele>
        <time>2021-05-17T15:20:35.000Z</time>
      </trkpt>
      <trkpt lat="44.85454" lon="0.59453">
        <ele>39.8</ele>
        <time>2021-05-17T15:20:36.000Z</time>
      </trkpt>
      <trkpt lat="44.85454" lon="0.59453">
        <ele>39.8</ele>
        <time>2021-05-17T15:20:37.000Z</time>
      </trkpt>
      <trkpt lat="44.85454" lon="0.59453">
        <ele>39.8</ele>
        <time>2021-05-17T15:20:38.000Z</time>
      </trkpt>
      <trkpt lat="44.85453" lon="0.59453">
        <ele>39.8</ele>
        <time>2021-05-17T15:20:39.000Z</time>
      </trkpt>
      <trkpt lat="44.85453" lon="0.59453">
        <ele>39.8</ele>
        <time>2021-05-17T15:20:40.000Z</time>
      </trkpt>
      <trkpt lat="44.85454" lon="0.59453">
        <ele>39.8</ele>
        <time>2021-05-17T15:20:41.000Z</time>
      </trkpt>
      <trkpt lat="44.85454" lon="0.59453">
        <ele>39.8</ele>
        <time>2021-05-17T15:20:43.000Z</time>
      </trkpt>
      <trkpt lat="44.85454" lon="0.59453">
        <ele>39.8</ele>
        <time>2021-05-17T15:20:44.000Z</time>
      </trkpt>
      <trkpt lat="44.85454" lon="0.59454">
        <ele>39.8</ele>
        <time>2021-05-17T15:20:45.000Z</time>
      </trkpt>
      <trkpt lat="44.85454" lon="0.59454">
        <ele>39.8</ele>
        <time>2021-05-17T15:20:46.000Z</time>
      </trkpt>
      <trkpt lat="44.85454" lon="0.59455">
        <ele>39.8</ele>
        <time>2021-05-17T15:20:47.000Z</time>
      </trkpt>
      <trkpt lat="44.85454" lon="0.59455">
        <ele>39.8</ele>
        <time>2021-05-17T15:20:48.000Z</time>
      </trkpt>
      <trkpt lat="44.85454" lon="0.59455">
        <ele>39.8</ele>
        <time>2021-05-17T15:20:49.000Z</time>
      </trkpt>
      <trkpt lat="44.85453" lon="0.59455">
        <ele>39.8</ele>
        <time>2021-05-17T15:20:50.000Z</time>
      </trkpt>
      <trkpt lat="44.85453" lon="0.59455">
        <ele>39.8</ele>
        <time>2021-05-17T15:20:51.000Z</time>
      </trkpt>
      <trkpt lat="44.85453" lon="0.59455">
        <ele>39.8</ele>
        <time>2021-05-17T15:20:52.000Z</time>
      </trkpt>
      <trkpt lat="44.85453" lon="0.59455">
        <ele>39.8</ele>
        <time>2021-05-17T15:20:53.000Z</time>
      </trkpt>
      <trkpt lat="44.85454" lon="0.59455">
        <ele>39.8</ele>
        <time>2021-05-17T15:20:54.000Z</time>
      </trkpt>
      <trkpt lat="44.85454" lon="0.59456">
        <ele>39.8</ele>
        <time>2021-05-17T15:20:55.000Z</time>
      </trkpt>
      <trkpt lat="44.85453" lon="0.59456">
        <ele>39.8</ele>
        <time>2021-05-17T15:20:56.000Z</time>
      </trkpt>
      <trkpt lat="44.85453" lon="0.59457">
        <ele>39.8</ele>
        <time>2021-05-17T15:20:57.000Z</time>
      </trkpt>
      <trkpt lat="44.85453" lon="0.59456">
        <ele>39.8</ele>
        <time>2021-05-17T15:20:58.000Z</time>
      </trkpt>
      <trkpt lat="44.85453" lon="0.59457">
        <ele>39.8</ele>
        <time>2021-05-17T15:20:59.000Z</time>
      </trkpt>
      <trkpt lat="44.85453" lon="0.59457">
        <ele>39.8</ele>
        <time>2021-05-17T15:21:00.000Z</time>
      </trkpt>
      <trkpt lat="44.85453" lon="0.59457">
        <ele>39.8</ele>
        <time>2021-05-17T15:21:01.000Z</time>
      </trkpt>
      <trkpt lat="44.85453" lon="0.59457">
        <ele>39.8</ele>
        <time>2021-05-17T15:21:02.000Z</time>
      </trkpt>
      <trkpt lat="44.85453" lon="0.59457">
        <ele>39.8</ele>
        <time>2021-05-17T15:21:03.000Z</time>
      </trkpt>
      <trkpt lat="44.85454" lon="0.59457">
        <ele>39.8</ele>
        <time>2021-05-17T15:21:04.000Z</time>
      </trkpt>
      <trkpt lat="44.85454" lon="0.59457">
        <ele>39.8</ele>
        <time>2021-05-17T15:21:05.000Z</time>
      </trkpt>
      <trkpt lat="44.85453" lon="0.59457">
        <ele>39.8</ele>
        <time>2021-05-17T15:21:06.000Z</time>
      </trkpt>
      <trkpt lat="44.85454" lon="0.59457">
        <ele>39.8</ele>
        <time>2021-05-17T15:21:07.000Z</time>
      </trkpt>
      <trkpt lat="44.85454" lon="0.59457">
        <ele>39.8</ele>
        <time>2021-05-17T15:21:08.000Z</time>
      </trkpt>
      <trkpt lat="44.85454" lon="0.59457">
        <ele>39.8</ele>
        <time>2021-05-17T15:21:09.000Z</time>
      </trkpt>
      <trkpt lat="44.85454" lon="0.59457">
        <ele>39.8</ele>
        <time>2021-05-17T15:21:10.000Z</time>
      </trkpt>
      <trkpt lat="44.85454" lon="0.59458">
        <ele>39.8</ele>
        <time>2021-05-17T15:21:11.000Z</time>
      </trkpt>
      <trkpt lat="44.85454" lon="0.59458">
        <ele>39.8</ele>
        <time>2021-05-17T15:21:12.000Z</time>
      </trkpt>
      <trkpt lat="44.85453" lon="0.59457">
        <ele>39.8</ele>
        <time>2021-05-17T15:21:13.000Z</time>
      </trkpt>
      <trkpt lat="44.85453" lon="0.59457">
        <ele>39.8</ele>
        <time>2021-05-17T15:21:14.000Z</time>
      </trkpt>
      <trkpt lat="44.85453" lon="0.59456">
        <ele>39.8</ele>
        <time>2021-05-17T15:21:15.000Z</time>
      </trkpt>
      <trkpt lat="44.85453" lon="0.59455">
        <ele>39.8</ele>
        <time>2021-05-17T15:21:16.000Z</time>
      </trkpt>
      <trkpt lat="44.85453" lon="0.59455">
        <ele>39.8</ele>
        <time>2021-05-17T15:21:17.000Z</time>
      </trkpt>
      <trkpt lat="44.85453" lon="0.59455">
        <ele>39.8</ele>
        <time>2021-05-17T15:21:18.000Z</time>
      </trkpt>
      <trkpt lat="44.85453" lon="0.59455">
        <ele>39.8</ele>
        <time>2021-05-17T15:21:19.000Z</time>
      </trkpt>
      <trkpt lat="44.85453" lon="0.59456">
        <ele>39.8</ele>
        <time>2021-05-17T15:21:20.000Z</time>
      </trkpt>
      <trkpt lat="44.85453" lon="0.59456">
        <ele>39.8</ele>
        <time>2021-05-17T15:21:21.000Z</time>
      </trkpt>
      <trkpt lat="44.85454" lon="0.59457">
        <ele>39.8</ele>
        <time>2021-05-17T15:21:22.000Z</time>
      </trkpt>
      <trkpt lat="44.85454" lon="0.59457">
        <ele>39.8</ele>
        <time>2021-05-17T15:21:23.000Z</time>
      </trkpt>
      <trkpt lat="44.85454" lon="0.59457">
        <ele>39.8</ele>
        <time>2021-05-17T15:21:24.000Z</time>
      </trkpt>
      <trkpt lat="44.85454" lon="0.59458">
        <ele>39.8</ele>
        <time>2021-05-17T15:21:25.000Z</time>
      </trkpt>
      <trkpt lat="44.85454" lon="0.59459">
        <ele>39.8</ele>
        <time>2021-05-17T15:21:26.000Z</time>
      </trkpt>
      <trkpt lat="44.85454" lon="0.59459">
        <ele>39.8</ele>
        <time>2021-05-17T15:21:27.000Z</time>
      </trkpt>
      <trkpt lat="44.85453" lon="0.59459">
        <ele>39.8</ele>
        <time>2021-05-17T15:21:28.000Z</time>
      </trkpt>
      <trkpt lat="44.85453" lon="0.59459">
        <ele>39.8</ele>
        <time>2021-05-17T15:21:29.000Z</time>
      </trkpt>
      <trkpt lat="44.85453" lon="0.59459">
        <ele>39.8</ele>
        <time>2021-05-17T15:21:30.000Z</time>
      </trkpt>
      <trkpt lat="44.85453" lon="0.59459">
        <ele>39.8</ele>
        <time>2021-05-17T15:21:31.000Z</time>
      </trkpt>
      <trkpt lat="44.85453" lon="0.59459">
        <ele>39.8</ele>
        <time>2021-05-17T15:21:32.000Z</time>
      </trkpt>
      <trkpt lat="44.85452" lon="0.5946">
        <ele>39.9</ele>
        <time>2021-05-17T15:21:33.000Z</time>
      </trkpt>
      <trkpt lat="44.85453" lon="0.59459">
        <ele>39.9</ele>
        <time>2021-05-17T15:21:34.000Z</time>
      </trkpt>
      <trkpt lat="44.85453" lon="0.59459">
        <ele>39.9</ele>
        <time>2021-05-17T15:21:35.000Z</time>
      </trkpt>
      <trkpt lat="44.85453" lon="0.59459">
        <ele>39.9</ele>
        <time>2021-05-17T15:21:36.000Z</time>
      </trkpt>
      <trkpt lat="44.85453" lon="0.59458">
        <ele>39.9</ele>
        <time>2021-05-17T15:21:37.000Z</time>
      </trkpt>
      <trkpt lat="44.85453" lon="0.59458">
        <ele>39.9</ele>
        <time>2021-05-17T15:21:38.000Z</time>
      </trkpt>
      <trkpt lat="44.85452" lon="0.59458">
        <ele>39.9</ele>
        <time>2021-05-17T15:21:39.000Z</time>
      </trkpt>
      <trkpt lat="44.85452" lon="0.59458">
        <ele>39.9</ele>
        <time>2021-05-17T15:21:40.000Z</time>
      </trkpt>
      <trkpt lat="44.85452" lon="0.59457">
        <ele>39.9</ele>
        <time>2021-05-17T15:21:41.000Z</time>
      </trkpt>
      <trkpt lat="44.85452" lon="0.59457">
        <ele>39.9</ele>
        <time>2021-05-17T15:21:42.000Z</time>
      </trkpt>
      <trkpt lat="44.85452" lon="0.59457">
        <ele>39.9</ele>
        <time>2021-05-17T15:21:43.000Z</time>
      </trkpt>
      <trkpt lat="44.85452" lon="0.59456">
        <ele>39.9</ele>
        <time>2021-05-17T15:21:44.000Z</time>
      </trkpt>
      <trkpt lat="44.85453" lon="0.59456">
        <ele>39.9</ele>
        <time>2021-05-17T15:21:45.000Z</time>
      </trkpt>
      <trkpt lat="44.85453" lon="0.59455">
        <ele>39.9</ele>
        <time>2021-05-17T15:21:46.000Z</time>
      </trkpt>
      <trkpt lat="44.85453" lon="0.59455">
        <ele>39.9</ele>
        <time>2021-05-17T15:21:47.000Z</time>
      </trkpt>
      <trkpt lat="44.85454" lon="0.59455">
        <ele>39.9</ele>
        <time>2021-05-17T15:21:48.000Z</time>
      </trkpt>
      <trkpt lat="44.85454" lon="0.59454">
        <ele>39.9</ele>
        <time>2021-05-17T15:21:49.000Z</time>
      </trkpt>
      <trkpt lat="44.85453" lon="0.59454">
        <ele>39.9</ele>
        <time>2021-05-17T15:21:50.000Z</time>
      </trkpt>
      <trkpt lat="44.85453" lon="0.59455">
        <ele>39.9</ele>
        <time>2021-05-17T15:21:51.000Z</time>
      </trkpt>
      <trkpt lat="44.85453" lon="0.59455">
        <ele>39.9</ele>
        <time>2021-05-17T15:21:52.000Z</time>
      </trkpt>
      <trkpt lat="44.85453" lon="0.59455">
        <ele>39.9</ele>
        <time>2021-05-17T15:21:53.000Z</time>
      </trkpt>
      <trkpt lat="44.85453" lon="0.59455">
        <ele>39.9</ele>
        <time>2021-05-17T15:21:54.000Z</time>
      </trkpt>
      <trkpt lat="44.85453" lon="0.59455">
        <ele>39.9</ele>
        <time>2021-05-17T15:21:55.000Z</time>
      </trkpt>
      <trkpt lat="44.85453" lon="0.59456">
        <ele>39.9</ele>
        <time>2021-05-17T15:21:56.000Z</time>
      </trkpt>
      <trkpt lat="44.85453" lon="0.59456">
        <ele>39.9</ele>
        <time>2021-05-17T15:21:57.000Z</time>
      </trkpt>
      <trkpt lat="44.85453" lon="0.59455">
        <ele>39.9</ele>
        <time>2021-05-17T15:21:58.000Z</time>
      </trkpt>
      <trkpt lat="44.85453" lon="0.59455">
        <ele>39.9</ele>
        <time>2021-05-17T15:21:59.000Z</time>
      </trkpt>
      <trkpt lat="44.85453" lon="0.59456">
        <ele>39.9</ele>
        <time>2021-05-17T15:22:00.000Z</time>
      </trkpt>
      <trkpt lat="44.85453" lon="0.59456">
        <ele>39.9</ele>
        <time>2021-05-17T15:22:01.000Z</time>
      </trkpt>
      <trkpt lat="44.85453" lon="0.59456">
        <ele>39.9</ele>
        <time>2021-05-17T15:22:02.000Z</time>
      </trkpt>
      <trkpt lat="44.85454" lon="0.59457">
        <ele>39.9</ele>
        <time>2021-05-17T15:22:03.000Z</time>
      </trkpt>
      <trkpt lat="44.85453" lon="0.59457">
        <ele>39.9</ele>
        <time>2021-05-17T15:22:04.000Z</time>
      </trkpt>
      <trkpt lat="44.85453" lon="0.59457">
        <ele>39.9</ele>
        <time>2021-05-17T15:22:05.000Z</time>
      </trkpt>
      <trkpt lat="44.85453" lon="0.59458">
        <ele>39.9</ele>
        <time>2021-05-17T15:22:06.000Z</time>
      </trkpt>
      <trkpt lat="44.85454" lon="0.59458">
        <ele>39.9</ele>
        <time>2021-05-17T15:22:07.000Z</time>
      </trkpt>
      <trkpt lat="44.85453" lon="0.59458">
        <ele>39.9</ele>
        <time>2021-05-17T15:22:08.000Z</time>
      </trkpt>
      <trkpt lat="44.85453" lon="0.59458">
        <ele>39.9</ele>
        <time>2021-05-17T15:22:09.000Z</time>
      </trkpt>
      <trkpt lat="44.85454" lon="0.59458">
        <ele>39.9</ele>
        <time>2021-05-17T15:22:10.000Z</time>
      </trkpt>
      <trkpt lat="44.85454" lon="0.59458">
        <ele>39.9</ele>
        <time>2021-05-17T15:22:11.000Z</time>
      </trkpt>
      <trkpt lat="44.85454" lon="0.59458">
        <ele>39.9</ele>
        <time>2021-05-17T15:22:12.000Z</time>
      </trkpt>
      <trkpt lat="44.85454" lon="0.59458">
        <ele>39.9</ele>
        <time>2021-05-17T15:22:13.000Z</time>
      </trkpt>
      <trkpt lat="44.85454" lon="0.59458">
        <ele>39.9</ele>
        <time>2021-05-17T15:22:14.000Z</time>
      </trkpt>
      <trkpt lat="44.85454" lon="0.59458">
        <ele>39.9</ele>
        <time>2021-05-17T15:22:15.000Z</time>
      </trkpt>
      <trkpt lat="44.85454" lon="0.59458">
        <ele>39.9</ele>
        <time>2021-05-17T15:22:16.000Z</time>
      </trkpt>
      <trkpt lat="44.85453" lon="0.59457">
        <ele>39.9</ele>
        <time>2021-05-17T15:22:17.000Z</time>
      </trkpt>
      <trkpt lat="44.85453" lon="0.59457">
        <ele>39.9</ele>
        <time>2021-05-17T15:22:18.000Z</time>
      </trkpt>
      <trkpt lat="44.85453" lon="0.59456">
        <ele>39.9</ele>
        <time>2021-05-17T15:22:19.000Z</time>
      </trkpt>
      <trkpt lat="44.85452" lon="0.59456">
        <ele>39.9</ele>
        <time>2021-05-17T15:22:20.000Z</time>
      </trkpt>
      <trkpt lat="44.85452" lon="0.59456">
        <ele>39.9</ele>
        <time>2021-05-17T15:22:21.000Z</time>
      </trkpt>
      <trkpt lat="44.85453" lon="0.59455">
        <ele>39.9</ele>
        <time>2021-05-17T15:22:22.000Z</time>
      </trkpt>
      <trkpt lat="44.85453" lon="0.59455">
        <ele>39.9</ele>
        <time>2021-05-17T15:22:23.000Z</time>
      </trkpt>
      <trkpt lat="44.85453" lon="0.59455">
        <ele>39.9</ele>
        <time>2021-05-17T15:22:24.000Z</time>
      </trkpt>
      <trkpt lat="44.85452" lon="0.59455">
        <ele>39.9</ele>
        <time>2021-05-17T15:22:25.000Z</time>
      </trkpt>
      <trkpt lat="44.85452" lon="0.59454">
        <ele>39.9</ele>
        <time>2021-05-17T15:22:26.000Z</time>
      </trkpt>
      <trkpt lat="44.85452" lon="0.59454">
        <ele>39.9</ele>
        <time>2021-05-17T15:22:27.000Z</time>
      </trkpt>
      <trkpt lat="44.85452" lon="0.59454">
        <ele>39.9</ele>
        <time>2021-05-17T15:22:28.000Z</time>
      </trkpt>
      <trkpt lat="44.85452" lon="0.59454">
        <ele>39.9</ele>
        <time>2021-05-17T15:22:29.000Z</time>
      </trkpt>
      <trkpt lat="44.85452" lon="0.59454">
        <ele>39.9</ele>
        <time>2021-05-17T15:22:30.000Z</time>
      </trkpt>
      <trkpt lat="44.85452" lon="0.59455">
        <ele>39.9</ele>
        <time>2021-05-17T15:22:31.000Z</time>
      </trkpt>
      <trkpt lat="44.85452" lon="0.59455">
        <ele>39.9</ele>
        <time>2021-05-17T15:22:32.000Z</time>
      </trkpt>
      <trkpt lat="44.85452" lon="0.59455">
        <ele>39.9</ele>
        <time>2021-05-17T15:22:33.000Z</time>
      </trkpt>
      <trkpt lat="44.85452" lon="0.59455">
        <ele>39.9</ele>
        <time>2021-05-17T15:22:34.000Z</time>
      </trkpt>
      <trkpt lat="44.85453" lon="0.59455">
        <ele>39.9</ele>
        <time>2021-05-17T15:22:35.000Z</time>
      </trkpt>
      <trkpt lat="44.85453" lon="0.59455">
        <ele>39.9</ele>
        <time>2021-05-17T15:22:36.000Z</time>
      </trkpt>
      <trkpt lat="44.85453" lon="0.59455">
        <ele>39.9</ele>
        <time>2021-05-17T15:22:37.000Z</time>
      </trkpt>
      <trkpt lat="44.85453" lon="0.59455">
        <ele>39.9</ele>
        <time>2021-05-17T15:22:38.000Z</time>
      </trkpt>
      <trkpt lat="44.85454" lon="0.59455">
        <ele>39.9</ele>
        <time>2021-05-17T15:22:39.000Z</time>
      </trkpt>
      <trkpt lat="44.85454" lon="0.59455">
        <ele>39.9</ele>
        <time>2021-05-17T15:22:40.000Z</time>
      </trkpt>
      <trkpt lat="44.85454" lon="0.59455">
        <ele>39.9</ele>
        <time>2021-05-17T15:22:41.000Z</time>
      </trkpt>
      <trkpt lat="44.85454" lon="0.59455">
        <ele>39.9</ele>
        <time>2021-05-17T15:22:42.000Z</time>
      </trkpt>
      <trkpt lat="44.85455" lon="0.59455">
        <ele>39.9</ele>
        <time>2021-05-17T15:22:43.000Z</time>
      </trkpt>
      <trkpt lat="44.85454" lon="0.59455">
        <ele>39.9</ele>
        <time>2021-05-17T15:22:45.000Z</time>
      </trkpt>
      <trkpt lat="44.85454" lon="0.59455">
        <ele>39.9</ele>
        <time>2021-05-17T15:22:46.000Z</time>
      </trkpt>
      <trkpt lat="44.85454" lon="0.59454">
        <ele>39.9</ele>
        <time>2021-05-17T15:22:47.000Z</time>
      </trkpt>
      <trkpt lat="44.85454" lon="0.59453">
        <ele>40</ele>
        <time>2021-05-17T15:22:49.000Z</time>
      </trkpt>
      <trkpt lat="44.85454" lon="0.59453">
        <ele>40</ele>
        <time>2021-05-17T15:22:51.000Z</time>
      </trkpt>
      <trkpt lat="44.85454" lon="0.59454">
        <ele>40</ele>
        <time>2021-05-17T15:22:53.000Z</time>
      </trkpt>
      <trkpt lat="44.85455" lon="0.59454">
        <ele>40</ele>
        <time>2021-05-17T15:22:55.000Z</time>
      </trkpt>
      <trkpt lat="44.85455" lon="0.59454">
        <ele>40</ele>
        <time>2021-05-17T15:22:57.000Z</time>
      </trkpt>
      <trkpt lat="44.85455" lon="0.59454">
        <ele>40</ele>
        <time>2021-05-17T15:22:59.000Z</time>
      </trkpt>
      <trkpt lat="44.85456" lon="0.59454">
        <ele>40</ele>
        <time>2021-05-17T15:23:01.000Z</time>
      </trkpt>
      <trkpt lat="44.85455" lon="0.59454">
        <ele>40</ele>
        <time>2021-05-17T15:23:03.000Z</time>
      </trkpt>
      <trkpt lat="44.85455" lon="0.59453">
        <ele>40</ele>
        <time>2021-05-17T15:23:04.000Z</time>
      </trkpt>
      <trkpt lat="44.85455" lon="0.59453">
        <ele>40</ele>
        <time>2021-05-17T15:23:05.000Z</time>
      </trkpt>
      <trkpt lat="44.85455" lon="0.59453">
        <ele>40</ele>
        <time>2021-05-17T15:23:06.000Z</time>
      </trkpt>
      <trkpt lat="44.85455" lon="0.59454">
        <ele>40</ele>
        <time>2021-05-17T15:23:07.000Z</time>
      </trkpt>
      <trkpt lat="44.85455" lon="0.59454">
        <ele>40</ele>
        <time>2021-05-17T15:23:08.000Z</time>
      </trkpt>
      <trkpt lat="44.85455" lon="0.59454">
        <ele>40</ele>
        <time>2021-05-17T15:23:09.000Z</time>
      </trkpt>
      <trkpt lat="44.85455" lon="0.59454">
        <ele>40</ele>
        <time>2021-05-17T15:23:10.000Z</time>
      </trkpt>
      <trkpt lat="44.85455" lon="0.59455">
        <ele>40</ele>
        <time>2021-05-17T15:23:11.000Z</time>
      </trkpt>
      <trkpt lat="44.85455" lon="0.59455">
        <ele>40</ele>
        <time>2021-05-17T15:23:12.000Z</time>
      </trkpt>
      <trkpt lat="44.85455" lon="0.59455">
        <ele>40</ele>
        <time>2021-05-17T15:23:13.000Z</time>
      </trkpt>
      <trkpt lat="44.85455" lon="0.59456">
        <ele>40</ele>
        <time>2021-05-17T15:23:14.000Z</time>
      </trkpt>
      <trkpt lat="44.85455" lon="0.59456">
        <ele>40</ele>
        <time>2021-05-17T15:23:15.000Z</time>
      </trkpt>
      <trkpt lat="44.85455" lon="0.59456">
        <ele>40</ele>
        <time>2021-05-17T15:23:16.000Z</time>
      </trkpt>
      <trkpt lat="44.85454" lon="0.59456">
        <ele>40</ele>
        <time>2021-05-17T15:23:17.000Z</time>
      </trkpt>
      <trkpt lat="44.85455" lon="0.59456">
        <ele>40</ele>
        <time>2021-05-17T15:23:18.000Z</time>
      </trkpt>
      <trkpt lat="44.85455" lon="0.59455">
        <ele>40</ele>
        <time>2021-05-17T15:23:19.000Z</time>
      </trkpt>
      <trkpt lat="44.85454" lon="0.59455">
        <ele>40</ele>
        <time>2021-05-17T15:23:20.000Z</time>
      </trkpt>
      <trkpt lat="44.85454" lon="0.59455">
        <ele>40</ele>
        <time>2021-05-17T15:23:21.000Z</time>
      </trkpt>
      <trkpt lat="44.85454" lon="0.59454">
        <ele>40</ele>
        <time>2021-05-17T15:23:22.000Z</time>
      </trkpt>
      <trkpt lat="44.85454" lon="0.59455">
        <ele>40</ele>
        <time>2021-05-17T15:23:23.000Z</time>
      </trkpt>
      <trkpt lat="44.85454" lon="0.59455">
        <ele>40</ele>
        <time>2021-05-17T15:23:24.000Z</time>
      </trkpt>
      <trkpt lat="44.85454" lon="0.59455">
        <ele>40</ele>
        <time>2021-05-17T15:23:25.000Z</time>
      </trkpt>
      <trkpt lat="44.85454" lon="0.59455">
        <ele>40</ele>
        <time>2021-05-17T15:23:26.000Z</time>
      </trkpt>
      <trkpt lat="44.85454" lon="0.59455">
        <ele>40</ele>
        <time>2021-05-17T15:23:27.000Z</time>
      </trkpt>
      <trkpt lat="44.85455" lon="0.59455">
        <ele>40</ele>
        <time>2021-05-17T15:23:28.000Z</time>
      </trkpt>
      <trkpt lat="44.85455" lon="0.59455">
        <ele>40</ele>
        <time>2021-05-17T15:23:29.000Z</time>
      </trkpt>
      <trkpt lat="44.85455" lon="0.59456">
        <ele>40</ele>
        <time>2021-05-17T15:23:30.000Z</time>
      </trkpt>
      <trkpt lat="44.85456" lon="0.59456">
        <ele>40</ele>
        <time>2021-05-17T15:23:31.000Z</time>
      </trkpt>
      <trkpt lat="44.85456" lon="0.59457">
        <ele>40</ele>
        <time>2021-05-17T15:23:32.000Z</time>
      </trkpt>
      <trkpt lat="44.85457" lon="0.59457">
        <ele>40</ele>
        <time>2021-05-17T15:23:33.000Z</time>
      </trkpt>
      <trkpt lat="44.85456" lon="0.59457">
        <ele>40</ele>
        <time>2021-05-17T15:23:34.000Z</time>
      </trkpt>
      <trkpt lat="44.85456" lon="0.59458">
        <ele>40</ele>
        <time>2021-05-17T15:23:35.000Z</time>
      </trkpt>
      <trkpt lat="44.85456" lon="0.59457">
        <ele>40</ele>
        <time>2021-05-17T15:23:36.000Z</time>
      </trkpt>
      <trkpt lat="44.85457" lon="0.59457">
        <ele>40</ele>
        <time>2021-05-17T15:23:37.000Z</time>
      </trkpt>
      <trkpt lat="44.85457" lon="0.59457">
        <ele>40</ele>
        <time>2021-05-17T15:23:38.000Z</time>
      </trkpt>
      <trkpt lat="44.85457" lon="0.59457">
        <ele>40</ele>
        <time>2021-05-17T15:23:39.000Z</time>
      </trkpt>
      <trkpt lat="44.85458" lon="0.59457">
        <ele>40</ele>
        <time>2021-05-17T15:23:40.000Z</time>
      </trkpt>
      <trkpt lat="44.85457" lon="0.59457">
        <ele>40</ele>
        <time>2021-05-17T15:23:41.000Z</time>
      </trkpt>
      <trkpt lat="44.85457" lon="0.59457">
        <ele>40</ele>
        <time>2021-05-17T15:23:42.000Z</time>
      </trkpt>
      <trkpt lat="44.85457" lon="0.59457">
        <ele>40</ele>
        <time>2021-05-17T15:23:43.000Z</time>
      </trkpt>
      <trkpt lat="44.85457" lon="0.59458">
        <ele>40</ele>
        <time>2021-05-17T15:23:44.000Z</time>
      </trkpt>
      <trkpt lat="44.85457" lon="0.59458">
        <ele>40</ele>
        <time>2021-05-17T15:23:45.000Z</time>
      </trkpt>
      <trkpt lat="44.85458" lon="0.59458">
        <ele>40</ele>
        <time>2021-05-17T15:23:46.000Z</time>
      </trkpt>
      <trkpt lat="44.85458" lon="0.59458">
        <ele>40</ele>
        <time>2021-05-17T15:23:47.000Z</time>
      </trkpt>
      <trkpt lat="44.85458" lon="0.59458">
        <ele>40</ele>
        <time>2021-05-17T15:23:48.000Z</time>
      </trkpt>
      <trkpt lat="44.85458" lon="0.59458">
        <ele>40</ele>
        <time>2021-05-17T15:23:49.000Z</time>
      </trkpt>
      <trkpt lat="44.85458" lon="0.59458">
        <ele>40</ele>
        <time>2021-05-17T15:23:50.000Z</time>
      </trkpt>
      <trkpt lat="44.85457" lon="0.59458">
        <ele>40</ele>
        <time>2021-05-17T15:23:51.000Z</time>
      </trkpt>
      <trkpt lat="44.85457" lon="0.59459">
        <ele>40</ele>
        <time>2021-05-17T15:23:52.000Z</time>
      </trkpt>
      <trkpt lat="44.85458" lon="0.59459">
        <ele>40</ele>
        <time>2021-05-17T15:23:53.000Z</time>
      </trkpt>
      <trkpt lat="44.85457" lon="0.59459">
        <ele>40</ele>
        <time>2021-05-17T15:23:54.000Z</time>
      </trkpt>
      <trkpt lat="44.85457" lon="0.59459">
        <ele>40</ele>
        <time>2021-05-17T15:23:55.000Z</time>
      </trkpt>
      <trkpt lat="44.85457" lon="0.59459">
        <ele>40</ele>
        <time>2021-05-17T15:23:56.000Z</time>
      </trkpt>
      <trkpt lat="44.85457" lon="0.59458">
        <ele>40</ele>
        <time>2021-05-17T15:23:57.000Z</time>
      </trkpt>
      <trkpt lat="44.85457" lon="0.59458">
        <ele>40</ele>
        <time>2021-05-17T15:23:58.000Z</time>
      </trkpt>
      <trkpt lat="44.85457" lon="0.59458">
        <ele>40</ele>
        <time>2021-05-17T15:23:59.000Z</time>
      </trkpt>
      <trkpt lat="44.85457" lon="0.59458">
        <ele>40</ele>
        <time>2021-05-17T15:24:00.000Z</time>
      </trkpt>
      <trkpt lat="44.85457" lon="0.59457">
        <ele>40</ele>
        <time>2021-05-17T15:24:01.000Z</time>
      </trkpt>
      <trkpt lat="44.85457" lon="0.59457">
        <ele>40</ele>
        <time>2021-05-17T15:24:02.000Z</time>
      </trkpt>
      <trkpt lat="44.85457" lon="0.59457">
        <ele>40</ele>
        <time>2021-05-17T15:24:03.000Z</time>
      </trkpt>
      <trkpt lat="44.85456" lon="0.59457">
        <ele>40</ele>
        <time>2021-05-17T15:24:04.000Z</time>
      </trkpt>
      <trkpt lat="44.85456" lon="0.59457">
        <ele>40</ele>
        <time>2021-05-17T15:24:05.000Z</time>
      </trkpt>
      <trkpt lat="44.85457" lon="0.59457">
        <ele>40</ele>
        <time>2021-05-17T15:24:06.000Z</time>
      </trkpt>
      <trkpt lat="44.85456" lon="0.59457">
        <ele>40</ele>
        <time>2021-05-17T15:24:07.000Z</time>
      </trkpt>
      <trkpt lat="44.85457" lon="0.59456">
        <ele>40</ele>
        <time>2021-05-17T15:24:08.000Z</time>
      </trkpt>
      <trkpt lat="44.85457" lon="0.59457">
        <ele>40</ele>
        <time>2021-05-17T15:24:09.000Z</time>
      </trkpt>
      <trkpt lat="44.85457" lon="0.59457">
        <ele>40.1</ele>
        <time>2021-05-17T15:24:10.000Z</time>
      </trkpt>
      <trkpt lat="44.85457" lon="0.59457">
        <ele>40.1</ele>
        <time>2021-05-17T15:24:11.000Z</time>
      </trkpt>
      <trkpt lat="44.85457" lon="0.59457">
        <ele>40.1</ele>
        <time>2021-05-17T15:24:12.000Z</time>
      </trkpt>
      <trkpt lat="44.85457" lon="0.59457">
        <ele>40.1</ele>
        <time>2021-05-17T15:24:13.000Z</time>
      </trkpt>
      <trkpt lat="44.85457" lon="0.59457">
        <ele>40.1</ele>
        <time>2021-05-17T15:24:14.000Z</time>
      </trkpt>
      <trkpt lat="44.85457" lon="0.59457">
        <ele>40.1</ele>
        <time>2021-05-17T15:24:15.000Z</time>
      </trkpt>
      <trkpt lat="44.85457" lon="0.59457">
        <ele>40.1</ele>
        <time>2021-05-17T15:24:16.000Z</time>
      </trkpt>
      <trkpt lat="44.85457" lon="0.59456">
        <ele>40.1</ele>
        <time>2021-05-17T15:24:17.000Z</time>
      </trkpt>
      <trkpt lat="44.85457" lon="0.59456">
        <ele>40.1</ele>
        <time>2021-05-17T15:24:18.000Z</time>
      </trkpt>
      <trkpt lat="44.85457" lon="0.59456">
        <ele>40.1</ele>
        <time>2021-05-17T15:24:19.000Z</time>
      </trkpt>
      <trkpt lat="44.85457" lon="0.59456">
        <ele>40.1</ele>
        <time>2021-05-17T15:24:20.000Z</time>
      </trkpt>
      <trkpt lat="44.85457" lon="0.59456">
        <ele>40.1</ele>
        <time>2021-05-17T15:24:21.000Z</time>
      </trkpt>
      <trkpt lat="44.85457" lon="0.59456">
        <ele>40.1</ele>
        <time>2021-05-17T15:24:22.000Z</time>
      </trkpt>
      <trkpt lat="44.85457" lon="0.59456">
        <ele>40.1</ele>
        <time>2021-05-17T15:24:23.000Z</time>
      </trkpt>
      <trkpt lat="44.85456" lon="0.59456">
        <ele>40.1</ele>
        <time>2021-05-17T15:24:24.000Z</time>
      </trkpt>
      <trkpt lat="44.85456" lon="0.59456">
        <ele>40.1</ele>
        <time>2021-05-17T15:24:25.000Z</time>
      </trkpt>
      <trkpt lat="44.85456" lon="0.59456">
        <ele>40.1</ele>
        <time>2021-05-17T15:24:26.000Z</time>
      </trkpt>
      <trkpt lat="44.85456" lon="0.59456">
        <ele>40.1</ele>
        <time>2021-05-17T15:24:27.000Z</time>
      </trkpt>
      <trkpt lat="44.85456" lon="0.59456">
        <ele>40.1</ele>
        <time>2021-05-17T15:24:28.000Z</time>
      </trkpt>
      <trkpt lat="44.85456" lon="0.59456">
        <ele>40.1</ele>
        <time>2021-05-17T15:24:29.000Z</time>
      </trkpt>
      <trkpt lat="44.85455" lon="0.59455">
        <ele>40.1</ele>
        <time>2021-05-17T15:24:30.000Z</time>
      </trkpt>
      <trkpt lat="44.85455" lon="0.59455">
        <ele>40.1</ele>
        <time>2021-05-17T15:24:31.000Z</time>
      </trkpt>
      <trkpt lat="44.85455" lon="0.59456">
        <ele>40.1</ele>
        <time>2021-05-17T15:24:32.000Z</time>
      </trkpt>
      <trkpt lat="44.85455" lon="0.59456">
        <ele>40.1</ele>
        <time>2021-05-17T15:24:33.000Z</time>
      </trkpt>
      <trkpt lat="44.85454" lon="0.59456">
        <ele>40.1</ele>
        <time>2021-05-17T15:24:34.000Z</time>
      </trkpt>
      <trkpt lat="44.85454" lon="0.59456">
        <ele>40.1</ele>
        <time>2021-05-17T15:24:35.000Z</time>
      </trkpt>
      <trkpt lat="44.85454" lon="0.59457">
        <ele>40.1</ele>
        <time>2021-05-17T15:24:36.000Z</time>
      </trkpt>
      <trkpt lat="44.85454" lon="0.59458">
        <ele>40.1</ele>
        <time>2021-05-17T15:24:37.000Z</time>
      </trkpt>
      <trkpt lat="44.85454" lon="0.5946">
        <ele>40.1</ele>
        <time>2021-05-17T15:24:38.000Z</time>
      </trkpt>
      <trkpt lat="44.85455" lon="0.59462">
        <ele>40.1</ele>
        <time>2021-05-17T15:24:39.000Z</time>
      </trkpt>
      <trkpt lat="44.85455" lon="0.59461">
        <ele>40.1</ele>
        <time>2021-05-17T15:24:40.000Z</time>
      </trkpt>
      <trkpt lat="44.85456" lon="0.59459">
        <ele>40.1</ele>
        <time>2021-05-17T15:24:41.000Z</time>
      </trkpt>
      <trkpt lat="44.85456" lon="0.59458">
        <ele>40.1</ele>
        <time>2021-05-17T15:24:42.000Z</time>
      </trkpt>
      <trkpt lat="44.85456" lon="0.59456">
        <ele>40.1</ele>
        <time>2021-05-17T15:24:43.000Z</time>
      </trkpt>
      <trkpt lat="44.85456" lon="0.59455">
        <ele>40.1</ele>
        <time>2021-05-17T15:24:44.000Z</time>
      </trkpt>
      <trkpt lat="44.85456" lon="0.59454">
        <ele>40.1</ele>
        <time>2021-05-17T15:24:45.000Z</time>
      </trkpt>
      <trkpt lat="44.85456" lon="0.59453">
        <ele>40.1</ele>
        <time>2021-05-17T15:24:46.000Z</time>
      </trkpt>
      <trkpt lat="44.85455" lon="0.59452">
        <ele>40.1</ele>
        <time>2021-05-17T15:24:47.000Z</time>
      </trkpt>
      <trkpt lat="44.85456" lon="0.59447">
        <ele>40.1</ele>
        <time>2021-05-17T15:24:48.000Z</time>
      </trkpt>
      <trkpt lat="44.85457" lon="0.59446">
        <ele>40.2</ele>
        <time>2021-05-17T15:24:49.000Z</time>
      </trkpt>
      <trkpt lat="44.85461" lon="0.59447">
        <ele>40.2</ele>
        <time>2021-05-17T15:24:51.000Z</time>
      </trkpt>
      <trkpt lat="44.85462" lon="0.59447">
        <ele>40.2</ele>
        <time>2021-05-17T15:24:52.000Z</time>
      </trkpt>
      <trkpt lat="44.85466" lon="0.59449">
        <ele>40.2</ele>
        <time>2021-05-17T15:24:53.000Z</time>
      </trkpt>
      <trkpt lat="44.85469" lon="0.5945">
        <ele>40.2</ele>
        <time>2021-05-17T15:24:54.000Z</time>
      </trkpt>
      <trkpt lat="44.85473" lon="0.59451">
        <ele>40.2</ele>
        <time>2021-05-17T15:24:55.000Z</time>
      </trkpt>
      <trkpt lat="44.85476" lon="0.59451">
        <ele>40.2</ele>
        <time>2021-05-17T15:24:56.000Z</time>
      </trkpt>
      <trkpt lat="44.85479" lon="0.59452">
        <ele>40.3</ele>
        <time>2021-05-17T15:24:57.000Z</time>
      </trkpt>
      <trkpt lat="44.85482" lon="0.59452">
        <ele>40.3</ele>
        <time>2021-05-17T15:24:58.000Z</time>
      </trkpt>
      <trkpt lat="44.85484" lon="0.59452">
        <ele>40.3</ele>
        <time>2021-05-17T15:24:59.000Z</time>
      </trkpt>
      <trkpt lat="44.85487" lon="0.59453">
        <ele>40.4</ele>
        <time>2021-05-17T15:25:00.000Z</time>
      </trkpt>
      <trkpt lat="44.85488" lon="0.59453">
        <ele>40.4</ele>
        <time>2021-05-17T15:25:01.000Z</time>
      </trkpt>
      <trkpt lat="44.85491" lon="0.59451">
        <ele>40.5</ele>
        <time>2021-05-17T15:25:02.000Z</time>
      </trkpt>
      <trkpt lat="44.85493" lon="0.59447">
        <ele>40.6</ele>
        <time>2021-05-17T15:25:03.000Z</time>
      </trkpt>
      <trkpt lat="44.85495" lon="0.59443">
        <ele>40.6</ele>
        <time>2021-05-17T15:25:04.000Z</time>
      </trkpt>
      <trkpt lat="44.85496" lon="0.59438">
        <ele>40.7</ele>
        <time>2021-05-17T15:25:05.000Z</time>
      </trkpt>
      <trkpt lat="44.85498" lon="0.59434">
        <ele>40.8</ele>
        <time>2021-05-17T15:25:06.000Z</time>
      </trkpt>
      <trkpt lat="44.85501" lon="0.59429">
        <ele>40.8</ele>
        <time>2021-05-17T15:25:07.000Z</time>
      </trkpt>
      <trkpt lat="44.85502" lon="0.59428">
        <ele>41.3</ele>
        <time>2021-05-17T15:25:08.000Z</time>
      </trkpt>
      <trkpt lat="44.85505" lon="0.59426">
        <ele>41.4</ele>
        <time>2021-05-17T15:25:09.000Z</time>
      </trkpt>
      <trkpt lat="44.85508" lon="0.59428">
        <ele>41.5</ele>
        <time>2021-05-17T15:25:10.000Z</time>
      </trkpt>
      <trkpt lat="44.85516" lon="0.5943">
        <ele>41.7</ele>
        <time>2021-05-17T15:25:11.000Z</time>
      </trkpt>
      <trkpt lat="44.8552" lon="0.5943">
        <ele>41.8</ele>
        <time>2021-05-17T15:25:12.000Z</time>
      </trkpt>
      <trkpt lat="44.85524" lon="0.5943">
        <ele>41.8</ele>
        <time>2021-05-17T15:25:13.000Z</time>
      </trkpt>
      <trkpt lat="44.85525" lon="0.5943">
        <ele>41.8</ele>
        <time>2021-05-17T15:25:14.000Z</time>
      </trkpt>
      <trkpt lat="44.85526" lon="0.59429">
        <ele>41.9</ele>
        <time>2021-05-17T15:25:15.000Z</time>
      </trkpt>
      <trkpt lat="44.85527" lon="0.59427">
        <ele>41.9</ele>
        <time>2021-05-17T15:25:16.000Z</time>
      </trkpt>
      <trkpt lat="44.8553" lon="0.59424">
        <ele>41.9</ele>
        <time>2021-05-17T15:25:17.000Z</time>
      </trkpt>
      <trkpt lat="44.85531" lon="0.59423">
        <ele>41.9</ele>
        <time>2021-05-17T15:25:18.000Z</time>
      </trkpt>
      <trkpt lat="44.8553" lon="0.59419">
        <ele>41.9</ele>
        <time>2021-05-17T15:25:19.000Z</time>
      </trkpt>
      <trkpt lat="44.8553" lon="0.59416">
        <ele>41.9</ele>
        <time>2021-05-17T15:25:20.000Z</time>
      </trkpt>
      <trkpt lat="44.85529" lon="0.59412">
        <ele>42</ele>
        <time>2021-05-17T15:25:21.000Z</time>
      </trkpt>
      <trkpt lat="44.8553" lon="0.59407">
        <ele>42</ele>
        <time>2021-05-17T15:25:22.000Z</time>
      </trkpt>
      <trkpt lat="44.85531" lon="0.59402">
        <ele>42</ele>
        <time>2021-05-17T15:25:23.000Z</time>
      </trkpt>
      <trkpt lat="44.85533" lon="0.59402">
        <ele>42</ele>
        <time>2021-05-17T15:25:24.000Z</time>
      </trkpt>
      <trkpt lat="44.85534" lon="0.59403">
        <ele>42.1</ele>
        <time>2021-05-17T15:25:25.000Z</time>
      </trkpt>
      <trkpt lat="44.85538" lon="0.59402">
        <ele>42.1</ele>
        <time>2021-05-17T15:25:26.000Z</time>
      </trkpt>
      <trkpt lat="44.8554" lon="0.59401">
        <ele>42.1</ele>
        <time>2021-05-17T15:25:27.000Z</time>
      </trkpt>
      <trkpt lat="44.85541" lon="0.59401">
        <ele>42.1</ele>
        <time>2021-05-17T15:25:28.000Z</time>
      </trkpt>
      <trkpt lat="44.85545" lon="0.59403">
        <ele>42.2</ele>
        <time>2021-05-17T15:25:29.000Z</time>
      </trkpt>
      <trkpt lat="44.85547" lon="0.59409">
        <ele>42.2</ele>
        <time>2021-05-17T15:25:30.000Z</time>
      </trkpt>
      <trkpt lat="44.8555" lon="0.59412">
        <ele>42.3</ele>
        <time>2021-05-17T15:25:31.000Z</time>
      </trkpt>
      <trkpt lat="44.85553" lon="0.59413">
        <ele>42.3</ele>
        <time>2021-05-17T15:25:32.000Z</time>
      </trkpt>
      <trkpt lat="44.85558" lon="0.59415">
        <ele>42.4</ele>
        <time>2021-05-17T15:25:33.000Z</time>
      </trkpt>
      <trkpt lat="44.8556" lon="0.59416">
        <ele>42.4</ele>
        <time>2021-05-17T15:25:34.000Z</time>
      </trkpt>
      <trkpt lat="44.85563" lon="0.59419">
        <ele>42.4</ele>
        <time>2021-05-17T15:25:35.000Z</time>
      </trkpt>
      <trkpt lat="44.85565" lon="0.59422">
        <ele>42.5</ele>
        <time>2021-05-17T15:25:36.000Z</time>
      </trkpt>
      <trkpt lat="44.85567" lon="0.59426">
        <ele>42.6</ele>
        <time>2021-05-17T15:25:37.000Z</time>
      </trkpt>
      <trkpt lat="44.85567" lon="0.59428">
        <ele>42.6</ele>
        <time>2021-05-17T15:25:38.000Z</time>
      </trkpt>
      <trkpt lat="44.8557" lon="0.5943">
        <ele>42.6</ele>
        <time>2021-05-17T15:25:39.000Z</time>
      </trkpt>
      <trkpt lat="44.85572" lon="0.5943">
        <ele>42.6</ele>
        <time>2021-05-17T15:25:40.000Z</time>
      </trkpt>
      <trkpt lat="44.85575" lon="0.59431">
        <ele>42.7</ele>
        <time>2021-05-17T15:25:41.000Z</time>
      </trkpt>
      <trkpt lat="44.85579" lon="0.59432">
        <ele>42.8</ele>
        <time>2021-05-17T15:25:42.000Z</time>
      </trkpt>
      <trkpt lat="44.85582" lon="0.59434">
        <ele>42.8</ele>
        <time>2021-05-17T15:25:43.000Z</time>
      </trkpt>
      <trkpt lat="44.85584" lon="0.59437">
        <ele>42.9</ele>
        <time>2021-05-17T15:25:44.000Z</time>
      </trkpt>
      <trkpt lat="44.85587" lon="0.5944">
        <ele>43</ele>
        <time>2021-05-17T15:25:45.000Z</time>
      </trkpt>
      <trkpt lat="44.85587" lon="0.59441">
        <ele>43</ele>
        <time>2021-05-17T15:25:46.000Z</time>
      </trkpt>
      <trkpt lat="44.8559" lon="0.59445">
        <ele>43</ele>
        <time>2021-05-17T15:25:47.000Z</time>
      </trkpt>
      <trkpt lat="44.85591" lon="0.59446">
        <ele>43.1</ele>
        <time>2021-05-17T15:25:48.000Z</time>
      </trkpt>
      <trkpt lat="44.85592" lon="0.59448">
        <ele>43.1</ele>
        <time>2021-05-17T15:25:49.000Z</time>
      </trkpt>
      <trkpt lat="44.85593" lon="0.59449">
        <ele>43.1</ele>
        <time>2021-05-17T15:25:50.000Z</time>
      </trkpt>
      <trkpt lat="44.85593" lon="0.59451">
        <ele>43.1</ele>
        <time>2021-05-17T15:25:51.000Z</time>
      </trkpt>
      <trkpt lat="44.85593" lon="0.59451">
        <ele>43.1</ele>
        <time>2021-05-17T15:25:52.000Z</time>
      </trkpt>
      <trkpt lat="44.85593" lon="0.59452">
        <ele>43.1</ele>
        <time>2021-05-17T15:25:53.000Z</time>
      </trkpt>
      <trkpt lat="44.85593" lon="0.59452">
        <ele>43.1</ele>
        <time>2021-05-17T15:25:54.000Z</time>
      </trkpt>
      <trkpt lat="44.85593" lon="0.59453">
        <ele>43.1</ele>
        <time>2021-05-17T15:25:55.000Z</time>
      </trkpt>
      <trkpt lat="44.85593" lon="0.59453">
        <ele>43.1</ele>
        <time>2021-05-17T15:25:56.000Z</time>
      </trkpt>
      <trkpt lat="44.85593" lon="0.59454">
        <ele>43.2</ele>
        <time>2021-05-17T15:25:57.000Z</time>
      </trkpt>
      <trkpt lat="44.85592" lon="0.59454">
        <ele>43.2</ele>
        <time>2021-05-17T15:25:58.000Z</time>
      </trkpt>
      <trkpt lat="44.85592" lon="0.59454">
        <ele>43.2</ele>
        <time>2021-05-17T15:25:59.000Z</time>
      </trkpt>
      <trkpt lat="44.85592" lon="0.59455">
        <ele>43.2</ele>
        <time>2021-05-17T15:26:00.000Z</time>
      </trkpt>
      <trkpt lat="44.85592" lon="0.59456">
        <ele>43.2</ele>
        <time>2021-05-17T15:26:01.000Z</time>
      </trkpt>
      <trkpt lat="44.85592" lon="0.59456">
        <ele>43.2</ele>
        <time>2021-05-17T15:26:02.000Z</time>
      </trkpt>
      <trkpt lat="44.85591" lon="0.59457">
        <ele>43.2</ele>
        <time>2021-05-17T15:26:03.000Z</time>
      </trkpt>
      <trkpt lat="44.85591" lon="0.59456">
        <ele>43.2</ele>
        <time>2021-05-17T15:26:04.000Z</time>
      </trkpt>
      <trkpt lat="44.85591" lon="0.59455">
        <ele>43.2</ele>
        <time>2021-05-17T15:26:05.000Z</time>
      </trkpt>
      <trkpt lat="44.85592" lon="0.59455">
        <ele>43.2</ele>
        <time>2021-05-17T15:26:06.000Z</time>
      </trkpt>
      <trkpt lat="44.85592" lon="0.59455">
        <ele>43.2</ele>
        <time>2021-05-17T15:26:07.000Z</time>
      </trkpt>
      <trkpt lat="44.85592" lon="0.59456">
        <ele>43.2</ele>
        <time>2021-05-17T15:26:08.000Z</time>
      </trkpt>
      <trkpt lat="44.85592" lon="0.59456">
        <ele>43.2</ele>
        <time>2021-05-17T15:26:09.000Z</time>
      </trkpt>
      <trkpt lat="44.85592" lon="0.59457">
        <ele>43.2</ele>
        <time>2021-05-17T15:26:10.000Z</time>
      </trkpt>
      <trkpt lat="44.85593" lon="0.59457">
        <ele>43.2</ele>
        <time>2021-05-17T15:26:11.000Z</time>
      </trkpt>
      <trkpt lat="44.85592" lon="0.59457">
        <ele>43.3</ele>
        <time>2021-05-17T15:26:12.000Z</time>
      </trkpt>
      <trkpt lat="44.85592" lon="0.59458">
        <ele>43.3</ele>
        <time>2021-05-17T15:26:13.000Z</time>
      </trkpt>
      <trkpt lat="44.85592" lon="0.59458">
        <ele>43.3</ele>
        <time>2021-05-17T15:26:14.000Z</time>
      </trkpt>
      <trkpt lat="44.85592" lon="0.59458">
        <ele>43.3</ele>
        <time>2021-05-17T15:26:15.000Z</time>
      </trkpt>
      <trkpt lat="44.85593" lon="0.59457">
        <ele>43.3</ele>
        <time>2021-05-17T15:26:16.000Z</time>
      </trkpt>
      <trkpt lat="44.85595" lon="0.59457">
        <ele>43.3</ele>
        <time>2021-05-17T15:26:17.000Z</time>
      </trkpt>
      <trkpt lat="44.85596" lon="0.59457">
        <ele>43.3</ele>
        <time>2021-05-17T15:26:18.000Z</time>
      </trkpt>
      <trkpt lat="44.85597" lon="0.59455">
        <ele>43.4</ele>
        <time>2021-05-17T15:26:19.000Z</time>
      </trkpt>
    </trkseg>
  </trk>
</gpx>